<?xml version="1.0" encoding="UTF-8" standalone="no" ?>
<gpx xmlns="http://www.topografix.com/GPX/1/1" xmlns:xsi="http://www.w3.org/2001/XMLSchema-instance" xsi:schemaLocation="http://www.topografix.com/GPX/1/1 http://www.topografix.com/GPX/1/1/gpx.xsd" version="1.1" creator="VisuGPX - https://www.visugpx.com">
  <metadata>
    <name>Cantal_05</name>
  </metadata>
  <trk>
    <name><![CDATA[exercise]]></name>
    <trkseg>
      <trkpt lat="45.10184" lon="2.58605">
        <ele>992.5</ele>
        <time>2021-08-11T08:08:24Z</time>
      </trkpt>
      <trkpt lat="45.10185" lon="2.58606">
        <ele>992.4</ele>
        <time>2021-08-11T08:08:25Z</time>
      </trkpt>
      <trkpt lat="45.10185" lon="2.58608">
        <ele>992.4</ele>
        <time>2021-08-11T08:08:26Z</time>
      </trkpt>
      <trkpt lat="45.10186" lon="2.58609">
        <ele>992.3</ele>
        <time>2021-08-11T08:08:27Z</time>
      </trkpt>
      <trkpt lat="45.10186" lon="2.58611">
        <ele>992.2</ele>
        <time>2021-08-11T08:08:28Z</time>
      </trkpt>
      <trkpt lat="45.10186" lon="2.58613">
        <ele>992.2</ele>
        <time>2021-08-11T08:08:29Z</time>
      </trkpt>
      <trkpt lat="45.10187" lon="2.58614">
        <ele>992.1</ele>
        <time>2021-08-11T08:08:30Z</time>
      </trkpt>
      <trkpt lat="45.10187" lon="2.58616">
        <ele>992</ele>
        <time>2021-08-11T08:08:31Z</time>
      </trkpt>
      <trkpt lat="45.10187" lon="2.58617">
        <ele>991.9</ele>
        <time>2021-08-11T08:08:32Z</time>
      </trkpt>
      <trkpt lat="45.10188" lon="2.58619">
        <ele>991.8</ele>
        <time>2021-08-11T08:08:33Z</time>
      </trkpt>
      <trkpt lat="45.10188" lon="2.58621">
        <ele>991.7</ele>
        <time>2021-08-11T08:08:34Z</time>
      </trkpt>
      <trkpt lat="45.10188" lon="2.58622">
        <ele>991.5</ele>
        <time>2021-08-11T08:08:35Z</time>
      </trkpt>
      <trkpt lat="45.10188" lon="2.58624">
        <ele>991.4</ele>
        <time>2021-08-11T08:08:36Z</time>
      </trkpt>
      <trkpt lat="45.10188" lon="2.58626">
        <ele>991.3</ele>
        <time>2021-08-11T08:08:37Z</time>
      </trkpt>
      <trkpt lat="45.10189" lon="2.58627">
        <ele>991.2</ele>
        <time>2021-08-11T08:08:38Z</time>
      </trkpt>
      <trkpt lat="45.10189" lon="2.58629">
        <ele>991.1</ele>
        <time>2021-08-11T08:08:39Z</time>
      </trkpt>
      <trkpt lat="45.10189" lon="2.58631">
        <ele>990.9</ele>
        <time>2021-08-11T08:08:40Z</time>
      </trkpt>
      <trkpt lat="45.10189" lon="2.58632">
        <ele>990.8</ele>
        <time>2021-08-11T08:08:41Z</time>
      </trkpt>
      <trkpt lat="45.1019" lon="2.58634">
        <ele>990.7</ele>
        <time>2021-08-11T08:08:42Z</time>
      </trkpt>
      <trkpt lat="45.1019" lon="2.58635">
        <ele>990.5</ele>
        <time>2021-08-11T08:08:43Z</time>
      </trkpt>
      <trkpt lat="45.1019" lon="2.58637">
        <ele>990.4</ele>
        <time>2021-08-11T08:08:44Z</time>
      </trkpt>
      <trkpt lat="45.1019" lon="2.58638">
        <ele>990.3</ele>
        <time>2021-08-11T08:08:45Z</time>
      </trkpt>
      <trkpt lat="45.1019" lon="2.5864">
        <ele>990.2</ele>
        <time>2021-08-11T08:08:46Z</time>
      </trkpt>
      <trkpt lat="45.10191" lon="2.58642">
        <ele>990.1</ele>
        <time>2021-08-11T08:08:47Z</time>
      </trkpt>
      <trkpt lat="45.10191" lon="2.58643">
        <ele>989.9</ele>
        <time>2021-08-11T08:08:48Z</time>
      </trkpt>
      <trkpt lat="45.10191" lon="2.58645">
        <ele>989.8</ele>
        <time>2021-08-11T08:08:49Z</time>
      </trkpt>
      <trkpt lat="45.10191" lon="2.58646">
        <ele>989.7</ele>
        <time>2021-08-11T08:08:50Z</time>
      </trkpt>
      <trkpt lat="45.10191" lon="2.58648">
        <ele>989.5</ele>
        <time>2021-08-11T08:08:51Z</time>
      </trkpt>
      <trkpt lat="45.10191" lon="2.58649">
        <ele>989.3</ele>
        <time>2021-08-11T08:08:52Z</time>
      </trkpt>
      <trkpt lat="45.10192" lon="2.58651">
        <ele>989.2</ele>
        <time>2021-08-11T08:08:53Z</time>
      </trkpt>
      <trkpt lat="45.10192" lon="2.58653">
        <ele>989</ele>
        <time>2021-08-11T08:08:54Z</time>
      </trkpt>
      <trkpt lat="45.10192" lon="2.58654">
        <ele>988.8</ele>
        <time>2021-08-11T08:08:55Z</time>
      </trkpt>
      <trkpt lat="45.10192" lon="2.58656">
        <ele>988.6</ele>
        <time>2021-08-11T08:08:56Z</time>
      </trkpt>
      <trkpt lat="45.10191" lon="2.58657">
        <ele>988.3</ele>
        <time>2021-08-11T08:08:57Z</time>
      </trkpt>
      <trkpt lat="45.10191" lon="2.58659">
        <ele>988.2</ele>
        <time>2021-08-11T08:08:58Z</time>
      </trkpt>
      <trkpt lat="45.10191" lon="2.5866">
        <ele>987.9</ele>
        <time>2021-08-11T08:08:59Z</time>
      </trkpt>
      <trkpt lat="45.10191" lon="2.58662">
        <ele>987.8</ele>
        <time>2021-08-11T08:09:00Z</time>
      </trkpt>
      <trkpt lat="45.10191" lon="2.58664">
        <ele>987.5</ele>
        <time>2021-08-11T08:09:01Z</time>
      </trkpt>
      <trkpt lat="45.10191" lon="2.58665">
        <ele>987.2</ele>
        <time>2021-08-11T08:09:02Z</time>
      </trkpt>
      <trkpt lat="45.10191" lon="2.58666">
        <ele>987</ele>
        <time>2021-08-11T08:09:03Z</time>
      </trkpt>
      <trkpt lat="45.10191" lon="2.58668">
        <ele>986.9</ele>
        <time>2021-08-11T08:09:04Z</time>
      </trkpt>
      <trkpt lat="45.10191" lon="2.5867">
        <ele>986.6</ele>
        <time>2021-08-11T08:09:05Z</time>
      </trkpt>
      <trkpt lat="45.1019" lon="2.58671">
        <ele>986.4</ele>
        <time>2021-08-11T08:09:06Z</time>
      </trkpt>
      <trkpt lat="45.1019" lon="2.58673">
        <ele>986.2</ele>
        <time>2021-08-11T08:09:07Z</time>
      </trkpt>
      <trkpt lat="45.1019" lon="2.58674">
        <ele>986</ele>
        <time>2021-08-11T08:09:08Z</time>
      </trkpt>
      <trkpt lat="45.1019" lon="2.58676">
        <ele>985.9</ele>
        <time>2021-08-11T08:09:09Z</time>
      </trkpt>
      <trkpt lat="45.10191" lon="2.58677">
        <ele>985.7</ele>
        <time>2021-08-11T08:09:10Z</time>
      </trkpt>
      <trkpt lat="45.10191" lon="2.58678">
        <ele>985.6</ele>
        <time>2021-08-11T08:09:11Z</time>
      </trkpt>
      <trkpt lat="45.10191" lon="2.5868">
        <ele>985.5</ele>
        <time>2021-08-11T08:09:12Z</time>
      </trkpt>
      <trkpt lat="45.10191" lon="2.58681">
        <ele>985.3</ele>
        <time>2021-08-11T08:09:13Z</time>
      </trkpt>
      <trkpt lat="45.10191" lon="2.58682">
        <ele>985.3</ele>
        <time>2021-08-11T08:09:14Z</time>
      </trkpt>
      <trkpt lat="45.10191" lon="2.58684">
        <ele>985.1</ele>
        <time>2021-08-11T08:09:15Z</time>
      </trkpt>
      <trkpt lat="45.10191" lon="2.58685">
        <ele>984.9</ele>
        <time>2021-08-11T08:09:16Z</time>
      </trkpt>
      <trkpt lat="45.10192" lon="2.58687">
        <ele>984.7</ele>
        <time>2021-08-11T08:09:17Z</time>
      </trkpt>
      <trkpt lat="45.10192" lon="2.58689">
        <ele>984.6</ele>
        <time>2021-08-11T08:09:18Z</time>
      </trkpt>
      <trkpt lat="45.10192" lon="2.5869">
        <ele>984.5</ele>
        <time>2021-08-11T08:09:19Z</time>
      </trkpt>
      <trkpt lat="45.10192" lon="2.58692">
        <ele>984.4</ele>
        <time>2021-08-11T08:09:20Z</time>
      </trkpt>
      <trkpt lat="45.10192" lon="2.58693">
        <ele>984.2</ele>
        <time>2021-08-11T08:09:21Z</time>
      </trkpt>
      <trkpt lat="45.10193" lon="2.58694">
        <ele>984.1</ele>
        <time>2021-08-11T08:09:22Z</time>
      </trkpt>
      <trkpt lat="45.10193" lon="2.58696">
        <ele>984</ele>
        <time>2021-08-11T08:09:23Z</time>
      </trkpt>
      <trkpt lat="45.10193" lon="2.58698">
        <ele>983.9</ele>
        <time>2021-08-11T08:09:24Z</time>
      </trkpt>
      <trkpt lat="45.10194" lon="2.58699">
        <ele>983.7</ele>
        <time>2021-08-11T08:09:25Z</time>
      </trkpt>
      <trkpt lat="45.10194" lon="2.58701">
        <ele>983.6</ele>
        <time>2021-08-11T08:09:26Z</time>
      </trkpt>
      <trkpt lat="45.10194" lon="2.58702">
        <ele>983.5</ele>
        <time>2021-08-11T08:09:27Z</time>
      </trkpt>
      <trkpt lat="45.10194" lon="2.58704">
        <ele>983.3</ele>
        <time>2021-08-11T08:09:28Z</time>
      </trkpt>
      <trkpt lat="45.10195" lon="2.58705">
        <ele>983.2</ele>
        <time>2021-08-11T08:09:29Z</time>
      </trkpt>
      <trkpt lat="45.10195" lon="2.58707">
        <ele>983.1</ele>
        <time>2021-08-11T08:09:30Z</time>
      </trkpt>
      <trkpt lat="45.10195" lon="2.58708">
        <ele>982.9</ele>
        <time>2021-08-11T08:09:31Z</time>
      </trkpt>
      <trkpt lat="45.10195" lon="2.5871">
        <ele>982.8</ele>
        <time>2021-08-11T08:09:32Z</time>
      </trkpt>
      <trkpt lat="45.10195" lon="2.58711">
        <ele>982.7</ele>
        <time>2021-08-11T08:09:33Z</time>
      </trkpt>
      <trkpt lat="45.10195" lon="2.58713">
        <ele>982.5</ele>
        <time>2021-08-11T08:09:34Z</time>
      </trkpt>
      <trkpt lat="45.10196" lon="2.58714">
        <ele>982.4</ele>
        <time>2021-08-11T08:09:35Z</time>
      </trkpt>
      <trkpt lat="45.10196" lon="2.58716">
        <ele>982.3</ele>
        <time>2021-08-11T08:09:36Z</time>
      </trkpt>
      <trkpt lat="45.10196" lon="2.58717">
        <ele>982.2</ele>
        <time>2021-08-11T08:09:37Z</time>
      </trkpt>
      <trkpt lat="45.10197" lon="2.58719">
        <ele>982.1</ele>
        <time>2021-08-11T08:09:38Z</time>
      </trkpt>
      <trkpt lat="45.10198" lon="2.58721">
        <ele>982.1</ele>
        <time>2021-08-11T08:09:39Z</time>
      </trkpt>
      <trkpt lat="45.10198" lon="2.58722">
        <ele>982</ele>
        <time>2021-08-11T08:09:40Z</time>
      </trkpt>
      <trkpt lat="45.10198" lon="2.58724">
        <ele>981.9</ele>
        <time>2021-08-11T08:09:41Z</time>
      </trkpt>
      <trkpt lat="45.10199" lon="2.58725">
        <ele>981.8</ele>
        <time>2021-08-11T08:09:42Z</time>
      </trkpt>
      <trkpt lat="45.10199" lon="2.58727">
        <ele>981.7</ele>
        <time>2021-08-11T08:09:43Z</time>
      </trkpt>
      <trkpt lat="45.102" lon="2.58728">
        <ele>981.6</ele>
        <time>2021-08-11T08:09:44Z</time>
      </trkpt>
      <trkpt lat="45.102" lon="2.5873">
        <ele>981.5</ele>
        <time>2021-08-11T08:09:45Z</time>
      </trkpt>
      <trkpt lat="45.102" lon="2.58731">
        <ele>981.4</ele>
        <time>2021-08-11T08:09:46Z</time>
      </trkpt>
      <trkpt lat="45.10201" lon="2.58733">
        <ele>981.4</ele>
        <time>2021-08-11T08:09:47Z</time>
      </trkpt>
      <trkpt lat="45.10201" lon="2.58734">
        <ele>981.3</ele>
        <time>2021-08-11T08:09:48Z</time>
      </trkpt>
      <trkpt lat="45.10202" lon="2.58736">
        <ele>981.2</ele>
        <time>2021-08-11T08:09:49Z</time>
      </trkpt>
      <trkpt lat="45.10202" lon="2.58737">
        <ele>981.1</ele>
        <time>2021-08-11T08:09:50Z</time>
      </trkpt>
      <trkpt lat="45.10203" lon="2.58739">
        <ele>981</ele>
        <time>2021-08-11T08:09:51Z</time>
      </trkpt>
      <trkpt lat="45.10203" lon="2.5874">
        <ele>981</ele>
        <time>2021-08-11T08:09:52Z</time>
      </trkpt>
      <trkpt lat="45.10204" lon="2.58742">
        <ele>980.9</ele>
        <time>2021-08-11T08:09:53Z</time>
      </trkpt>
      <trkpt lat="45.10204" lon="2.58743">
        <ele>980.9</ele>
        <time>2021-08-11T08:09:54Z</time>
      </trkpt>
      <trkpt lat="45.10205" lon="2.58745">
        <ele>980.8</ele>
        <time>2021-08-11T08:09:55Z</time>
      </trkpt>
      <trkpt lat="45.10205" lon="2.58747">
        <ele>980.7</ele>
        <time>2021-08-11T08:09:56Z</time>
      </trkpt>
      <trkpt lat="45.10206" lon="2.58748">
        <ele>980.7</ele>
        <time>2021-08-11T08:09:57Z</time>
      </trkpt>
      <trkpt lat="45.10207" lon="2.5875">
        <ele>980.6</ele>
        <time>2021-08-11T08:09:58Z</time>
      </trkpt>
      <trkpt lat="45.10207" lon="2.58751">
        <ele>980.6</ele>
        <time>2021-08-11T08:09:59Z</time>
      </trkpt>
      <trkpt lat="45.10208" lon="2.58753">
        <ele>980.5</ele>
        <time>2021-08-11T08:10:00Z</time>
      </trkpt>
      <trkpt lat="45.10209" lon="2.58754">
        <ele>980.4</ele>
        <time>2021-08-11T08:10:01Z</time>
      </trkpt>
      <trkpt lat="45.10209" lon="2.58756">
        <ele>980.3</ele>
        <time>2021-08-11T08:10:02Z</time>
      </trkpt>
      <trkpt lat="45.1021" lon="2.58757">
        <ele>980.3</ele>
        <time>2021-08-11T08:10:03Z</time>
      </trkpt>
      <trkpt lat="45.1021" lon="2.58759">
        <ele>980.2</ele>
        <time>2021-08-11T08:10:04Z</time>
      </trkpt>
      <trkpt lat="45.10211" lon="2.5876">
        <ele>980.1</ele>
        <time>2021-08-11T08:10:05Z</time>
      </trkpt>
      <trkpt lat="45.10212" lon="2.58761">
        <ele>980.1</ele>
        <time>2021-08-11T08:10:06Z</time>
      </trkpt>
      <trkpt lat="45.10213" lon="2.58763">
        <ele>980</ele>
        <time>2021-08-11T08:10:07Z</time>
      </trkpt>
      <trkpt lat="45.10213" lon="2.58764">
        <ele>980</ele>
        <time>2021-08-11T08:10:08Z</time>
      </trkpt>
      <trkpt lat="45.10214" lon="2.58766">
        <ele>980</ele>
        <time>2021-08-11T08:10:09Z</time>
      </trkpt>
      <trkpt lat="45.10215" lon="2.58767">
        <ele>979.9</ele>
        <time>2021-08-11T08:10:10Z</time>
      </trkpt>
      <trkpt lat="45.10216" lon="2.58769">
        <ele>979.9</ele>
        <time>2021-08-11T08:10:11Z</time>
      </trkpt>
      <trkpt lat="45.10217" lon="2.5877">
        <ele>979.9</ele>
        <time>2021-08-11T08:10:12Z</time>
      </trkpt>
      <trkpt lat="45.10217" lon="2.58771">
        <ele>979.8</ele>
        <time>2021-08-11T08:10:13Z</time>
      </trkpt>
      <trkpt lat="45.10218" lon="2.58773">
        <ele>979.7</ele>
        <time>2021-08-11T08:10:14Z</time>
      </trkpt>
      <trkpt lat="45.10218" lon="2.58774">
        <ele>979.7</ele>
        <time>2021-08-11T08:10:15Z</time>
      </trkpt>
      <trkpt lat="45.10219" lon="2.58775">
        <ele>979.6</ele>
        <time>2021-08-11T08:10:16Z</time>
      </trkpt>
      <trkpt lat="45.10219" lon="2.58777">
        <ele>979.3</ele>
        <time>2021-08-11T08:10:17Z</time>
      </trkpt>
      <trkpt lat="45.10219" lon="2.58777">
        <ele>979.3</ele>
        <time>2021-08-11T08:10:18Z</time>
      </trkpt>
      <trkpt lat="45.10219" lon="2.58778">
        <ele>979.2</ele>
        <time>2021-08-11T08:10:19Z</time>
      </trkpt>
      <trkpt lat="45.1022" lon="2.58779">
        <ele>979.1</ele>
        <time>2021-08-11T08:10:20Z</time>
      </trkpt>
      <trkpt lat="45.1022" lon="2.58781">
        <ele>979.1</ele>
        <time>2021-08-11T08:10:21Z</time>
      </trkpt>
      <trkpt lat="45.10221" lon="2.58782">
        <ele>979.1</ele>
        <time>2021-08-11T08:10:22Z</time>
      </trkpt>
      <trkpt lat="45.10221" lon="2.58783">
        <ele>979</ele>
        <time>2021-08-11T08:10:23Z</time>
      </trkpt>
      <trkpt lat="45.10222" lon="2.58784">
        <ele>978.9</ele>
        <time>2021-08-11T08:10:24Z</time>
      </trkpt>
      <trkpt lat="45.10223" lon="2.58786">
        <ele>978.8</ele>
        <time>2021-08-11T08:10:25Z</time>
      </trkpt>
      <trkpt lat="45.10223" lon="2.58787">
        <ele>978.8</ele>
        <time>2021-08-11T08:10:26Z</time>
      </trkpt>
      <trkpt lat="45.10224" lon="2.58788">
        <ele>978.7</ele>
        <time>2021-08-11T08:10:27Z</time>
      </trkpt>
      <trkpt lat="45.10224" lon="2.58789">
        <ele>978.7</ele>
        <time>2021-08-11T08:10:28Z</time>
      </trkpt>
      <trkpt lat="45.10225" lon="2.58791">
        <ele>978.6</ele>
        <time>2021-08-11T08:10:29Z</time>
      </trkpt>
      <trkpt lat="45.10226" lon="2.58792">
        <ele>978.6</ele>
        <time>2021-08-11T08:10:30Z</time>
      </trkpt>
      <trkpt lat="45.10226" lon="2.58793">
        <ele>978.5</ele>
        <time>2021-08-11T08:10:31Z</time>
      </trkpt>
      <trkpt lat="45.10227" lon="2.58795">
        <ele>978.5</ele>
        <time>2021-08-11T08:10:32Z</time>
      </trkpt>
      <trkpt lat="45.10228" lon="2.58796">
        <ele>978.5</ele>
        <time>2021-08-11T08:10:33Z</time>
      </trkpt>
      <trkpt lat="45.10228" lon="2.58797">
        <ele>978.5</ele>
        <time>2021-08-11T08:10:34Z</time>
      </trkpt>
      <trkpt lat="45.10229" lon="2.58798">
        <ele>978.4</ele>
        <time>2021-08-11T08:10:35Z</time>
      </trkpt>
      <trkpt lat="45.1023" lon="2.588">
        <ele>978.4</ele>
        <time>2021-08-11T08:10:36Z</time>
      </trkpt>
      <trkpt lat="45.1023" lon="2.58801">
        <ele>978.3</ele>
        <time>2021-08-11T08:10:37Z</time>
      </trkpt>
      <trkpt lat="45.10231" lon="2.58802">
        <ele>978.2</ele>
        <time>2021-08-11T08:10:38Z</time>
      </trkpt>
      <trkpt lat="45.10231" lon="2.58804">
        <ele>978.1</ele>
        <time>2021-08-11T08:10:39Z</time>
      </trkpt>
      <trkpt lat="45.10232" lon="2.58805">
        <ele>978.1</ele>
        <time>2021-08-11T08:10:40Z</time>
      </trkpt>
      <trkpt lat="45.10233" lon="2.58806">
        <ele>978.1</ele>
        <time>2021-08-11T08:10:41Z</time>
      </trkpt>
      <trkpt lat="45.10233" lon="2.58808">
        <ele>978</ele>
        <time>2021-08-11T08:10:42Z</time>
      </trkpt>
      <trkpt lat="45.10234" lon="2.58809">
        <ele>977.9</ele>
        <time>2021-08-11T08:10:43Z</time>
      </trkpt>
      <trkpt lat="45.10234" lon="2.5881">
        <ele>977.9</ele>
        <time>2021-08-11T08:10:44Z</time>
      </trkpt>
      <trkpt lat="45.10235" lon="2.58812">
        <ele>977.8</ele>
        <time>2021-08-11T08:10:45Z</time>
      </trkpt>
      <trkpt lat="45.10235" lon="2.58813">
        <ele>977.7</ele>
        <time>2021-08-11T08:10:46Z</time>
      </trkpt>
      <trkpt lat="45.10236" lon="2.58814">
        <ele>977.6</ele>
        <time>2021-08-11T08:10:47Z</time>
      </trkpt>
      <trkpt lat="45.10237" lon="2.58816">
        <ele>977.5</ele>
        <time>2021-08-11T08:10:48Z</time>
      </trkpt>
      <trkpt lat="45.10237" lon="2.58817">
        <ele>977.5</ele>
        <time>2021-08-11T08:10:49Z</time>
      </trkpt>
      <trkpt lat="45.10238" lon="2.58818">
        <ele>977.4</ele>
        <time>2021-08-11T08:10:50Z</time>
      </trkpt>
      <trkpt lat="45.10238" lon="2.5882">
        <ele>977.3</ele>
        <time>2021-08-11T08:10:51Z</time>
      </trkpt>
      <trkpt lat="45.10239" lon="2.58821">
        <ele>977.2</ele>
        <time>2021-08-11T08:10:52Z</time>
      </trkpt>
      <trkpt lat="45.10239" lon="2.58823">
        <ele>977.1</ele>
        <time>2021-08-11T08:10:53Z</time>
      </trkpt>
      <trkpt lat="45.1024" lon="2.58824">
        <ele>977.1</ele>
        <time>2021-08-11T08:10:54Z</time>
      </trkpt>
      <trkpt lat="45.10241" lon="2.58825">
        <ele>977</ele>
        <time>2021-08-11T08:10:55Z</time>
      </trkpt>
      <trkpt lat="45.10241" lon="2.58827">
        <ele>976.9</ele>
        <time>2021-08-11T08:10:56Z</time>
      </trkpt>
      <trkpt lat="45.10242" lon="2.58828">
        <ele>976.8</ele>
        <time>2021-08-11T08:10:57Z</time>
      </trkpt>
      <trkpt lat="45.10242" lon="2.58829">
        <ele>976.7</ele>
        <time>2021-08-11T08:10:58Z</time>
      </trkpt>
      <trkpt lat="45.10243" lon="2.58831">
        <ele>976.6</ele>
        <time>2021-08-11T08:10:59Z</time>
      </trkpt>
      <trkpt lat="45.10243" lon="2.58832">
        <ele>976.5</ele>
        <time>2021-08-11T08:11:00Z</time>
      </trkpt>
      <trkpt lat="45.10244" lon="2.58833">
        <ele>976.4</ele>
        <time>2021-08-11T08:11:01Z</time>
      </trkpt>
      <trkpt lat="45.10244" lon="2.58835">
        <ele>976.3</ele>
        <time>2021-08-11T08:11:02Z</time>
      </trkpt>
      <trkpt lat="45.10245" lon="2.58836">
        <ele>976.1</ele>
        <time>2021-08-11T08:11:03Z</time>
      </trkpt>
      <trkpt lat="45.10245" lon="2.58838">
        <ele>976</ele>
        <time>2021-08-11T08:11:04Z</time>
      </trkpt>
      <trkpt lat="45.10246" lon="2.58839">
        <ele>975.8</ele>
        <time>2021-08-11T08:11:05Z</time>
      </trkpt>
      <trkpt lat="45.10246" lon="2.5884">
        <ele>975.6</ele>
        <time>2021-08-11T08:11:06Z</time>
      </trkpt>
      <trkpt lat="45.10246" lon="2.58842">
        <ele>975.4</ele>
        <time>2021-08-11T08:11:07Z</time>
      </trkpt>
      <trkpt lat="45.10247" lon="2.58843">
        <ele>975.2</ele>
        <time>2021-08-11T08:11:08Z</time>
      </trkpt>
      <trkpt lat="45.10247" lon="2.58845">
        <ele>975</ele>
        <time>2021-08-11T08:11:09Z</time>
      </trkpt>
      <trkpt lat="45.10248" lon="2.58846">
        <ele>974.8</ele>
        <time>2021-08-11T08:11:10Z</time>
      </trkpt>
      <trkpt lat="45.10248" lon="2.58848">
        <ele>974.6</ele>
        <time>2021-08-11T08:11:11Z</time>
      </trkpt>
      <trkpt lat="45.10249" lon="2.58849">
        <ele>974.5</ele>
        <time>2021-08-11T08:11:12Z</time>
      </trkpt>
      <trkpt lat="45.10249" lon="2.58851">
        <ele>974.3</ele>
        <time>2021-08-11T08:11:13Z</time>
      </trkpt>
      <trkpt lat="45.1025" lon="2.58852">
        <ele>974.1</ele>
        <time>2021-08-11T08:11:14Z</time>
      </trkpt>
      <trkpt lat="45.1025" lon="2.58854">
        <ele>973.9</ele>
        <time>2021-08-11T08:11:15Z</time>
      </trkpt>
      <trkpt lat="45.10251" lon="2.58855">
        <ele>973.7</ele>
        <time>2021-08-11T08:11:16Z</time>
      </trkpt>
      <trkpt lat="45.10251" lon="2.58857">
        <ele>973.5</ele>
        <time>2021-08-11T08:11:17Z</time>
      </trkpt>
      <trkpt lat="45.10252" lon="2.58858">
        <ele>973.4</ele>
        <time>2021-08-11T08:11:18Z</time>
      </trkpt>
      <trkpt lat="45.10252" lon="2.5886">
        <ele>973.2</ele>
        <time>2021-08-11T08:11:19Z</time>
      </trkpt>
      <trkpt lat="45.10253" lon="2.58861">
        <ele>973</ele>
        <time>2021-08-11T08:11:20Z</time>
      </trkpt>
      <trkpt lat="45.10253" lon="2.58863">
        <ele>972.7</ele>
        <time>2021-08-11T08:11:21Z</time>
      </trkpt>
      <trkpt lat="45.10253" lon="2.58864">
        <ele>972.5</ele>
        <time>2021-08-11T08:11:22Z</time>
      </trkpt>
      <trkpt lat="45.10254" lon="2.58866">
        <ele>972.2</ele>
        <time>2021-08-11T08:11:23Z</time>
      </trkpt>
      <trkpt lat="45.10254" lon="2.58867">
        <ele>972</ele>
        <time>2021-08-11T08:11:24Z</time>
      </trkpt>
      <trkpt lat="45.10255" lon="2.58869">
        <ele>971.9</ele>
        <time>2021-08-11T08:11:25Z</time>
      </trkpt>
      <trkpt lat="45.10255" lon="2.58871">
        <ele>971.6</ele>
        <time>2021-08-11T08:11:26Z</time>
      </trkpt>
      <trkpt lat="45.10256" lon="2.58872">
        <ele>971.5</ele>
        <time>2021-08-11T08:11:27Z</time>
      </trkpt>
      <trkpt lat="45.10256" lon="2.58874">
        <ele>971.2</ele>
        <time>2021-08-11T08:11:28Z</time>
      </trkpt>
      <trkpt lat="45.10257" lon="2.58875">
        <ele>971.1</ele>
        <time>2021-08-11T08:11:29Z</time>
      </trkpt>
      <trkpt lat="45.10257" lon="2.58877">
        <ele>970.9</ele>
        <time>2021-08-11T08:11:30Z</time>
      </trkpt>
      <trkpt lat="45.10258" lon="2.58878">
        <ele>970.7</ele>
        <time>2021-08-11T08:11:31Z</time>
      </trkpt>
      <trkpt lat="45.10258" lon="2.5888">
        <ele>970.5</ele>
        <time>2021-08-11T08:11:32Z</time>
      </trkpt>
      <trkpt lat="45.10259" lon="2.58881">
        <ele>970.4</ele>
        <time>2021-08-11T08:11:33Z</time>
      </trkpt>
      <trkpt lat="45.10259" lon="2.58883">
        <ele>970.2</ele>
        <time>2021-08-11T08:11:34Z</time>
      </trkpt>
      <trkpt lat="45.1026" lon="2.58884">
        <ele>970</ele>
        <time>2021-08-11T08:11:35Z</time>
      </trkpt>
      <trkpt lat="45.1026" lon="2.58886">
        <ele>969.9</ele>
        <time>2021-08-11T08:11:36Z</time>
      </trkpt>
      <trkpt lat="45.10261" lon="2.58887">
        <ele>969.8</ele>
        <time>2021-08-11T08:11:37Z</time>
      </trkpt>
      <trkpt lat="45.10262" lon="2.58888">
        <ele>969.7</ele>
        <time>2021-08-11T08:11:38Z</time>
      </trkpt>
      <trkpt lat="45.10262" lon="2.5889">
        <ele>969.5</ele>
        <time>2021-08-11T08:11:39Z</time>
      </trkpt>
      <trkpt lat="45.10263" lon="2.58891">
        <ele>969.3</ele>
        <time>2021-08-11T08:11:40Z</time>
      </trkpt>
      <trkpt lat="45.10263" lon="2.58893">
        <ele>969.2</ele>
        <time>2021-08-11T08:11:41Z</time>
      </trkpt>
      <trkpt lat="45.10264" lon="2.58894">
        <ele>969</ele>
        <time>2021-08-11T08:11:42Z</time>
      </trkpt>
      <trkpt lat="45.10264" lon="2.58896">
        <ele>968.9</ele>
        <time>2021-08-11T08:11:43Z</time>
      </trkpt>
      <trkpt lat="45.10265" lon="2.58897">
        <ele>968.8</ele>
        <time>2021-08-11T08:11:44Z</time>
      </trkpt>
      <trkpt lat="45.10266" lon="2.58898">
        <ele>968.7</ele>
        <time>2021-08-11T08:11:45Z</time>
      </trkpt>
      <trkpt lat="45.10266" lon="2.589">
        <ele>968.6</ele>
        <time>2021-08-11T08:11:46Z</time>
      </trkpt>
      <trkpt lat="45.10267" lon="2.58901">
        <ele>968.5</ele>
        <time>2021-08-11T08:11:47Z</time>
      </trkpt>
      <trkpt lat="45.10267" lon="2.58902">
        <ele>968.4</ele>
        <time>2021-08-11T08:11:48Z</time>
      </trkpt>
      <trkpt lat="45.10268" lon="2.58904">
        <ele>968.2</ele>
        <time>2021-08-11T08:11:49Z</time>
      </trkpt>
      <trkpt lat="45.10269" lon="2.58905">
        <ele>968.2</ele>
        <time>2021-08-11T08:11:50Z</time>
      </trkpt>
      <trkpt lat="45.10269" lon="2.58907">
        <ele>968</ele>
        <time>2021-08-11T08:11:51Z</time>
      </trkpt>
      <trkpt lat="45.1027" lon="2.58908">
        <ele>968</ele>
        <time>2021-08-11T08:11:52Z</time>
      </trkpt>
      <trkpt lat="45.10271" lon="2.58909">
        <ele>967.9</ele>
        <time>2021-08-11T08:11:53Z</time>
      </trkpt>
      <trkpt lat="45.10271" lon="2.58911">
        <ele>967.8</ele>
        <time>2021-08-11T08:11:54Z</time>
      </trkpt>
      <trkpt lat="45.10272" lon="2.58912">
        <ele>967.7</ele>
        <time>2021-08-11T08:11:55Z</time>
      </trkpt>
      <trkpt lat="45.10273" lon="2.58914">
        <ele>967.5</ele>
        <time>2021-08-11T08:11:56Z</time>
      </trkpt>
      <trkpt lat="45.10273" lon="2.58915">
        <ele>967.5</ele>
        <time>2021-08-11T08:11:57Z</time>
      </trkpt>
      <trkpt lat="45.10274" lon="2.58916">
        <ele>967.4</ele>
        <time>2021-08-11T08:11:58Z</time>
      </trkpt>
      <trkpt lat="45.10275" lon="2.58918">
        <ele>967.4</ele>
        <time>2021-08-11T08:11:59Z</time>
      </trkpt>
      <trkpt lat="45.10275" lon="2.58919">
        <ele>967.3</ele>
        <time>2021-08-11T08:12:00Z</time>
      </trkpt>
      <trkpt lat="45.10276" lon="2.5892">
        <ele>967.3</ele>
        <time>2021-08-11T08:12:01Z</time>
      </trkpt>
      <trkpt lat="45.10277" lon="2.58921">
        <ele>967.2</ele>
        <time>2021-08-11T08:12:02Z</time>
      </trkpt>
      <trkpt lat="45.10277" lon="2.58923">
        <ele>967</ele>
        <time>2021-08-11T08:12:03Z</time>
      </trkpt>
      <trkpt lat="45.10278" lon="2.58924">
        <ele>967</ele>
        <time>2021-08-11T08:12:04Z</time>
      </trkpt>
      <trkpt lat="45.10279" lon="2.58926">
        <ele>966.9</ele>
        <time>2021-08-11T08:12:05Z</time>
      </trkpt>
      <trkpt lat="45.10279" lon="2.58927">
        <ele>966.8</ele>
        <time>2021-08-11T08:12:06Z</time>
      </trkpt>
      <trkpt lat="45.1028" lon="2.58928">
        <ele>966.7</ele>
        <time>2021-08-11T08:12:07Z</time>
      </trkpt>
      <trkpt lat="45.1028" lon="2.5893">
        <ele>966.6</ele>
        <time>2021-08-11T08:12:08Z</time>
      </trkpt>
      <trkpt lat="45.10281" lon="2.58931">
        <ele>966.5</ele>
        <time>2021-08-11T08:12:09Z</time>
      </trkpt>
      <trkpt lat="45.10282" lon="2.58932">
        <ele>966.4</ele>
        <time>2021-08-11T08:12:10Z</time>
      </trkpt>
      <trkpt lat="45.10282" lon="2.58934">
        <ele>966.4</ele>
        <time>2021-08-11T08:12:11Z</time>
      </trkpt>
      <trkpt lat="45.10283" lon="2.58935">
        <ele>966.3</ele>
        <time>2021-08-11T08:12:12Z</time>
      </trkpt>
      <trkpt lat="45.10284" lon="2.58936">
        <ele>966.2</ele>
        <time>2021-08-11T08:12:13Z</time>
      </trkpt>
      <trkpt lat="45.10284" lon="2.58938">
        <ele>966.2</ele>
        <time>2021-08-11T08:12:14Z</time>
      </trkpt>
      <trkpt lat="45.10285" lon="2.58939">
        <ele>966.1</ele>
        <time>2021-08-11T08:12:15Z</time>
      </trkpt>
      <trkpt lat="45.10286" lon="2.5894">
        <ele>965.9</ele>
        <time>2021-08-11T08:12:16Z</time>
      </trkpt>
      <trkpt lat="45.10286" lon="2.58941">
        <ele>965.9</ele>
        <time>2021-08-11T08:12:17Z</time>
      </trkpt>
      <trkpt lat="45.10287" lon="2.58943">
        <ele>965.8</ele>
        <time>2021-08-11T08:12:18Z</time>
      </trkpt>
      <trkpt lat="45.10288" lon="2.58944">
        <ele>965.7</ele>
        <time>2021-08-11T08:12:19Z</time>
      </trkpt>
      <trkpt lat="45.10288" lon="2.58945">
        <ele>965.7</ele>
        <time>2021-08-11T08:12:20Z</time>
      </trkpt>
      <trkpt lat="45.10289" lon="2.58947">
        <ele>965.6</ele>
        <time>2021-08-11T08:12:21Z</time>
      </trkpt>
      <trkpt lat="45.1029" lon="2.58948">
        <ele>965.5</ele>
        <time>2021-08-11T08:12:22Z</time>
      </trkpt>
      <trkpt lat="45.1029" lon="2.58949">
        <ele>965.4</ele>
        <time>2021-08-11T08:12:23Z</time>
      </trkpt>
      <trkpt lat="45.10291" lon="2.58951">
        <ele>965.2</ele>
        <time>2021-08-11T08:12:24Z</time>
      </trkpt>
      <trkpt lat="45.10291" lon="2.58952">
        <ele>965.1</ele>
        <time>2021-08-11T08:12:25Z</time>
      </trkpt>
      <trkpt lat="45.10292" lon="2.58953">
        <ele>965</ele>
        <time>2021-08-11T08:12:26Z</time>
      </trkpt>
      <trkpt lat="45.10293" lon="2.58955">
        <ele>964.9</ele>
        <time>2021-08-11T08:12:27Z</time>
      </trkpt>
      <trkpt lat="45.10293" lon="2.58956">
        <ele>964.8</ele>
        <time>2021-08-11T08:12:28Z</time>
      </trkpt>
      <trkpt lat="45.10294" lon="2.58957">
        <ele>964.7</ele>
        <time>2021-08-11T08:12:29Z</time>
      </trkpt>
      <trkpt lat="45.10295" lon="2.58959">
        <ele>964.6</ele>
        <time>2021-08-11T08:12:30Z</time>
      </trkpt>
      <trkpt lat="45.10295" lon="2.5896">
        <ele>964.5</ele>
        <time>2021-08-11T08:12:31Z</time>
      </trkpt>
      <trkpt lat="45.10296" lon="2.58961">
        <ele>964.5</ele>
        <time>2021-08-11T08:12:32Z</time>
      </trkpt>
      <trkpt lat="45.10297" lon="2.58963">
        <ele>964.4</ele>
        <time>2021-08-11T08:12:33Z</time>
      </trkpt>
      <trkpt lat="45.10297" lon="2.58964">
        <ele>964.3</ele>
        <time>2021-08-11T08:12:34Z</time>
      </trkpt>
      <trkpt lat="45.10298" lon="2.58965">
        <ele>964.2</ele>
        <time>2021-08-11T08:12:35Z</time>
      </trkpt>
      <trkpt lat="45.10299" lon="2.58967">
        <ele>964.1</ele>
        <time>2021-08-11T08:12:36Z</time>
      </trkpt>
      <trkpt lat="45.103" lon="2.58968">
        <ele>964</ele>
        <time>2021-08-11T08:12:37Z</time>
      </trkpt>
      <trkpt lat="45.103" lon="2.58969">
        <ele>963.9</ele>
        <time>2021-08-11T08:12:38Z</time>
      </trkpt>
      <trkpt lat="45.10301" lon="2.5897">
        <ele>963.8</ele>
        <time>2021-08-11T08:12:39Z</time>
      </trkpt>
      <trkpt lat="45.10302" lon="2.58972">
        <ele>963.7</ele>
        <time>2021-08-11T08:12:40Z</time>
      </trkpt>
      <trkpt lat="45.10302" lon="2.58973">
        <ele>963.7</ele>
        <time>2021-08-11T08:12:41Z</time>
      </trkpt>
      <trkpt lat="45.10303" lon="2.58974">
        <ele>963.5</ele>
        <time>2021-08-11T08:12:42Z</time>
      </trkpt>
      <trkpt lat="45.10304" lon="2.58976">
        <ele>963.4</ele>
        <time>2021-08-11T08:12:43Z</time>
      </trkpt>
      <trkpt lat="45.10304" lon="2.58977">
        <ele>963.3</ele>
        <time>2021-08-11T08:12:44Z</time>
      </trkpt>
      <trkpt lat="45.10305" lon="2.58978">
        <ele>963.2</ele>
        <time>2021-08-11T08:12:45Z</time>
      </trkpt>
      <trkpt lat="45.10306" lon="2.5898">
        <ele>963.1</ele>
        <time>2021-08-11T08:12:46Z</time>
      </trkpt>
      <trkpt lat="45.10306" lon="2.58981">
        <ele>962.9</ele>
        <time>2021-08-11T08:12:47Z</time>
      </trkpt>
      <trkpt lat="45.10307" lon="2.58983">
        <ele>962.8</ele>
        <time>2021-08-11T08:12:48Z</time>
      </trkpt>
      <trkpt lat="45.10308" lon="2.58984">
        <ele>962.6</ele>
        <time>2021-08-11T08:12:49Z</time>
      </trkpt>
      <trkpt lat="45.10308" lon="2.58985">
        <ele>962.5</ele>
        <time>2021-08-11T08:12:50Z</time>
      </trkpt>
      <trkpt lat="45.10309" lon="2.58987">
        <ele>962.4</ele>
        <time>2021-08-11T08:12:51Z</time>
      </trkpt>
      <trkpt lat="45.10309" lon="2.58988">
        <ele>962.3</ele>
        <time>2021-08-11T08:12:52Z</time>
      </trkpt>
      <trkpt lat="45.1031" lon="2.58989">
        <ele>962.2</ele>
        <time>2021-08-11T08:12:53Z</time>
      </trkpt>
      <trkpt lat="45.10311" lon="2.58991">
        <ele>962</ele>
        <time>2021-08-11T08:12:54Z</time>
      </trkpt>
      <trkpt lat="45.10311" lon="2.58992">
        <ele>961.9</ele>
        <time>2021-08-11T08:12:55Z</time>
      </trkpt>
      <trkpt lat="45.10312" lon="2.58993">
        <ele>961.7</ele>
        <time>2021-08-11T08:12:56Z</time>
      </trkpt>
      <trkpt lat="45.10313" lon="2.58994">
        <ele>961.7</ele>
        <time>2021-08-11T08:12:57Z</time>
      </trkpt>
      <trkpt lat="45.10313" lon="2.58996">
        <ele>961.5</ele>
        <time>2021-08-11T08:12:58Z</time>
      </trkpt>
      <trkpt lat="45.10314" lon="2.58997">
        <ele>961.4</ele>
        <time>2021-08-11T08:12:59Z</time>
      </trkpt>
      <trkpt lat="45.10315" lon="2.58998">
        <ele>961.3</ele>
        <time>2021-08-11T08:13:00Z</time>
      </trkpt>
      <trkpt lat="45.10315" lon="2.59">
        <ele>961.1</ele>
        <time>2021-08-11T08:13:01Z</time>
      </trkpt>
      <trkpt lat="45.10316" lon="2.59001">
        <ele>961.1</ele>
        <time>2021-08-11T08:13:02Z</time>
      </trkpt>
      <trkpt lat="45.10316" lon="2.59002">
        <ele>961</ele>
        <time>2021-08-11T08:13:03Z</time>
      </trkpt>
      <trkpt lat="45.10317" lon="2.59003">
        <ele>961</ele>
        <time>2021-08-11T08:13:04Z</time>
      </trkpt>
      <trkpt lat="45.10318" lon="2.59005">
        <ele>960.9</ele>
        <time>2021-08-11T08:13:05Z</time>
      </trkpt>
      <trkpt lat="45.10318" lon="2.59006">
        <ele>960.9</ele>
        <time>2021-08-11T08:13:06Z</time>
      </trkpt>
      <trkpt lat="45.10319" lon="2.59007">
        <ele>960.8</ele>
        <time>2021-08-11T08:13:07Z</time>
      </trkpt>
      <trkpt lat="45.1032" lon="2.59008">
        <ele>960.7</ele>
        <time>2021-08-11T08:13:08Z</time>
      </trkpt>
      <trkpt lat="45.1032" lon="2.5901">
        <ele>960.6</ele>
        <time>2021-08-11T08:13:09Z</time>
      </trkpt>
      <trkpt lat="45.10321" lon="2.59011">
        <ele>960.5</ele>
        <time>2021-08-11T08:13:10Z</time>
      </trkpt>
      <trkpt lat="45.10321" lon="2.59012">
        <ele>960.4</ele>
        <time>2021-08-11T08:13:11Z</time>
      </trkpt>
      <trkpt lat="45.10322" lon="2.59014">
        <ele>960.3</ele>
        <time>2021-08-11T08:13:12Z</time>
      </trkpt>
      <trkpt lat="45.10322" lon="2.59015">
        <ele>960.2</ele>
        <time>2021-08-11T08:13:13Z</time>
      </trkpt>
      <trkpt lat="45.10323" lon="2.59016">
        <ele>960.1</ele>
        <time>2021-08-11T08:13:14Z</time>
      </trkpt>
      <trkpt lat="45.10323" lon="2.59018">
        <ele>960</ele>
        <time>2021-08-11T08:13:15Z</time>
      </trkpt>
      <trkpt lat="45.10324" lon="2.59019">
        <ele>959.9</ele>
        <time>2021-08-11T08:13:16Z</time>
      </trkpt>
      <trkpt lat="45.10324" lon="2.5902">
        <ele>959.8</ele>
        <time>2021-08-11T08:13:17Z</time>
      </trkpt>
      <trkpt lat="45.10325" lon="2.59022">
        <ele>959.6</ele>
        <time>2021-08-11T08:13:18Z</time>
      </trkpt>
      <trkpt lat="45.10325" lon="2.59023">
        <ele>959.5</ele>
        <time>2021-08-11T08:13:19Z</time>
      </trkpt>
      <trkpt lat="45.10326" lon="2.59025">
        <ele>959.3</ele>
        <time>2021-08-11T08:13:20Z</time>
      </trkpt>
      <trkpt lat="45.10326" lon="2.59026">
        <ele>959.1</ele>
        <time>2021-08-11T08:13:21Z</time>
      </trkpt>
      <trkpt lat="45.10327" lon="2.59028">
        <ele>959</ele>
        <time>2021-08-11T08:13:22Z</time>
      </trkpt>
      <trkpt lat="45.10327" lon="2.59029">
        <ele>958.8</ele>
        <time>2021-08-11T08:13:23Z</time>
      </trkpt>
      <trkpt lat="45.10327" lon="2.59031">
        <ele>958.7</ele>
        <time>2021-08-11T08:13:24Z</time>
      </trkpt>
      <trkpt lat="45.10328" lon="2.59032">
        <ele>958.5</ele>
        <time>2021-08-11T08:13:25Z</time>
      </trkpt>
      <trkpt lat="45.10328" lon="2.59034">
        <ele>958.3</ele>
        <time>2021-08-11T08:13:26Z</time>
      </trkpt>
      <trkpt lat="45.10329" lon="2.59036">
        <ele>958.1</ele>
        <time>2021-08-11T08:13:27Z</time>
      </trkpt>
      <trkpt lat="45.10329" lon="2.59037">
        <ele>957.9</ele>
        <time>2021-08-11T08:13:28Z</time>
      </trkpt>
      <trkpt lat="45.10329" lon="2.59039">
        <ele>957.7</ele>
        <time>2021-08-11T08:13:29Z</time>
      </trkpt>
      <trkpt lat="45.1033" lon="2.5904">
        <ele>957.5</ele>
        <time>2021-08-11T08:13:30Z</time>
      </trkpt>
      <trkpt lat="45.1033" lon="2.59042">
        <ele>957.3</ele>
        <time>2021-08-11T08:13:31Z</time>
      </trkpt>
      <trkpt lat="45.1033" lon="2.59043">
        <ele>957.2</ele>
        <time>2021-08-11T08:13:32Z</time>
      </trkpt>
      <trkpt lat="45.10331" lon="2.59045">
        <ele>957</ele>
        <time>2021-08-11T08:13:33Z</time>
      </trkpt>
      <trkpt lat="45.10331" lon="2.59047">
        <ele>956.8</ele>
        <time>2021-08-11T08:13:34Z</time>
      </trkpt>
      <trkpt lat="45.10332" lon="2.59048">
        <ele>956.6</ele>
        <time>2021-08-11T08:13:35Z</time>
      </trkpt>
      <trkpt lat="45.10332" lon="2.59049">
        <ele>956.5</ele>
        <time>2021-08-11T08:13:36Z</time>
      </trkpt>
      <trkpt lat="45.10333" lon="2.59051">
        <ele>956.3</ele>
        <time>2021-08-11T08:13:37Z</time>
      </trkpt>
      <trkpt lat="45.10333" lon="2.59052">
        <ele>956.1</ele>
        <time>2021-08-11T08:13:38Z</time>
      </trkpt>
      <trkpt lat="45.10333" lon="2.59054">
        <ele>956</ele>
        <time>2021-08-11T08:13:39Z</time>
      </trkpt>
      <trkpt lat="45.10334" lon="2.59055">
        <ele>955.8</ele>
        <time>2021-08-11T08:13:40Z</time>
      </trkpt>
      <trkpt lat="45.10334" lon="2.59057">
        <ele>955.6</ele>
        <time>2021-08-11T08:13:41Z</time>
      </trkpt>
      <trkpt lat="45.10334" lon="2.59059">
        <ele>955.5</ele>
        <time>2021-08-11T08:13:42Z</time>
      </trkpt>
      <trkpt lat="45.10335" lon="2.5906">
        <ele>955.4</ele>
        <time>2021-08-11T08:13:43Z</time>
      </trkpt>
      <trkpt lat="45.10335" lon="2.59062">
        <ele>955.2</ele>
        <time>2021-08-11T08:13:44Z</time>
      </trkpt>
      <trkpt lat="45.10336" lon="2.59063">
        <ele>955.1</ele>
        <time>2021-08-11T08:13:45Z</time>
      </trkpt>
      <trkpt lat="45.10336" lon="2.59065">
        <ele>954.9</ele>
        <time>2021-08-11T08:13:46Z</time>
      </trkpt>
      <trkpt lat="45.10336" lon="2.59066">
        <ele>954.7</ele>
        <time>2021-08-11T08:13:47Z</time>
      </trkpt>
      <trkpt lat="45.10337" lon="2.59068">
        <ele>954.5</ele>
        <time>2021-08-11T08:13:48Z</time>
      </trkpt>
      <trkpt lat="45.10337" lon="2.59069">
        <ele>954.4</ele>
        <time>2021-08-11T08:13:49Z</time>
      </trkpt>
      <trkpt lat="45.10337" lon="2.59071">
        <ele>954.3</ele>
        <time>2021-08-11T08:13:50Z</time>
      </trkpt>
      <trkpt lat="45.10338" lon="2.59073">
        <ele>954.2</ele>
        <time>2021-08-11T08:13:51Z</time>
      </trkpt>
      <trkpt lat="45.10338" lon="2.59074">
        <ele>954</ele>
        <time>2021-08-11T08:13:52Z</time>
      </trkpt>
      <trkpt lat="45.10339" lon="2.59076">
        <ele>953.9</ele>
        <time>2021-08-11T08:13:53Z</time>
      </trkpt>
      <trkpt lat="45.10339" lon="2.59077">
        <ele>953.7</ele>
        <time>2021-08-11T08:13:54Z</time>
      </trkpt>
      <trkpt lat="45.10339" lon="2.59079">
        <ele>953.5</ele>
        <time>2021-08-11T08:13:55Z</time>
      </trkpt>
      <trkpt lat="45.1034" lon="2.59081">
        <ele>953.3</ele>
        <time>2021-08-11T08:13:56Z</time>
      </trkpt>
      <trkpt lat="45.1034" lon="2.59082">
        <ele>953.1</ele>
        <time>2021-08-11T08:13:57Z</time>
      </trkpt>
      <trkpt lat="45.1034" lon="2.59084">
        <ele>953</ele>
        <time>2021-08-11T08:13:58Z</time>
      </trkpt>
      <trkpt lat="45.1034" lon="2.59085">
        <ele>952.9</ele>
        <time>2021-08-11T08:13:59Z</time>
      </trkpt>
      <trkpt lat="45.1034" lon="2.59087">
        <ele>952.9</ele>
        <time>2021-08-11T08:14:00Z</time>
      </trkpt>
      <trkpt lat="45.10341" lon="2.59089">
        <ele>952.8</ele>
        <time>2021-08-11T08:14:01Z</time>
      </trkpt>
      <trkpt lat="45.10341" lon="2.5909">
        <ele>952.7</ele>
        <time>2021-08-11T08:14:02Z</time>
      </trkpt>
      <trkpt lat="45.10341" lon="2.59092">
        <ele>952.6</ele>
        <time>2021-08-11T08:14:03Z</time>
      </trkpt>
      <trkpt lat="45.10341" lon="2.59094">
        <ele>952.5</ele>
        <time>2021-08-11T08:14:04Z</time>
      </trkpt>
      <trkpt lat="45.1034" lon="2.59095">
        <ele>952.3</ele>
        <time>2021-08-11T08:14:05Z</time>
      </trkpt>
      <trkpt lat="45.1034" lon="2.59097">
        <ele>952.2</ele>
        <time>2021-08-11T08:14:06Z</time>
      </trkpt>
      <trkpt lat="45.1034" lon="2.59099">
        <ele>952</ele>
        <time>2021-08-11T08:14:07Z</time>
      </trkpt>
      <trkpt lat="45.1034" lon="2.591">
        <ele>951.8</ele>
        <time>2021-08-11T08:14:08Z</time>
      </trkpt>
      <trkpt lat="45.10339" lon="2.59102">
        <ele>951.6</ele>
        <time>2021-08-11T08:14:09Z</time>
      </trkpt>
      <trkpt lat="45.10339" lon="2.59103">
        <ele>951.4</ele>
        <time>2021-08-11T08:14:10Z</time>
      </trkpt>
      <trkpt lat="45.10338" lon="2.59105">
        <ele>951.1</ele>
        <time>2021-08-11T08:14:11Z</time>
      </trkpt>
      <trkpt lat="45.10338" lon="2.59106">
        <ele>950.9</ele>
        <time>2021-08-11T08:14:12Z</time>
      </trkpt>
      <trkpt lat="45.10337" lon="2.59108">
        <ele>950.6</ele>
        <time>2021-08-11T08:14:13Z</time>
      </trkpt>
      <trkpt lat="45.10337" lon="2.59109">
        <ele>950.3</ele>
        <time>2021-08-11T08:14:14Z</time>
      </trkpt>
      <trkpt lat="45.10336" lon="2.5911">
        <ele>950.1</ele>
        <time>2021-08-11T08:14:15Z</time>
      </trkpt>
      <trkpt lat="45.10335" lon="2.59112">
        <ele>949.8</ele>
        <time>2021-08-11T08:14:16Z</time>
      </trkpt>
      <trkpt lat="45.10334" lon="2.59113">
        <ele>949.5</ele>
        <time>2021-08-11T08:14:17Z</time>
      </trkpt>
      <trkpt lat="45.10334" lon="2.59114">
        <ele>949.2</ele>
        <time>2021-08-11T08:14:18Z</time>
      </trkpt>
      <trkpt lat="45.10333" lon="2.59115">
        <ele>949</ele>
        <time>2021-08-11T08:14:19Z</time>
      </trkpt>
      <trkpt lat="45.10332" lon="2.59116">
        <ele>948.8</ele>
        <time>2021-08-11T08:14:20Z</time>
      </trkpt>
      <trkpt lat="45.10331" lon="2.59117">
        <ele>948.7</ele>
        <time>2021-08-11T08:14:21Z</time>
      </trkpt>
      <trkpt lat="45.1033" lon="2.59118">
        <ele>948.5</ele>
        <time>2021-08-11T08:14:22Z</time>
      </trkpt>
      <trkpt lat="45.10329" lon="2.5912">
        <ele>948.3</ele>
        <time>2021-08-11T08:14:23Z</time>
      </trkpt>
      <trkpt lat="45.10328" lon="2.59121">
        <ele>948.2</ele>
        <time>2021-08-11T08:14:24Z</time>
      </trkpt>
      <trkpt lat="45.10327" lon="2.59122">
        <ele>948</ele>
        <time>2021-08-11T08:14:25Z</time>
      </trkpt>
      <trkpt lat="45.10326" lon="2.59123">
        <ele>947.8</ele>
        <time>2021-08-11T08:14:26Z</time>
      </trkpt>
      <trkpt lat="45.10325" lon="2.59124">
        <ele>947.6</ele>
        <time>2021-08-11T08:14:27Z</time>
      </trkpt>
      <trkpt lat="45.10324" lon="2.59125">
        <ele>947.4</ele>
        <time>2021-08-11T08:14:28Z</time>
      </trkpt>
      <trkpt lat="45.10323" lon="2.59126">
        <ele>947.3</ele>
        <time>2021-08-11T08:14:29Z</time>
      </trkpt>
      <trkpt lat="45.10322" lon="2.59127">
        <ele>947.1</ele>
        <time>2021-08-11T08:14:30Z</time>
      </trkpt>
      <trkpt lat="45.10322" lon="2.59128">
        <ele>947</ele>
        <time>2021-08-11T08:14:31Z</time>
      </trkpt>
      <trkpt lat="45.10321" lon="2.59128">
        <ele>946.8</ele>
        <time>2021-08-11T08:14:32Z</time>
      </trkpt>
      <trkpt lat="45.1032" lon="2.59129">
        <ele>946.6</ele>
        <time>2021-08-11T08:14:33Z</time>
      </trkpt>
      <trkpt lat="45.10319" lon="2.5913">
        <ele>946.5</ele>
        <time>2021-08-11T08:14:34Z</time>
      </trkpt>
      <trkpt lat="45.10318" lon="2.59131">
        <ele>946.3</ele>
        <time>2021-08-11T08:14:35Z</time>
      </trkpt>
      <trkpt lat="45.10316" lon="2.59132">
        <ele>946.2</ele>
        <time>2021-08-11T08:14:36Z</time>
      </trkpt>
      <trkpt lat="45.10315" lon="2.59133">
        <ele>946</ele>
        <time>2021-08-11T08:14:37Z</time>
      </trkpt>
      <trkpt lat="45.10314" lon="2.59134">
        <ele>945.8</ele>
        <time>2021-08-11T08:14:38Z</time>
      </trkpt>
      <trkpt lat="45.10313" lon="2.59135">
        <ele>945.7</ele>
        <time>2021-08-11T08:14:39Z</time>
      </trkpt>
      <trkpt lat="45.10312" lon="2.59135">
        <ele>945.5</ele>
        <time>2021-08-11T08:14:40Z</time>
      </trkpt>
      <trkpt lat="45.10311" lon="2.59136">
        <ele>945.4</ele>
        <time>2021-08-11T08:14:41Z</time>
      </trkpt>
      <trkpt lat="45.10311" lon="2.59137">
        <ele>945.3</ele>
        <time>2021-08-11T08:14:42Z</time>
      </trkpt>
      <trkpt lat="45.1031" lon="2.59138">
        <ele>945.1</ele>
        <time>2021-08-11T08:14:43Z</time>
      </trkpt>
      <trkpt lat="45.10309" lon="2.59139">
        <ele>945</ele>
        <time>2021-08-11T08:14:44Z</time>
      </trkpt>
      <trkpt lat="45.10307" lon="2.5914">
        <ele>944.8</ele>
        <time>2021-08-11T08:14:45Z</time>
      </trkpt>
      <trkpt lat="45.10306" lon="2.59141">
        <ele>944.7</ele>
        <time>2021-08-11T08:14:46Z</time>
      </trkpt>
      <trkpt lat="45.10305" lon="2.59142">
        <ele>944.5</ele>
        <time>2021-08-11T08:14:47Z</time>
      </trkpt>
      <trkpt lat="45.10304" lon="2.59143">
        <ele>944.4</ele>
        <time>2021-08-11T08:14:48Z</time>
      </trkpt>
      <trkpt lat="45.10303" lon="2.59143">
        <ele>944.3</ele>
        <time>2021-08-11T08:14:49Z</time>
      </trkpt>
      <trkpt lat="45.10302" lon="2.59144">
        <ele>944.1</ele>
        <time>2021-08-11T08:14:50Z</time>
      </trkpt>
      <trkpt lat="45.10301" lon="2.59145">
        <ele>944</ele>
        <time>2021-08-11T08:14:51Z</time>
      </trkpt>
      <trkpt lat="45.103" lon="2.59146">
        <ele>943.9</ele>
        <time>2021-08-11T08:14:52Z</time>
      </trkpt>
      <trkpt lat="45.10299" lon="2.59147">
        <ele>943.7</ele>
        <time>2021-08-11T08:14:53Z</time>
      </trkpt>
      <trkpt lat="45.10298" lon="2.59147">
        <ele>943.6</ele>
        <time>2021-08-11T08:14:54Z</time>
      </trkpt>
      <trkpt lat="45.10297" lon="2.59148">
        <ele>943.5</ele>
        <time>2021-08-11T08:14:55Z</time>
      </trkpt>
      <trkpt lat="45.10296" lon="2.59149">
        <ele>943.3</ele>
        <time>2021-08-11T08:14:56Z</time>
      </trkpt>
      <trkpt lat="45.10295" lon="2.5915">
        <ele>943.2</ele>
        <time>2021-08-11T08:14:57Z</time>
      </trkpt>
      <trkpt lat="45.10294" lon="2.59151">
        <ele>943.1</ele>
        <time>2021-08-11T08:14:58Z</time>
      </trkpt>
      <trkpt lat="45.10293" lon="2.59152">
        <ele>943</ele>
        <time>2021-08-11T08:14:59Z</time>
      </trkpt>
      <trkpt lat="45.10292" lon="2.59152">
        <ele>942.8</ele>
        <time>2021-08-11T08:15:00Z</time>
      </trkpt>
      <trkpt lat="45.10291" lon="2.59153">
        <ele>942.7</ele>
        <time>2021-08-11T08:15:01Z</time>
      </trkpt>
      <trkpt lat="45.1029" lon="2.59154">
        <ele>942.6</ele>
        <time>2021-08-11T08:15:02Z</time>
      </trkpt>
      <trkpt lat="45.10289" lon="2.59155">
        <ele>942.5</ele>
        <time>2021-08-11T08:15:03Z</time>
      </trkpt>
      <trkpt lat="45.10288" lon="2.59156">
        <ele>942.4</ele>
        <time>2021-08-11T08:15:04Z</time>
      </trkpt>
      <trkpt lat="45.10287" lon="2.59157">
        <ele>942.3</ele>
        <time>2021-08-11T08:15:05Z</time>
      </trkpt>
      <trkpt lat="45.10286" lon="2.59157">
        <ele>942.2</ele>
        <time>2021-08-11T08:15:06Z</time>
      </trkpt>
      <trkpt lat="45.10285" lon="2.59158">
        <ele>942.1</ele>
        <time>2021-08-11T08:15:07Z</time>
      </trkpt>
      <trkpt lat="45.10284" lon="2.59159">
        <ele>942</ele>
        <time>2021-08-11T08:15:08Z</time>
      </trkpt>
      <trkpt lat="45.10283" lon="2.5916">
        <ele>941.9</ele>
        <time>2021-08-11T08:15:09Z</time>
      </trkpt>
      <trkpt lat="45.10282" lon="2.59161">
        <ele>941.8</ele>
        <time>2021-08-11T08:15:10Z</time>
      </trkpt>
      <trkpt lat="45.10281" lon="2.59161">
        <ele>941.7</ele>
        <time>2021-08-11T08:15:11Z</time>
      </trkpt>
      <trkpt lat="45.1028" lon="2.59162">
        <ele>941.6</ele>
        <time>2021-08-11T08:15:12Z</time>
      </trkpt>
      <trkpt lat="45.10279" lon="2.59164">
        <ele>941.5</ele>
        <time>2021-08-11T08:15:13Z</time>
      </trkpt>
      <trkpt lat="45.10278" lon="2.59165">
        <ele>941.4</ele>
        <time>2021-08-11T08:15:14Z</time>
      </trkpt>
      <trkpt lat="45.10277" lon="2.59166">
        <ele>941.3</ele>
        <time>2021-08-11T08:15:15Z</time>
      </trkpt>
      <trkpt lat="45.10277" lon="2.59167">
        <ele>941.2</ele>
        <time>2021-08-11T08:15:16Z</time>
      </trkpt>
      <trkpt lat="45.10276" lon="2.59168">
        <ele>941.2</ele>
        <time>2021-08-11T08:15:17Z</time>
      </trkpt>
      <trkpt lat="45.10275" lon="2.59169">
        <ele>941.1</ele>
        <time>2021-08-11T08:15:18Z</time>
      </trkpt>
      <trkpt lat="45.10274" lon="2.59169">
        <ele>941</ele>
        <time>2021-08-11T08:15:19Z</time>
      </trkpt>
      <trkpt lat="45.10273" lon="2.5917">
        <ele>940.9</ele>
        <time>2021-08-11T08:15:20Z</time>
      </trkpt>
      <trkpt lat="45.10272" lon="2.59171">
        <ele>940.8</ele>
        <time>2021-08-11T08:15:21Z</time>
      </trkpt>
      <trkpt lat="45.10271" lon="2.59172">
        <ele>940.8</ele>
        <time>2021-08-11T08:15:22Z</time>
      </trkpt>
      <trkpt lat="45.1027" lon="2.59173">
        <ele>940.7</ele>
        <time>2021-08-11T08:15:23Z</time>
      </trkpt>
      <trkpt lat="45.10269" lon="2.59174">
        <ele>940.6</ele>
        <time>2021-08-11T08:15:24Z</time>
      </trkpt>
      <trkpt lat="45.10268" lon="2.59175">
        <ele>940.5</ele>
        <time>2021-08-11T08:15:25Z</time>
      </trkpt>
      <trkpt lat="45.10267" lon="2.59175">
        <ele>940.5</ele>
        <time>2021-08-11T08:15:26Z</time>
      </trkpt>
      <trkpt lat="45.10266" lon="2.59176">
        <ele>940.4</ele>
        <time>2021-08-11T08:15:27Z</time>
      </trkpt>
      <trkpt lat="45.10265" lon="2.59177">
        <ele>940.3</ele>
        <time>2021-08-11T08:15:28Z</time>
      </trkpt>
      <trkpt lat="45.10264" lon="2.59178">
        <ele>940.2</ele>
        <time>2021-08-11T08:15:29Z</time>
      </trkpt>
      <trkpt lat="45.10263" lon="2.59179">
        <ele>940.2</ele>
        <time>2021-08-11T08:15:30Z</time>
      </trkpt>
      <trkpt lat="45.10262" lon="2.5918">
        <ele>940.1</ele>
        <time>2021-08-11T08:15:31Z</time>
      </trkpt>
      <trkpt lat="45.10261" lon="2.59181">
        <ele>940</ele>
        <time>2021-08-11T08:15:32Z</time>
      </trkpt>
      <trkpt lat="45.1026" lon="2.59182">
        <ele>939.9</ele>
        <time>2021-08-11T08:15:33Z</time>
      </trkpt>
      <trkpt lat="45.10259" lon="2.59183">
        <ele>939.9</ele>
        <time>2021-08-11T08:15:34Z</time>
      </trkpt>
      <trkpt lat="45.10258" lon="2.59183">
        <ele>939.8</ele>
        <time>2021-08-11T08:15:35Z</time>
      </trkpt>
      <trkpt lat="45.10257" lon="2.59184">
        <ele>939.7</ele>
        <time>2021-08-11T08:15:36Z</time>
      </trkpt>
      <trkpt lat="45.10256" lon="2.59185">
        <ele>939.7</ele>
        <time>2021-08-11T08:15:37Z</time>
      </trkpt>
      <trkpt lat="45.10255" lon="2.59186">
        <ele>939.6</ele>
        <time>2021-08-11T08:15:38Z</time>
      </trkpt>
      <trkpt lat="45.10254" lon="2.59187">
        <ele>939.5</ele>
        <time>2021-08-11T08:15:39Z</time>
      </trkpt>
      <trkpt lat="45.10252" lon="2.59188">
        <ele>939.4</ele>
        <time>2021-08-11T08:15:40Z</time>
      </trkpt>
      <trkpt lat="45.10251" lon="2.59189">
        <ele>939.4</ele>
        <time>2021-08-11T08:15:41Z</time>
      </trkpt>
      <trkpt lat="45.1025" lon="2.5919">
        <ele>939.3</ele>
        <time>2021-08-11T08:15:42Z</time>
      </trkpt>
      <trkpt lat="45.10249" lon="2.59191">
        <ele>939.3</ele>
        <time>2021-08-11T08:15:43Z</time>
      </trkpt>
      <trkpt lat="45.10248" lon="2.59191">
        <ele>939.3</ele>
        <time>2021-08-11T08:15:44Z</time>
      </trkpt>
      <trkpt lat="45.10247" lon="2.59192">
        <ele>939.2</ele>
        <time>2021-08-11T08:15:45Z</time>
      </trkpt>
      <trkpt lat="45.10246" lon="2.59193">
        <ele>939.2</ele>
        <time>2021-08-11T08:15:46Z</time>
      </trkpt>
      <trkpt lat="45.10245" lon="2.59194">
        <ele>939.2</ele>
        <time>2021-08-11T08:15:47Z</time>
      </trkpt>
      <trkpt lat="45.10244" lon="2.59195">
        <ele>939.2</ele>
        <time>2021-08-11T08:15:48Z</time>
      </trkpt>
      <trkpt lat="45.10242" lon="2.59195">
        <ele>939.2</ele>
        <time>2021-08-11T08:15:49Z</time>
      </trkpt>
      <trkpt lat="45.10241" lon="2.59196">
        <ele>939.1</ele>
        <time>2021-08-11T08:15:50Z</time>
      </trkpt>
      <trkpt lat="45.1024" lon="2.59197">
        <ele>939.1</ele>
        <time>2021-08-11T08:15:51Z</time>
      </trkpt>
      <trkpt lat="45.10239" lon="2.59198">
        <ele>939.1</ele>
        <time>2021-08-11T08:15:52Z</time>
      </trkpt>
      <trkpt lat="45.10238" lon="2.59199">
        <ele>939.1</ele>
        <time>2021-08-11T08:15:53Z</time>
      </trkpt>
      <trkpt lat="45.10237" lon="2.592">
        <ele>939</ele>
        <time>2021-08-11T08:15:54Z</time>
      </trkpt>
      <trkpt lat="45.10236" lon="2.59201">
        <ele>939</ele>
        <time>2021-08-11T08:15:55Z</time>
      </trkpt>
      <trkpt lat="45.10235" lon="2.59202">
        <ele>939</ele>
        <time>2021-08-11T08:15:56Z</time>
      </trkpt>
      <trkpt lat="45.10234" lon="2.59203">
        <ele>939</ele>
        <time>2021-08-11T08:15:57Z</time>
      </trkpt>
      <trkpt lat="45.10233" lon="2.59204">
        <ele>939</ele>
        <time>2021-08-11T08:15:58Z</time>
      </trkpt>
      <trkpt lat="45.10232" lon="2.59205">
        <ele>938.9</ele>
        <time>2021-08-11T08:15:59Z</time>
      </trkpt>
      <trkpt lat="45.10231" lon="2.59206">
        <ele>938.9</ele>
        <time>2021-08-11T08:16:00Z</time>
      </trkpt>
      <trkpt lat="45.1023" lon="2.59207">
        <ele>938.9</ele>
        <time>2021-08-11T08:16:01Z</time>
      </trkpt>
      <trkpt lat="45.10229" lon="2.59209">
        <ele>938.9</ele>
        <time>2021-08-11T08:16:02Z</time>
      </trkpt>
      <trkpt lat="45.10229" lon="2.5921">
        <ele>938.9</ele>
        <time>2021-08-11T08:16:03Z</time>
      </trkpt>
      <trkpt lat="45.10228" lon="2.59211">
        <ele>938.8</ele>
        <time>2021-08-11T08:16:04Z</time>
      </trkpt>
      <trkpt lat="45.10227" lon="2.59213">
        <ele>938.8</ele>
        <time>2021-08-11T08:16:05Z</time>
      </trkpt>
      <trkpt lat="45.10226" lon="2.59214">
        <ele>938.8</ele>
        <time>2021-08-11T08:16:06Z</time>
      </trkpt>
      <trkpt lat="45.10226" lon="2.59216">
        <ele>938.8</ele>
        <time>2021-08-11T08:16:07Z</time>
      </trkpt>
      <trkpt lat="45.10225" lon="2.59217">
        <ele>938.8</ele>
        <time>2021-08-11T08:16:08Z</time>
      </trkpt>
      <trkpt lat="45.10224" lon="2.59219">
        <ele>938.7</ele>
        <time>2021-08-11T08:16:09Z</time>
      </trkpt>
      <trkpt lat="45.10224" lon="2.5922">
        <ele>938.7</ele>
        <time>2021-08-11T08:16:10Z</time>
      </trkpt>
      <trkpt lat="45.10223" lon="2.59222">
        <ele>938.7</ele>
        <time>2021-08-11T08:16:11Z</time>
      </trkpt>
      <trkpt lat="45.10222" lon="2.59223">
        <ele>938.7</ele>
        <time>2021-08-11T08:16:12Z</time>
      </trkpt>
      <trkpt lat="45.10222" lon="2.59224">
        <ele>938.6</ele>
        <time>2021-08-11T08:16:13Z</time>
      </trkpt>
      <trkpt lat="45.10221" lon="2.59226">
        <ele>938.6</ele>
        <time>2021-08-11T08:16:14Z</time>
      </trkpt>
      <trkpt lat="45.1022" lon="2.59227">
        <ele>938.6</ele>
        <time>2021-08-11T08:16:15Z</time>
      </trkpt>
      <trkpt lat="45.1022" lon="2.59229">
        <ele>938.6</ele>
        <time>2021-08-11T08:16:16Z</time>
      </trkpt>
      <trkpt lat="45.10219" lon="2.5923">
        <ele>938.5</ele>
        <time>2021-08-11T08:16:17Z</time>
      </trkpt>
      <trkpt lat="45.10218" lon="2.59231">
        <ele>938.5</ele>
        <time>2021-08-11T08:16:18Z</time>
      </trkpt>
      <trkpt lat="45.10218" lon="2.59233">
        <ele>938.5</ele>
        <time>2021-08-11T08:16:19Z</time>
      </trkpt>
      <trkpt lat="45.10217" lon="2.59234">
        <ele>938.5</ele>
        <time>2021-08-11T08:16:20Z</time>
      </trkpt>
      <trkpt lat="45.10217" lon="2.59236">
        <ele>938.4</ele>
        <time>2021-08-11T08:16:21Z</time>
      </trkpt>
      <trkpt lat="45.10216" lon="2.59237">
        <ele>938.4</ele>
        <time>2021-08-11T08:16:22Z</time>
      </trkpt>
      <trkpt lat="45.10215" lon="2.59239">
        <ele>938.4</ele>
        <time>2021-08-11T08:16:23Z</time>
      </trkpt>
      <trkpt lat="45.10215" lon="2.5924">
        <ele>938.3</ele>
        <time>2021-08-11T08:16:24Z</time>
      </trkpt>
      <trkpt lat="45.10214" lon="2.59242">
        <ele>938.3</ele>
        <time>2021-08-11T08:16:25Z</time>
      </trkpt>
      <trkpt lat="45.10214" lon="2.59243">
        <ele>938.3</ele>
        <time>2021-08-11T08:16:26Z</time>
      </trkpt>
      <trkpt lat="45.10213" lon="2.59244">
        <ele>938.2</ele>
        <time>2021-08-11T08:16:27Z</time>
      </trkpt>
      <trkpt lat="45.10212" lon="2.59246">
        <ele>938.2</ele>
        <time>2021-08-11T08:16:28Z</time>
      </trkpt>
      <trkpt lat="45.10212" lon="2.59247">
        <ele>938.2</ele>
        <time>2021-08-11T08:16:29Z</time>
      </trkpt>
      <trkpt lat="45.10211" lon="2.59249">
        <ele>938.1</ele>
        <time>2021-08-11T08:16:30Z</time>
      </trkpt>
      <trkpt lat="45.10211" lon="2.5925">
        <ele>938.1</ele>
        <time>2021-08-11T08:16:31Z</time>
      </trkpt>
      <trkpt lat="45.1021" lon="2.59252">
        <ele>938.1</ele>
        <time>2021-08-11T08:16:32Z</time>
      </trkpt>
      <trkpt lat="45.1021" lon="2.59253">
        <ele>938.1</ele>
        <time>2021-08-11T08:16:33Z</time>
      </trkpt>
      <trkpt lat="45.1021" lon="2.59255">
        <ele>938</ele>
        <time>2021-08-11T08:16:34Z</time>
      </trkpt>
      <trkpt lat="45.1021" lon="2.59257">
        <ele>938</ele>
        <time>2021-08-11T08:16:35Z</time>
      </trkpt>
      <trkpt lat="45.1021" lon="2.59258">
        <ele>938</ele>
        <time>2021-08-11T08:16:36Z</time>
      </trkpt>
      <trkpt lat="45.1021" lon="2.5926">
        <ele>938</ele>
        <time>2021-08-11T08:16:37Z</time>
      </trkpt>
      <trkpt lat="45.1021" lon="2.59261">
        <ele>938</ele>
        <time>2021-08-11T08:16:38Z</time>
      </trkpt>
      <trkpt lat="45.1021" lon="2.59263">
        <ele>938</ele>
        <time>2021-08-11T08:16:39Z</time>
      </trkpt>
      <trkpt lat="45.1021" lon="2.59265">
        <ele>938</ele>
        <time>2021-08-11T08:16:40Z</time>
      </trkpt>
      <trkpt lat="45.1021" lon="2.59266">
        <ele>938</ele>
        <time>2021-08-11T08:16:41Z</time>
      </trkpt>
      <trkpt lat="45.1021" lon="2.59268">
        <ele>938</ele>
        <time>2021-08-11T08:16:42Z</time>
      </trkpt>
      <trkpt lat="45.1021" lon="2.5927">
        <ele>938</ele>
        <time>2021-08-11T08:16:43Z</time>
      </trkpt>
      <trkpt lat="45.1021" lon="2.59271">
        <ele>938</ele>
        <time>2021-08-11T08:16:44Z</time>
      </trkpt>
      <trkpt lat="45.1021" lon="2.59273">
        <ele>938</ele>
        <time>2021-08-11T08:16:45Z</time>
      </trkpt>
      <trkpt lat="45.10211" lon="2.59274">
        <ele>938</ele>
        <time>2021-08-11T08:16:46Z</time>
      </trkpt>
      <trkpt lat="45.10211" lon="2.59276">
        <ele>938</ele>
        <time>2021-08-11T08:16:47Z</time>
      </trkpt>
      <trkpt lat="45.10211" lon="2.59278">
        <ele>938</ele>
        <time>2021-08-11T08:16:48Z</time>
      </trkpt>
      <trkpt lat="45.10211" lon="2.59279">
        <ele>938</ele>
        <time>2021-08-11T08:16:49Z</time>
      </trkpt>
      <trkpt lat="45.10212" lon="2.59281">
        <ele>938</ele>
        <time>2021-08-11T08:16:50Z</time>
      </trkpt>
      <trkpt lat="45.10212" lon="2.59283">
        <ele>938</ele>
        <time>2021-08-11T08:16:51Z</time>
      </trkpt>
      <trkpt lat="45.10213" lon="2.59284">
        <ele>938.1</ele>
        <time>2021-08-11T08:16:52Z</time>
      </trkpt>
      <trkpt lat="45.10213" lon="2.59286">
        <ele>938.1</ele>
        <time>2021-08-11T08:16:53Z</time>
      </trkpt>
      <trkpt lat="45.10213" lon="2.59288">
        <ele>938.1</ele>
        <time>2021-08-11T08:16:54Z</time>
      </trkpt>
      <trkpt lat="45.10214" lon="2.5929">
        <ele>938.1</ele>
        <time>2021-08-11T08:16:55Z</time>
      </trkpt>
      <trkpt lat="45.10214" lon="2.59291">
        <ele>938.1</ele>
        <time>2021-08-11T08:16:56Z</time>
      </trkpt>
      <trkpt lat="45.10214" lon="2.59293">
        <ele>938.1</ele>
        <time>2021-08-11T08:16:57Z</time>
      </trkpt>
      <trkpt lat="45.10215" lon="2.59295">
        <ele>938.2</ele>
        <time>2021-08-11T08:16:58Z</time>
      </trkpt>
      <trkpt lat="45.10215" lon="2.59296">
        <ele>938.2</ele>
        <time>2021-08-11T08:16:59Z</time>
      </trkpt>
      <trkpt lat="45.10215" lon="2.59298">
        <ele>938.2</ele>
        <time>2021-08-11T08:17:00Z</time>
      </trkpt>
      <trkpt lat="45.10216" lon="2.593">
        <ele>938.2</ele>
        <time>2021-08-11T08:17:01Z</time>
      </trkpt>
      <trkpt lat="45.10216" lon="2.59301">
        <ele>938.2</ele>
        <time>2021-08-11T08:17:02Z</time>
      </trkpt>
      <trkpt lat="45.10216" lon="2.59303">
        <ele>938.2</ele>
        <time>2021-08-11T08:17:03Z</time>
      </trkpt>
      <trkpt lat="45.10216" lon="2.59305">
        <ele>938.2</ele>
        <time>2021-08-11T08:17:04Z</time>
      </trkpt>
      <trkpt lat="45.10217" lon="2.59306">
        <ele>938.3</ele>
        <time>2021-08-11T08:17:05Z</time>
      </trkpt>
      <trkpt lat="45.10217" lon="2.59308">
        <ele>938.3</ele>
        <time>2021-08-11T08:17:06Z</time>
      </trkpt>
      <trkpt lat="45.10217" lon="2.5931">
        <ele>938.3</ele>
        <time>2021-08-11T08:17:07Z</time>
      </trkpt>
      <trkpt lat="45.10218" lon="2.59311">
        <ele>938.3</ele>
        <time>2021-08-11T08:17:08Z</time>
      </trkpt>
      <trkpt lat="45.10218" lon="2.59312">
        <ele>938.3</ele>
        <time>2021-08-11T08:17:09Z</time>
      </trkpt>
      <trkpt lat="45.10218" lon="2.59313">
        <ele>938.3</ele>
        <time>2021-08-11T08:17:10Z</time>
      </trkpt>
      <trkpt lat="45.10218" lon="2.59314">
        <ele>938.3</ele>
        <time>2021-08-11T08:17:11Z</time>
      </trkpt>
      <trkpt lat="45.10218" lon="2.59314">
        <ele>938.3</ele>
        <time>2021-08-11T08:17:12Z</time>
      </trkpt>
      <trkpt lat="45.10218" lon="2.59314">
        <ele>938.3</ele>
        <time>2021-08-11T08:17:13Z</time>
      </trkpt>
      <trkpt lat="45.10218" lon="2.59315">
        <ele>938.3</ele>
        <time>2021-08-11T08:17:14Z</time>
      </trkpt>
      <trkpt lat="45.10218" lon="2.59315">
        <ele>938.3</ele>
        <time>2021-08-11T08:17:15Z</time>
      </trkpt>
      <trkpt lat="45.10218" lon="2.59315">
        <ele>938.4</ele>
        <time>2021-08-11T08:17:16Z</time>
      </trkpt>
      <trkpt lat="45.10218" lon="2.59315">
        <ele>938.4</ele>
        <time>2021-08-11T08:17:17Z</time>
      </trkpt>
      <trkpt lat="45.10219" lon="2.59316">
        <ele>938.4</ele>
        <time>2021-08-11T08:17:18Z</time>
      </trkpt>
      <trkpt lat="45.10219" lon="2.59318">
        <ele>938.4</ele>
        <time>2021-08-11T08:17:19Z</time>
      </trkpt>
      <trkpt lat="45.1022" lon="2.59319">
        <ele>938.5</ele>
        <time>2021-08-11T08:17:20Z</time>
      </trkpt>
      <trkpt lat="45.1022" lon="2.5932">
        <ele>938.5</ele>
        <time>2021-08-11T08:17:21Z</time>
      </trkpt>
      <trkpt lat="45.1022" lon="2.59322">
        <ele>938.5</ele>
        <time>2021-08-11T08:17:22Z</time>
      </trkpt>
      <trkpt lat="45.10221" lon="2.59323">
        <ele>938.6</ele>
        <time>2021-08-11T08:17:23Z</time>
      </trkpt>
      <trkpt lat="45.10221" lon="2.59325">
        <ele>938.6</ele>
        <time>2021-08-11T08:17:24Z</time>
      </trkpt>
      <trkpt lat="45.10222" lon="2.59326">
        <ele>938.6</ele>
        <time>2021-08-11T08:17:25Z</time>
      </trkpt>
      <trkpt lat="45.10222" lon="2.59328">
        <ele>938.7</ele>
        <time>2021-08-11T08:17:26Z</time>
      </trkpt>
      <trkpt lat="45.10223" lon="2.59329">
        <ele>938.7</ele>
        <time>2021-08-11T08:17:27Z</time>
      </trkpt>
      <trkpt lat="45.10223" lon="2.59331">
        <ele>938.7</ele>
        <time>2021-08-11T08:17:28Z</time>
      </trkpt>
      <trkpt lat="45.10224" lon="2.59332">
        <ele>938.8</ele>
        <time>2021-08-11T08:17:29Z</time>
      </trkpt>
      <trkpt lat="45.10224" lon="2.59334">
        <ele>938.8</ele>
        <time>2021-08-11T08:17:30Z</time>
      </trkpt>
      <trkpt lat="45.10225" lon="2.59335">
        <ele>938.9</ele>
        <time>2021-08-11T08:17:31Z</time>
      </trkpt>
      <trkpt lat="45.10225" lon="2.59337">
        <ele>938.9</ele>
        <time>2021-08-11T08:17:32Z</time>
      </trkpt>
      <trkpt lat="45.10226" lon="2.59338">
        <ele>939</ele>
        <time>2021-08-11T08:17:33Z</time>
      </trkpt>
      <trkpt lat="45.10226" lon="2.59339">
        <ele>939</ele>
        <time>2021-08-11T08:17:34Z</time>
      </trkpt>
      <trkpt lat="45.10227" lon="2.59341">
        <ele>939</ele>
        <time>2021-08-11T08:17:35Z</time>
      </trkpt>
      <trkpt lat="45.10227" lon="2.59342">
        <ele>939.1</ele>
        <time>2021-08-11T08:17:36Z</time>
      </trkpt>
      <trkpt lat="45.10228" lon="2.59343">
        <ele>939.1</ele>
        <time>2021-08-11T08:17:37Z</time>
      </trkpt>
      <trkpt lat="45.10228" lon="2.59345">
        <ele>939.2</ele>
        <time>2021-08-11T08:17:38Z</time>
      </trkpt>
      <trkpt lat="45.10229" lon="2.59346">
        <ele>939.2</ele>
        <time>2021-08-11T08:17:39Z</time>
      </trkpt>
      <trkpt lat="45.10229" lon="2.59347">
        <ele>939.3</ele>
        <time>2021-08-11T08:17:40Z</time>
      </trkpt>
      <trkpt lat="45.1023" lon="2.59348">
        <ele>939.3</ele>
        <time>2021-08-11T08:17:41Z</time>
      </trkpt>
      <trkpt lat="45.10231" lon="2.59349">
        <ele>939.4</ele>
        <time>2021-08-11T08:17:42Z</time>
      </trkpt>
      <trkpt lat="45.10231" lon="2.5935">
        <ele>939.4</ele>
        <time>2021-08-11T08:17:43Z</time>
      </trkpt>
      <trkpt lat="45.10232" lon="2.59351">
        <ele>939.5</ele>
        <time>2021-08-11T08:17:44Z</time>
      </trkpt>
      <trkpt lat="45.10233" lon="2.59352">
        <ele>939.5</ele>
        <time>2021-08-11T08:17:45Z</time>
      </trkpt>
      <trkpt lat="45.10234" lon="2.59353">
        <ele>939.6</ele>
        <time>2021-08-11T08:17:46Z</time>
      </trkpt>
      <trkpt lat="45.10235" lon="2.59354">
        <ele>939.7</ele>
        <time>2021-08-11T08:17:47Z</time>
      </trkpt>
      <trkpt lat="45.10237" lon="2.59355">
        <ele>939.8</ele>
        <time>2021-08-11T08:17:48Z</time>
      </trkpt>
      <trkpt lat="45.10238" lon="2.59356">
        <ele>939.8</ele>
        <time>2021-08-11T08:17:49Z</time>
      </trkpt>
      <trkpt lat="45.10239" lon="2.59356">
        <ele>939.9</ele>
        <time>2021-08-11T08:17:50Z</time>
      </trkpt>
      <trkpt lat="45.1024" lon="2.59356">
        <ele>940</ele>
        <time>2021-08-11T08:17:51Z</time>
      </trkpt>
      <trkpt lat="45.10241" lon="2.59356">
        <ele>940.1</ele>
        <time>2021-08-11T08:17:52Z</time>
      </trkpt>
      <trkpt lat="45.10242" lon="2.59357">
        <ele>940.2</ele>
        <time>2021-08-11T08:17:53Z</time>
      </trkpt>
      <trkpt lat="45.10243" lon="2.59356">
        <ele>940.3</ele>
        <time>2021-08-11T08:17:54Z</time>
      </trkpt>
      <trkpt lat="45.10245" lon="2.59356">
        <ele>940.3</ele>
        <time>2021-08-11T08:17:55Z</time>
      </trkpt>
      <trkpt lat="45.10246" lon="2.59356">
        <ele>940.4</ele>
        <time>2021-08-11T08:17:56Z</time>
      </trkpt>
      <trkpt lat="45.10247" lon="2.59357">
        <ele>940.5</ele>
        <time>2021-08-11T08:17:57Z</time>
      </trkpt>
      <trkpt lat="45.10248" lon="2.59357">
        <ele>940.5</ele>
        <time>2021-08-11T08:17:58Z</time>
      </trkpt>
      <trkpt lat="45.10248" lon="2.59357">
        <ele>940.6</ele>
        <time>2021-08-11T08:17:59Z</time>
      </trkpt>
      <trkpt lat="45.10248" lon="2.59357">
        <ele>940.6</ele>
        <time>2021-08-11T08:18:00Z</time>
      </trkpt>
      <trkpt lat="45.10249" lon="2.59357">
        <ele>940.6</ele>
        <time>2021-08-11T08:18:01Z</time>
      </trkpt>
      <trkpt lat="45.10249" lon="2.59357">
        <ele>940.6</ele>
        <time>2021-08-11T08:18:02Z</time>
      </trkpt>
      <trkpt lat="45.10249" lon="2.59356">
        <ele>940.6</ele>
        <time>2021-08-11T08:18:03Z</time>
      </trkpt>
      <trkpt lat="45.10249" lon="2.59356">
        <ele>940.7</ele>
        <time>2021-08-11T08:18:04Z</time>
      </trkpt>
      <trkpt lat="45.10249" lon="2.59356">
        <ele>940.7</ele>
        <time>2021-08-11T08:18:05Z</time>
      </trkpt>
      <trkpt lat="45.10249" lon="2.59356">
        <ele>940.7</ele>
        <time>2021-08-11T08:18:06Z</time>
      </trkpt>
      <trkpt lat="45.10249" lon="2.59356">
        <ele>940.7</ele>
        <time>2021-08-11T08:18:07Z</time>
      </trkpt>
      <trkpt lat="45.10249" lon="2.59356">
        <ele>940.7</ele>
        <time>2021-08-11T08:18:08Z</time>
      </trkpt>
      <trkpt lat="45.10249" lon="2.59355">
        <ele>940.7</ele>
        <time>2021-08-11T08:18:09Z</time>
      </trkpt>
      <trkpt lat="45.1025" lon="2.59355">
        <ele>940.7</ele>
        <time>2021-08-11T08:18:10Z</time>
      </trkpt>
      <trkpt lat="45.1025" lon="2.59355">
        <ele>940.7</ele>
        <time>2021-08-11T08:18:11Z</time>
      </trkpt>
      <trkpt lat="45.1025" lon="2.59355">
        <ele>940.7</ele>
        <time>2021-08-11T08:18:12Z</time>
      </trkpt>
      <trkpt lat="45.1025" lon="2.59355">
        <ele>940.7</ele>
        <time>2021-08-11T08:18:13Z</time>
      </trkpt>
      <trkpt lat="45.1025" lon="2.59355">
        <ele>940.7</ele>
        <time>2021-08-11T08:18:14Z</time>
      </trkpt>
      <trkpt lat="45.1025" lon="2.59355">
        <ele>940.7</ele>
        <time>2021-08-11T08:18:15Z</time>
      </trkpt>
      <trkpt lat="45.1025" lon="2.59355">
        <ele>940.7</ele>
        <time>2021-08-11T08:18:16Z</time>
      </trkpt>
      <trkpt lat="45.1025" lon="2.59355">
        <ele>940.7</ele>
        <time>2021-08-11T08:18:17Z</time>
      </trkpt>
      <trkpt lat="45.1025" lon="2.59355">
        <ele>940.7</ele>
        <time>2021-08-11T08:18:18Z</time>
      </trkpt>
      <trkpt lat="45.1025" lon="2.59355">
        <ele>940.7</ele>
        <time>2021-08-11T08:18:19Z</time>
      </trkpt>
      <trkpt lat="45.1025" lon="2.59355">
        <ele>940.7</ele>
        <time>2021-08-11T08:18:20Z</time>
      </trkpt>
      <trkpt lat="45.1025" lon="2.59355">
        <ele>940.7</ele>
        <time>2021-08-11T08:18:21Z</time>
      </trkpt>
      <trkpt lat="45.1025" lon="2.59355">
        <ele>940.7</ele>
        <time>2021-08-11T08:18:22Z</time>
      </trkpt>
      <trkpt lat="45.1025" lon="2.59355">
        <ele>940.7</ele>
        <time>2021-08-11T08:18:23Z</time>
      </trkpt>
      <trkpt lat="45.1025" lon="2.59355">
        <ele>940.7</ele>
        <time>2021-08-11T08:18:24Z</time>
      </trkpt>
      <trkpt lat="45.10251" lon="2.59356">
        <ele>940.8</ele>
        <time>2021-08-11T08:18:25Z</time>
      </trkpt>
      <trkpt lat="45.10251" lon="2.59356">
        <ele>940.8</ele>
        <time>2021-08-11T08:18:26Z</time>
      </trkpt>
      <trkpt lat="45.10251" lon="2.59357">
        <ele>940.8</ele>
        <time>2021-08-11T08:18:27Z</time>
      </trkpt>
      <trkpt lat="45.10252" lon="2.59358">
        <ele>940.8</ele>
        <time>2021-08-11T08:18:28Z</time>
      </trkpt>
      <trkpt lat="45.10253" lon="2.59359">
        <ele>940.8</ele>
        <time>2021-08-11T08:18:29Z</time>
      </trkpt>
      <trkpt lat="45.10253" lon="2.5936">
        <ele>940.8</ele>
        <time>2021-08-11T08:18:30Z</time>
      </trkpt>
      <trkpt lat="45.10254" lon="2.59361">
        <ele>940.8</ele>
        <time>2021-08-11T08:18:31Z</time>
      </trkpt>
      <trkpt lat="45.10255" lon="2.59362">
        <ele>940.8</ele>
        <time>2021-08-11T08:18:32Z</time>
      </trkpt>
      <trkpt lat="45.10256" lon="2.59363">
        <ele>940.9</ele>
        <time>2021-08-11T08:18:33Z</time>
      </trkpt>
      <trkpt lat="45.10257" lon="2.59365">
        <ele>940.9</ele>
        <time>2021-08-11T08:18:34Z</time>
      </trkpt>
      <trkpt lat="45.10258" lon="2.59366">
        <ele>940.9</ele>
        <time>2021-08-11T08:18:35Z</time>
      </trkpt>
      <trkpt lat="45.10258" lon="2.59367">
        <ele>940.9</ele>
        <time>2021-08-11T08:18:36Z</time>
      </trkpt>
      <trkpt lat="45.10259" lon="2.59368">
        <ele>940.9</ele>
        <time>2021-08-11T08:18:37Z</time>
      </trkpt>
      <trkpt lat="45.1026" lon="2.59369">
        <ele>941</ele>
        <time>2021-08-11T08:18:38Z</time>
      </trkpt>
      <trkpt lat="45.10261" lon="2.5937">
        <ele>941</ele>
        <time>2021-08-11T08:18:39Z</time>
      </trkpt>
      <trkpt lat="45.10262" lon="2.59371">
        <ele>941</ele>
        <time>2021-08-11T08:18:40Z</time>
      </trkpt>
      <trkpt lat="45.10263" lon="2.59373">
        <ele>941</ele>
        <time>2021-08-11T08:18:41Z</time>
      </trkpt>
      <trkpt lat="45.10264" lon="2.59374">
        <ele>941.1</ele>
        <time>2021-08-11T08:18:42Z</time>
      </trkpt>
      <trkpt lat="45.10265" lon="2.59375">
        <ele>941.1</ele>
        <time>2021-08-11T08:18:43Z</time>
      </trkpt>
      <trkpt lat="45.10265" lon="2.59376">
        <ele>941.1</ele>
        <time>2021-08-11T08:18:44Z</time>
      </trkpt>
      <trkpt lat="45.10266" lon="2.59378">
        <ele>941.2</ele>
        <time>2021-08-11T08:18:45Z</time>
      </trkpt>
      <trkpt lat="45.10267" lon="2.59379">
        <ele>941.2</ele>
        <time>2021-08-11T08:18:46Z</time>
      </trkpt>
      <trkpt lat="45.10268" lon="2.59381">
        <ele>941.2</ele>
        <time>2021-08-11T08:18:47Z</time>
      </trkpt>
      <trkpt lat="45.10269" lon="2.59382">
        <ele>941.2</ele>
        <time>2021-08-11T08:18:48Z</time>
      </trkpt>
      <trkpt lat="45.10269" lon="2.59383">
        <ele>941.3</ele>
        <time>2021-08-11T08:18:49Z</time>
      </trkpt>
      <trkpt lat="45.1027" lon="2.59385">
        <ele>941.3</ele>
        <time>2021-08-11T08:18:50Z</time>
      </trkpt>
      <trkpt lat="45.10271" lon="2.59386">
        <ele>941.3</ele>
        <time>2021-08-11T08:18:51Z</time>
      </trkpt>
      <trkpt lat="45.10272" lon="2.59387">
        <ele>941.4</ele>
        <time>2021-08-11T08:18:52Z</time>
      </trkpt>
      <trkpt lat="45.10273" lon="2.59389">
        <ele>941.4</ele>
        <time>2021-08-11T08:18:53Z</time>
      </trkpt>
      <trkpt lat="45.10273" lon="2.5939">
        <ele>941.4</ele>
        <time>2021-08-11T08:18:54Z</time>
      </trkpt>
      <trkpt lat="45.10274" lon="2.59392">
        <ele>941.5</ele>
        <time>2021-08-11T08:18:55Z</time>
      </trkpt>
      <trkpt lat="45.10274" lon="2.59393">
        <ele>941.5</ele>
        <time>2021-08-11T08:18:56Z</time>
      </trkpt>
      <trkpt lat="45.10275" lon="2.59395">
        <ele>941.5</ele>
        <time>2021-08-11T08:18:57Z</time>
      </trkpt>
      <trkpt lat="45.10276" lon="2.59396">
        <ele>941.6</ele>
        <time>2021-08-11T08:18:58Z</time>
      </trkpt>
      <trkpt lat="45.10276" lon="2.59398">
        <ele>941.6</ele>
        <time>2021-08-11T08:18:59Z</time>
      </trkpt>
      <trkpt lat="45.10277" lon="2.59399">
        <ele>941.6</ele>
        <time>2021-08-11T08:19:00Z</time>
      </trkpt>
      <trkpt lat="45.10277" lon="2.59401">
        <ele>941.6</ele>
        <time>2021-08-11T08:19:01Z</time>
      </trkpt>
      <trkpt lat="45.10278" lon="2.59402">
        <ele>941.7</ele>
        <time>2021-08-11T08:19:02Z</time>
      </trkpt>
      <trkpt lat="45.10279" lon="2.59404">
        <ele>941.7</ele>
        <time>2021-08-11T08:19:03Z</time>
      </trkpt>
      <trkpt lat="45.10279" lon="2.59406">
        <ele>941.7</ele>
        <time>2021-08-11T08:19:04Z</time>
      </trkpt>
      <trkpt lat="45.1028" lon="2.59407">
        <ele>941.8</ele>
        <time>2021-08-11T08:19:05Z</time>
      </trkpt>
      <trkpt lat="45.1028" lon="2.59409">
        <ele>941.8</ele>
        <time>2021-08-11T08:19:06Z</time>
      </trkpt>
      <trkpt lat="45.10281" lon="2.59411">
        <ele>941.9</ele>
        <time>2021-08-11T08:19:07Z</time>
      </trkpt>
      <trkpt lat="45.10282" lon="2.59412">
        <ele>941.9</ele>
        <time>2021-08-11T08:19:08Z</time>
      </trkpt>
      <trkpt lat="45.10282" lon="2.59414">
        <ele>941.9</ele>
        <time>2021-08-11T08:19:09Z</time>
      </trkpt>
      <trkpt lat="45.10283" lon="2.59416">
        <ele>942</ele>
        <time>2021-08-11T08:19:10Z</time>
      </trkpt>
      <trkpt lat="45.10283" lon="2.59417">
        <ele>942</ele>
        <time>2021-08-11T08:19:11Z</time>
      </trkpt>
      <trkpt lat="45.10284" lon="2.59419">
        <ele>942.1</ele>
        <time>2021-08-11T08:19:12Z</time>
      </trkpt>
      <trkpt lat="45.10284" lon="2.59421">
        <ele>942.2</ele>
        <time>2021-08-11T08:19:13Z</time>
      </trkpt>
      <trkpt lat="45.10285" lon="2.59423">
        <ele>942.3</ele>
        <time>2021-08-11T08:19:14Z</time>
      </trkpt>
      <trkpt lat="45.10286" lon="2.59424">
        <ele>942.3</ele>
        <time>2021-08-11T08:19:15Z</time>
      </trkpt>
      <trkpt lat="45.10286" lon="2.59426">
        <ele>942.4</ele>
        <time>2021-08-11T08:19:16Z</time>
      </trkpt>
      <trkpt lat="45.10287" lon="2.59428">
        <ele>942.5</ele>
        <time>2021-08-11T08:19:17Z</time>
      </trkpt>
      <trkpt lat="45.10287" lon="2.59429">
        <ele>942.5</ele>
        <time>2021-08-11T08:19:18Z</time>
      </trkpt>
      <trkpt lat="45.10287" lon="2.59431">
        <ele>942.6</ele>
        <time>2021-08-11T08:19:19Z</time>
      </trkpt>
      <trkpt lat="45.10288" lon="2.59433">
        <ele>942.7</ele>
        <time>2021-08-11T08:19:20Z</time>
      </trkpt>
      <trkpt lat="45.10288" lon="2.59434">
        <ele>942.7</ele>
        <time>2021-08-11T08:19:21Z</time>
      </trkpt>
      <trkpt lat="45.10289" lon="2.59436">
        <ele>942.8</ele>
        <time>2021-08-11T08:19:22Z</time>
      </trkpt>
      <trkpt lat="45.10289" lon="2.59438">
        <ele>942.8</ele>
        <time>2021-08-11T08:19:23Z</time>
      </trkpt>
      <trkpt lat="45.10289" lon="2.59439">
        <ele>942.9</ele>
        <time>2021-08-11T08:19:24Z</time>
      </trkpt>
      <trkpt lat="45.1029" lon="2.59441">
        <ele>943</ele>
        <time>2021-08-11T08:19:25Z</time>
      </trkpt>
      <trkpt lat="45.1029" lon="2.59442">
        <ele>943</ele>
        <time>2021-08-11T08:19:26Z</time>
      </trkpt>
      <trkpt lat="45.10291" lon="2.59444">
        <ele>943.1</ele>
        <time>2021-08-11T08:19:27Z</time>
      </trkpt>
      <trkpt lat="45.10291" lon="2.59445">
        <ele>943.1</ele>
        <time>2021-08-11T08:19:28Z</time>
      </trkpt>
      <trkpt lat="45.10291" lon="2.59446">
        <ele>943.2</ele>
        <time>2021-08-11T08:19:29Z</time>
      </trkpt>
      <trkpt lat="45.10291" lon="2.59447">
        <ele>943.2</ele>
        <time>2021-08-11T08:19:30Z</time>
      </trkpt>
      <trkpt lat="45.10291" lon="2.59447">
        <ele>943.2</ele>
        <time>2021-08-11T08:19:31Z</time>
      </trkpt>
      <trkpt lat="45.10291" lon="2.59447">
        <ele>943.2</ele>
        <time>2021-08-11T08:19:32Z</time>
      </trkpt>
      <trkpt lat="45.10291" lon="2.59447">
        <ele>943.2</ele>
        <time>2021-08-11T08:19:33Z</time>
      </trkpt>
      <trkpt lat="45.10291" lon="2.59447">
        <ele>943.2</ele>
        <time>2021-08-11T08:19:34Z</time>
      </trkpt>
      <trkpt lat="45.10291" lon="2.59448">
        <ele>943.2</ele>
        <time>2021-08-11T08:19:35Z</time>
      </trkpt>
      <trkpt lat="45.10291" lon="2.59448">
        <ele>943.2</ele>
        <time>2021-08-11T08:19:36Z</time>
      </trkpt>
      <trkpt lat="45.10291" lon="2.59449">
        <ele>943.2</ele>
        <time>2021-08-11T08:19:37Z</time>
      </trkpt>
      <trkpt lat="45.10291" lon="2.5945">
        <ele>943.3</ele>
        <time>2021-08-11T08:19:38Z</time>
      </trkpt>
      <trkpt lat="45.10292" lon="2.59451">
        <ele>943.3</ele>
        <time>2021-08-11T08:19:39Z</time>
      </trkpt>
      <trkpt lat="45.10292" lon="2.59452">
        <ele>943.4</ele>
        <time>2021-08-11T08:19:40Z</time>
      </trkpt>
      <trkpt lat="45.10293" lon="2.59453">
        <ele>943.4</ele>
        <time>2021-08-11T08:19:41Z</time>
      </trkpt>
      <trkpt lat="45.10294" lon="2.59454">
        <ele>943.5</ele>
        <time>2021-08-11T08:19:42Z</time>
      </trkpt>
      <trkpt lat="45.10294" lon="2.59455">
        <ele>943.5</ele>
        <time>2021-08-11T08:19:43Z</time>
      </trkpt>
      <trkpt lat="45.10294" lon="2.59457">
        <ele>943.6</ele>
        <time>2021-08-11T08:19:44Z</time>
      </trkpt>
      <trkpt lat="45.10295" lon="2.59458">
        <ele>943.6</ele>
        <time>2021-08-11T08:19:45Z</time>
      </trkpt>
      <trkpt lat="45.10295" lon="2.59459">
        <ele>943.7</ele>
        <time>2021-08-11T08:19:46Z</time>
      </trkpt>
      <trkpt lat="45.10296" lon="2.59461">
        <ele>943.7</ele>
        <time>2021-08-11T08:19:47Z</time>
      </trkpt>
      <trkpt lat="45.10296" lon="2.59462">
        <ele>943.8</ele>
        <time>2021-08-11T08:19:48Z</time>
      </trkpt>
      <trkpt lat="45.10296" lon="2.59463">
        <ele>943.8</ele>
        <time>2021-08-11T08:19:49Z</time>
      </trkpt>
      <trkpt lat="45.10296" lon="2.59464">
        <ele>943.9</ele>
        <time>2021-08-11T08:19:50Z</time>
      </trkpt>
      <trkpt lat="45.10297" lon="2.59466">
        <ele>943.9</ele>
        <time>2021-08-11T08:19:51Z</time>
      </trkpt>
      <trkpt lat="45.10297" lon="2.59467">
        <ele>943.9</ele>
        <time>2021-08-11T08:19:52Z</time>
      </trkpt>
      <trkpt lat="45.10297" lon="2.59468">
        <ele>944</ele>
        <time>2021-08-11T08:19:53Z</time>
      </trkpt>
      <trkpt lat="45.10298" lon="2.59469">
        <ele>944</ele>
        <time>2021-08-11T08:19:54Z</time>
      </trkpt>
      <trkpt lat="45.10298" lon="2.59471">
        <ele>944.1</ele>
        <time>2021-08-11T08:19:55Z</time>
      </trkpt>
      <trkpt lat="45.10298" lon="2.59472">
        <ele>944.1</ele>
        <time>2021-08-11T08:19:56Z</time>
      </trkpt>
      <trkpt lat="45.10298" lon="2.59473">
        <ele>944.1</ele>
        <time>2021-08-11T08:19:57Z</time>
      </trkpt>
      <trkpt lat="45.10298" lon="2.59475">
        <ele>944.2</ele>
        <time>2021-08-11T08:19:58Z</time>
      </trkpt>
      <trkpt lat="45.10299" lon="2.59476">
        <ele>944.2</ele>
        <time>2021-08-11T08:19:59Z</time>
      </trkpt>
      <trkpt lat="45.10299" lon="2.59477">
        <ele>944.3</ele>
        <time>2021-08-11T08:20:00Z</time>
      </trkpt>
      <trkpt lat="45.10299" lon="2.59479">
        <ele>944.3</ele>
        <time>2021-08-11T08:20:01Z</time>
      </trkpt>
      <trkpt lat="45.103" lon="2.5948">
        <ele>944.3</ele>
        <time>2021-08-11T08:20:02Z</time>
      </trkpt>
      <trkpt lat="45.103" lon="2.59481">
        <ele>944.4</ele>
        <time>2021-08-11T08:20:03Z</time>
      </trkpt>
      <trkpt lat="45.103" lon="2.59482">
        <ele>944.4</ele>
        <time>2021-08-11T08:20:04Z</time>
      </trkpt>
      <trkpt lat="45.10301" lon="2.59484">
        <ele>944.5</ele>
        <time>2021-08-11T08:20:05Z</time>
      </trkpt>
      <trkpt lat="45.10301" lon="2.59485">
        <ele>944.5</ele>
        <time>2021-08-11T08:20:06Z</time>
      </trkpt>
      <trkpt lat="45.10301" lon="2.59486">
        <ele>944.5</ele>
        <time>2021-08-11T08:20:07Z</time>
      </trkpt>
      <trkpt lat="45.10302" lon="2.59488">
        <ele>944.6</ele>
        <time>2021-08-11T08:20:08Z</time>
      </trkpt>
      <trkpt lat="45.10302" lon="2.59489">
        <ele>944.6</ele>
        <time>2021-08-11T08:20:09Z</time>
      </trkpt>
      <trkpt lat="45.10302" lon="2.5949">
        <ele>944.7</ele>
        <time>2021-08-11T08:20:10Z</time>
      </trkpt>
      <trkpt lat="45.10303" lon="2.59492">
        <ele>944.7</ele>
        <time>2021-08-11T08:20:11Z</time>
      </trkpt>
      <trkpt lat="45.10303" lon="2.59493">
        <ele>944.8</ele>
        <time>2021-08-11T08:20:12Z</time>
      </trkpt>
      <trkpt lat="45.10304" lon="2.59494">
        <ele>944.8</ele>
        <time>2021-08-11T08:20:13Z</time>
      </trkpt>
      <trkpt lat="45.10305" lon="2.59495">
        <ele>944.9</ele>
        <time>2021-08-11T08:20:14Z</time>
      </trkpt>
      <trkpt lat="45.10305" lon="2.59496">
        <ele>944.9</ele>
        <time>2021-08-11T08:20:15Z</time>
      </trkpt>
      <trkpt lat="45.10306" lon="2.59498">
        <ele>945</ele>
        <time>2021-08-11T08:20:16Z</time>
      </trkpt>
      <trkpt lat="45.10306" lon="2.59499">
        <ele>945</ele>
        <time>2021-08-11T08:20:17Z</time>
      </trkpt>
      <trkpt lat="45.10307" lon="2.595">
        <ele>945</ele>
        <time>2021-08-11T08:20:18Z</time>
      </trkpt>
      <trkpt lat="45.10308" lon="2.59501">
        <ele>945.1</ele>
        <time>2021-08-11T08:20:19Z</time>
      </trkpt>
      <trkpt lat="45.10308" lon="2.59502">
        <ele>945.2</ele>
        <time>2021-08-11T08:20:20Z</time>
      </trkpt>
      <trkpt lat="45.10309" lon="2.59503">
        <ele>945.3</ele>
        <time>2021-08-11T08:20:21Z</time>
      </trkpt>
      <trkpt lat="45.10309" lon="2.59505">
        <ele>945.4</ele>
        <time>2021-08-11T08:20:22Z</time>
      </trkpt>
      <trkpt lat="45.1031" lon="2.59506">
        <ele>945.5</ele>
        <time>2021-08-11T08:20:23Z</time>
      </trkpt>
      <trkpt lat="45.10311" lon="2.59507">
        <ele>945.5</ele>
        <time>2021-08-11T08:20:24Z</time>
      </trkpt>
      <trkpt lat="45.10311" lon="2.59508">
        <ele>945.6</ele>
        <time>2021-08-11T08:20:25Z</time>
      </trkpt>
      <trkpt lat="45.10312" lon="2.59509">
        <ele>945.7</ele>
        <time>2021-08-11T08:20:26Z</time>
      </trkpt>
      <trkpt lat="45.10313" lon="2.5951">
        <ele>945.8</ele>
        <time>2021-08-11T08:20:27Z</time>
      </trkpt>
      <trkpt lat="45.10313" lon="2.59511">
        <ele>945.8</ele>
        <time>2021-08-11T08:20:28Z</time>
      </trkpt>
      <trkpt lat="45.10314" lon="2.59512">
        <ele>945.9</ele>
        <time>2021-08-11T08:20:29Z</time>
      </trkpt>
      <trkpt lat="45.10315" lon="2.59512">
        <ele>946</ele>
        <time>2021-08-11T08:20:30Z</time>
      </trkpt>
      <trkpt lat="45.10316" lon="2.59513">
        <ele>946</ele>
        <time>2021-08-11T08:20:31Z</time>
      </trkpt>
      <trkpt lat="45.10317" lon="2.59514">
        <ele>946.1</ele>
        <time>2021-08-11T08:20:32Z</time>
      </trkpt>
      <trkpt lat="45.10317" lon="2.59515">
        <ele>946.2</ele>
        <time>2021-08-11T08:20:33Z</time>
      </trkpt>
      <trkpt lat="45.10318" lon="2.59516">
        <ele>946.3</ele>
        <time>2021-08-11T08:20:34Z</time>
      </trkpt>
      <trkpt lat="45.10319" lon="2.59517">
        <ele>946.3</ele>
        <time>2021-08-11T08:20:35Z</time>
      </trkpt>
      <trkpt lat="45.1032" lon="2.59518">
        <ele>946.4</ele>
        <time>2021-08-11T08:20:36Z</time>
      </trkpt>
      <trkpt lat="45.10321" lon="2.59519">
        <ele>946.5</ele>
        <time>2021-08-11T08:20:37Z</time>
      </trkpt>
      <trkpt lat="45.10322" lon="2.5952">
        <ele>946.6</ele>
        <time>2021-08-11T08:20:38Z</time>
      </trkpt>
      <trkpt lat="45.10323" lon="2.59521">
        <ele>946.7</ele>
        <time>2021-08-11T08:20:39Z</time>
      </trkpt>
      <trkpt lat="45.10324" lon="2.59522">
        <ele>946.7</ele>
        <time>2021-08-11T08:20:40Z</time>
      </trkpt>
      <trkpt lat="45.10324" lon="2.59523">
        <ele>946.8</ele>
        <time>2021-08-11T08:20:41Z</time>
      </trkpt>
      <trkpt lat="45.10325" lon="2.59524">
        <ele>946.9</ele>
        <time>2021-08-11T08:20:42Z</time>
      </trkpt>
      <trkpt lat="45.10326" lon="2.59525">
        <ele>947</ele>
        <time>2021-08-11T08:20:43Z</time>
      </trkpt>
      <trkpt lat="45.10327" lon="2.59526">
        <ele>947.1</ele>
        <time>2021-08-11T08:20:44Z</time>
      </trkpt>
      <trkpt lat="45.10328" lon="2.59527">
        <ele>947.1</ele>
        <time>2021-08-11T08:20:45Z</time>
      </trkpt>
      <trkpt lat="45.10329" lon="2.59528">
        <ele>947.2</ele>
        <time>2021-08-11T08:20:46Z</time>
      </trkpt>
      <trkpt lat="45.1033" lon="2.59529">
        <ele>947.3</ele>
        <time>2021-08-11T08:20:47Z</time>
      </trkpt>
      <trkpt lat="45.10331" lon="2.59531">
        <ele>947.4</ele>
        <time>2021-08-11T08:20:48Z</time>
      </trkpt>
      <trkpt lat="45.10331" lon="2.59532">
        <ele>947.5</ele>
        <time>2021-08-11T08:20:49Z</time>
      </trkpt>
      <trkpt lat="45.10332" lon="2.59533">
        <ele>947.5</ele>
        <time>2021-08-11T08:20:50Z</time>
      </trkpt>
      <trkpt lat="45.10333" lon="2.59534">
        <ele>947.6</ele>
        <time>2021-08-11T08:20:51Z</time>
      </trkpt>
      <trkpt lat="45.10334" lon="2.59535">
        <ele>947.7</ele>
        <time>2021-08-11T08:20:52Z</time>
      </trkpt>
      <trkpt lat="45.10334" lon="2.59537">
        <ele>947.8</ele>
        <time>2021-08-11T08:20:53Z</time>
      </trkpt>
      <trkpt lat="45.10335" lon="2.59538">
        <ele>947.9</ele>
        <time>2021-08-11T08:20:54Z</time>
      </trkpt>
      <trkpt lat="45.10336" lon="2.59539">
        <ele>948</ele>
        <time>2021-08-11T08:20:55Z</time>
      </trkpt>
      <trkpt lat="45.10337" lon="2.5954">
        <ele>948.2</ele>
        <time>2021-08-11T08:20:56Z</time>
      </trkpt>
      <trkpt lat="45.10337" lon="2.59542">
        <ele>948.3</ele>
        <time>2021-08-11T08:20:57Z</time>
      </trkpt>
      <trkpt lat="45.10338" lon="2.59543">
        <ele>948.4</ele>
        <time>2021-08-11T08:20:58Z</time>
      </trkpt>
      <trkpt lat="45.10339" lon="2.59544">
        <ele>948.5</ele>
        <time>2021-08-11T08:20:59Z</time>
      </trkpt>
      <trkpt lat="45.10339" lon="2.59545">
        <ele>948.6</ele>
        <time>2021-08-11T08:21:00Z</time>
      </trkpt>
      <trkpt lat="45.1034" lon="2.59546">
        <ele>948.7</ele>
        <time>2021-08-11T08:21:01Z</time>
      </trkpt>
      <trkpt lat="45.10341" lon="2.59547">
        <ele>948.8</ele>
        <time>2021-08-11T08:21:02Z</time>
      </trkpt>
      <trkpt lat="45.10342" lon="2.59549">
        <ele>948.9</ele>
        <time>2021-08-11T08:21:03Z</time>
      </trkpt>
      <trkpt lat="45.10342" lon="2.5955">
        <ele>949</ele>
        <time>2021-08-11T08:21:04Z</time>
      </trkpt>
      <trkpt lat="45.10343" lon="2.59551">
        <ele>949.1</ele>
        <time>2021-08-11T08:21:05Z</time>
      </trkpt>
      <trkpt lat="45.10344" lon="2.59552">
        <ele>949.2</ele>
        <time>2021-08-11T08:21:06Z</time>
      </trkpt>
      <trkpt lat="45.10345" lon="2.59553">
        <ele>949.3</ele>
        <time>2021-08-11T08:21:07Z</time>
      </trkpt>
      <trkpt lat="45.10346" lon="2.59553">
        <ele>949.4</ele>
        <time>2021-08-11T08:21:08Z</time>
      </trkpt>
      <trkpt lat="45.10347" lon="2.59554">
        <ele>949.5</ele>
        <time>2021-08-11T08:21:09Z</time>
      </trkpt>
      <trkpt lat="45.10347" lon="2.59555">
        <ele>949.6</ele>
        <time>2021-08-11T08:21:10Z</time>
      </trkpt>
      <trkpt lat="45.10348" lon="2.59556">
        <ele>949.7</ele>
        <time>2021-08-11T08:21:11Z</time>
      </trkpt>
      <trkpt lat="45.10349" lon="2.59557">
        <ele>949.8</ele>
        <time>2021-08-11T08:21:12Z</time>
      </trkpt>
      <trkpt lat="45.1035" lon="2.59557">
        <ele>949.9</ele>
        <time>2021-08-11T08:21:13Z</time>
      </trkpt>
      <trkpt lat="45.10351" lon="2.59558">
        <ele>950</ele>
        <time>2021-08-11T08:21:14Z</time>
      </trkpt>
      <trkpt lat="45.10352" lon="2.59559">
        <ele>950.1</ele>
        <time>2021-08-11T08:21:15Z</time>
      </trkpt>
      <trkpt lat="45.10353" lon="2.59559">
        <ele>950.2</ele>
        <time>2021-08-11T08:21:16Z</time>
      </trkpt>
      <trkpt lat="45.10354" lon="2.5956">
        <ele>950.3</ele>
        <time>2021-08-11T08:21:17Z</time>
      </trkpt>
      <trkpt lat="45.10355" lon="2.59561">
        <ele>950.4</ele>
        <time>2021-08-11T08:21:18Z</time>
      </trkpt>
      <trkpt lat="45.10356" lon="2.59561">
        <ele>950.4</ele>
        <time>2021-08-11T08:21:19Z</time>
      </trkpt>
      <trkpt lat="45.10357" lon="2.59561">
        <ele>950.5</ele>
        <time>2021-08-11T08:21:20Z</time>
      </trkpt>
      <trkpt lat="45.10358" lon="2.59562">
        <ele>950.6</ele>
        <time>2021-08-11T08:21:21Z</time>
      </trkpt>
      <trkpt lat="45.10359" lon="2.59562">
        <ele>950.7</ele>
        <time>2021-08-11T08:21:22Z</time>
      </trkpt>
      <trkpt lat="45.10361" lon="2.59562">
        <ele>950.8</ele>
        <time>2021-08-11T08:21:23Z</time>
      </trkpt>
      <trkpt lat="45.10362" lon="2.59563">
        <ele>950.9</ele>
        <time>2021-08-11T08:21:24Z</time>
      </trkpt>
      <trkpt lat="45.10363" lon="2.59563">
        <ele>950.9</ele>
        <time>2021-08-11T08:21:25Z</time>
      </trkpt>
      <trkpt lat="45.10364" lon="2.59563">
        <ele>951</ele>
        <time>2021-08-11T08:21:26Z</time>
      </trkpt>
      <trkpt lat="45.10365" lon="2.59563">
        <ele>951.1</ele>
        <time>2021-08-11T08:21:27Z</time>
      </trkpt>
      <trkpt lat="45.10366" lon="2.59564">
        <ele>951.2</ele>
        <time>2021-08-11T08:21:28Z</time>
      </trkpt>
      <trkpt lat="45.10367" lon="2.59564">
        <ele>951.3</ele>
        <time>2021-08-11T08:21:29Z</time>
      </trkpt>
      <trkpt lat="45.10368" lon="2.59564">
        <ele>951.4</ele>
        <time>2021-08-11T08:21:30Z</time>
      </trkpt>
      <trkpt lat="45.10369" lon="2.59564">
        <ele>951.4</ele>
        <time>2021-08-11T08:21:31Z</time>
      </trkpt>
      <trkpt lat="45.1037" lon="2.59565">
        <ele>951.5</ele>
        <time>2021-08-11T08:21:32Z</time>
      </trkpt>
      <trkpt lat="45.10371" lon="2.59565">
        <ele>951.6</ele>
        <time>2021-08-11T08:21:33Z</time>
      </trkpt>
      <trkpt lat="45.10372" lon="2.59565">
        <ele>951.7</ele>
        <time>2021-08-11T08:21:34Z</time>
      </trkpt>
      <trkpt lat="45.10373" lon="2.59566">
        <ele>951.7</ele>
        <time>2021-08-11T08:21:35Z</time>
      </trkpt>
      <trkpt lat="45.10374" lon="2.59566">
        <ele>951.8</ele>
        <time>2021-08-11T08:21:36Z</time>
      </trkpt>
      <trkpt lat="45.10375" lon="2.59566">
        <ele>951.9</ele>
        <time>2021-08-11T08:21:37Z</time>
      </trkpt>
      <trkpt lat="45.10376" lon="2.59567">
        <ele>952</ele>
        <time>2021-08-11T08:21:38Z</time>
      </trkpt>
      <trkpt lat="45.10377" lon="2.59567">
        <ele>952.1</ele>
        <time>2021-08-11T08:21:39Z</time>
      </trkpt>
      <trkpt lat="45.10378" lon="2.59567">
        <ele>952.1</ele>
        <time>2021-08-11T08:21:40Z</time>
      </trkpt>
      <trkpt lat="45.10379" lon="2.59568">
        <ele>952.2</ele>
        <time>2021-08-11T08:21:41Z</time>
      </trkpt>
      <trkpt lat="45.1038" lon="2.59568">
        <ele>952.3</ele>
        <time>2021-08-11T08:21:42Z</time>
      </trkpt>
      <trkpt lat="45.10381" lon="2.59568">
        <ele>952.4</ele>
        <time>2021-08-11T08:21:43Z</time>
      </trkpt>
      <trkpt lat="45.10382" lon="2.59569">
        <ele>952.4</ele>
        <time>2021-08-11T08:21:44Z</time>
      </trkpt>
      <trkpt lat="45.10383" lon="2.59569">
        <ele>952.5</ele>
        <time>2021-08-11T08:21:45Z</time>
      </trkpt>
      <trkpt lat="45.10385" lon="2.5957">
        <ele>952.6</ele>
        <time>2021-08-11T08:21:46Z</time>
      </trkpt>
      <trkpt lat="45.10386" lon="2.5957">
        <ele>952.7</ele>
        <time>2021-08-11T08:21:47Z</time>
      </trkpt>
      <trkpt lat="45.10387" lon="2.59571">
        <ele>952.8</ele>
        <time>2021-08-11T08:21:48Z</time>
      </trkpt>
      <trkpt lat="45.10388" lon="2.59572">
        <ele>952.9</ele>
        <time>2021-08-11T08:21:49Z</time>
      </trkpt>
      <trkpt lat="45.10389" lon="2.59573">
        <ele>953</ele>
        <time>2021-08-11T08:21:50Z</time>
      </trkpt>
      <trkpt lat="45.1039" lon="2.59573">
        <ele>953</ele>
        <time>2021-08-11T08:21:51Z</time>
      </trkpt>
      <trkpt lat="45.10391" lon="2.59574">
        <ele>953.1</ele>
        <time>2021-08-11T08:21:52Z</time>
      </trkpt>
      <trkpt lat="45.10392" lon="2.59575">
        <ele>953.2</ele>
        <time>2021-08-11T08:21:53Z</time>
      </trkpt>
      <trkpt lat="45.10393" lon="2.59575">
        <ele>953.3</ele>
        <time>2021-08-11T08:21:54Z</time>
      </trkpt>
      <trkpt lat="45.10394" lon="2.59576">
        <ele>953.4</ele>
        <time>2021-08-11T08:21:55Z</time>
      </trkpt>
      <trkpt lat="45.10395" lon="2.59577">
        <ele>953.5</ele>
        <time>2021-08-11T08:21:56Z</time>
      </trkpt>
      <trkpt lat="45.10396" lon="2.59578">
        <ele>953.6</ele>
        <time>2021-08-11T08:21:57Z</time>
      </trkpt>
      <trkpt lat="45.10397" lon="2.59579">
        <ele>953.7</ele>
        <time>2021-08-11T08:21:58Z</time>
      </trkpt>
      <trkpt lat="45.10398" lon="2.5958">
        <ele>953.8</ele>
        <time>2021-08-11T08:21:59Z</time>
      </trkpt>
      <trkpt lat="45.10398" lon="2.59581">
        <ele>953.8</ele>
        <time>2021-08-11T08:22:00Z</time>
      </trkpt>
      <trkpt lat="45.10399" lon="2.59582">
        <ele>953.9</ele>
        <time>2021-08-11T08:22:01Z</time>
      </trkpt>
      <trkpt lat="45.104" lon="2.59583">
        <ele>954</ele>
        <time>2021-08-11T08:22:02Z</time>
      </trkpt>
      <trkpt lat="45.10401" lon="2.59584">
        <ele>954.1</ele>
        <time>2021-08-11T08:22:03Z</time>
      </trkpt>
      <trkpt lat="45.10402" lon="2.59585">
        <ele>954.1</ele>
        <time>2021-08-11T08:22:04Z</time>
      </trkpt>
      <trkpt lat="45.10403" lon="2.59586">
        <ele>954.2</ele>
        <time>2021-08-11T08:22:05Z</time>
      </trkpt>
      <trkpt lat="45.10404" lon="2.59587">
        <ele>954.3</ele>
        <time>2021-08-11T08:22:06Z</time>
      </trkpt>
      <trkpt lat="45.10405" lon="2.59587">
        <ele>954.3</ele>
        <time>2021-08-11T08:22:07Z</time>
      </trkpt>
      <trkpt lat="45.10406" lon="2.59588">
        <ele>954.4</ele>
        <time>2021-08-11T08:22:08Z</time>
      </trkpt>
      <trkpt lat="45.10407" lon="2.59589">
        <ele>954.4</ele>
        <time>2021-08-11T08:22:09Z</time>
      </trkpt>
      <trkpt lat="45.10408" lon="2.5959">
        <ele>954.5</ele>
        <time>2021-08-11T08:22:10Z</time>
      </trkpt>
      <trkpt lat="45.10409" lon="2.5959">
        <ele>954.6</ele>
        <time>2021-08-11T08:22:11Z</time>
      </trkpt>
      <trkpt lat="45.1041" lon="2.59591">
        <ele>954.6</ele>
        <time>2021-08-11T08:22:12Z</time>
      </trkpt>
      <trkpt lat="45.10411" lon="2.59591">
        <ele>954.7</ele>
        <time>2021-08-11T08:22:13Z</time>
      </trkpt>
      <trkpt lat="45.10412" lon="2.59592">
        <ele>954.7</ele>
        <time>2021-08-11T08:22:14Z</time>
      </trkpt>
      <trkpt lat="45.10413" lon="2.59592">
        <ele>954.8</ele>
        <time>2021-08-11T08:22:15Z</time>
      </trkpt>
      <trkpt lat="45.10414" lon="2.59593">
        <ele>954.9</ele>
        <time>2021-08-11T08:22:16Z</time>
      </trkpt>
      <trkpt lat="45.10416" lon="2.59593">
        <ele>954.9</ele>
        <time>2021-08-11T08:22:17Z</time>
      </trkpt>
      <trkpt lat="45.10417" lon="2.59593">
        <ele>955</ele>
        <time>2021-08-11T08:22:18Z</time>
      </trkpt>
      <trkpt lat="45.10418" lon="2.59594">
        <ele>955.1</ele>
        <time>2021-08-11T08:22:19Z</time>
      </trkpt>
      <trkpt lat="45.10419" lon="2.59595">
        <ele>955.3</ele>
        <time>2021-08-11T08:22:20Z</time>
      </trkpt>
      <trkpt lat="45.1042" lon="2.59595">
        <ele>955.4</ele>
        <time>2021-08-11T08:22:21Z</time>
      </trkpt>
      <trkpt lat="45.10421" lon="2.59596">
        <ele>955.5</ele>
        <time>2021-08-11T08:22:22Z</time>
      </trkpt>
      <trkpt lat="45.10421" lon="2.59597">
        <ele>955.6</ele>
        <time>2021-08-11T08:22:23Z</time>
      </trkpt>
      <trkpt lat="45.10422" lon="2.59598">
        <ele>955.7</ele>
        <time>2021-08-11T08:22:24Z</time>
      </trkpt>
      <trkpt lat="45.10423" lon="2.59599">
        <ele>955.8</ele>
        <time>2021-08-11T08:22:25Z</time>
      </trkpt>
      <trkpt lat="45.10424" lon="2.596">
        <ele>955.9</ele>
        <time>2021-08-11T08:22:26Z</time>
      </trkpt>
      <trkpt lat="45.10424" lon="2.59602">
        <ele>955.9</ele>
        <time>2021-08-11T08:22:27Z</time>
      </trkpt>
      <trkpt lat="45.10425" lon="2.59603">
        <ele>956</ele>
        <time>2021-08-11T08:22:28Z</time>
      </trkpt>
      <trkpt lat="45.10426" lon="2.59604">
        <ele>956.1</ele>
        <time>2021-08-11T08:22:29Z</time>
      </trkpt>
      <trkpt lat="45.10427" lon="2.59605">
        <ele>956.2</ele>
        <time>2021-08-11T08:22:30Z</time>
      </trkpt>
      <trkpt lat="45.10428" lon="2.59607">
        <ele>956.3</ele>
        <time>2021-08-11T08:22:31Z</time>
      </trkpt>
      <trkpt lat="45.10428" lon="2.59608">
        <ele>956.3</ele>
        <time>2021-08-11T08:22:32Z</time>
      </trkpt>
      <trkpt lat="45.10429" lon="2.59609">
        <ele>956.4</ele>
        <time>2021-08-11T08:22:33Z</time>
      </trkpt>
      <trkpt lat="45.10429" lon="2.59611">
        <ele>956.5</ele>
        <time>2021-08-11T08:22:34Z</time>
      </trkpt>
      <trkpt lat="45.1043" lon="2.59612">
        <ele>956.5</ele>
        <time>2021-08-11T08:22:35Z</time>
      </trkpt>
      <trkpt lat="45.10431" lon="2.59613">
        <ele>956.6</ele>
        <time>2021-08-11T08:22:36Z</time>
      </trkpt>
      <trkpt lat="45.10431" lon="2.59615">
        <ele>956.6</ele>
        <time>2021-08-11T08:22:37Z</time>
      </trkpt>
      <trkpt lat="45.10432" lon="2.59616">
        <ele>956.7</ele>
        <time>2021-08-11T08:22:38Z</time>
      </trkpt>
      <trkpt lat="45.10432" lon="2.59617">
        <ele>956.7</ele>
        <time>2021-08-11T08:22:39Z</time>
      </trkpt>
      <trkpt lat="45.10433" lon="2.59619">
        <ele>956.8</ele>
        <time>2021-08-11T08:22:40Z</time>
      </trkpt>
      <trkpt lat="45.10434" lon="2.5962">
        <ele>956.9</ele>
        <time>2021-08-11T08:22:41Z</time>
      </trkpt>
      <trkpt lat="45.10434" lon="2.59621">
        <ele>956.9</ele>
        <time>2021-08-11T08:22:42Z</time>
      </trkpt>
      <trkpt lat="45.10435" lon="2.59623">
        <ele>957</ele>
        <time>2021-08-11T08:22:43Z</time>
      </trkpt>
      <trkpt lat="45.10435" lon="2.59624">
        <ele>957</ele>
        <time>2021-08-11T08:22:44Z</time>
      </trkpt>
      <trkpt lat="45.10436" lon="2.59626">
        <ele>957.1</ele>
        <time>2021-08-11T08:22:45Z</time>
      </trkpt>
      <trkpt lat="45.10437" lon="2.59627">
        <ele>957.2</ele>
        <time>2021-08-11T08:22:46Z</time>
      </trkpt>
      <trkpt lat="45.10438" lon="2.59628">
        <ele>957.2</ele>
        <time>2021-08-11T08:22:47Z</time>
      </trkpt>
      <trkpt lat="45.10439" lon="2.5963">
        <ele>957.3</ele>
        <time>2021-08-11T08:22:48Z</time>
      </trkpt>
      <trkpt lat="45.10439" lon="2.59631">
        <ele>957.4</ele>
        <time>2021-08-11T08:22:49Z</time>
      </trkpt>
      <trkpt lat="45.1044" lon="2.59632">
        <ele>957.4</ele>
        <time>2021-08-11T08:22:50Z</time>
      </trkpt>
      <trkpt lat="45.10441" lon="2.59634">
        <ele>957.5</ele>
        <time>2021-08-11T08:22:51Z</time>
      </trkpt>
      <trkpt lat="45.10441" lon="2.59635">
        <ele>957.5</ele>
        <time>2021-08-11T08:22:52Z</time>
      </trkpt>
      <trkpt lat="45.10442" lon="2.59636">
        <ele>957.5</ele>
        <time>2021-08-11T08:22:53Z</time>
      </trkpt>
      <trkpt lat="45.10442" lon="2.59638">
        <ele>957.5</ele>
        <time>2021-08-11T08:22:54Z</time>
      </trkpt>
      <trkpt lat="45.10443" lon="2.59639">
        <ele>957.6</ele>
        <time>2021-08-11T08:22:55Z</time>
      </trkpt>
      <trkpt lat="45.10443" lon="2.59641">
        <ele>957.6</ele>
        <time>2021-08-11T08:22:56Z</time>
      </trkpt>
      <trkpt lat="45.10443" lon="2.59642">
        <ele>957.6</ele>
        <time>2021-08-11T08:22:57Z</time>
      </trkpt>
      <trkpt lat="45.10444" lon="2.59644">
        <ele>957.6</ele>
        <time>2021-08-11T08:22:58Z</time>
      </trkpt>
      <trkpt lat="45.10444" lon="2.59646">
        <ele>957.6</ele>
        <time>2021-08-11T08:22:59Z</time>
      </trkpt>
      <trkpt lat="45.10444" lon="2.59647">
        <ele>957.6</ele>
        <time>2021-08-11T08:23:00Z</time>
      </trkpt>
      <trkpt lat="45.10444" lon="2.59649">
        <ele>957.6</ele>
        <time>2021-08-11T08:23:01Z</time>
      </trkpt>
      <trkpt lat="45.10444" lon="2.5965">
        <ele>957.6</ele>
        <time>2021-08-11T08:23:02Z</time>
      </trkpt>
      <trkpt lat="45.10445" lon="2.59652">
        <ele>957.6</ele>
        <time>2021-08-11T08:23:03Z</time>
      </trkpt>
      <trkpt lat="45.10445" lon="2.59653">
        <ele>957.6</ele>
        <time>2021-08-11T08:23:04Z</time>
      </trkpt>
      <trkpt lat="45.10445" lon="2.59655">
        <ele>957.5</ele>
        <time>2021-08-11T08:23:05Z</time>
      </trkpt>
      <trkpt lat="45.10445" lon="2.59657">
        <ele>957.5</ele>
        <time>2021-08-11T08:23:06Z</time>
      </trkpt>
      <trkpt lat="45.10444" lon="2.59658">
        <ele>957.5</ele>
        <time>2021-08-11T08:23:07Z</time>
      </trkpt>
      <trkpt lat="45.10444" lon="2.5966">
        <ele>957.4</ele>
        <time>2021-08-11T08:23:08Z</time>
      </trkpt>
      <trkpt lat="45.10444" lon="2.59661">
        <ele>957.4</ele>
        <time>2021-08-11T08:23:09Z</time>
      </trkpt>
      <trkpt lat="45.10444" lon="2.59663">
        <ele>957.4</ele>
        <time>2021-08-11T08:23:10Z</time>
      </trkpt>
      <trkpt lat="45.10444" lon="2.59664">
        <ele>957.3</ele>
        <time>2021-08-11T08:23:11Z</time>
      </trkpt>
      <trkpt lat="45.10443" lon="2.59665">
        <ele>957.3</ele>
        <time>2021-08-11T08:23:12Z</time>
      </trkpt>
      <trkpt lat="45.10443" lon="2.59665">
        <ele>957.2</ele>
        <time>2021-08-11T08:23:13Z</time>
      </trkpt>
      <trkpt lat="45.10443" lon="2.59665">
        <ele>957.2</ele>
        <time>2021-08-11T08:23:14Z</time>
      </trkpt>
      <trkpt lat="45.10443" lon="2.59665">
        <ele>957.2</ele>
        <time>2021-08-11T08:23:15Z</time>
      </trkpt>
      <trkpt lat="45.10443" lon="2.59666">
        <ele>957.2</ele>
        <time>2021-08-11T08:23:16Z</time>
      </trkpt>
      <trkpt lat="45.10443" lon="2.59667">
        <ele>957.2</ele>
        <time>2021-08-11T08:23:17Z</time>
      </trkpt>
      <trkpt lat="45.10443" lon="2.59668">
        <ele>957.2</ele>
        <time>2021-08-11T08:23:18Z</time>
      </trkpt>
      <trkpt lat="45.10442" lon="2.59669">
        <ele>957.3</ele>
        <time>2021-08-11T08:23:19Z</time>
      </trkpt>
      <trkpt lat="45.10442" lon="2.59671">
        <ele>957.3</ele>
        <time>2021-08-11T08:23:20Z</time>
      </trkpt>
      <trkpt lat="45.10442" lon="2.59672">
        <ele>957.3</ele>
        <time>2021-08-11T08:23:21Z</time>
      </trkpt>
      <trkpt lat="45.10442" lon="2.59674">
        <ele>957.4</ele>
        <time>2021-08-11T08:23:22Z</time>
      </trkpt>
      <trkpt lat="45.10441" lon="2.59675">
        <ele>957.4</ele>
        <time>2021-08-11T08:23:23Z</time>
      </trkpt>
      <trkpt lat="45.10441" lon="2.59677">
        <ele>957.4</ele>
        <time>2021-08-11T08:23:24Z</time>
      </trkpt>
      <trkpt lat="45.10441" lon="2.59678">
        <ele>957.5</ele>
        <time>2021-08-11T08:23:25Z</time>
      </trkpt>
      <trkpt lat="45.1044" lon="2.5968">
        <ele>957.5</ele>
        <time>2021-08-11T08:23:26Z</time>
      </trkpt>
      <trkpt lat="45.1044" lon="2.59681">
        <ele>957.5</ele>
        <time>2021-08-11T08:23:27Z</time>
      </trkpt>
      <trkpt lat="45.1044" lon="2.59683">
        <ele>957.6</ele>
        <time>2021-08-11T08:23:28Z</time>
      </trkpt>
      <trkpt lat="45.10439" lon="2.59684">
        <ele>957.6</ele>
        <time>2021-08-11T08:23:29Z</time>
      </trkpt>
      <trkpt lat="45.10439" lon="2.59686">
        <ele>957.6</ele>
        <time>2021-08-11T08:23:30Z</time>
      </trkpt>
      <trkpt lat="45.10439" lon="2.59687">
        <ele>957.7</ele>
        <time>2021-08-11T08:23:31Z</time>
      </trkpt>
      <trkpt lat="45.10439" lon="2.59689">
        <ele>957.8</ele>
        <time>2021-08-11T08:23:32Z</time>
      </trkpt>
      <trkpt lat="45.10439" lon="2.5969">
        <ele>957.8</ele>
        <time>2021-08-11T08:23:33Z</time>
      </trkpt>
      <trkpt lat="45.10439" lon="2.59692">
        <ele>957.9</ele>
        <time>2021-08-11T08:23:34Z</time>
      </trkpt>
      <trkpt lat="45.10439" lon="2.59693">
        <ele>958</ele>
        <time>2021-08-11T08:23:35Z</time>
      </trkpt>
      <trkpt lat="45.10439" lon="2.59695">
        <ele>958</ele>
        <time>2021-08-11T08:23:36Z</time>
      </trkpt>
      <trkpt lat="45.1044" lon="2.59696">
        <ele>958.1</ele>
        <time>2021-08-11T08:23:37Z</time>
      </trkpt>
      <trkpt lat="45.1044" lon="2.59698">
        <ele>958.2</ele>
        <time>2021-08-11T08:23:38Z</time>
      </trkpt>
      <trkpt lat="45.1044" lon="2.59699">
        <ele>958.3</ele>
        <time>2021-08-11T08:23:39Z</time>
      </trkpt>
      <trkpt lat="45.1044" lon="2.59701">
        <ele>958.3</ele>
        <time>2021-08-11T08:23:40Z</time>
      </trkpt>
      <trkpt lat="45.10441" lon="2.59702">
        <ele>958.4</ele>
        <time>2021-08-11T08:23:41Z</time>
      </trkpt>
      <trkpt lat="45.10441" lon="2.59703">
        <ele>958.5</ele>
        <time>2021-08-11T08:23:42Z</time>
      </trkpt>
      <trkpt lat="45.10441" lon="2.59705">
        <ele>958.5</ele>
        <time>2021-08-11T08:23:43Z</time>
      </trkpt>
      <trkpt lat="45.10442" lon="2.59706">
        <ele>958.6</ele>
        <time>2021-08-11T08:23:44Z</time>
      </trkpt>
      <trkpt lat="45.10442" lon="2.59708">
        <ele>958.7</ele>
        <time>2021-08-11T08:23:45Z</time>
      </trkpt>
      <trkpt lat="45.10442" lon="2.59709">
        <ele>958.8</ele>
        <time>2021-08-11T08:23:46Z</time>
      </trkpt>
      <trkpt lat="45.10443" lon="2.5971">
        <ele>958.8</ele>
        <time>2021-08-11T08:23:47Z</time>
      </trkpt>
      <trkpt lat="45.10443" lon="2.59712">
        <ele>958.9</ele>
        <time>2021-08-11T08:23:48Z</time>
      </trkpt>
      <trkpt lat="45.10443" lon="2.59713">
        <ele>959</ele>
        <time>2021-08-11T08:23:49Z</time>
      </trkpt>
      <trkpt lat="45.10443" lon="2.59715">
        <ele>959</ele>
        <time>2021-08-11T08:23:50Z</time>
      </trkpt>
      <trkpt lat="45.10444" lon="2.59716">
        <ele>959.1</ele>
        <time>2021-08-11T08:23:51Z</time>
      </trkpt>
      <trkpt lat="45.10444" lon="2.59717">
        <ele>959.1</ele>
        <time>2021-08-11T08:23:52Z</time>
      </trkpt>
      <trkpt lat="45.10444" lon="2.59719">
        <ele>959.2</ele>
        <time>2021-08-11T08:23:53Z</time>
      </trkpt>
      <trkpt lat="45.10445" lon="2.5972">
        <ele>959.3</ele>
        <time>2021-08-11T08:23:54Z</time>
      </trkpt>
      <trkpt lat="45.10445" lon="2.59722">
        <ele>959.3</ele>
        <time>2021-08-11T08:23:55Z</time>
      </trkpt>
      <trkpt lat="45.10445" lon="2.59723">
        <ele>959.4</ele>
        <time>2021-08-11T08:23:56Z</time>
      </trkpt>
      <trkpt lat="45.10446" lon="2.59724">
        <ele>959.4</ele>
        <time>2021-08-11T08:23:57Z</time>
      </trkpt>
      <trkpt lat="45.10446" lon="2.59726">
        <ele>959.5</ele>
        <time>2021-08-11T08:23:58Z</time>
      </trkpt>
      <trkpt lat="45.10446" lon="2.59727">
        <ele>959.6</ele>
        <time>2021-08-11T08:23:59Z</time>
      </trkpt>
      <trkpt lat="45.10446" lon="2.59728">
        <ele>959.6</ele>
        <time>2021-08-11T08:24:00Z</time>
      </trkpt>
      <trkpt lat="45.10447" lon="2.5973">
        <ele>959.7</ele>
        <time>2021-08-11T08:24:01Z</time>
      </trkpt>
      <trkpt lat="45.10447" lon="2.59731">
        <ele>959.7</ele>
        <time>2021-08-11T08:24:02Z</time>
      </trkpt>
      <trkpt lat="45.10448" lon="2.59732">
        <ele>959.8</ele>
        <time>2021-08-11T08:24:03Z</time>
      </trkpt>
      <trkpt lat="45.10448" lon="2.59733">
        <ele>959.8</ele>
        <time>2021-08-11T08:24:04Z</time>
      </trkpt>
      <trkpt lat="45.10448" lon="2.59735">
        <ele>959.9</ele>
        <time>2021-08-11T08:24:05Z</time>
      </trkpt>
      <trkpt lat="45.10449" lon="2.59736">
        <ele>959.9</ele>
        <time>2021-08-11T08:24:06Z</time>
      </trkpt>
      <trkpt lat="45.10449" lon="2.59737">
        <ele>960</ele>
        <time>2021-08-11T08:24:07Z</time>
      </trkpt>
      <trkpt lat="45.10449" lon="2.59739">
        <ele>960</ele>
        <time>2021-08-11T08:24:08Z</time>
      </trkpt>
      <trkpt lat="45.1045" lon="2.5974">
        <ele>960.1</ele>
        <time>2021-08-11T08:24:09Z</time>
      </trkpt>
      <trkpt lat="45.1045" lon="2.59741">
        <ele>960.1</ele>
        <time>2021-08-11T08:24:10Z</time>
      </trkpt>
      <trkpt lat="45.1045" lon="2.59743">
        <ele>960.2</ele>
        <time>2021-08-11T08:24:11Z</time>
      </trkpt>
      <trkpt lat="45.1045" lon="2.59744">
        <ele>960.2</ele>
        <time>2021-08-11T08:24:12Z</time>
      </trkpt>
      <trkpt lat="45.10451" lon="2.59745">
        <ele>960.3</ele>
        <time>2021-08-11T08:24:13Z</time>
      </trkpt>
      <trkpt lat="45.10451" lon="2.59747">
        <ele>960.3</ele>
        <time>2021-08-11T08:24:14Z</time>
      </trkpt>
      <trkpt lat="45.10452" lon="2.59748">
        <ele>960.4</ele>
        <time>2021-08-11T08:24:15Z</time>
      </trkpt>
      <trkpt lat="45.10452" lon="2.59749">
        <ele>960.4</ele>
        <time>2021-08-11T08:24:16Z</time>
      </trkpt>
      <trkpt lat="45.10452" lon="2.59751">
        <ele>960.5</ele>
        <time>2021-08-11T08:24:17Z</time>
      </trkpt>
      <trkpt lat="45.10453" lon="2.59752">
        <ele>960.6</ele>
        <time>2021-08-11T08:24:18Z</time>
      </trkpt>
      <trkpt lat="45.10453" lon="2.59753">
        <ele>960.7</ele>
        <time>2021-08-11T08:24:19Z</time>
      </trkpt>
      <trkpt lat="45.10453" lon="2.59755">
        <ele>960.8</ele>
        <time>2021-08-11T08:24:20Z</time>
      </trkpt>
      <trkpt lat="45.10453" lon="2.59756">
        <ele>960.9</ele>
        <time>2021-08-11T08:24:21Z</time>
      </trkpt>
      <trkpt lat="45.10454" lon="2.59757">
        <ele>961</ele>
        <time>2021-08-11T08:24:22Z</time>
      </trkpt>
      <trkpt lat="45.10454" lon="2.59758">
        <ele>961.1</ele>
        <time>2021-08-11T08:24:23Z</time>
      </trkpt>
      <trkpt lat="45.10454" lon="2.5976">
        <ele>961.3</ele>
        <time>2021-08-11T08:24:24Z</time>
      </trkpt>
      <trkpt lat="45.10455" lon="2.59761">
        <ele>961.4</ele>
        <time>2021-08-11T08:24:25Z</time>
      </trkpt>
      <trkpt lat="45.10455" lon="2.59762">
        <ele>961.5</ele>
        <time>2021-08-11T08:24:26Z</time>
      </trkpt>
      <trkpt lat="45.10455" lon="2.59763">
        <ele>961.6</ele>
        <time>2021-08-11T08:24:27Z</time>
      </trkpt>
      <trkpt lat="45.10456" lon="2.59764">
        <ele>961.7</ele>
        <time>2021-08-11T08:24:28Z</time>
      </trkpt>
      <trkpt lat="45.10456" lon="2.59766">
        <ele>961.8</ele>
        <time>2021-08-11T08:24:29Z</time>
      </trkpt>
      <trkpt lat="45.10456" lon="2.59767">
        <ele>961.9</ele>
        <time>2021-08-11T08:24:30Z</time>
      </trkpt>
      <trkpt lat="45.10457" lon="2.59768">
        <ele>962</ele>
        <time>2021-08-11T08:24:31Z</time>
      </trkpt>
      <trkpt lat="45.10457" lon="2.59769">
        <ele>962.1</ele>
        <time>2021-08-11T08:24:32Z</time>
      </trkpt>
      <trkpt lat="45.10457" lon="2.59771">
        <ele>962.2</ele>
        <time>2021-08-11T08:24:33Z</time>
      </trkpt>
      <trkpt lat="45.10457" lon="2.59772">
        <ele>962.3</ele>
        <time>2021-08-11T08:24:34Z</time>
      </trkpt>
      <trkpt lat="45.10458" lon="2.59773">
        <ele>962.4</ele>
        <time>2021-08-11T08:24:35Z</time>
      </trkpt>
      <trkpt lat="45.10458" lon="2.59774">
        <ele>962.5</ele>
        <time>2021-08-11T08:24:36Z</time>
      </trkpt>
      <trkpt lat="45.10458" lon="2.59776">
        <ele>962.6</ele>
        <time>2021-08-11T08:24:37Z</time>
      </trkpt>
      <trkpt lat="45.10459" lon="2.59777">
        <ele>962.7</ele>
        <time>2021-08-11T08:24:38Z</time>
      </trkpt>
      <trkpt lat="45.10459" lon="2.59778">
        <ele>962.9</ele>
        <time>2021-08-11T08:24:39Z</time>
      </trkpt>
      <trkpt lat="45.10459" lon="2.59779">
        <ele>963</ele>
        <time>2021-08-11T08:24:40Z</time>
      </trkpt>
      <trkpt lat="45.10459" lon="2.59781">
        <ele>963.1</ele>
        <time>2021-08-11T08:24:41Z</time>
      </trkpt>
      <trkpt lat="45.1046" lon="2.59782">
        <ele>963.2</ele>
        <time>2021-08-11T08:24:42Z</time>
      </trkpt>
      <trkpt lat="45.1046" lon="2.59783">
        <ele>963.3</ele>
        <time>2021-08-11T08:24:43Z</time>
      </trkpt>
      <trkpt lat="45.1046" lon="2.59784">
        <ele>963.4</ele>
        <time>2021-08-11T08:24:44Z</time>
      </trkpt>
      <trkpt lat="45.1046" lon="2.59786">
        <ele>963.5</ele>
        <time>2021-08-11T08:24:45Z</time>
      </trkpt>
      <trkpt lat="45.1046" lon="2.59787">
        <ele>963.6</ele>
        <time>2021-08-11T08:24:46Z</time>
      </trkpt>
      <trkpt lat="45.10461" lon="2.59788">
        <ele>963.7</ele>
        <time>2021-08-11T08:24:47Z</time>
      </trkpt>
      <trkpt lat="45.10461" lon="2.5979">
        <ele>963.8</ele>
        <time>2021-08-11T08:24:48Z</time>
      </trkpt>
      <trkpt lat="45.10461" lon="2.59791">
        <ele>963.9</ele>
        <time>2021-08-11T08:24:49Z</time>
      </trkpt>
      <trkpt lat="45.10461" lon="2.59792">
        <ele>964</ele>
        <time>2021-08-11T08:24:50Z</time>
      </trkpt>
      <trkpt lat="45.10461" lon="2.59793">
        <ele>964.1</ele>
        <time>2021-08-11T08:24:51Z</time>
      </trkpt>
      <trkpt lat="45.10462" lon="2.59794">
        <ele>964.2</ele>
        <time>2021-08-11T08:24:52Z</time>
      </trkpt>
      <trkpt lat="45.10462" lon="2.59796">
        <ele>964.3</ele>
        <time>2021-08-11T08:24:53Z</time>
      </trkpt>
      <trkpt lat="45.10462" lon="2.59797">
        <ele>964.4</ele>
        <time>2021-08-11T08:24:54Z</time>
      </trkpt>
      <trkpt lat="45.10462" lon="2.59798">
        <ele>964.5</ele>
        <time>2021-08-11T08:24:55Z</time>
      </trkpt>
      <trkpt lat="45.10463" lon="2.598">
        <ele>964.6</ele>
        <time>2021-08-11T08:24:56Z</time>
      </trkpt>
      <trkpt lat="45.10463" lon="2.59801">
        <ele>964.8</ele>
        <time>2021-08-11T08:24:57Z</time>
      </trkpt>
      <trkpt lat="45.10463" lon="2.59802">
        <ele>964.9</ele>
        <time>2021-08-11T08:24:58Z</time>
      </trkpt>
      <trkpt lat="45.10464" lon="2.59804">
        <ele>965</ele>
        <time>2021-08-11T08:24:59Z</time>
      </trkpt>
      <trkpt lat="45.10464" lon="2.59805">
        <ele>965.1</ele>
        <time>2021-08-11T08:25:00Z</time>
      </trkpt>
      <trkpt lat="45.10464" lon="2.59806">
        <ele>965.2</ele>
        <time>2021-08-11T08:25:01Z</time>
      </trkpt>
      <trkpt lat="45.10465" lon="2.59808">
        <ele>965.3</ele>
        <time>2021-08-11T08:25:02Z</time>
      </trkpt>
      <trkpt lat="45.10465" lon="2.59809">
        <ele>965.4</ele>
        <time>2021-08-11T08:25:03Z</time>
      </trkpt>
      <trkpt lat="45.10465" lon="2.5981">
        <ele>965.5</ele>
        <time>2021-08-11T08:25:04Z</time>
      </trkpt>
      <trkpt lat="45.10466" lon="2.59812">
        <ele>965.7</ele>
        <time>2021-08-11T08:25:05Z</time>
      </trkpt>
      <trkpt lat="45.10466" lon="2.59813">
        <ele>965.8</ele>
        <time>2021-08-11T08:25:06Z</time>
      </trkpt>
      <trkpt lat="45.10466" lon="2.59815">
        <ele>965.9</ele>
        <time>2021-08-11T08:25:07Z</time>
      </trkpt>
      <trkpt lat="45.10467" lon="2.59816">
        <ele>966</ele>
        <time>2021-08-11T08:25:08Z</time>
      </trkpt>
      <trkpt lat="45.10467" lon="2.59817">
        <ele>966.1</ele>
        <time>2021-08-11T08:25:09Z</time>
      </trkpt>
      <trkpt lat="45.10468" lon="2.59819">
        <ele>966.2</ele>
        <time>2021-08-11T08:25:10Z</time>
      </trkpt>
      <trkpt lat="45.10468" lon="2.5982">
        <ele>966.3</ele>
        <time>2021-08-11T08:25:11Z</time>
      </trkpt>
      <trkpt lat="45.10468" lon="2.59821">
        <ele>966.4</ele>
        <time>2021-08-11T08:25:12Z</time>
      </trkpt>
      <trkpt lat="45.10469" lon="2.59822">
        <ele>966.5</ele>
        <time>2021-08-11T08:25:13Z</time>
      </trkpt>
      <trkpt lat="45.10469" lon="2.59824">
        <ele>966.6</ele>
        <time>2021-08-11T08:25:14Z</time>
      </trkpt>
      <trkpt lat="45.1047" lon="2.59825">
        <ele>966.7</ele>
        <time>2021-08-11T08:25:15Z</time>
      </trkpt>
      <trkpt lat="45.1047" lon="2.59826">
        <ele>966.8</ele>
        <time>2021-08-11T08:25:16Z</time>
      </trkpt>
      <trkpt lat="45.10471" lon="2.59828">
        <ele>966.9</ele>
        <time>2021-08-11T08:25:17Z</time>
      </trkpt>
      <trkpt lat="45.10471" lon="2.59829">
        <ele>967</ele>
        <time>2021-08-11T08:25:18Z</time>
      </trkpt>
      <trkpt lat="45.10472" lon="2.5983">
        <ele>967.1</ele>
        <time>2021-08-11T08:25:19Z</time>
      </trkpt>
      <trkpt lat="45.10473" lon="2.59831">
        <ele>967.2</ele>
        <time>2021-08-11T08:25:20Z</time>
      </trkpt>
      <trkpt lat="45.10473" lon="2.59832">
        <ele>967.2</ele>
        <time>2021-08-11T08:25:21Z</time>
      </trkpt>
      <trkpt lat="45.10474" lon="2.59834">
        <ele>967.3</ele>
        <time>2021-08-11T08:25:22Z</time>
      </trkpt>
      <trkpt lat="45.10474" lon="2.59835">
        <ele>967.4</ele>
        <time>2021-08-11T08:25:23Z</time>
      </trkpt>
      <trkpt lat="45.10475" lon="2.59836">
        <ele>967.5</ele>
        <time>2021-08-11T08:25:24Z</time>
      </trkpt>
      <trkpt lat="45.10475" lon="2.59838">
        <ele>967.6</ele>
        <time>2021-08-11T08:25:25Z</time>
      </trkpt>
      <trkpt lat="45.10476" lon="2.59839">
        <ele>967.7</ele>
        <time>2021-08-11T08:25:26Z</time>
      </trkpt>
      <trkpt lat="45.10476" lon="2.5984">
        <ele>967.8</ele>
        <time>2021-08-11T08:25:27Z</time>
      </trkpt>
      <trkpt lat="45.10477" lon="2.59841">
        <ele>967.8</ele>
        <time>2021-08-11T08:25:28Z</time>
      </trkpt>
      <trkpt lat="45.10477" lon="2.59843">
        <ele>967.9</ele>
        <time>2021-08-11T08:25:29Z</time>
      </trkpt>
      <trkpt lat="45.10478" lon="2.59844">
        <ele>968</ele>
        <time>2021-08-11T08:25:30Z</time>
      </trkpt>
      <trkpt lat="45.10478" lon="2.59845">
        <ele>968.1</ele>
        <time>2021-08-11T08:25:31Z</time>
      </trkpt>
      <trkpt lat="45.10479" lon="2.59846">
        <ele>968.2</ele>
        <time>2021-08-11T08:25:32Z</time>
      </trkpt>
      <trkpt lat="45.1048" lon="2.59848">
        <ele>968.3</ele>
        <time>2021-08-11T08:25:33Z</time>
      </trkpt>
      <trkpt lat="45.1048" lon="2.59849">
        <ele>968.4</ele>
        <time>2021-08-11T08:25:34Z</time>
      </trkpt>
      <trkpt lat="45.1048" lon="2.5985">
        <ele>968.4</ele>
        <time>2021-08-11T08:25:35Z</time>
      </trkpt>
      <trkpt lat="45.10481" lon="2.59851">
        <ele>968.5</ele>
        <time>2021-08-11T08:25:36Z</time>
      </trkpt>
      <trkpt lat="45.10482" lon="2.59853">
        <ele>968.6</ele>
        <time>2021-08-11T08:25:37Z</time>
      </trkpt>
      <trkpt lat="45.10482" lon="2.59854">
        <ele>968.7</ele>
        <time>2021-08-11T08:25:38Z</time>
      </trkpt>
      <trkpt lat="45.10483" lon="2.59855">
        <ele>968.8</ele>
        <time>2021-08-11T08:25:39Z</time>
      </trkpt>
      <trkpt lat="45.10483" lon="2.59856">
        <ele>968.9</ele>
        <time>2021-08-11T08:25:40Z</time>
      </trkpt>
      <trkpt lat="45.10484" lon="2.59858">
        <ele>968.9</ele>
        <time>2021-08-11T08:25:41Z</time>
      </trkpt>
      <trkpt lat="45.10484" lon="2.59859">
        <ele>969</ele>
        <time>2021-08-11T08:25:42Z</time>
      </trkpt>
      <trkpt lat="45.10485" lon="2.5986">
        <ele>969.1</ele>
        <time>2021-08-11T08:25:43Z</time>
      </trkpt>
      <trkpt lat="45.10485" lon="2.59861">
        <ele>969.2</ele>
        <time>2021-08-11T08:25:44Z</time>
      </trkpt>
      <trkpt lat="45.10486" lon="2.59863">
        <ele>969.3</ele>
        <time>2021-08-11T08:25:45Z</time>
      </trkpt>
      <trkpt lat="45.10486" lon="2.59864">
        <ele>969.4</ele>
        <time>2021-08-11T08:25:46Z</time>
      </trkpt>
      <trkpt lat="45.10487" lon="2.59865">
        <ele>969.4</ele>
        <time>2021-08-11T08:25:47Z</time>
      </trkpt>
      <trkpt lat="45.10488" lon="2.59866">
        <ele>969.5</ele>
        <time>2021-08-11T08:25:48Z</time>
      </trkpt>
      <trkpt lat="45.10488" lon="2.59868">
        <ele>969.6</ele>
        <time>2021-08-11T08:25:49Z</time>
      </trkpt>
      <trkpt lat="45.10489" lon="2.59869">
        <ele>969.7</ele>
        <time>2021-08-11T08:25:50Z</time>
      </trkpt>
      <trkpt lat="45.1049" lon="2.5987">
        <ele>969.8</ele>
        <time>2021-08-11T08:25:51Z</time>
      </trkpt>
      <trkpt lat="45.1049" lon="2.59871">
        <ele>969.9</ele>
        <time>2021-08-11T08:25:52Z</time>
      </trkpt>
      <trkpt lat="45.10491" lon="2.59873">
        <ele>969.9</ele>
        <time>2021-08-11T08:25:53Z</time>
      </trkpt>
      <trkpt lat="45.10492" lon="2.59874">
        <ele>970</ele>
        <time>2021-08-11T08:25:54Z</time>
      </trkpt>
      <trkpt lat="45.10492" lon="2.59875">
        <ele>970.1</ele>
        <time>2021-08-11T08:25:55Z</time>
      </trkpt>
      <trkpt lat="45.10493" lon="2.59876">
        <ele>970.2</ele>
        <time>2021-08-11T08:25:56Z</time>
      </trkpt>
      <trkpt lat="45.10493" lon="2.59878">
        <ele>970.3</ele>
        <time>2021-08-11T08:25:57Z</time>
      </trkpt>
      <trkpt lat="45.10494" lon="2.59879">
        <ele>970.3</ele>
        <time>2021-08-11T08:25:58Z</time>
      </trkpt>
      <trkpt lat="45.10495" lon="2.5988">
        <ele>970.4</ele>
        <time>2021-08-11T08:25:59Z</time>
      </trkpt>
      <trkpt lat="45.10495" lon="2.59881">
        <ele>970.5</ele>
        <time>2021-08-11T08:26:00Z</time>
      </trkpt>
      <trkpt lat="45.10496" lon="2.59883">
        <ele>970.6</ele>
        <time>2021-08-11T08:26:01Z</time>
      </trkpt>
      <trkpt lat="45.10496" lon="2.59884">
        <ele>970.7</ele>
        <time>2021-08-11T08:26:02Z</time>
      </trkpt>
      <trkpt lat="45.10497" lon="2.59885">
        <ele>970.8</ele>
        <time>2021-08-11T08:26:03Z</time>
      </trkpt>
      <trkpt lat="45.10497" lon="2.59887">
        <ele>970.9</ele>
        <time>2021-08-11T08:26:04Z</time>
      </trkpt>
      <trkpt lat="45.10498" lon="2.59888">
        <ele>970.9</ele>
        <time>2021-08-11T08:26:05Z</time>
      </trkpt>
      <trkpt lat="45.10499" lon="2.59889">
        <ele>971</ele>
        <time>2021-08-11T08:26:06Z</time>
      </trkpt>
      <trkpt lat="45.10499" lon="2.59891">
        <ele>971.1</ele>
        <time>2021-08-11T08:26:07Z</time>
      </trkpt>
      <trkpt lat="45.105" lon="2.59892">
        <ele>971.2</ele>
        <time>2021-08-11T08:26:08Z</time>
      </trkpt>
      <trkpt lat="45.10501" lon="2.59893">
        <ele>971.3</ele>
        <time>2021-08-11T08:26:09Z</time>
      </trkpt>
      <trkpt lat="45.10501" lon="2.59895">
        <ele>971.4</ele>
        <time>2021-08-11T08:26:10Z</time>
      </trkpt>
      <trkpt lat="45.10502" lon="2.59896">
        <ele>971.5</ele>
        <time>2021-08-11T08:26:11Z</time>
      </trkpt>
      <trkpt lat="45.10502" lon="2.59897">
        <ele>971.6</ele>
        <time>2021-08-11T08:26:12Z</time>
      </trkpt>
      <trkpt lat="45.10503" lon="2.59898">
        <ele>971.7</ele>
        <time>2021-08-11T08:26:13Z</time>
      </trkpt>
      <trkpt lat="45.10504" lon="2.599">
        <ele>971.7</ele>
        <time>2021-08-11T08:26:14Z</time>
      </trkpt>
      <trkpt lat="45.10504" lon="2.59901">
        <ele>971.8</ele>
        <time>2021-08-11T08:26:15Z</time>
      </trkpt>
      <trkpt lat="45.10505" lon="2.59902">
        <ele>971.9</ele>
        <time>2021-08-11T08:26:16Z</time>
      </trkpt>
      <trkpt lat="45.10505" lon="2.59904">
        <ele>972</ele>
        <time>2021-08-11T08:26:17Z</time>
      </trkpt>
      <trkpt lat="45.10506" lon="2.59905">
        <ele>972.1</ele>
        <time>2021-08-11T08:26:18Z</time>
      </trkpt>
      <trkpt lat="45.10506" lon="2.59906">
        <ele>972.2</ele>
        <time>2021-08-11T08:26:19Z</time>
      </trkpt>
      <trkpt lat="45.10507" lon="2.59908">
        <ele>972.3</ele>
        <time>2021-08-11T08:26:20Z</time>
      </trkpt>
      <trkpt lat="45.10508" lon="2.59909">
        <ele>972.4</ele>
        <time>2021-08-11T08:26:21Z</time>
      </trkpt>
      <trkpt lat="45.10508" lon="2.5991">
        <ele>972.5</ele>
        <time>2021-08-11T08:26:22Z</time>
      </trkpt>
      <trkpt lat="45.10509" lon="2.59912">
        <ele>972.5</ele>
        <time>2021-08-11T08:26:23Z</time>
      </trkpt>
      <trkpt lat="45.10509" lon="2.59913">
        <ele>972.6</ele>
        <time>2021-08-11T08:26:24Z</time>
      </trkpt>
      <trkpt lat="45.1051" lon="2.59914">
        <ele>972.7</ele>
        <time>2021-08-11T08:26:25Z</time>
      </trkpt>
      <trkpt lat="45.10511" lon="2.59916">
        <ele>972.8</ele>
        <time>2021-08-11T08:26:26Z</time>
      </trkpt>
      <trkpt lat="45.10511" lon="2.59917">
        <ele>972.9</ele>
        <time>2021-08-11T08:26:27Z</time>
      </trkpt>
      <trkpt lat="45.10512" lon="2.59918">
        <ele>973</ele>
        <time>2021-08-11T08:26:28Z</time>
      </trkpt>
      <trkpt lat="45.10512" lon="2.5992">
        <ele>973.1</ele>
        <time>2021-08-11T08:26:29Z</time>
      </trkpt>
      <trkpt lat="45.10513" lon="2.59921">
        <ele>973.1</ele>
        <time>2021-08-11T08:26:30Z</time>
      </trkpt>
      <trkpt lat="45.10514" lon="2.59922">
        <ele>973.2</ele>
        <time>2021-08-11T08:26:31Z</time>
      </trkpt>
      <trkpt lat="45.10514" lon="2.59923">
        <ele>973.3</ele>
        <time>2021-08-11T08:26:32Z</time>
      </trkpt>
      <trkpt lat="45.10515" lon="2.59925">
        <ele>973.4</ele>
        <time>2021-08-11T08:26:33Z</time>
      </trkpt>
      <trkpt lat="45.10516" lon="2.59926">
        <ele>973.5</ele>
        <time>2021-08-11T08:26:34Z</time>
      </trkpt>
      <trkpt lat="45.10516" lon="2.59927">
        <ele>973.5</ele>
        <time>2021-08-11T08:26:35Z</time>
      </trkpt>
      <trkpt lat="45.10517" lon="2.59929">
        <ele>973.6</ele>
        <time>2021-08-11T08:26:36Z</time>
      </trkpt>
      <trkpt lat="45.10518" lon="2.5993">
        <ele>973.7</ele>
        <time>2021-08-11T08:26:37Z</time>
      </trkpt>
      <trkpt lat="45.10518" lon="2.59931">
        <ele>973.8</ele>
        <time>2021-08-11T08:26:38Z</time>
      </trkpt>
      <trkpt lat="45.10519" lon="2.59932">
        <ele>973.9</ele>
        <time>2021-08-11T08:26:39Z</time>
      </trkpt>
      <trkpt lat="45.1052" lon="2.59934">
        <ele>974</ele>
        <time>2021-08-11T08:26:40Z</time>
      </trkpt>
      <trkpt lat="45.1052" lon="2.59935">
        <ele>974.1</ele>
        <time>2021-08-11T08:26:41Z</time>
      </trkpt>
      <trkpt lat="45.10521" lon="2.59936">
        <ele>974.2</ele>
        <time>2021-08-11T08:26:42Z</time>
      </trkpt>
      <trkpt lat="45.10522" lon="2.59938">
        <ele>974.3</ele>
        <time>2021-08-11T08:26:43Z</time>
      </trkpt>
      <trkpt lat="45.10522" lon="2.59939">
        <ele>974.3</ele>
        <time>2021-08-11T08:26:44Z</time>
      </trkpt>
      <trkpt lat="45.10523" lon="2.5994">
        <ele>974.4</ele>
        <time>2021-08-11T08:26:45Z</time>
      </trkpt>
      <trkpt lat="45.10524" lon="2.59941">
        <ele>974.5</ele>
        <time>2021-08-11T08:26:46Z</time>
      </trkpt>
      <trkpt lat="45.10524" lon="2.59942">
        <ele>974.6</ele>
        <time>2021-08-11T08:26:47Z</time>
      </trkpt>
      <trkpt lat="45.10525" lon="2.59944">
        <ele>974.7</ele>
        <time>2021-08-11T08:26:48Z</time>
      </trkpt>
      <trkpt lat="45.10526" lon="2.59945">
        <ele>974.8</ele>
        <time>2021-08-11T08:26:49Z</time>
      </trkpt>
      <trkpt lat="45.10527" lon="2.59946">
        <ele>974.9</ele>
        <time>2021-08-11T08:26:50Z</time>
      </trkpt>
      <trkpt lat="45.10527" lon="2.59947">
        <ele>975</ele>
        <time>2021-08-11T08:26:51Z</time>
      </trkpt>
      <trkpt lat="45.10528" lon="2.59948">
        <ele>975.1</ele>
        <time>2021-08-11T08:26:52Z</time>
      </trkpt>
      <trkpt lat="45.10529" lon="2.59949">
        <ele>975.2</ele>
        <time>2021-08-11T08:26:53Z</time>
      </trkpt>
      <trkpt lat="45.10529" lon="2.59951">
        <ele>975.2</ele>
        <time>2021-08-11T08:26:54Z</time>
      </trkpt>
      <trkpt lat="45.1053" lon="2.59952">
        <ele>975.3</ele>
        <time>2021-08-11T08:26:55Z</time>
      </trkpt>
      <trkpt lat="45.10531" lon="2.59953">
        <ele>975.4</ele>
        <time>2021-08-11T08:26:56Z</time>
      </trkpt>
      <trkpt lat="45.10532" lon="2.59954">
        <ele>975.5</ele>
        <time>2021-08-11T08:26:57Z</time>
      </trkpt>
      <trkpt lat="45.10532" lon="2.59955">
        <ele>975.6</ele>
        <time>2021-08-11T08:26:58Z</time>
      </trkpt>
      <trkpt lat="45.10533" lon="2.59956">
        <ele>975.7</ele>
        <time>2021-08-11T08:26:59Z</time>
      </trkpt>
      <trkpt lat="45.10534" lon="2.59957">
        <ele>975.8</ele>
        <time>2021-08-11T08:27:00Z</time>
      </trkpt>
      <trkpt lat="45.10535" lon="2.59958">
        <ele>975.9</ele>
        <time>2021-08-11T08:27:01Z</time>
      </trkpt>
      <trkpt lat="45.10535" lon="2.5996">
        <ele>976</ele>
        <time>2021-08-11T08:27:02Z</time>
      </trkpt>
      <trkpt lat="45.10536" lon="2.59961">
        <ele>976.1</ele>
        <time>2021-08-11T08:27:03Z</time>
      </trkpt>
      <trkpt lat="45.10537" lon="2.59962">
        <ele>976.2</ele>
        <time>2021-08-11T08:27:04Z</time>
      </trkpt>
      <trkpt lat="45.10537" lon="2.59963">
        <ele>976.3</ele>
        <time>2021-08-11T08:27:05Z</time>
      </trkpt>
      <trkpt lat="45.10538" lon="2.59964">
        <ele>976.4</ele>
        <time>2021-08-11T08:27:06Z</time>
      </trkpt>
      <trkpt lat="45.10539" lon="2.59965">
        <ele>976.5</ele>
        <time>2021-08-11T08:27:07Z</time>
      </trkpt>
      <trkpt lat="45.1054" lon="2.59967">
        <ele>976.7</ele>
        <time>2021-08-11T08:27:08Z</time>
      </trkpt>
      <trkpt lat="45.10541" lon="2.59968">
        <ele>976.7</ele>
        <time>2021-08-11T08:27:09Z</time>
      </trkpt>
      <trkpt lat="45.10541" lon="2.59969">
        <ele>976.9</ele>
        <time>2021-08-11T08:27:10Z</time>
      </trkpt>
      <trkpt lat="45.10542" lon="2.5997">
        <ele>977</ele>
        <time>2021-08-11T08:27:11Z</time>
      </trkpt>
      <trkpt lat="45.10543" lon="2.59971">
        <ele>977.1</ele>
        <time>2021-08-11T08:27:12Z</time>
      </trkpt>
      <trkpt lat="45.10544" lon="2.59972">
        <ele>977.2</ele>
        <time>2021-08-11T08:27:13Z</time>
      </trkpt>
      <trkpt lat="45.10544" lon="2.59973">
        <ele>977.3</ele>
        <time>2021-08-11T08:27:14Z</time>
      </trkpt>
      <trkpt lat="45.10545" lon="2.59975">
        <ele>977.4</ele>
        <time>2021-08-11T08:27:15Z</time>
      </trkpt>
      <trkpt lat="45.10546" lon="2.59976">
        <ele>977.5</ele>
        <time>2021-08-11T08:27:16Z</time>
      </trkpt>
      <trkpt lat="45.10547" lon="2.59977">
        <ele>977.6</ele>
        <time>2021-08-11T08:27:17Z</time>
      </trkpt>
      <trkpt lat="45.10547" lon="2.59978">
        <ele>977.8</ele>
        <time>2021-08-11T08:27:18Z</time>
      </trkpt>
      <trkpt lat="45.10548" lon="2.59979">
        <ele>977.9</ele>
        <time>2021-08-11T08:27:19Z</time>
      </trkpt>
      <trkpt lat="45.10549" lon="2.5998">
        <ele>978</ele>
        <time>2021-08-11T08:27:20Z</time>
      </trkpt>
      <trkpt lat="45.1055" lon="2.59981">
        <ele>978.1</ele>
        <time>2021-08-11T08:27:21Z</time>
      </trkpt>
      <trkpt lat="45.1055" lon="2.59982">
        <ele>978.2</ele>
        <time>2021-08-11T08:27:22Z</time>
      </trkpt>
      <trkpt lat="45.10551" lon="2.59984">
        <ele>978.4</ele>
        <time>2021-08-11T08:27:23Z</time>
      </trkpt>
      <trkpt lat="45.10552" lon="2.59985">
        <ele>978.5</ele>
        <time>2021-08-11T08:27:24Z</time>
      </trkpt>
      <trkpt lat="45.10553" lon="2.59986">
        <ele>978.6</ele>
        <time>2021-08-11T08:27:25Z</time>
      </trkpt>
      <trkpt lat="45.10554" lon="2.59987">
        <ele>978.7</ele>
        <time>2021-08-11T08:27:26Z</time>
      </trkpt>
      <trkpt lat="45.10554" lon="2.59988">
        <ele>978.8</ele>
        <time>2021-08-11T08:27:27Z</time>
      </trkpt>
      <trkpt lat="45.10555" lon="2.59989">
        <ele>978.9</ele>
        <time>2021-08-11T08:27:28Z</time>
      </trkpt>
      <trkpt lat="45.10556" lon="2.5999">
        <ele>979.1</ele>
        <time>2021-08-11T08:27:29Z</time>
      </trkpt>
      <trkpt lat="45.10557" lon="2.59991">
        <ele>979.2</ele>
        <time>2021-08-11T08:27:30Z</time>
      </trkpt>
      <trkpt lat="45.10558" lon="2.59992">
        <ele>979.3</ele>
        <time>2021-08-11T08:27:31Z</time>
      </trkpt>
      <trkpt lat="45.10558" lon="2.59993">
        <ele>979.4</ele>
        <time>2021-08-11T08:27:32Z</time>
      </trkpt>
      <trkpt lat="45.10559" lon="2.59994">
        <ele>979.6</ele>
        <time>2021-08-11T08:27:33Z</time>
      </trkpt>
      <trkpt lat="45.1056" lon="2.59995">
        <ele>979.7</ele>
        <time>2021-08-11T08:27:34Z</time>
      </trkpt>
      <trkpt lat="45.10561" lon="2.59996">
        <ele>979.8</ele>
        <time>2021-08-11T08:27:35Z</time>
      </trkpt>
      <trkpt lat="45.10561" lon="2.59997">
        <ele>979.9</ele>
        <time>2021-08-11T08:27:36Z</time>
      </trkpt>
      <trkpt lat="45.10562" lon="2.59998">
        <ele>980</ele>
        <time>2021-08-11T08:27:37Z</time>
      </trkpt>
      <trkpt lat="45.10563" lon="2.59999">
        <ele>980.2</ele>
        <time>2021-08-11T08:27:38Z</time>
      </trkpt>
      <trkpt lat="45.10563" lon="2.6">
        <ele>980.3</ele>
        <time>2021-08-11T08:27:39Z</time>
      </trkpt>
      <trkpt lat="45.10564" lon="2.60001">
        <ele>980.4</ele>
        <time>2021-08-11T08:27:40Z</time>
      </trkpt>
      <trkpt lat="45.10565" lon="2.60002">
        <ele>980.6</ele>
        <time>2021-08-11T08:27:41Z</time>
      </trkpt>
      <trkpt lat="45.10565" lon="2.60003">
        <ele>980.7</ele>
        <time>2021-08-11T08:27:42Z</time>
      </trkpt>
      <trkpt lat="45.10566" lon="2.60004">
        <ele>980.9</ele>
        <time>2021-08-11T08:27:43Z</time>
      </trkpt>
      <trkpt lat="45.10567" lon="2.60005">
        <ele>981.1</ele>
        <time>2021-08-11T08:27:44Z</time>
      </trkpt>
      <trkpt lat="45.10568" lon="2.60006">
        <ele>981.2</ele>
        <time>2021-08-11T08:27:45Z</time>
      </trkpt>
      <trkpt lat="45.10568" lon="2.60007">
        <ele>981.4</ele>
        <time>2021-08-11T08:27:46Z</time>
      </trkpt>
      <trkpt lat="45.10569" lon="2.60008">
        <ele>981.6</ele>
        <time>2021-08-11T08:27:47Z</time>
      </trkpt>
      <trkpt lat="45.10569" lon="2.60009">
        <ele>981.7</ele>
        <time>2021-08-11T08:27:48Z</time>
      </trkpt>
      <trkpt lat="45.1057" lon="2.6001">
        <ele>981.9</ele>
        <time>2021-08-11T08:27:49Z</time>
      </trkpt>
      <trkpt lat="45.10571" lon="2.60011">
        <ele>982</ele>
        <time>2021-08-11T08:27:50Z</time>
      </trkpt>
      <trkpt lat="45.10572" lon="2.60012">
        <ele>982.2</ele>
        <time>2021-08-11T08:27:51Z</time>
      </trkpt>
      <trkpt lat="45.10572" lon="2.60013">
        <ele>982.3</ele>
        <time>2021-08-11T08:27:52Z</time>
      </trkpt>
      <trkpt lat="45.10573" lon="2.60014">
        <ele>982.5</ele>
        <time>2021-08-11T08:27:53Z</time>
      </trkpt>
      <trkpt lat="45.10573" lon="2.60015">
        <ele>982.6</ele>
        <time>2021-08-11T08:27:54Z</time>
      </trkpt>
      <trkpt lat="45.10574" lon="2.60016">
        <ele>982.8</ele>
        <time>2021-08-11T08:27:55Z</time>
      </trkpt>
      <trkpt lat="45.10575" lon="2.60017">
        <ele>982.9</ele>
        <time>2021-08-11T08:27:56Z</time>
      </trkpt>
      <trkpt lat="45.10575" lon="2.60018">
        <ele>983.1</ele>
        <time>2021-08-11T08:27:57Z</time>
      </trkpt>
      <trkpt lat="45.10576" lon="2.60019">
        <ele>983.2</ele>
        <time>2021-08-11T08:27:58Z</time>
      </trkpt>
      <trkpt lat="45.10577" lon="2.6002">
        <ele>983.4</ele>
        <time>2021-08-11T08:27:59Z</time>
      </trkpt>
      <trkpt lat="45.10577" lon="2.60021">
        <ele>983.5</ele>
        <time>2021-08-11T08:28:00Z</time>
      </trkpt>
      <trkpt lat="45.10578" lon="2.60022">
        <ele>983.6</ele>
        <time>2021-08-11T08:28:01Z</time>
      </trkpt>
      <trkpt lat="45.10579" lon="2.60023">
        <ele>983.8</ele>
        <time>2021-08-11T08:28:02Z</time>
      </trkpt>
      <trkpt lat="45.1058" lon="2.60023">
        <ele>983.9</ele>
        <time>2021-08-11T08:28:03Z</time>
      </trkpt>
      <trkpt lat="45.1058" lon="2.60024">
        <ele>984.1</ele>
        <time>2021-08-11T08:28:04Z</time>
      </trkpt>
      <trkpt lat="45.10581" lon="2.60025">
        <ele>984.3</ele>
        <time>2021-08-11T08:28:05Z</time>
      </trkpt>
      <trkpt lat="45.10582" lon="2.60026">
        <ele>984.4</ele>
        <time>2021-08-11T08:28:06Z</time>
      </trkpt>
      <trkpt lat="45.10583" lon="2.60027">
        <ele>984.6</ele>
        <time>2021-08-11T08:28:07Z</time>
      </trkpt>
      <trkpt lat="45.10583" lon="2.60028">
        <ele>984.7</ele>
        <time>2021-08-11T08:28:08Z</time>
      </trkpt>
      <trkpt lat="45.10584" lon="2.60029">
        <ele>984.9</ele>
        <time>2021-08-11T08:28:09Z</time>
      </trkpt>
      <trkpt lat="45.10585" lon="2.6003">
        <ele>985</ele>
        <time>2021-08-11T08:28:10Z</time>
      </trkpt>
      <trkpt lat="45.10585" lon="2.60031">
        <ele>985</ele>
        <time>2021-08-11T08:28:11Z</time>
      </trkpt>
      <trkpt lat="45.10585" lon="2.60031">
        <ele>985.1</ele>
        <time>2021-08-11T08:28:12Z</time>
      </trkpt>
      <trkpt lat="45.10586" lon="2.60032">
        <ele>985.2</ele>
        <time>2021-08-11T08:28:13Z</time>
      </trkpt>
      <trkpt lat="45.10587" lon="2.60033">
        <ele>985.3</ele>
        <time>2021-08-11T08:28:14Z</time>
      </trkpt>
      <trkpt lat="45.10587" lon="2.60034">
        <ele>985.4</ele>
        <time>2021-08-11T08:28:15Z</time>
      </trkpt>
      <trkpt lat="45.10588" lon="2.60035">
        <ele>985.5</ele>
        <time>2021-08-11T08:28:16Z</time>
      </trkpt>
      <trkpt lat="45.10588" lon="2.60035">
        <ele>985.6</ele>
        <time>2021-08-11T08:28:17Z</time>
      </trkpt>
      <trkpt lat="45.10589" lon="2.60036">
        <ele>985.6</ele>
        <time>2021-08-11T08:28:18Z</time>
      </trkpt>
      <trkpt lat="45.10589" lon="2.60035">
        <ele>985.6</ele>
        <time>2021-08-11T08:28:19Z</time>
      </trkpt>
      <trkpt lat="45.1059" lon="2.60035">
        <ele>985.5</ele>
        <time>2021-08-11T08:28:20Z</time>
      </trkpt>
      <trkpt lat="45.10591" lon="2.60035">
        <ele>985.5</ele>
        <time>2021-08-11T08:28:21Z</time>
      </trkpt>
      <trkpt lat="45.10591" lon="2.60036">
        <ele>985.6</ele>
        <time>2021-08-11T08:28:22Z</time>
      </trkpt>
      <trkpt lat="45.10591" lon="2.60036">
        <ele>985.6</ele>
        <time>2021-08-11T08:28:23Z</time>
      </trkpt>
      <trkpt lat="45.10591" lon="2.60035">
        <ele>985.5</ele>
        <time>2021-08-11T08:28:24Z</time>
      </trkpt>
      <trkpt lat="45.10591" lon="2.60035">
        <ele>985.5</ele>
        <time>2021-08-11T08:28:25Z</time>
      </trkpt>
      <trkpt lat="45.10591" lon="2.60035">
        <ele>985.5</ele>
        <time>2021-08-11T08:28:26Z</time>
      </trkpt>
      <trkpt lat="45.10591" lon="2.60035">
        <ele>985.5</ele>
        <time>2021-08-11T08:28:27Z</time>
      </trkpt>
      <trkpt lat="45.10591" lon="2.60035">
        <ele>985.5</ele>
        <time>2021-08-11T08:28:28Z</time>
      </trkpt>
      <trkpt lat="45.10591" lon="2.60035">
        <ele>985.5</ele>
        <time>2021-08-11T08:28:29Z</time>
      </trkpt>
      <trkpt lat="45.10591" lon="2.60035">
        <ele>985.5</ele>
        <time>2021-08-11T08:28:30Z</time>
      </trkpt>
      <trkpt lat="45.10591" lon="2.60035">
        <ele>985.5</ele>
        <time>2021-08-11T08:28:31Z</time>
      </trkpt>
      <trkpt lat="45.10591" lon="2.60035">
        <ele>985.5</ele>
        <time>2021-08-11T08:28:32Z</time>
      </trkpt>
      <trkpt lat="45.10591" lon="2.60035">
        <ele>985.5</ele>
        <time>2021-08-11T08:28:33Z</time>
      </trkpt>
      <trkpt lat="45.10591" lon="2.60036">
        <ele>985.6</ele>
        <time>2021-08-11T08:28:34Z</time>
      </trkpt>
      <trkpt lat="45.10591" lon="2.60037">
        <ele>985.7</ele>
        <time>2021-08-11T08:28:35Z</time>
      </trkpt>
      <trkpt lat="45.10591" lon="2.60038">
        <ele>985.8</ele>
        <time>2021-08-11T08:28:36Z</time>
      </trkpt>
      <trkpt lat="45.10591" lon="2.60038">
        <ele>985.9</ele>
        <time>2021-08-11T08:28:37Z</time>
      </trkpt>
      <trkpt lat="45.10591" lon="2.60039">
        <ele>986</ele>
        <time>2021-08-11T08:28:38Z</time>
      </trkpt>
      <trkpt lat="45.10592" lon="2.6004">
        <ele>986.1</ele>
        <time>2021-08-11T08:28:39Z</time>
      </trkpt>
      <trkpt lat="45.10592" lon="2.60041">
        <ele>986.2</ele>
        <time>2021-08-11T08:28:40Z</time>
      </trkpt>
      <trkpt lat="45.10592" lon="2.60042">
        <ele>986.3</ele>
        <time>2021-08-11T08:28:41Z</time>
      </trkpt>
      <trkpt lat="45.10593" lon="2.60043">
        <ele>986.4</ele>
        <time>2021-08-11T08:28:42Z</time>
      </trkpt>
      <trkpt lat="45.10594" lon="2.60044">
        <ele>986.6</ele>
        <time>2021-08-11T08:28:43Z</time>
      </trkpt>
      <trkpt lat="45.10594" lon="2.60044">
        <ele>986.6</ele>
        <time>2021-08-11T08:28:44Z</time>
      </trkpt>
      <trkpt lat="45.10595" lon="2.60045">
        <ele>986.8</ele>
        <time>2021-08-11T08:28:45Z</time>
      </trkpt>
      <trkpt lat="45.10595" lon="2.60046">
        <ele>986.8</ele>
        <time>2021-08-11T08:28:46Z</time>
      </trkpt>
      <trkpt lat="45.10596" lon="2.60047">
        <ele>986.9</ele>
        <time>2021-08-11T08:28:47Z</time>
      </trkpt>
      <trkpt lat="45.10597" lon="2.60048">
        <ele>987</ele>
        <time>2021-08-11T08:28:48Z</time>
      </trkpt>
      <trkpt lat="45.10597" lon="2.60049">
        <ele>987.1</ele>
        <time>2021-08-11T08:28:49Z</time>
      </trkpt>
      <trkpt lat="45.10598" lon="2.6005">
        <ele>987.2</ele>
        <time>2021-08-11T08:28:50Z</time>
      </trkpt>
      <trkpt lat="45.10599" lon="2.60051">
        <ele>987.4</ele>
        <time>2021-08-11T08:28:51Z</time>
      </trkpt>
      <trkpt lat="45.10599" lon="2.60052">
        <ele>987.5</ele>
        <time>2021-08-11T08:28:52Z</time>
      </trkpt>
      <trkpt lat="45.106" lon="2.60053">
        <ele>987.6</ele>
        <time>2021-08-11T08:28:53Z</time>
      </trkpt>
      <trkpt lat="45.106" lon="2.60054">
        <ele>987.7</ele>
        <time>2021-08-11T08:28:54Z</time>
      </trkpt>
      <trkpt lat="45.10601" lon="2.60055">
        <ele>987.9</ele>
        <time>2021-08-11T08:28:55Z</time>
      </trkpt>
      <trkpt lat="45.10601" lon="2.60057">
        <ele>988</ele>
        <time>2021-08-11T08:28:56Z</time>
      </trkpt>
      <trkpt lat="45.10602" lon="2.60058">
        <ele>988.1</ele>
        <time>2021-08-11T08:28:57Z</time>
      </trkpt>
      <trkpt lat="45.10603" lon="2.60059">
        <ele>988.3</ele>
        <time>2021-08-11T08:28:58Z</time>
      </trkpt>
      <trkpt lat="45.10603" lon="2.6006">
        <ele>988.4</ele>
        <time>2021-08-11T08:28:59Z</time>
      </trkpt>
      <trkpt lat="45.10604" lon="2.60061">
        <ele>988.5</ele>
        <time>2021-08-11T08:29:00Z</time>
      </trkpt>
      <trkpt lat="45.10604" lon="2.60062">
        <ele>988.7</ele>
        <time>2021-08-11T08:29:01Z</time>
      </trkpt>
      <trkpt lat="45.10605" lon="2.60063">
        <ele>988.8</ele>
        <time>2021-08-11T08:29:02Z</time>
      </trkpt>
      <trkpt lat="45.10605" lon="2.60065">
        <ele>988.9</ele>
        <time>2021-08-11T08:29:03Z</time>
      </trkpt>
      <trkpt lat="45.10606" lon="2.60066">
        <ele>989.1</ele>
        <time>2021-08-11T08:29:04Z</time>
      </trkpt>
      <trkpt lat="45.10606" lon="2.60067">
        <ele>989.2</ele>
        <time>2021-08-11T08:29:05Z</time>
      </trkpt>
      <trkpt lat="45.10607" lon="2.60068">
        <ele>989.3</ele>
        <time>2021-08-11T08:29:06Z</time>
      </trkpt>
      <trkpt lat="45.10608" lon="2.6007">
        <ele>989.4</ele>
        <time>2021-08-11T08:29:07Z</time>
      </trkpt>
      <trkpt lat="45.10608" lon="2.60071">
        <ele>989.6</ele>
        <time>2021-08-11T08:29:08Z</time>
      </trkpt>
      <trkpt lat="45.10609" lon="2.60072">
        <ele>989.7</ele>
        <time>2021-08-11T08:29:09Z</time>
      </trkpt>
      <trkpt lat="45.10609" lon="2.60073">
        <ele>989.8</ele>
        <time>2021-08-11T08:29:10Z</time>
      </trkpt>
      <trkpt lat="45.1061" lon="2.60074">
        <ele>990</ele>
        <time>2021-08-11T08:29:11Z</time>
      </trkpt>
      <trkpt lat="45.1061" lon="2.60075">
        <ele>990.1</ele>
        <time>2021-08-11T08:29:12Z</time>
      </trkpt>
      <trkpt lat="45.10611" lon="2.60077">
        <ele>990.2</ele>
        <time>2021-08-11T08:29:13Z</time>
      </trkpt>
      <trkpt lat="45.10611" lon="2.60078">
        <ele>990.3</ele>
        <time>2021-08-11T08:29:14Z</time>
      </trkpt>
      <trkpt lat="45.10612" lon="2.60079">
        <ele>990.5</ele>
        <time>2021-08-11T08:29:15Z</time>
      </trkpt>
      <trkpt lat="45.10613" lon="2.6008">
        <ele>990.6</ele>
        <time>2021-08-11T08:29:16Z</time>
      </trkpt>
      <trkpt lat="45.10613" lon="2.60081">
        <ele>990.7</ele>
        <time>2021-08-11T08:29:17Z</time>
      </trkpt>
      <trkpt lat="45.10614" lon="2.60083">
        <ele>990.8</ele>
        <time>2021-08-11T08:29:18Z</time>
      </trkpt>
      <trkpt lat="45.10614" lon="2.60084">
        <ele>991</ele>
        <time>2021-08-11T08:29:19Z</time>
      </trkpt>
      <trkpt lat="45.10615" lon="2.60085">
        <ele>991.2</ele>
        <time>2021-08-11T08:29:20Z</time>
      </trkpt>
      <trkpt lat="45.10615" lon="2.60086">
        <ele>991.5</ele>
        <time>2021-08-11T08:29:21Z</time>
      </trkpt>
      <trkpt lat="45.10616" lon="2.60088">
        <ele>991.7</ele>
        <time>2021-08-11T08:29:22Z</time>
      </trkpt>
      <trkpt lat="45.10616" lon="2.60089">
        <ele>992</ele>
        <time>2021-08-11T08:29:23Z</time>
      </trkpt>
      <trkpt lat="45.10617" lon="2.6009">
        <ele>992.2</ele>
        <time>2021-08-11T08:29:24Z</time>
      </trkpt>
      <trkpt lat="45.10618" lon="2.60091">
        <ele>992.5</ele>
        <time>2021-08-11T08:29:25Z</time>
      </trkpt>
      <trkpt lat="45.10618" lon="2.60093">
        <ele>992.7</ele>
        <time>2021-08-11T08:29:26Z</time>
      </trkpt>
      <trkpt lat="45.10619" lon="2.60094">
        <ele>993</ele>
        <time>2021-08-11T08:29:27Z</time>
      </trkpt>
      <trkpt lat="45.10619" lon="2.60095">
        <ele>993.2</ele>
        <time>2021-08-11T08:29:28Z</time>
      </trkpt>
      <trkpt lat="45.1062" lon="2.60097">
        <ele>993.5</ele>
        <time>2021-08-11T08:29:29Z</time>
      </trkpt>
      <trkpt lat="45.10621" lon="2.60098">
        <ele>993.8</ele>
        <time>2021-08-11T08:29:30Z</time>
      </trkpt>
      <trkpt lat="45.10621" lon="2.60099">
        <ele>994</ele>
        <time>2021-08-11T08:29:31Z</time>
      </trkpt>
      <trkpt lat="45.10622" lon="2.601">
        <ele>994.3</ele>
        <time>2021-08-11T08:29:32Z</time>
      </trkpt>
      <trkpt lat="45.10623" lon="2.60102">
        <ele>994.5</ele>
        <time>2021-08-11T08:29:33Z</time>
      </trkpt>
      <trkpt lat="45.10623" lon="2.60103">
        <ele>994.7</ele>
        <time>2021-08-11T08:29:34Z</time>
      </trkpt>
      <trkpt lat="45.10624" lon="2.60104">
        <ele>995</ele>
        <time>2021-08-11T08:29:35Z</time>
      </trkpt>
      <trkpt lat="45.10624" lon="2.60105">
        <ele>995.3</ele>
        <time>2021-08-11T08:29:36Z</time>
      </trkpt>
      <trkpt lat="45.10625" lon="2.60106">
        <ele>995.5</ele>
        <time>2021-08-11T08:29:37Z</time>
      </trkpt>
      <trkpt lat="45.10626" lon="2.60108">
        <ele>995.7</ele>
        <time>2021-08-11T08:29:38Z</time>
      </trkpt>
      <trkpt lat="45.10626" lon="2.60109">
        <ele>996</ele>
        <time>2021-08-11T08:29:39Z</time>
      </trkpt>
      <trkpt lat="45.10627" lon="2.6011">
        <ele>996.2</ele>
        <time>2021-08-11T08:29:40Z</time>
      </trkpt>
      <trkpt lat="45.10627" lon="2.60111">
        <ele>996.5</ele>
        <time>2021-08-11T08:29:41Z</time>
      </trkpt>
      <trkpt lat="45.10627" lon="2.60113">
        <ele>996.7</ele>
        <time>2021-08-11T08:29:42Z</time>
      </trkpt>
      <trkpt lat="45.10628" lon="2.60114">
        <ele>997</ele>
        <time>2021-08-11T08:29:43Z</time>
      </trkpt>
      <trkpt lat="45.10629" lon="2.60115">
        <ele>997.2</ele>
        <time>2021-08-11T08:29:44Z</time>
      </trkpt>
      <trkpt lat="45.10629" lon="2.60116">
        <ele>997.4</ele>
        <time>2021-08-11T08:29:45Z</time>
      </trkpt>
      <trkpt lat="45.1063" lon="2.60117">
        <ele>997.7</ele>
        <time>2021-08-11T08:29:46Z</time>
      </trkpt>
      <trkpt lat="45.1063" lon="2.60119">
        <ele>997.9</ele>
        <time>2021-08-11T08:29:47Z</time>
      </trkpt>
      <trkpt lat="45.10631" lon="2.6012">
        <ele>998.2</ele>
        <time>2021-08-11T08:29:48Z</time>
      </trkpt>
      <trkpt lat="45.10631" lon="2.60121">
        <ele>998.4</ele>
        <time>2021-08-11T08:29:49Z</time>
      </trkpt>
      <trkpt lat="45.10632" lon="2.60122">
        <ele>998.6</ele>
        <time>2021-08-11T08:29:50Z</time>
      </trkpt>
      <trkpt lat="45.10633" lon="2.60123">
        <ele>998.8</ele>
        <time>2021-08-11T08:29:51Z</time>
      </trkpt>
      <trkpt lat="45.10633" lon="2.60124">
        <ele>998.9</ele>
        <time>2021-08-11T08:29:52Z</time>
      </trkpt>
      <trkpt lat="45.10634" lon="2.60125">
        <ele>999.1</ele>
        <time>2021-08-11T08:29:53Z</time>
      </trkpt>
      <trkpt lat="45.10635" lon="2.60126">
        <ele>999.3</ele>
        <time>2021-08-11T08:29:54Z</time>
      </trkpt>
      <trkpt lat="45.10635" lon="2.60127">
        <ele>999.5</ele>
        <time>2021-08-11T08:29:55Z</time>
      </trkpt>
      <trkpt lat="45.10636" lon="2.60128">
        <ele>999.7</ele>
        <time>2021-08-11T08:29:56Z</time>
      </trkpt>
      <trkpt lat="45.10636" lon="2.60129">
        <ele>999.9</ele>
        <time>2021-08-11T08:29:57Z</time>
      </trkpt>
      <trkpt lat="45.10636" lon="2.6013">
        <ele>1000.1</ele>
        <time>2021-08-11T08:29:58Z</time>
      </trkpt>
      <trkpt lat="45.10637" lon="2.60131">
        <ele>1000.3</ele>
        <time>2021-08-11T08:29:59Z</time>
      </trkpt>
      <trkpt lat="45.10637" lon="2.60132">
        <ele>1000.5</ele>
        <time>2021-08-11T08:30:00Z</time>
      </trkpt>
      <trkpt lat="45.10638" lon="2.60133">
        <ele>1000.7</ele>
        <time>2021-08-11T08:30:01Z</time>
      </trkpt>
      <trkpt lat="45.10638" lon="2.60134">
        <ele>1000.9</ele>
        <time>2021-08-11T08:30:02Z</time>
      </trkpt>
      <trkpt lat="45.10639" lon="2.60135">
        <ele>1001.1</ele>
        <time>2021-08-11T08:30:03Z</time>
      </trkpt>
      <trkpt lat="45.10639" lon="2.60136">
        <ele>1001.3</ele>
        <time>2021-08-11T08:30:04Z</time>
      </trkpt>
      <trkpt lat="45.1064" lon="2.60136">
        <ele>1001.4</ele>
        <time>2021-08-11T08:30:05Z</time>
      </trkpt>
      <trkpt lat="45.10641" lon="2.60137">
        <ele>1001.6</ele>
        <time>2021-08-11T08:30:06Z</time>
      </trkpt>
      <trkpt lat="45.10642" lon="2.60138">
        <ele>1001.8</ele>
        <time>2021-08-11T08:30:07Z</time>
      </trkpt>
      <trkpt lat="45.10642" lon="2.60139">
        <ele>1001.9</ele>
        <time>2021-08-11T08:30:08Z</time>
      </trkpt>
      <trkpt lat="45.10643" lon="2.6014">
        <ele>1002.1</ele>
        <time>2021-08-11T08:30:09Z</time>
      </trkpt>
      <trkpt lat="45.10643" lon="2.60141">
        <ele>1002.3</ele>
        <time>2021-08-11T08:30:10Z</time>
      </trkpt>
      <trkpt lat="45.10644" lon="2.60142">
        <ele>1002.4</ele>
        <time>2021-08-11T08:30:11Z</time>
      </trkpt>
      <trkpt lat="45.10644" lon="2.60142">
        <ele>1002.5</ele>
        <time>2021-08-11T08:30:12Z</time>
      </trkpt>
      <trkpt lat="45.10645" lon="2.60143">
        <ele>1002.6</ele>
        <time>2021-08-11T08:30:13Z</time>
      </trkpt>
      <trkpt lat="45.10646" lon="2.60143">
        <ele>1002.7</ele>
        <time>2021-08-11T08:30:14Z</time>
      </trkpt>
      <trkpt lat="45.10646" lon="2.60143">
        <ele>1002.7</ele>
        <time>2021-08-11T08:30:15Z</time>
      </trkpt>
      <trkpt lat="45.10646" lon="2.60144">
        <ele>1002.8</ele>
        <time>2021-08-11T08:30:16Z</time>
      </trkpt>
      <trkpt lat="45.10646" lon="2.60144">
        <ele>1002.8</ele>
        <time>2021-08-11T08:30:17Z</time>
      </trkpt>
      <trkpt lat="45.10646" lon="2.60144">
        <ele>1002.8</ele>
        <time>2021-08-11T08:30:18Z</time>
      </trkpt>
      <trkpt lat="45.10647" lon="2.60145">
        <ele>1002.9</ele>
        <time>2021-08-11T08:30:19Z</time>
      </trkpt>
      <trkpt lat="45.10647" lon="2.60145">
        <ele>1003.1</ele>
        <time>2021-08-11T08:30:20Z</time>
      </trkpt>
      <trkpt lat="45.10648" lon="2.60146">
        <ele>1003.2</ele>
        <time>2021-08-11T08:30:21Z</time>
      </trkpt>
      <trkpt lat="45.10649" lon="2.60147">
        <ele>1003.3</ele>
        <time>2021-08-11T08:30:22Z</time>
      </trkpt>
      <trkpt lat="45.1065" lon="2.60147">
        <ele>1003.4</ele>
        <time>2021-08-11T08:30:23Z</time>
      </trkpt>
      <trkpt lat="45.10651" lon="2.60148">
        <ele>1003.5</ele>
        <time>2021-08-11T08:30:24Z</time>
      </trkpt>
      <trkpt lat="45.10652" lon="2.60148">
        <ele>1003.6</ele>
        <time>2021-08-11T08:30:25Z</time>
      </trkpt>
      <trkpt lat="45.10653" lon="2.60149">
        <ele>1003.6</ele>
        <time>2021-08-11T08:30:26Z</time>
      </trkpt>
      <trkpt lat="45.10654" lon="2.60149">
        <ele>1003.6</ele>
        <time>2021-08-11T08:30:27Z</time>
      </trkpt>
      <trkpt lat="45.10655" lon="2.60149">
        <ele>1003.6</ele>
        <time>2021-08-11T08:30:28Z</time>
      </trkpt>
      <trkpt lat="45.10656" lon="2.60149">
        <ele>1003.7</ele>
        <time>2021-08-11T08:30:29Z</time>
      </trkpt>
      <trkpt lat="45.10657" lon="2.6015">
        <ele>1003.7</ele>
        <time>2021-08-11T08:30:30Z</time>
      </trkpt>
      <trkpt lat="45.10658" lon="2.6015">
        <ele>1003.8</ele>
        <time>2021-08-11T08:30:31Z</time>
      </trkpt>
      <trkpt lat="45.10659" lon="2.60151">
        <ele>1003.8</ele>
        <time>2021-08-11T08:30:32Z</time>
      </trkpt>
      <trkpt lat="45.1066" lon="2.60151">
        <ele>1003.9</ele>
        <time>2021-08-11T08:30:33Z</time>
      </trkpt>
      <trkpt lat="45.10661" lon="2.60151">
        <ele>1003.9</ele>
        <time>2021-08-11T08:30:34Z</time>
      </trkpt>
      <trkpt lat="45.10662" lon="2.60152">
        <ele>1003.9</ele>
        <time>2021-08-11T08:30:35Z</time>
      </trkpt>
      <trkpt lat="45.10663" lon="2.60152">
        <ele>1004</ele>
        <time>2021-08-11T08:30:36Z</time>
      </trkpt>
      <trkpt lat="45.10664" lon="2.60152">
        <ele>1004</ele>
        <time>2021-08-11T08:30:37Z</time>
      </trkpt>
      <trkpt lat="45.10665" lon="2.60153">
        <ele>1004.1</ele>
        <time>2021-08-11T08:30:38Z</time>
      </trkpt>
      <trkpt lat="45.10666" lon="2.60154">
        <ele>1004.2</ele>
        <time>2021-08-11T08:30:39Z</time>
      </trkpt>
      <trkpt lat="45.10667" lon="2.60154">
        <ele>1004.3</ele>
        <time>2021-08-11T08:30:40Z</time>
      </trkpt>
      <trkpt lat="45.10668" lon="2.60155">
        <ele>1004.4</ele>
        <time>2021-08-11T08:30:41Z</time>
      </trkpt>
      <trkpt lat="45.10669" lon="2.60155">
        <ele>1004.5</ele>
        <time>2021-08-11T08:30:42Z</time>
      </trkpt>
      <trkpt lat="45.1067" lon="2.60155">
        <ele>1004.6</ele>
        <time>2021-08-11T08:30:43Z</time>
      </trkpt>
      <trkpt lat="45.10671" lon="2.60156">
        <ele>1004.6</ele>
        <time>2021-08-11T08:30:44Z</time>
      </trkpt>
      <trkpt lat="45.10672" lon="2.60156">
        <ele>1004.8</ele>
        <time>2021-08-11T08:30:45Z</time>
      </trkpt>
      <trkpt lat="45.10673" lon="2.60157">
        <ele>1004.9</ele>
        <time>2021-08-11T08:30:46Z</time>
      </trkpt>
      <trkpt lat="45.10673" lon="2.60157">
        <ele>1005</ele>
        <time>2021-08-11T08:30:47Z</time>
      </trkpt>
      <trkpt lat="45.10674" lon="2.60158">
        <ele>1005.1</ele>
        <time>2021-08-11T08:30:48Z</time>
      </trkpt>
      <trkpt lat="45.10675" lon="2.60158">
        <ele>1005.1</ele>
        <time>2021-08-11T08:30:49Z</time>
      </trkpt>
      <trkpt lat="45.10676" lon="2.60158">
        <ele>1005.2</ele>
        <time>2021-08-11T08:30:50Z</time>
      </trkpt>
      <trkpt lat="45.10677" lon="2.60158">
        <ele>1005.3</ele>
        <time>2021-08-11T08:30:51Z</time>
      </trkpt>
      <trkpt lat="45.10678" lon="2.60159">
        <ele>1005.3</ele>
        <time>2021-08-11T08:30:52Z</time>
      </trkpt>
      <trkpt lat="45.10679" lon="2.60159">
        <ele>1005.4</ele>
        <time>2021-08-11T08:30:53Z</time>
      </trkpt>
      <trkpt lat="45.1068" lon="2.6016">
        <ele>1005.5</ele>
        <time>2021-08-11T08:30:54Z</time>
      </trkpt>
      <trkpt lat="45.10681" lon="2.6016">
        <ele>1005.6</ele>
        <time>2021-08-11T08:30:55Z</time>
      </trkpt>
      <trkpt lat="45.10682" lon="2.60161">
        <ele>1005.7</ele>
        <time>2021-08-11T08:30:56Z</time>
      </trkpt>
      <trkpt lat="45.10683" lon="2.60161">
        <ele>1005.8</ele>
        <time>2021-08-11T08:30:57Z</time>
      </trkpt>
      <trkpt lat="45.10684" lon="2.60161">
        <ele>1005.8</ele>
        <time>2021-08-11T08:30:58Z</time>
      </trkpt>
      <trkpt lat="45.10685" lon="2.60161">
        <ele>1005.9</ele>
        <time>2021-08-11T08:30:59Z</time>
      </trkpt>
      <trkpt lat="45.10686" lon="2.60162">
        <ele>1006</ele>
        <time>2021-08-11T08:31:00Z</time>
      </trkpt>
      <trkpt lat="45.10687" lon="2.60162">
        <ele>1006</ele>
        <time>2021-08-11T08:31:01Z</time>
      </trkpt>
      <trkpt lat="45.10688" lon="2.60162">
        <ele>1006.1</ele>
        <time>2021-08-11T08:31:02Z</time>
      </trkpt>
      <trkpt lat="45.10689" lon="2.60163">
        <ele>1006.2</ele>
        <time>2021-08-11T08:31:03Z</time>
      </trkpt>
      <trkpt lat="45.1069" lon="2.60163">
        <ele>1006.2</ele>
        <time>2021-08-11T08:31:04Z</time>
      </trkpt>
      <trkpt lat="45.10691" lon="2.60164">
        <ele>1006.4</ele>
        <time>2021-08-11T08:31:05Z</time>
      </trkpt>
      <trkpt lat="45.10692" lon="2.60164">
        <ele>1006.4</ele>
        <time>2021-08-11T08:31:06Z</time>
      </trkpt>
      <trkpt lat="45.10693" lon="2.60164">
        <ele>1006.5</ele>
        <time>2021-08-11T08:31:07Z</time>
      </trkpt>
      <trkpt lat="45.10694" lon="2.60165">
        <ele>1006.6</ele>
        <time>2021-08-11T08:31:08Z</time>
      </trkpt>
      <trkpt lat="45.10695" lon="2.60165">
        <ele>1006.6</ele>
        <time>2021-08-11T08:31:09Z</time>
      </trkpt>
      <trkpt lat="45.10695" lon="2.60165">
        <ele>1006.6</ele>
        <time>2021-08-11T08:31:10Z</time>
      </trkpt>
      <trkpt lat="45.10696" lon="2.60165">
        <ele>1006.7</ele>
        <time>2021-08-11T08:31:11Z</time>
      </trkpt>
      <trkpt lat="45.10697" lon="2.60165">
        <ele>1006.7</ele>
        <time>2021-08-11T08:31:12Z</time>
      </trkpt>
      <trkpt lat="45.10698" lon="2.60165">
        <ele>1006.7</ele>
        <time>2021-08-11T08:31:13Z</time>
      </trkpt>
      <trkpt lat="45.10699" lon="2.60165">
        <ele>1006.7</ele>
        <time>2021-08-11T08:31:14Z</time>
      </trkpt>
      <trkpt lat="45.107" lon="2.60166">
        <ele>1006.8</ele>
        <time>2021-08-11T08:31:15Z</time>
      </trkpt>
      <trkpt lat="45.10701" lon="2.60166">
        <ele>1006.8</ele>
        <time>2021-08-11T08:31:16Z</time>
      </trkpt>
      <trkpt lat="45.10702" lon="2.60166">
        <ele>1006.9</ele>
        <time>2021-08-11T08:31:17Z</time>
      </trkpt>
      <trkpt lat="45.10703" lon="2.60166">
        <ele>1006.9</ele>
        <time>2021-08-11T08:31:18Z</time>
      </trkpt>
      <trkpt lat="45.10704" lon="2.60166">
        <ele>1006.9</ele>
        <time>2021-08-11T08:31:19Z</time>
      </trkpt>
      <trkpt lat="45.10705" lon="2.60166">
        <ele>1006.9</ele>
        <time>2021-08-11T08:31:20Z</time>
      </trkpt>
      <trkpt lat="45.10706" lon="2.60166">
        <ele>1006.9</ele>
        <time>2021-08-11T08:31:21Z</time>
      </trkpt>
      <trkpt lat="45.10707" lon="2.60167">
        <ele>1007</ele>
        <time>2021-08-11T08:31:22Z</time>
      </trkpt>
      <trkpt lat="45.10708" lon="2.60166">
        <ele>1006.9</ele>
        <time>2021-08-11T08:31:23Z</time>
      </trkpt>
      <trkpt lat="45.10709" lon="2.60166">
        <ele>1006.9</ele>
        <time>2021-08-11T08:31:24Z</time>
      </trkpt>
      <trkpt lat="45.1071" lon="2.60167">
        <ele>1007</ele>
        <time>2021-08-11T08:31:25Z</time>
      </trkpt>
      <trkpt lat="45.10711" lon="2.60167">
        <ele>1007</ele>
        <time>2021-08-11T08:31:26Z</time>
      </trkpt>
      <trkpt lat="45.10712" lon="2.60167">
        <ele>1007</ele>
        <time>2021-08-11T08:31:27Z</time>
      </trkpt>
      <trkpt lat="45.10713" lon="2.60167">
        <ele>1007.1</ele>
        <time>2021-08-11T08:31:28Z</time>
      </trkpt>
      <trkpt lat="45.10714" lon="2.60167">
        <ele>1007.1</ele>
        <time>2021-08-11T08:31:29Z</time>
      </trkpt>
      <trkpt lat="45.10714" lon="2.60167">
        <ele>1007.1</ele>
        <time>2021-08-11T08:31:30Z</time>
      </trkpt>
      <trkpt lat="45.10715" lon="2.60167">
        <ele>1007.1</ele>
        <time>2021-08-11T08:31:31Z</time>
      </trkpt>
      <trkpt lat="45.10716" lon="2.60167">
        <ele>1007.1</ele>
        <time>2021-08-11T08:31:32Z</time>
      </trkpt>
      <trkpt lat="45.10717" lon="2.60167">
        <ele>1007.1</ele>
        <time>2021-08-11T08:31:33Z</time>
      </trkpt>
      <trkpt lat="45.10718" lon="2.60167">
        <ele>1007.1</ele>
        <time>2021-08-11T08:31:34Z</time>
      </trkpt>
      <trkpt lat="45.10719" lon="2.60167">
        <ele>1007.2</ele>
        <time>2021-08-11T08:31:35Z</time>
      </trkpt>
      <trkpt lat="45.10719" lon="2.60168">
        <ele>1007.2</ele>
        <time>2021-08-11T08:31:36Z</time>
      </trkpt>
      <trkpt lat="45.1072" lon="2.60168">
        <ele>1007.3</ele>
        <time>2021-08-11T08:31:37Z</time>
      </trkpt>
      <trkpt lat="45.10721" lon="2.60168">
        <ele>1007.3</ele>
        <time>2021-08-11T08:31:38Z</time>
      </trkpt>
      <trkpt lat="45.10722" lon="2.60168">
        <ele>1007.4</ele>
        <time>2021-08-11T08:31:39Z</time>
      </trkpt>
      <trkpt lat="45.10723" lon="2.60168">
        <ele>1007.4</ele>
        <time>2021-08-11T08:31:40Z</time>
      </trkpt>
      <trkpt lat="45.10724" lon="2.60169">
        <ele>1007.5</ele>
        <time>2021-08-11T08:31:41Z</time>
      </trkpt>
      <trkpt lat="45.10725" lon="2.60169">
        <ele>1007.6</ele>
        <time>2021-08-11T08:31:42Z</time>
      </trkpt>
      <trkpt lat="45.10725" lon="2.60169">
        <ele>1007.6</ele>
        <time>2021-08-11T08:31:43Z</time>
      </trkpt>
      <trkpt lat="45.10726" lon="2.60169">
        <ele>1007.6</ele>
        <time>2021-08-11T08:31:44Z</time>
      </trkpt>
      <trkpt lat="45.10727" lon="2.60169">
        <ele>1007.7</ele>
        <time>2021-08-11T08:31:45Z</time>
      </trkpt>
      <trkpt lat="45.10728" lon="2.6017">
        <ele>1007.8</ele>
        <time>2021-08-11T08:31:46Z</time>
      </trkpt>
      <trkpt lat="45.10729" lon="2.6017">
        <ele>1008</ele>
        <time>2021-08-11T08:31:47Z</time>
      </trkpt>
      <trkpt lat="45.10729" lon="2.60171">
        <ele>1008.1</ele>
        <time>2021-08-11T08:31:48Z</time>
      </trkpt>
      <trkpt lat="45.1073" lon="2.60171">
        <ele>1008.2</ele>
        <time>2021-08-11T08:31:49Z</time>
      </trkpt>
      <trkpt lat="45.10731" lon="2.60171">
        <ele>1008.3</ele>
        <time>2021-08-11T08:31:50Z</time>
      </trkpt>
      <trkpt lat="45.10732" lon="2.60172">
        <ele>1008.4</ele>
        <time>2021-08-11T08:31:51Z</time>
      </trkpt>
      <trkpt lat="45.10732" lon="2.60172">
        <ele>1008.6</ele>
        <time>2021-08-11T08:31:52Z</time>
      </trkpt>
      <trkpt lat="45.10733" lon="2.60173">
        <ele>1008.7</ele>
        <time>2021-08-11T08:31:53Z</time>
      </trkpt>
      <trkpt lat="45.10734" lon="2.60173">
        <ele>1008.8</ele>
        <time>2021-08-11T08:31:54Z</time>
      </trkpt>
      <trkpt lat="45.10735" lon="2.60174">
        <ele>1009</ele>
        <time>2021-08-11T08:31:55Z</time>
      </trkpt>
      <trkpt lat="45.10736" lon="2.60174">
        <ele>1009.1</ele>
        <time>2021-08-11T08:31:56Z</time>
      </trkpt>
      <trkpt lat="45.10737" lon="2.60175">
        <ele>1009.3</ele>
        <time>2021-08-11T08:31:57Z</time>
      </trkpt>
      <trkpt lat="45.10737" lon="2.60176">
        <ele>1009.5</ele>
        <time>2021-08-11T08:31:58Z</time>
      </trkpt>
      <trkpt lat="45.10738" lon="2.60177">
        <ele>1009.7</ele>
        <time>2021-08-11T08:31:59Z</time>
      </trkpt>
      <trkpt lat="45.10739" lon="2.60177">
        <ele>1009.9</ele>
        <time>2021-08-11T08:32:00Z</time>
      </trkpt>
      <trkpt lat="45.1074" lon="2.60178">
        <ele>1010</ele>
        <time>2021-08-11T08:32:01Z</time>
      </trkpt>
      <trkpt lat="45.10741" lon="2.60179">
        <ele>1010.2</ele>
        <time>2021-08-11T08:32:02Z</time>
      </trkpt>
      <trkpt lat="45.10742" lon="2.60179">
        <ele>1010.4</ele>
        <time>2021-08-11T08:32:03Z</time>
      </trkpt>
      <trkpt lat="45.10742" lon="2.6018">
        <ele>1010.6</ele>
        <time>2021-08-11T08:32:04Z</time>
      </trkpt>
      <trkpt lat="45.10743" lon="2.60181">
        <ele>1010.7</ele>
        <time>2021-08-11T08:32:05Z</time>
      </trkpt>
      <trkpt lat="45.10744" lon="2.60181">
        <ele>1010.9</ele>
        <time>2021-08-11T08:32:06Z</time>
      </trkpt>
      <trkpt lat="45.10745" lon="2.60182">
        <ele>1011.1</ele>
        <time>2021-08-11T08:32:07Z</time>
      </trkpt>
      <trkpt lat="45.10745" lon="2.60183">
        <ele>1011.3</ele>
        <time>2021-08-11T08:32:08Z</time>
      </trkpt>
      <trkpt lat="45.10746" lon="2.60184">
        <ele>1011.5</ele>
        <time>2021-08-11T08:32:09Z</time>
      </trkpt>
      <trkpt lat="45.10747" lon="2.60185">
        <ele>1011.7</ele>
        <time>2021-08-11T08:32:10Z</time>
      </trkpt>
      <trkpt lat="45.10748" lon="2.60186">
        <ele>1012</ele>
        <time>2021-08-11T08:32:11Z</time>
      </trkpt>
      <trkpt lat="45.10748" lon="2.60187">
        <ele>1012.3</ele>
        <time>2021-08-11T08:32:12Z</time>
      </trkpt>
      <trkpt lat="45.10749" lon="2.60188">
        <ele>1012.6</ele>
        <time>2021-08-11T08:32:13Z</time>
      </trkpt>
      <trkpt lat="45.1075" lon="2.60189">
        <ele>1012.9</ele>
        <time>2021-08-11T08:32:14Z</time>
      </trkpt>
      <trkpt lat="45.1075" lon="2.6019">
        <ele>1013.1</ele>
        <time>2021-08-11T08:32:15Z</time>
      </trkpt>
      <trkpt lat="45.10751" lon="2.60191">
        <ele>1013.3</ele>
        <time>2021-08-11T08:32:16Z</time>
      </trkpt>
      <trkpt lat="45.10752" lon="2.60192">
        <ele>1013.5</ele>
        <time>2021-08-11T08:32:17Z</time>
      </trkpt>
      <trkpt lat="45.10753" lon="2.60193">
        <ele>1013.7</ele>
        <time>2021-08-11T08:32:18Z</time>
      </trkpt>
      <trkpt lat="45.10753" lon="2.60194">
        <ele>1014</ele>
        <time>2021-08-11T08:32:19Z</time>
      </trkpt>
      <trkpt lat="45.10754" lon="2.60194">
        <ele>1014.2</ele>
        <time>2021-08-11T08:32:20Z</time>
      </trkpt>
      <trkpt lat="45.10755" lon="2.60195">
        <ele>1014.3</ele>
        <time>2021-08-11T08:32:21Z</time>
      </trkpt>
      <trkpt lat="45.10755" lon="2.60196">
        <ele>1014.5</ele>
        <time>2021-08-11T08:32:22Z</time>
      </trkpt>
      <trkpt lat="45.10756" lon="2.60196">
        <ele>1014.7</ele>
        <time>2021-08-11T08:32:23Z</time>
      </trkpt>
      <trkpt lat="45.10756" lon="2.60197">
        <ele>1014.8</ele>
        <time>2021-08-11T08:32:24Z</time>
      </trkpt>
      <trkpt lat="45.10757" lon="2.60197">
        <ele>1014.9</ele>
        <time>2021-08-11T08:32:25Z</time>
      </trkpt>
      <trkpt lat="45.10757" lon="2.60198">
        <ele>1015</ele>
        <time>2021-08-11T08:32:26Z</time>
      </trkpt>
      <trkpt lat="45.10758" lon="2.60199">
        <ele>1015.2</ele>
        <time>2021-08-11T08:32:27Z</time>
      </trkpt>
      <trkpt lat="45.10759" lon="2.602">
        <ele>1015.4</ele>
        <time>2021-08-11T08:32:28Z</time>
      </trkpt>
      <trkpt lat="45.10759" lon="2.602">
        <ele>1015.6</ele>
        <time>2021-08-11T08:32:29Z</time>
      </trkpt>
      <trkpt lat="45.1076" lon="2.60201">
        <ele>1015.8</ele>
        <time>2021-08-11T08:32:30Z</time>
      </trkpt>
      <trkpt lat="45.10761" lon="2.60202">
        <ele>1016</ele>
        <time>2021-08-11T08:32:31Z</time>
      </trkpt>
      <trkpt lat="45.10762" lon="2.60203">
        <ele>1016.2</ele>
        <time>2021-08-11T08:32:32Z</time>
      </trkpt>
      <trkpt lat="45.10762" lon="2.60204">
        <ele>1016.4</ele>
        <time>2021-08-11T08:32:33Z</time>
      </trkpt>
      <trkpt lat="45.10763" lon="2.60205">
        <ele>1016.6</ele>
        <time>2021-08-11T08:32:34Z</time>
      </trkpt>
      <trkpt lat="45.10764" lon="2.60205">
        <ele>1016.8</ele>
        <time>2021-08-11T08:32:35Z</time>
      </trkpt>
      <trkpt lat="45.10765" lon="2.60206">
        <ele>1017</ele>
        <time>2021-08-11T08:32:36Z</time>
      </trkpt>
      <trkpt lat="45.10766" lon="2.60207">
        <ele>1017.2</ele>
        <time>2021-08-11T08:32:37Z</time>
      </trkpt>
      <trkpt lat="45.10767" lon="2.60208">
        <ele>1017.3</ele>
        <time>2021-08-11T08:32:38Z</time>
      </trkpt>
      <trkpt lat="45.10767" lon="2.60208">
        <ele>1017.5</ele>
        <time>2021-08-11T08:32:39Z</time>
      </trkpt>
      <trkpt lat="45.10768" lon="2.60209">
        <ele>1017.6</ele>
        <time>2021-08-11T08:32:40Z</time>
      </trkpt>
      <trkpt lat="45.10769" lon="2.6021">
        <ele>1017.8</ele>
        <time>2021-08-11T08:32:41Z</time>
      </trkpt>
      <trkpt lat="45.1077" lon="2.60211">
        <ele>1018.1</ele>
        <time>2021-08-11T08:32:42Z</time>
      </trkpt>
      <trkpt lat="45.10771" lon="2.60212">
        <ele>1018.2</ele>
        <time>2021-08-11T08:32:43Z</time>
      </trkpt>
      <trkpt lat="45.10772" lon="2.60213">
        <ele>1018.5</ele>
        <time>2021-08-11T08:32:44Z</time>
      </trkpt>
      <trkpt lat="45.10772" lon="2.60213">
        <ele>1018.6</ele>
        <time>2021-08-11T08:32:45Z</time>
      </trkpt>
      <trkpt lat="45.10773" lon="2.60214">
        <ele>1018.8</ele>
        <time>2021-08-11T08:32:46Z</time>
      </trkpt>
      <trkpt lat="45.10774" lon="2.60215">
        <ele>1019</ele>
        <time>2021-08-11T08:32:47Z</time>
      </trkpt>
      <trkpt lat="45.10775" lon="2.60216">
        <ele>1019.2</ele>
        <time>2021-08-11T08:32:48Z</time>
      </trkpt>
      <trkpt lat="45.10776" lon="2.60216">
        <ele>1019.4</ele>
        <time>2021-08-11T08:32:49Z</time>
      </trkpt>
      <trkpt lat="45.10777" lon="2.60217">
        <ele>1019.6</ele>
        <time>2021-08-11T08:32:50Z</time>
      </trkpt>
      <trkpt lat="45.10778" lon="2.60218">
        <ele>1019.8</ele>
        <time>2021-08-11T08:32:51Z</time>
      </trkpt>
      <trkpt lat="45.10778" lon="2.60219">
        <ele>1019.9</ele>
        <time>2021-08-11T08:32:52Z</time>
      </trkpt>
      <trkpt lat="45.10779" lon="2.60219">
        <ele>1019.9</ele>
        <time>2021-08-11T08:32:53Z</time>
      </trkpt>
      <trkpt lat="45.1078" lon="2.6022">
        <ele>1020.1</ele>
        <time>2021-08-11T08:32:54Z</time>
      </trkpt>
      <trkpt lat="45.10781" lon="2.60221">
        <ele>1020.3</ele>
        <time>2021-08-11T08:32:55Z</time>
      </trkpt>
      <trkpt lat="45.10782" lon="2.60222">
        <ele>1020.6</ele>
        <time>2021-08-11T08:32:56Z</time>
      </trkpt>
      <trkpt lat="45.10782" lon="2.60222">
        <ele>1020.8</ele>
        <time>2021-08-11T08:32:57Z</time>
      </trkpt>
      <trkpt lat="45.10783" lon="2.60223">
        <ele>1021</ele>
        <time>2021-08-11T08:32:58Z</time>
      </trkpt>
      <trkpt lat="45.10784" lon="2.60224">
        <ele>1021.1</ele>
        <time>2021-08-11T08:32:59Z</time>
      </trkpt>
      <trkpt lat="45.10784" lon="2.60224">
        <ele>1021.3</ele>
        <time>2021-08-11T08:33:00Z</time>
      </trkpt>
      <trkpt lat="45.10785" lon="2.60225">
        <ele>1021.5</ele>
        <time>2021-08-11T08:33:01Z</time>
      </trkpt>
      <trkpt lat="45.10786" lon="2.60226">
        <ele>1021.7</ele>
        <time>2021-08-11T08:33:02Z</time>
      </trkpt>
      <trkpt lat="45.10787" lon="2.60227">
        <ele>1021.9</ele>
        <time>2021-08-11T08:33:03Z</time>
      </trkpt>
      <trkpt lat="45.10787" lon="2.60227">
        <ele>1022</ele>
        <time>2021-08-11T08:33:04Z</time>
      </trkpt>
      <trkpt lat="45.10788" lon="2.60228">
        <ele>1022.2</ele>
        <time>2021-08-11T08:33:05Z</time>
      </trkpt>
      <trkpt lat="45.10788" lon="2.60229">
        <ele>1022.4</ele>
        <time>2021-08-11T08:33:06Z</time>
      </trkpt>
      <trkpt lat="45.10789" lon="2.6023">
        <ele>1022.5</ele>
        <time>2021-08-11T08:33:07Z</time>
      </trkpt>
      <trkpt lat="45.1079" lon="2.6023">
        <ele>1022.7</ele>
        <time>2021-08-11T08:33:08Z</time>
      </trkpt>
      <trkpt lat="45.1079" lon="2.60231">
        <ele>1022.9</ele>
        <time>2021-08-11T08:33:09Z</time>
      </trkpt>
      <trkpt lat="45.10791" lon="2.60232">
        <ele>1023.1</ele>
        <time>2021-08-11T08:33:10Z</time>
      </trkpt>
      <trkpt lat="45.10792" lon="2.60232">
        <ele>1023.2</ele>
        <time>2021-08-11T08:33:11Z</time>
      </trkpt>
      <trkpt lat="45.10792" lon="2.60233">
        <ele>1023.4</ele>
        <time>2021-08-11T08:33:12Z</time>
      </trkpt>
      <trkpt lat="45.10793" lon="2.60233">
        <ele>1023.5</ele>
        <time>2021-08-11T08:33:13Z</time>
      </trkpt>
      <trkpt lat="45.10793" lon="2.60234">
        <ele>1023.6</ele>
        <time>2021-08-11T08:33:14Z</time>
      </trkpt>
      <trkpt lat="45.10794" lon="2.60235">
        <ele>1023.8</ele>
        <time>2021-08-11T08:33:15Z</time>
      </trkpt>
      <trkpt lat="45.10795" lon="2.60236">
        <ele>1024</ele>
        <time>2021-08-11T08:33:16Z</time>
      </trkpt>
      <trkpt lat="45.10795" lon="2.60236">
        <ele>1024.2</ele>
        <time>2021-08-11T08:33:17Z</time>
      </trkpt>
      <trkpt lat="45.10796" lon="2.60237">
        <ele>1024.4</ele>
        <time>2021-08-11T08:33:18Z</time>
      </trkpt>
      <trkpt lat="45.10796" lon="2.60238">
        <ele>1024.5</ele>
        <time>2021-08-11T08:33:19Z</time>
      </trkpt>
      <trkpt lat="45.10796" lon="2.60238">
        <ele>1024.7</ele>
        <time>2021-08-11T08:33:20Z</time>
      </trkpt>
      <trkpt lat="45.10797" lon="2.60239">
        <ele>1024.8</ele>
        <time>2021-08-11T08:33:21Z</time>
      </trkpt>
      <trkpt lat="45.10797" lon="2.60239">
        <ele>1024.9</ele>
        <time>2021-08-11T08:33:22Z</time>
      </trkpt>
      <trkpt lat="45.10798" lon="2.6024">
        <ele>1025.1</ele>
        <time>2021-08-11T08:33:23Z</time>
      </trkpt>
      <trkpt lat="45.10798" lon="2.6024">
        <ele>1025.2</ele>
        <time>2021-08-11T08:33:24Z</time>
      </trkpt>
      <trkpt lat="45.10799" lon="2.60241">
        <ele>1025.4</ele>
        <time>2021-08-11T08:33:25Z</time>
      </trkpt>
      <trkpt lat="45.10799" lon="2.60242">
        <ele>1025.7</ele>
        <time>2021-08-11T08:33:26Z</time>
      </trkpt>
      <trkpt lat="45.108" lon="2.60243">
        <ele>1025.9</ele>
        <time>2021-08-11T08:33:27Z</time>
      </trkpt>
      <trkpt lat="45.10801" lon="2.60244">
        <ele>1026.2</ele>
        <time>2021-08-11T08:33:28Z</time>
      </trkpt>
      <trkpt lat="45.10801" lon="2.60245">
        <ele>1026.4</ele>
        <time>2021-08-11T08:33:29Z</time>
      </trkpt>
      <trkpt lat="45.10802" lon="2.60246">
        <ele>1026.6</ele>
        <time>2021-08-11T08:33:30Z</time>
      </trkpt>
      <trkpt lat="45.10803" lon="2.60246">
        <ele>1026.7</ele>
        <time>2021-08-11T08:33:31Z</time>
      </trkpt>
      <trkpt lat="45.10803" lon="2.60247">
        <ele>1027</ele>
        <time>2021-08-11T08:33:32Z</time>
      </trkpt>
      <trkpt lat="45.10804" lon="2.60248">
        <ele>1027.2</ele>
        <time>2021-08-11T08:33:33Z</time>
      </trkpt>
      <trkpt lat="45.10805" lon="2.60249">
        <ele>1027.5</ele>
        <time>2021-08-11T08:33:34Z</time>
      </trkpt>
      <trkpt lat="45.10806" lon="2.6025">
        <ele>1027.7</ele>
        <time>2021-08-11T08:33:35Z</time>
      </trkpt>
      <trkpt lat="45.10807" lon="2.60251">
        <ele>1028.1</ele>
        <time>2021-08-11T08:33:36Z</time>
      </trkpt>
      <trkpt lat="45.10808" lon="2.60252">
        <ele>1028.3</ele>
        <time>2021-08-11T08:33:37Z</time>
      </trkpt>
      <trkpt lat="45.10809" lon="2.60253">
        <ele>1028.8</ele>
        <time>2021-08-11T08:33:38Z</time>
      </trkpt>
      <trkpt lat="45.1081" lon="2.60254">
        <ele>1029.1</ele>
        <time>2021-08-11T08:33:39Z</time>
      </trkpt>
      <trkpt lat="45.10811" lon="2.60255">
        <ele>1029.5</ele>
        <time>2021-08-11T08:33:40Z</time>
      </trkpt>
      <trkpt lat="45.10812" lon="2.60256">
        <ele>1029.6</ele>
        <time>2021-08-11T08:33:41Z</time>
      </trkpt>
      <trkpt lat="45.10812" lon="2.60257">
        <ele>1029.9</ele>
        <time>2021-08-11T08:33:42Z</time>
      </trkpt>
      <trkpt lat="45.10814" lon="2.60257">
        <ele>1030.1</ele>
        <time>2021-08-11T08:33:43Z</time>
      </trkpt>
      <trkpt lat="45.10815" lon="2.60258">
        <ele>1030.4</ele>
        <time>2021-08-11T08:33:44Z</time>
      </trkpt>
      <trkpt lat="45.10816" lon="2.60259">
        <ele>1030.6</ele>
        <time>2021-08-11T08:33:45Z</time>
      </trkpt>
      <trkpt lat="45.10817" lon="2.60259">
        <ele>1030.8</ele>
        <time>2021-08-11T08:33:46Z</time>
      </trkpt>
      <trkpt lat="45.10817" lon="2.6026">
        <ele>1031</ele>
        <time>2021-08-11T08:33:47Z</time>
      </trkpt>
      <trkpt lat="45.10818" lon="2.60261">
        <ele>1031.3</ele>
        <time>2021-08-11T08:33:48Z</time>
      </trkpt>
      <trkpt lat="45.10819" lon="2.60261">
        <ele>1031.5</ele>
        <time>2021-08-11T08:33:49Z</time>
      </trkpt>
      <trkpt lat="45.10819" lon="2.60261">
        <ele>1031.5</ele>
        <time>2021-08-11T08:33:50Z</time>
      </trkpt>
      <trkpt lat="45.10819" lon="2.60261">
        <ele>1031.5</ele>
        <time>2021-08-11T08:33:51Z</time>
      </trkpt>
      <trkpt lat="45.1082" lon="2.60261">
        <ele>1031.5</ele>
        <time>2021-08-11T08:33:52Z</time>
      </trkpt>
      <trkpt lat="45.1082" lon="2.60262">
        <ele>1031.6</ele>
        <time>2021-08-11T08:33:53Z</time>
      </trkpt>
      <trkpt lat="45.10821" lon="2.60262">
        <ele>1031.8</ele>
        <time>2021-08-11T08:33:54Z</time>
      </trkpt>
      <trkpt lat="45.10822" lon="2.60263">
        <ele>1032</ele>
        <time>2021-08-11T08:33:55Z</time>
      </trkpt>
      <trkpt lat="45.10822" lon="2.60263">
        <ele>1032.1</ele>
        <time>2021-08-11T08:33:56Z</time>
      </trkpt>
      <trkpt lat="45.10823" lon="2.60263">
        <ele>1032.2</ele>
        <time>2021-08-11T08:33:57Z</time>
      </trkpt>
      <trkpt lat="45.10823" lon="2.60264">
        <ele>1032.3</ele>
        <time>2021-08-11T08:33:58Z</time>
      </trkpt>
      <trkpt lat="45.10824" lon="2.60264">
        <ele>1032.4</ele>
        <time>2021-08-11T08:33:59Z</time>
      </trkpt>
      <trkpt lat="45.10824" lon="2.60264">
        <ele>1032.5</ele>
        <time>2021-08-11T08:34:00Z</time>
      </trkpt>
      <trkpt lat="45.10825" lon="2.60265">
        <ele>1032.6</ele>
        <time>2021-08-11T08:34:01Z</time>
      </trkpt>
      <trkpt lat="45.10826" lon="2.60265">
        <ele>1032.8</ele>
        <time>2021-08-11T08:34:02Z</time>
      </trkpt>
      <trkpt lat="45.10826" lon="2.60265">
        <ele>1032.9</ele>
        <time>2021-08-11T08:34:03Z</time>
      </trkpt>
      <trkpt lat="45.10827" lon="2.60266">
        <ele>1033</ele>
        <time>2021-08-11T08:34:04Z</time>
      </trkpt>
      <trkpt lat="45.10827" lon="2.60267">
        <ele>1033.3</ele>
        <time>2021-08-11T08:34:05Z</time>
      </trkpt>
      <trkpt lat="45.10828" lon="2.60267">
        <ele>1033.4</ele>
        <time>2021-08-11T08:34:06Z</time>
      </trkpt>
      <trkpt lat="45.10829" lon="2.60268">
        <ele>1033.7</ele>
        <time>2021-08-11T08:34:07Z</time>
      </trkpt>
      <trkpt lat="45.1083" lon="2.60268">
        <ele>1033.8</ele>
        <time>2021-08-11T08:34:08Z</time>
      </trkpt>
      <trkpt lat="45.10831" lon="2.60269">
        <ele>1034.1</ele>
        <time>2021-08-11T08:34:09Z</time>
      </trkpt>
      <trkpt lat="45.10832" lon="2.60269">
        <ele>1034.2</ele>
        <time>2021-08-11T08:34:10Z</time>
      </trkpt>
      <trkpt lat="45.10833" lon="2.6027">
        <ele>1034.3</ele>
        <time>2021-08-11T08:34:11Z</time>
      </trkpt>
      <trkpt lat="45.10834" lon="2.6027">
        <ele>1034.4</ele>
        <time>2021-08-11T08:34:12Z</time>
      </trkpt>
      <trkpt lat="45.10835" lon="2.60271">
        <ele>1034.6</ele>
        <time>2021-08-11T08:34:13Z</time>
      </trkpt>
      <trkpt lat="45.10836" lon="2.60271">
        <ele>1034.7</ele>
        <time>2021-08-11T08:34:14Z</time>
      </trkpt>
      <trkpt lat="45.10837" lon="2.60272">
        <ele>1034.9</ele>
        <time>2021-08-11T08:34:15Z</time>
      </trkpt>
      <trkpt lat="45.10838" lon="2.60272">
        <ele>1035</ele>
        <time>2021-08-11T08:34:16Z</time>
      </trkpt>
      <trkpt lat="45.10839" lon="2.60273">
        <ele>1035.2</ele>
        <time>2021-08-11T08:34:17Z</time>
      </trkpt>
      <trkpt lat="45.10841" lon="2.60274">
        <ele>1035.4</ele>
        <time>2021-08-11T08:34:18Z</time>
      </trkpt>
      <trkpt lat="45.10842" lon="2.60274">
        <ele>1035.5</ele>
        <time>2021-08-11T08:34:19Z</time>
      </trkpt>
      <trkpt lat="45.10843" lon="2.60275">
        <ele>1035.7</ele>
        <time>2021-08-11T08:34:20Z</time>
      </trkpt>
      <trkpt lat="45.10844" lon="2.60275">
        <ele>1035.8</ele>
        <time>2021-08-11T08:34:21Z</time>
      </trkpt>
      <trkpt lat="45.10845" lon="2.60276">
        <ele>1035.9</ele>
        <time>2021-08-11T08:34:22Z</time>
      </trkpt>
      <trkpt lat="45.10846" lon="2.60276">
        <ele>1036</ele>
        <time>2021-08-11T08:34:23Z</time>
      </trkpt>
      <trkpt lat="45.10847" lon="2.60276">
        <ele>1036</ele>
        <time>2021-08-11T08:34:24Z</time>
      </trkpt>
      <trkpt lat="45.10848" lon="2.60277">
        <ele>1036.1</ele>
        <time>2021-08-11T08:34:25Z</time>
      </trkpt>
      <trkpt lat="45.10849" lon="2.60277">
        <ele>1036.2</ele>
        <time>2021-08-11T08:34:26Z</time>
      </trkpt>
      <trkpt lat="45.1085" lon="2.60278">
        <ele>1036.4</ele>
        <time>2021-08-11T08:34:27Z</time>
      </trkpt>
      <trkpt lat="45.10851" lon="2.60279">
        <ele>1036.5</ele>
        <time>2021-08-11T08:34:28Z</time>
      </trkpt>
      <trkpt lat="45.10852" lon="2.60279">
        <ele>1036.7</ele>
        <time>2021-08-11T08:34:29Z</time>
      </trkpt>
      <trkpt lat="45.10853" lon="2.60279">
        <ele>1036.7</ele>
        <time>2021-08-11T08:34:30Z</time>
      </trkpt>
      <trkpt lat="45.10854" lon="2.6028">
        <ele>1036.9</ele>
        <time>2021-08-11T08:34:31Z</time>
      </trkpt>
      <trkpt lat="45.10854" lon="2.60281">
        <ele>1037.1</ele>
        <time>2021-08-11T08:34:32Z</time>
      </trkpt>
      <trkpt lat="45.10855" lon="2.60281">
        <ele>1037.2</ele>
        <time>2021-08-11T08:34:33Z</time>
      </trkpt>
      <trkpt lat="45.10856" lon="2.60282">
        <ele>1037.2</ele>
        <time>2021-08-11T08:34:34Z</time>
      </trkpt>
      <trkpt lat="45.10857" lon="2.60282">
        <ele>1037.3</ele>
        <time>2021-08-11T08:34:35Z</time>
      </trkpt>
      <trkpt lat="45.10858" lon="2.60283">
        <ele>1037.5</ele>
        <time>2021-08-11T08:34:36Z</time>
      </trkpt>
      <trkpt lat="45.10859" lon="2.60283">
        <ele>1037.6</ele>
        <time>2021-08-11T08:34:37Z</time>
      </trkpt>
      <trkpt lat="45.1086" lon="2.60284">
        <ele>1037.8</ele>
        <time>2021-08-11T08:34:38Z</time>
      </trkpt>
      <trkpt lat="45.1086" lon="2.60284">
        <ele>1037.8</ele>
        <time>2021-08-11T08:34:39Z</time>
      </trkpt>
      <trkpt lat="45.10861" lon="2.60285">
        <ele>1038</ele>
        <time>2021-08-11T08:34:40Z</time>
      </trkpt>
      <trkpt lat="45.10861" lon="2.60285">
        <ele>1038.1</ele>
        <time>2021-08-11T08:34:41Z</time>
      </trkpt>
      <trkpt lat="45.10862" lon="2.60286">
        <ele>1038.3</ele>
        <time>2021-08-11T08:34:42Z</time>
      </trkpt>
      <trkpt lat="45.10863" lon="2.60286">
        <ele>1038.4</ele>
        <time>2021-08-11T08:34:43Z</time>
      </trkpt>
      <trkpt lat="45.10863" lon="2.60287">
        <ele>1038.6</ele>
        <time>2021-08-11T08:34:44Z</time>
      </trkpt>
      <trkpt lat="45.10864" lon="2.60288">
        <ele>1038.8</ele>
        <time>2021-08-11T08:34:45Z</time>
      </trkpt>
      <trkpt lat="45.10865" lon="2.60289">
        <ele>1039.1</ele>
        <time>2021-08-11T08:34:46Z</time>
      </trkpt>
      <trkpt lat="45.10865" lon="2.60289">
        <ele>1039.2</ele>
        <time>2021-08-11T08:34:47Z</time>
      </trkpt>
      <trkpt lat="45.10866" lon="2.6029">
        <ele>1039.4</ele>
        <time>2021-08-11T08:34:48Z</time>
      </trkpt>
      <trkpt lat="45.10867" lon="2.60291">
        <ele>1039.6</ele>
        <time>2021-08-11T08:34:49Z</time>
      </trkpt>
      <trkpt lat="45.10867" lon="2.60292">
        <ele>1039.8</ele>
        <time>2021-08-11T08:34:50Z</time>
      </trkpt>
      <trkpt lat="45.10868" lon="2.60292">
        <ele>1039.9</ele>
        <time>2021-08-11T08:34:51Z</time>
      </trkpt>
      <trkpt lat="45.10869" lon="2.60293">
        <ele>1040.1</ele>
        <time>2021-08-11T08:34:52Z</time>
      </trkpt>
      <trkpt lat="45.1087" lon="2.60294">
        <ele>1040.3</ele>
        <time>2021-08-11T08:34:53Z</time>
      </trkpt>
      <trkpt lat="45.10871" lon="2.60295">
        <ele>1040.5</ele>
        <time>2021-08-11T08:34:54Z</time>
      </trkpt>
      <trkpt lat="45.10871" lon="2.60295">
        <ele>1040.7</ele>
        <time>2021-08-11T08:34:55Z</time>
      </trkpt>
      <trkpt lat="45.10872" lon="2.60296">
        <ele>1040.9</ele>
        <time>2021-08-11T08:34:56Z</time>
      </trkpt>
      <trkpt lat="45.10873" lon="2.60297">
        <ele>1041.1</ele>
        <time>2021-08-11T08:34:57Z</time>
      </trkpt>
      <trkpt lat="45.10874" lon="2.60298">
        <ele>1041.4</ele>
        <time>2021-08-11T08:34:58Z</time>
      </trkpt>
      <trkpt lat="45.10875" lon="2.60299">
        <ele>1041.6</ele>
        <time>2021-08-11T08:34:59Z</time>
      </trkpt>
      <trkpt lat="45.10875" lon="2.603">
        <ele>1041.8</ele>
        <time>2021-08-11T08:35:00Z</time>
      </trkpt>
      <trkpt lat="45.10876" lon="2.60301">
        <ele>1042</ele>
        <time>2021-08-11T08:35:01Z</time>
      </trkpt>
      <trkpt lat="45.10877" lon="2.60301">
        <ele>1042.2</ele>
        <time>2021-08-11T08:35:02Z</time>
      </trkpt>
      <trkpt lat="45.10878" lon="2.60302">
        <ele>1042.4</ele>
        <time>2021-08-11T08:35:03Z</time>
      </trkpt>
      <trkpt lat="45.10879" lon="2.60303">
        <ele>1042.6</ele>
        <time>2021-08-11T08:35:04Z</time>
      </trkpt>
      <trkpt lat="45.1088" lon="2.60304">
        <ele>1042.7</ele>
        <time>2021-08-11T08:35:05Z</time>
      </trkpt>
      <trkpt lat="45.10881" lon="2.60305">
        <ele>1042.8</ele>
        <time>2021-08-11T08:35:06Z</time>
      </trkpt>
      <trkpt lat="45.10881" lon="2.60306">
        <ele>1043</ele>
        <time>2021-08-11T08:35:07Z</time>
      </trkpt>
      <trkpt lat="45.10882" lon="2.60306">
        <ele>1043.2</ele>
        <time>2021-08-11T08:35:08Z</time>
      </trkpt>
      <trkpt lat="45.10883" lon="2.60307">
        <ele>1043.4</ele>
        <time>2021-08-11T08:35:09Z</time>
      </trkpt>
      <trkpt lat="45.10884" lon="2.60308">
        <ele>1043.6</ele>
        <time>2021-08-11T08:35:10Z</time>
      </trkpt>
      <trkpt lat="45.10884" lon="2.60308">
        <ele>1043.7</ele>
        <time>2021-08-11T08:35:11Z</time>
      </trkpt>
      <trkpt lat="45.10884" lon="2.60309">
        <ele>1043.8</ele>
        <time>2021-08-11T08:35:12Z</time>
      </trkpt>
      <trkpt lat="45.10885" lon="2.6031">
        <ele>1044</ele>
        <time>2021-08-11T08:35:13Z</time>
      </trkpt>
      <trkpt lat="45.10885" lon="2.6031">
        <ele>1044.2</ele>
        <time>2021-08-11T08:35:14Z</time>
      </trkpt>
      <trkpt lat="45.10886" lon="2.60311">
        <ele>1044.3</ele>
        <time>2021-08-11T08:35:15Z</time>
      </trkpt>
      <trkpt lat="45.10886" lon="2.60312">
        <ele>1044.6</ele>
        <time>2021-08-11T08:35:16Z</time>
      </trkpt>
      <trkpt lat="45.10887" lon="2.60313">
        <ele>1044.8</ele>
        <time>2021-08-11T08:35:17Z</time>
      </trkpt>
      <trkpt lat="45.10887" lon="2.60314">
        <ele>1044.9</ele>
        <time>2021-08-11T08:35:18Z</time>
      </trkpt>
      <trkpt lat="45.10888" lon="2.60315">
        <ele>1045.2</ele>
        <time>2021-08-11T08:35:19Z</time>
      </trkpt>
      <trkpt lat="45.10889" lon="2.60316">
        <ele>1045.4</ele>
        <time>2021-08-11T08:35:20Z</time>
      </trkpt>
      <trkpt lat="45.1089" lon="2.60317">
        <ele>1045.7</ele>
        <time>2021-08-11T08:35:21Z</time>
      </trkpt>
      <trkpt lat="45.1089" lon="2.60318">
        <ele>1045.9</ele>
        <time>2021-08-11T08:35:22Z</time>
      </trkpt>
      <trkpt lat="45.10891" lon="2.60319">
        <ele>1046.1</ele>
        <time>2021-08-11T08:35:23Z</time>
      </trkpt>
      <trkpt lat="45.10892" lon="2.6032">
        <ele>1046.3</ele>
        <time>2021-08-11T08:35:24Z</time>
      </trkpt>
      <trkpt lat="45.10893" lon="2.60321">
        <ele>1046.5</ele>
        <time>2021-08-11T08:35:25Z</time>
      </trkpt>
      <trkpt lat="45.10894" lon="2.60322">
        <ele>1046.7</ele>
        <time>2021-08-11T08:35:26Z</time>
      </trkpt>
      <trkpt lat="45.10895" lon="2.60323">
        <ele>1046.8</ele>
        <time>2021-08-11T08:35:27Z</time>
      </trkpt>
      <trkpt lat="45.10896" lon="2.60324">
        <ele>1046.9</ele>
        <time>2021-08-11T08:35:28Z</time>
      </trkpt>
      <trkpt lat="45.10897" lon="2.60325">
        <ele>1047.2</ele>
        <time>2021-08-11T08:35:29Z</time>
      </trkpt>
      <trkpt lat="45.10898" lon="2.60326">
        <ele>1047.3</ele>
        <time>2021-08-11T08:35:30Z</time>
      </trkpt>
      <trkpt lat="45.10899" lon="2.60327">
        <ele>1047.5</ele>
        <time>2021-08-11T08:35:31Z</time>
      </trkpt>
      <trkpt lat="45.10899" lon="2.60328">
        <ele>1047.7</ele>
        <time>2021-08-11T08:35:32Z</time>
      </trkpt>
      <trkpt lat="45.109" lon="2.60329">
        <ele>1047.9</ele>
        <time>2021-08-11T08:35:33Z</time>
      </trkpt>
      <trkpt lat="45.10901" lon="2.6033">
        <ele>1048.1</ele>
        <time>2021-08-11T08:35:34Z</time>
      </trkpt>
      <trkpt lat="45.10902" lon="2.60331">
        <ele>1048.2</ele>
        <time>2021-08-11T08:35:35Z</time>
      </trkpt>
      <trkpt lat="45.10903" lon="2.60332">
        <ele>1048.4</ele>
        <time>2021-08-11T08:35:36Z</time>
      </trkpt>
      <trkpt lat="45.10903" lon="2.60333">
        <ele>1048.6</ele>
        <time>2021-08-11T08:35:37Z</time>
      </trkpt>
      <trkpt lat="45.10904" lon="2.60334">
        <ele>1048.8</ele>
        <time>2021-08-11T08:35:38Z</time>
      </trkpt>
      <trkpt lat="45.10904" lon="2.60335">
        <ele>1049</ele>
        <time>2021-08-11T08:35:39Z</time>
      </trkpt>
      <trkpt lat="45.10905" lon="2.60336">
        <ele>1049.2</ele>
        <time>2021-08-11T08:35:40Z</time>
      </trkpt>
      <trkpt lat="45.10906" lon="2.60337">
        <ele>1049.3</ele>
        <time>2021-08-11T08:35:41Z</time>
      </trkpt>
      <trkpt lat="45.10907" lon="2.60338">
        <ele>1049.5</ele>
        <time>2021-08-11T08:35:42Z</time>
      </trkpt>
      <trkpt lat="45.10908" lon="2.60339">
        <ele>1049.6</ele>
        <time>2021-08-11T08:35:43Z</time>
      </trkpt>
      <trkpt lat="45.10909" lon="2.6034">
        <ele>1049.7</ele>
        <time>2021-08-11T08:35:44Z</time>
      </trkpt>
      <trkpt lat="45.10909" lon="2.60341">
        <ele>1049.9</ele>
        <time>2021-08-11T08:35:45Z</time>
      </trkpt>
      <trkpt lat="45.1091" lon="2.60342">
        <ele>1050.2</ele>
        <time>2021-08-11T08:35:46Z</time>
      </trkpt>
      <trkpt lat="45.10911" lon="2.60343">
        <ele>1050.4</ele>
        <time>2021-08-11T08:35:47Z</time>
      </trkpt>
      <trkpt lat="45.10911" lon="2.60344">
        <ele>1050.5</ele>
        <time>2021-08-11T08:35:48Z</time>
      </trkpt>
      <trkpt lat="45.10912" lon="2.60345">
        <ele>1050.6</ele>
        <time>2021-08-11T08:35:49Z</time>
      </trkpt>
      <trkpt lat="45.10913" lon="2.60345">
        <ele>1050.7</ele>
        <time>2021-08-11T08:35:50Z</time>
      </trkpt>
      <trkpt lat="45.10913" lon="2.60346">
        <ele>1050.8</ele>
        <time>2021-08-11T08:35:51Z</time>
      </trkpt>
      <trkpt lat="45.10914" lon="2.60347">
        <ele>1050.9</ele>
        <time>2021-08-11T08:35:52Z</time>
      </trkpt>
      <trkpt lat="45.10915" lon="2.60348">
        <ele>1051.1</ele>
        <time>2021-08-11T08:35:53Z</time>
      </trkpt>
      <trkpt lat="45.10916" lon="2.60349">
        <ele>1051.1</ele>
        <time>2021-08-11T08:35:54Z</time>
      </trkpt>
      <trkpt lat="45.10916" lon="2.60349">
        <ele>1051.3</ele>
        <time>2021-08-11T08:35:55Z</time>
      </trkpt>
      <trkpt lat="45.10917" lon="2.6035">
        <ele>1051.4</ele>
        <time>2021-08-11T08:35:56Z</time>
      </trkpt>
      <trkpt lat="45.10918" lon="2.60351">
        <ele>1051.6</ele>
        <time>2021-08-11T08:35:57Z</time>
      </trkpt>
      <trkpt lat="45.10918" lon="2.60352">
        <ele>1051.7</ele>
        <time>2021-08-11T08:35:58Z</time>
      </trkpt>
      <trkpt lat="45.10919" lon="2.60353">
        <ele>1051.9</ele>
        <time>2021-08-11T08:35:59Z</time>
      </trkpt>
      <trkpt lat="45.1092" lon="2.60354">
        <ele>1052.1</ele>
        <time>2021-08-11T08:36:00Z</time>
      </trkpt>
      <trkpt lat="45.10921" lon="2.60355">
        <ele>1052.2</ele>
        <time>2021-08-11T08:36:01Z</time>
      </trkpt>
      <trkpt lat="45.10921" lon="2.60356">
        <ele>1052.3</ele>
        <time>2021-08-11T08:36:02Z</time>
      </trkpt>
      <trkpt lat="45.10922" lon="2.60357">
        <ele>1052.4</ele>
        <time>2021-08-11T08:36:03Z</time>
      </trkpt>
      <trkpt lat="45.10923" lon="2.60358">
        <ele>1052.6</ele>
        <time>2021-08-11T08:36:04Z</time>
      </trkpt>
      <trkpt lat="45.10924" lon="2.60359">
        <ele>1052.8</ele>
        <time>2021-08-11T08:36:05Z</time>
      </trkpt>
      <trkpt lat="45.10925" lon="2.6036">
        <ele>1053</ele>
        <time>2021-08-11T08:36:06Z</time>
      </trkpt>
      <trkpt lat="45.10925" lon="2.60361">
        <ele>1053.2</ele>
        <time>2021-08-11T08:36:07Z</time>
      </trkpt>
      <trkpt lat="45.10926" lon="2.60362">
        <ele>1053.3</ele>
        <time>2021-08-11T08:36:08Z</time>
      </trkpt>
      <trkpt lat="45.10927" lon="2.60363">
        <ele>1053.5</ele>
        <time>2021-08-11T08:36:09Z</time>
      </trkpt>
      <trkpt lat="45.10927" lon="2.60364">
        <ele>1053.7</ele>
        <time>2021-08-11T08:36:10Z</time>
      </trkpt>
      <trkpt lat="45.10928" lon="2.60365">
        <ele>1053.8</ele>
        <time>2021-08-11T08:36:11Z</time>
      </trkpt>
      <trkpt lat="45.10929" lon="2.60366">
        <ele>1053.9</ele>
        <time>2021-08-11T08:36:12Z</time>
      </trkpt>
      <trkpt lat="45.1093" lon="2.60367">
        <ele>1054</ele>
        <time>2021-08-11T08:36:13Z</time>
      </trkpt>
      <trkpt lat="45.1093" lon="2.60368">
        <ele>1054.2</ele>
        <time>2021-08-11T08:36:14Z</time>
      </trkpt>
      <trkpt lat="45.10931" lon="2.60369">
        <ele>1054.3</ele>
        <time>2021-08-11T08:36:15Z</time>
      </trkpt>
      <trkpt lat="45.10932" lon="2.6037">
        <ele>1054.5</ele>
        <time>2021-08-11T08:36:16Z</time>
      </trkpt>
      <trkpt lat="45.10933" lon="2.60371">
        <ele>1054.7</ele>
        <time>2021-08-11T08:36:17Z</time>
      </trkpt>
      <trkpt lat="45.10933" lon="2.60372">
        <ele>1054.8</ele>
        <time>2021-08-11T08:36:18Z</time>
      </trkpt>
      <trkpt lat="45.10934" lon="2.60373">
        <ele>1055</ele>
        <time>2021-08-11T08:36:19Z</time>
      </trkpt>
      <trkpt lat="45.10935" lon="2.60374">
        <ele>1055.2</ele>
        <time>2021-08-11T08:36:20Z</time>
      </trkpt>
      <trkpt lat="45.10936" lon="2.60375">
        <ele>1055.2</ele>
        <time>2021-08-11T08:36:21Z</time>
      </trkpt>
      <trkpt lat="45.10936" lon="2.60376">
        <ele>1055.3</ele>
        <time>2021-08-11T08:36:22Z</time>
      </trkpt>
      <trkpt lat="45.10937" lon="2.60377">
        <ele>1055.5</ele>
        <time>2021-08-11T08:36:23Z</time>
      </trkpt>
      <trkpt lat="45.10938" lon="2.60378">
        <ele>1055.6</ele>
        <time>2021-08-11T08:36:24Z</time>
      </trkpt>
      <trkpt lat="45.10939" lon="2.60379">
        <ele>1055.7</ele>
        <time>2021-08-11T08:36:25Z</time>
      </trkpt>
      <trkpt lat="45.1094" lon="2.60379">
        <ele>1055.7</ele>
        <time>2021-08-11T08:36:26Z</time>
      </trkpt>
      <trkpt lat="45.1094" lon="2.6038">
        <ele>1055.8</ele>
        <time>2021-08-11T08:36:27Z</time>
      </trkpt>
      <trkpt lat="45.10941" lon="2.60381">
        <ele>1055.9</ele>
        <time>2021-08-11T08:36:28Z</time>
      </trkpt>
      <trkpt lat="45.10942" lon="2.60382">
        <ele>1055.9</ele>
        <time>2021-08-11T08:36:29Z</time>
      </trkpt>
      <trkpt lat="45.10942" lon="2.60382">
        <ele>1056</ele>
        <time>2021-08-11T08:36:30Z</time>
      </trkpt>
      <trkpt lat="45.10943" lon="2.60383">
        <ele>1056.1</ele>
        <time>2021-08-11T08:36:31Z</time>
      </trkpt>
      <trkpt lat="45.10944" lon="2.60384">
        <ele>1056.1</ele>
        <time>2021-08-11T08:36:32Z</time>
      </trkpt>
      <trkpt lat="45.10945" lon="2.60384">
        <ele>1056.1</ele>
        <time>2021-08-11T08:36:33Z</time>
      </trkpt>
      <trkpt lat="45.10946" lon="2.60385">
        <ele>1056.1</ele>
        <time>2021-08-11T08:36:34Z</time>
      </trkpt>
      <trkpt lat="45.10947" lon="2.60386">
        <ele>1056.1</ele>
        <time>2021-08-11T08:36:35Z</time>
      </trkpt>
      <trkpt lat="45.10948" lon="2.60387">
        <ele>1056.2</ele>
        <time>2021-08-11T08:36:36Z</time>
      </trkpt>
      <trkpt lat="45.10949" lon="2.60387">
        <ele>1056.2</ele>
        <time>2021-08-11T08:36:37Z</time>
      </trkpt>
      <trkpt lat="45.1095" lon="2.60388">
        <ele>1056.2</ele>
        <time>2021-08-11T08:36:38Z</time>
      </trkpt>
      <trkpt lat="45.1095" lon="2.60389">
        <ele>1056.3</ele>
        <time>2021-08-11T08:36:39Z</time>
      </trkpt>
      <trkpt lat="45.10951" lon="2.6039">
        <ele>1056.3</ele>
        <time>2021-08-11T08:36:40Z</time>
      </trkpt>
      <trkpt lat="45.10952" lon="2.6039">
        <ele>1056.4</ele>
        <time>2021-08-11T08:36:41Z</time>
      </trkpt>
      <trkpt lat="45.10953" lon="2.60391">
        <ele>1056.4</ele>
        <time>2021-08-11T08:36:42Z</time>
      </trkpt>
      <trkpt lat="45.10953" lon="2.60392">
        <ele>1056.5</ele>
        <time>2021-08-11T08:36:43Z</time>
      </trkpt>
      <trkpt lat="45.10954" lon="2.60393">
        <ele>1056.5</ele>
        <time>2021-08-11T08:36:44Z</time>
      </trkpt>
      <trkpt lat="45.10955" lon="2.60393">
        <ele>1056.5</ele>
        <time>2021-08-11T08:36:45Z</time>
      </trkpt>
      <trkpt lat="45.10956" lon="2.60394">
        <ele>1056.5</ele>
        <time>2021-08-11T08:36:46Z</time>
      </trkpt>
      <trkpt lat="45.10957" lon="2.60395">
        <ele>1056.6</ele>
        <time>2021-08-11T08:36:47Z</time>
      </trkpt>
      <trkpt lat="45.10957" lon="2.60396">
        <ele>1056.7</ele>
        <time>2021-08-11T08:36:48Z</time>
      </trkpt>
      <trkpt lat="45.10958" lon="2.60396">
        <ele>1056.7</ele>
        <time>2021-08-11T08:36:49Z</time>
      </trkpt>
      <trkpt lat="45.10959" lon="2.60397">
        <ele>1056.7</ele>
        <time>2021-08-11T08:36:50Z</time>
      </trkpt>
      <trkpt lat="45.1096" lon="2.60398">
        <ele>1056.8</ele>
        <time>2021-08-11T08:36:51Z</time>
      </trkpt>
      <trkpt lat="45.1096" lon="2.60399">
        <ele>1056.8</ele>
        <time>2021-08-11T08:36:52Z</time>
      </trkpt>
      <trkpt lat="45.10961" lon="2.604">
        <ele>1056.9</ele>
        <time>2021-08-11T08:36:53Z</time>
      </trkpt>
      <trkpt lat="45.10962" lon="2.60401">
        <ele>1056.9</ele>
        <time>2021-08-11T08:36:54Z</time>
      </trkpt>
      <trkpt lat="45.10963" lon="2.60402">
        <ele>1057</ele>
        <time>2021-08-11T08:36:55Z</time>
      </trkpt>
      <trkpt lat="45.10963" lon="2.60402">
        <ele>1057</ele>
        <time>2021-08-11T08:36:56Z</time>
      </trkpt>
      <trkpt lat="45.10964" lon="2.60403">
        <ele>1057.1</ele>
        <time>2021-08-11T08:36:57Z</time>
      </trkpt>
      <trkpt lat="45.10965" lon="2.60404">
        <ele>1057.1</ele>
        <time>2021-08-11T08:36:58Z</time>
      </trkpt>
      <trkpt lat="45.10966" lon="2.60405">
        <ele>1057.2</ele>
        <time>2021-08-11T08:36:59Z</time>
      </trkpt>
      <trkpt lat="45.10967" lon="2.60406">
        <ele>1057.2</ele>
        <time>2021-08-11T08:37:00Z</time>
      </trkpt>
      <trkpt lat="45.10967" lon="2.60407">
        <ele>1057.3</ele>
        <time>2021-08-11T08:37:01Z</time>
      </trkpt>
      <trkpt lat="45.10968" lon="2.60408">
        <ele>1057.3</ele>
        <time>2021-08-11T08:37:02Z</time>
      </trkpt>
      <trkpt lat="45.10969" lon="2.60409">
        <ele>1057.4</ele>
        <time>2021-08-11T08:37:03Z</time>
      </trkpt>
      <trkpt lat="45.1097" lon="2.6041">
        <ele>1057.4</ele>
        <time>2021-08-11T08:37:04Z</time>
      </trkpt>
      <trkpt lat="45.1097" lon="2.60411">
        <ele>1057.5</ele>
        <time>2021-08-11T08:37:05Z</time>
      </trkpt>
      <trkpt lat="45.10971" lon="2.60412">
        <ele>1057.6</ele>
        <time>2021-08-11T08:37:06Z</time>
      </trkpt>
      <trkpt lat="45.10972" lon="2.60413">
        <ele>1057.7</ele>
        <time>2021-08-11T08:37:07Z</time>
      </trkpt>
      <trkpt lat="45.10973" lon="2.60414">
        <ele>1057.8</ele>
        <time>2021-08-11T08:37:08Z</time>
      </trkpt>
      <trkpt lat="45.10973" lon="2.60415">
        <ele>1057.8</ele>
        <time>2021-08-11T08:37:09Z</time>
      </trkpt>
      <trkpt lat="45.10974" lon="2.60416">
        <ele>1057.9</ele>
        <time>2021-08-11T08:37:10Z</time>
      </trkpt>
      <trkpt lat="45.10975" lon="2.60417">
        <ele>1057.8</ele>
        <time>2021-08-11T08:37:11Z</time>
      </trkpt>
      <trkpt lat="45.10976" lon="2.60418">
        <ele>1057.9</ele>
        <time>2021-08-11T08:37:12Z</time>
      </trkpt>
      <trkpt lat="45.10977" lon="2.60419">
        <ele>1058.1</ele>
        <time>2021-08-11T08:37:13Z</time>
      </trkpt>
      <trkpt lat="45.10977" lon="2.6042">
        <ele>1058.3</ele>
        <time>2021-08-11T08:37:14Z</time>
      </trkpt>
      <trkpt lat="45.10977" lon="2.60421">
        <ele>1058.5</ele>
        <time>2021-08-11T08:37:15Z</time>
      </trkpt>
      <trkpt lat="45.10978" lon="2.60422">
        <ele>1058.6</ele>
        <time>2021-08-11T08:37:16Z</time>
      </trkpt>
      <trkpt lat="45.10978" lon="2.60423">
        <ele>1058.8</ele>
        <time>2021-08-11T08:37:17Z</time>
      </trkpt>
      <trkpt lat="45.10979" lon="2.60424">
        <ele>1059</ele>
        <time>2021-08-11T08:37:18Z</time>
      </trkpt>
      <trkpt lat="45.10979" lon="2.60425">
        <ele>1059.1</ele>
        <time>2021-08-11T08:37:19Z</time>
      </trkpt>
      <trkpt lat="45.1098" lon="2.60426">
        <ele>1059.2</ele>
        <time>2021-08-11T08:37:20Z</time>
      </trkpt>
      <trkpt lat="45.1098" lon="2.60427">
        <ele>1059.3</ele>
        <time>2021-08-11T08:37:21Z</time>
      </trkpt>
      <trkpt lat="45.10981" lon="2.60427">
        <ele>1059.4</ele>
        <time>2021-08-11T08:37:22Z</time>
      </trkpt>
      <trkpt lat="45.10981" lon="2.60428">
        <ele>1059.6</ele>
        <time>2021-08-11T08:37:23Z</time>
      </trkpt>
      <trkpt lat="45.10982" lon="2.60429">
        <ele>1059.7</ele>
        <time>2021-08-11T08:37:24Z</time>
      </trkpt>
      <trkpt lat="45.10982" lon="2.6043">
        <ele>1059.8</ele>
        <time>2021-08-11T08:37:25Z</time>
      </trkpt>
      <trkpt lat="45.10983" lon="2.60431">
        <ele>1059.9</ele>
        <time>2021-08-11T08:37:26Z</time>
      </trkpt>
      <trkpt lat="45.10984" lon="2.60432">
        <ele>1060</ele>
        <time>2021-08-11T08:37:27Z</time>
      </trkpt>
      <trkpt lat="45.10984" lon="2.60433">
        <ele>1060.1</ele>
        <time>2021-08-11T08:37:28Z</time>
      </trkpt>
      <trkpt lat="45.10985" lon="2.60434">
        <ele>1060.2</ele>
        <time>2021-08-11T08:37:29Z</time>
      </trkpt>
      <trkpt lat="45.10985" lon="2.60435">
        <ele>1060.3</ele>
        <time>2021-08-11T08:37:30Z</time>
      </trkpt>
      <trkpt lat="45.10986" lon="2.60436">
        <ele>1060.4</ele>
        <time>2021-08-11T08:37:31Z</time>
      </trkpt>
      <trkpt lat="45.10987" lon="2.60436">
        <ele>1060.5</ele>
        <time>2021-08-11T08:37:32Z</time>
      </trkpt>
      <trkpt lat="45.10987" lon="2.60437">
        <ele>1060.5</ele>
        <time>2021-08-11T08:37:33Z</time>
      </trkpt>
      <trkpt lat="45.10988" lon="2.60438">
        <ele>1060.5</ele>
        <time>2021-08-11T08:37:34Z</time>
      </trkpt>
      <trkpt lat="45.10989" lon="2.60439">
        <ele>1060.6</ele>
        <time>2021-08-11T08:37:35Z</time>
      </trkpt>
      <trkpt lat="45.1099" lon="2.6044">
        <ele>1060.6</ele>
        <time>2021-08-11T08:37:36Z</time>
      </trkpt>
      <trkpt lat="45.1099" lon="2.60441">
        <ele>1060.7</ele>
        <time>2021-08-11T08:37:37Z</time>
      </trkpt>
      <trkpt lat="45.10991" lon="2.60442">
        <ele>1060.8</ele>
        <time>2021-08-11T08:37:38Z</time>
      </trkpt>
      <trkpt lat="45.10992" lon="2.60442">
        <ele>1060.8</ele>
        <time>2021-08-11T08:37:39Z</time>
      </trkpt>
      <trkpt lat="45.10993" lon="2.60443">
        <ele>1060.8</ele>
        <time>2021-08-11T08:37:40Z</time>
      </trkpt>
      <trkpt lat="45.10993" lon="2.60444">
        <ele>1060.9</ele>
        <time>2021-08-11T08:37:41Z</time>
      </trkpt>
      <trkpt lat="45.10994" lon="2.60446">
        <ele>1061.1</ele>
        <time>2021-08-11T08:37:42Z</time>
      </trkpt>
      <trkpt lat="45.10994" lon="2.60447">
        <ele>1061.3</ele>
        <time>2021-08-11T08:37:43Z</time>
      </trkpt>
      <trkpt lat="45.10994" lon="2.60448">
        <ele>1061.5</ele>
        <time>2021-08-11T08:37:44Z</time>
      </trkpt>
      <trkpt lat="45.10995" lon="2.60449">
        <ele>1061.6</ele>
        <time>2021-08-11T08:37:45Z</time>
      </trkpt>
      <trkpt lat="45.10995" lon="2.6045">
        <ele>1061.9</ele>
        <time>2021-08-11T08:37:46Z</time>
      </trkpt>
      <trkpt lat="45.10995" lon="2.60452">
        <ele>1062.1</ele>
        <time>2021-08-11T08:37:47Z</time>
      </trkpt>
      <trkpt lat="45.10996" lon="2.60453">
        <ele>1062.3</ele>
        <time>2021-08-11T08:37:48Z</time>
      </trkpt>
      <trkpt lat="45.10996" lon="2.60454">
        <ele>1062.5</ele>
        <time>2021-08-11T08:37:49Z</time>
      </trkpt>
      <trkpt lat="45.10996" lon="2.60455">
        <ele>1062.7</ele>
        <time>2021-08-11T08:37:50Z</time>
      </trkpt>
      <trkpt lat="45.10997" lon="2.60456">
        <ele>1062.8</ele>
        <time>2021-08-11T08:37:51Z</time>
      </trkpt>
      <trkpt lat="45.10997" lon="2.60457">
        <ele>1062.9</ele>
        <time>2021-08-11T08:37:52Z</time>
      </trkpt>
      <trkpt lat="45.10998" lon="2.60458">
        <ele>1063</ele>
        <time>2021-08-11T08:37:53Z</time>
      </trkpt>
      <trkpt lat="45.10999" lon="2.60459">
        <ele>1063.1</ele>
        <time>2021-08-11T08:37:54Z</time>
      </trkpt>
      <trkpt lat="45.10999" lon="2.60461">
        <ele>1063.2</ele>
        <time>2021-08-11T08:37:55Z</time>
      </trkpt>
      <trkpt lat="45.11" lon="2.60462">
        <ele>1063.3</ele>
        <time>2021-08-11T08:37:56Z</time>
      </trkpt>
      <trkpt lat="45.11001" lon="2.60463">
        <ele>1063.5</ele>
        <time>2021-08-11T08:37:57Z</time>
      </trkpt>
      <trkpt lat="45.11001" lon="2.60464">
        <ele>1063.7</ele>
        <time>2021-08-11T08:37:58Z</time>
      </trkpt>
      <trkpt lat="45.11002" lon="2.60465">
        <ele>1063.9</ele>
        <time>2021-08-11T08:37:59Z</time>
      </trkpt>
      <trkpt lat="45.11002" lon="2.60466">
        <ele>1064</ele>
        <time>2021-08-11T08:38:00Z</time>
      </trkpt>
      <trkpt lat="45.11003" lon="2.60467">
        <ele>1064.2</ele>
        <time>2021-08-11T08:38:01Z</time>
      </trkpt>
      <trkpt lat="45.11003" lon="2.60468">
        <ele>1064.4</ele>
        <time>2021-08-11T08:38:02Z</time>
      </trkpt>
      <trkpt lat="45.11004" lon="2.60469">
        <ele>1064.6</ele>
        <time>2021-08-11T08:38:03Z</time>
      </trkpt>
      <trkpt lat="45.11004" lon="2.6047">
        <ele>1064.8</ele>
        <time>2021-08-11T08:38:04Z</time>
      </trkpt>
      <trkpt lat="45.11005" lon="2.60471">
        <ele>1065</ele>
        <time>2021-08-11T08:38:05Z</time>
      </trkpt>
      <trkpt lat="45.11006" lon="2.60472">
        <ele>1065.2</ele>
        <time>2021-08-11T08:38:06Z</time>
      </trkpt>
      <trkpt lat="45.11006" lon="2.60474">
        <ele>1065.4</ele>
        <time>2021-08-11T08:38:07Z</time>
      </trkpt>
      <trkpt lat="45.11007" lon="2.60475">
        <ele>1065.6</ele>
        <time>2021-08-11T08:38:08Z</time>
      </trkpt>
      <trkpt lat="45.11008" lon="2.60476">
        <ele>1065.8</ele>
        <time>2021-08-11T08:38:09Z</time>
      </trkpt>
      <trkpt lat="45.11008" lon="2.60477">
        <ele>1066</ele>
        <time>2021-08-11T08:38:10Z</time>
      </trkpt>
      <trkpt lat="45.11009" lon="2.60478">
        <ele>1066.1</ele>
        <time>2021-08-11T08:38:11Z</time>
      </trkpt>
      <trkpt lat="45.1101" lon="2.60479">
        <ele>1066.4</ele>
        <time>2021-08-11T08:38:12Z</time>
      </trkpt>
      <trkpt lat="45.1101" lon="2.60481">
        <ele>1066.6</ele>
        <time>2021-08-11T08:38:13Z</time>
      </trkpt>
      <trkpt lat="45.11011" lon="2.60482">
        <ele>1066.8</ele>
        <time>2021-08-11T08:38:14Z</time>
      </trkpt>
      <trkpt lat="45.11012" lon="2.60483">
        <ele>1067</ele>
        <time>2021-08-11T08:38:15Z</time>
      </trkpt>
      <trkpt lat="45.11012" lon="2.60485">
        <ele>1067.2</ele>
        <time>2021-08-11T08:38:16Z</time>
      </trkpt>
      <trkpt lat="45.11013" lon="2.60486">
        <ele>1067.4</ele>
        <time>2021-08-11T08:38:17Z</time>
      </trkpt>
      <trkpt lat="45.11014" lon="2.60487">
        <ele>1067.6</ele>
        <time>2021-08-11T08:38:18Z</time>
      </trkpt>
      <trkpt lat="45.11015" lon="2.60489">
        <ele>1067.8</ele>
        <time>2021-08-11T08:38:19Z</time>
      </trkpt>
      <trkpt lat="45.11015" lon="2.6049">
        <ele>1068</ele>
        <time>2021-08-11T08:38:20Z</time>
      </trkpt>
      <trkpt lat="45.11016" lon="2.60491">
        <ele>1068.2</ele>
        <time>2021-08-11T08:38:21Z</time>
      </trkpt>
      <trkpt lat="45.11017" lon="2.60492">
        <ele>1068.4</ele>
        <time>2021-08-11T08:38:22Z</time>
      </trkpt>
      <trkpt lat="45.11018" lon="2.60494">
        <ele>1068.5</ele>
        <time>2021-08-11T08:38:23Z</time>
      </trkpt>
      <trkpt lat="45.11018" lon="2.60495">
        <ele>1068.8</ele>
        <time>2021-08-11T08:38:24Z</time>
      </trkpt>
      <trkpt lat="45.11019" lon="2.60496">
        <ele>1068.9</ele>
        <time>2021-08-11T08:38:25Z</time>
      </trkpt>
      <trkpt lat="45.1102" lon="2.60498">
        <ele>1069.1</ele>
        <time>2021-08-11T08:38:26Z</time>
      </trkpt>
      <trkpt lat="45.11021" lon="2.60499">
        <ele>1069.3</ele>
        <time>2021-08-11T08:38:27Z</time>
      </trkpt>
      <trkpt lat="45.11021" lon="2.605">
        <ele>1069.4</ele>
        <time>2021-08-11T08:38:28Z</time>
      </trkpt>
      <trkpt lat="45.11021" lon="2.605">
        <ele>1069.4</ele>
        <time>2021-08-11T08:38:29Z</time>
      </trkpt>
      <trkpt lat="45.11022" lon="2.605">
        <ele>1069.4</ele>
        <time>2021-08-11T08:38:30Z</time>
      </trkpt>
      <trkpt lat="45.11022" lon="2.605">
        <ele>1069.4</ele>
        <time>2021-08-11T08:38:31Z</time>
      </trkpt>
      <trkpt lat="45.11022" lon="2.60501">
        <ele>1069.5</ele>
        <time>2021-08-11T08:38:32Z</time>
      </trkpt>
      <trkpt lat="45.11022" lon="2.60501">
        <ele>1069.6</ele>
        <time>2021-08-11T08:38:33Z</time>
      </trkpt>
      <trkpt lat="45.11023" lon="2.60502">
        <ele>1069.7</ele>
        <time>2021-08-11T08:38:34Z</time>
      </trkpt>
      <trkpt lat="45.11024" lon="2.60503">
        <ele>1069.8</ele>
        <time>2021-08-11T08:38:35Z</time>
      </trkpt>
      <trkpt lat="45.11025" lon="2.60504">
        <ele>1069.9</ele>
        <time>2021-08-11T08:38:36Z</time>
      </trkpt>
      <trkpt lat="45.11025" lon="2.60505">
        <ele>1070</ele>
        <time>2021-08-11T08:38:37Z</time>
      </trkpt>
      <trkpt lat="45.11026" lon="2.60506">
        <ele>1070.2</ele>
        <time>2021-08-11T08:38:38Z</time>
      </trkpt>
      <trkpt lat="45.11027" lon="2.60506">
        <ele>1070.3</ele>
        <time>2021-08-11T08:38:39Z</time>
      </trkpt>
      <trkpt lat="45.11028" lon="2.60507">
        <ele>1070.4</ele>
        <time>2021-08-11T08:38:40Z</time>
      </trkpt>
      <trkpt lat="45.11029" lon="2.60508">
        <ele>1070.5</ele>
        <time>2021-08-11T08:38:41Z</time>
      </trkpt>
      <trkpt lat="45.1103" lon="2.60509">
        <ele>1070.5</ele>
        <time>2021-08-11T08:38:42Z</time>
      </trkpt>
      <trkpt lat="45.11031" lon="2.6051">
        <ele>1070.6</ele>
        <time>2021-08-11T08:38:43Z</time>
      </trkpt>
      <trkpt lat="45.11032" lon="2.60511">
        <ele>1070.8</ele>
        <time>2021-08-11T08:38:44Z</time>
      </trkpt>
      <trkpt lat="45.11033" lon="2.60512">
        <ele>1070.9</ele>
        <time>2021-08-11T08:38:45Z</time>
      </trkpt>
      <trkpt lat="45.11034" lon="2.60513">
        <ele>1071</ele>
        <time>2021-08-11T08:38:46Z</time>
      </trkpt>
      <trkpt lat="45.11034" lon="2.60514">
        <ele>1071.2</ele>
        <time>2021-08-11T08:38:47Z</time>
      </trkpt>
      <trkpt lat="45.11035" lon="2.60516">
        <ele>1071.3</ele>
        <time>2021-08-11T08:38:48Z</time>
      </trkpt>
      <trkpt lat="45.11035" lon="2.60517">
        <ele>1071.5</ele>
        <time>2021-08-11T08:38:49Z</time>
      </trkpt>
      <trkpt lat="45.11036" lon="2.60518">
        <ele>1071.6</ele>
        <time>2021-08-11T08:38:50Z</time>
      </trkpt>
      <trkpt lat="45.11037" lon="2.60519">
        <ele>1071.7</ele>
        <time>2021-08-11T08:38:51Z</time>
      </trkpt>
      <trkpt lat="45.11038" lon="2.6052">
        <ele>1071.9</ele>
        <time>2021-08-11T08:38:52Z</time>
      </trkpt>
      <trkpt lat="45.11038" lon="2.60521">
        <ele>1072</ele>
        <time>2021-08-11T08:38:53Z</time>
      </trkpt>
      <trkpt lat="45.11039" lon="2.60522">
        <ele>1072.1</ele>
        <time>2021-08-11T08:38:54Z</time>
      </trkpt>
      <trkpt lat="45.1104" lon="2.60523">
        <ele>1072.2</ele>
        <time>2021-08-11T08:38:55Z</time>
      </trkpt>
      <trkpt lat="45.11041" lon="2.60524">
        <ele>1072.3</ele>
        <time>2021-08-11T08:38:56Z</time>
      </trkpt>
      <trkpt lat="45.11042" lon="2.60525">
        <ele>1072.5</ele>
        <time>2021-08-11T08:38:57Z</time>
      </trkpt>
      <trkpt lat="45.11043" lon="2.60526">
        <ele>1072.5</ele>
        <time>2021-08-11T08:38:58Z</time>
      </trkpt>
      <trkpt lat="45.11044" lon="2.60527">
        <ele>1072.6</ele>
        <time>2021-08-11T08:38:59Z</time>
      </trkpt>
      <trkpt lat="45.11045" lon="2.60529">
        <ele>1072.6</ele>
        <time>2021-08-11T08:39:00Z</time>
      </trkpt>
      <trkpt lat="45.11046" lon="2.60529">
        <ele>1072.7</ele>
        <time>2021-08-11T08:39:01Z</time>
      </trkpt>
      <trkpt lat="45.11047" lon="2.60531">
        <ele>1072.7</ele>
        <time>2021-08-11T08:39:02Z</time>
      </trkpt>
      <trkpt lat="45.11048" lon="2.60532">
        <ele>1072.8</ele>
        <time>2021-08-11T08:39:03Z</time>
      </trkpt>
      <trkpt lat="45.11049" lon="2.60533">
        <ele>1072.9</ele>
        <time>2021-08-11T08:39:04Z</time>
      </trkpt>
      <trkpt lat="45.1105" lon="2.60534">
        <ele>1073</ele>
        <time>2021-08-11T08:39:05Z</time>
      </trkpt>
      <trkpt lat="45.1105" lon="2.60535">
        <ele>1073.2</ele>
        <time>2021-08-11T08:39:06Z</time>
      </trkpt>
      <trkpt lat="45.11051" lon="2.60537">
        <ele>1073.3</ele>
        <time>2021-08-11T08:39:07Z</time>
      </trkpt>
      <trkpt lat="45.11052" lon="2.60538">
        <ele>1073.3</ele>
        <time>2021-08-11T08:39:08Z</time>
      </trkpt>
      <trkpt lat="45.11053" lon="2.60539">
        <ele>1073.5</ele>
        <time>2021-08-11T08:39:09Z</time>
      </trkpt>
      <trkpt lat="45.11054" lon="2.60541">
        <ele>1073.6</ele>
        <time>2021-08-11T08:39:10Z</time>
      </trkpt>
      <trkpt lat="45.11055" lon="2.60542">
        <ele>1073.8</ele>
        <time>2021-08-11T08:39:11Z</time>
      </trkpt>
      <trkpt lat="45.11055" lon="2.60544">
        <ele>1074</ele>
        <time>2021-08-11T08:39:12Z</time>
      </trkpt>
      <trkpt lat="45.11056" lon="2.60545">
        <ele>1074.1</ele>
        <time>2021-08-11T08:39:13Z</time>
      </trkpt>
      <trkpt lat="45.11056" lon="2.60546">
        <ele>1074.2</ele>
        <time>2021-08-11T08:39:14Z</time>
      </trkpt>
      <trkpt lat="45.11057" lon="2.60548">
        <ele>1074.4</ele>
        <time>2021-08-11T08:39:15Z</time>
      </trkpt>
      <trkpt lat="45.11057" lon="2.60549">
        <ele>1074.6</ele>
        <time>2021-08-11T08:39:16Z</time>
      </trkpt>
      <trkpt lat="45.11058" lon="2.6055">
        <ele>1074.7</ele>
        <time>2021-08-11T08:39:17Z</time>
      </trkpt>
      <trkpt lat="45.11059" lon="2.60552">
        <ele>1074.9</ele>
        <time>2021-08-11T08:39:18Z</time>
      </trkpt>
      <trkpt lat="45.11059" lon="2.60553">
        <ele>1075</ele>
        <time>2021-08-11T08:39:19Z</time>
      </trkpt>
      <trkpt lat="45.1106" lon="2.60554">
        <ele>1075.2</ele>
        <time>2021-08-11T08:39:20Z</time>
      </trkpt>
      <trkpt lat="45.1106" lon="2.60556">
        <ele>1075.3</ele>
        <time>2021-08-11T08:39:21Z</time>
      </trkpt>
      <trkpt lat="45.11061" lon="2.60557">
        <ele>1075.5</ele>
        <time>2021-08-11T08:39:22Z</time>
      </trkpt>
      <trkpt lat="45.11061" lon="2.60558">
        <ele>1075.6</ele>
        <time>2021-08-11T08:39:23Z</time>
      </trkpt>
      <trkpt lat="45.11062" lon="2.6056">
        <ele>1075.8</ele>
        <time>2021-08-11T08:39:24Z</time>
      </trkpt>
      <trkpt lat="45.11062" lon="2.60561">
        <ele>1076</ele>
        <time>2021-08-11T08:39:25Z</time>
      </trkpt>
      <trkpt lat="45.11062" lon="2.60563">
        <ele>1076.2</ele>
        <time>2021-08-11T08:39:26Z</time>
      </trkpt>
      <trkpt lat="45.11063" lon="2.60564">
        <ele>1076.4</ele>
        <time>2021-08-11T08:39:27Z</time>
      </trkpt>
      <trkpt lat="45.11063" lon="2.60565">
        <ele>1076.6</ele>
        <time>2021-08-11T08:39:28Z</time>
      </trkpt>
      <trkpt lat="45.11063" lon="2.60567">
        <ele>1076.8</ele>
        <time>2021-08-11T08:39:29Z</time>
      </trkpt>
      <trkpt lat="45.11063" lon="2.60568">
        <ele>1076.9</ele>
        <time>2021-08-11T08:39:30Z</time>
      </trkpt>
      <trkpt lat="45.11064" lon="2.60569">
        <ele>1077</ele>
        <time>2021-08-11T08:39:31Z</time>
      </trkpt>
      <trkpt lat="45.11064" lon="2.6057">
        <ele>1077.2</ele>
        <time>2021-08-11T08:39:32Z</time>
      </trkpt>
      <trkpt lat="45.11064" lon="2.60571">
        <ele>1077.2</ele>
        <time>2021-08-11T08:39:33Z</time>
      </trkpt>
      <trkpt lat="45.11064" lon="2.60571">
        <ele>1077.4</ele>
        <time>2021-08-11T08:39:34Z</time>
      </trkpt>
      <trkpt lat="45.11064" lon="2.60572">
        <ele>1077.6</ele>
        <time>2021-08-11T08:39:35Z</time>
      </trkpt>
      <trkpt lat="45.11064" lon="2.60573">
        <ele>1077.8</ele>
        <time>2021-08-11T08:39:36Z</time>
      </trkpt>
      <trkpt lat="45.11064" lon="2.60574">
        <ele>1077.8</ele>
        <time>2021-08-11T08:39:37Z</time>
      </trkpt>
      <trkpt lat="45.11065" lon="2.60574">
        <ele>1077.8</ele>
        <time>2021-08-11T08:39:38Z</time>
      </trkpt>
      <trkpt lat="45.11066" lon="2.60575">
        <ele>1077.7</ele>
        <time>2021-08-11T08:39:39Z</time>
      </trkpt>
      <trkpt lat="45.11066" lon="2.60576">
        <ele>1077.7</ele>
        <time>2021-08-11T08:39:40Z</time>
      </trkpt>
      <trkpt lat="45.11067" lon="2.60576">
        <ele>1077.6</ele>
        <time>2021-08-11T08:39:41Z</time>
      </trkpt>
      <trkpt lat="45.11068" lon="2.60577">
        <ele>1077.7</ele>
        <time>2021-08-11T08:39:42Z</time>
      </trkpt>
      <trkpt lat="45.11068" lon="2.60578">
        <ele>1077.8</ele>
        <time>2021-08-11T08:39:43Z</time>
      </trkpt>
      <trkpt lat="45.11068" lon="2.60579">
        <ele>1077.9</ele>
        <time>2021-08-11T08:39:44Z</time>
      </trkpt>
      <trkpt lat="45.11069" lon="2.60581">
        <ele>1078</ele>
        <time>2021-08-11T08:39:45Z</time>
      </trkpt>
      <trkpt lat="45.11069" lon="2.60581">
        <ele>1078.1</ele>
        <time>2021-08-11T08:39:46Z</time>
      </trkpt>
      <trkpt lat="45.11069" lon="2.60582">
        <ele>1078.1</ele>
        <time>2021-08-11T08:39:47Z</time>
      </trkpt>
      <trkpt lat="45.11069" lon="2.60582">
        <ele>1078.1</ele>
        <time>2021-08-11T08:39:48Z</time>
      </trkpt>
      <trkpt lat="45.1107" lon="2.60582">
        <ele>1078.1</ele>
        <time>2021-08-11T08:39:49Z</time>
      </trkpt>
      <trkpt lat="45.1107" lon="2.60582">
        <ele>1078.1</ele>
        <time>2021-08-11T08:39:50Z</time>
      </trkpt>
      <trkpt lat="45.1107" lon="2.60583">
        <ele>1078.1</ele>
        <time>2021-08-11T08:39:51Z</time>
      </trkpt>
      <trkpt lat="45.1107" lon="2.60584">
        <ele>1078.2</ele>
        <time>2021-08-11T08:39:52Z</time>
      </trkpt>
      <trkpt lat="45.11071" lon="2.60585">
        <ele>1078.3</ele>
        <time>2021-08-11T08:39:53Z</time>
      </trkpt>
      <trkpt lat="45.11071" lon="2.60586">
        <ele>1078.3</ele>
        <time>2021-08-11T08:39:54Z</time>
      </trkpt>
      <trkpt lat="45.11071" lon="2.60587">
        <ele>1078.4</ele>
        <time>2021-08-11T08:39:55Z</time>
      </trkpt>
      <trkpt lat="45.11071" lon="2.60588">
        <ele>1078.6</ele>
        <time>2021-08-11T08:39:56Z</time>
      </trkpt>
      <trkpt lat="45.11072" lon="2.6059">
        <ele>1078.8</ele>
        <time>2021-08-11T08:39:57Z</time>
      </trkpt>
      <trkpt lat="45.11072" lon="2.60591">
        <ele>1079</ele>
        <time>2021-08-11T08:39:58Z</time>
      </trkpt>
      <trkpt lat="45.11072" lon="2.60592">
        <ele>1079.1</ele>
        <time>2021-08-11T08:39:59Z</time>
      </trkpt>
      <trkpt lat="45.11072" lon="2.60593">
        <ele>1079.2</ele>
        <time>2021-08-11T08:40:00Z</time>
      </trkpt>
      <trkpt lat="45.11073" lon="2.60595">
        <ele>1079.3</ele>
        <time>2021-08-11T08:40:01Z</time>
      </trkpt>
      <trkpt lat="45.11073" lon="2.60596">
        <ele>1079.4</ele>
        <time>2021-08-11T08:40:02Z</time>
      </trkpt>
      <trkpt lat="45.11073" lon="2.60598">
        <ele>1079.6</ele>
        <time>2021-08-11T08:40:03Z</time>
      </trkpt>
      <trkpt lat="45.11074" lon="2.60599">
        <ele>1079.6</ele>
        <time>2021-08-11T08:40:04Z</time>
      </trkpt>
      <trkpt lat="45.11074" lon="2.606">
        <ele>1079.7</ele>
        <time>2021-08-11T08:40:05Z</time>
      </trkpt>
      <trkpt lat="45.11075" lon="2.60602">
        <ele>1079.8</ele>
        <time>2021-08-11T08:40:06Z</time>
      </trkpt>
      <trkpt lat="45.11075" lon="2.60603">
        <ele>1079.9</ele>
        <time>2021-08-11T08:40:07Z</time>
      </trkpt>
      <trkpt lat="45.11076" lon="2.60604">
        <ele>1079.9</ele>
        <time>2021-08-11T08:40:08Z</time>
      </trkpt>
      <trkpt lat="45.11076" lon="2.60605">
        <ele>1079.9</ele>
        <time>2021-08-11T08:40:09Z</time>
      </trkpt>
      <trkpt lat="45.11077" lon="2.60607">
        <ele>1080</ele>
        <time>2021-08-11T08:40:10Z</time>
      </trkpt>
      <trkpt lat="45.11077" lon="2.60608">
        <ele>1080.1</ele>
        <time>2021-08-11T08:40:11Z</time>
      </trkpt>
      <trkpt lat="45.11078" lon="2.60609">
        <ele>1080.1</ele>
        <time>2021-08-11T08:40:12Z</time>
      </trkpt>
      <trkpt lat="45.11078" lon="2.60611">
        <ele>1080.2</ele>
        <time>2021-08-11T08:40:13Z</time>
      </trkpt>
      <trkpt lat="45.11079" lon="2.60612">
        <ele>1080.2</ele>
        <time>2021-08-11T08:40:14Z</time>
      </trkpt>
      <trkpt lat="45.11079" lon="2.60613">
        <ele>1080.4</ele>
        <time>2021-08-11T08:40:15Z</time>
      </trkpt>
      <trkpt lat="45.11079" lon="2.60615">
        <ele>1080.5</ele>
        <time>2021-08-11T08:40:16Z</time>
      </trkpt>
      <trkpt lat="45.11079" lon="2.60616">
        <ele>1080.6</ele>
        <time>2021-08-11T08:40:17Z</time>
      </trkpt>
      <trkpt lat="45.1108" lon="2.60617">
        <ele>1080.7</ele>
        <time>2021-08-11T08:40:18Z</time>
      </trkpt>
      <trkpt lat="45.1108" lon="2.60619">
        <ele>1080.8</ele>
        <time>2021-08-11T08:40:19Z</time>
      </trkpt>
      <trkpt lat="45.1108" lon="2.6062">
        <ele>1080.9</ele>
        <time>2021-08-11T08:40:20Z</time>
      </trkpt>
      <trkpt lat="45.1108" lon="2.60621">
        <ele>1081</ele>
        <time>2021-08-11T08:40:21Z</time>
      </trkpt>
      <trkpt lat="45.1108" lon="2.60622">
        <ele>1081.2</ele>
        <time>2021-08-11T08:40:22Z</time>
      </trkpt>
      <trkpt lat="45.11081" lon="2.60623">
        <ele>1081.2</ele>
        <time>2021-08-11T08:40:23Z</time>
      </trkpt>
      <trkpt lat="45.11081" lon="2.60625">
        <ele>1081.3</ele>
        <time>2021-08-11T08:40:24Z</time>
      </trkpt>
      <trkpt lat="45.11081" lon="2.60626">
        <ele>1081.5</ele>
        <time>2021-08-11T08:40:25Z</time>
      </trkpt>
      <trkpt lat="45.11081" lon="2.60627">
        <ele>1081.7</ele>
        <time>2021-08-11T08:40:26Z</time>
      </trkpt>
      <trkpt lat="45.11081" lon="2.60628">
        <ele>1081.8</ele>
        <time>2021-08-11T08:40:27Z</time>
      </trkpt>
      <trkpt lat="45.11081" lon="2.60629">
        <ele>1081.9</ele>
        <time>2021-08-11T08:40:28Z</time>
      </trkpt>
      <trkpt lat="45.11081" lon="2.6063">
        <ele>1081.9</ele>
        <time>2021-08-11T08:40:29Z</time>
      </trkpt>
      <trkpt lat="45.11082" lon="2.60632">
        <ele>1081.9</ele>
        <time>2021-08-11T08:40:30Z</time>
      </trkpt>
      <trkpt lat="45.11082" lon="2.60633">
        <ele>1082</ele>
        <time>2021-08-11T08:40:31Z</time>
      </trkpt>
      <trkpt lat="45.11082" lon="2.60634">
        <ele>1082.1</ele>
        <time>2021-08-11T08:40:32Z</time>
      </trkpt>
      <trkpt lat="45.11083" lon="2.60636">
        <ele>1082.1</ele>
        <time>2021-08-11T08:40:33Z</time>
      </trkpt>
      <trkpt lat="45.11083" lon="2.60637">
        <ele>1082.3</ele>
        <time>2021-08-11T08:40:34Z</time>
      </trkpt>
      <trkpt lat="45.11083" lon="2.60638">
        <ele>1082.4</ele>
        <time>2021-08-11T08:40:35Z</time>
      </trkpt>
      <trkpt lat="45.11083" lon="2.6064">
        <ele>1082.5</ele>
        <time>2021-08-11T08:40:36Z</time>
      </trkpt>
      <trkpt lat="45.11083" lon="2.60641">
        <ele>1082.6</ele>
        <time>2021-08-11T08:40:37Z</time>
      </trkpt>
      <trkpt lat="45.11084" lon="2.60642">
        <ele>1082.7</ele>
        <time>2021-08-11T08:40:38Z</time>
      </trkpt>
      <trkpt lat="45.11084" lon="2.60644">
        <ele>1082.8</ele>
        <time>2021-08-11T08:40:39Z</time>
      </trkpt>
      <trkpt lat="45.11084" lon="2.60645">
        <ele>1083</ele>
        <time>2021-08-11T08:40:40Z</time>
      </trkpt>
      <trkpt lat="45.11084" lon="2.60646">
        <ele>1083.1</ele>
        <time>2021-08-11T08:40:41Z</time>
      </trkpt>
      <trkpt lat="45.11085" lon="2.60647">
        <ele>1083.3</ele>
        <time>2021-08-11T08:40:42Z</time>
      </trkpt>
      <trkpt lat="45.11085" lon="2.60649">
        <ele>1083.4</ele>
        <time>2021-08-11T08:40:43Z</time>
      </trkpt>
      <trkpt lat="45.11085" lon="2.6065">
        <ele>1083.5</ele>
        <time>2021-08-11T08:40:44Z</time>
      </trkpt>
      <trkpt lat="45.11085" lon="2.60651">
        <ele>1083.6</ele>
        <time>2021-08-11T08:40:45Z</time>
      </trkpt>
      <trkpt lat="45.11086" lon="2.60652">
        <ele>1083.7</ele>
        <time>2021-08-11T08:40:46Z</time>
      </trkpt>
      <trkpt lat="45.11086" lon="2.60654">
        <ele>1083.8</ele>
        <time>2021-08-11T08:40:47Z</time>
      </trkpt>
      <trkpt lat="45.11086" lon="2.60655">
        <ele>1084</ele>
        <time>2021-08-11T08:40:48Z</time>
      </trkpt>
      <trkpt lat="45.11087" lon="2.60656">
        <ele>1084.1</ele>
        <time>2021-08-11T08:40:49Z</time>
      </trkpt>
      <trkpt lat="45.11087" lon="2.60657">
        <ele>1084.2</ele>
        <time>2021-08-11T08:40:50Z</time>
      </trkpt>
      <trkpt lat="45.11087" lon="2.60659">
        <ele>1084.3</ele>
        <time>2021-08-11T08:40:51Z</time>
      </trkpt>
      <trkpt lat="45.11087" lon="2.6066">
        <ele>1084.4</ele>
        <time>2021-08-11T08:40:52Z</time>
      </trkpt>
      <trkpt lat="45.11088" lon="2.60661">
        <ele>1084.6</ele>
        <time>2021-08-11T08:40:53Z</time>
      </trkpt>
      <trkpt lat="45.11088" lon="2.60662">
        <ele>1084.7</ele>
        <time>2021-08-11T08:40:54Z</time>
      </trkpt>
      <trkpt lat="45.11088" lon="2.60664">
        <ele>1084.7</ele>
        <time>2021-08-11T08:40:55Z</time>
      </trkpt>
      <trkpt lat="45.11089" lon="2.60665">
        <ele>1084.8</ele>
        <time>2021-08-11T08:40:56Z</time>
      </trkpt>
      <trkpt lat="45.1109" lon="2.60666">
        <ele>1084.8</ele>
        <time>2021-08-11T08:40:57Z</time>
      </trkpt>
      <trkpt lat="45.1109" lon="2.60667">
        <ele>1084.9</ele>
        <time>2021-08-11T08:40:58Z</time>
      </trkpt>
      <trkpt lat="45.1109" lon="2.60668">
        <ele>1085.2</ele>
        <time>2021-08-11T08:40:59Z</time>
      </trkpt>
      <trkpt lat="45.1109" lon="2.60669">
        <ele>1085.3</ele>
        <time>2021-08-11T08:41:00Z</time>
      </trkpt>
      <trkpt lat="45.1109" lon="2.60671">
        <ele>1085.5</ele>
        <time>2021-08-11T08:41:01Z</time>
      </trkpt>
      <trkpt lat="45.11091" lon="2.60672">
        <ele>1085.6</ele>
        <time>2021-08-11T08:41:02Z</time>
      </trkpt>
      <trkpt lat="45.11091" lon="2.60673">
        <ele>1085.8</ele>
        <time>2021-08-11T08:41:03Z</time>
      </trkpt>
      <trkpt lat="45.11091" lon="2.60674">
        <ele>1085.9</ele>
        <time>2021-08-11T08:41:04Z</time>
      </trkpt>
      <trkpt lat="45.11091" lon="2.60676">
        <ele>1086.1</ele>
        <time>2021-08-11T08:41:05Z</time>
      </trkpt>
      <trkpt lat="45.11091" lon="2.60677">
        <ele>1086.3</ele>
        <time>2021-08-11T08:41:06Z</time>
      </trkpt>
      <trkpt lat="45.11091" lon="2.60678">
        <ele>1086.5</ele>
        <time>2021-08-11T08:41:07Z</time>
      </trkpt>
      <trkpt lat="45.11091" lon="2.60679">
        <ele>1086.7</ele>
        <time>2021-08-11T08:41:08Z</time>
      </trkpt>
      <trkpt lat="45.11092" lon="2.60681">
        <ele>1086.8</ele>
        <time>2021-08-11T08:41:09Z</time>
      </trkpt>
      <trkpt lat="45.11092" lon="2.60682">
        <ele>1086.9</ele>
        <time>2021-08-11T08:41:10Z</time>
      </trkpt>
      <trkpt lat="45.11092" lon="2.60683">
        <ele>1087.1</ele>
        <time>2021-08-11T08:41:11Z</time>
      </trkpt>
      <trkpt lat="45.11093" lon="2.60684">
        <ele>1087.3</ele>
        <time>2021-08-11T08:41:12Z</time>
      </trkpt>
      <trkpt lat="45.11093" lon="2.60686">
        <ele>1087.4</ele>
        <time>2021-08-11T08:41:13Z</time>
      </trkpt>
      <trkpt lat="45.11093" lon="2.60687">
        <ele>1087.6</ele>
        <time>2021-08-11T08:41:14Z</time>
      </trkpt>
      <trkpt lat="45.11094" lon="2.60688">
        <ele>1087.7</ele>
        <time>2021-08-11T08:41:15Z</time>
      </trkpt>
      <trkpt lat="45.11094" lon="2.60689">
        <ele>1087.7</ele>
        <time>2021-08-11T08:41:16Z</time>
      </trkpt>
      <trkpt lat="45.11095" lon="2.6069">
        <ele>1087.7</ele>
        <time>2021-08-11T08:41:17Z</time>
      </trkpt>
      <trkpt lat="45.11096" lon="2.60691">
        <ele>1087.8</ele>
        <time>2021-08-11T08:41:18Z</time>
      </trkpt>
      <trkpt lat="45.11096" lon="2.60692">
        <ele>1087.9</ele>
        <time>2021-08-11T08:41:19Z</time>
      </trkpt>
      <trkpt lat="45.11097" lon="2.60694">
        <ele>1088</ele>
        <time>2021-08-11T08:41:20Z</time>
      </trkpt>
      <trkpt lat="45.11097" lon="2.60695">
        <ele>1088.1</ele>
        <time>2021-08-11T08:41:21Z</time>
      </trkpt>
      <trkpt lat="45.11097" lon="2.60696">
        <ele>1088.3</ele>
        <time>2021-08-11T08:41:22Z</time>
      </trkpt>
      <trkpt lat="45.11098" lon="2.60698">
        <ele>1088.4</ele>
        <time>2021-08-11T08:41:23Z</time>
      </trkpt>
      <trkpt lat="45.11098" lon="2.60699">
        <ele>1088.6</ele>
        <time>2021-08-11T08:41:24Z</time>
      </trkpt>
      <trkpt lat="45.11098" lon="2.607">
        <ele>1088.7</ele>
        <time>2021-08-11T08:41:25Z</time>
      </trkpt>
      <trkpt lat="45.11098" lon="2.60701">
        <ele>1088.8</ele>
        <time>2021-08-11T08:41:26Z</time>
      </trkpt>
      <trkpt lat="45.11099" lon="2.60702">
        <ele>1088.9</ele>
        <time>2021-08-11T08:41:27Z</time>
      </trkpt>
      <trkpt lat="45.11099" lon="2.60704">
        <ele>1089.1</ele>
        <time>2021-08-11T08:41:28Z</time>
      </trkpt>
      <trkpt lat="45.11099" lon="2.60705">
        <ele>1089.2</ele>
        <time>2021-08-11T08:41:29Z</time>
      </trkpt>
      <trkpt lat="45.11099" lon="2.60706">
        <ele>1089.4</ele>
        <time>2021-08-11T08:41:30Z</time>
      </trkpt>
      <trkpt lat="45.111" lon="2.60707">
        <ele>1089.5</ele>
        <time>2021-08-11T08:41:31Z</time>
      </trkpt>
      <trkpt lat="45.111" lon="2.60708">
        <ele>1089.6</ele>
        <time>2021-08-11T08:41:32Z</time>
      </trkpt>
      <trkpt lat="45.111" lon="2.60709">
        <ele>1089.8</ele>
        <time>2021-08-11T08:41:33Z</time>
      </trkpt>
      <trkpt lat="45.111" lon="2.6071">
        <ele>1089.9</ele>
        <time>2021-08-11T08:41:34Z</time>
      </trkpt>
      <trkpt lat="45.111" lon="2.60712">
        <ele>1090</ele>
        <time>2021-08-11T08:41:35Z</time>
      </trkpt>
      <trkpt lat="45.11101" lon="2.60713">
        <ele>1090.2</ele>
        <time>2021-08-11T08:41:36Z</time>
      </trkpt>
      <trkpt lat="45.11101" lon="2.60714">
        <ele>1090.3</ele>
        <time>2021-08-11T08:41:37Z</time>
      </trkpt>
      <trkpt lat="45.11101" lon="2.60715">
        <ele>1090.5</ele>
        <time>2021-08-11T08:41:38Z</time>
      </trkpt>
      <trkpt lat="45.11101" lon="2.60717">
        <ele>1090.6</ele>
        <time>2021-08-11T08:41:39Z</time>
      </trkpt>
      <trkpt lat="45.11102" lon="2.60718">
        <ele>1090.7</ele>
        <time>2021-08-11T08:41:40Z</time>
      </trkpt>
      <trkpt lat="45.11102" lon="2.60719">
        <ele>1090.8</ele>
        <time>2021-08-11T08:41:41Z</time>
      </trkpt>
      <trkpt lat="45.11102" lon="2.6072">
        <ele>1090.9</ele>
        <time>2021-08-11T08:41:42Z</time>
      </trkpt>
      <trkpt lat="45.11103" lon="2.60722">
        <ele>1091</ele>
        <time>2021-08-11T08:41:43Z</time>
      </trkpt>
      <trkpt lat="45.11103" lon="2.60723">
        <ele>1091.2</ele>
        <time>2021-08-11T08:41:44Z</time>
      </trkpt>
      <trkpt lat="45.11103" lon="2.60724">
        <ele>1091.4</ele>
        <time>2021-08-11T08:41:45Z</time>
      </trkpt>
      <trkpt lat="45.11103" lon="2.60726">
        <ele>1091.6</ele>
        <time>2021-08-11T08:41:46Z</time>
      </trkpt>
      <trkpt lat="45.11103" lon="2.60727">
        <ele>1091.8</ele>
        <time>2021-08-11T08:41:47Z</time>
      </trkpt>
      <trkpt lat="45.11103" lon="2.60728">
        <ele>1092</ele>
        <time>2021-08-11T08:41:48Z</time>
      </trkpt>
      <trkpt lat="45.11103" lon="2.6073">
        <ele>1092.1</ele>
        <time>2021-08-11T08:41:49Z</time>
      </trkpt>
      <trkpt lat="45.11103" lon="2.60731">
        <ele>1092.3</ele>
        <time>2021-08-11T08:41:50Z</time>
      </trkpt>
      <trkpt lat="45.11104" lon="2.60732">
        <ele>1092.4</ele>
        <time>2021-08-11T08:41:51Z</time>
      </trkpt>
      <trkpt lat="45.11104" lon="2.60733">
        <ele>1092.5</ele>
        <time>2021-08-11T08:41:52Z</time>
      </trkpt>
      <trkpt lat="45.11104" lon="2.60734">
        <ele>1092.6</ele>
        <time>2021-08-11T08:41:53Z</time>
      </trkpt>
      <trkpt lat="45.11105" lon="2.60736">
        <ele>1092.7</ele>
        <time>2021-08-11T08:41:54Z</time>
      </trkpt>
      <trkpt lat="45.11105" lon="2.60737">
        <ele>1092.8</ele>
        <time>2021-08-11T08:41:55Z</time>
      </trkpt>
      <trkpt lat="45.11105" lon="2.60738">
        <ele>1093</ele>
        <time>2021-08-11T08:41:56Z</time>
      </trkpt>
      <trkpt lat="45.11105" lon="2.60739">
        <ele>1093.1</ele>
        <time>2021-08-11T08:41:57Z</time>
      </trkpt>
      <trkpt lat="45.11105" lon="2.6074">
        <ele>1093.3</ele>
        <time>2021-08-11T08:41:58Z</time>
      </trkpt>
      <trkpt lat="45.11105" lon="2.60742">
        <ele>1093.5</ele>
        <time>2021-08-11T08:41:59Z</time>
      </trkpt>
      <trkpt lat="45.11105" lon="2.60743">
        <ele>1093.7</ele>
        <time>2021-08-11T08:42:00Z</time>
      </trkpt>
      <trkpt lat="45.11106" lon="2.60744">
        <ele>1093.8</ele>
        <time>2021-08-11T08:42:01Z</time>
      </trkpt>
      <trkpt lat="45.11106" lon="2.60745">
        <ele>1093.9</ele>
        <time>2021-08-11T08:42:02Z</time>
      </trkpt>
      <trkpt lat="45.11106" lon="2.60746">
        <ele>1094.1</ele>
        <time>2021-08-11T08:42:03Z</time>
      </trkpt>
      <trkpt lat="45.11106" lon="2.60748">
        <ele>1094.3</ele>
        <time>2021-08-11T08:42:04Z</time>
      </trkpt>
      <trkpt lat="45.11106" lon="2.60749">
        <ele>1094.4</ele>
        <time>2021-08-11T08:42:05Z</time>
      </trkpt>
      <trkpt lat="45.11106" lon="2.6075">
        <ele>1094.6</ele>
        <time>2021-08-11T08:42:06Z</time>
      </trkpt>
      <trkpt lat="45.11106" lon="2.60751">
        <ele>1094.7</ele>
        <time>2021-08-11T08:42:07Z</time>
      </trkpt>
      <trkpt lat="45.11106" lon="2.60752">
        <ele>1094.8</ele>
        <time>2021-08-11T08:42:08Z</time>
      </trkpt>
      <trkpt lat="45.11107" lon="2.60754">
        <ele>1095</ele>
        <time>2021-08-11T08:42:09Z</time>
      </trkpt>
      <trkpt lat="45.11107" lon="2.60755">
        <ele>1095.1</ele>
        <time>2021-08-11T08:42:10Z</time>
      </trkpt>
      <trkpt lat="45.11107" lon="2.60756">
        <ele>1095.3</ele>
        <time>2021-08-11T08:42:11Z</time>
      </trkpt>
      <trkpt lat="45.11107" lon="2.60757">
        <ele>1095.4</ele>
        <time>2021-08-11T08:42:12Z</time>
      </trkpt>
      <trkpt lat="45.11108" lon="2.60759">
        <ele>1095.5</ele>
        <time>2021-08-11T08:42:13Z</time>
      </trkpt>
      <trkpt lat="45.11108" lon="2.6076">
        <ele>1095.6</ele>
        <time>2021-08-11T08:42:14Z</time>
      </trkpt>
      <trkpt lat="45.11108" lon="2.60761">
        <ele>1095.8</ele>
        <time>2021-08-11T08:42:15Z</time>
      </trkpt>
      <trkpt lat="45.11108" lon="2.60763">
        <ele>1095.9</ele>
        <time>2021-08-11T08:42:16Z</time>
      </trkpt>
      <trkpt lat="45.11109" lon="2.60764">
        <ele>1096</ele>
        <time>2021-08-11T08:42:17Z</time>
      </trkpt>
      <trkpt lat="45.11109" lon="2.60765">
        <ele>1096.1</ele>
        <time>2021-08-11T08:42:18Z</time>
      </trkpt>
      <trkpt lat="45.11109" lon="2.60766">
        <ele>1096.3</ele>
        <time>2021-08-11T08:42:19Z</time>
      </trkpt>
      <trkpt lat="45.11109" lon="2.60768">
        <ele>1096.5</ele>
        <time>2021-08-11T08:42:20Z</time>
      </trkpt>
      <trkpt lat="45.11109" lon="2.60769">
        <ele>1096.6</ele>
        <time>2021-08-11T08:42:21Z</time>
      </trkpt>
      <trkpt lat="45.11109" lon="2.6077">
        <ele>1096.8</ele>
        <time>2021-08-11T08:42:22Z</time>
      </trkpt>
      <trkpt lat="45.1111" lon="2.60771">
        <ele>1096.9</ele>
        <time>2021-08-11T08:42:23Z</time>
      </trkpt>
      <trkpt lat="45.1111" lon="2.60773">
        <ele>1097</ele>
        <time>2021-08-11T08:42:24Z</time>
      </trkpt>
      <trkpt lat="45.1111" lon="2.60774">
        <ele>1097.2</ele>
        <time>2021-08-11T08:42:25Z</time>
      </trkpt>
      <trkpt lat="45.1111" lon="2.60775">
        <ele>1097.3</ele>
        <time>2021-08-11T08:42:26Z</time>
      </trkpt>
      <trkpt lat="45.1111" lon="2.60777">
        <ele>1097.5</ele>
        <time>2021-08-11T08:42:27Z</time>
      </trkpt>
      <trkpt lat="45.11111" lon="2.60778">
        <ele>1097.7</ele>
        <time>2021-08-11T08:42:28Z</time>
      </trkpt>
      <trkpt lat="45.11111" lon="2.60779">
        <ele>1097.8</ele>
        <time>2021-08-11T08:42:29Z</time>
      </trkpt>
      <trkpt lat="45.11111" lon="2.60781">
        <ele>1097.9</ele>
        <time>2021-08-11T08:42:30Z</time>
      </trkpt>
      <trkpt lat="45.11111" lon="2.60782">
        <ele>1098</ele>
        <time>2021-08-11T08:42:31Z</time>
      </trkpt>
      <trkpt lat="45.11112" lon="2.60783">
        <ele>1098.1</ele>
        <time>2021-08-11T08:42:32Z</time>
      </trkpt>
      <trkpt lat="45.11112" lon="2.60784">
        <ele>1098.2</ele>
        <time>2021-08-11T08:42:33Z</time>
      </trkpt>
      <trkpt lat="45.11112" lon="2.60786">
        <ele>1098.3</ele>
        <time>2021-08-11T08:42:34Z</time>
      </trkpt>
      <trkpt lat="45.11113" lon="2.60787">
        <ele>1098.3</ele>
        <time>2021-08-11T08:42:35Z</time>
      </trkpt>
      <trkpt lat="45.11113" lon="2.60788">
        <ele>1098.4</ele>
        <time>2021-08-11T08:42:36Z</time>
      </trkpt>
      <trkpt lat="45.11114" lon="2.6079">
        <ele>1098.5</ele>
        <time>2021-08-11T08:42:37Z</time>
      </trkpt>
      <trkpt lat="45.11114" lon="2.60791">
        <ele>1098.5</ele>
        <time>2021-08-11T08:42:38Z</time>
      </trkpt>
      <trkpt lat="45.11115" lon="2.60792">
        <ele>1098.5</ele>
        <time>2021-08-11T08:42:39Z</time>
      </trkpt>
      <trkpt lat="45.11115" lon="2.60794">
        <ele>1098.5</ele>
        <time>2021-08-11T08:42:40Z</time>
      </trkpt>
      <trkpt lat="45.11116" lon="2.60795">
        <ele>1098.6</ele>
        <time>2021-08-11T08:42:41Z</time>
      </trkpt>
      <trkpt lat="45.11116" lon="2.60796">
        <ele>1098.6</ele>
        <time>2021-08-11T08:42:42Z</time>
      </trkpt>
      <trkpt lat="45.11117" lon="2.60797">
        <ele>1098.6</ele>
        <time>2021-08-11T08:42:43Z</time>
      </trkpt>
      <trkpt lat="45.11118" lon="2.60799">
        <ele>1098.5</ele>
        <time>2021-08-11T08:42:44Z</time>
      </trkpt>
      <trkpt lat="45.11119" lon="2.608">
        <ele>1098.4</ele>
        <time>2021-08-11T08:42:45Z</time>
      </trkpt>
      <trkpt lat="45.1112" lon="2.60801">
        <ele>1098.4</ele>
        <time>2021-08-11T08:42:46Z</time>
      </trkpt>
      <trkpt lat="45.11121" lon="2.60803">
        <ele>1098.3</ele>
        <time>2021-08-11T08:42:47Z</time>
      </trkpt>
      <trkpt lat="45.11121" lon="2.60804">
        <ele>1098.3</ele>
        <time>2021-08-11T08:42:48Z</time>
      </trkpt>
      <trkpt lat="45.11122" lon="2.60805">
        <ele>1098.2</ele>
        <time>2021-08-11T08:42:49Z</time>
      </trkpt>
      <trkpt lat="45.11122" lon="2.60806">
        <ele>1098.2</ele>
        <time>2021-08-11T08:42:50Z</time>
      </trkpt>
      <trkpt lat="45.11123" lon="2.60808">
        <ele>1098.4</ele>
        <time>2021-08-11T08:42:51Z</time>
      </trkpt>
      <trkpt lat="45.11123" lon="2.60809">
        <ele>1098.5</ele>
        <time>2021-08-11T08:42:52Z</time>
      </trkpt>
      <trkpt lat="45.11123" lon="2.60811">
        <ele>1098.7</ele>
        <time>2021-08-11T08:42:53Z</time>
      </trkpt>
      <trkpt lat="45.11123" lon="2.60812">
        <ele>1098.8</ele>
        <time>2021-08-11T08:42:54Z</time>
      </trkpt>
      <trkpt lat="45.11123" lon="2.60813">
        <ele>1099</ele>
        <time>2021-08-11T08:42:55Z</time>
      </trkpt>
      <trkpt lat="45.11123" lon="2.60815">
        <ele>1099.1</ele>
        <time>2021-08-11T08:42:56Z</time>
      </trkpt>
      <trkpt lat="45.11124" lon="2.60816">
        <ele>1099.2</ele>
        <time>2021-08-11T08:42:57Z</time>
      </trkpt>
      <trkpt lat="45.11124" lon="2.60818">
        <ele>1099.4</ele>
        <time>2021-08-11T08:42:58Z</time>
      </trkpt>
      <trkpt lat="45.11124" lon="2.60819">
        <ele>1099.4</ele>
        <time>2021-08-11T08:42:59Z</time>
      </trkpt>
      <trkpt lat="45.11124" lon="2.60821">
        <ele>1099.6</ele>
        <time>2021-08-11T08:43:00Z</time>
      </trkpt>
      <trkpt lat="45.11125" lon="2.60822">
        <ele>1099.7</ele>
        <time>2021-08-11T08:43:01Z</time>
      </trkpt>
      <trkpt lat="45.11125" lon="2.60824">
        <ele>1099.8</ele>
        <time>2021-08-11T08:43:02Z</time>
      </trkpt>
      <trkpt lat="45.11125" lon="2.60825">
        <ele>1099.9</ele>
        <time>2021-08-11T08:43:03Z</time>
      </trkpt>
      <trkpt lat="45.11125" lon="2.60826">
        <ele>1100</ele>
        <time>2021-08-11T08:43:04Z</time>
      </trkpt>
      <trkpt lat="45.11125" lon="2.60828">
        <ele>1100.2</ele>
        <time>2021-08-11T08:43:05Z</time>
      </trkpt>
      <trkpt lat="45.11126" lon="2.60829">
        <ele>1100.2</ele>
        <time>2021-08-11T08:43:06Z</time>
      </trkpt>
      <trkpt lat="45.11126" lon="2.6083">
        <ele>1100.3</ele>
        <time>2021-08-11T08:43:07Z</time>
      </trkpt>
      <trkpt lat="45.11126" lon="2.60832">
        <ele>1100.4</ele>
        <time>2021-08-11T08:43:08Z</time>
      </trkpt>
      <trkpt lat="45.11127" lon="2.60833">
        <ele>1100.4</ele>
        <time>2021-08-11T08:43:09Z</time>
      </trkpt>
      <trkpt lat="45.11127" lon="2.60834">
        <ele>1100.5</ele>
        <time>2021-08-11T08:43:10Z</time>
      </trkpt>
      <trkpt lat="45.11127" lon="2.60836">
        <ele>1100.5</ele>
        <time>2021-08-11T08:43:11Z</time>
      </trkpt>
      <trkpt lat="45.11128" lon="2.60837">
        <ele>1100.7</ele>
        <time>2021-08-11T08:43:12Z</time>
      </trkpt>
      <trkpt lat="45.11128" lon="2.60839">
        <ele>1100.7</ele>
        <time>2021-08-11T08:43:13Z</time>
      </trkpt>
      <trkpt lat="45.11129" lon="2.6084">
        <ele>1100.8</ele>
        <time>2021-08-11T08:43:14Z</time>
      </trkpt>
      <trkpt lat="45.11129" lon="2.60842">
        <ele>1100.8</ele>
        <time>2021-08-11T08:43:15Z</time>
      </trkpt>
      <trkpt lat="45.1113" lon="2.60843">
        <ele>1100.8</ele>
        <time>2021-08-11T08:43:16Z</time>
      </trkpt>
      <trkpt lat="45.1113" lon="2.60844">
        <ele>1100.8</ele>
        <time>2021-08-11T08:43:17Z</time>
      </trkpt>
      <trkpt lat="45.11131" lon="2.60846">
        <ele>1100.9</ele>
        <time>2021-08-11T08:43:18Z</time>
      </trkpt>
      <trkpt lat="45.11131" lon="2.60847">
        <ele>1100.9</ele>
        <time>2021-08-11T08:43:19Z</time>
      </trkpt>
      <trkpt lat="45.11131" lon="2.60848">
        <ele>1101</ele>
        <time>2021-08-11T08:43:20Z</time>
      </trkpt>
      <trkpt lat="45.11132" lon="2.6085">
        <ele>1101.1</ele>
        <time>2021-08-11T08:43:21Z</time>
      </trkpt>
      <trkpt lat="45.11132" lon="2.60851">
        <ele>1101.2</ele>
        <time>2021-08-11T08:43:22Z</time>
      </trkpt>
      <trkpt lat="45.11132" lon="2.60852">
        <ele>1101.3</ele>
        <time>2021-08-11T08:43:23Z</time>
      </trkpt>
      <trkpt lat="45.11132" lon="2.60854">
        <ele>1101.5</ele>
        <time>2021-08-11T08:43:24Z</time>
      </trkpt>
      <trkpt lat="45.11132" lon="2.60855">
        <ele>1101.6</ele>
        <time>2021-08-11T08:43:25Z</time>
      </trkpt>
      <trkpt lat="45.11132" lon="2.60856">
        <ele>1101.8</ele>
        <time>2021-08-11T08:43:26Z</time>
      </trkpt>
      <trkpt lat="45.11132" lon="2.60857">
        <ele>1101.9</ele>
        <time>2021-08-11T08:43:27Z</time>
      </trkpt>
      <trkpt lat="45.11132" lon="2.60859">
        <ele>1102.1</ele>
        <time>2021-08-11T08:43:28Z</time>
      </trkpt>
      <trkpt lat="45.11133" lon="2.6086">
        <ele>1102.1</ele>
        <time>2021-08-11T08:43:29Z</time>
      </trkpt>
      <trkpt lat="45.11133" lon="2.60861">
        <ele>1102.1</ele>
        <time>2021-08-11T08:43:30Z</time>
      </trkpt>
      <trkpt lat="45.11134" lon="2.60862">
        <ele>1102.1</ele>
        <time>2021-08-11T08:43:31Z</time>
      </trkpt>
      <trkpt lat="45.11134" lon="2.60863">
        <ele>1102.1</ele>
        <time>2021-08-11T08:43:32Z</time>
      </trkpt>
      <trkpt lat="45.11134" lon="2.60865">
        <ele>1102.2</ele>
        <time>2021-08-11T08:43:33Z</time>
      </trkpt>
      <trkpt lat="45.11135" lon="2.60866">
        <ele>1102.3</ele>
        <time>2021-08-11T08:43:34Z</time>
      </trkpt>
      <trkpt lat="45.11135" lon="2.60867">
        <ele>1102.3</ele>
        <time>2021-08-11T08:43:35Z</time>
      </trkpt>
      <trkpt lat="45.11136" lon="2.60869">
        <ele>1102.3</ele>
        <time>2021-08-11T08:43:36Z</time>
      </trkpt>
      <trkpt lat="45.11136" lon="2.6087">
        <ele>1102.4</ele>
        <time>2021-08-11T08:43:37Z</time>
      </trkpt>
      <trkpt lat="45.11136" lon="2.60871">
        <ele>1102.5</ele>
        <time>2021-08-11T08:43:38Z</time>
      </trkpt>
      <trkpt lat="45.11137" lon="2.60873">
        <ele>1102.6</ele>
        <time>2021-08-11T08:43:39Z</time>
      </trkpt>
      <trkpt lat="45.11137" lon="2.60874">
        <ele>1102.6</ele>
        <time>2021-08-11T08:43:40Z</time>
      </trkpt>
      <trkpt lat="45.11137" lon="2.60875">
        <ele>1102.6</ele>
        <time>2021-08-11T08:43:41Z</time>
      </trkpt>
      <trkpt lat="45.11138" lon="2.60877">
        <ele>1102.6</ele>
        <time>2021-08-11T08:43:42Z</time>
      </trkpt>
      <trkpt lat="45.11138" lon="2.60878">
        <ele>1102.6</ele>
        <time>2021-08-11T08:43:43Z</time>
      </trkpt>
      <trkpt lat="45.11139" lon="2.6088">
        <ele>1102.7</ele>
        <time>2021-08-11T08:43:44Z</time>
      </trkpt>
      <trkpt lat="45.11139" lon="2.60881">
        <ele>1102.7</ele>
        <time>2021-08-11T08:43:45Z</time>
      </trkpt>
      <trkpt lat="45.1114" lon="2.60882">
        <ele>1102.7</ele>
        <time>2021-08-11T08:43:46Z</time>
      </trkpt>
      <trkpt lat="45.1114" lon="2.60883">
        <ele>1102.7</ele>
        <time>2021-08-11T08:43:47Z</time>
      </trkpt>
      <trkpt lat="45.11141" lon="2.60885">
        <ele>1102.6</ele>
        <time>2021-08-11T08:43:48Z</time>
      </trkpt>
      <trkpt lat="45.11141" lon="2.60886">
        <ele>1102.7</ele>
        <time>2021-08-11T08:43:49Z</time>
      </trkpt>
      <trkpt lat="45.11142" lon="2.60888">
        <ele>1102.7</ele>
        <time>2021-08-11T08:43:50Z</time>
      </trkpt>
      <trkpt lat="45.11142" lon="2.60889">
        <ele>1102.7</ele>
        <time>2021-08-11T08:43:51Z</time>
      </trkpt>
      <trkpt lat="45.11143" lon="2.6089">
        <ele>1102.6</ele>
        <time>2021-08-11T08:43:52Z</time>
      </trkpt>
      <trkpt lat="45.11144" lon="2.60891">
        <ele>1102.5</ele>
        <time>2021-08-11T08:43:53Z</time>
      </trkpt>
      <trkpt lat="45.11144" lon="2.60893">
        <ele>1102.5</ele>
        <time>2021-08-11T08:43:54Z</time>
      </trkpt>
      <trkpt lat="45.11145" lon="2.60894">
        <ele>1102.4</ele>
        <time>2021-08-11T08:43:55Z</time>
      </trkpt>
      <trkpt lat="45.11145" lon="2.60895">
        <ele>1102.4</ele>
        <time>2021-08-11T08:43:56Z</time>
      </trkpt>
      <trkpt lat="45.11146" lon="2.60897">
        <ele>1102.4</ele>
        <time>2021-08-11T08:43:57Z</time>
      </trkpt>
      <trkpt lat="45.11146" lon="2.60898">
        <ele>1102.3</ele>
        <time>2021-08-11T08:43:58Z</time>
      </trkpt>
      <trkpt lat="45.11147" lon="2.60899">
        <ele>1102.4</ele>
        <time>2021-08-11T08:43:59Z</time>
      </trkpt>
      <trkpt lat="45.11147" lon="2.60901">
        <ele>1102.4</ele>
        <time>2021-08-11T08:44:00Z</time>
      </trkpt>
      <trkpt lat="45.11148" lon="2.60903">
        <ele>1102.5</ele>
        <time>2021-08-11T08:44:01Z</time>
      </trkpt>
      <trkpt lat="45.11148" lon="2.60904">
        <ele>1102.5</ele>
        <time>2021-08-11T08:44:02Z</time>
      </trkpt>
      <trkpt lat="45.11148" lon="2.60905">
        <ele>1102.5</ele>
        <time>2021-08-11T08:44:03Z</time>
      </trkpt>
      <trkpt lat="45.11149" lon="2.60907">
        <ele>1102.6</ele>
        <time>2021-08-11T08:44:04Z</time>
      </trkpt>
      <trkpt lat="45.11149" lon="2.60908">
        <ele>1102.7</ele>
        <time>2021-08-11T08:44:05Z</time>
      </trkpt>
      <trkpt lat="45.11149" lon="2.6091">
        <ele>1102.7</ele>
        <time>2021-08-11T08:44:06Z</time>
      </trkpt>
      <trkpt lat="45.1115" lon="2.60911">
        <ele>1102.8</ele>
        <time>2021-08-11T08:44:07Z</time>
      </trkpt>
      <trkpt lat="45.1115" lon="2.60913">
        <ele>1102.9</ele>
        <time>2021-08-11T08:44:08Z</time>
      </trkpt>
      <trkpt lat="45.1115" lon="2.60914">
        <ele>1102.9</ele>
        <time>2021-08-11T08:44:09Z</time>
      </trkpt>
      <trkpt lat="45.11151" lon="2.60916">
        <ele>1103.1</ele>
        <time>2021-08-11T08:44:10Z</time>
      </trkpt>
      <trkpt lat="45.11151" lon="2.60917">
        <ele>1103.1</ele>
        <time>2021-08-11T08:44:11Z</time>
      </trkpt>
      <trkpt lat="45.11151" lon="2.60919">
        <ele>1103.2</ele>
        <time>2021-08-11T08:44:12Z</time>
      </trkpt>
      <trkpt lat="45.11151" lon="2.6092">
        <ele>1103.3</ele>
        <time>2021-08-11T08:44:13Z</time>
      </trkpt>
      <trkpt lat="45.11152" lon="2.60922">
        <ele>1103.4</ele>
        <time>2021-08-11T08:44:14Z</time>
      </trkpt>
      <trkpt lat="45.11152" lon="2.60923">
        <ele>1103.5</ele>
        <time>2021-08-11T08:44:15Z</time>
      </trkpt>
      <trkpt lat="45.11152" lon="2.60924">
        <ele>1103.6</ele>
        <time>2021-08-11T08:44:16Z</time>
      </trkpt>
      <trkpt lat="45.11152" lon="2.60926">
        <ele>1103.6</ele>
        <time>2021-08-11T08:44:17Z</time>
      </trkpt>
      <trkpt lat="45.11152" lon="2.60927">
        <ele>1103.7</ele>
        <time>2021-08-11T08:44:18Z</time>
      </trkpt>
      <trkpt lat="45.11152" lon="2.60929">
        <ele>1103.9</ele>
        <time>2021-08-11T08:44:19Z</time>
      </trkpt>
      <trkpt lat="45.11153" lon="2.6093">
        <ele>1104</ele>
        <time>2021-08-11T08:44:20Z</time>
      </trkpt>
      <trkpt lat="45.11153" lon="2.60932">
        <ele>1104.1</ele>
        <time>2021-08-11T08:44:21Z</time>
      </trkpt>
      <trkpt lat="45.11153" lon="2.60933">
        <ele>1104.1</ele>
        <time>2021-08-11T08:44:22Z</time>
      </trkpt>
      <trkpt lat="45.11153" lon="2.60935">
        <ele>1104.1</ele>
        <time>2021-08-11T08:44:23Z</time>
      </trkpt>
      <trkpt lat="45.11154" lon="2.60936">
        <ele>1104.2</ele>
        <time>2021-08-11T08:44:24Z</time>
      </trkpt>
      <trkpt lat="45.11154" lon="2.60937">
        <ele>1104.3</ele>
        <time>2021-08-11T08:44:25Z</time>
      </trkpt>
      <trkpt lat="45.11154" lon="2.60939">
        <ele>1104.4</ele>
        <time>2021-08-11T08:44:26Z</time>
      </trkpt>
      <trkpt lat="45.11154" lon="2.6094">
        <ele>1104.4</ele>
        <time>2021-08-11T08:44:27Z</time>
      </trkpt>
      <trkpt lat="45.11155" lon="2.60942">
        <ele>1104.5</ele>
        <time>2021-08-11T08:44:28Z</time>
      </trkpt>
      <trkpt lat="45.11155" lon="2.60943">
        <ele>1104.6</ele>
        <time>2021-08-11T08:44:29Z</time>
      </trkpt>
      <trkpt lat="45.11155" lon="2.60944">
        <ele>1104.6</ele>
        <time>2021-08-11T08:44:30Z</time>
      </trkpt>
      <trkpt lat="45.11156" lon="2.60946">
        <ele>1104.5</ele>
        <time>2021-08-11T08:44:31Z</time>
      </trkpt>
      <trkpt lat="45.11156" lon="2.60947">
        <ele>1104.4</ele>
        <time>2021-08-11T08:44:32Z</time>
      </trkpt>
      <trkpt lat="45.11157" lon="2.60948">
        <ele>1104.4</ele>
        <time>2021-08-11T08:44:33Z</time>
      </trkpt>
      <trkpt lat="45.11157" lon="2.60949">
        <ele>1104.3</ele>
        <time>2021-08-11T08:44:34Z</time>
      </trkpt>
      <trkpt lat="45.11157" lon="2.6095">
        <ele>1104.4</ele>
        <time>2021-08-11T08:44:35Z</time>
      </trkpt>
      <trkpt lat="45.11158" lon="2.60952">
        <ele>1104.4</ele>
        <time>2021-08-11T08:44:36Z</time>
      </trkpt>
      <trkpt lat="45.11158" lon="2.60953">
        <ele>1104.4</ele>
        <time>2021-08-11T08:44:37Z</time>
      </trkpt>
      <trkpt lat="45.11158" lon="2.60954">
        <ele>1104.4</ele>
        <time>2021-08-11T08:44:38Z</time>
      </trkpt>
      <trkpt lat="45.11159" lon="2.60955">
        <ele>1104.4</ele>
        <time>2021-08-11T08:44:39Z</time>
      </trkpt>
      <trkpt lat="45.11159" lon="2.60957">
        <ele>1104.4</ele>
        <time>2021-08-11T08:44:40Z</time>
      </trkpt>
      <trkpt lat="45.11159" lon="2.60958">
        <ele>1104.5</ele>
        <time>2021-08-11T08:44:41Z</time>
      </trkpt>
      <trkpt lat="45.11159" lon="2.60959">
        <ele>1104.7</ele>
        <time>2021-08-11T08:44:42Z</time>
      </trkpt>
      <trkpt lat="45.11159" lon="2.6096">
        <ele>1104.7</ele>
        <time>2021-08-11T08:44:43Z</time>
      </trkpt>
      <trkpt lat="45.11159" lon="2.60962">
        <ele>1104.9</ele>
        <time>2021-08-11T08:44:44Z</time>
      </trkpt>
      <trkpt lat="45.11159" lon="2.60963">
        <ele>1104.9</ele>
        <time>2021-08-11T08:44:45Z</time>
      </trkpt>
      <trkpt lat="45.1116" lon="2.60964">
        <ele>1105</ele>
        <time>2021-08-11T08:44:46Z</time>
      </trkpt>
      <trkpt lat="45.1116" lon="2.60966">
        <ele>1105.1</ele>
        <time>2021-08-11T08:44:47Z</time>
      </trkpt>
      <trkpt lat="45.1116" lon="2.60967">
        <ele>1105.1</ele>
        <time>2021-08-11T08:44:48Z</time>
      </trkpt>
      <trkpt lat="45.1116" lon="2.60968">
        <ele>1105.2</ele>
        <time>2021-08-11T08:44:49Z</time>
      </trkpt>
      <trkpt lat="45.11161" lon="2.6097">
        <ele>1105.2</ele>
        <time>2021-08-11T08:44:50Z</time>
      </trkpt>
      <trkpt lat="45.11161" lon="2.60971">
        <ele>1105.2</ele>
        <time>2021-08-11T08:44:51Z</time>
      </trkpt>
      <trkpt lat="45.11161" lon="2.60973">
        <ele>1105.2</ele>
        <time>2021-08-11T08:44:52Z</time>
      </trkpt>
      <trkpt lat="45.11162" lon="2.60974">
        <ele>1105.1</ele>
        <time>2021-08-11T08:44:53Z</time>
      </trkpt>
      <trkpt lat="45.11162" lon="2.60975">
        <ele>1105.1</ele>
        <time>2021-08-11T08:44:54Z</time>
      </trkpt>
      <trkpt lat="45.11163" lon="2.60977">
        <ele>1105.1</ele>
        <time>2021-08-11T08:44:55Z</time>
      </trkpt>
      <trkpt lat="45.11163" lon="2.60978">
        <ele>1105.1</ele>
        <time>2021-08-11T08:44:56Z</time>
      </trkpt>
      <trkpt lat="45.11164" lon="2.60979">
        <ele>1105.1</ele>
        <time>2021-08-11T08:44:57Z</time>
      </trkpt>
      <trkpt lat="45.11164" lon="2.60981">
        <ele>1105.1</ele>
        <time>2021-08-11T08:44:58Z</time>
      </trkpt>
      <trkpt lat="45.11164" lon="2.60982">
        <ele>1105</ele>
        <time>2021-08-11T08:44:59Z</time>
      </trkpt>
      <trkpt lat="45.11165" lon="2.60983">
        <ele>1105</ele>
        <time>2021-08-11T08:45:00Z</time>
      </trkpt>
      <trkpt lat="45.11165" lon="2.60985">
        <ele>1105.1</ele>
        <time>2021-08-11T08:45:01Z</time>
      </trkpt>
      <trkpt lat="45.11165" lon="2.60986">
        <ele>1105.1</ele>
        <time>2021-08-11T08:45:02Z</time>
      </trkpt>
      <trkpt lat="45.11166" lon="2.60988">
        <ele>1105.2</ele>
        <time>2021-08-11T08:45:03Z</time>
      </trkpt>
      <trkpt lat="45.11166" lon="2.60989">
        <ele>1105.2</ele>
        <time>2021-08-11T08:45:04Z</time>
      </trkpt>
      <trkpt lat="45.11166" lon="2.6099">
        <ele>1105.3</ele>
        <time>2021-08-11T08:45:05Z</time>
      </trkpt>
      <trkpt lat="45.11166" lon="2.60992">
        <ele>1105.4</ele>
        <time>2021-08-11T08:45:06Z</time>
      </trkpt>
      <trkpt lat="45.11166" lon="2.60993">
        <ele>1105.4</ele>
        <time>2021-08-11T08:45:07Z</time>
      </trkpt>
      <trkpt lat="45.11166" lon="2.60994">
        <ele>1105.5</ele>
        <time>2021-08-11T08:45:08Z</time>
      </trkpt>
      <trkpt lat="45.11167" lon="2.60996">
        <ele>1105.5</ele>
        <time>2021-08-11T08:45:09Z</time>
      </trkpt>
      <trkpt lat="45.11167" lon="2.60997">
        <ele>1105.6</ele>
        <time>2021-08-11T08:45:10Z</time>
      </trkpt>
      <trkpt lat="45.11168" lon="2.60999">
        <ele>1105.8</ele>
        <time>2021-08-11T08:45:11Z</time>
      </trkpt>
      <trkpt lat="45.11168" lon="2.61">
        <ele>1105.9</ele>
        <time>2021-08-11T08:45:12Z</time>
      </trkpt>
      <trkpt lat="45.11168" lon="2.61001">
        <ele>1106</ele>
        <time>2021-08-11T08:45:13Z</time>
      </trkpt>
      <trkpt lat="45.11168" lon="2.61003">
        <ele>1106.2</ele>
        <time>2021-08-11T08:45:14Z</time>
      </trkpt>
      <trkpt lat="45.11169" lon="2.61004">
        <ele>1106.3</ele>
        <time>2021-08-11T08:45:15Z</time>
      </trkpt>
      <trkpt lat="45.11169" lon="2.61006">
        <ele>1106.5</ele>
        <time>2021-08-11T08:45:16Z</time>
      </trkpt>
      <trkpt lat="45.11169" lon="2.61007">
        <ele>1106.6</ele>
        <time>2021-08-11T08:45:17Z</time>
      </trkpt>
      <trkpt lat="45.1117" lon="2.61009">
        <ele>1106.8</ele>
        <time>2021-08-11T08:45:18Z</time>
      </trkpt>
      <trkpt lat="45.1117" lon="2.6101">
        <ele>1107</ele>
        <time>2021-08-11T08:45:19Z</time>
      </trkpt>
      <trkpt lat="45.1117" lon="2.61011">
        <ele>1107.1</ele>
        <time>2021-08-11T08:45:20Z</time>
      </trkpt>
      <trkpt lat="45.1117" lon="2.61013">
        <ele>1107.2</ele>
        <time>2021-08-11T08:45:21Z</time>
      </trkpt>
      <trkpt lat="45.11171" lon="2.61014">
        <ele>1107.4</ele>
        <time>2021-08-11T08:45:22Z</time>
      </trkpt>
      <trkpt lat="45.11171" lon="2.61015">
        <ele>1107.5</ele>
        <time>2021-08-11T08:45:23Z</time>
      </trkpt>
      <trkpt lat="45.11171" lon="2.61017">
        <ele>1107.7</ele>
        <time>2021-08-11T08:45:24Z</time>
      </trkpt>
      <trkpt lat="45.11172" lon="2.61018">
        <ele>1107.8</ele>
        <time>2021-08-11T08:45:25Z</time>
      </trkpt>
      <trkpt lat="45.11172" lon="2.6102">
        <ele>1108</ele>
        <time>2021-08-11T08:45:26Z</time>
      </trkpt>
      <trkpt lat="45.11172" lon="2.61021">
        <ele>1108.1</ele>
        <time>2021-08-11T08:45:27Z</time>
      </trkpt>
      <trkpt lat="45.11172" lon="2.61022">
        <ele>1108.2</ele>
        <time>2021-08-11T08:45:28Z</time>
      </trkpt>
      <trkpt lat="45.11173" lon="2.61024">
        <ele>1108.4</ele>
        <time>2021-08-11T08:45:29Z</time>
      </trkpt>
      <trkpt lat="45.11173" lon="2.61025">
        <ele>1108.5</ele>
        <time>2021-08-11T08:45:30Z</time>
      </trkpt>
      <trkpt lat="45.11173" lon="2.61027">
        <ele>1108.7</ele>
        <time>2021-08-11T08:45:31Z</time>
      </trkpt>
      <trkpt lat="45.11174" lon="2.61028">
        <ele>1108.8</ele>
        <time>2021-08-11T08:45:32Z</time>
      </trkpt>
      <trkpt lat="45.11174" lon="2.61029">
        <ele>1109</ele>
        <time>2021-08-11T08:45:33Z</time>
      </trkpt>
      <trkpt lat="45.11174" lon="2.6103">
        <ele>1109.1</ele>
        <time>2021-08-11T08:45:34Z</time>
      </trkpt>
      <trkpt lat="45.11175" lon="2.61032">
        <ele>1109.2</ele>
        <time>2021-08-11T08:45:35Z</time>
      </trkpt>
      <trkpt lat="45.11175" lon="2.61033">
        <ele>1109.3</ele>
        <time>2021-08-11T08:45:36Z</time>
      </trkpt>
      <trkpt lat="45.11175" lon="2.61035">
        <ele>1109.5</ele>
        <time>2021-08-11T08:45:37Z</time>
      </trkpt>
      <trkpt lat="45.11175" lon="2.61036">
        <ele>1109.6</ele>
        <time>2021-08-11T08:45:38Z</time>
      </trkpt>
      <trkpt lat="45.11176" lon="2.61037">
        <ele>1109.8</ele>
        <time>2021-08-11T08:45:39Z</time>
      </trkpt>
      <trkpt lat="45.11176" lon="2.61038">
        <ele>1109.9</ele>
        <time>2021-08-11T08:45:40Z</time>
      </trkpt>
      <trkpt lat="45.11176" lon="2.6104">
        <ele>1110</ele>
        <time>2021-08-11T08:45:41Z</time>
      </trkpt>
      <trkpt lat="45.11176" lon="2.61041">
        <ele>1110.2</ele>
        <time>2021-08-11T08:45:42Z</time>
      </trkpt>
      <trkpt lat="45.11177" lon="2.61043">
        <ele>1110.3</ele>
        <time>2021-08-11T08:45:43Z</time>
      </trkpt>
      <trkpt lat="45.11177" lon="2.61044">
        <ele>1110.4</ele>
        <time>2021-08-11T08:45:44Z</time>
      </trkpt>
      <trkpt lat="45.11178" lon="2.61046">
        <ele>1110.6</ele>
        <time>2021-08-11T08:45:45Z</time>
      </trkpt>
      <trkpt lat="45.11178" lon="2.61047">
        <ele>1110.6</ele>
        <time>2021-08-11T08:45:46Z</time>
      </trkpt>
      <trkpt lat="45.11179" lon="2.61048">
        <ele>1110.7</ele>
        <time>2021-08-11T08:45:47Z</time>
      </trkpt>
      <trkpt lat="45.11179" lon="2.61049">
        <ele>1110.8</ele>
        <time>2021-08-11T08:45:48Z</time>
      </trkpt>
      <trkpt lat="45.1118" lon="2.61051">
        <ele>1110.9</ele>
        <time>2021-08-11T08:45:49Z</time>
      </trkpt>
      <trkpt lat="45.1118" lon="2.61052">
        <ele>1111.1</ele>
        <time>2021-08-11T08:45:50Z</time>
      </trkpt>
      <trkpt lat="45.1118" lon="2.61054">
        <ele>1111.3</ele>
        <time>2021-08-11T08:45:51Z</time>
      </trkpt>
      <trkpt lat="45.1118" lon="2.61055">
        <ele>1111.4</ele>
        <time>2021-08-11T08:45:52Z</time>
      </trkpt>
      <trkpt lat="45.1118" lon="2.61056">
        <ele>1111.5</ele>
        <time>2021-08-11T08:45:53Z</time>
      </trkpt>
      <trkpt lat="45.1118" lon="2.61058">
        <ele>1111.7</ele>
        <time>2021-08-11T08:45:54Z</time>
      </trkpt>
      <trkpt lat="45.1118" lon="2.61059">
        <ele>1111.9</ele>
        <time>2021-08-11T08:45:55Z</time>
      </trkpt>
      <trkpt lat="45.1118" lon="2.61061">
        <ele>1112.1</ele>
        <time>2021-08-11T08:45:56Z</time>
      </trkpt>
      <trkpt lat="45.1118" lon="2.61062">
        <ele>1112.3</ele>
        <time>2021-08-11T08:45:57Z</time>
      </trkpt>
      <trkpt lat="45.1118" lon="2.61064">
        <ele>1112.5</ele>
        <time>2021-08-11T08:45:58Z</time>
      </trkpt>
      <trkpt lat="45.1118" lon="2.61065">
        <ele>1112.6</ele>
        <time>2021-08-11T08:45:59Z</time>
      </trkpt>
      <trkpt lat="45.11181" lon="2.61067">
        <ele>1112.8</ele>
        <time>2021-08-11T08:46:00Z</time>
      </trkpt>
      <trkpt lat="45.11181" lon="2.61068">
        <ele>1113</ele>
        <time>2021-08-11T08:46:01Z</time>
      </trkpt>
      <trkpt lat="45.11181" lon="2.6107">
        <ele>1113.1</ele>
        <time>2021-08-11T08:46:02Z</time>
      </trkpt>
      <trkpt lat="45.11181" lon="2.61071">
        <ele>1113.3</ele>
        <time>2021-08-11T08:46:03Z</time>
      </trkpt>
      <trkpt lat="45.11181" lon="2.61073">
        <ele>1113.5</ele>
        <time>2021-08-11T08:46:04Z</time>
      </trkpt>
      <trkpt lat="45.11181" lon="2.61075">
        <ele>1113.6</ele>
        <time>2021-08-11T08:46:05Z</time>
      </trkpt>
      <trkpt lat="45.11182" lon="2.61076">
        <ele>1113.8</ele>
        <time>2021-08-11T08:46:06Z</time>
      </trkpt>
      <trkpt lat="45.11182" lon="2.61078">
        <ele>1113.9</ele>
        <time>2021-08-11T08:46:07Z</time>
      </trkpt>
      <trkpt lat="45.11182" lon="2.61079">
        <ele>1114</ele>
        <time>2021-08-11T08:46:08Z</time>
      </trkpt>
      <trkpt lat="45.11183" lon="2.6108">
        <ele>1114.2</ele>
        <time>2021-08-11T08:46:09Z</time>
      </trkpt>
      <trkpt lat="45.11183" lon="2.61082">
        <ele>1114.4</ele>
        <time>2021-08-11T08:46:10Z</time>
      </trkpt>
      <trkpt lat="45.11183" lon="2.61084">
        <ele>1114.5</ele>
        <time>2021-08-11T08:46:11Z</time>
      </trkpt>
      <trkpt lat="45.11183" lon="2.61085">
        <ele>1114.7</ele>
        <time>2021-08-11T08:46:12Z</time>
      </trkpt>
      <trkpt lat="45.11183" lon="2.61087">
        <ele>1114.9</ele>
        <time>2021-08-11T08:46:13Z</time>
      </trkpt>
      <trkpt lat="45.11183" lon="2.61088">
        <ele>1115</ele>
        <time>2021-08-11T08:46:14Z</time>
      </trkpt>
      <trkpt lat="45.11183" lon="2.61089">
        <ele>1115.2</ele>
        <time>2021-08-11T08:46:15Z</time>
      </trkpt>
      <trkpt lat="45.11184" lon="2.6109">
        <ele>1115.2</ele>
        <time>2021-08-11T08:46:16Z</time>
      </trkpt>
      <trkpt lat="45.11184" lon="2.61092">
        <ele>1115.4</ele>
        <time>2021-08-11T08:46:17Z</time>
      </trkpt>
      <trkpt lat="45.11184" lon="2.61093">
        <ele>1115.5</ele>
        <time>2021-08-11T08:46:18Z</time>
      </trkpt>
      <trkpt lat="45.11184" lon="2.61095">
        <ele>1115.7</ele>
        <time>2021-08-11T08:46:19Z</time>
      </trkpt>
      <trkpt lat="45.11185" lon="2.61096">
        <ele>1115.7</ele>
        <time>2021-08-11T08:46:20Z</time>
      </trkpt>
      <trkpt lat="45.11185" lon="2.61097">
        <ele>1115.9</ele>
        <time>2021-08-11T08:46:21Z</time>
      </trkpt>
      <trkpt lat="45.11185" lon="2.61099">
        <ele>1116.1</ele>
        <time>2021-08-11T08:46:22Z</time>
      </trkpt>
      <trkpt lat="45.11185" lon="2.611">
        <ele>1116.2</ele>
        <time>2021-08-11T08:46:23Z</time>
      </trkpt>
      <trkpt lat="45.11185" lon="2.61101">
        <ele>1116.4</ele>
        <time>2021-08-11T08:46:24Z</time>
      </trkpt>
      <trkpt lat="45.11185" lon="2.61103">
        <ele>1116.5</ele>
        <time>2021-08-11T08:46:25Z</time>
      </trkpt>
      <trkpt lat="45.11185" lon="2.61104">
        <ele>1116.7</ele>
        <time>2021-08-11T08:46:26Z</time>
      </trkpt>
      <trkpt lat="45.11185" lon="2.61105">
        <ele>1116.8</ele>
        <time>2021-08-11T08:46:27Z</time>
      </trkpt>
      <trkpt lat="45.11186" lon="2.61107">
        <ele>1117</ele>
        <time>2021-08-11T08:46:28Z</time>
      </trkpt>
      <trkpt lat="45.11186" lon="2.61108">
        <ele>1117.1</ele>
        <time>2021-08-11T08:46:29Z</time>
      </trkpt>
      <trkpt lat="45.11186" lon="2.6111">
        <ele>1117.2</ele>
        <time>2021-08-11T08:46:30Z</time>
      </trkpt>
      <trkpt lat="45.11186" lon="2.61111">
        <ele>1117.4</ele>
        <time>2021-08-11T08:46:31Z</time>
      </trkpt>
      <trkpt lat="45.11186" lon="2.61113">
        <ele>1117.6</ele>
        <time>2021-08-11T08:46:32Z</time>
      </trkpt>
      <trkpt lat="45.11187" lon="2.61114">
        <ele>1117.7</ele>
        <time>2021-08-11T08:46:33Z</time>
      </trkpt>
      <trkpt lat="45.11187" lon="2.61116">
        <ele>1117.9</ele>
        <time>2021-08-11T08:46:34Z</time>
      </trkpt>
      <trkpt lat="45.11187" lon="2.61117">
        <ele>1118</ele>
        <time>2021-08-11T08:46:35Z</time>
      </trkpt>
      <trkpt lat="45.11187" lon="2.61119">
        <ele>1118.2</ele>
        <time>2021-08-11T08:46:36Z</time>
      </trkpt>
      <trkpt lat="45.11187" lon="2.6112">
        <ele>1118.4</ele>
        <time>2021-08-11T08:46:37Z</time>
      </trkpt>
      <trkpt lat="45.11187" lon="2.61122">
        <ele>1118.6</ele>
        <time>2021-08-11T08:46:38Z</time>
      </trkpt>
      <trkpt lat="45.11187" lon="2.61124">
        <ele>1118.7</ele>
        <time>2021-08-11T08:46:39Z</time>
      </trkpt>
      <trkpt lat="45.11188" lon="2.61125">
        <ele>1118.9</ele>
        <time>2021-08-11T08:46:40Z</time>
      </trkpt>
      <trkpt lat="45.11188" lon="2.61127">
        <ele>1119</ele>
        <time>2021-08-11T08:46:41Z</time>
      </trkpt>
      <trkpt lat="45.11188" lon="2.61128">
        <ele>1119.1</ele>
        <time>2021-08-11T08:46:42Z</time>
      </trkpt>
      <trkpt lat="45.11188" lon="2.6113">
        <ele>1119.3</ele>
        <time>2021-08-11T08:46:43Z</time>
      </trkpt>
      <trkpt lat="45.11189" lon="2.61132">
        <ele>1119.5</ele>
        <time>2021-08-11T08:46:44Z</time>
      </trkpt>
      <trkpt lat="45.11189" lon="2.61133">
        <ele>1119.7</ele>
        <time>2021-08-11T08:46:45Z</time>
      </trkpt>
      <trkpt lat="45.11189" lon="2.61135">
        <ele>1119.8</ele>
        <time>2021-08-11T08:46:46Z</time>
      </trkpt>
      <trkpt lat="45.11189" lon="2.61136">
        <ele>1120</ele>
        <time>2021-08-11T08:46:47Z</time>
      </trkpt>
      <trkpt lat="45.11189" lon="2.61138">
        <ele>1120.2</ele>
        <time>2021-08-11T08:46:48Z</time>
      </trkpt>
      <trkpt lat="45.11189" lon="2.61139">
        <ele>1120.3</ele>
        <time>2021-08-11T08:46:49Z</time>
      </trkpt>
      <trkpt lat="45.11189" lon="2.61141">
        <ele>1120.6</ele>
        <time>2021-08-11T08:46:50Z</time>
      </trkpt>
      <trkpt lat="45.11189" lon="2.61143">
        <ele>1120.7</ele>
        <time>2021-08-11T08:46:51Z</time>
      </trkpt>
      <trkpt lat="45.11189" lon="2.61144">
        <ele>1120.9</ele>
        <time>2021-08-11T08:46:52Z</time>
      </trkpt>
      <trkpt lat="45.1119" lon="2.61146">
        <ele>1121</ele>
        <time>2021-08-11T08:46:53Z</time>
      </trkpt>
      <trkpt lat="45.1119" lon="2.61147">
        <ele>1121.2</ele>
        <time>2021-08-11T08:46:54Z</time>
      </trkpt>
      <trkpt lat="45.1119" lon="2.61149">
        <ele>1121.3</ele>
        <time>2021-08-11T08:46:55Z</time>
      </trkpt>
      <trkpt lat="45.1119" lon="2.61151">
        <ele>1121.5</ele>
        <time>2021-08-11T08:46:56Z</time>
      </trkpt>
      <trkpt lat="45.11191" lon="2.61152">
        <ele>1121.6</ele>
        <time>2021-08-11T08:46:57Z</time>
      </trkpt>
      <trkpt lat="45.11191" lon="2.61154">
        <ele>1121.7</ele>
        <time>2021-08-11T08:46:58Z</time>
      </trkpt>
      <trkpt lat="45.11191" lon="2.61155">
        <ele>1121.9</ele>
        <time>2021-08-11T08:46:59Z</time>
      </trkpt>
      <trkpt lat="45.11191" lon="2.61157">
        <ele>1122.1</ele>
        <time>2021-08-11T08:47:00Z</time>
      </trkpt>
      <trkpt lat="45.11192" lon="2.61158">
        <ele>1122.2</ele>
        <time>2021-08-11T08:47:01Z</time>
      </trkpt>
      <trkpt lat="45.11192" lon="2.6116">
        <ele>1122.3</ele>
        <time>2021-08-11T08:47:02Z</time>
      </trkpt>
      <trkpt lat="45.11192" lon="2.61162">
        <ele>1122.4</ele>
        <time>2021-08-11T08:47:03Z</time>
      </trkpt>
      <trkpt lat="45.11193" lon="2.61163">
        <ele>1122.6</ele>
        <time>2021-08-11T08:47:04Z</time>
      </trkpt>
      <trkpt lat="45.11193" lon="2.61165">
        <ele>1122.8</ele>
        <time>2021-08-11T08:47:05Z</time>
      </trkpt>
      <trkpt lat="45.11193" lon="2.61166">
        <ele>1122.9</ele>
        <time>2021-08-11T08:47:06Z</time>
      </trkpt>
      <trkpt lat="45.11193" lon="2.61168">
        <ele>1123.1</ele>
        <time>2021-08-11T08:47:07Z</time>
      </trkpt>
      <trkpt lat="45.11193" lon="2.61169">
        <ele>1123.3</ele>
        <time>2021-08-11T08:47:08Z</time>
      </trkpt>
      <trkpt lat="45.11193" lon="2.61171">
        <ele>1123.5</ele>
        <time>2021-08-11T08:47:09Z</time>
      </trkpt>
      <trkpt lat="45.11193" lon="2.61172">
        <ele>1123.7</ele>
        <time>2021-08-11T08:47:10Z</time>
      </trkpt>
      <trkpt lat="45.11194" lon="2.61174">
        <ele>1123.8</ele>
        <time>2021-08-11T08:47:11Z</time>
      </trkpt>
      <trkpt lat="45.11194" lon="2.61175">
        <ele>1124</ele>
        <time>2021-08-11T08:47:12Z</time>
      </trkpt>
      <trkpt lat="45.11194" lon="2.61177">
        <ele>1124.2</ele>
        <time>2021-08-11T08:47:13Z</time>
      </trkpt>
      <trkpt lat="45.11194" lon="2.61178">
        <ele>1124.4</ele>
        <time>2021-08-11T08:47:14Z</time>
      </trkpt>
      <trkpt lat="45.11194" lon="2.6118">
        <ele>1124.6</ele>
        <time>2021-08-11T08:47:15Z</time>
      </trkpt>
      <trkpt lat="45.11194" lon="2.61181">
        <ele>1124.8</ele>
        <time>2021-08-11T08:47:16Z</time>
      </trkpt>
      <trkpt lat="45.11195" lon="2.61183">
        <ele>1124.9</ele>
        <time>2021-08-11T08:47:17Z</time>
      </trkpt>
      <trkpt lat="45.11195" lon="2.61184">
        <ele>1125.1</ele>
        <time>2021-08-11T08:47:18Z</time>
      </trkpt>
      <trkpt lat="45.11195" lon="2.61186">
        <ele>1125.3</ele>
        <time>2021-08-11T08:47:19Z</time>
      </trkpt>
      <trkpt lat="45.11195" lon="2.61187">
        <ele>1125.4</ele>
        <time>2021-08-11T08:47:20Z</time>
      </trkpt>
      <trkpt lat="45.11195" lon="2.61189">
        <ele>1125.6</ele>
        <time>2021-08-11T08:47:21Z</time>
      </trkpt>
      <trkpt lat="45.11196" lon="2.6119">
        <ele>1125.8</ele>
        <time>2021-08-11T08:47:22Z</time>
      </trkpt>
      <trkpt lat="45.11196" lon="2.61192">
        <ele>1126</ele>
        <time>2021-08-11T08:47:23Z</time>
      </trkpt>
      <trkpt lat="45.11196" lon="2.61193">
        <ele>1126.1</ele>
        <time>2021-08-11T08:47:24Z</time>
      </trkpt>
      <trkpt lat="45.11196" lon="2.61195">
        <ele>1126.3</ele>
        <time>2021-08-11T08:47:25Z</time>
      </trkpt>
      <trkpt lat="45.11196" lon="2.61196">
        <ele>1126.5</ele>
        <time>2021-08-11T08:47:26Z</time>
      </trkpt>
      <trkpt lat="45.11196" lon="2.61198">
        <ele>1126.7</ele>
        <time>2021-08-11T08:47:27Z</time>
      </trkpt>
      <trkpt lat="45.11197" lon="2.612">
        <ele>1126.9</ele>
        <time>2021-08-11T08:47:28Z</time>
      </trkpt>
      <trkpt lat="45.11197" lon="2.61201">
        <ele>1127</ele>
        <time>2021-08-11T08:47:29Z</time>
      </trkpt>
      <trkpt lat="45.11197" lon="2.61202">
        <ele>1127.2</ele>
        <time>2021-08-11T08:47:30Z</time>
      </trkpt>
      <trkpt lat="45.11197" lon="2.61204">
        <ele>1127.4</ele>
        <time>2021-08-11T08:47:31Z</time>
      </trkpt>
      <trkpt lat="45.11197" lon="2.61205">
        <ele>1127.5</ele>
        <time>2021-08-11T08:47:32Z</time>
      </trkpt>
      <trkpt lat="45.11197" lon="2.61207">
        <ele>1127.7</ele>
        <time>2021-08-11T08:47:33Z</time>
      </trkpt>
      <trkpt lat="45.11198" lon="2.61209">
        <ele>1127.9</ele>
        <time>2021-08-11T08:47:34Z</time>
      </trkpt>
      <trkpt lat="45.11198" lon="2.6121">
        <ele>1128.1</ele>
        <time>2021-08-11T08:47:35Z</time>
      </trkpt>
      <trkpt lat="45.11198" lon="2.61212">
        <ele>1128.3</ele>
        <time>2021-08-11T08:47:36Z</time>
      </trkpt>
      <trkpt lat="45.11198" lon="2.61214">
        <ele>1128.5</ele>
        <time>2021-08-11T08:47:37Z</time>
      </trkpt>
      <trkpt lat="45.11198" lon="2.61215">
        <ele>1128.6</ele>
        <time>2021-08-11T08:47:38Z</time>
      </trkpt>
      <trkpt lat="45.11198" lon="2.61216">
        <ele>1128.9</ele>
        <time>2021-08-11T08:47:39Z</time>
      </trkpt>
      <trkpt lat="45.11198" lon="2.61218">
        <ele>1129.1</ele>
        <time>2021-08-11T08:47:40Z</time>
      </trkpt>
      <trkpt lat="45.11198" lon="2.6122">
        <ele>1129.4</ele>
        <time>2021-08-11T08:47:41Z</time>
      </trkpt>
      <trkpt lat="45.11198" lon="2.61221">
        <ele>1129.6</ele>
        <time>2021-08-11T08:47:42Z</time>
      </trkpt>
      <trkpt lat="45.11198" lon="2.61223">
        <ele>1129.8</ele>
        <time>2021-08-11T08:47:43Z</time>
      </trkpt>
      <trkpt lat="45.11198" lon="2.61225">
        <ele>1130</ele>
        <time>2021-08-11T08:47:44Z</time>
      </trkpt>
      <trkpt lat="45.11199" lon="2.61226">
        <ele>1130.2</ele>
        <time>2021-08-11T08:47:45Z</time>
      </trkpt>
      <trkpt lat="45.11199" lon="2.61227">
        <ele>1130.3</ele>
        <time>2021-08-11T08:47:46Z</time>
      </trkpt>
      <trkpt lat="45.11199" lon="2.61229">
        <ele>1130.4</ele>
        <time>2021-08-11T08:47:47Z</time>
      </trkpt>
      <trkpt lat="45.112" lon="2.61231">
        <ele>1130.6</ele>
        <time>2021-08-11T08:47:48Z</time>
      </trkpt>
      <trkpt lat="45.112" lon="2.61232">
        <ele>1130.7</ele>
        <time>2021-08-11T08:47:49Z</time>
      </trkpt>
      <trkpt lat="45.112" lon="2.61233">
        <ele>1130.8</ele>
        <time>2021-08-11T08:47:50Z</time>
      </trkpt>
      <trkpt lat="45.112" lon="2.61235">
        <ele>1131</ele>
        <time>2021-08-11T08:47:51Z</time>
      </trkpt>
      <trkpt lat="45.11201" lon="2.61236">
        <ele>1131.1</ele>
        <time>2021-08-11T08:47:52Z</time>
      </trkpt>
      <trkpt lat="45.11201" lon="2.61237">
        <ele>1131.2</ele>
        <time>2021-08-11T08:47:53Z</time>
      </trkpt>
      <trkpt lat="45.11201" lon="2.61239">
        <ele>1131.3</ele>
        <time>2021-08-11T08:47:54Z</time>
      </trkpt>
      <trkpt lat="45.11202" lon="2.6124">
        <ele>1131.5</ele>
        <time>2021-08-11T08:47:55Z</time>
      </trkpt>
      <trkpt lat="45.11202" lon="2.61242">
        <ele>1131.6</ele>
        <time>2021-08-11T08:47:56Z</time>
      </trkpt>
      <trkpt lat="45.11203" lon="2.61243">
        <ele>1131.6</ele>
        <time>2021-08-11T08:47:57Z</time>
      </trkpt>
      <trkpt lat="45.11203" lon="2.61244">
        <ele>1131.7</ele>
        <time>2021-08-11T08:47:58Z</time>
      </trkpt>
      <trkpt lat="45.11203" lon="2.61244">
        <ele>1131.7</ele>
        <time>2021-08-11T08:47:59Z</time>
      </trkpt>
      <trkpt lat="45.11204" lon="2.61246">
        <ele>1131.8</ele>
        <time>2021-08-11T08:48:00Z</time>
      </trkpt>
      <trkpt lat="45.11204" lon="2.61247">
        <ele>1131.9</ele>
        <time>2021-08-11T08:48:01Z</time>
      </trkpt>
      <trkpt lat="45.11204" lon="2.61248">
        <ele>1132.1</ele>
        <time>2021-08-11T08:48:02Z</time>
      </trkpt>
      <trkpt lat="45.11204" lon="2.61248">
        <ele>1132.2</ele>
        <time>2021-08-11T08:48:03Z</time>
      </trkpt>
      <trkpt lat="45.11204" lon="2.61249">
        <ele>1132.3</ele>
        <time>2021-08-11T08:48:04Z</time>
      </trkpt>
      <trkpt lat="45.11204" lon="2.6125">
        <ele>1132.4</ele>
        <time>2021-08-11T08:48:05Z</time>
      </trkpt>
      <trkpt lat="45.11205" lon="2.61251">
        <ele>1132.5</ele>
        <time>2021-08-11T08:48:06Z</time>
      </trkpt>
      <trkpt lat="45.11205" lon="2.61252">
        <ele>1132.5</ele>
        <time>2021-08-11T08:48:07Z</time>
      </trkpt>
      <trkpt lat="45.11205" lon="2.61253">
        <ele>1132.6</ele>
        <time>2021-08-11T08:48:08Z</time>
      </trkpt>
      <trkpt lat="45.11206" lon="2.61254">
        <ele>1132.7</ele>
        <time>2021-08-11T08:48:09Z</time>
      </trkpt>
      <trkpt lat="45.11206" lon="2.61255">
        <ele>1132.8</ele>
        <time>2021-08-11T08:48:10Z</time>
      </trkpt>
      <trkpt lat="45.11207" lon="2.61256">
        <ele>1132.9</ele>
        <time>2021-08-11T08:48:11Z</time>
      </trkpt>
      <trkpt lat="45.11207" lon="2.61257">
        <ele>1132.9</ele>
        <time>2021-08-11T08:48:12Z</time>
      </trkpt>
      <trkpt lat="45.11208" lon="2.61258">
        <ele>1133</ele>
        <time>2021-08-11T08:48:13Z</time>
      </trkpt>
      <trkpt lat="45.11208" lon="2.61259">
        <ele>1133</ele>
        <time>2021-08-11T08:48:14Z</time>
      </trkpt>
      <trkpt lat="45.11209" lon="2.6126">
        <ele>1133</ele>
        <time>2021-08-11T08:48:15Z</time>
      </trkpt>
      <trkpt lat="45.1121" lon="2.6126">
        <ele>1133</ele>
        <time>2021-08-11T08:48:16Z</time>
      </trkpt>
      <trkpt lat="45.1121" lon="2.61261">
        <ele>1133</ele>
        <time>2021-08-11T08:48:17Z</time>
      </trkpt>
      <trkpt lat="45.11211" lon="2.61262">
        <ele>1133</ele>
        <time>2021-08-11T08:48:18Z</time>
      </trkpt>
      <trkpt lat="45.11212" lon="2.61263">
        <ele>1133.1</ele>
        <time>2021-08-11T08:48:19Z</time>
      </trkpt>
      <trkpt lat="45.11213" lon="2.61264">
        <ele>1133.1</ele>
        <time>2021-08-11T08:48:20Z</time>
      </trkpt>
      <trkpt lat="45.11213" lon="2.61265">
        <ele>1133.1</ele>
        <time>2021-08-11T08:48:21Z</time>
      </trkpt>
      <trkpt lat="45.11214" lon="2.61266">
        <ele>1133.2</ele>
        <time>2021-08-11T08:48:22Z</time>
      </trkpt>
      <trkpt lat="45.11214" lon="2.61267">
        <ele>1133.2</ele>
        <time>2021-08-11T08:48:23Z</time>
      </trkpt>
      <trkpt lat="45.11214" lon="2.61268">
        <ele>1133.3</ele>
        <time>2021-08-11T08:48:24Z</time>
      </trkpt>
      <trkpt lat="45.11214" lon="2.61268">
        <ele>1133.3</ele>
        <time>2021-08-11T08:48:25Z</time>
      </trkpt>
      <trkpt lat="45.11214" lon="2.61268">
        <ele>1133.3</ele>
        <time>2021-08-11T08:48:26Z</time>
      </trkpt>
      <trkpt lat="45.11215" lon="2.61268">
        <ele>1133.3</ele>
        <time>2021-08-11T08:48:27Z</time>
      </trkpt>
      <trkpt lat="45.11215" lon="2.61268">
        <ele>1133.3</ele>
        <time>2021-08-11T08:48:28Z</time>
      </trkpt>
      <trkpt lat="45.11215" lon="2.61268">
        <ele>1133.3</ele>
        <time>2021-08-11T08:48:29Z</time>
      </trkpt>
      <trkpt lat="45.11215" lon="2.61268">
        <ele>1133.3</ele>
        <time>2021-08-11T08:48:30Z</time>
      </trkpt>
      <trkpt lat="45.11215" lon="2.61268">
        <ele>1133.3</ele>
        <time>2021-08-11T08:48:31Z</time>
      </trkpt>
      <trkpt lat="45.11215" lon="2.61269">
        <ele>1133.3</ele>
        <time>2021-08-11T08:48:32Z</time>
      </trkpt>
      <trkpt lat="45.11216" lon="2.6127">
        <ele>1133.3</ele>
        <time>2021-08-11T08:48:33Z</time>
      </trkpt>
      <trkpt lat="45.11216" lon="2.6127">
        <ele>1133.4</ele>
        <time>2021-08-11T08:48:34Z</time>
      </trkpt>
      <trkpt lat="45.11217" lon="2.61271">
        <ele>1133.4</ele>
        <time>2021-08-11T08:48:35Z</time>
      </trkpt>
      <trkpt lat="45.11217" lon="2.61272">
        <ele>1133.4</ele>
        <time>2021-08-11T08:48:36Z</time>
      </trkpt>
      <trkpt lat="45.11218" lon="2.61273">
        <ele>1133.4</ele>
        <time>2021-08-11T08:48:37Z</time>
      </trkpt>
      <trkpt lat="45.11219" lon="2.61274">
        <ele>1133.5</ele>
        <time>2021-08-11T08:48:38Z</time>
      </trkpt>
      <trkpt lat="45.11219" lon="2.61275">
        <ele>1133.5</ele>
        <time>2021-08-11T08:48:39Z</time>
      </trkpt>
      <trkpt lat="45.1122" lon="2.61276">
        <ele>1133.5</ele>
        <time>2021-08-11T08:48:40Z</time>
      </trkpt>
      <trkpt lat="45.11221" lon="2.61277">
        <ele>1133.4</ele>
        <time>2021-08-11T08:48:41Z</time>
      </trkpt>
      <trkpt lat="45.11222" lon="2.61278">
        <ele>1133.3</ele>
        <time>2021-08-11T08:48:42Z</time>
      </trkpt>
      <trkpt lat="45.11222" lon="2.61278">
        <ele>1133.3</ele>
        <time>2021-08-11T08:48:43Z</time>
      </trkpt>
      <trkpt lat="45.11223" lon="2.61279">
        <ele>1133.4</ele>
        <time>2021-08-11T08:48:44Z</time>
      </trkpt>
      <trkpt lat="45.11223" lon="2.6128">
        <ele>1133.5</ele>
        <time>2021-08-11T08:48:45Z</time>
      </trkpt>
      <trkpt lat="45.11224" lon="2.61281">
        <ele>1133.6</ele>
        <time>2021-08-11T08:48:46Z</time>
      </trkpt>
      <trkpt lat="45.11224" lon="2.61282">
        <ele>1133.6</ele>
        <time>2021-08-11T08:48:47Z</time>
      </trkpt>
      <trkpt lat="45.11225" lon="2.61283">
        <ele>1133.7</ele>
        <time>2021-08-11T08:48:48Z</time>
      </trkpt>
      <trkpt lat="45.11226" lon="2.61284">
        <ele>1133.7</ele>
        <time>2021-08-11T08:48:49Z</time>
      </trkpt>
      <trkpt lat="45.11226" lon="2.61285">
        <ele>1133.7</ele>
        <time>2021-08-11T08:48:50Z</time>
      </trkpt>
      <trkpt lat="45.11227" lon="2.61286">
        <ele>1133.8</ele>
        <time>2021-08-11T08:48:51Z</time>
      </trkpt>
      <trkpt lat="45.11228" lon="2.61287">
        <ele>1133.8</ele>
        <time>2021-08-11T08:48:52Z</time>
      </trkpt>
      <trkpt lat="45.11229" lon="2.61288">
        <ele>1133.8</ele>
        <time>2021-08-11T08:48:53Z</time>
      </trkpt>
      <trkpt lat="45.11229" lon="2.61289">
        <ele>1133.8</ele>
        <time>2021-08-11T08:48:54Z</time>
      </trkpt>
      <trkpt lat="45.1123" lon="2.6129">
        <ele>1133.8</ele>
        <time>2021-08-11T08:48:55Z</time>
      </trkpt>
      <trkpt lat="45.1123" lon="2.61291">
        <ele>1133.9</ele>
        <time>2021-08-11T08:48:56Z</time>
      </trkpt>
      <trkpt lat="45.11231" lon="2.61292">
        <ele>1133.9</ele>
        <time>2021-08-11T08:48:57Z</time>
      </trkpt>
      <trkpt lat="45.11231" lon="2.61293">
        <ele>1134</ele>
        <time>2021-08-11T08:48:58Z</time>
      </trkpt>
      <trkpt lat="45.11232" lon="2.61294">
        <ele>1134.1</ele>
        <time>2021-08-11T08:48:59Z</time>
      </trkpt>
      <trkpt lat="45.11232" lon="2.61295">
        <ele>1134.2</ele>
        <time>2021-08-11T08:49:00Z</time>
      </trkpt>
      <trkpt lat="45.11233" lon="2.61296">
        <ele>1134.3</ele>
        <time>2021-08-11T08:49:01Z</time>
      </trkpt>
      <trkpt lat="45.11233" lon="2.61297">
        <ele>1134.4</ele>
        <time>2021-08-11T08:49:02Z</time>
      </trkpt>
      <trkpt lat="45.11233" lon="2.61298">
        <ele>1134.5</ele>
        <time>2021-08-11T08:49:03Z</time>
      </trkpt>
      <trkpt lat="45.11234" lon="2.613">
        <ele>1134.6</ele>
        <time>2021-08-11T08:49:04Z</time>
      </trkpt>
      <trkpt lat="45.11234" lon="2.613">
        <ele>1134.7</ele>
        <time>2021-08-11T08:49:05Z</time>
      </trkpt>
      <trkpt lat="45.11235" lon="2.61302">
        <ele>1134.7</ele>
        <time>2021-08-11T08:49:06Z</time>
      </trkpt>
      <trkpt lat="45.11236" lon="2.61303">
        <ele>1134.8</ele>
        <time>2021-08-11T08:49:07Z</time>
      </trkpt>
      <trkpt lat="45.11236" lon="2.61304">
        <ele>1134.8</ele>
        <time>2021-08-11T08:49:08Z</time>
      </trkpt>
      <trkpt lat="45.11237" lon="2.61304">
        <ele>1134.7</ele>
        <time>2021-08-11T08:49:09Z</time>
      </trkpt>
      <trkpt lat="45.11238" lon="2.61306">
        <ele>1134.7</ele>
        <time>2021-08-11T08:49:10Z</time>
      </trkpt>
      <trkpt lat="45.11239" lon="2.61307">
        <ele>1134.7</ele>
        <time>2021-08-11T08:49:11Z</time>
      </trkpt>
      <trkpt lat="45.1124" lon="2.61308">
        <ele>1134.7</ele>
        <time>2021-08-11T08:49:12Z</time>
      </trkpt>
      <trkpt lat="45.11241" lon="2.61309">
        <ele>1134.8</ele>
        <time>2021-08-11T08:49:13Z</time>
      </trkpt>
      <trkpt lat="45.11241" lon="2.6131">
        <ele>1134.8</ele>
        <time>2021-08-11T08:49:14Z</time>
      </trkpt>
      <trkpt lat="45.11242" lon="2.61311">
        <ele>1134.8</ele>
        <time>2021-08-11T08:49:15Z</time>
      </trkpt>
      <trkpt lat="45.11243" lon="2.61312">
        <ele>1134.9</ele>
        <time>2021-08-11T08:49:16Z</time>
      </trkpt>
      <trkpt lat="45.11244" lon="2.61313">
        <ele>1134.9</ele>
        <time>2021-08-11T08:49:17Z</time>
      </trkpt>
      <trkpt lat="45.11244" lon="2.61314">
        <ele>1134.9</ele>
        <time>2021-08-11T08:49:18Z</time>
      </trkpt>
      <trkpt lat="45.11245" lon="2.61315">
        <ele>1135</ele>
        <time>2021-08-11T08:49:19Z</time>
      </trkpt>
      <trkpt lat="45.11245" lon="2.61316">
        <ele>1135.1</ele>
        <time>2021-08-11T08:49:20Z</time>
      </trkpt>
      <trkpt lat="45.11246" lon="2.61317">
        <ele>1135.1</ele>
        <time>2021-08-11T08:49:21Z</time>
      </trkpt>
      <trkpt lat="45.11247" lon="2.61318">
        <ele>1135.1</ele>
        <time>2021-08-11T08:49:22Z</time>
      </trkpt>
      <trkpt lat="45.11247" lon="2.61319">
        <ele>1135.2</ele>
        <time>2021-08-11T08:49:23Z</time>
      </trkpt>
      <trkpt lat="45.11248" lon="2.6132">
        <ele>1135.1</ele>
        <time>2021-08-11T08:49:24Z</time>
      </trkpt>
      <trkpt lat="45.11249" lon="2.6132">
        <ele>1135.1</ele>
        <time>2021-08-11T08:49:25Z</time>
      </trkpt>
      <trkpt lat="45.11249" lon="2.61322">
        <ele>1135.1</ele>
        <time>2021-08-11T08:49:26Z</time>
      </trkpt>
      <trkpt lat="45.1125" lon="2.61323">
        <ele>1135.2</ele>
        <time>2021-08-11T08:49:27Z</time>
      </trkpt>
      <trkpt lat="45.1125" lon="2.61323">
        <ele>1135.2</ele>
        <time>2021-08-11T08:49:28Z</time>
      </trkpt>
      <trkpt lat="45.11251" lon="2.61323">
        <ele>1135.2</ele>
        <time>2021-08-11T08:49:29Z</time>
      </trkpt>
      <trkpt lat="45.11251" lon="2.61324">
        <ele>1135.3</ele>
        <time>2021-08-11T08:49:30Z</time>
      </trkpt>
      <trkpt lat="45.11252" lon="2.61325">
        <ele>1135.5</ele>
        <time>2021-08-11T08:49:31Z</time>
      </trkpt>
      <trkpt lat="45.11252" lon="2.61326">
        <ele>1135.6</ele>
        <time>2021-08-11T08:49:32Z</time>
      </trkpt>
      <trkpt lat="45.11253" lon="2.61327">
        <ele>1135.8</ele>
        <time>2021-08-11T08:49:33Z</time>
      </trkpt>
      <trkpt lat="45.11254" lon="2.61328">
        <ele>1136</ele>
        <time>2021-08-11T08:49:34Z</time>
      </trkpt>
      <trkpt lat="45.11255" lon="2.61329">
        <ele>1136.1</ele>
        <time>2021-08-11T08:49:35Z</time>
      </trkpt>
      <trkpt lat="45.11255" lon="2.6133">
        <ele>1136.3</ele>
        <time>2021-08-11T08:49:36Z</time>
      </trkpt>
      <trkpt lat="45.11256" lon="2.61331">
        <ele>1136.4</ele>
        <time>2021-08-11T08:49:37Z</time>
      </trkpt>
      <trkpt lat="45.11257" lon="2.61332">
        <ele>1136.6</ele>
        <time>2021-08-11T08:49:38Z</time>
      </trkpt>
      <trkpt lat="45.11257" lon="2.61333">
        <ele>1136.7</ele>
        <time>2021-08-11T08:49:39Z</time>
      </trkpt>
      <trkpt lat="45.11258" lon="2.61334">
        <ele>1136.9</ele>
        <time>2021-08-11T08:49:40Z</time>
      </trkpt>
      <trkpt lat="45.11259" lon="2.61336">
        <ele>1137</ele>
        <time>2021-08-11T08:49:41Z</time>
      </trkpt>
      <trkpt lat="45.11259" lon="2.61337">
        <ele>1137.2</ele>
        <time>2021-08-11T08:49:42Z</time>
      </trkpt>
      <trkpt lat="45.1126" lon="2.61338">
        <ele>1137.3</ele>
        <time>2021-08-11T08:49:43Z</time>
      </trkpt>
      <trkpt lat="45.11261" lon="2.61339">
        <ele>1137.5</ele>
        <time>2021-08-11T08:49:44Z</time>
      </trkpt>
      <trkpt lat="45.11261" lon="2.6134">
        <ele>1137.6</ele>
        <time>2021-08-11T08:49:45Z</time>
      </trkpt>
      <trkpt lat="45.11262" lon="2.61341">
        <ele>1137.8</ele>
        <time>2021-08-11T08:49:46Z</time>
      </trkpt>
      <trkpt lat="45.11262" lon="2.61343">
        <ele>1137.9</ele>
        <time>2021-08-11T08:49:47Z</time>
      </trkpt>
      <trkpt lat="45.11263" lon="2.61344">
        <ele>1138.1</ele>
        <time>2021-08-11T08:49:48Z</time>
      </trkpt>
      <trkpt lat="45.11263" lon="2.61345">
        <ele>1138.3</ele>
        <time>2021-08-11T08:49:49Z</time>
      </trkpt>
      <trkpt lat="45.11264" lon="2.61346">
        <ele>1138.4</ele>
        <time>2021-08-11T08:49:50Z</time>
      </trkpt>
      <trkpt lat="45.11264" lon="2.61348">
        <ele>1138.6</ele>
        <time>2021-08-11T08:49:51Z</time>
      </trkpt>
      <trkpt lat="45.11265" lon="2.61349">
        <ele>1138.8</ele>
        <time>2021-08-11T08:49:52Z</time>
      </trkpt>
      <trkpt lat="45.11265" lon="2.61351">
        <ele>1138.9</ele>
        <time>2021-08-11T08:49:53Z</time>
      </trkpt>
      <trkpt lat="45.11266" lon="2.61352">
        <ele>1139.1</ele>
        <time>2021-08-11T08:49:54Z</time>
      </trkpt>
      <trkpt lat="45.11267" lon="2.61353">
        <ele>1139.2</ele>
        <time>2021-08-11T08:49:55Z</time>
      </trkpt>
      <trkpt lat="45.11267" lon="2.61354">
        <ele>1139.3</ele>
        <time>2021-08-11T08:49:56Z</time>
      </trkpt>
      <trkpt lat="45.11268" lon="2.61355">
        <ele>1139.5</ele>
        <time>2021-08-11T08:49:57Z</time>
      </trkpt>
      <trkpt lat="45.11269" lon="2.61356">
        <ele>1139.6</ele>
        <time>2021-08-11T08:49:58Z</time>
      </trkpt>
      <trkpt lat="45.11269" lon="2.61357">
        <ele>1139.7</ele>
        <time>2021-08-11T08:49:59Z</time>
      </trkpt>
      <trkpt lat="45.1127" lon="2.61359">
        <ele>1139.9</ele>
        <time>2021-08-11T08:50:00Z</time>
      </trkpt>
      <trkpt lat="45.1127" lon="2.6136">
        <ele>1140</ele>
        <time>2021-08-11T08:50:01Z</time>
      </trkpt>
      <trkpt lat="45.11271" lon="2.61361">
        <ele>1140.1</ele>
        <time>2021-08-11T08:50:02Z</time>
      </trkpt>
      <trkpt lat="45.11271" lon="2.61362">
        <ele>1140.3</ele>
        <time>2021-08-11T08:50:03Z</time>
      </trkpt>
      <trkpt lat="45.11272" lon="2.61363">
        <ele>1140.4</ele>
        <time>2021-08-11T08:50:04Z</time>
      </trkpt>
      <trkpt lat="45.11272" lon="2.61365">
        <ele>1140.6</ele>
        <time>2021-08-11T08:50:05Z</time>
      </trkpt>
      <trkpt lat="45.11273" lon="2.61366">
        <ele>1140.7</ele>
        <time>2021-08-11T08:50:06Z</time>
      </trkpt>
      <trkpt lat="45.11273" lon="2.61367">
        <ele>1140.8</ele>
        <time>2021-08-11T08:50:07Z</time>
      </trkpt>
      <trkpt lat="45.11274" lon="2.61368">
        <ele>1141</ele>
        <time>2021-08-11T08:50:08Z</time>
      </trkpt>
      <trkpt lat="45.11274" lon="2.61369">
        <ele>1141.1</ele>
        <time>2021-08-11T08:50:09Z</time>
      </trkpt>
      <trkpt lat="45.11275" lon="2.6137">
        <ele>1141.2</ele>
        <time>2021-08-11T08:50:10Z</time>
      </trkpt>
      <trkpt lat="45.11275" lon="2.61371">
        <ele>1141.4</ele>
        <time>2021-08-11T08:50:11Z</time>
      </trkpt>
      <trkpt lat="45.11275" lon="2.61373">
        <ele>1141.5</ele>
        <time>2021-08-11T08:50:12Z</time>
      </trkpt>
      <trkpt lat="45.11276" lon="2.61374">
        <ele>1141.6</ele>
        <time>2021-08-11T08:50:13Z</time>
      </trkpt>
      <trkpt lat="45.11276" lon="2.61375">
        <ele>1141.8</ele>
        <time>2021-08-11T08:50:14Z</time>
      </trkpt>
      <trkpt lat="45.11277" lon="2.61376">
        <ele>1141.9</ele>
        <time>2021-08-11T08:50:15Z</time>
      </trkpt>
      <trkpt lat="45.11277" lon="2.61378">
        <ele>1142.1</ele>
        <time>2021-08-11T08:50:16Z</time>
      </trkpt>
      <trkpt lat="45.11278" lon="2.61379">
        <ele>1142.2</ele>
        <time>2021-08-11T08:50:17Z</time>
      </trkpt>
      <trkpt lat="45.11278" lon="2.6138">
        <ele>1142.4</ele>
        <time>2021-08-11T08:50:18Z</time>
      </trkpt>
      <trkpt lat="45.11278" lon="2.61382">
        <ele>1142.5</ele>
        <time>2021-08-11T08:50:19Z</time>
      </trkpt>
      <trkpt lat="45.11279" lon="2.61382">
        <ele>1142.6</ele>
        <time>2021-08-11T08:50:20Z</time>
      </trkpt>
      <trkpt lat="45.1128" lon="2.61383">
        <ele>1142.7</ele>
        <time>2021-08-11T08:50:21Z</time>
      </trkpt>
      <trkpt lat="45.1128" lon="2.61385">
        <ele>1142.8</ele>
        <time>2021-08-11T08:50:22Z</time>
      </trkpt>
      <trkpt lat="45.11281" lon="2.61386">
        <ele>1142.9</ele>
        <time>2021-08-11T08:50:23Z</time>
      </trkpt>
      <trkpt lat="45.11281" lon="2.61387">
        <ele>1143</ele>
        <time>2021-08-11T08:50:24Z</time>
      </trkpt>
      <trkpt lat="45.11282" lon="2.61388">
        <ele>1143.1</ele>
        <time>2021-08-11T08:50:25Z</time>
      </trkpt>
      <trkpt lat="45.11282" lon="2.61389">
        <ele>1143.2</ele>
        <time>2021-08-11T08:50:26Z</time>
      </trkpt>
      <trkpt lat="45.11283" lon="2.6139">
        <ele>1143.4</ele>
        <time>2021-08-11T08:50:27Z</time>
      </trkpt>
      <trkpt lat="45.11283" lon="2.61392">
        <ele>1143.6</ele>
        <time>2021-08-11T08:50:28Z</time>
      </trkpt>
      <trkpt lat="45.11283" lon="2.61393">
        <ele>1143.7</ele>
        <time>2021-08-11T08:50:29Z</time>
      </trkpt>
      <trkpt lat="45.11283" lon="2.61394">
        <ele>1143.8</ele>
        <time>2021-08-11T08:50:30Z</time>
      </trkpt>
      <trkpt lat="45.11283" lon="2.61396">
        <ele>1144</ele>
        <time>2021-08-11T08:50:31Z</time>
      </trkpt>
      <trkpt lat="45.11284" lon="2.61397">
        <ele>1144.2</ele>
        <time>2021-08-11T08:50:32Z</time>
      </trkpt>
      <trkpt lat="45.11284" lon="2.61398">
        <ele>1144.3</ele>
        <time>2021-08-11T08:50:33Z</time>
      </trkpt>
      <trkpt lat="45.11285" lon="2.614">
        <ele>1144.4</ele>
        <time>2021-08-11T08:50:34Z</time>
      </trkpt>
      <trkpt lat="45.11285" lon="2.61401">
        <ele>1144.6</ele>
        <time>2021-08-11T08:50:35Z</time>
      </trkpt>
      <trkpt lat="45.11285" lon="2.61402">
        <ele>1144.7</ele>
        <time>2021-08-11T08:50:36Z</time>
      </trkpt>
      <trkpt lat="45.11286" lon="2.61404">
        <ele>1144.9</ele>
        <time>2021-08-11T08:50:37Z</time>
      </trkpt>
      <trkpt lat="45.11286" lon="2.61405">
        <ele>1145.1</ele>
        <time>2021-08-11T08:50:38Z</time>
      </trkpt>
      <trkpt lat="45.11286" lon="2.61407">
        <ele>1145.2</ele>
        <time>2021-08-11T08:50:39Z</time>
      </trkpt>
      <trkpt lat="45.11287" lon="2.61408">
        <ele>1145.4</ele>
        <time>2021-08-11T08:50:40Z</time>
      </trkpt>
      <trkpt lat="45.11287" lon="2.6141">
        <ele>1145.6</ele>
        <time>2021-08-11T08:50:41Z</time>
      </trkpt>
      <trkpt lat="45.11287" lon="2.61411">
        <ele>1145.8</ele>
        <time>2021-08-11T08:50:42Z</time>
      </trkpt>
      <trkpt lat="45.11287" lon="2.61413">
        <ele>1145.9</ele>
        <time>2021-08-11T08:50:43Z</time>
      </trkpt>
      <trkpt lat="45.11288" lon="2.61414">
        <ele>1146.1</ele>
        <time>2021-08-11T08:50:44Z</time>
      </trkpt>
      <trkpt lat="45.11288" lon="2.61416">
        <ele>1146.2</ele>
        <time>2021-08-11T08:50:45Z</time>
      </trkpt>
      <trkpt lat="45.11288" lon="2.61417">
        <ele>1146.4</ele>
        <time>2021-08-11T08:50:46Z</time>
      </trkpt>
      <trkpt lat="45.11289" lon="2.61418">
        <ele>1146.4</ele>
        <time>2021-08-11T08:50:47Z</time>
      </trkpt>
      <trkpt lat="45.11289" lon="2.61419">
        <ele>1146.5</ele>
        <time>2021-08-11T08:50:48Z</time>
      </trkpt>
      <trkpt lat="45.11289" lon="2.6142">
        <ele>1146.6</ele>
        <time>2021-08-11T08:50:49Z</time>
      </trkpt>
      <trkpt lat="45.11289" lon="2.61421">
        <ele>1146.7</ele>
        <time>2021-08-11T08:50:50Z</time>
      </trkpt>
      <trkpt lat="45.1129" lon="2.61422">
        <ele>1146.8</ele>
        <time>2021-08-11T08:50:51Z</time>
      </trkpt>
      <trkpt lat="45.1129" lon="2.61424">
        <ele>1146.9</ele>
        <time>2021-08-11T08:50:52Z</time>
      </trkpt>
      <trkpt lat="45.1129" lon="2.61425">
        <ele>1147</ele>
        <time>2021-08-11T08:50:53Z</time>
      </trkpt>
      <trkpt lat="45.11291" lon="2.61426">
        <ele>1147.1</ele>
        <time>2021-08-11T08:50:54Z</time>
      </trkpt>
      <trkpt lat="45.11291" lon="2.61428">
        <ele>1147.3</ele>
        <time>2021-08-11T08:50:55Z</time>
      </trkpt>
      <trkpt lat="45.11291" lon="2.61429">
        <ele>1147.4</ele>
        <time>2021-08-11T08:50:56Z</time>
      </trkpt>
      <trkpt lat="45.11291" lon="2.6143">
        <ele>1147.5</ele>
        <time>2021-08-11T08:50:57Z</time>
      </trkpt>
      <trkpt lat="45.11291" lon="2.61432">
        <ele>1147.7</ele>
        <time>2021-08-11T08:50:58Z</time>
      </trkpt>
      <trkpt lat="45.11291" lon="2.61433">
        <ele>1147.8</ele>
        <time>2021-08-11T08:50:59Z</time>
      </trkpt>
      <trkpt lat="45.11292" lon="2.61434">
        <ele>1147.9</ele>
        <time>2021-08-11T08:51:00Z</time>
      </trkpt>
      <trkpt lat="45.11292" lon="2.61436">
        <ele>1148</ele>
        <time>2021-08-11T08:51:01Z</time>
      </trkpt>
      <trkpt lat="45.11292" lon="2.61437">
        <ele>1148.1</ele>
        <time>2021-08-11T08:51:02Z</time>
      </trkpt>
      <trkpt lat="45.11292" lon="2.61438">
        <ele>1148.3</ele>
        <time>2021-08-11T08:51:03Z</time>
      </trkpt>
      <trkpt lat="45.11292" lon="2.61439">
        <ele>1148.4</ele>
        <time>2021-08-11T08:51:04Z</time>
      </trkpt>
      <trkpt lat="45.11292" lon="2.61441">
        <ele>1148.5</ele>
        <time>2021-08-11T08:51:05Z</time>
      </trkpt>
      <trkpt lat="45.11292" lon="2.61442">
        <ele>1148.7</ele>
        <time>2021-08-11T08:51:06Z</time>
      </trkpt>
      <trkpt lat="45.11293" lon="2.61444">
        <ele>1148.8</ele>
        <time>2021-08-11T08:51:07Z</time>
      </trkpt>
      <trkpt lat="45.11293" lon="2.61445">
        <ele>1148.9</ele>
        <time>2021-08-11T08:51:08Z</time>
      </trkpt>
      <trkpt lat="45.11293" lon="2.61446">
        <ele>1149.1</ele>
        <time>2021-08-11T08:51:09Z</time>
      </trkpt>
      <trkpt lat="45.11293" lon="2.61447">
        <ele>1149.2</ele>
        <time>2021-08-11T08:51:10Z</time>
      </trkpt>
      <trkpt lat="45.11293" lon="2.61449">
        <ele>1149.3</ele>
        <time>2021-08-11T08:51:11Z</time>
      </trkpt>
      <trkpt lat="45.11293" lon="2.6145">
        <ele>1149.5</ele>
        <time>2021-08-11T08:51:12Z</time>
      </trkpt>
      <trkpt lat="45.11293" lon="2.61451">
        <ele>1149.6</ele>
        <time>2021-08-11T08:51:13Z</time>
      </trkpt>
      <trkpt lat="45.11292" lon="2.61452">
        <ele>1149.7</ele>
        <time>2021-08-11T08:51:14Z</time>
      </trkpt>
      <trkpt lat="45.11292" lon="2.61454">
        <ele>1149.9</ele>
        <time>2021-08-11T08:51:15Z</time>
      </trkpt>
      <trkpt lat="45.11292" lon="2.61455">
        <ele>1150</ele>
        <time>2021-08-11T08:51:16Z</time>
      </trkpt>
      <trkpt lat="45.11293" lon="2.61456">
        <ele>1150.1</ele>
        <time>2021-08-11T08:51:17Z</time>
      </trkpt>
      <trkpt lat="45.11292" lon="2.61458">
        <ele>1150.3</ele>
        <time>2021-08-11T08:51:18Z</time>
      </trkpt>
      <trkpt lat="45.11292" lon="2.61459">
        <ele>1150.5</ele>
        <time>2021-08-11T08:51:19Z</time>
      </trkpt>
      <trkpt lat="45.11292" lon="2.6146">
        <ele>1150.7</ele>
        <time>2021-08-11T08:51:20Z</time>
      </trkpt>
      <trkpt lat="45.11292" lon="2.61462">
        <ele>1150.8</ele>
        <time>2021-08-11T08:51:21Z</time>
      </trkpt>
      <trkpt lat="45.11292" lon="2.61463">
        <ele>1150.9</ele>
        <time>2021-08-11T08:51:22Z</time>
      </trkpt>
      <trkpt lat="45.11293" lon="2.61464">
        <ele>1151</ele>
        <time>2021-08-11T08:51:23Z</time>
      </trkpt>
      <trkpt lat="45.11293" lon="2.61465">
        <ele>1151.1</ele>
        <time>2021-08-11T08:51:24Z</time>
      </trkpt>
      <trkpt lat="45.11293" lon="2.61466">
        <ele>1151.2</ele>
        <time>2021-08-11T08:51:25Z</time>
      </trkpt>
      <trkpt lat="45.11293" lon="2.61468">
        <ele>1151.4</ele>
        <time>2021-08-11T08:51:26Z</time>
      </trkpt>
      <trkpt lat="45.11293" lon="2.61469">
        <ele>1151.5</ele>
        <time>2021-08-11T08:51:27Z</time>
      </trkpt>
      <trkpt lat="45.11293" lon="2.6147">
        <ele>1151.6</ele>
        <time>2021-08-11T08:51:28Z</time>
      </trkpt>
      <trkpt lat="45.11293" lon="2.61471">
        <ele>1151.7</ele>
        <time>2021-08-11T08:51:29Z</time>
      </trkpt>
      <trkpt lat="45.11293" lon="2.61473">
        <ele>1151.8</ele>
        <time>2021-08-11T08:51:30Z</time>
      </trkpt>
      <trkpt lat="45.11294" lon="2.61474">
        <ele>1151.9</ele>
        <time>2021-08-11T08:51:31Z</time>
      </trkpt>
      <trkpt lat="45.11294" lon="2.61475">
        <ele>1152</ele>
        <time>2021-08-11T08:51:32Z</time>
      </trkpt>
      <trkpt lat="45.11294" lon="2.61476">
        <ele>1152</ele>
        <time>2021-08-11T08:51:33Z</time>
      </trkpt>
      <trkpt lat="45.11295" lon="2.61477">
        <ele>1152.1</ele>
        <time>2021-08-11T08:51:34Z</time>
      </trkpt>
      <trkpt lat="45.11295" lon="2.61479">
        <ele>1152.2</ele>
        <time>2021-08-11T08:51:35Z</time>
      </trkpt>
      <trkpt lat="45.11296" lon="2.6148">
        <ele>1152.2</ele>
        <time>2021-08-11T08:51:36Z</time>
      </trkpt>
      <trkpt lat="45.11296" lon="2.61481">
        <ele>1152.3</ele>
        <time>2021-08-11T08:51:37Z</time>
      </trkpt>
      <trkpt lat="45.11297" lon="2.61482">
        <ele>1152.3</ele>
        <time>2021-08-11T08:51:38Z</time>
      </trkpt>
      <trkpt lat="45.11297" lon="2.61483">
        <ele>1152.3</ele>
        <time>2021-08-11T08:51:39Z</time>
      </trkpt>
      <trkpt lat="45.11298" lon="2.61484">
        <ele>1152.3</ele>
        <time>2021-08-11T08:51:40Z</time>
      </trkpt>
      <trkpt lat="45.11299" lon="2.61485">
        <ele>1152.3</ele>
        <time>2021-08-11T08:51:41Z</time>
      </trkpt>
      <trkpt lat="45.11299" lon="2.61486">
        <ele>1152.4</ele>
        <time>2021-08-11T08:51:42Z</time>
      </trkpt>
      <trkpt lat="45.113" lon="2.61488">
        <ele>1152.4</ele>
        <time>2021-08-11T08:51:43Z</time>
      </trkpt>
      <trkpt lat="45.113" lon="2.61489">
        <ele>1152.5</ele>
        <time>2021-08-11T08:51:44Z</time>
      </trkpt>
      <trkpt lat="45.113" lon="2.6149">
        <ele>1152.5</ele>
        <time>2021-08-11T08:51:45Z</time>
      </trkpt>
      <trkpt lat="45.11301" lon="2.61491">
        <ele>1152.5</ele>
        <time>2021-08-11T08:51:46Z</time>
      </trkpt>
      <trkpt lat="45.11301" lon="2.61493">
        <ele>1152.7</ele>
        <time>2021-08-11T08:51:47Z</time>
      </trkpt>
      <trkpt lat="45.11302" lon="2.61494">
        <ele>1152.7</ele>
        <time>2021-08-11T08:51:48Z</time>
      </trkpt>
      <trkpt lat="45.11302" lon="2.61495">
        <ele>1152.8</ele>
        <time>2021-08-11T08:51:49Z</time>
      </trkpt>
      <trkpt lat="45.11302" lon="2.61497">
        <ele>1152.9</ele>
        <time>2021-08-11T08:51:50Z</time>
      </trkpt>
      <trkpt lat="45.11303" lon="2.61498">
        <ele>1152.9</ele>
        <time>2021-08-11T08:51:51Z</time>
      </trkpt>
      <trkpt lat="45.11303" lon="2.61499">
        <ele>1153</ele>
        <time>2021-08-11T08:51:52Z</time>
      </trkpt>
      <trkpt lat="45.11304" lon="2.615">
        <ele>1153</ele>
        <time>2021-08-11T08:51:53Z</time>
      </trkpt>
      <trkpt lat="45.11304" lon="2.61502">
        <ele>1153.1</ele>
        <time>2021-08-11T08:51:54Z</time>
      </trkpt>
      <trkpt lat="45.11304" lon="2.61503">
        <ele>1153.1</ele>
        <time>2021-08-11T08:51:55Z</time>
      </trkpt>
      <trkpt lat="45.11305" lon="2.61504">
        <ele>1153.2</ele>
        <time>2021-08-11T08:51:56Z</time>
      </trkpt>
      <trkpt lat="45.11305" lon="2.61505">
        <ele>1153.2</ele>
        <time>2021-08-11T08:51:57Z</time>
      </trkpt>
      <trkpt lat="45.11306" lon="2.61507">
        <ele>1153.3</ele>
        <time>2021-08-11T08:51:58Z</time>
      </trkpt>
      <trkpt lat="45.11306" lon="2.61508">
        <ele>1153.4</ele>
        <time>2021-08-11T08:51:59Z</time>
      </trkpt>
      <trkpt lat="45.11306" lon="2.6151">
        <ele>1153.5</ele>
        <time>2021-08-11T08:52:00Z</time>
      </trkpt>
      <trkpt lat="45.11307" lon="2.61511">
        <ele>1153.5</ele>
        <time>2021-08-11T08:52:01Z</time>
      </trkpt>
      <trkpt lat="45.11307" lon="2.61512">
        <ele>1153.6</ele>
        <time>2021-08-11T08:52:02Z</time>
      </trkpt>
      <trkpt lat="45.11307" lon="2.61513">
        <ele>1153.7</ele>
        <time>2021-08-11T08:52:03Z</time>
      </trkpt>
      <trkpt lat="45.11308" lon="2.61515">
        <ele>1153.8</ele>
        <time>2021-08-11T08:52:04Z</time>
      </trkpt>
      <trkpt lat="45.11308" lon="2.61516">
        <ele>1153.9</ele>
        <time>2021-08-11T08:52:05Z</time>
      </trkpt>
      <trkpt lat="45.11308" lon="2.61518">
        <ele>1154</ele>
        <time>2021-08-11T08:52:06Z</time>
      </trkpt>
      <trkpt lat="45.11308" lon="2.61519">
        <ele>1154.1</ele>
        <time>2021-08-11T08:52:07Z</time>
      </trkpt>
      <trkpt lat="45.11308" lon="2.61521">
        <ele>1154.2</ele>
        <time>2021-08-11T08:52:08Z</time>
      </trkpt>
      <trkpt lat="45.11309" lon="2.61522">
        <ele>1154.3</ele>
        <time>2021-08-11T08:52:09Z</time>
      </trkpt>
      <trkpt lat="45.11309" lon="2.61523">
        <ele>1154.5</ele>
        <time>2021-08-11T08:52:10Z</time>
      </trkpt>
      <trkpt lat="45.11309" lon="2.61525">
        <ele>1154.6</ele>
        <time>2021-08-11T08:52:11Z</time>
      </trkpt>
      <trkpt lat="45.11309" lon="2.61526">
        <ele>1154.8</ele>
        <time>2021-08-11T08:52:12Z</time>
      </trkpt>
      <trkpt lat="45.11309" lon="2.61528">
        <ele>1154.9</ele>
        <time>2021-08-11T08:52:13Z</time>
      </trkpt>
      <trkpt lat="45.11309" lon="2.61529">
        <ele>1155</ele>
        <time>2021-08-11T08:52:14Z</time>
      </trkpt>
      <trkpt lat="45.11309" lon="2.61531">
        <ele>1155.2</ele>
        <time>2021-08-11T08:52:15Z</time>
      </trkpt>
      <trkpt lat="45.11309" lon="2.61532">
        <ele>1155.3</ele>
        <time>2021-08-11T08:52:16Z</time>
      </trkpt>
      <trkpt lat="45.11309" lon="2.61533">
        <ele>1155.4</ele>
        <time>2021-08-11T08:52:17Z</time>
      </trkpt>
      <trkpt lat="45.11309" lon="2.61535">
        <ele>1155.6</ele>
        <time>2021-08-11T08:52:18Z</time>
      </trkpt>
      <trkpt lat="45.11309" lon="2.61536">
        <ele>1155.7</ele>
        <time>2021-08-11T08:52:19Z</time>
      </trkpt>
      <trkpt lat="45.11309" lon="2.61538">
        <ele>1155.8</ele>
        <time>2021-08-11T08:52:20Z</time>
      </trkpt>
      <trkpt lat="45.11309" lon="2.61539">
        <ele>1156</ele>
        <time>2021-08-11T08:52:21Z</time>
      </trkpt>
      <trkpt lat="45.11309" lon="2.6154">
        <ele>1156.1</ele>
        <time>2021-08-11T08:52:22Z</time>
      </trkpt>
      <trkpt lat="45.11309" lon="2.61542">
        <ele>1156.2</ele>
        <time>2021-08-11T08:52:23Z</time>
      </trkpt>
      <trkpt lat="45.11309" lon="2.61543">
        <ele>1156.4</ele>
        <time>2021-08-11T08:52:24Z</time>
      </trkpt>
      <trkpt lat="45.11309" lon="2.61545">
        <ele>1156.5</ele>
        <time>2021-08-11T08:52:25Z</time>
      </trkpt>
      <trkpt lat="45.11309" lon="2.61546">
        <ele>1156.6</ele>
        <time>2021-08-11T08:52:26Z</time>
      </trkpt>
      <trkpt lat="45.11309" lon="2.61547">
        <ele>1156.8</ele>
        <time>2021-08-11T08:52:27Z</time>
      </trkpt>
      <trkpt lat="45.11309" lon="2.61549">
        <ele>1156.9</ele>
        <time>2021-08-11T08:52:28Z</time>
      </trkpt>
      <trkpt lat="45.11309" lon="2.6155">
        <ele>1157.1</ele>
        <time>2021-08-11T08:52:29Z</time>
      </trkpt>
      <trkpt lat="45.11308" lon="2.61552">
        <ele>1157.3</ele>
        <time>2021-08-11T08:52:30Z</time>
      </trkpt>
      <trkpt lat="45.11308" lon="2.61553">
        <ele>1157.4</ele>
        <time>2021-08-11T08:52:31Z</time>
      </trkpt>
      <trkpt lat="45.11308" lon="2.61554">
        <ele>1157.5</ele>
        <time>2021-08-11T08:52:32Z</time>
      </trkpt>
      <trkpt lat="45.11309" lon="2.61555">
        <ele>1157.6</ele>
        <time>2021-08-11T08:52:33Z</time>
      </trkpt>
      <trkpt lat="45.11309" lon="2.61557">
        <ele>1157.8</ele>
        <time>2021-08-11T08:52:34Z</time>
      </trkpt>
      <trkpt lat="45.11309" lon="2.61558">
        <ele>1157.9</ele>
        <time>2021-08-11T08:52:35Z</time>
      </trkpt>
      <trkpt lat="45.11309" lon="2.6156">
        <ele>1158</ele>
        <time>2021-08-11T08:52:36Z</time>
      </trkpt>
      <trkpt lat="45.11309" lon="2.61561">
        <ele>1158.1</ele>
        <time>2021-08-11T08:52:37Z</time>
      </trkpt>
      <trkpt lat="45.11309" lon="2.61562">
        <ele>1158.2</ele>
        <time>2021-08-11T08:52:38Z</time>
      </trkpt>
      <trkpt lat="45.1131" lon="2.61564">
        <ele>1158.3</ele>
        <time>2021-08-11T08:52:39Z</time>
      </trkpt>
      <trkpt lat="45.1131" lon="2.61565">
        <ele>1158.4</ele>
        <time>2021-08-11T08:52:40Z</time>
      </trkpt>
      <trkpt lat="45.1131" lon="2.61566">
        <ele>1158.5</ele>
        <time>2021-08-11T08:52:41Z</time>
      </trkpt>
      <trkpt lat="45.1131" lon="2.61567">
        <ele>1158.6</ele>
        <time>2021-08-11T08:52:42Z</time>
      </trkpt>
      <trkpt lat="45.11311" lon="2.61568">
        <ele>1158.6</ele>
        <time>2021-08-11T08:52:43Z</time>
      </trkpt>
      <trkpt lat="45.11311" lon="2.61569">
        <ele>1158.7</ele>
        <time>2021-08-11T08:52:44Z</time>
      </trkpt>
      <trkpt lat="45.11312" lon="2.6157">
        <ele>1158.7</ele>
        <time>2021-08-11T08:52:45Z</time>
      </trkpt>
      <trkpt lat="45.11313" lon="2.61571">
        <ele>1158.7</ele>
        <time>2021-08-11T08:52:46Z</time>
      </trkpt>
      <trkpt lat="45.11313" lon="2.61572">
        <ele>1158.8</ele>
        <time>2021-08-11T08:52:47Z</time>
      </trkpt>
      <trkpt lat="45.11314" lon="2.61573">
        <ele>1158.8</ele>
        <time>2021-08-11T08:52:48Z</time>
      </trkpt>
      <trkpt lat="45.11315" lon="2.61574">
        <ele>1158.8</ele>
        <time>2021-08-11T08:52:49Z</time>
      </trkpt>
      <trkpt lat="45.11315" lon="2.61574">
        <ele>1158.8</ele>
        <time>2021-08-11T08:52:50Z</time>
      </trkpt>
      <trkpt lat="45.11316" lon="2.61575">
        <ele>1158.8</ele>
        <time>2021-08-11T08:52:51Z</time>
      </trkpt>
      <trkpt lat="45.11317" lon="2.61576">
        <ele>1158.8</ele>
        <time>2021-08-11T08:52:52Z</time>
      </trkpt>
      <trkpt lat="45.11317" lon="2.61577">
        <ele>1158.9</ele>
        <time>2021-08-11T08:52:53Z</time>
      </trkpt>
      <trkpt lat="45.11318" lon="2.61578">
        <ele>1159</ele>
        <time>2021-08-11T08:52:54Z</time>
      </trkpt>
      <trkpt lat="45.11318" lon="2.61579">
        <ele>1159</ele>
        <time>2021-08-11T08:52:55Z</time>
      </trkpt>
      <trkpt lat="45.11319" lon="2.61579">
        <ele>1159</ele>
        <time>2021-08-11T08:52:56Z</time>
      </trkpt>
      <trkpt lat="45.11319" lon="2.6158">
        <ele>1159</ele>
        <time>2021-08-11T08:52:57Z</time>
      </trkpt>
      <trkpt lat="45.1132" lon="2.61581">
        <ele>1159</ele>
        <time>2021-08-11T08:52:58Z</time>
      </trkpt>
      <trkpt lat="45.11321" lon="2.61581">
        <ele>1159</ele>
        <time>2021-08-11T08:52:59Z</time>
      </trkpt>
      <trkpt lat="45.11321" lon="2.61582">
        <ele>1159</ele>
        <time>2021-08-11T08:53:00Z</time>
      </trkpt>
      <trkpt lat="45.11322" lon="2.61583">
        <ele>1159</ele>
        <time>2021-08-11T08:53:01Z</time>
      </trkpt>
      <trkpt lat="45.11323" lon="2.61584">
        <ele>1159.1</ele>
        <time>2021-08-11T08:53:02Z</time>
      </trkpt>
      <trkpt lat="45.11323" lon="2.61585">
        <ele>1159.1</ele>
        <time>2021-08-11T08:53:03Z</time>
      </trkpt>
      <trkpt lat="45.11324" lon="2.61586">
        <ele>1159.2</ele>
        <time>2021-08-11T08:53:04Z</time>
      </trkpt>
      <trkpt lat="45.11325" lon="2.61586">
        <ele>1159.2</ele>
        <time>2021-08-11T08:53:05Z</time>
      </trkpt>
      <trkpt lat="45.11325" lon="2.61587">
        <ele>1159.2</ele>
        <time>2021-08-11T08:53:06Z</time>
      </trkpt>
      <trkpt lat="45.11326" lon="2.61588">
        <ele>1159.3</ele>
        <time>2021-08-11T08:53:07Z</time>
      </trkpt>
      <trkpt lat="45.11326" lon="2.61589">
        <ele>1159.4</ele>
        <time>2021-08-11T08:53:08Z</time>
      </trkpt>
      <trkpt lat="45.11327" lon="2.6159">
        <ele>1159.4</ele>
        <time>2021-08-11T08:53:09Z</time>
      </trkpt>
      <trkpt lat="45.11327" lon="2.61591">
        <ele>1159.5</ele>
        <time>2021-08-11T08:53:10Z</time>
      </trkpt>
      <trkpt lat="45.11328" lon="2.61592">
        <ele>1159.6</ele>
        <time>2021-08-11T08:53:11Z</time>
      </trkpt>
      <trkpt lat="45.11328" lon="2.61593">
        <ele>1159.6</ele>
        <time>2021-08-11T08:53:12Z</time>
      </trkpt>
      <trkpt lat="45.11329" lon="2.61594">
        <ele>1159.7</ele>
        <time>2021-08-11T08:53:13Z</time>
      </trkpt>
      <trkpt lat="45.11329" lon="2.61595">
        <ele>1159.8</ele>
        <time>2021-08-11T08:53:14Z</time>
      </trkpt>
      <trkpt lat="45.1133" lon="2.61596">
        <ele>1159.9</ele>
        <time>2021-08-11T08:53:15Z</time>
      </trkpt>
      <trkpt lat="45.1133" lon="2.61597">
        <ele>1160</ele>
        <time>2021-08-11T08:53:16Z</time>
      </trkpt>
      <trkpt lat="45.11331" lon="2.61598">
        <ele>1160</ele>
        <time>2021-08-11T08:53:17Z</time>
      </trkpt>
      <trkpt lat="45.11331" lon="2.616">
        <ele>1160.1</ele>
        <time>2021-08-11T08:53:18Z</time>
      </trkpt>
      <trkpt lat="45.11332" lon="2.61601">
        <ele>1160.2</ele>
        <time>2021-08-11T08:53:19Z</time>
      </trkpt>
      <trkpt lat="45.11332" lon="2.61602">
        <ele>1160.3</ele>
        <time>2021-08-11T08:53:20Z</time>
      </trkpt>
      <trkpt lat="45.11333" lon="2.61603">
        <ele>1160.4</ele>
        <time>2021-08-11T08:53:21Z</time>
      </trkpt>
      <trkpt lat="45.11333" lon="2.61604">
        <ele>1160.5</ele>
        <time>2021-08-11T08:53:22Z</time>
      </trkpt>
      <trkpt lat="45.11334" lon="2.61606">
        <ele>1160.7</ele>
        <time>2021-08-11T08:53:23Z</time>
      </trkpt>
      <trkpt lat="45.11334" lon="2.61607">
        <ele>1160.9</ele>
        <time>2021-08-11T08:53:24Z</time>
      </trkpt>
      <trkpt lat="45.11335" lon="2.61608">
        <ele>1161.1</ele>
        <time>2021-08-11T08:53:25Z</time>
      </trkpt>
      <trkpt lat="45.11335" lon="2.6161">
        <ele>1161.3</ele>
        <time>2021-08-11T08:53:26Z</time>
      </trkpt>
      <trkpt lat="45.11336" lon="2.61611">
        <ele>1161.5</ele>
        <time>2021-08-11T08:53:27Z</time>
      </trkpt>
      <trkpt lat="45.11336" lon="2.61612">
        <ele>1161.6</ele>
        <time>2021-08-11T08:53:28Z</time>
      </trkpt>
      <trkpt lat="45.11336" lon="2.61614">
        <ele>1161.8</ele>
        <time>2021-08-11T08:53:29Z</time>
      </trkpt>
      <trkpt lat="45.11337" lon="2.61615">
        <ele>1162</ele>
        <time>2021-08-11T08:53:30Z</time>
      </trkpt>
      <trkpt lat="45.11337" lon="2.61616">
        <ele>1162.2</ele>
        <time>2021-08-11T08:53:31Z</time>
      </trkpt>
      <trkpt lat="45.11338" lon="2.61618">
        <ele>1162.4</ele>
        <time>2021-08-11T08:53:32Z</time>
      </trkpt>
      <trkpt lat="45.11338" lon="2.61619">
        <ele>1162.5</ele>
        <time>2021-08-11T08:53:33Z</time>
      </trkpt>
      <trkpt lat="45.11338" lon="2.6162">
        <ele>1162.7</ele>
        <time>2021-08-11T08:53:34Z</time>
      </trkpt>
      <trkpt lat="45.11339" lon="2.61621">
        <ele>1162.9</ele>
        <time>2021-08-11T08:53:35Z</time>
      </trkpt>
      <trkpt lat="45.11339" lon="2.61623">
        <ele>1163.1</ele>
        <time>2021-08-11T08:53:36Z</time>
      </trkpt>
      <trkpt lat="45.1134" lon="2.61624">
        <ele>1163.2</ele>
        <time>2021-08-11T08:53:37Z</time>
      </trkpt>
      <trkpt lat="45.1134" lon="2.61625">
        <ele>1163.4</ele>
        <time>2021-08-11T08:53:38Z</time>
      </trkpt>
      <trkpt lat="45.11341" lon="2.61627">
        <ele>1163.6</ele>
        <time>2021-08-11T08:53:39Z</time>
      </trkpt>
      <trkpt lat="45.11342" lon="2.61628">
        <ele>1163.8</ele>
        <time>2021-08-11T08:53:40Z</time>
      </trkpt>
      <trkpt lat="45.11342" lon="2.6163">
        <ele>1164</ele>
        <time>2021-08-11T08:53:41Z</time>
      </trkpt>
      <trkpt lat="45.11342" lon="2.61631">
        <ele>1164.1</ele>
        <time>2021-08-11T08:53:42Z</time>
      </trkpt>
      <trkpt lat="45.11342" lon="2.61633">
        <ele>1164.3</ele>
        <time>2021-08-11T08:53:43Z</time>
      </trkpt>
      <trkpt lat="45.11343" lon="2.61634">
        <ele>1164.5</ele>
        <time>2021-08-11T08:53:44Z</time>
      </trkpt>
      <trkpt lat="45.11343" lon="2.61636">
        <ele>1164.7</ele>
        <time>2021-08-11T08:53:45Z</time>
      </trkpt>
      <trkpt lat="45.11343" lon="2.61637">
        <ele>1164.9</ele>
        <time>2021-08-11T08:53:46Z</time>
      </trkpt>
      <trkpt lat="45.11344" lon="2.61638">
        <ele>1165</ele>
        <time>2021-08-11T08:53:47Z</time>
      </trkpt>
      <trkpt lat="45.11344" lon="2.6164">
        <ele>1165.2</ele>
        <time>2021-08-11T08:53:48Z</time>
      </trkpt>
      <trkpt lat="45.11344" lon="2.61641">
        <ele>1165.4</ele>
        <time>2021-08-11T08:53:49Z</time>
      </trkpt>
      <trkpt lat="45.11344" lon="2.61643">
        <ele>1165.5</ele>
        <time>2021-08-11T08:53:50Z</time>
      </trkpt>
      <trkpt lat="45.11345" lon="2.61644">
        <ele>1165.7</ele>
        <time>2021-08-11T08:53:51Z</time>
      </trkpt>
      <trkpt lat="45.11345" lon="2.61646">
        <ele>1165.9</ele>
        <time>2021-08-11T08:53:52Z</time>
      </trkpt>
      <trkpt lat="45.11345" lon="2.61647">
        <ele>1166</ele>
        <time>2021-08-11T08:53:53Z</time>
      </trkpt>
      <trkpt lat="45.11345" lon="2.61649">
        <ele>1166.2</ele>
        <time>2021-08-11T08:53:54Z</time>
      </trkpt>
      <trkpt lat="45.11345" lon="2.6165">
        <ele>1166.3</ele>
        <time>2021-08-11T08:53:55Z</time>
      </trkpt>
      <trkpt lat="45.11345" lon="2.61652">
        <ele>1166.5</ele>
        <time>2021-08-11T08:53:56Z</time>
      </trkpt>
      <trkpt lat="45.11345" lon="2.61653">
        <ele>1166.6</ele>
        <time>2021-08-11T08:53:57Z</time>
      </trkpt>
      <trkpt lat="45.11345" lon="2.61654">
        <ele>1166.8</ele>
        <time>2021-08-11T08:53:58Z</time>
      </trkpt>
      <trkpt lat="45.11345" lon="2.61656">
        <ele>1166.9</ele>
        <time>2021-08-11T08:53:59Z</time>
      </trkpt>
      <trkpt lat="45.11345" lon="2.61657">
        <ele>1167.1</ele>
        <time>2021-08-11T08:54:00Z</time>
      </trkpt>
      <trkpt lat="45.11345" lon="2.61658">
        <ele>1167.2</ele>
        <time>2021-08-11T08:54:01Z</time>
      </trkpt>
      <trkpt lat="45.11345" lon="2.61659">
        <ele>1167.3</ele>
        <time>2021-08-11T08:54:02Z</time>
      </trkpt>
      <trkpt lat="45.11345" lon="2.61661">
        <ele>1167.5</ele>
        <time>2021-08-11T08:54:03Z</time>
      </trkpt>
      <trkpt lat="45.11344" lon="2.61662">
        <ele>1167.6</ele>
        <time>2021-08-11T08:54:04Z</time>
      </trkpt>
      <trkpt lat="45.11344" lon="2.61663">
        <ele>1167.8</ele>
        <time>2021-08-11T08:54:05Z</time>
      </trkpt>
      <trkpt lat="45.11344" lon="2.61665">
        <ele>1167.9</ele>
        <time>2021-08-11T08:54:06Z</time>
      </trkpt>
      <trkpt lat="45.11344" lon="2.61666">
        <ele>1168.1</ele>
        <time>2021-08-11T08:54:07Z</time>
      </trkpt>
      <trkpt lat="45.11344" lon="2.61668">
        <ele>1168.2</ele>
        <time>2021-08-11T08:54:08Z</time>
      </trkpt>
      <trkpt lat="45.11343" lon="2.61669">
        <ele>1168.2</ele>
        <time>2021-08-11T08:54:09Z</time>
      </trkpt>
      <trkpt lat="45.11343" lon="2.6167">
        <ele>1168.3</ele>
        <time>2021-08-11T08:54:10Z</time>
      </trkpt>
      <trkpt lat="45.11343" lon="2.61671">
        <ele>1168.4</ele>
        <time>2021-08-11T08:54:11Z</time>
      </trkpt>
      <trkpt lat="45.11343" lon="2.61673">
        <ele>1168.5</ele>
        <time>2021-08-11T08:54:12Z</time>
      </trkpt>
      <trkpt lat="45.11343" lon="2.61674">
        <ele>1168.5</ele>
        <time>2021-08-11T08:54:13Z</time>
      </trkpt>
      <trkpt lat="45.11343" lon="2.61675">
        <ele>1168.6</ele>
        <time>2021-08-11T08:54:14Z</time>
      </trkpt>
      <trkpt lat="45.11343" lon="2.61676">
        <ele>1168.7</ele>
        <time>2021-08-11T08:54:15Z</time>
      </trkpt>
      <trkpt lat="45.11343" lon="2.61678">
        <ele>1168.7</ele>
        <time>2021-08-11T08:54:16Z</time>
      </trkpt>
      <trkpt lat="45.11342" lon="2.61679">
        <ele>1168.8</ele>
        <time>2021-08-11T08:54:17Z</time>
      </trkpt>
      <trkpt lat="45.11342" lon="2.61681">
        <ele>1168.9</ele>
        <time>2021-08-11T08:54:18Z</time>
      </trkpt>
      <trkpt lat="45.11342" lon="2.61682">
        <ele>1169</ele>
        <time>2021-08-11T08:54:19Z</time>
      </trkpt>
      <trkpt lat="45.11342" lon="2.61683">
        <ele>1169</ele>
        <time>2021-08-11T08:54:20Z</time>
      </trkpt>
      <trkpt lat="45.11342" lon="2.61685">
        <ele>1169.1</ele>
        <time>2021-08-11T08:54:21Z</time>
      </trkpt>
      <trkpt lat="45.11342" lon="2.61686">
        <ele>1169.2</ele>
        <time>2021-08-11T08:54:22Z</time>
      </trkpt>
      <trkpt lat="45.11342" lon="2.61687">
        <ele>1169.3</ele>
        <time>2021-08-11T08:54:23Z</time>
      </trkpt>
      <trkpt lat="45.11342" lon="2.61689">
        <ele>1169.3</ele>
        <time>2021-08-11T08:54:24Z</time>
      </trkpt>
      <trkpt lat="45.11342" lon="2.6169">
        <ele>1169.4</ele>
        <time>2021-08-11T08:54:25Z</time>
      </trkpt>
      <trkpt lat="45.11342" lon="2.61692">
        <ele>1169.5</ele>
        <time>2021-08-11T08:54:26Z</time>
      </trkpt>
      <trkpt lat="45.11342" lon="2.61693">
        <ele>1169.6</ele>
        <time>2021-08-11T08:54:27Z</time>
      </trkpt>
      <trkpt lat="45.11341" lon="2.61695">
        <ele>1169.7</ele>
        <time>2021-08-11T08:54:28Z</time>
      </trkpt>
      <trkpt lat="45.11341" lon="2.61696">
        <ele>1169.8</ele>
        <time>2021-08-11T08:54:29Z</time>
      </trkpt>
      <trkpt lat="45.11341" lon="2.61697">
        <ele>1169.8</ele>
        <time>2021-08-11T08:54:30Z</time>
      </trkpt>
      <trkpt lat="45.11341" lon="2.61699">
        <ele>1169.9</ele>
        <time>2021-08-11T08:54:31Z</time>
      </trkpt>
      <trkpt lat="45.11341" lon="2.617">
        <ele>1170</ele>
        <time>2021-08-11T08:54:32Z</time>
      </trkpt>
      <trkpt lat="45.11341" lon="2.61701">
        <ele>1170</ele>
        <time>2021-08-11T08:54:33Z</time>
      </trkpt>
      <trkpt lat="45.1134" lon="2.61702">
        <ele>1170.1</ele>
        <time>2021-08-11T08:54:34Z</time>
      </trkpt>
      <trkpt lat="45.1134" lon="2.61704">
        <ele>1170.2</ele>
        <time>2021-08-11T08:54:35Z</time>
      </trkpt>
      <trkpt lat="45.1134" lon="2.61705">
        <ele>1170.3</ele>
        <time>2021-08-11T08:54:36Z</time>
      </trkpt>
      <trkpt lat="45.1134" lon="2.61706">
        <ele>1170.3</ele>
        <time>2021-08-11T08:54:37Z</time>
      </trkpt>
      <trkpt lat="45.1134" lon="2.61708">
        <ele>1170.4</ele>
        <time>2021-08-11T08:54:38Z</time>
      </trkpt>
      <trkpt lat="45.11339" lon="2.61709">
        <ele>1170.5</ele>
        <time>2021-08-11T08:54:39Z</time>
      </trkpt>
      <trkpt lat="45.11339" lon="2.6171">
        <ele>1170.6</ele>
        <time>2021-08-11T08:54:40Z</time>
      </trkpt>
      <trkpt lat="45.11339" lon="2.61711">
        <ele>1170.6</ele>
        <time>2021-08-11T08:54:41Z</time>
      </trkpt>
      <trkpt lat="45.11339" lon="2.61713">
        <ele>1170.7</ele>
        <time>2021-08-11T08:54:42Z</time>
      </trkpt>
      <trkpt lat="45.11339" lon="2.61714">
        <ele>1170.8</ele>
        <time>2021-08-11T08:54:43Z</time>
      </trkpt>
      <trkpt lat="45.11338" lon="2.61716">
        <ele>1170.9</ele>
        <time>2021-08-11T08:54:44Z</time>
      </trkpt>
      <trkpt lat="45.11338" lon="2.61717">
        <ele>1171</ele>
        <time>2021-08-11T08:54:45Z</time>
      </trkpt>
      <trkpt lat="45.11338" lon="2.61718">
        <ele>1171</ele>
        <time>2021-08-11T08:54:46Z</time>
      </trkpt>
      <trkpt lat="45.11338" lon="2.61719">
        <ele>1171.1</ele>
        <time>2021-08-11T08:54:47Z</time>
      </trkpt>
      <trkpt lat="45.11338" lon="2.61721">
        <ele>1171.2</ele>
        <time>2021-08-11T08:54:48Z</time>
      </trkpt>
      <trkpt lat="45.11338" lon="2.61722">
        <ele>1171.3</ele>
        <time>2021-08-11T08:54:49Z</time>
      </trkpt>
      <trkpt lat="45.11337" lon="2.61723">
        <ele>1171.3</ele>
        <time>2021-08-11T08:54:50Z</time>
      </trkpt>
      <trkpt lat="45.11337" lon="2.61724">
        <ele>1171.4</ele>
        <time>2021-08-11T08:54:51Z</time>
      </trkpt>
      <trkpt lat="45.11337" lon="2.61726">
        <ele>1171.5</ele>
        <time>2021-08-11T08:54:52Z</time>
      </trkpt>
      <trkpt lat="45.11337" lon="2.61727">
        <ele>1171.6</ele>
        <time>2021-08-11T08:54:53Z</time>
      </trkpt>
      <trkpt lat="45.11337" lon="2.61729">
        <ele>1171.7</ele>
        <time>2021-08-11T08:54:54Z</time>
      </trkpt>
      <trkpt lat="45.11337" lon="2.6173">
        <ele>1171.7</ele>
        <time>2021-08-11T08:54:55Z</time>
      </trkpt>
      <trkpt lat="45.11337" lon="2.61731">
        <ele>1171.8</ele>
        <time>2021-08-11T08:54:56Z</time>
      </trkpt>
      <trkpt lat="45.11336" lon="2.61732">
        <ele>1171.9</ele>
        <time>2021-08-11T08:54:57Z</time>
      </trkpt>
      <trkpt lat="45.11336" lon="2.61733">
        <ele>1171.9</ele>
        <time>2021-08-11T08:54:58Z</time>
      </trkpt>
      <trkpt lat="45.11336" lon="2.61734">
        <ele>1172</ele>
        <time>2021-08-11T08:54:59Z</time>
      </trkpt>
      <trkpt lat="45.11336" lon="2.61735">
        <ele>1172.1</ele>
        <time>2021-08-11T08:55:00Z</time>
      </trkpt>
      <trkpt lat="45.11336" lon="2.61736">
        <ele>1172.1</ele>
        <time>2021-08-11T08:55:01Z</time>
      </trkpt>
      <trkpt lat="45.11336" lon="2.61737">
        <ele>1172.2</ele>
        <time>2021-08-11T08:55:02Z</time>
      </trkpt>
      <trkpt lat="45.11335" lon="2.61739">
        <ele>1172.3</ele>
        <time>2021-08-11T08:55:03Z</time>
      </trkpt>
      <trkpt lat="45.11335" lon="2.6174">
        <ele>1172.4</ele>
        <time>2021-08-11T08:55:04Z</time>
      </trkpt>
      <trkpt lat="45.11335" lon="2.61741">
        <ele>1172.4</ele>
        <time>2021-08-11T08:55:05Z</time>
      </trkpt>
      <trkpt lat="45.11335" lon="2.61742">
        <ele>1172.5</ele>
        <time>2021-08-11T08:55:06Z</time>
      </trkpt>
      <trkpt lat="45.11335" lon="2.61743">
        <ele>1172.6</ele>
        <time>2021-08-11T08:55:07Z</time>
      </trkpt>
      <trkpt lat="45.11334" lon="2.61745">
        <ele>1172.6</ele>
        <time>2021-08-11T08:55:08Z</time>
      </trkpt>
      <trkpt lat="45.11334" lon="2.61746">
        <ele>1172.7</ele>
        <time>2021-08-11T08:55:09Z</time>
      </trkpt>
      <trkpt lat="45.11334" lon="2.61747">
        <ele>1172.8</ele>
        <time>2021-08-11T08:55:10Z</time>
      </trkpt>
      <trkpt lat="45.11334" lon="2.61748">
        <ele>1172.9</ele>
        <time>2021-08-11T08:55:11Z</time>
      </trkpt>
      <trkpt lat="45.11334" lon="2.61749">
        <ele>1172.9</ele>
        <time>2021-08-11T08:55:12Z</time>
      </trkpt>
      <trkpt lat="45.11334" lon="2.6175">
        <ele>1173</ele>
        <time>2021-08-11T08:55:13Z</time>
      </trkpt>
      <trkpt lat="45.11333" lon="2.61751">
        <ele>1173.1</ele>
        <time>2021-08-11T08:55:14Z</time>
      </trkpt>
      <trkpt lat="45.11334" lon="2.61752">
        <ele>1173.1</ele>
        <time>2021-08-11T08:55:15Z</time>
      </trkpt>
      <trkpt lat="45.11334" lon="2.61753">
        <ele>1173.2</ele>
        <time>2021-08-11T08:55:16Z</time>
      </trkpt>
      <trkpt lat="45.11334" lon="2.61754">
        <ele>1173.3</ele>
        <time>2021-08-11T08:55:17Z</time>
      </trkpt>
      <trkpt lat="45.11334" lon="2.61756">
        <ele>1173.4</ele>
        <time>2021-08-11T08:55:18Z</time>
      </trkpt>
      <trkpt lat="45.11334" lon="2.61757">
        <ele>1173.5</ele>
        <time>2021-08-11T08:55:19Z</time>
      </trkpt>
      <trkpt lat="45.11334" lon="2.61758">
        <ele>1173.6</ele>
        <time>2021-08-11T08:55:20Z</time>
      </trkpt>
      <trkpt lat="45.11335" lon="2.61759">
        <ele>1173.7</ele>
        <time>2021-08-11T08:55:21Z</time>
      </trkpt>
      <trkpt lat="45.11335" lon="2.6176">
        <ele>1173.8</ele>
        <time>2021-08-11T08:55:22Z</time>
      </trkpt>
      <trkpt lat="45.11335" lon="2.61762">
        <ele>1173.9</ele>
        <time>2021-08-11T08:55:23Z</time>
      </trkpt>
      <trkpt lat="45.11335" lon="2.61763">
        <ele>1174</ele>
        <time>2021-08-11T08:55:24Z</time>
      </trkpt>
      <trkpt lat="45.11335" lon="2.61764">
        <ele>1174.1</ele>
        <time>2021-08-11T08:55:25Z</time>
      </trkpt>
      <trkpt lat="45.11335" lon="2.61766">
        <ele>1174.2</ele>
        <time>2021-08-11T08:55:26Z</time>
      </trkpt>
      <trkpt lat="45.11335" lon="2.61767">
        <ele>1174.3</ele>
        <time>2021-08-11T08:55:27Z</time>
      </trkpt>
      <trkpt lat="45.11335" lon="2.61768">
        <ele>1174.5</ele>
        <time>2021-08-11T08:55:28Z</time>
      </trkpt>
      <trkpt lat="45.11335" lon="2.6177">
        <ele>1174.6</ele>
        <time>2021-08-11T08:55:29Z</time>
      </trkpt>
      <trkpt lat="45.11335" lon="2.61771">
        <ele>1174.7</ele>
        <time>2021-08-11T08:55:30Z</time>
      </trkpt>
      <trkpt lat="45.11335" lon="2.61773">
        <ele>1174.8</ele>
        <time>2021-08-11T08:55:31Z</time>
      </trkpt>
      <trkpt lat="45.11335" lon="2.61774">
        <ele>1174.9</ele>
        <time>2021-08-11T08:55:32Z</time>
      </trkpt>
      <trkpt lat="45.11335" lon="2.61775">
        <ele>1175</ele>
        <time>2021-08-11T08:55:33Z</time>
      </trkpt>
      <trkpt lat="45.11334" lon="2.61776">
        <ele>1175.1</ele>
        <time>2021-08-11T08:55:34Z</time>
      </trkpt>
      <trkpt lat="45.11334" lon="2.61777">
        <ele>1175.3</ele>
        <time>2021-08-11T08:55:35Z</time>
      </trkpt>
      <trkpt lat="45.11333" lon="2.61779">
        <ele>1175.4</ele>
        <time>2021-08-11T08:55:36Z</time>
      </trkpt>
      <trkpt lat="45.11333" lon="2.6178">
        <ele>1175.6</ele>
        <time>2021-08-11T08:55:37Z</time>
      </trkpt>
      <trkpt lat="45.11333" lon="2.61781">
        <ele>1175.7</ele>
        <time>2021-08-11T08:55:38Z</time>
      </trkpt>
      <trkpt lat="45.11333" lon="2.61782">
        <ele>1175.8</ele>
        <time>2021-08-11T08:55:39Z</time>
      </trkpt>
      <trkpt lat="45.11333" lon="2.61783">
        <ele>1175.9</ele>
        <time>2021-08-11T08:55:40Z</time>
      </trkpt>
      <trkpt lat="45.11333" lon="2.61785">
        <ele>1176</ele>
        <time>2021-08-11T08:55:41Z</time>
      </trkpt>
      <trkpt lat="45.11333" lon="2.61786">
        <ele>1176.1</ele>
        <time>2021-08-11T08:55:42Z</time>
      </trkpt>
      <trkpt lat="45.11333" lon="2.61787">
        <ele>1176.3</ele>
        <time>2021-08-11T08:55:43Z</time>
      </trkpt>
      <trkpt lat="45.11332" lon="2.61788">
        <ele>1176.4</ele>
        <time>2021-08-11T08:55:44Z</time>
      </trkpt>
      <trkpt lat="45.11332" lon="2.6179">
        <ele>1176.5</ele>
        <time>2021-08-11T08:55:45Z</time>
      </trkpt>
      <trkpt lat="45.11332" lon="2.61791">
        <ele>1176.7</ele>
        <time>2021-08-11T08:55:46Z</time>
      </trkpt>
      <trkpt lat="45.11332" lon="2.61792">
        <ele>1176.8</ele>
        <time>2021-08-11T08:55:47Z</time>
      </trkpt>
      <trkpt lat="45.11332" lon="2.61794">
        <ele>1177</ele>
        <time>2021-08-11T08:55:48Z</time>
      </trkpt>
      <trkpt lat="45.11331" lon="2.61795">
        <ele>1177.1</ele>
        <time>2021-08-11T08:55:49Z</time>
      </trkpt>
      <trkpt lat="45.11331" lon="2.61796">
        <ele>1177.2</ele>
        <time>2021-08-11T08:55:50Z</time>
      </trkpt>
      <trkpt lat="45.11331" lon="2.61798">
        <ele>1177.3</ele>
        <time>2021-08-11T08:55:51Z</time>
      </trkpt>
      <trkpt lat="45.11331" lon="2.61799">
        <ele>1177.4</ele>
        <time>2021-08-11T08:55:52Z</time>
      </trkpt>
      <trkpt lat="45.11331" lon="2.618">
        <ele>1177.6</ele>
        <time>2021-08-11T08:55:53Z</time>
      </trkpt>
      <trkpt lat="45.11331" lon="2.61801">
        <ele>1177.7</ele>
        <time>2021-08-11T08:55:54Z</time>
      </trkpt>
      <trkpt lat="45.11331" lon="2.61803">
        <ele>1177.8</ele>
        <time>2021-08-11T08:55:55Z</time>
      </trkpt>
      <trkpt lat="45.1133" lon="2.61804">
        <ele>1178</ele>
        <time>2021-08-11T08:55:56Z</time>
      </trkpt>
      <trkpt lat="45.1133" lon="2.61805">
        <ele>1178.1</ele>
        <time>2021-08-11T08:55:57Z</time>
      </trkpt>
      <trkpt lat="45.1133" lon="2.61806">
        <ele>1178.3</ele>
        <time>2021-08-11T08:55:58Z</time>
      </trkpt>
      <trkpt lat="45.11329" lon="2.61807">
        <ele>1178.5</ele>
        <time>2021-08-11T08:55:59Z</time>
      </trkpt>
      <trkpt lat="45.11329" lon="2.61809">
        <ele>1178.6</ele>
        <time>2021-08-11T08:56:00Z</time>
      </trkpt>
      <trkpt lat="45.11329" lon="2.6181">
        <ele>1178.8</ele>
        <time>2021-08-11T08:56:01Z</time>
      </trkpt>
      <trkpt lat="45.11329" lon="2.61811">
        <ele>1178.9</ele>
        <time>2021-08-11T08:56:02Z</time>
      </trkpt>
      <trkpt lat="45.11328" lon="2.61812">
        <ele>1179.1</ele>
        <time>2021-08-11T08:56:03Z</time>
      </trkpt>
      <trkpt lat="45.11328" lon="2.61814">
        <ele>1179.2</ele>
        <time>2021-08-11T08:56:04Z</time>
      </trkpt>
      <trkpt lat="45.11328" lon="2.61815">
        <ele>1179.4</ele>
        <time>2021-08-11T08:56:05Z</time>
      </trkpt>
      <trkpt lat="45.11328" lon="2.61816">
        <ele>1179.5</ele>
        <time>2021-08-11T08:56:06Z</time>
      </trkpt>
      <trkpt lat="45.11327" lon="2.61818">
        <ele>1179.7</ele>
        <time>2021-08-11T08:56:07Z</time>
      </trkpt>
      <trkpt lat="45.11327" lon="2.61819">
        <ele>1179.8</ele>
        <time>2021-08-11T08:56:08Z</time>
      </trkpt>
      <trkpt lat="45.11327" lon="2.61821">
        <ele>1179.9</ele>
        <time>2021-08-11T08:56:09Z</time>
      </trkpt>
      <trkpt lat="45.11327" lon="2.61822">
        <ele>1180.1</ele>
        <time>2021-08-11T08:56:10Z</time>
      </trkpt>
      <trkpt lat="45.11327" lon="2.61824">
        <ele>1180.2</ele>
        <time>2021-08-11T08:56:11Z</time>
      </trkpt>
      <trkpt lat="45.11328" lon="2.61825">
        <ele>1180.3</ele>
        <time>2021-08-11T08:56:12Z</time>
      </trkpt>
      <trkpt lat="45.11328" lon="2.61826">
        <ele>1180.4</ele>
        <time>2021-08-11T08:56:13Z</time>
      </trkpt>
      <trkpt lat="45.11328" lon="2.61828">
        <ele>1180.4</ele>
        <time>2021-08-11T08:56:14Z</time>
      </trkpt>
      <trkpt lat="45.11328" lon="2.61829">
        <ele>1180.5</ele>
        <time>2021-08-11T08:56:15Z</time>
      </trkpt>
      <trkpt lat="45.11328" lon="2.6183">
        <ele>1180.6</ele>
        <time>2021-08-11T08:56:16Z</time>
      </trkpt>
      <trkpt lat="45.11329" lon="2.61832">
        <ele>1180.6</ele>
        <time>2021-08-11T08:56:17Z</time>
      </trkpt>
      <trkpt lat="45.11329" lon="2.61833">
        <ele>1180.7</ele>
        <time>2021-08-11T08:56:18Z</time>
      </trkpt>
      <trkpt lat="45.11329" lon="2.61834">
        <ele>1180.8</ele>
        <time>2021-08-11T08:56:19Z</time>
      </trkpt>
      <trkpt lat="45.1133" lon="2.61836">
        <ele>1180.8</ele>
        <time>2021-08-11T08:56:20Z</time>
      </trkpt>
      <trkpt lat="45.1133" lon="2.61837">
        <ele>1180.9</ele>
        <time>2021-08-11T08:56:21Z</time>
      </trkpt>
      <trkpt lat="45.1133" lon="2.61838">
        <ele>1180.9</ele>
        <time>2021-08-11T08:56:22Z</time>
      </trkpt>
      <trkpt lat="45.11331" lon="2.61839">
        <ele>1180.9</ele>
        <time>2021-08-11T08:56:23Z</time>
      </trkpt>
      <trkpt lat="45.11331" lon="2.6184">
        <ele>1180.9</ele>
        <time>2021-08-11T08:56:24Z</time>
      </trkpt>
      <trkpt lat="45.11332" lon="2.61841">
        <ele>1181</ele>
        <time>2021-08-11T08:56:25Z</time>
      </trkpt>
      <trkpt lat="45.11332" lon="2.61842">
        <ele>1181</ele>
        <time>2021-08-11T08:56:26Z</time>
      </trkpt>
      <trkpt lat="45.11332" lon="2.61844">
        <ele>1181.1</ele>
        <time>2021-08-11T08:56:27Z</time>
      </trkpt>
      <trkpt lat="45.11333" lon="2.61845">
        <ele>1181.1</ele>
        <time>2021-08-11T08:56:28Z</time>
      </trkpt>
      <trkpt lat="45.11333" lon="2.61846">
        <ele>1181</ele>
        <time>2021-08-11T08:56:29Z</time>
      </trkpt>
      <trkpt lat="45.11334" lon="2.61847">
        <ele>1181.1</ele>
        <time>2021-08-11T08:56:30Z</time>
      </trkpt>
      <trkpt lat="45.11334" lon="2.61848">
        <ele>1181.2</ele>
        <time>2021-08-11T08:56:31Z</time>
      </trkpt>
      <trkpt lat="45.11334" lon="2.61849">
        <ele>1181.3</ele>
        <time>2021-08-11T08:56:32Z</time>
      </trkpt>
      <trkpt lat="45.11335" lon="2.61851">
        <ele>1181.3</ele>
        <time>2021-08-11T08:56:33Z</time>
      </trkpt>
      <trkpt lat="45.11335" lon="2.61852">
        <ele>1181.4</ele>
        <time>2021-08-11T08:56:34Z</time>
      </trkpt>
      <trkpt lat="45.11335" lon="2.61853">
        <ele>1181.5</ele>
        <time>2021-08-11T08:56:35Z</time>
      </trkpt>
      <trkpt lat="45.11335" lon="2.61854">
        <ele>1181.6</ele>
        <time>2021-08-11T08:56:36Z</time>
      </trkpt>
      <trkpt lat="45.11336" lon="2.61855">
        <ele>1181.6</ele>
        <time>2021-08-11T08:56:37Z</time>
      </trkpt>
      <trkpt lat="45.11336" lon="2.61857">
        <ele>1181.7</ele>
        <time>2021-08-11T08:56:38Z</time>
      </trkpt>
      <trkpt lat="45.11336" lon="2.61858">
        <ele>1181.8</ele>
        <time>2021-08-11T08:56:39Z</time>
      </trkpt>
      <trkpt lat="45.11336" lon="2.61859">
        <ele>1181.9</ele>
        <time>2021-08-11T08:56:40Z</time>
      </trkpt>
      <trkpt lat="45.11337" lon="2.6186">
        <ele>1182</ele>
        <time>2021-08-11T08:56:41Z</time>
      </trkpt>
      <trkpt lat="45.11337" lon="2.61861">
        <ele>1182</ele>
        <time>2021-08-11T08:56:42Z</time>
      </trkpt>
      <trkpt lat="45.11337" lon="2.61863">
        <ele>1182.1</ele>
        <time>2021-08-11T08:56:43Z</time>
      </trkpt>
      <trkpt lat="45.11337" lon="2.61864">
        <ele>1182.2</ele>
        <time>2021-08-11T08:56:44Z</time>
      </trkpt>
      <trkpt lat="45.11338" lon="2.61865">
        <ele>1182.3</ele>
        <time>2021-08-11T08:56:45Z</time>
      </trkpt>
      <trkpt lat="45.11338" lon="2.61867">
        <ele>1182.4</ele>
        <time>2021-08-11T08:56:46Z</time>
      </trkpt>
      <trkpt lat="45.11338" lon="2.61868">
        <ele>1182.5</ele>
        <time>2021-08-11T08:56:47Z</time>
      </trkpt>
      <trkpt lat="45.11339" lon="2.61869">
        <ele>1182.6</ele>
        <time>2021-08-11T08:56:48Z</time>
      </trkpt>
      <trkpt lat="45.11339" lon="2.61871">
        <ele>1182.6</ele>
        <time>2021-08-11T08:56:49Z</time>
      </trkpt>
      <trkpt lat="45.11339" lon="2.61872">
        <ele>1182.7</ele>
        <time>2021-08-11T08:56:50Z</time>
      </trkpt>
      <trkpt lat="45.1134" lon="2.61873">
        <ele>1182.8</ele>
        <time>2021-08-11T08:56:51Z</time>
      </trkpt>
      <trkpt lat="45.1134" lon="2.61875">
        <ele>1182.9</ele>
        <time>2021-08-11T08:56:52Z</time>
      </trkpt>
      <trkpt lat="45.11341" lon="2.61876">
        <ele>1182.9</ele>
        <time>2021-08-11T08:56:53Z</time>
      </trkpt>
      <trkpt lat="45.11341" lon="2.61877">
        <ele>1182.9</ele>
        <time>2021-08-11T08:56:54Z</time>
      </trkpt>
      <trkpt lat="45.11342" lon="2.61878">
        <ele>1183</ele>
        <time>2021-08-11T08:56:55Z</time>
      </trkpt>
      <trkpt lat="45.11342" lon="2.61879">
        <ele>1183</ele>
        <time>2021-08-11T08:56:56Z</time>
      </trkpt>
      <trkpt lat="45.11342" lon="2.6188">
        <ele>1183.1</ele>
        <time>2021-08-11T08:56:57Z</time>
      </trkpt>
      <trkpt lat="45.11343" lon="2.61882">
        <ele>1183.2</ele>
        <time>2021-08-11T08:56:58Z</time>
      </trkpt>
      <trkpt lat="45.11343" lon="2.61883">
        <ele>1183.3</ele>
        <time>2021-08-11T08:56:59Z</time>
      </trkpt>
      <trkpt lat="45.11343" lon="2.61884">
        <ele>1183.4</ele>
        <time>2021-08-11T08:57:00Z</time>
      </trkpt>
      <trkpt lat="45.11344" lon="2.61885">
        <ele>1183.5</ele>
        <time>2021-08-11T08:57:01Z</time>
      </trkpt>
      <trkpt lat="45.11344" lon="2.61887">
        <ele>1183.6</ele>
        <time>2021-08-11T08:57:02Z</time>
      </trkpt>
      <trkpt lat="45.11344" lon="2.61888">
        <ele>1183.7</ele>
        <time>2021-08-11T08:57:03Z</time>
      </trkpt>
      <trkpt lat="45.11344" lon="2.6189">
        <ele>1183.8</ele>
        <time>2021-08-11T08:57:04Z</time>
      </trkpt>
      <trkpt lat="45.11345" lon="2.61891">
        <ele>1183.9</ele>
        <time>2021-08-11T08:57:05Z</time>
      </trkpt>
      <trkpt lat="45.11345" lon="2.61892">
        <ele>1184</ele>
        <time>2021-08-11T08:57:06Z</time>
      </trkpt>
      <trkpt lat="45.11345" lon="2.61894">
        <ele>1184.1</ele>
        <time>2021-08-11T08:57:07Z</time>
      </trkpt>
      <trkpt lat="45.11345" lon="2.61895">
        <ele>1184.2</ele>
        <time>2021-08-11T08:57:08Z</time>
      </trkpt>
      <trkpt lat="45.11345" lon="2.61896">
        <ele>1184.3</ele>
        <time>2021-08-11T08:57:09Z</time>
      </trkpt>
      <trkpt lat="45.11345" lon="2.61898">
        <ele>1184.4</ele>
        <time>2021-08-11T08:57:10Z</time>
      </trkpt>
      <trkpt lat="45.11345" lon="2.61899">
        <ele>1184.5</ele>
        <time>2021-08-11T08:57:11Z</time>
      </trkpt>
      <trkpt lat="45.11345" lon="2.61901">
        <ele>1184.6</ele>
        <time>2021-08-11T08:57:12Z</time>
      </trkpt>
      <trkpt lat="45.11345" lon="2.61902">
        <ele>1184.7</ele>
        <time>2021-08-11T08:57:13Z</time>
      </trkpt>
      <trkpt lat="45.11345" lon="2.61903">
        <ele>1184.8</ele>
        <time>2021-08-11T08:57:14Z</time>
      </trkpt>
      <trkpt lat="45.11345" lon="2.61905">
        <ele>1184.9</ele>
        <time>2021-08-11T08:57:15Z</time>
      </trkpt>
      <trkpt lat="45.11346" lon="2.61906">
        <ele>1185.1</ele>
        <time>2021-08-11T08:57:16Z</time>
      </trkpt>
      <trkpt lat="45.11346" lon="2.61907">
        <ele>1185.2</ele>
        <time>2021-08-11T08:57:17Z</time>
      </trkpt>
      <trkpt lat="45.11346" lon="2.61909">
        <ele>1185.3</ele>
        <time>2021-08-11T08:57:18Z</time>
      </trkpt>
      <trkpt lat="45.11346" lon="2.6191">
        <ele>1185.4</ele>
        <time>2021-08-11T08:57:19Z</time>
      </trkpt>
      <trkpt lat="45.11346" lon="2.61912">
        <ele>1185.5</ele>
        <time>2021-08-11T08:57:20Z</time>
      </trkpt>
      <trkpt lat="45.11346" lon="2.61913">
        <ele>1185.6</ele>
        <time>2021-08-11T08:57:21Z</time>
      </trkpt>
      <trkpt lat="45.11346" lon="2.61914">
        <ele>1185.7</ele>
        <time>2021-08-11T08:57:22Z</time>
      </trkpt>
      <trkpt lat="45.11346" lon="2.61915">
        <ele>1185.8</ele>
        <time>2021-08-11T08:57:23Z</time>
      </trkpt>
      <trkpt lat="45.11346" lon="2.61917">
        <ele>1185.9</ele>
        <time>2021-08-11T08:57:24Z</time>
      </trkpt>
      <trkpt lat="45.11346" lon="2.61918">
        <ele>1186</ele>
        <time>2021-08-11T08:57:25Z</time>
      </trkpt>
      <trkpt lat="45.11346" lon="2.61919">
        <ele>1186.1</ele>
        <time>2021-08-11T08:57:26Z</time>
      </trkpt>
      <trkpt lat="45.11346" lon="2.61921">
        <ele>1186.2</ele>
        <time>2021-08-11T08:57:27Z</time>
      </trkpt>
      <trkpt lat="45.11346" lon="2.61922">
        <ele>1186.4</ele>
        <time>2021-08-11T08:57:28Z</time>
      </trkpt>
      <trkpt lat="45.11345" lon="2.61924">
        <ele>1186.5</ele>
        <time>2021-08-11T08:57:29Z</time>
      </trkpt>
      <trkpt lat="45.11345" lon="2.61925">
        <ele>1186.6</ele>
        <time>2021-08-11T08:57:30Z</time>
      </trkpt>
      <trkpt lat="45.11345" lon="2.61926">
        <ele>1186.7</ele>
        <time>2021-08-11T08:57:31Z</time>
      </trkpt>
      <trkpt lat="45.11344" lon="2.61928">
        <ele>1186.8</ele>
        <time>2021-08-11T08:57:32Z</time>
      </trkpt>
      <trkpt lat="45.11344" lon="2.61929">
        <ele>1186.9</ele>
        <time>2021-08-11T08:57:33Z</time>
      </trkpt>
      <trkpt lat="45.11344" lon="2.6193">
        <ele>1187.1</ele>
        <time>2021-08-11T08:57:34Z</time>
      </trkpt>
      <trkpt lat="45.11344" lon="2.61932">
        <ele>1187.2</ele>
        <time>2021-08-11T08:57:35Z</time>
      </trkpt>
      <trkpt lat="45.11344" lon="2.61933">
        <ele>1187.3</ele>
        <time>2021-08-11T08:57:36Z</time>
      </trkpt>
      <trkpt lat="45.11343" lon="2.61935">
        <ele>1187.4</ele>
        <time>2021-08-11T08:57:37Z</time>
      </trkpt>
      <trkpt lat="45.11343" lon="2.61936">
        <ele>1187.6</ele>
        <time>2021-08-11T08:57:38Z</time>
      </trkpt>
      <trkpt lat="45.11343" lon="2.61937">
        <ele>1187.7</ele>
        <time>2021-08-11T08:57:39Z</time>
      </trkpt>
      <trkpt lat="45.11342" lon="2.61939">
        <ele>1187.8</ele>
        <time>2021-08-11T08:57:40Z</time>
      </trkpt>
      <trkpt lat="45.11342" lon="2.6194">
        <ele>1187.9</ele>
        <time>2021-08-11T08:57:41Z</time>
      </trkpt>
      <trkpt lat="45.11342" lon="2.61941">
        <ele>1188</ele>
        <time>2021-08-11T08:57:42Z</time>
      </trkpt>
      <trkpt lat="45.11341" lon="2.61943">
        <ele>1188.2</ele>
        <time>2021-08-11T08:57:43Z</time>
      </trkpt>
      <trkpt lat="45.11341" lon="2.61944">
        <ele>1188.3</ele>
        <time>2021-08-11T08:57:44Z</time>
      </trkpt>
      <trkpt lat="45.1134" lon="2.61945">
        <ele>1188.4</ele>
        <time>2021-08-11T08:57:45Z</time>
      </trkpt>
      <trkpt lat="45.1134" lon="2.61947">
        <ele>1188.6</ele>
        <time>2021-08-11T08:57:46Z</time>
      </trkpt>
      <trkpt lat="45.1134" lon="2.61948">
        <ele>1188.7</ele>
        <time>2021-08-11T08:57:47Z</time>
      </trkpt>
      <trkpt lat="45.11339" lon="2.61949">
        <ele>1188.8</ele>
        <time>2021-08-11T08:57:48Z</time>
      </trkpt>
      <trkpt lat="45.11339" lon="2.6195">
        <ele>1188.9</ele>
        <time>2021-08-11T08:57:49Z</time>
      </trkpt>
      <trkpt lat="45.11339" lon="2.61951">
        <ele>1189</ele>
        <time>2021-08-11T08:57:50Z</time>
      </trkpt>
      <trkpt lat="45.11338" lon="2.61953">
        <ele>1189.1</ele>
        <time>2021-08-11T08:57:51Z</time>
      </trkpt>
      <trkpt lat="45.11338" lon="2.61954">
        <ele>1189.3</ele>
        <time>2021-08-11T08:57:52Z</time>
      </trkpt>
      <trkpt lat="45.11338" lon="2.61955">
        <ele>1189.4</ele>
        <time>2021-08-11T08:57:53Z</time>
      </trkpt>
      <trkpt lat="45.11338" lon="2.61957">
        <ele>1189.5</ele>
        <time>2021-08-11T08:57:54Z</time>
      </trkpt>
      <trkpt lat="45.11337" lon="2.61958">
        <ele>1189.6</ele>
        <time>2021-08-11T08:57:55Z</time>
      </trkpt>
      <trkpt lat="45.11337" lon="2.61959">
        <ele>1189.7</ele>
        <time>2021-08-11T08:57:56Z</time>
      </trkpt>
      <trkpt lat="45.11337" lon="2.6196">
        <ele>1189.8</ele>
        <time>2021-08-11T08:57:57Z</time>
      </trkpt>
      <trkpt lat="45.11336" lon="2.61961">
        <ele>1190</ele>
        <time>2021-08-11T08:57:58Z</time>
      </trkpt>
      <trkpt lat="45.11336" lon="2.61963">
        <ele>1190.1</ele>
        <time>2021-08-11T08:57:59Z</time>
      </trkpt>
      <trkpt lat="45.11336" lon="2.61964">
        <ele>1190.2</ele>
        <time>2021-08-11T08:58:00Z</time>
      </trkpt>
      <trkpt lat="45.11335" lon="2.61965">
        <ele>1190.3</ele>
        <time>2021-08-11T08:58:01Z</time>
      </trkpt>
      <trkpt lat="45.11335" lon="2.61967">
        <ele>1190.4</ele>
        <time>2021-08-11T08:58:02Z</time>
      </trkpt>
      <trkpt lat="45.11335" lon="2.61968">
        <ele>1190.6</ele>
        <time>2021-08-11T08:58:03Z</time>
      </trkpt>
      <trkpt lat="45.11334" lon="2.61969">
        <ele>1190.7</ele>
        <time>2021-08-11T08:58:04Z</time>
      </trkpt>
      <trkpt lat="45.11334" lon="2.6197">
        <ele>1190.8</ele>
        <time>2021-08-11T08:58:05Z</time>
      </trkpt>
      <trkpt lat="45.11333" lon="2.61971">
        <ele>1190.9</ele>
        <time>2021-08-11T08:58:06Z</time>
      </trkpt>
      <trkpt lat="45.11333" lon="2.61973">
        <ele>1191.1</ele>
        <time>2021-08-11T08:58:07Z</time>
      </trkpt>
      <trkpt lat="45.11333" lon="2.61974">
        <ele>1191.3</ele>
        <time>2021-08-11T08:58:08Z</time>
      </trkpt>
      <trkpt lat="45.11332" lon="2.61975">
        <ele>1191.5</ele>
        <time>2021-08-11T08:58:09Z</time>
      </trkpt>
      <trkpt lat="45.11332" lon="2.61976">
        <ele>1191.7</ele>
        <time>2021-08-11T08:58:10Z</time>
      </trkpt>
      <trkpt lat="45.11331" lon="2.61977">
        <ele>1191.8</ele>
        <time>2021-08-11T08:58:11Z</time>
      </trkpt>
      <trkpt lat="45.11331" lon="2.61979">
        <ele>1192</ele>
        <time>2021-08-11T08:58:12Z</time>
      </trkpt>
      <trkpt lat="45.11331" lon="2.6198">
        <ele>1192.2</ele>
        <time>2021-08-11T08:58:13Z</time>
      </trkpt>
      <trkpt lat="45.1133" lon="2.61981">
        <ele>1192.3</ele>
        <time>2021-08-11T08:58:14Z</time>
      </trkpt>
      <trkpt lat="45.1133" lon="2.61982">
        <ele>1192.5</ele>
        <time>2021-08-11T08:58:15Z</time>
      </trkpt>
      <trkpt lat="45.1133" lon="2.61984">
        <ele>1192.7</ele>
        <time>2021-08-11T08:58:16Z</time>
      </trkpt>
      <trkpt lat="45.11329" lon="2.61985">
        <ele>1192.9</ele>
        <time>2021-08-11T08:58:17Z</time>
      </trkpt>
      <trkpt lat="45.11329" lon="2.61986">
        <ele>1193.1</ele>
        <time>2021-08-11T08:58:18Z</time>
      </trkpt>
      <trkpt lat="45.11328" lon="2.61987">
        <ele>1193.3</ele>
        <time>2021-08-11T08:58:19Z</time>
      </trkpt>
      <trkpt lat="45.11328" lon="2.61989">
        <ele>1193.5</ele>
        <time>2021-08-11T08:58:20Z</time>
      </trkpt>
      <trkpt lat="45.11328" lon="2.6199">
        <ele>1193.7</ele>
        <time>2021-08-11T08:58:21Z</time>
      </trkpt>
      <trkpt lat="45.11327" lon="2.61991">
        <ele>1193.8</ele>
        <time>2021-08-11T08:58:22Z</time>
      </trkpt>
      <trkpt lat="45.11327" lon="2.61993">
        <ele>1194</ele>
        <time>2021-08-11T08:58:23Z</time>
      </trkpt>
      <trkpt lat="45.11327" lon="2.61994">
        <ele>1194.2</ele>
        <time>2021-08-11T08:58:24Z</time>
      </trkpt>
      <trkpt lat="45.11326" lon="2.61995">
        <ele>1194.4</ele>
        <time>2021-08-11T08:58:25Z</time>
      </trkpt>
      <trkpt lat="45.11326" lon="2.61996">
        <ele>1194.6</ele>
        <time>2021-08-11T08:58:26Z</time>
      </trkpt>
      <trkpt lat="45.11325" lon="2.61998">
        <ele>1194.7</ele>
        <time>2021-08-11T08:58:27Z</time>
      </trkpt>
      <trkpt lat="45.11325" lon="2.61999">
        <ele>1194.9</ele>
        <time>2021-08-11T08:58:28Z</time>
      </trkpt>
      <trkpt lat="45.11325" lon="2.62">
        <ele>1195.1</ele>
        <time>2021-08-11T08:58:29Z</time>
      </trkpt>
      <trkpt lat="45.11324" lon="2.62001">
        <ele>1195.3</ele>
        <time>2021-08-11T08:58:30Z</time>
      </trkpt>
      <trkpt lat="45.11324" lon="2.62003">
        <ele>1195.5</ele>
        <time>2021-08-11T08:58:31Z</time>
      </trkpt>
      <trkpt lat="45.11323" lon="2.62004">
        <ele>1195.6</ele>
        <time>2021-08-11T08:58:32Z</time>
      </trkpt>
      <trkpt lat="45.11323" lon="2.62005">
        <ele>1195.8</ele>
        <time>2021-08-11T08:58:33Z</time>
      </trkpt>
      <trkpt lat="45.11322" lon="2.62006">
        <ele>1196</ele>
        <time>2021-08-11T08:58:34Z</time>
      </trkpt>
      <trkpt lat="45.11322" lon="2.62008">
        <ele>1196.2</ele>
        <time>2021-08-11T08:58:35Z</time>
      </trkpt>
      <trkpt lat="45.11322" lon="2.62009">
        <ele>1196.3</ele>
        <time>2021-08-11T08:58:36Z</time>
      </trkpt>
      <trkpt lat="45.11321" lon="2.6201">
        <ele>1196.4</ele>
        <time>2021-08-11T08:58:37Z</time>
      </trkpt>
      <trkpt lat="45.11321" lon="2.62011">
        <ele>1196.6</ele>
        <time>2021-08-11T08:58:38Z</time>
      </trkpt>
      <trkpt lat="45.1132" lon="2.62013">
        <ele>1196.8</ele>
        <time>2021-08-11T08:58:39Z</time>
      </trkpt>
      <trkpt lat="45.1132" lon="2.62014">
        <ele>1196.9</ele>
        <time>2021-08-11T08:58:40Z</time>
      </trkpt>
      <trkpt lat="45.11319" lon="2.62015">
        <ele>1197.1</ele>
        <time>2021-08-11T08:58:41Z</time>
      </trkpt>
      <trkpt lat="45.11319" lon="2.62016">
        <ele>1197.3</ele>
        <time>2021-08-11T08:58:42Z</time>
      </trkpt>
      <trkpt lat="45.11319" lon="2.62017">
        <ele>1197.5</ele>
        <time>2021-08-11T08:58:43Z</time>
      </trkpt>
      <trkpt lat="45.11318" lon="2.62019">
        <ele>1197.6</ele>
        <time>2021-08-11T08:58:44Z</time>
      </trkpt>
      <trkpt lat="45.11318" lon="2.6202">
        <ele>1197.8</ele>
        <time>2021-08-11T08:58:45Z</time>
      </trkpt>
      <trkpt lat="45.11318" lon="2.62021">
        <ele>1197.9</ele>
        <time>2021-08-11T08:58:46Z</time>
      </trkpt>
      <trkpt lat="45.11317" lon="2.62023">
        <ele>1198.1</ele>
        <time>2021-08-11T08:58:47Z</time>
      </trkpt>
      <trkpt lat="45.11317" lon="2.62024">
        <ele>1198.3</ele>
        <time>2021-08-11T08:58:48Z</time>
      </trkpt>
      <trkpt lat="45.11316" lon="2.62025">
        <ele>1198.4</ele>
        <time>2021-08-11T08:58:49Z</time>
      </trkpt>
      <trkpt lat="45.11316" lon="2.62026">
        <ele>1198.7</ele>
        <time>2021-08-11T08:58:50Z</time>
      </trkpt>
      <trkpt lat="45.11315" lon="2.62028">
        <ele>1198.9</ele>
        <time>2021-08-11T08:58:51Z</time>
      </trkpt>
      <trkpt lat="45.11314" lon="2.62029">
        <ele>1199.1</ele>
        <time>2021-08-11T08:58:52Z</time>
      </trkpt>
      <trkpt lat="45.11314" lon="2.6203">
        <ele>1199.3</ele>
        <time>2021-08-11T08:58:53Z</time>
      </trkpt>
      <trkpt lat="45.11313" lon="2.62031">
        <ele>1199.5</ele>
        <time>2021-08-11T08:58:54Z</time>
      </trkpt>
      <trkpt lat="45.11313" lon="2.62033">
        <ele>1199.7</ele>
        <time>2021-08-11T08:58:55Z</time>
      </trkpt>
      <trkpt lat="45.11313" lon="2.62034">
        <ele>1199.8</ele>
        <time>2021-08-11T08:58:56Z</time>
      </trkpt>
      <trkpt lat="45.11312" lon="2.62035">
        <ele>1200</ele>
        <time>2021-08-11T08:58:57Z</time>
      </trkpt>
      <trkpt lat="45.11312" lon="2.62037">
        <ele>1200.1</ele>
        <time>2021-08-11T08:58:58Z</time>
      </trkpt>
      <trkpt lat="45.11312" lon="2.62038">
        <ele>1200.3</ele>
        <time>2021-08-11T08:58:59Z</time>
      </trkpt>
      <trkpt lat="45.11311" lon="2.62039">
        <ele>1200.4</ele>
        <time>2021-08-11T08:59:00Z</time>
      </trkpt>
      <trkpt lat="45.11311" lon="2.6204">
        <ele>1200.6</ele>
        <time>2021-08-11T08:59:01Z</time>
      </trkpt>
      <trkpt lat="45.1131" lon="2.62042">
        <ele>1200.8</ele>
        <time>2021-08-11T08:59:02Z</time>
      </trkpt>
      <trkpt lat="45.1131" lon="2.62043">
        <ele>1201</ele>
        <time>2021-08-11T08:59:03Z</time>
      </trkpt>
      <trkpt lat="45.11309" lon="2.62044">
        <ele>1201.2</ele>
        <time>2021-08-11T08:59:04Z</time>
      </trkpt>
      <trkpt lat="45.11309" lon="2.62045">
        <ele>1201.3</ele>
        <time>2021-08-11T08:59:05Z</time>
      </trkpt>
      <trkpt lat="45.11309" lon="2.62047">
        <ele>1201.5</ele>
        <time>2021-08-11T08:59:06Z</time>
      </trkpt>
      <trkpt lat="45.11308" lon="2.62048">
        <ele>1201.7</ele>
        <time>2021-08-11T08:59:07Z</time>
      </trkpt>
      <trkpt lat="45.11308" lon="2.62049">
        <ele>1201.9</ele>
        <time>2021-08-11T08:59:08Z</time>
      </trkpt>
      <trkpt lat="45.11307" lon="2.62051">
        <ele>1202.1</ele>
        <time>2021-08-11T08:59:09Z</time>
      </trkpt>
      <trkpt lat="45.11306" lon="2.62052">
        <ele>1202.4</ele>
        <time>2021-08-11T08:59:10Z</time>
      </trkpt>
      <trkpt lat="45.11306" lon="2.62052">
        <ele>1202.5</ele>
        <time>2021-08-11T08:59:11Z</time>
      </trkpt>
      <trkpt lat="45.11306" lon="2.62054">
        <ele>1202.7</ele>
        <time>2021-08-11T08:59:12Z</time>
      </trkpt>
      <trkpt lat="45.11305" lon="2.62055">
        <ele>1202.9</ele>
        <time>2021-08-11T08:59:13Z</time>
      </trkpt>
      <trkpt lat="45.11304" lon="2.62056">
        <ele>1203.1</ele>
        <time>2021-08-11T08:59:14Z</time>
      </trkpt>
      <trkpt lat="45.11304" lon="2.62057">
        <ele>1203.2</ele>
        <time>2021-08-11T08:59:15Z</time>
      </trkpt>
      <trkpt lat="45.11304" lon="2.62058">
        <ele>1203.4</ele>
        <time>2021-08-11T08:59:16Z</time>
      </trkpt>
      <trkpt lat="45.11303" lon="2.62059">
        <ele>1203.5</ele>
        <time>2021-08-11T08:59:17Z</time>
      </trkpt>
      <trkpt lat="45.11303" lon="2.6206">
        <ele>1203.7</ele>
        <time>2021-08-11T08:59:18Z</time>
      </trkpt>
      <trkpt lat="45.11302" lon="2.62062">
        <ele>1204</ele>
        <time>2021-08-11T08:59:19Z</time>
      </trkpt>
      <trkpt lat="45.11302" lon="2.62063">
        <ele>1204.1</ele>
        <time>2021-08-11T08:59:20Z</time>
      </trkpt>
      <trkpt lat="45.11301" lon="2.62064">
        <ele>1204.3</ele>
        <time>2021-08-11T08:59:21Z</time>
      </trkpt>
      <trkpt lat="45.11301" lon="2.62065">
        <ele>1204.5</ele>
        <time>2021-08-11T08:59:22Z</time>
      </trkpt>
      <trkpt lat="45.11301" lon="2.62067">
        <ele>1204.7</ele>
        <time>2021-08-11T08:59:23Z</time>
      </trkpt>
      <trkpt lat="45.113" lon="2.62068">
        <ele>1204.9</ele>
        <time>2021-08-11T08:59:24Z</time>
      </trkpt>
      <trkpt lat="45.113" lon="2.62069">
        <ele>1205.1</ele>
        <time>2021-08-11T08:59:25Z</time>
      </trkpt>
      <trkpt lat="45.11299" lon="2.6207">
        <ele>1205.3</ele>
        <time>2021-08-11T08:59:26Z</time>
      </trkpt>
      <trkpt lat="45.11299" lon="2.62071">
        <ele>1205.4</ele>
        <time>2021-08-11T08:59:27Z</time>
      </trkpt>
      <trkpt lat="45.11298" lon="2.62073">
        <ele>1205.6</ele>
        <time>2021-08-11T08:59:28Z</time>
      </trkpt>
      <trkpt lat="45.11298" lon="2.62074">
        <ele>1205.8</ele>
        <time>2021-08-11T08:59:29Z</time>
      </trkpt>
      <trkpt lat="45.11297" lon="2.62075">
        <ele>1206</ele>
        <time>2021-08-11T08:59:30Z</time>
      </trkpt>
      <trkpt lat="45.11297" lon="2.62077">
        <ele>1206.2</ele>
        <time>2021-08-11T08:59:31Z</time>
      </trkpt>
      <trkpt lat="45.11297" lon="2.62078">
        <ele>1206.3</ele>
        <time>2021-08-11T08:59:32Z</time>
      </trkpt>
      <trkpt lat="45.11297" lon="2.6208">
        <ele>1206.5</ele>
        <time>2021-08-11T08:59:33Z</time>
      </trkpt>
      <trkpt lat="45.11297" lon="2.62081">
        <ele>1206.6</ele>
        <time>2021-08-11T08:59:34Z</time>
      </trkpt>
      <trkpt lat="45.11297" lon="2.62083">
        <ele>1206.7</ele>
        <time>2021-08-11T08:59:35Z</time>
      </trkpt>
      <trkpt lat="45.11297" lon="2.62084">
        <ele>1206.7</ele>
        <time>2021-08-11T08:59:36Z</time>
      </trkpt>
      <trkpt lat="45.11297" lon="2.62086">
        <ele>1206.9</ele>
        <time>2021-08-11T08:59:37Z</time>
      </trkpt>
      <trkpt lat="45.11297" lon="2.62087">
        <ele>1207</ele>
        <time>2021-08-11T08:59:38Z</time>
      </trkpt>
      <trkpt lat="45.11296" lon="2.62088">
        <ele>1207.1</ele>
        <time>2021-08-11T08:59:39Z</time>
      </trkpt>
      <trkpt lat="45.11296" lon="2.6209">
        <ele>1207.3</ele>
        <time>2021-08-11T08:59:40Z</time>
      </trkpt>
      <trkpt lat="45.11296" lon="2.62091">
        <ele>1207.4</ele>
        <time>2021-08-11T08:59:41Z</time>
      </trkpt>
      <trkpt lat="45.11296" lon="2.62092">
        <ele>1207.5</ele>
        <time>2021-08-11T08:59:42Z</time>
      </trkpt>
      <trkpt lat="45.11296" lon="2.62093">
        <ele>1207.6</ele>
        <time>2021-08-11T08:59:43Z</time>
      </trkpt>
      <trkpt lat="45.11296" lon="2.62095">
        <ele>1207.7</ele>
        <time>2021-08-11T08:59:44Z</time>
      </trkpt>
      <trkpt lat="45.11296" lon="2.62096">
        <ele>1207.7</ele>
        <time>2021-08-11T08:59:45Z</time>
      </trkpt>
      <trkpt lat="45.11296" lon="2.62097">
        <ele>1207.7</ele>
        <time>2021-08-11T08:59:46Z</time>
      </trkpt>
      <trkpt lat="45.11297" lon="2.62099">
        <ele>1207.6</ele>
        <time>2021-08-11T08:59:47Z</time>
      </trkpt>
      <trkpt lat="45.11297" lon="2.621">
        <ele>1207.7</ele>
        <time>2021-08-11T08:59:48Z</time>
      </trkpt>
      <trkpt lat="45.11297" lon="2.62101">
        <ele>1207.7</ele>
        <time>2021-08-11T08:59:49Z</time>
      </trkpt>
      <trkpt lat="45.11297" lon="2.62102">
        <ele>1207.7</ele>
        <time>2021-08-11T08:59:50Z</time>
      </trkpt>
      <trkpt lat="45.11298" lon="2.62104">
        <ele>1207.7</ele>
        <time>2021-08-11T08:59:51Z</time>
      </trkpt>
      <trkpt lat="45.11298" lon="2.62105">
        <ele>1207.7</ele>
        <time>2021-08-11T08:59:52Z</time>
      </trkpt>
      <trkpt lat="45.11299" lon="2.62106">
        <ele>1207.6</ele>
        <time>2021-08-11T08:59:53Z</time>
      </trkpt>
      <trkpt lat="45.11299" lon="2.62107">
        <ele>1207.6</ele>
        <time>2021-08-11T08:59:54Z</time>
      </trkpt>
      <trkpt lat="45.11299" lon="2.62109">
        <ele>1207.6</ele>
        <time>2021-08-11T08:59:55Z</time>
      </trkpt>
      <trkpt lat="45.113" lon="2.6211">
        <ele>1207.6</ele>
        <time>2021-08-11T08:59:56Z</time>
      </trkpt>
      <trkpt lat="45.113" lon="2.62111">
        <ele>1207.6</ele>
        <time>2021-08-11T08:59:57Z</time>
      </trkpt>
      <trkpt lat="45.113" lon="2.62112">
        <ele>1207.6</ele>
        <time>2021-08-11T08:59:58Z</time>
      </trkpt>
      <trkpt lat="45.113" lon="2.62114">
        <ele>1207.7</ele>
        <time>2021-08-11T08:59:59Z</time>
      </trkpt>
      <trkpt lat="45.113" lon="2.62115">
        <ele>1207.7</ele>
        <time>2021-08-11T09:00:00Z</time>
      </trkpt>
      <trkpt lat="45.113" lon="2.62116">
        <ele>1207.7</ele>
        <time>2021-08-11T09:00:01Z</time>
      </trkpt>
      <trkpt lat="45.11301" lon="2.62117">
        <ele>1207.8</ele>
        <time>2021-08-11T09:00:02Z</time>
      </trkpt>
      <trkpt lat="45.11301" lon="2.62118">
        <ele>1207.8</ele>
        <time>2021-08-11T09:00:03Z</time>
      </trkpt>
      <trkpt lat="45.11301" lon="2.6212">
        <ele>1207.8</ele>
        <time>2021-08-11T09:00:04Z</time>
      </trkpt>
      <trkpt lat="45.11301" lon="2.62121">
        <ele>1207.8</ele>
        <time>2021-08-11T09:00:05Z</time>
      </trkpt>
      <trkpt lat="45.11302" lon="2.62122">
        <ele>1207.8</ele>
        <time>2021-08-11T09:00:06Z</time>
      </trkpt>
      <trkpt lat="45.11302" lon="2.62124">
        <ele>1207.8</ele>
        <time>2021-08-11T09:00:07Z</time>
      </trkpt>
      <trkpt lat="45.11302" lon="2.62125">
        <ele>1207.9</ele>
        <time>2021-08-11T09:00:08Z</time>
      </trkpt>
      <trkpt lat="45.11302" lon="2.62126">
        <ele>1207.9</ele>
        <time>2021-08-11T09:00:09Z</time>
      </trkpt>
      <trkpt lat="45.11302" lon="2.62128">
        <ele>1207.9</ele>
        <time>2021-08-11T09:00:10Z</time>
      </trkpt>
      <trkpt lat="45.11302" lon="2.62129">
        <ele>1208</ele>
        <time>2021-08-11T09:00:11Z</time>
      </trkpt>
      <trkpt lat="45.11303" lon="2.6213">
        <ele>1208</ele>
        <time>2021-08-11T09:00:12Z</time>
      </trkpt>
      <trkpt lat="45.11303" lon="2.62131">
        <ele>1208.1</ele>
        <time>2021-08-11T09:00:13Z</time>
      </trkpt>
      <trkpt lat="45.11303" lon="2.62133">
        <ele>1208.2</ele>
        <time>2021-08-11T09:00:14Z</time>
      </trkpt>
      <trkpt lat="45.11303" lon="2.62134">
        <ele>1208.2</ele>
        <time>2021-08-11T09:00:15Z</time>
      </trkpt>
      <trkpt lat="45.11303" lon="2.62135">
        <ele>1208.2</ele>
        <time>2021-08-11T09:00:16Z</time>
      </trkpt>
      <trkpt lat="45.11303" lon="2.62137">
        <ele>1208.3</ele>
        <time>2021-08-11T09:00:17Z</time>
      </trkpt>
      <trkpt lat="45.11303" lon="2.62138">
        <ele>1208.3</ele>
        <time>2021-08-11T09:00:18Z</time>
      </trkpt>
      <trkpt lat="45.11303" lon="2.62139">
        <ele>1208.3</ele>
        <time>2021-08-11T09:00:19Z</time>
      </trkpt>
      <trkpt lat="45.11304" lon="2.6214">
        <ele>1208.3</ele>
        <time>2021-08-11T09:00:20Z</time>
      </trkpt>
      <trkpt lat="45.11304" lon="2.62142">
        <ele>1208.4</ele>
        <time>2021-08-11T09:00:21Z</time>
      </trkpt>
      <trkpt lat="45.11304" lon="2.62143">
        <ele>1208.5</ele>
        <time>2021-08-11T09:00:22Z</time>
      </trkpt>
      <trkpt lat="45.11304" lon="2.62144">
        <ele>1208.5</ele>
        <time>2021-08-11T09:00:23Z</time>
      </trkpt>
      <trkpt lat="45.11304" lon="2.62146">
        <ele>1208.6</ele>
        <time>2021-08-11T09:00:24Z</time>
      </trkpt>
      <trkpt lat="45.11304" lon="2.62147">
        <ele>1208.7</ele>
        <time>2021-08-11T09:00:25Z</time>
      </trkpt>
      <trkpt lat="45.11304" lon="2.62148">
        <ele>1208.8</ele>
        <time>2021-08-11T09:00:26Z</time>
      </trkpt>
      <trkpt lat="45.11304" lon="2.6215">
        <ele>1208.9</ele>
        <time>2021-08-11T09:00:27Z</time>
      </trkpt>
      <trkpt lat="45.11304" lon="2.62151">
        <ele>1209</ele>
        <time>2021-08-11T09:00:28Z</time>
      </trkpt>
      <trkpt lat="45.11303" lon="2.62152">
        <ele>1209.1</ele>
        <time>2021-08-11T09:00:29Z</time>
      </trkpt>
      <trkpt lat="45.11303" lon="2.62153">
        <ele>1209.2</ele>
        <time>2021-08-11T09:00:30Z</time>
      </trkpt>
      <trkpt lat="45.11303" lon="2.62155">
        <ele>1209.4</ele>
        <time>2021-08-11T09:00:31Z</time>
      </trkpt>
      <trkpt lat="45.11303" lon="2.62156">
        <ele>1209.6</ele>
        <time>2021-08-11T09:00:32Z</time>
      </trkpt>
      <trkpt lat="45.11302" lon="2.62157">
        <ele>1209.7</ele>
        <time>2021-08-11T09:00:33Z</time>
      </trkpt>
      <trkpt lat="45.11302" lon="2.62158">
        <ele>1209.9</ele>
        <time>2021-08-11T09:00:34Z</time>
      </trkpt>
      <trkpt lat="45.11302" lon="2.62159">
        <ele>1210</ele>
        <time>2021-08-11T09:00:35Z</time>
      </trkpt>
      <trkpt lat="45.11302" lon="2.62161">
        <ele>1210.1</ele>
        <time>2021-08-11T09:00:36Z</time>
      </trkpt>
      <trkpt lat="45.11302" lon="2.62162">
        <ele>1210.3</ele>
        <time>2021-08-11T09:00:37Z</time>
      </trkpt>
      <trkpt lat="45.11301" lon="2.62163">
        <ele>1210.4</ele>
        <time>2021-08-11T09:00:38Z</time>
      </trkpt>
      <trkpt lat="45.11301" lon="2.62165">
        <ele>1210.6</ele>
        <time>2021-08-11T09:00:39Z</time>
      </trkpt>
      <trkpt lat="45.11301" lon="2.62166">
        <ele>1210.7</ele>
        <time>2021-08-11T09:00:40Z</time>
      </trkpt>
      <trkpt lat="45.11301" lon="2.62167">
        <ele>1210.9</ele>
        <time>2021-08-11T09:00:41Z</time>
      </trkpt>
      <trkpt lat="45.11301" lon="2.62169">
        <ele>1211</ele>
        <time>2021-08-11T09:00:42Z</time>
      </trkpt>
      <trkpt lat="45.11301" lon="2.6217">
        <ele>1211.2</ele>
        <time>2021-08-11T09:00:43Z</time>
      </trkpt>
      <trkpt lat="45.113" lon="2.62171">
        <ele>1211.4</ele>
        <time>2021-08-11T09:00:44Z</time>
      </trkpt>
      <trkpt lat="45.113" lon="2.62173">
        <ele>1211.6</ele>
        <time>2021-08-11T09:00:45Z</time>
      </trkpt>
      <trkpt lat="45.113" lon="2.62174">
        <ele>1211.7</ele>
        <time>2021-08-11T09:00:46Z</time>
      </trkpt>
      <trkpt lat="45.113" lon="2.62175">
        <ele>1211.9</ele>
        <time>2021-08-11T09:00:47Z</time>
      </trkpt>
      <trkpt lat="45.113" lon="2.62177">
        <ele>1212</ele>
        <time>2021-08-11T09:00:48Z</time>
      </trkpt>
      <trkpt lat="45.113" lon="2.62178">
        <ele>1212.2</ele>
        <time>2021-08-11T09:00:49Z</time>
      </trkpt>
      <trkpt lat="45.113" lon="2.62179">
        <ele>1212.3</ele>
        <time>2021-08-11T09:00:50Z</time>
      </trkpt>
      <trkpt lat="45.113" lon="2.6218">
        <ele>1212.5</ele>
        <time>2021-08-11T09:00:51Z</time>
      </trkpt>
      <trkpt lat="45.113" lon="2.62181">
        <ele>1212.6</ele>
        <time>2021-08-11T09:00:52Z</time>
      </trkpt>
      <trkpt lat="45.113" lon="2.62183">
        <ele>1212.7</ele>
        <time>2021-08-11T09:00:53Z</time>
      </trkpt>
      <trkpt lat="45.113" lon="2.62184">
        <ele>1212.8</ele>
        <time>2021-08-11T09:00:54Z</time>
      </trkpt>
      <trkpt lat="45.113" lon="2.62185">
        <ele>1213</ele>
        <time>2021-08-11T09:00:55Z</time>
      </trkpt>
      <trkpt lat="45.113" lon="2.62187">
        <ele>1213.1</ele>
        <time>2021-08-11T09:00:56Z</time>
      </trkpt>
      <trkpt lat="45.113" lon="2.62188">
        <ele>1213.3</ele>
        <time>2021-08-11T09:00:57Z</time>
      </trkpt>
      <trkpt lat="45.11301" lon="2.6219">
        <ele>1213.4</ele>
        <time>2021-08-11T09:00:58Z</time>
      </trkpt>
      <trkpt lat="45.11301" lon="2.62191">
        <ele>1213.5</ele>
        <time>2021-08-11T09:00:59Z</time>
      </trkpt>
      <trkpt lat="45.11301" lon="2.62192">
        <ele>1213.6</ele>
        <time>2021-08-11T09:01:00Z</time>
      </trkpt>
      <trkpt lat="45.11301" lon="2.62193">
        <ele>1213.7</ele>
        <time>2021-08-11T09:01:01Z</time>
      </trkpt>
      <trkpt lat="45.11301" lon="2.62195">
        <ele>1213.7</ele>
        <time>2021-08-11T09:01:02Z</time>
      </trkpt>
      <trkpt lat="45.11301" lon="2.62196">
        <ele>1213.8</ele>
        <time>2021-08-11T09:01:03Z</time>
      </trkpt>
      <trkpt lat="45.11302" lon="2.62197">
        <ele>1213.9</ele>
        <time>2021-08-11T09:01:04Z</time>
      </trkpt>
      <trkpt lat="45.11302" lon="2.62199">
        <ele>1213.9</ele>
        <time>2021-08-11T09:01:05Z</time>
      </trkpt>
      <trkpt lat="45.11302" lon="2.622">
        <ele>1214</ele>
        <time>2021-08-11T09:01:06Z</time>
      </trkpt>
      <trkpt lat="45.11302" lon="2.62201">
        <ele>1214.1</ele>
        <time>2021-08-11T09:01:07Z</time>
      </trkpt>
      <trkpt lat="45.11303" lon="2.62203">
        <ele>1214.1</ele>
        <time>2021-08-11T09:01:08Z</time>
      </trkpt>
      <trkpt lat="45.11303" lon="2.62204">
        <ele>1214.2</ele>
        <time>2021-08-11T09:01:09Z</time>
      </trkpt>
      <trkpt lat="45.11303" lon="2.62205">
        <ele>1214.3</ele>
        <time>2021-08-11T09:01:10Z</time>
      </trkpt>
      <trkpt lat="45.11303" lon="2.62206">
        <ele>1214.3</ele>
        <time>2021-08-11T09:01:11Z</time>
      </trkpt>
      <trkpt lat="45.11304" lon="2.62208">
        <ele>1214.4</ele>
        <time>2021-08-11T09:01:12Z</time>
      </trkpt>
      <trkpt lat="45.11304" lon="2.62209">
        <ele>1214.5</ele>
        <time>2021-08-11T09:01:13Z</time>
      </trkpt>
      <trkpt lat="45.11304" lon="2.6221">
        <ele>1214.6</ele>
        <time>2021-08-11T09:01:14Z</time>
      </trkpt>
      <trkpt lat="45.11304" lon="2.62211">
        <ele>1214.7</ele>
        <time>2021-08-11T09:01:15Z</time>
      </trkpt>
      <trkpt lat="45.11304" lon="2.62213">
        <ele>1214.8</ele>
        <time>2021-08-11T09:01:16Z</time>
      </trkpt>
      <trkpt lat="45.11304" lon="2.62214">
        <ele>1215</ele>
        <time>2021-08-11T09:01:17Z</time>
      </trkpt>
      <trkpt lat="45.11304" lon="2.62215">
        <ele>1215</ele>
        <time>2021-08-11T09:01:18Z</time>
      </trkpt>
      <trkpt lat="45.11304" lon="2.62217">
        <ele>1215.2</ele>
        <time>2021-08-11T09:01:19Z</time>
      </trkpt>
      <trkpt lat="45.11305" lon="2.62218">
        <ele>1215.2</ele>
        <time>2021-08-11T09:01:20Z</time>
      </trkpt>
      <trkpt lat="45.11305" lon="2.6222">
        <ele>1215.3</ele>
        <time>2021-08-11T09:01:21Z</time>
      </trkpt>
      <trkpt lat="45.11305" lon="2.62221">
        <ele>1215.3</ele>
        <time>2021-08-11T09:01:22Z</time>
      </trkpt>
      <trkpt lat="45.11306" lon="2.62222">
        <ele>1215.3</ele>
        <time>2021-08-11T09:01:23Z</time>
      </trkpt>
      <trkpt lat="45.11306" lon="2.62223">
        <ele>1215.2</ele>
        <time>2021-08-11T09:01:24Z</time>
      </trkpt>
      <trkpt lat="45.11307" lon="2.62225">
        <ele>1215.3</ele>
        <time>2021-08-11T09:01:25Z</time>
      </trkpt>
      <trkpt lat="45.11307" lon="2.62226">
        <ele>1215.4</ele>
        <time>2021-08-11T09:01:26Z</time>
      </trkpt>
      <trkpt lat="45.11307" lon="2.62227">
        <ele>1215.5</ele>
        <time>2021-08-11T09:01:27Z</time>
      </trkpt>
      <trkpt lat="45.11307" lon="2.62229">
        <ele>1215.6</ele>
        <time>2021-08-11T09:01:28Z</time>
      </trkpt>
      <trkpt lat="45.11307" lon="2.62231">
        <ele>1215.8</ele>
        <time>2021-08-11T09:01:29Z</time>
      </trkpt>
      <trkpt lat="45.11307" lon="2.62232">
        <ele>1215.9</ele>
        <time>2021-08-11T09:01:30Z</time>
      </trkpt>
      <trkpt lat="45.11307" lon="2.62234">
        <ele>1216</ele>
        <time>2021-08-11T09:01:31Z</time>
      </trkpt>
      <trkpt lat="45.11308" lon="2.62235">
        <ele>1216.1</ele>
        <time>2021-08-11T09:01:32Z</time>
      </trkpt>
      <trkpt lat="45.11308" lon="2.62236">
        <ele>1216.1</ele>
        <time>2021-08-11T09:01:33Z</time>
      </trkpt>
      <trkpt lat="45.11308" lon="2.62238">
        <ele>1216.2</ele>
        <time>2021-08-11T09:01:34Z</time>
      </trkpt>
      <trkpt lat="45.11308" lon="2.62239">
        <ele>1216.3</ele>
        <time>2021-08-11T09:01:35Z</time>
      </trkpt>
      <trkpt lat="45.11308" lon="2.62241">
        <ele>1216.4</ele>
        <time>2021-08-11T09:01:36Z</time>
      </trkpt>
      <trkpt lat="45.11309" lon="2.62242">
        <ele>1216.5</ele>
        <time>2021-08-11T09:01:37Z</time>
      </trkpt>
      <trkpt lat="45.11309" lon="2.62244">
        <ele>1216.7</ele>
        <time>2021-08-11T09:01:38Z</time>
      </trkpt>
      <trkpt lat="45.11309" lon="2.62245">
        <ele>1216.7</ele>
        <time>2021-08-11T09:01:39Z</time>
      </trkpt>
      <trkpt lat="45.11309" lon="2.62246">
        <ele>1216.8</ele>
        <time>2021-08-11T09:01:40Z</time>
      </trkpt>
      <trkpt lat="45.11309" lon="2.62248">
        <ele>1216.9</ele>
        <time>2021-08-11T09:01:41Z</time>
      </trkpt>
      <trkpt lat="45.11309" lon="2.62249">
        <ele>1217</ele>
        <time>2021-08-11T09:01:42Z</time>
      </trkpt>
      <trkpt lat="45.1131" lon="2.6225">
        <ele>1217</ele>
        <time>2021-08-11T09:01:43Z</time>
      </trkpt>
      <trkpt lat="45.1131" lon="2.62252">
        <ele>1217.1</ele>
        <time>2021-08-11T09:01:44Z</time>
      </trkpt>
      <trkpt lat="45.1131" lon="2.62253">
        <ele>1217.1</ele>
        <time>2021-08-11T09:01:45Z</time>
      </trkpt>
      <trkpt lat="45.11311" lon="2.62255">
        <ele>1217.2</ele>
        <time>2021-08-11T09:01:46Z</time>
      </trkpt>
      <trkpt lat="45.11311" lon="2.62256">
        <ele>1217.3</ele>
        <time>2021-08-11T09:01:47Z</time>
      </trkpt>
      <trkpt lat="45.11311" lon="2.62257">
        <ele>1217.4</ele>
        <time>2021-08-11T09:01:48Z</time>
      </trkpt>
      <trkpt lat="45.11311" lon="2.62259">
        <ele>1217.5</ele>
        <time>2021-08-11T09:01:49Z</time>
      </trkpt>
      <trkpt lat="45.11311" lon="2.6226">
        <ele>1217.6</ele>
        <time>2021-08-11T09:01:50Z</time>
      </trkpt>
      <trkpt lat="45.11311" lon="2.62261">
        <ele>1217.7</ele>
        <time>2021-08-11T09:01:51Z</time>
      </trkpt>
      <trkpt lat="45.11312" lon="2.62263">
        <ele>1217.8</ele>
        <time>2021-08-11T09:01:52Z</time>
      </trkpt>
      <trkpt lat="45.11312" lon="2.62264">
        <ele>1217.9</ele>
        <time>2021-08-11T09:01:53Z</time>
      </trkpt>
      <trkpt lat="45.11312" lon="2.62265">
        <ele>1218</ele>
        <time>2021-08-11T09:01:54Z</time>
      </trkpt>
      <trkpt lat="45.11312" lon="2.62267">
        <ele>1218.1</ele>
        <time>2021-08-11T09:01:55Z</time>
      </trkpt>
      <trkpt lat="45.11312" lon="2.62268">
        <ele>1218.1</ele>
        <time>2021-08-11T09:01:56Z</time>
      </trkpt>
      <trkpt lat="45.11312" lon="2.62269">
        <ele>1218.3</ele>
        <time>2021-08-11T09:01:57Z</time>
      </trkpt>
      <trkpt lat="45.11313" lon="2.62271">
        <ele>1218.4</ele>
        <time>2021-08-11T09:01:58Z</time>
      </trkpt>
      <trkpt lat="45.11313" lon="2.62272">
        <ele>1218.5</ele>
        <time>2021-08-11T09:01:59Z</time>
      </trkpt>
      <trkpt lat="45.11313" lon="2.62274">
        <ele>1218.5</ele>
        <time>2021-08-11T09:02:00Z</time>
      </trkpt>
      <trkpt lat="45.11313" lon="2.62275">
        <ele>1218.6</ele>
        <time>2021-08-11T09:02:01Z</time>
      </trkpt>
      <trkpt lat="45.11313" lon="2.62276">
        <ele>1218.7</ele>
        <time>2021-08-11T09:02:02Z</time>
      </trkpt>
      <trkpt lat="45.11314" lon="2.62278">
        <ele>1218.8</ele>
        <time>2021-08-11T09:02:03Z</time>
      </trkpt>
      <trkpt lat="45.11314" lon="2.6228">
        <ele>1218.9</ele>
        <time>2021-08-11T09:02:04Z</time>
      </trkpt>
      <trkpt lat="45.11314" lon="2.62281">
        <ele>1219</ele>
        <time>2021-08-11T09:02:05Z</time>
      </trkpt>
      <trkpt lat="45.11314" lon="2.62282">
        <ele>1219.1</ele>
        <time>2021-08-11T09:02:06Z</time>
      </trkpt>
      <trkpt lat="45.11314" lon="2.62284">
        <ele>1219.2</ele>
        <time>2021-08-11T09:02:07Z</time>
      </trkpt>
      <trkpt lat="45.11315" lon="2.62285">
        <ele>1219.3</ele>
        <time>2021-08-11T09:02:08Z</time>
      </trkpt>
      <trkpt lat="45.11315" lon="2.62287">
        <ele>1219.4</ele>
        <time>2021-08-11T09:02:09Z</time>
      </trkpt>
      <trkpt lat="45.11315" lon="2.62288">
        <ele>1219.5</ele>
        <time>2021-08-11T09:02:10Z</time>
      </trkpt>
      <trkpt lat="45.11315" lon="2.6229">
        <ele>1219.6</ele>
        <time>2021-08-11T09:02:11Z</time>
      </trkpt>
      <trkpt lat="45.11316" lon="2.62291">
        <ele>1219.7</ele>
        <time>2021-08-11T09:02:12Z</time>
      </trkpt>
      <trkpt lat="45.11316" lon="2.62293">
        <ele>1219.7</ele>
        <time>2021-08-11T09:02:13Z</time>
      </trkpt>
      <trkpt lat="45.11316" lon="2.62294">
        <ele>1219.8</ele>
        <time>2021-08-11T09:02:14Z</time>
      </trkpt>
      <trkpt lat="45.11317" lon="2.62295">
        <ele>1219.7</ele>
        <time>2021-08-11T09:02:15Z</time>
      </trkpt>
      <trkpt lat="45.11317" lon="2.62295">
        <ele>1219.7</ele>
        <time>2021-08-11T09:02:16Z</time>
      </trkpt>
      <trkpt lat="45.11317" lon="2.62297">
        <ele>1219.7</ele>
        <time>2021-08-11T09:02:17Z</time>
      </trkpt>
      <trkpt lat="45.11317" lon="2.62298">
        <ele>1219.8</ele>
        <time>2021-08-11T09:02:18Z</time>
      </trkpt>
      <trkpt lat="45.11317" lon="2.62299">
        <ele>1219.9</ele>
        <time>2021-08-11T09:02:19Z</time>
      </trkpt>
      <trkpt lat="45.11317" lon="2.62301">
        <ele>1220.1</ele>
        <time>2021-08-11T09:02:20Z</time>
      </trkpt>
      <trkpt lat="45.11317" lon="2.62302">
        <ele>1220.3</ele>
        <time>2021-08-11T09:02:21Z</time>
      </trkpt>
      <trkpt lat="45.11317" lon="2.62304">
        <ele>1220.4</ele>
        <time>2021-08-11T09:02:22Z</time>
      </trkpt>
      <trkpt lat="45.11317" lon="2.62305">
        <ele>1220.6</ele>
        <time>2021-08-11T09:02:23Z</time>
      </trkpt>
      <trkpt lat="45.11317" lon="2.62307">
        <ele>1220.8</ele>
        <time>2021-08-11T09:02:24Z</time>
      </trkpt>
      <trkpt lat="45.11317" lon="2.62308">
        <ele>1221</ele>
        <time>2021-08-11T09:02:25Z</time>
      </trkpt>
      <trkpt lat="45.11317" lon="2.6231">
        <ele>1221.2</ele>
        <time>2021-08-11T09:02:26Z</time>
      </trkpt>
      <trkpt lat="45.11317" lon="2.62311">
        <ele>1221.4</ele>
        <time>2021-08-11T09:02:27Z</time>
      </trkpt>
      <trkpt lat="45.11317" lon="2.62312">
        <ele>1221.6</ele>
        <time>2021-08-11T09:02:28Z</time>
      </trkpt>
      <trkpt lat="45.11317" lon="2.62314">
        <ele>1221.7</ele>
        <time>2021-08-11T09:02:29Z</time>
      </trkpt>
      <trkpt lat="45.11317" lon="2.62315">
        <ele>1221.8</ele>
        <time>2021-08-11T09:02:30Z</time>
      </trkpt>
      <trkpt lat="45.11317" lon="2.62316">
        <ele>1221.9</ele>
        <time>2021-08-11T09:02:31Z</time>
      </trkpt>
      <trkpt lat="45.11317" lon="2.62318">
        <ele>1222</ele>
        <time>2021-08-11T09:02:32Z</time>
      </trkpt>
      <trkpt lat="45.11318" lon="2.62319">
        <ele>1222.1</ele>
        <time>2021-08-11T09:02:33Z</time>
      </trkpt>
      <trkpt lat="45.11318" lon="2.6232">
        <ele>1222.2</ele>
        <time>2021-08-11T09:02:34Z</time>
      </trkpt>
      <trkpt lat="45.11318" lon="2.62322">
        <ele>1222.3</ele>
        <time>2021-08-11T09:02:35Z</time>
      </trkpt>
      <trkpt lat="45.11318" lon="2.62322">
        <ele>1222.3</ele>
        <time>2021-08-11T09:02:36Z</time>
      </trkpt>
      <trkpt lat="45.11318" lon="2.62324">
        <ele>1222.5</ele>
        <time>2021-08-11T09:02:37Z</time>
      </trkpt>
      <trkpt lat="45.11318" lon="2.62325">
        <ele>1222.5</ele>
        <time>2021-08-11T09:02:38Z</time>
      </trkpt>
      <trkpt lat="45.11319" lon="2.62327">
        <ele>1222.5</ele>
        <time>2021-08-11T09:02:39Z</time>
      </trkpt>
      <trkpt lat="45.11319" lon="2.62328">
        <ele>1222.6</ele>
        <time>2021-08-11T09:02:40Z</time>
      </trkpt>
      <trkpt lat="45.11319" lon="2.62329">
        <ele>1222.7</ele>
        <time>2021-08-11T09:02:41Z</time>
      </trkpt>
      <trkpt lat="45.11319" lon="2.62331">
        <ele>1222.8</ele>
        <time>2021-08-11T09:02:42Z</time>
      </trkpt>
      <trkpt lat="45.1132" lon="2.62332">
        <ele>1222.8</ele>
        <time>2021-08-11T09:02:43Z</time>
      </trkpt>
      <trkpt lat="45.1132" lon="2.62333">
        <ele>1222.8</ele>
        <time>2021-08-11T09:02:44Z</time>
      </trkpt>
      <trkpt lat="45.1132" lon="2.62334">
        <ele>1222.8</ele>
        <time>2021-08-11T09:02:45Z</time>
      </trkpt>
      <trkpt lat="45.11321" lon="2.62335">
        <ele>1222.8</ele>
        <time>2021-08-11T09:02:46Z</time>
      </trkpt>
      <trkpt lat="45.11321" lon="2.62337">
        <ele>1223</ele>
        <time>2021-08-11T09:02:47Z</time>
      </trkpt>
      <trkpt lat="45.11321" lon="2.62338">
        <ele>1223.1</ele>
        <time>2021-08-11T09:02:48Z</time>
      </trkpt>
      <trkpt lat="45.11321" lon="2.62339">
        <ele>1223.2</ele>
        <time>2021-08-11T09:02:49Z</time>
      </trkpt>
      <trkpt lat="45.11322" lon="2.6234">
        <ele>1223.2</ele>
        <time>2021-08-11T09:02:50Z</time>
      </trkpt>
      <trkpt lat="45.11322" lon="2.62342">
        <ele>1223.2</ele>
        <time>2021-08-11T09:02:51Z</time>
      </trkpt>
      <trkpt lat="45.11323" lon="2.62343">
        <ele>1223.2</ele>
        <time>2021-08-11T09:02:52Z</time>
      </trkpt>
      <trkpt lat="45.11323" lon="2.62344">
        <ele>1223.2</ele>
        <time>2021-08-11T09:02:53Z</time>
      </trkpt>
      <trkpt lat="45.11324" lon="2.62345">
        <ele>1223.2</ele>
        <time>2021-08-11T09:02:54Z</time>
      </trkpt>
      <trkpt lat="45.11325" lon="2.62346">
        <ele>1223.2</ele>
        <time>2021-08-11T09:02:55Z</time>
      </trkpt>
      <trkpt lat="45.11325" lon="2.62348">
        <ele>1223.2</ele>
        <time>2021-08-11T09:02:56Z</time>
      </trkpt>
      <trkpt lat="45.11326" lon="2.62349">
        <ele>1223.2</ele>
        <time>2021-08-11T09:02:57Z</time>
      </trkpt>
      <trkpt lat="45.11326" lon="2.6235">
        <ele>1223.1</ele>
        <time>2021-08-11T09:02:58Z</time>
      </trkpt>
      <trkpt lat="45.11327" lon="2.62351">
        <ele>1223.1</ele>
        <time>2021-08-11T09:02:59Z</time>
      </trkpt>
      <trkpt lat="45.11327" lon="2.62352">
        <ele>1223.3</ele>
        <time>2021-08-11T09:03:00Z</time>
      </trkpt>
      <trkpt lat="45.11327" lon="2.62353">
        <ele>1223.4</ele>
        <time>2021-08-11T09:03:01Z</time>
      </trkpt>
      <trkpt lat="45.11327" lon="2.62354">
        <ele>1223.4</ele>
        <time>2021-08-11T09:03:02Z</time>
      </trkpt>
      <trkpt lat="45.11328" lon="2.62355">
        <ele>1223.3</ele>
        <time>2021-08-11T09:03:03Z</time>
      </trkpt>
      <trkpt lat="45.11328" lon="2.62356">
        <ele>1223.4</ele>
        <time>2021-08-11T09:03:04Z</time>
      </trkpt>
      <trkpt lat="45.11329" lon="2.62357">
        <ele>1223.3</ele>
        <time>2021-08-11T09:03:05Z</time>
      </trkpt>
      <trkpt lat="45.11329" lon="2.62358">
        <ele>1223.3</ele>
        <time>2021-08-11T09:03:06Z</time>
      </trkpt>
      <trkpt lat="45.1133" lon="2.62359">
        <ele>1223.3</ele>
        <time>2021-08-11T09:03:07Z</time>
      </trkpt>
      <trkpt lat="45.1133" lon="2.62361">
        <ele>1223.3</ele>
        <time>2021-08-11T09:03:08Z</time>
      </trkpt>
      <trkpt lat="45.11331" lon="2.62362">
        <ele>1223.2</ele>
        <time>2021-08-11T09:03:09Z</time>
      </trkpt>
      <trkpt lat="45.11332" lon="2.62363">
        <ele>1223.2</ele>
        <time>2021-08-11T09:03:10Z</time>
      </trkpt>
      <trkpt lat="45.11332" lon="2.62364">
        <ele>1223.2</ele>
        <time>2021-08-11T09:03:11Z</time>
      </trkpt>
      <trkpt lat="45.11333" lon="2.62365">
        <ele>1223.2</ele>
        <time>2021-08-11T09:03:12Z</time>
      </trkpt>
      <trkpt lat="45.11333" lon="2.62366">
        <ele>1223.2</ele>
        <time>2021-08-11T09:03:13Z</time>
      </trkpt>
      <trkpt lat="45.11334" lon="2.62367">
        <ele>1223.2</ele>
        <time>2021-08-11T09:03:14Z</time>
      </trkpt>
      <trkpt lat="45.11334" lon="2.62368">
        <ele>1223.3</ele>
        <time>2021-08-11T09:03:15Z</time>
      </trkpt>
      <trkpt lat="45.11335" lon="2.62369">
        <ele>1223.4</ele>
        <time>2021-08-11T09:03:16Z</time>
      </trkpt>
      <trkpt lat="45.11335" lon="2.62371">
        <ele>1223.5</ele>
        <time>2021-08-11T09:03:17Z</time>
      </trkpt>
      <trkpt lat="45.11336" lon="2.62372">
        <ele>1223.7</ele>
        <time>2021-08-11T09:03:18Z</time>
      </trkpt>
      <trkpt lat="45.11336" lon="2.62373">
        <ele>1223.8</ele>
        <time>2021-08-11T09:03:19Z</time>
      </trkpt>
      <trkpt lat="45.11337" lon="2.62374">
        <ele>1223.9</ele>
        <time>2021-08-11T09:03:20Z</time>
      </trkpt>
      <trkpt lat="45.11337" lon="2.62375">
        <ele>1224</ele>
        <time>2021-08-11T09:03:21Z</time>
      </trkpt>
      <trkpt lat="45.11338" lon="2.62377">
        <ele>1224.1</ele>
        <time>2021-08-11T09:03:22Z</time>
      </trkpt>
      <trkpt lat="45.11338" lon="2.62378">
        <ele>1224.2</ele>
        <time>2021-08-11T09:03:23Z</time>
      </trkpt>
      <trkpt lat="45.11339" lon="2.62379">
        <ele>1224.4</ele>
        <time>2021-08-11T09:03:24Z</time>
      </trkpt>
      <trkpt lat="45.11339" lon="2.6238">
        <ele>1224.4</ele>
        <time>2021-08-11T09:03:25Z</time>
      </trkpt>
      <trkpt lat="45.1134" lon="2.62381">
        <ele>1224.5</ele>
        <time>2021-08-11T09:03:26Z</time>
      </trkpt>
      <trkpt lat="45.11341" lon="2.62382">
        <ele>1224.6</ele>
        <time>2021-08-11T09:03:27Z</time>
      </trkpt>
      <trkpt lat="45.11341" lon="2.62383">
        <ele>1224.7</ele>
        <time>2021-08-11T09:03:28Z</time>
      </trkpt>
      <trkpt lat="45.11342" lon="2.62384">
        <ele>1224.8</ele>
        <time>2021-08-11T09:03:29Z</time>
      </trkpt>
      <trkpt lat="45.11342" lon="2.62385">
        <ele>1224.8</ele>
        <time>2021-08-11T09:03:30Z</time>
      </trkpt>
      <trkpt lat="45.11343" lon="2.62386">
        <ele>1224.8</ele>
        <time>2021-08-11T09:03:31Z</time>
      </trkpt>
      <trkpt lat="45.11343" lon="2.62387">
        <ele>1225</ele>
        <time>2021-08-11T09:03:32Z</time>
      </trkpt>
      <trkpt lat="45.11344" lon="2.62388">
        <ele>1225.1</ele>
        <time>2021-08-11T09:03:33Z</time>
      </trkpt>
      <trkpt lat="45.11344" lon="2.6239">
        <ele>1225.2</ele>
        <time>2021-08-11T09:03:34Z</time>
      </trkpt>
      <trkpt lat="45.11345" lon="2.62391">
        <ele>1225.3</ele>
        <time>2021-08-11T09:03:35Z</time>
      </trkpt>
      <trkpt lat="45.11346" lon="2.62392">
        <ele>1225.4</ele>
        <time>2021-08-11T09:03:36Z</time>
      </trkpt>
      <trkpt lat="45.11346" lon="2.62393">
        <ele>1225.5</ele>
        <time>2021-08-11T09:03:37Z</time>
      </trkpt>
      <trkpt lat="45.11346" lon="2.62394">
        <ele>1225.6</ele>
        <time>2021-08-11T09:03:38Z</time>
      </trkpt>
      <trkpt lat="45.11347" lon="2.62396">
        <ele>1225.8</ele>
        <time>2021-08-11T09:03:39Z</time>
      </trkpt>
      <trkpt lat="45.11347" lon="2.62397">
        <ele>1225.9</ele>
        <time>2021-08-11T09:03:40Z</time>
      </trkpt>
      <trkpt lat="45.11348" lon="2.62398">
        <ele>1226.1</ele>
        <time>2021-08-11T09:03:41Z</time>
      </trkpt>
      <trkpt lat="45.11348" lon="2.624">
        <ele>1226.2</ele>
        <time>2021-08-11T09:03:42Z</time>
      </trkpt>
      <trkpt lat="45.11349" lon="2.62401">
        <ele>1226.3</ele>
        <time>2021-08-11T09:03:43Z</time>
      </trkpt>
      <trkpt lat="45.11349" lon="2.62402">
        <ele>1226.4</ele>
        <time>2021-08-11T09:03:44Z</time>
      </trkpt>
      <trkpt lat="45.1135" lon="2.62403">
        <ele>1226.5</ele>
        <time>2021-08-11T09:03:45Z</time>
      </trkpt>
      <trkpt lat="45.11351" lon="2.62405">
        <ele>1226.6</ele>
        <time>2021-08-11T09:03:46Z</time>
      </trkpt>
      <trkpt lat="45.11351" lon="2.62406">
        <ele>1226.7</ele>
        <time>2021-08-11T09:03:47Z</time>
      </trkpt>
      <trkpt lat="45.11352" lon="2.62407">
        <ele>1226.8</ele>
        <time>2021-08-11T09:03:48Z</time>
      </trkpt>
      <trkpt lat="45.11353" lon="2.62408">
        <ele>1226.9</ele>
        <time>2021-08-11T09:03:49Z</time>
      </trkpt>
      <trkpt lat="45.11353" lon="2.62409">
        <ele>1227</ele>
        <time>2021-08-11T09:03:50Z</time>
      </trkpt>
      <trkpt lat="45.11354" lon="2.6241">
        <ele>1227</ele>
        <time>2021-08-11T09:03:51Z</time>
      </trkpt>
      <trkpt lat="45.11355" lon="2.62412">
        <ele>1227.1</ele>
        <time>2021-08-11T09:03:52Z</time>
      </trkpt>
      <trkpt lat="45.11355" lon="2.62413">
        <ele>1227.3</ele>
        <time>2021-08-11T09:03:53Z</time>
      </trkpt>
      <trkpt lat="45.11356" lon="2.62414">
        <ele>1227.4</ele>
        <time>2021-08-11T09:03:54Z</time>
      </trkpt>
      <trkpt lat="45.11356" lon="2.62415">
        <ele>1227.5</ele>
        <time>2021-08-11T09:03:55Z</time>
      </trkpt>
      <trkpt lat="45.11357" lon="2.62416">
        <ele>1227.5</ele>
        <time>2021-08-11T09:03:56Z</time>
      </trkpt>
      <trkpt lat="45.11357" lon="2.62417">
        <ele>1227.6</ele>
        <time>2021-08-11T09:03:57Z</time>
      </trkpt>
      <trkpt lat="45.11358" lon="2.62418">
        <ele>1227.7</ele>
        <time>2021-08-11T09:03:58Z</time>
      </trkpt>
      <trkpt lat="45.11359" lon="2.62419">
        <ele>1227.7</ele>
        <time>2021-08-11T09:03:59Z</time>
      </trkpt>
      <trkpt lat="45.11359" lon="2.6242">
        <ele>1227.8</ele>
        <time>2021-08-11T09:04:00Z</time>
      </trkpt>
      <trkpt lat="45.1136" lon="2.62421">
        <ele>1227.8</ele>
        <time>2021-08-11T09:04:01Z</time>
      </trkpt>
      <trkpt lat="45.1136" lon="2.62422">
        <ele>1227.8</ele>
        <time>2021-08-11T09:04:02Z</time>
      </trkpt>
      <trkpt lat="45.11361" lon="2.62423">
        <ele>1227.9</ele>
        <time>2021-08-11T09:04:03Z</time>
      </trkpt>
      <trkpt lat="45.11361" lon="2.62424">
        <ele>1228</ele>
        <time>2021-08-11T09:04:04Z</time>
      </trkpt>
      <trkpt lat="45.11362" lon="2.62425">
        <ele>1228</ele>
        <time>2021-08-11T09:04:05Z</time>
      </trkpt>
      <trkpt lat="45.11363" lon="2.62426">
        <ele>1228</ele>
        <time>2021-08-11T09:04:06Z</time>
      </trkpt>
      <trkpt lat="45.11363" lon="2.62427">
        <ele>1228.1</ele>
        <time>2021-08-11T09:04:07Z</time>
      </trkpt>
      <trkpt lat="45.11364" lon="2.62428">
        <ele>1228.1</ele>
        <time>2021-08-11T09:04:08Z</time>
      </trkpt>
      <trkpt lat="45.11365" lon="2.62429">
        <ele>1228.2</ele>
        <time>2021-08-11T09:04:09Z</time>
      </trkpt>
      <trkpt lat="45.11365" lon="2.6243">
        <ele>1228.3</ele>
        <time>2021-08-11T09:04:10Z</time>
      </trkpt>
      <trkpt lat="45.11366" lon="2.62431">
        <ele>1228.3</ele>
        <time>2021-08-11T09:04:11Z</time>
      </trkpt>
      <trkpt lat="45.11366" lon="2.62432">
        <ele>1228.4</ele>
        <time>2021-08-11T09:04:12Z</time>
      </trkpt>
      <trkpt lat="45.11367" lon="2.62433">
        <ele>1228.4</ele>
        <time>2021-08-11T09:04:13Z</time>
      </trkpt>
      <trkpt lat="45.11367" lon="2.62434">
        <ele>1228.5</ele>
        <time>2021-08-11T09:04:14Z</time>
      </trkpt>
      <trkpt lat="45.11368" lon="2.62436">
        <ele>1228.6</ele>
        <time>2021-08-11T09:04:15Z</time>
      </trkpt>
      <trkpt lat="45.11368" lon="2.62437">
        <ele>1228.6</ele>
        <time>2021-08-11T09:04:16Z</time>
      </trkpt>
      <trkpt lat="45.11369" lon="2.62438">
        <ele>1228.8</ele>
        <time>2021-08-11T09:04:17Z</time>
      </trkpt>
      <trkpt lat="45.11369" lon="2.62439">
        <ele>1228.9</ele>
        <time>2021-08-11T09:04:18Z</time>
      </trkpt>
      <trkpt lat="45.11369" lon="2.6244">
        <ele>1229</ele>
        <time>2021-08-11T09:04:19Z</time>
      </trkpt>
      <trkpt lat="45.1137" lon="2.62442">
        <ele>1229.1</ele>
        <time>2021-08-11T09:04:20Z</time>
      </trkpt>
      <trkpt lat="45.1137" lon="2.62443">
        <ele>1229.2</ele>
        <time>2021-08-11T09:04:21Z</time>
      </trkpt>
      <trkpt lat="45.11371" lon="2.62444">
        <ele>1229.3</ele>
        <time>2021-08-11T09:04:22Z</time>
      </trkpt>
      <trkpt lat="45.11371" lon="2.62445">
        <ele>1229.4</ele>
        <time>2021-08-11T09:04:23Z</time>
      </trkpt>
      <trkpt lat="45.11371" lon="2.62447">
        <ele>1229.5</ele>
        <time>2021-08-11T09:04:24Z</time>
      </trkpt>
      <trkpt lat="45.11372" lon="2.62448">
        <ele>1229.6</ele>
        <time>2021-08-11T09:04:25Z</time>
      </trkpt>
      <trkpt lat="45.11372" lon="2.62449">
        <ele>1229.7</ele>
        <time>2021-08-11T09:04:26Z</time>
      </trkpt>
      <trkpt lat="45.11372" lon="2.6245">
        <ele>1229.8</ele>
        <time>2021-08-11T09:04:27Z</time>
      </trkpt>
      <trkpt lat="45.11373" lon="2.62451">
        <ele>1229.9</ele>
        <time>2021-08-11T09:04:28Z</time>
      </trkpt>
      <trkpt lat="45.11373" lon="2.62453">
        <ele>1230</ele>
        <time>2021-08-11T09:04:29Z</time>
      </trkpt>
      <trkpt lat="45.11373" lon="2.62454">
        <ele>1230.1</ele>
        <time>2021-08-11T09:04:30Z</time>
      </trkpt>
      <trkpt lat="45.11374" lon="2.62455">
        <ele>1230.2</ele>
        <time>2021-08-11T09:04:31Z</time>
      </trkpt>
      <trkpt lat="45.11374" lon="2.62456">
        <ele>1230.3</ele>
        <time>2021-08-11T09:04:32Z</time>
      </trkpt>
      <trkpt lat="45.11374" lon="2.62457">
        <ele>1230.4</ele>
        <time>2021-08-11T09:04:33Z</time>
      </trkpt>
      <trkpt lat="45.11375" lon="2.62458">
        <ele>1230.5</ele>
        <time>2021-08-11T09:04:34Z</time>
      </trkpt>
      <trkpt lat="45.11374" lon="2.62459">
        <ele>1230.7</ele>
        <time>2021-08-11T09:04:35Z</time>
      </trkpt>
      <trkpt lat="45.11375" lon="2.6246">
        <ele>1230.8</ele>
        <time>2021-08-11T09:04:36Z</time>
      </trkpt>
      <trkpt lat="45.11375" lon="2.62461">
        <ele>1230.9</ele>
        <time>2021-08-11T09:04:37Z</time>
      </trkpt>
      <trkpt lat="45.11375" lon="2.62462">
        <ele>1231</ele>
        <time>2021-08-11T09:04:38Z</time>
      </trkpt>
      <trkpt lat="45.11375" lon="2.62463">
        <ele>1231.1</ele>
        <time>2021-08-11T09:04:39Z</time>
      </trkpt>
      <trkpt lat="45.11376" lon="2.62464">
        <ele>1231.1</ele>
        <time>2021-08-11T09:04:40Z</time>
      </trkpt>
      <trkpt lat="45.11376" lon="2.62464">
        <ele>1231.1</ele>
        <time>2021-08-11T09:04:41Z</time>
      </trkpt>
      <trkpt lat="45.11377" lon="2.62465">
        <ele>1231.1</ele>
        <time>2021-08-11T09:04:42Z</time>
      </trkpt>
      <trkpt lat="45.11377" lon="2.62466">
        <ele>1231.2</ele>
        <time>2021-08-11T09:04:43Z</time>
      </trkpt>
      <trkpt lat="45.11378" lon="2.62467">
        <ele>1231.2</ele>
        <time>2021-08-11T09:04:44Z</time>
      </trkpt>
      <trkpt lat="45.11378" lon="2.62467">
        <ele>1231.2</ele>
        <time>2021-08-11T09:04:45Z</time>
      </trkpt>
      <trkpt lat="45.11379" lon="2.62468">
        <ele>1231.3</ele>
        <time>2021-08-11T09:04:46Z</time>
      </trkpt>
      <trkpt lat="45.11379" lon="2.6247">
        <ele>1231.3</ele>
        <time>2021-08-11T09:04:47Z</time>
      </trkpt>
      <trkpt lat="45.1138" lon="2.62471">
        <ele>1231.4</ele>
        <time>2021-08-11T09:04:48Z</time>
      </trkpt>
      <trkpt lat="45.1138" lon="2.62472">
        <ele>1231.5</ele>
        <time>2021-08-11T09:04:49Z</time>
      </trkpt>
      <trkpt lat="45.11381" lon="2.62474">
        <ele>1231.6</ele>
        <time>2021-08-11T09:04:50Z</time>
      </trkpt>
      <trkpt lat="45.11381" lon="2.62475">
        <ele>1231.7</ele>
        <time>2021-08-11T09:04:51Z</time>
      </trkpt>
      <trkpt lat="45.11381" lon="2.62477">
        <ele>1231.9</ele>
        <time>2021-08-11T09:04:52Z</time>
      </trkpt>
      <trkpt lat="45.11382" lon="2.62478">
        <ele>1232</ele>
        <time>2021-08-11T09:04:53Z</time>
      </trkpt>
      <trkpt lat="45.11382" lon="2.62479">
        <ele>1232.1</ele>
        <time>2021-08-11T09:04:54Z</time>
      </trkpt>
      <trkpt lat="45.11383" lon="2.6248">
        <ele>1232.2</ele>
        <time>2021-08-11T09:04:55Z</time>
      </trkpt>
      <trkpt lat="45.11383" lon="2.62482">
        <ele>1232.2</ele>
        <time>2021-08-11T09:04:56Z</time>
      </trkpt>
      <trkpt lat="45.11384" lon="2.62483">
        <ele>1232.2</ele>
        <time>2021-08-11T09:04:57Z</time>
      </trkpt>
      <trkpt lat="45.11385" lon="2.62484">
        <ele>1232.3</ele>
        <time>2021-08-11T09:04:58Z</time>
      </trkpt>
      <trkpt lat="45.11385" lon="2.62485">
        <ele>1232.4</ele>
        <time>2021-08-11T09:04:59Z</time>
      </trkpt>
      <trkpt lat="45.11386" lon="2.62486">
        <ele>1232.4</ele>
        <time>2021-08-11T09:05:00Z</time>
      </trkpt>
      <trkpt lat="45.11386" lon="2.62488">
        <ele>1232.5</ele>
        <time>2021-08-11T09:05:01Z</time>
      </trkpt>
      <trkpt lat="45.11387" lon="2.62488">
        <ele>1232.5</ele>
        <time>2021-08-11T09:05:02Z</time>
      </trkpt>
      <trkpt lat="45.11387" lon="2.6249">
        <ele>1232.6</ele>
        <time>2021-08-11T09:05:03Z</time>
      </trkpt>
      <trkpt lat="45.11388" lon="2.62491">
        <ele>1232.7</ele>
        <time>2021-08-11T09:05:04Z</time>
      </trkpt>
      <trkpt lat="45.11388" lon="2.62492">
        <ele>1232.8</ele>
        <time>2021-08-11T09:05:05Z</time>
      </trkpt>
      <trkpt lat="45.11389" lon="2.62494">
        <ele>1232.8</ele>
        <time>2021-08-11T09:05:06Z</time>
      </trkpt>
      <trkpt lat="45.11389" lon="2.62495">
        <ele>1232.9</ele>
        <time>2021-08-11T09:05:07Z</time>
      </trkpt>
      <trkpt lat="45.1139" lon="2.62496">
        <ele>1233</ele>
        <time>2021-08-11T09:05:08Z</time>
      </trkpt>
      <trkpt lat="45.11391" lon="2.62497">
        <ele>1233</ele>
        <time>2021-08-11T09:05:09Z</time>
      </trkpt>
      <trkpt lat="45.11391" lon="2.62498">
        <ele>1233</ele>
        <time>2021-08-11T09:05:10Z</time>
      </trkpt>
      <trkpt lat="45.11392" lon="2.62499">
        <ele>1233</ele>
        <time>2021-08-11T09:05:11Z</time>
      </trkpt>
      <trkpt lat="45.11392" lon="2.625">
        <ele>1233.1</ele>
        <time>2021-08-11T09:05:12Z</time>
      </trkpt>
      <trkpt lat="45.11393" lon="2.62501">
        <ele>1233.2</ele>
        <time>2021-08-11T09:05:13Z</time>
      </trkpt>
      <trkpt lat="45.11393" lon="2.62502">
        <ele>1233.2</ele>
        <time>2021-08-11T09:05:14Z</time>
      </trkpt>
      <trkpt lat="45.11394" lon="2.62503">
        <ele>1233.3</ele>
        <time>2021-08-11T09:05:15Z</time>
      </trkpt>
      <trkpt lat="45.11394" lon="2.62504">
        <ele>1233.4</ele>
        <time>2021-08-11T09:05:16Z</time>
      </trkpt>
      <trkpt lat="45.11395" lon="2.62505">
        <ele>1233.4</ele>
        <time>2021-08-11T09:05:17Z</time>
      </trkpt>
      <trkpt lat="45.11396" lon="2.62507">
        <ele>1233.5</ele>
        <time>2021-08-11T09:05:18Z</time>
      </trkpt>
      <trkpt lat="45.11396" lon="2.62508">
        <ele>1233.5</ele>
        <time>2021-08-11T09:05:19Z</time>
      </trkpt>
      <trkpt lat="45.11397" lon="2.62509">
        <ele>1233.6</ele>
        <time>2021-08-11T09:05:20Z</time>
      </trkpt>
      <trkpt lat="45.11398" lon="2.6251">
        <ele>1233.7</ele>
        <time>2021-08-11T09:05:21Z</time>
      </trkpt>
      <trkpt lat="45.11398" lon="2.62512">
        <ele>1233.8</ele>
        <time>2021-08-11T09:05:22Z</time>
      </trkpt>
      <trkpt lat="45.11399" lon="2.62513">
        <ele>1233.8</ele>
        <time>2021-08-11T09:05:23Z</time>
      </trkpt>
      <trkpt lat="45.114" lon="2.62514">
        <ele>1233.9</ele>
        <time>2021-08-11T09:05:24Z</time>
      </trkpt>
      <trkpt lat="45.114" lon="2.62515">
        <ele>1233.9</ele>
        <time>2021-08-11T09:05:25Z</time>
      </trkpt>
      <trkpt lat="45.11401" lon="2.62516">
        <ele>1233.9</ele>
        <time>2021-08-11T09:05:26Z</time>
      </trkpt>
      <trkpt lat="45.11402" lon="2.62517">
        <ele>1233.9</ele>
        <time>2021-08-11T09:05:27Z</time>
      </trkpt>
      <trkpt lat="45.11402" lon="2.62518">
        <ele>1234</ele>
        <time>2021-08-11T09:05:28Z</time>
      </trkpt>
      <trkpt lat="45.11403" lon="2.62519">
        <ele>1234</ele>
        <time>2021-08-11T09:05:29Z</time>
      </trkpt>
      <trkpt lat="45.11404" lon="2.6252">
        <ele>1234</ele>
        <time>2021-08-11T09:05:30Z</time>
      </trkpt>
      <trkpt lat="45.11405" lon="2.62521">
        <ele>1234</ele>
        <time>2021-08-11T09:05:31Z</time>
      </trkpt>
      <trkpt lat="45.11406" lon="2.62522">
        <ele>1234</ele>
        <time>2021-08-11T09:05:32Z</time>
      </trkpt>
      <trkpt lat="45.11406" lon="2.62522">
        <ele>1234</ele>
        <time>2021-08-11T09:05:33Z</time>
      </trkpt>
      <trkpt lat="45.11407" lon="2.62523">
        <ele>1234</ele>
        <time>2021-08-11T09:05:34Z</time>
      </trkpt>
      <trkpt lat="45.11408" lon="2.62524">
        <ele>1234</ele>
        <time>2021-08-11T09:05:35Z</time>
      </trkpt>
      <trkpt lat="45.11408" lon="2.62525">
        <ele>1234</ele>
        <time>2021-08-11T09:05:36Z</time>
      </trkpt>
      <trkpt lat="45.11409" lon="2.62526">
        <ele>1234</ele>
        <time>2021-08-11T09:05:37Z</time>
      </trkpt>
      <trkpt lat="45.1141" lon="2.62527">
        <ele>1234</ele>
        <time>2021-08-11T09:05:38Z</time>
      </trkpt>
      <trkpt lat="45.11411" lon="2.62527">
        <ele>1234</ele>
        <time>2021-08-11T09:05:39Z</time>
      </trkpt>
      <trkpt lat="45.11411" lon="2.62528">
        <ele>1234</ele>
        <time>2021-08-11T09:05:40Z</time>
      </trkpt>
      <trkpt lat="45.11412" lon="2.62529">
        <ele>1234</ele>
        <time>2021-08-11T09:05:41Z</time>
      </trkpt>
      <trkpt lat="45.11413" lon="2.6253">
        <ele>1233.9</ele>
        <time>2021-08-11T09:05:42Z</time>
      </trkpt>
      <trkpt lat="45.11413" lon="2.62531">
        <ele>1234</ele>
        <time>2021-08-11T09:05:43Z</time>
      </trkpt>
      <trkpt lat="45.11414" lon="2.62531">
        <ele>1234</ele>
        <time>2021-08-11T09:05:44Z</time>
      </trkpt>
      <trkpt lat="45.11415" lon="2.62532">
        <ele>1234</ele>
        <time>2021-08-11T09:05:45Z</time>
      </trkpt>
      <trkpt lat="45.11415" lon="2.62533">
        <ele>1234</ele>
        <time>2021-08-11T09:05:46Z</time>
      </trkpt>
      <trkpt lat="45.11416" lon="2.62534">
        <ele>1234</ele>
        <time>2021-08-11T09:05:47Z</time>
      </trkpt>
      <trkpt lat="45.11417" lon="2.62535">
        <ele>1234</ele>
        <time>2021-08-11T09:05:48Z</time>
      </trkpt>
      <trkpt lat="45.11417" lon="2.62536">
        <ele>1234.2</ele>
        <time>2021-08-11T09:05:49Z</time>
      </trkpt>
      <trkpt lat="45.11418" lon="2.62537">
        <ele>1234.3</ele>
        <time>2021-08-11T09:05:50Z</time>
      </trkpt>
      <trkpt lat="45.11419" lon="2.62538">
        <ele>1234.5</ele>
        <time>2021-08-11T09:05:51Z</time>
      </trkpt>
      <trkpt lat="45.11419" lon="2.6254">
        <ele>1234.7</ele>
        <time>2021-08-11T09:05:52Z</time>
      </trkpt>
      <trkpt lat="45.1142" lon="2.62541">
        <ele>1234.8</ele>
        <time>2021-08-11T09:05:53Z</time>
      </trkpt>
      <trkpt lat="45.1142" lon="2.62542">
        <ele>1235</ele>
        <time>2021-08-11T09:05:54Z</time>
      </trkpt>
      <trkpt lat="45.11421" lon="2.62543">
        <ele>1235.2</ele>
        <time>2021-08-11T09:05:55Z</time>
      </trkpt>
      <trkpt lat="45.11421" lon="2.62544">
        <ele>1235.3</ele>
        <time>2021-08-11T09:05:56Z</time>
      </trkpt>
      <trkpt lat="45.11422" lon="2.62545">
        <ele>1235.5</ele>
        <time>2021-08-11T09:05:57Z</time>
      </trkpt>
      <trkpt lat="45.11422" lon="2.62546">
        <ele>1235.6</ele>
        <time>2021-08-11T09:05:58Z</time>
      </trkpt>
      <trkpt lat="45.11423" lon="2.62547">
        <ele>1235.7</ele>
        <time>2021-08-11T09:05:59Z</time>
      </trkpt>
      <trkpt lat="45.11423" lon="2.62549">
        <ele>1235.9</ele>
        <time>2021-08-11T09:06:00Z</time>
      </trkpt>
      <trkpt lat="45.11424" lon="2.6255">
        <ele>1236.1</ele>
        <time>2021-08-11T09:06:01Z</time>
      </trkpt>
      <trkpt lat="45.11424" lon="2.62551">
        <ele>1236.3</ele>
        <time>2021-08-11T09:06:02Z</time>
      </trkpt>
      <trkpt lat="45.11424" lon="2.62552">
        <ele>1236.4</ele>
        <time>2021-08-11T09:06:03Z</time>
      </trkpt>
      <trkpt lat="45.11425" lon="2.62553">
        <ele>1236.6</ele>
        <time>2021-08-11T09:06:04Z</time>
      </trkpt>
      <trkpt lat="45.11425" lon="2.62555">
        <ele>1236.7</ele>
        <time>2021-08-11T09:06:05Z</time>
      </trkpt>
      <trkpt lat="45.11426" lon="2.62556">
        <ele>1236.9</ele>
        <time>2021-08-11T09:06:06Z</time>
      </trkpt>
      <trkpt lat="45.11426" lon="2.62557">
        <ele>1237.1</ele>
        <time>2021-08-11T09:06:07Z</time>
      </trkpt>
      <trkpt lat="45.11426" lon="2.62559">
        <ele>1237.3</ele>
        <time>2021-08-11T09:06:08Z</time>
      </trkpt>
      <trkpt lat="45.11427" lon="2.6256">
        <ele>1237.5</ele>
        <time>2021-08-11T09:06:09Z</time>
      </trkpt>
      <trkpt lat="45.11427" lon="2.62561">
        <ele>1237.6</ele>
        <time>2021-08-11T09:06:10Z</time>
      </trkpt>
      <trkpt lat="45.11428" lon="2.62562">
        <ele>1237.8</ele>
        <time>2021-08-11T09:06:11Z</time>
      </trkpt>
      <trkpt lat="45.11428" lon="2.62563">
        <ele>1237.9</ele>
        <time>2021-08-11T09:06:12Z</time>
      </trkpt>
      <trkpt lat="45.11428" lon="2.62565">
        <ele>1238.1</ele>
        <time>2021-08-11T09:06:13Z</time>
      </trkpt>
      <trkpt lat="45.11428" lon="2.62566">
        <ele>1238.3</ele>
        <time>2021-08-11T09:06:14Z</time>
      </trkpt>
      <trkpt lat="45.11429" lon="2.62567">
        <ele>1238.4</ele>
        <time>2021-08-11T09:06:15Z</time>
      </trkpt>
      <trkpt lat="45.11429" lon="2.62568">
        <ele>1238.6</ele>
        <time>2021-08-11T09:06:16Z</time>
      </trkpt>
      <trkpt lat="45.11429" lon="2.6257">
        <ele>1238.8</ele>
        <time>2021-08-11T09:06:17Z</time>
      </trkpt>
      <trkpt lat="45.1143" lon="2.6257">
        <ele>1238.9</ele>
        <time>2021-08-11T09:06:18Z</time>
      </trkpt>
      <trkpt lat="45.1143" lon="2.62571">
        <ele>1239</ele>
        <time>2021-08-11T09:06:19Z</time>
      </trkpt>
      <trkpt lat="45.1143" lon="2.62573">
        <ele>1239.2</ele>
        <time>2021-08-11T09:06:20Z</time>
      </trkpt>
      <trkpt lat="45.11431" lon="2.62574">
        <ele>1239.3</ele>
        <time>2021-08-11T09:06:21Z</time>
      </trkpt>
      <trkpt lat="45.11431" lon="2.62575">
        <ele>1239.4</ele>
        <time>2021-08-11T09:06:22Z</time>
      </trkpt>
      <trkpt lat="45.11431" lon="2.62576">
        <ele>1239.6</ele>
        <time>2021-08-11T09:06:23Z</time>
      </trkpt>
      <trkpt lat="45.11432" lon="2.62577">
        <ele>1239.8</ele>
        <time>2021-08-11T09:06:24Z</time>
      </trkpt>
      <trkpt lat="45.11432" lon="2.62578">
        <ele>1239.9</ele>
        <time>2021-08-11T09:06:25Z</time>
      </trkpt>
      <trkpt lat="45.11432" lon="2.6258">
        <ele>1240.1</ele>
        <time>2021-08-11T09:06:26Z</time>
      </trkpt>
      <trkpt lat="45.11433" lon="2.62581">
        <ele>1240.3</ele>
        <time>2021-08-11T09:06:27Z</time>
      </trkpt>
      <trkpt lat="45.11433" lon="2.62582">
        <ele>1240.4</ele>
        <time>2021-08-11T09:06:28Z</time>
      </trkpt>
      <trkpt lat="45.11433" lon="2.62584">
        <ele>1240.6</ele>
        <time>2021-08-11T09:06:29Z</time>
      </trkpt>
      <trkpt lat="45.11434" lon="2.62585">
        <ele>1240.8</ele>
        <time>2021-08-11T09:06:30Z</time>
      </trkpt>
      <trkpt lat="45.11434" lon="2.62586">
        <ele>1241</ele>
        <time>2021-08-11T09:06:31Z</time>
      </trkpt>
      <trkpt lat="45.11434" lon="2.62587">
        <ele>1241.2</ele>
        <time>2021-08-11T09:06:32Z</time>
      </trkpt>
      <trkpt lat="45.11434" lon="2.62588">
        <ele>1241.4</ele>
        <time>2021-08-11T09:06:33Z</time>
      </trkpt>
      <trkpt lat="45.11435" lon="2.62589">
        <ele>1241.5</ele>
        <time>2021-08-11T09:06:34Z</time>
      </trkpt>
      <trkpt lat="45.11435" lon="2.62591">
        <ele>1241.8</ele>
        <time>2021-08-11T09:06:35Z</time>
      </trkpt>
      <trkpt lat="45.11435" lon="2.62592">
        <ele>1242</ele>
        <time>2021-08-11T09:06:36Z</time>
      </trkpt>
      <trkpt lat="45.11436" lon="2.62593">
        <ele>1242.2</ele>
        <time>2021-08-11T09:06:37Z</time>
      </trkpt>
      <trkpt lat="45.11436" lon="2.62594">
        <ele>1242.4</ele>
        <time>2021-08-11T09:06:38Z</time>
      </trkpt>
      <trkpt lat="45.11437" lon="2.62596">
        <ele>1242.6</ele>
        <time>2021-08-11T09:06:39Z</time>
      </trkpt>
      <trkpt lat="45.11437" lon="2.62597">
        <ele>1242.8</ele>
        <time>2021-08-11T09:06:40Z</time>
      </trkpt>
      <trkpt lat="45.11437" lon="2.62598">
        <ele>1243</ele>
        <time>2021-08-11T09:06:41Z</time>
      </trkpt>
      <trkpt lat="45.11438" lon="2.62599">
        <ele>1243.2</ele>
        <time>2021-08-11T09:06:42Z</time>
      </trkpt>
      <trkpt lat="45.11438" lon="2.62601">
        <ele>1243.4</ele>
        <time>2021-08-11T09:06:43Z</time>
      </trkpt>
      <trkpt lat="45.11439" lon="2.62602">
        <ele>1243.6</ele>
        <time>2021-08-11T09:06:44Z</time>
      </trkpt>
      <trkpt lat="45.11439" lon="2.62603">
        <ele>1243.9</ele>
        <time>2021-08-11T09:06:45Z</time>
      </trkpt>
      <trkpt lat="45.1144" lon="2.62605">
        <ele>1244</ele>
        <time>2021-08-11T09:06:46Z</time>
      </trkpt>
      <trkpt lat="45.1144" lon="2.62606">
        <ele>1244.2</ele>
        <time>2021-08-11T09:06:47Z</time>
      </trkpt>
      <trkpt lat="45.11441" lon="2.62607">
        <ele>1244.4</ele>
        <time>2021-08-11T09:06:48Z</time>
      </trkpt>
      <trkpt lat="45.11441" lon="2.62608">
        <ele>1244.5</ele>
        <time>2021-08-11T09:06:49Z</time>
      </trkpt>
      <trkpt lat="45.11442" lon="2.62609">
        <ele>1244.7</ele>
        <time>2021-08-11T09:06:50Z</time>
      </trkpt>
      <trkpt lat="45.11443" lon="2.6261">
        <ele>1244.9</ele>
        <time>2021-08-11T09:06:51Z</time>
      </trkpt>
      <trkpt lat="45.11443" lon="2.62611">
        <ele>1245</ele>
        <time>2021-08-11T09:06:52Z</time>
      </trkpt>
      <trkpt lat="45.11444" lon="2.62612">
        <ele>1245.1</ele>
        <time>2021-08-11T09:06:53Z</time>
      </trkpt>
      <trkpt lat="45.11445" lon="2.62613">
        <ele>1245.3</ele>
        <time>2021-08-11T09:06:54Z</time>
      </trkpt>
      <trkpt lat="45.11445" lon="2.62614">
        <ele>1245.4</ele>
        <time>2021-08-11T09:06:55Z</time>
      </trkpt>
      <trkpt lat="45.11446" lon="2.62615">
        <ele>1245.5</ele>
        <time>2021-08-11T09:06:56Z</time>
      </trkpt>
      <trkpt lat="45.11447" lon="2.62615">
        <ele>1245.6</ele>
        <time>2021-08-11T09:06:57Z</time>
      </trkpt>
      <trkpt lat="45.11448" lon="2.62616">
        <ele>1245.7</ele>
        <time>2021-08-11T09:06:58Z</time>
      </trkpt>
      <trkpt lat="45.11449" lon="2.62617">
        <ele>1245.7</ele>
        <time>2021-08-11T09:06:59Z</time>
      </trkpt>
      <trkpt lat="45.1145" lon="2.62617">
        <ele>1245.8</ele>
        <time>2021-08-11T09:07:00Z</time>
      </trkpt>
      <trkpt lat="45.1145" lon="2.62618">
        <ele>1245.9</ele>
        <time>2021-08-11T09:07:01Z</time>
      </trkpt>
      <trkpt lat="45.11451" lon="2.62618">
        <ele>1245.9</ele>
        <time>2021-08-11T09:07:02Z</time>
      </trkpt>
      <trkpt lat="45.11452" lon="2.62619">
        <ele>1245.9</ele>
        <time>2021-08-11T09:07:03Z</time>
      </trkpt>
      <trkpt lat="45.11453" lon="2.62619">
        <ele>1246</ele>
        <time>2021-08-11T09:07:04Z</time>
      </trkpt>
      <trkpt lat="45.11454" lon="2.62619">
        <ele>1246</ele>
        <time>2021-08-11T09:07:05Z</time>
      </trkpt>
      <trkpt lat="45.11455" lon="2.6262">
        <ele>1246</ele>
        <time>2021-08-11T09:07:06Z</time>
      </trkpt>
      <trkpt lat="45.11456" lon="2.6262">
        <ele>1246</ele>
        <time>2021-08-11T09:07:07Z</time>
      </trkpt>
      <trkpt lat="45.11457" lon="2.6262">
        <ele>1246</ele>
        <time>2021-08-11T09:07:08Z</time>
      </trkpt>
      <trkpt lat="45.11458" lon="2.6262">
        <ele>1246</ele>
        <time>2021-08-11T09:07:09Z</time>
      </trkpt>
      <trkpt lat="45.11459" lon="2.62621">
        <ele>1246</ele>
        <time>2021-08-11T09:07:10Z</time>
      </trkpt>
      <trkpt lat="45.1146" lon="2.62621">
        <ele>1246</ele>
        <time>2021-08-11T09:07:11Z</time>
      </trkpt>
      <trkpt lat="45.11461" lon="2.62621">
        <ele>1246</ele>
        <time>2021-08-11T09:07:12Z</time>
      </trkpt>
      <trkpt lat="45.11461" lon="2.62621">
        <ele>1246</ele>
        <time>2021-08-11T09:07:13Z</time>
      </trkpt>
      <trkpt lat="45.11462" lon="2.62622">
        <ele>1246.1</ele>
        <time>2021-08-11T09:07:14Z</time>
      </trkpt>
      <trkpt lat="45.11463" lon="2.62623">
        <ele>1246.1</ele>
        <time>2021-08-11T09:07:15Z</time>
      </trkpt>
      <trkpt lat="45.11464" lon="2.62623">
        <ele>1246.2</ele>
        <time>2021-08-11T09:07:16Z</time>
      </trkpt>
      <trkpt lat="45.11465" lon="2.62624">
        <ele>1246.3</ele>
        <time>2021-08-11T09:07:17Z</time>
      </trkpt>
      <trkpt lat="45.11466" lon="2.62624">
        <ele>1246.3</ele>
        <time>2021-08-11T09:07:18Z</time>
      </trkpt>
      <trkpt lat="45.11467" lon="2.62625">
        <ele>1246.4</ele>
        <time>2021-08-11T09:07:19Z</time>
      </trkpt>
      <trkpt lat="45.11468" lon="2.62626">
        <ele>1246.5</ele>
        <time>2021-08-11T09:07:20Z</time>
      </trkpt>
      <trkpt lat="45.11468" lon="2.62627">
        <ele>1246.6</ele>
        <time>2021-08-11T09:07:21Z</time>
      </trkpt>
      <trkpt lat="45.11469" lon="2.62627">
        <ele>1246.7</ele>
        <time>2021-08-11T09:07:22Z</time>
      </trkpt>
      <trkpt lat="45.1147" lon="2.62628">
        <ele>1246.7</ele>
        <time>2021-08-11T09:07:23Z</time>
      </trkpt>
      <trkpt lat="45.11471" lon="2.62629">
        <ele>1246.8</ele>
        <time>2021-08-11T09:07:24Z</time>
      </trkpt>
      <trkpt lat="45.11472" lon="2.6263">
        <ele>1246.9</ele>
        <time>2021-08-11T09:07:25Z</time>
      </trkpt>
      <trkpt lat="45.11473" lon="2.6263">
        <ele>1247</ele>
        <time>2021-08-11T09:07:26Z</time>
      </trkpt>
      <trkpt lat="45.11473" lon="2.62631">
        <ele>1247.1</ele>
        <time>2021-08-11T09:07:27Z</time>
      </trkpt>
      <trkpt lat="45.11474" lon="2.62632">
        <ele>1247.2</ele>
        <time>2021-08-11T09:07:28Z</time>
      </trkpt>
      <trkpt lat="45.11475" lon="2.62633">
        <ele>1247.3</ele>
        <time>2021-08-11T09:07:29Z</time>
      </trkpt>
      <trkpt lat="45.11476" lon="2.62634">
        <ele>1247.4</ele>
        <time>2021-08-11T09:07:30Z</time>
      </trkpt>
      <trkpt lat="45.11477" lon="2.62635">
        <ele>1247.4</ele>
        <time>2021-08-11T09:07:31Z</time>
      </trkpt>
      <trkpt lat="45.11478" lon="2.62636">
        <ele>1247.6</ele>
        <time>2021-08-11T09:07:32Z</time>
      </trkpt>
      <trkpt lat="45.11478" lon="2.62637">
        <ele>1247.7</ele>
        <time>2021-08-11T09:07:33Z</time>
      </trkpt>
      <trkpt lat="45.11479" lon="2.62638">
        <ele>1247.8</ele>
        <time>2021-08-11T09:07:34Z</time>
      </trkpt>
      <trkpt lat="45.1148" lon="2.62638">
        <ele>1247.9</ele>
        <time>2021-08-11T09:07:35Z</time>
      </trkpt>
      <trkpt lat="45.1148" lon="2.62639">
        <ele>1248</ele>
        <time>2021-08-11T09:07:36Z</time>
      </trkpt>
      <trkpt lat="45.11481" lon="2.6264">
        <ele>1248.1</ele>
        <time>2021-08-11T09:07:37Z</time>
      </trkpt>
      <trkpt lat="45.11482" lon="2.62641">
        <ele>1248.2</ele>
        <time>2021-08-11T09:07:38Z</time>
      </trkpt>
      <trkpt lat="45.11482" lon="2.62642">
        <ele>1248.3</ele>
        <time>2021-08-11T09:07:39Z</time>
      </trkpt>
      <trkpt lat="45.11483" lon="2.62643">
        <ele>1248.4</ele>
        <time>2021-08-11T09:07:40Z</time>
      </trkpt>
      <trkpt lat="45.11484" lon="2.62643">
        <ele>1248.4</ele>
        <time>2021-08-11T09:07:41Z</time>
      </trkpt>
      <trkpt lat="45.11484" lon="2.62644">
        <ele>1248.5</ele>
        <time>2021-08-11T09:07:42Z</time>
      </trkpt>
      <trkpt lat="45.11485" lon="2.62645">
        <ele>1248.6</ele>
        <time>2021-08-11T09:07:43Z</time>
      </trkpt>
      <trkpt lat="45.11486" lon="2.62646">
        <ele>1248.7</ele>
        <time>2021-08-11T09:07:44Z</time>
      </trkpt>
      <trkpt lat="45.11486" lon="2.62647">
        <ele>1248.8</ele>
        <time>2021-08-11T09:07:45Z</time>
      </trkpt>
      <trkpt lat="45.11487" lon="2.62648">
        <ele>1249</ele>
        <time>2021-08-11T09:07:46Z</time>
      </trkpt>
      <trkpt lat="45.11488" lon="2.62649">
        <ele>1249.1</ele>
        <time>2021-08-11T09:07:47Z</time>
      </trkpt>
      <trkpt lat="45.11488" lon="2.6265">
        <ele>1249.2</ele>
        <time>2021-08-11T09:07:48Z</time>
      </trkpt>
      <trkpt lat="45.11489" lon="2.62651">
        <ele>1249.3</ele>
        <time>2021-08-11T09:07:49Z</time>
      </trkpt>
      <trkpt lat="45.1149" lon="2.62652">
        <ele>1249.4</ele>
        <time>2021-08-11T09:07:50Z</time>
      </trkpt>
      <trkpt lat="45.1149" lon="2.62653">
        <ele>1249.6</ele>
        <time>2021-08-11T09:07:51Z</time>
      </trkpt>
      <trkpt lat="45.11491" lon="2.62654">
        <ele>1249.7</ele>
        <time>2021-08-11T09:07:52Z</time>
      </trkpt>
      <trkpt lat="45.11491" lon="2.62655">
        <ele>1249.8</ele>
        <time>2021-08-11T09:07:53Z</time>
      </trkpt>
      <trkpt lat="45.11492" lon="2.62656">
        <ele>1249.9</ele>
        <time>2021-08-11T09:07:54Z</time>
      </trkpt>
      <trkpt lat="45.11492" lon="2.62657">
        <ele>1250.1</ele>
        <time>2021-08-11T09:07:55Z</time>
      </trkpt>
      <trkpt lat="45.11493" lon="2.62659">
        <ele>1250.2</ele>
        <time>2021-08-11T09:07:56Z</time>
      </trkpt>
      <trkpt lat="45.11493" lon="2.6266">
        <ele>1250.4</ele>
        <time>2021-08-11T09:07:57Z</time>
      </trkpt>
      <trkpt lat="45.11493" lon="2.62661">
        <ele>1250.6</ele>
        <time>2021-08-11T09:07:58Z</time>
      </trkpt>
      <trkpt lat="45.11494" lon="2.62662">
        <ele>1250.7</ele>
        <time>2021-08-11T09:07:59Z</time>
      </trkpt>
      <trkpt lat="45.11494" lon="2.62663">
        <ele>1250.8</ele>
        <time>2021-08-11T09:08:00Z</time>
      </trkpt>
      <trkpt lat="45.11494" lon="2.62664">
        <ele>1251</ele>
        <time>2021-08-11T09:08:01Z</time>
      </trkpt>
      <trkpt lat="45.11494" lon="2.62664">
        <ele>1251</ele>
        <time>2021-08-11T09:08:02Z</time>
      </trkpt>
      <trkpt lat="45.11494" lon="2.62664">
        <ele>1251</ele>
        <time>2021-08-11T09:08:03Z</time>
      </trkpt>
      <trkpt lat="45.11494" lon="2.62665">
        <ele>1251.1</ele>
        <time>2021-08-11T09:08:04Z</time>
      </trkpt>
      <trkpt lat="45.11494" lon="2.62666">
        <ele>1251.2</ele>
        <time>2021-08-11T09:08:05Z</time>
      </trkpt>
      <trkpt lat="45.11495" lon="2.62667">
        <ele>1251.3</ele>
        <time>2021-08-11T09:08:06Z</time>
      </trkpt>
      <trkpt lat="45.11495" lon="2.62667">
        <ele>1251.3</ele>
        <time>2021-08-11T09:08:07Z</time>
      </trkpt>
      <trkpt lat="45.11494" lon="2.62667">
        <ele>1251.3</ele>
        <time>2021-08-11T09:08:08Z</time>
      </trkpt>
      <trkpt lat="45.11494" lon="2.62666">
        <ele>1251.3</ele>
        <time>2021-08-11T09:08:09Z</time>
      </trkpt>
      <trkpt lat="45.11494" lon="2.62667">
        <ele>1251.3</ele>
        <time>2021-08-11T09:08:10Z</time>
      </trkpt>
      <trkpt lat="45.11494" lon="2.62667">
        <ele>1251.3</ele>
        <time>2021-08-11T09:08:11Z</time>
      </trkpt>
      <trkpt lat="45.11494" lon="2.62666">
        <ele>1251.3</ele>
        <time>2021-08-11T09:08:12Z</time>
      </trkpt>
      <trkpt lat="45.11494" lon="2.62666">
        <ele>1251.3</ele>
        <time>2021-08-11T09:08:13Z</time>
      </trkpt>
      <trkpt lat="45.11494" lon="2.62667">
        <ele>1251.3</ele>
        <time>2021-08-11T09:08:14Z</time>
      </trkpt>
      <trkpt lat="45.11494" lon="2.62667">
        <ele>1251.3</ele>
        <time>2021-08-11T09:08:15Z</time>
      </trkpt>
      <trkpt lat="45.11494" lon="2.62667">
        <ele>1251.3</ele>
        <time>2021-08-11T09:08:16Z</time>
      </trkpt>
      <trkpt lat="45.11494" lon="2.62667">
        <ele>1251.4</ele>
        <time>2021-08-11T09:08:17Z</time>
      </trkpt>
      <trkpt lat="45.11494" lon="2.62668">
        <ele>1251.6</ele>
        <time>2021-08-11T09:08:18Z</time>
      </trkpt>
      <trkpt lat="45.11494" lon="2.62668">
        <ele>1251.7</ele>
        <time>2021-08-11T09:08:19Z</time>
      </trkpt>
      <trkpt lat="45.11494" lon="2.62668">
        <ele>1251.7</ele>
        <time>2021-08-11T09:08:20Z</time>
      </trkpt>
      <trkpt lat="45.11494" lon="2.62668">
        <ele>1251.7</ele>
        <time>2021-08-11T09:08:21Z</time>
      </trkpt>
      <trkpt lat="45.11494" lon="2.62668">
        <ele>1251.7</ele>
        <time>2021-08-11T09:08:22Z</time>
      </trkpt>
      <trkpt lat="45.11494" lon="2.62669">
        <ele>1251.8</ele>
        <time>2021-08-11T09:08:23Z</time>
      </trkpt>
      <trkpt lat="45.11494" lon="2.6267">
        <ele>1252</ele>
        <time>2021-08-11T09:08:24Z</time>
      </trkpt>
      <trkpt lat="45.11495" lon="2.62669">
        <ele>1251.9</ele>
        <time>2021-08-11T09:08:25Z</time>
      </trkpt>
      <trkpt lat="45.11495" lon="2.62669">
        <ele>1251.9</ele>
        <time>2021-08-11T09:08:26Z</time>
      </trkpt>
      <trkpt lat="45.11494" lon="2.6267">
        <ele>1252</ele>
        <time>2021-08-11T09:08:27Z</time>
      </trkpt>
      <trkpt lat="45.11494" lon="2.6267">
        <ele>1252.1</ele>
        <time>2021-08-11T09:08:28Z</time>
      </trkpt>
      <trkpt lat="45.11494" lon="2.62671">
        <ele>1252.2</ele>
        <time>2021-08-11T09:08:29Z</time>
      </trkpt>
      <trkpt lat="45.11494" lon="2.62671">
        <ele>1252.4</ele>
        <time>2021-08-11T09:08:30Z</time>
      </trkpt>
      <trkpt lat="45.11493" lon="2.62672">
        <ele>1252.5</ele>
        <time>2021-08-11T09:08:31Z</time>
      </trkpt>
      <trkpt lat="45.11493" lon="2.62672">
        <ele>1252.7</ele>
        <time>2021-08-11T09:08:32Z</time>
      </trkpt>
      <trkpt lat="45.11492" lon="2.62673">
        <ele>1252.8</ele>
        <time>2021-08-11T09:08:33Z</time>
      </trkpt>
      <trkpt lat="45.11491" lon="2.62673">
        <ele>1252.9</ele>
        <time>2021-08-11T09:08:34Z</time>
      </trkpt>
      <trkpt lat="45.11491" lon="2.62674">
        <ele>1253.1</ele>
        <time>2021-08-11T09:08:35Z</time>
      </trkpt>
      <trkpt lat="45.1149" lon="2.62674">
        <ele>1253.3</ele>
        <time>2021-08-11T09:08:36Z</time>
      </trkpt>
      <trkpt lat="45.11489" lon="2.62675">
        <ele>1253.4</ele>
        <time>2021-08-11T09:08:37Z</time>
      </trkpt>
      <trkpt lat="45.11489" lon="2.62675">
        <ele>1253.5</ele>
        <time>2021-08-11T09:08:38Z</time>
      </trkpt>
      <trkpt lat="45.11488" lon="2.62675">
        <ele>1253.6</ele>
        <time>2021-08-11T09:08:39Z</time>
      </trkpt>
      <trkpt lat="45.11487" lon="2.62676">
        <ele>1253.7</ele>
        <time>2021-08-11T09:08:40Z</time>
      </trkpt>
      <trkpt lat="45.11487" lon="2.62676">
        <ele>1253.7</ele>
        <time>2021-08-11T09:08:41Z</time>
      </trkpt>
      <trkpt lat="45.11486" lon="2.62676">
        <ele>1253.8</ele>
        <time>2021-08-11T09:08:42Z</time>
      </trkpt>
      <trkpt lat="45.11486" lon="2.62676">
        <ele>1253.8</ele>
        <time>2021-08-11T09:08:43Z</time>
      </trkpt>
      <trkpt lat="45.11485" lon="2.62675">
        <ele>1253.8</ele>
        <time>2021-08-11T09:08:44Z</time>
      </trkpt>
      <trkpt lat="45.11484" lon="2.62675">
        <ele>1253.8</ele>
        <time>2021-08-11T09:08:45Z</time>
      </trkpt>
      <trkpt lat="45.11484" lon="2.62675">
        <ele>1253.8</ele>
        <time>2021-08-11T09:08:46Z</time>
      </trkpt>
      <trkpt lat="45.11483" lon="2.62675">
        <ele>1253.7</ele>
        <time>2021-08-11T09:08:47Z</time>
      </trkpt>
      <trkpt lat="45.11483" lon="2.62675">
        <ele>1253.7</ele>
        <time>2021-08-11T09:08:48Z</time>
      </trkpt>
      <trkpt lat="45.11483" lon="2.62675">
        <ele>1253.7</ele>
        <time>2021-08-11T09:08:49Z</time>
      </trkpt>
      <trkpt lat="45.11483" lon="2.62675">
        <ele>1253.8</ele>
        <time>2021-08-11T09:08:50Z</time>
      </trkpt>
      <trkpt lat="45.11483" lon="2.62675">
        <ele>1253.8</ele>
        <time>2021-08-11T09:08:51Z</time>
      </trkpt>
      <trkpt lat="45.11483" lon="2.62675">
        <ele>1253.8</ele>
        <time>2021-08-11T09:08:52Z</time>
      </trkpt>
      <trkpt lat="45.11483" lon="2.62675">
        <ele>1253.8</ele>
        <time>2021-08-11T09:08:53Z</time>
      </trkpt>
      <trkpt lat="45.11483" lon="2.62675">
        <ele>1253.8</ele>
        <time>2021-08-11T09:08:54Z</time>
      </trkpt>
      <trkpt lat="45.11483" lon="2.62675">
        <ele>1253.8</ele>
        <time>2021-08-11T09:08:55Z</time>
      </trkpt>
      <trkpt lat="45.11482" lon="2.62675">
        <ele>1253.8</ele>
        <time>2021-08-11T09:08:56Z</time>
      </trkpt>
      <trkpt lat="45.11482" lon="2.62675">
        <ele>1253.9</ele>
        <time>2021-08-11T09:08:57Z</time>
      </trkpt>
      <trkpt lat="45.11481" lon="2.62675">
        <ele>1253.8</ele>
        <time>2021-08-11T09:08:58Z</time>
      </trkpt>
      <trkpt lat="45.11481" lon="2.62675">
        <ele>1253.9</ele>
        <time>2021-08-11T09:08:59Z</time>
      </trkpt>
      <trkpt lat="45.1148" lon="2.62675">
        <ele>1254</ele>
        <time>2021-08-11T09:09:00Z</time>
      </trkpt>
      <trkpt lat="45.11479" lon="2.62675">
        <ele>1254</ele>
        <time>2021-08-11T09:09:01Z</time>
      </trkpt>
      <trkpt lat="45.11478" lon="2.62675">
        <ele>1254.1</ele>
        <time>2021-08-11T09:09:02Z</time>
      </trkpt>
      <trkpt lat="45.11477" lon="2.62676">
        <ele>1254.3</ele>
        <time>2021-08-11T09:09:03Z</time>
      </trkpt>
      <trkpt lat="45.11477" lon="2.62676">
        <ele>1254.4</ele>
        <time>2021-08-11T09:09:04Z</time>
      </trkpt>
      <trkpt lat="45.11476" lon="2.62676">
        <ele>1254.4</ele>
        <time>2021-08-11T09:09:05Z</time>
      </trkpt>
      <trkpt lat="45.11475" lon="2.62676">
        <ele>1254.4</ele>
        <time>2021-08-11T09:09:06Z</time>
      </trkpt>
      <trkpt lat="45.11474" lon="2.62676">
        <ele>1254.5</ele>
        <time>2021-08-11T09:09:07Z</time>
      </trkpt>
      <trkpt lat="45.11473" lon="2.62676">
        <ele>1254.6</ele>
        <time>2021-08-11T09:09:08Z</time>
      </trkpt>
      <trkpt lat="45.11472" lon="2.62676">
        <ele>1254.7</ele>
        <time>2021-08-11T09:09:09Z</time>
      </trkpt>
      <trkpt lat="45.11472" lon="2.62677">
        <ele>1254.9</ele>
        <time>2021-08-11T09:09:10Z</time>
      </trkpt>
      <trkpt lat="45.11471" lon="2.62678">
        <ele>1255.1</ele>
        <time>2021-08-11T09:09:11Z</time>
      </trkpt>
      <trkpt lat="45.11471" lon="2.62679">
        <ele>1255.3</ele>
        <time>2021-08-11T09:09:12Z</time>
      </trkpt>
      <trkpt lat="45.1147" lon="2.62679">
        <ele>1255.5</ele>
        <time>2021-08-11T09:09:13Z</time>
      </trkpt>
      <trkpt lat="45.1147" lon="2.6268">
        <ele>1255.7</ele>
        <time>2021-08-11T09:09:14Z</time>
      </trkpt>
      <trkpt lat="45.1147" lon="2.62681">
        <ele>1255.9</ele>
        <time>2021-08-11T09:09:15Z</time>
      </trkpt>
      <trkpt lat="45.11471" lon="2.62682">
        <ele>1256.1</ele>
        <time>2021-08-11T09:09:16Z</time>
      </trkpt>
      <trkpt lat="45.11471" lon="2.62683">
        <ele>1256.3</ele>
        <time>2021-08-11T09:09:17Z</time>
      </trkpt>
      <trkpt lat="45.11471" lon="2.62684">
        <ele>1256.5</ele>
        <time>2021-08-11T09:09:18Z</time>
      </trkpt>
      <trkpt lat="45.11471" lon="2.62685">
        <ele>1256.7</ele>
        <time>2021-08-11T09:09:19Z</time>
      </trkpt>
      <trkpt lat="45.11471" lon="2.62686">
        <ele>1256.9</ele>
        <time>2021-08-11T09:09:20Z</time>
      </trkpt>
      <trkpt lat="45.11471" lon="2.62686">
        <ele>1256.9</ele>
        <time>2021-08-11T09:09:21Z</time>
      </trkpt>
      <trkpt lat="45.11471" lon="2.62687">
        <ele>1257</ele>
        <time>2021-08-11T09:09:22Z</time>
      </trkpt>
      <trkpt lat="45.11471" lon="2.62687">
        <ele>1257.2</ele>
        <time>2021-08-11T09:09:23Z</time>
      </trkpt>
      <trkpt lat="45.11472" lon="2.62688">
        <ele>1257.4</ele>
        <time>2021-08-11T09:09:24Z</time>
      </trkpt>
      <trkpt lat="45.11472" lon="2.62689">
        <ele>1257.5</ele>
        <time>2021-08-11T09:09:25Z</time>
      </trkpt>
      <trkpt lat="45.11472" lon="2.6269">
        <ele>1257.6</ele>
        <time>2021-08-11T09:09:26Z</time>
      </trkpt>
      <trkpt lat="45.11473" lon="2.62691">
        <ele>1257.8</ele>
        <time>2021-08-11T09:09:27Z</time>
      </trkpt>
      <trkpt lat="45.11473" lon="2.62691">
        <ele>1258</ele>
        <time>2021-08-11T09:09:28Z</time>
      </trkpt>
      <trkpt lat="45.11473" lon="2.62692">
        <ele>1258.1</ele>
        <time>2021-08-11T09:09:29Z</time>
      </trkpt>
      <trkpt lat="45.11474" lon="2.62692">
        <ele>1258.1</ele>
        <time>2021-08-11T09:09:30Z</time>
      </trkpt>
      <trkpt lat="45.11474" lon="2.62693">
        <ele>1258.2</ele>
        <time>2021-08-11T09:09:31Z</time>
      </trkpt>
      <trkpt lat="45.11475" lon="2.62693">
        <ele>1258.2</ele>
        <time>2021-08-11T09:09:32Z</time>
      </trkpt>
      <trkpt lat="45.11475" lon="2.62694">
        <ele>1258.3</ele>
        <time>2021-08-11T09:09:33Z</time>
      </trkpt>
      <trkpt lat="45.11476" lon="2.62694">
        <ele>1258.4</ele>
        <time>2021-08-11T09:09:34Z</time>
      </trkpt>
      <trkpt lat="45.11476" lon="2.62695">
        <ele>1258.4</ele>
        <time>2021-08-11T09:09:35Z</time>
      </trkpt>
      <trkpt lat="45.11477" lon="2.62695">
        <ele>1258.6</ele>
        <time>2021-08-11T09:09:36Z</time>
      </trkpt>
      <trkpt lat="45.11477" lon="2.62696">
        <ele>1258.7</ele>
        <time>2021-08-11T09:09:37Z</time>
      </trkpt>
      <trkpt lat="45.11478" lon="2.62697">
        <ele>1258.8</ele>
        <time>2021-08-11T09:09:38Z</time>
      </trkpt>
      <trkpt lat="45.11478" lon="2.62697">
        <ele>1258.8</ele>
        <time>2021-08-11T09:09:39Z</time>
      </trkpt>
      <trkpt lat="45.11479" lon="2.62697">
        <ele>1258.9</ele>
        <time>2021-08-11T09:09:40Z</time>
      </trkpt>
      <trkpt lat="45.1148" lon="2.62698">
        <ele>1259</ele>
        <time>2021-08-11T09:09:41Z</time>
      </trkpt>
      <trkpt lat="45.1148" lon="2.62698">
        <ele>1259</ele>
        <time>2021-08-11T09:09:42Z</time>
      </trkpt>
      <trkpt lat="45.11481" lon="2.62698">
        <ele>1259</ele>
        <time>2021-08-11T09:09:43Z</time>
      </trkpt>
      <trkpt lat="45.11481" lon="2.62699">
        <ele>1259.1</ele>
        <time>2021-08-11T09:09:44Z</time>
      </trkpt>
      <trkpt lat="45.11482" lon="2.62699">
        <ele>1259.1</ele>
        <time>2021-08-11T09:09:45Z</time>
      </trkpt>
      <trkpt lat="45.11482" lon="2.627">
        <ele>1259.2</ele>
        <time>2021-08-11T09:09:46Z</time>
      </trkpt>
      <trkpt lat="45.11483" lon="2.62701">
        <ele>1259.3</ele>
        <time>2021-08-11T09:09:47Z</time>
      </trkpt>
      <trkpt lat="45.11483" lon="2.62701">
        <ele>1259.4</ele>
        <time>2021-08-11T09:09:48Z</time>
      </trkpt>
      <trkpt lat="45.11483" lon="2.62702">
        <ele>1259.6</ele>
        <time>2021-08-11T09:09:49Z</time>
      </trkpt>
      <trkpt lat="45.11484" lon="2.62702">
        <ele>1259.6</ele>
        <time>2021-08-11T09:09:50Z</time>
      </trkpt>
      <trkpt lat="45.11484" lon="2.62703">
        <ele>1259.8</ele>
        <time>2021-08-11T09:09:51Z</time>
      </trkpt>
      <trkpt lat="45.11485" lon="2.62704">
        <ele>1259.9</ele>
        <time>2021-08-11T09:09:52Z</time>
      </trkpt>
      <trkpt lat="45.11485" lon="2.62704">
        <ele>1260</ele>
        <time>2021-08-11T09:09:53Z</time>
      </trkpt>
      <trkpt lat="45.11485" lon="2.62705">
        <ele>1260.2</ele>
        <time>2021-08-11T09:09:54Z</time>
      </trkpt>
      <trkpt lat="45.11486" lon="2.62705">
        <ele>1260.2</ele>
        <time>2021-08-11T09:09:55Z</time>
      </trkpt>
      <trkpt lat="45.11486" lon="2.62706">
        <ele>1260.4</ele>
        <time>2021-08-11T09:09:56Z</time>
      </trkpt>
      <trkpt lat="45.11487" lon="2.62707">
        <ele>1260.5</ele>
        <time>2021-08-11T09:09:57Z</time>
      </trkpt>
      <trkpt lat="45.11487" lon="2.62708">
        <ele>1260.7</ele>
        <time>2021-08-11T09:09:58Z</time>
      </trkpt>
      <trkpt lat="45.11487" lon="2.62709">
        <ele>1260.8</ele>
        <time>2021-08-11T09:09:59Z</time>
      </trkpt>
      <trkpt lat="45.11488" lon="2.62709">
        <ele>1260.9</ele>
        <time>2021-08-11T09:10:00Z</time>
      </trkpt>
      <trkpt lat="45.11488" lon="2.6271">
        <ele>1261.1</ele>
        <time>2021-08-11T09:10:01Z</time>
      </trkpt>
      <trkpt lat="45.11488" lon="2.62711">
        <ele>1261.2</ele>
        <time>2021-08-11T09:10:02Z</time>
      </trkpt>
      <trkpt lat="45.11489" lon="2.62712">
        <ele>1261.4</ele>
        <time>2021-08-11T09:10:03Z</time>
      </trkpt>
      <trkpt lat="45.11489" lon="2.62712">
        <ele>1261.5</ele>
        <time>2021-08-11T09:10:04Z</time>
      </trkpt>
      <trkpt lat="45.11489" lon="2.62713">
        <ele>1261.6</ele>
        <time>2021-08-11T09:10:05Z</time>
      </trkpt>
      <trkpt lat="45.1149" lon="2.62713">
        <ele>1261.7</ele>
        <time>2021-08-11T09:10:06Z</time>
      </trkpt>
      <trkpt lat="45.1149" lon="2.62714">
        <ele>1261.8</ele>
        <time>2021-08-11T09:10:07Z</time>
      </trkpt>
      <trkpt lat="45.1149" lon="2.62714">
        <ele>1261.9</ele>
        <time>2021-08-11T09:10:08Z</time>
      </trkpt>
      <trkpt lat="45.1149" lon="2.62715">
        <ele>1262</ele>
        <time>2021-08-11T09:10:09Z</time>
      </trkpt>
      <trkpt lat="45.1149" lon="2.62716">
        <ele>1262.1</ele>
        <time>2021-08-11T09:10:10Z</time>
      </trkpt>
      <trkpt lat="45.11491" lon="2.62716">
        <ele>1262.3</ele>
        <time>2021-08-11T09:10:11Z</time>
      </trkpt>
      <trkpt lat="45.11491" lon="2.62717">
        <ele>1262.5</ele>
        <time>2021-08-11T09:10:12Z</time>
      </trkpt>
      <trkpt lat="45.11491" lon="2.62718">
        <ele>1262.6</ele>
        <time>2021-08-11T09:10:13Z</time>
      </trkpt>
      <trkpt lat="45.11491" lon="2.62719">
        <ele>1262.7</ele>
        <time>2021-08-11T09:10:14Z</time>
      </trkpt>
      <trkpt lat="45.11491" lon="2.62719">
        <ele>1262.9</ele>
        <time>2021-08-11T09:10:15Z</time>
      </trkpt>
      <trkpt lat="45.11491" lon="2.6272">
        <ele>1263</ele>
        <time>2021-08-11T09:10:16Z</time>
      </trkpt>
      <trkpt lat="45.11492" lon="2.62721">
        <ele>1263.1</ele>
        <time>2021-08-11T09:10:17Z</time>
      </trkpt>
      <trkpt lat="45.11492" lon="2.62721">
        <ele>1263.2</ele>
        <time>2021-08-11T09:10:18Z</time>
      </trkpt>
      <trkpt lat="45.11492" lon="2.62721">
        <ele>1263.3</ele>
        <time>2021-08-11T09:10:19Z</time>
      </trkpt>
      <trkpt lat="45.11492" lon="2.62722">
        <ele>1263.3</ele>
        <time>2021-08-11T09:10:20Z</time>
      </trkpt>
      <trkpt lat="45.11493" lon="2.62722">
        <ele>1263.4</ele>
        <time>2021-08-11T09:10:21Z</time>
      </trkpt>
      <trkpt lat="45.11493" lon="2.62723">
        <ele>1263.5</ele>
        <time>2021-08-11T09:10:22Z</time>
      </trkpt>
      <trkpt lat="45.11494" lon="2.62723">
        <ele>1263.5</ele>
        <time>2021-08-11T09:10:23Z</time>
      </trkpt>
      <trkpt lat="45.11495" lon="2.62724">
        <ele>1263.6</ele>
        <time>2021-08-11T09:10:24Z</time>
      </trkpt>
      <trkpt lat="45.11495" lon="2.62724">
        <ele>1263.6</ele>
        <time>2021-08-11T09:10:25Z</time>
      </trkpt>
      <trkpt lat="45.11496" lon="2.62724">
        <ele>1263.6</ele>
        <time>2021-08-11T09:10:26Z</time>
      </trkpt>
      <trkpt lat="45.11496" lon="2.62724">
        <ele>1263.6</ele>
        <time>2021-08-11T09:10:27Z</time>
      </trkpt>
      <trkpt lat="45.11497" lon="2.62724">
        <ele>1263.7</ele>
        <time>2021-08-11T09:10:28Z</time>
      </trkpt>
      <trkpt lat="45.11497" lon="2.62725">
        <ele>1263.7</ele>
        <time>2021-08-11T09:10:29Z</time>
      </trkpt>
      <trkpt lat="45.11498" lon="2.62725">
        <ele>1263.7</ele>
        <time>2021-08-11T09:10:30Z</time>
      </trkpt>
      <trkpt lat="45.11498" lon="2.62725">
        <ele>1263.8</ele>
        <time>2021-08-11T09:10:31Z</time>
      </trkpt>
      <trkpt lat="45.11498" lon="2.62726">
        <ele>1263.8</ele>
        <time>2021-08-11T09:10:32Z</time>
      </trkpt>
      <trkpt lat="45.11499" lon="2.62726">
        <ele>1263.9</ele>
        <time>2021-08-11T09:10:33Z</time>
      </trkpt>
      <trkpt lat="45.115" lon="2.62726">
        <ele>1263.9</ele>
        <time>2021-08-11T09:10:34Z</time>
      </trkpt>
      <trkpt lat="45.115" lon="2.62727">
        <ele>1264</ele>
        <time>2021-08-11T09:10:35Z</time>
      </trkpt>
      <trkpt lat="45.11501" lon="2.62728">
        <ele>1264.3</ele>
        <time>2021-08-11T09:10:36Z</time>
      </trkpt>
      <trkpt lat="45.11502" lon="2.62728">
        <ele>1264.5</ele>
        <time>2021-08-11T09:10:37Z</time>
      </trkpt>
      <trkpt lat="45.11502" lon="2.62729">
        <ele>1264.6</ele>
        <time>2021-08-11T09:10:38Z</time>
      </trkpt>
      <trkpt lat="45.11503" lon="2.62729">
        <ele>1264.8</ele>
        <time>2021-08-11T09:10:39Z</time>
      </trkpt>
      <trkpt lat="45.11504" lon="2.6273">
        <ele>1265</ele>
        <time>2021-08-11T09:10:40Z</time>
      </trkpt>
      <trkpt lat="45.11505" lon="2.6273">
        <ele>1265.2</ele>
        <time>2021-08-11T09:10:41Z</time>
      </trkpt>
      <trkpt lat="45.11506" lon="2.62731">
        <ele>1265.4</ele>
        <time>2021-08-11T09:10:42Z</time>
      </trkpt>
      <trkpt lat="45.11506" lon="2.62731">
        <ele>1265.6</ele>
        <time>2021-08-11T09:10:43Z</time>
      </trkpt>
      <trkpt lat="45.11507" lon="2.62732">
        <ele>1265.8</ele>
        <time>2021-08-11T09:10:44Z</time>
      </trkpt>
      <trkpt lat="45.11508" lon="2.62733">
        <ele>1266.1</ele>
        <time>2021-08-11T09:10:45Z</time>
      </trkpt>
      <trkpt lat="45.11509" lon="2.62733">
        <ele>1266.3</ele>
        <time>2021-08-11T09:10:46Z</time>
      </trkpt>
      <trkpt lat="45.11509" lon="2.62734">
        <ele>1266.5</ele>
        <time>2021-08-11T09:10:47Z</time>
      </trkpt>
      <trkpt lat="45.1151" lon="2.62735">
        <ele>1266.8</ele>
        <time>2021-08-11T09:10:48Z</time>
      </trkpt>
      <trkpt lat="45.11511" lon="2.62736">
        <ele>1267</ele>
        <time>2021-08-11T09:10:49Z</time>
      </trkpt>
      <trkpt lat="45.11511" lon="2.62737">
        <ele>1267.3</ele>
        <time>2021-08-11T09:10:50Z</time>
      </trkpt>
      <trkpt lat="45.11512" lon="2.62737">
        <ele>1267.5</ele>
        <time>2021-08-11T09:10:51Z</time>
      </trkpt>
      <trkpt lat="45.11512" lon="2.62738">
        <ele>1267.7</ele>
        <time>2021-08-11T09:10:52Z</time>
      </trkpt>
      <trkpt lat="45.11513" lon="2.62738">
        <ele>1267.9</ele>
        <time>2021-08-11T09:10:53Z</time>
      </trkpt>
      <trkpt lat="45.11514" lon="2.62739">
        <ele>1268.1</ele>
        <time>2021-08-11T09:10:54Z</time>
      </trkpt>
      <trkpt lat="45.11514" lon="2.6274">
        <ele>1268.4</ele>
        <time>2021-08-11T09:10:55Z</time>
      </trkpt>
      <trkpt lat="45.11515" lon="2.62741">
        <ele>1268.6</ele>
        <time>2021-08-11T09:10:56Z</time>
      </trkpt>
      <trkpt lat="45.11515" lon="2.62742">
        <ele>1268.8</ele>
        <time>2021-08-11T09:10:57Z</time>
      </trkpt>
      <trkpt lat="45.11515" lon="2.62742">
        <ele>1269</ele>
        <time>2021-08-11T09:10:58Z</time>
      </trkpt>
      <trkpt lat="45.11515" lon="2.62743">
        <ele>1269.1</ele>
        <time>2021-08-11T09:10:59Z</time>
      </trkpt>
      <trkpt lat="45.11516" lon="2.62744">
        <ele>1269.3</ele>
        <time>2021-08-11T09:11:00Z</time>
      </trkpt>
      <trkpt lat="45.11516" lon="2.62745">
        <ele>1269.6</ele>
        <time>2021-08-11T09:11:01Z</time>
      </trkpt>
      <trkpt lat="45.11516" lon="2.62746">
        <ele>1269.9</ele>
        <time>2021-08-11T09:11:02Z</time>
      </trkpt>
      <trkpt lat="45.11516" lon="2.62747">
        <ele>1270</ele>
        <time>2021-08-11T09:11:03Z</time>
      </trkpt>
      <trkpt lat="45.11516" lon="2.62748">
        <ele>1270.2</ele>
        <time>2021-08-11T09:11:04Z</time>
      </trkpt>
      <trkpt lat="45.11516" lon="2.62748">
        <ele>1270.3</ele>
        <time>2021-08-11T09:11:05Z</time>
      </trkpt>
      <trkpt lat="45.11516" lon="2.62749">
        <ele>1270.5</ele>
        <time>2021-08-11T09:11:06Z</time>
      </trkpt>
      <trkpt lat="45.11516" lon="2.6275">
        <ele>1270.7</ele>
        <time>2021-08-11T09:11:07Z</time>
      </trkpt>
      <trkpt lat="45.11516" lon="2.62751">
        <ele>1270.9</ele>
        <time>2021-08-11T09:11:08Z</time>
      </trkpt>
      <trkpt lat="45.11516" lon="2.62752">
        <ele>1271</ele>
        <time>2021-08-11T09:11:09Z</time>
      </trkpt>
      <trkpt lat="45.11515" lon="2.62753">
        <ele>1271.2</ele>
        <time>2021-08-11T09:11:10Z</time>
      </trkpt>
      <trkpt lat="45.11515" lon="2.62754">
        <ele>1271.4</ele>
        <time>2021-08-11T09:11:11Z</time>
      </trkpt>
      <trkpt lat="45.11515" lon="2.62754">
        <ele>1271.5</ele>
        <time>2021-08-11T09:11:12Z</time>
      </trkpt>
      <trkpt lat="45.11515" lon="2.62755">
        <ele>1271.6</ele>
        <time>2021-08-11T09:11:13Z</time>
      </trkpt>
      <trkpt lat="45.11514" lon="2.62755">
        <ele>1271.6</ele>
        <time>2021-08-11T09:11:14Z</time>
      </trkpt>
      <trkpt lat="45.11514" lon="2.62756">
        <ele>1271.7</ele>
        <time>2021-08-11T09:11:15Z</time>
      </trkpt>
      <trkpt lat="45.11514" lon="2.62756">
        <ele>1271.8</ele>
        <time>2021-08-11T09:11:16Z</time>
      </trkpt>
      <trkpt lat="45.11513" lon="2.62757">
        <ele>1271.8</ele>
        <time>2021-08-11T09:11:17Z</time>
      </trkpt>
      <trkpt lat="45.11513" lon="2.62758">
        <ele>1271.9</ele>
        <time>2021-08-11T09:11:18Z</time>
      </trkpt>
      <trkpt lat="45.11513" lon="2.62758">
        <ele>1272.1</ele>
        <time>2021-08-11T09:11:19Z</time>
      </trkpt>
      <trkpt lat="45.11513" lon="2.62759">
        <ele>1272.3</ele>
        <time>2021-08-11T09:11:20Z</time>
      </trkpt>
      <trkpt lat="45.11513" lon="2.6276">
        <ele>1272.5</ele>
        <time>2021-08-11T09:11:21Z</time>
      </trkpt>
      <trkpt lat="45.11513" lon="2.62761">
        <ele>1272.6</ele>
        <time>2021-08-11T09:11:22Z</time>
      </trkpt>
      <trkpt lat="45.11514" lon="2.62761">
        <ele>1272.8</ele>
        <time>2021-08-11T09:11:23Z</time>
      </trkpt>
      <trkpt lat="45.11514" lon="2.62762">
        <ele>1272.9</ele>
        <time>2021-08-11T09:11:24Z</time>
      </trkpt>
      <trkpt lat="45.11515" lon="2.62762">
        <ele>1273.1</ele>
        <time>2021-08-11T09:11:25Z</time>
      </trkpt>
      <trkpt lat="45.11515" lon="2.62762">
        <ele>1273.1</ele>
        <time>2021-08-11T09:11:26Z</time>
      </trkpt>
      <trkpt lat="45.11515" lon="2.62763">
        <ele>1273.2</ele>
        <time>2021-08-11T09:11:27Z</time>
      </trkpt>
      <trkpt lat="45.11516" lon="2.62763">
        <ele>1273.2</ele>
        <time>2021-08-11T09:11:28Z</time>
      </trkpt>
      <trkpt lat="45.11516" lon="2.62763">
        <ele>1273.3</ele>
        <time>2021-08-11T09:11:29Z</time>
      </trkpt>
      <trkpt lat="45.11516" lon="2.62763">
        <ele>1273.4</ele>
        <time>2021-08-11T09:11:30Z</time>
      </trkpt>
      <trkpt lat="45.11517" lon="2.62763">
        <ele>1273.5</ele>
        <time>2021-08-11T09:11:31Z</time>
      </trkpt>
      <trkpt lat="45.11518" lon="2.62764">
        <ele>1273.7</ele>
        <time>2021-08-11T09:11:32Z</time>
      </trkpt>
      <trkpt lat="45.11519" lon="2.62764">
        <ele>1273.9</ele>
        <time>2021-08-11T09:11:33Z</time>
      </trkpt>
      <trkpt lat="45.11519" lon="2.62765">
        <ele>1274.1</ele>
        <time>2021-08-11T09:11:34Z</time>
      </trkpt>
      <trkpt lat="45.1152" lon="2.62766">
        <ele>1274.3</ele>
        <time>2021-08-11T09:11:35Z</time>
      </trkpt>
      <trkpt lat="45.11521" lon="2.62766">
        <ele>1274.5</ele>
        <time>2021-08-11T09:11:36Z</time>
      </trkpt>
      <trkpt lat="45.11522" lon="2.62767">
        <ele>1274.6</ele>
        <time>2021-08-11T09:11:37Z</time>
      </trkpt>
      <trkpt lat="45.11522" lon="2.62767">
        <ele>1274.8</ele>
        <time>2021-08-11T09:11:38Z</time>
      </trkpt>
      <trkpt lat="45.11523" lon="2.62767">
        <ele>1274.9</ele>
        <time>2021-08-11T09:11:39Z</time>
      </trkpt>
      <trkpt lat="45.11523" lon="2.62767">
        <ele>1275</ele>
        <time>2021-08-11T09:11:40Z</time>
      </trkpt>
      <trkpt lat="45.11524" lon="2.62768">
        <ele>1275.1</ele>
        <time>2021-08-11T09:11:41Z</time>
      </trkpt>
      <trkpt lat="45.11525" lon="2.62768">
        <ele>1275.2</ele>
        <time>2021-08-11T09:11:42Z</time>
      </trkpt>
      <trkpt lat="45.11525" lon="2.62769">
        <ele>1275.4</ele>
        <time>2021-08-11T09:11:43Z</time>
      </trkpt>
      <trkpt lat="45.11526" lon="2.62769">
        <ele>1275.5</ele>
        <time>2021-08-11T09:11:44Z</time>
      </trkpt>
      <trkpt lat="45.11527" lon="2.62769">
        <ele>1275.7</ele>
        <time>2021-08-11T09:11:45Z</time>
      </trkpt>
      <trkpt lat="45.11528" lon="2.6277">
        <ele>1275.9</ele>
        <time>2021-08-11T09:11:46Z</time>
      </trkpt>
      <trkpt lat="45.11529" lon="2.6277">
        <ele>1276</ele>
        <time>2021-08-11T09:11:47Z</time>
      </trkpt>
      <trkpt lat="45.11529" lon="2.62771">
        <ele>1276.2</ele>
        <time>2021-08-11T09:11:48Z</time>
      </trkpt>
      <trkpt lat="45.1153" lon="2.62771">
        <ele>1276.4</ele>
        <time>2021-08-11T09:11:49Z</time>
      </trkpt>
      <trkpt lat="45.11531" lon="2.62772">
        <ele>1276.6</ele>
        <time>2021-08-11T09:11:50Z</time>
      </trkpt>
      <trkpt lat="45.11532" lon="2.62772">
        <ele>1276.7</ele>
        <time>2021-08-11T09:11:51Z</time>
      </trkpt>
      <trkpt lat="45.11533" lon="2.62772">
        <ele>1276.8</ele>
        <time>2021-08-11T09:11:52Z</time>
      </trkpt>
      <trkpt lat="45.11534" lon="2.62772">
        <ele>1276.9</ele>
        <time>2021-08-11T09:11:53Z</time>
      </trkpt>
      <trkpt lat="45.11534" lon="2.62773">
        <ele>1277</ele>
        <time>2021-08-11T09:11:54Z</time>
      </trkpt>
      <trkpt lat="45.11535" lon="2.62773">
        <ele>1277.2</ele>
        <time>2021-08-11T09:11:55Z</time>
      </trkpt>
      <trkpt lat="45.11536" lon="2.62773">
        <ele>1277.3</ele>
        <time>2021-08-11T09:11:56Z</time>
      </trkpt>
      <trkpt lat="45.11537" lon="2.62773">
        <ele>1277.4</ele>
        <time>2021-08-11T09:11:57Z</time>
      </trkpt>
      <trkpt lat="45.11538" lon="2.62774">
        <ele>1277.5</ele>
        <time>2021-08-11T09:11:58Z</time>
      </trkpt>
      <trkpt lat="45.11538" lon="2.62774">
        <ele>1277.6</ele>
        <time>2021-08-11T09:11:59Z</time>
      </trkpt>
      <trkpt lat="45.11539" lon="2.62774">
        <ele>1277.7</ele>
        <time>2021-08-11T09:12:00Z</time>
      </trkpt>
      <trkpt lat="45.11539" lon="2.62774">
        <ele>1277.7</ele>
        <time>2021-08-11T09:12:01Z</time>
      </trkpt>
      <trkpt lat="45.11539" lon="2.62774">
        <ele>1277.7</ele>
        <time>2021-08-11T09:12:02Z</time>
      </trkpt>
      <trkpt lat="45.1154" lon="2.62774">
        <ele>1277.7</ele>
        <time>2021-08-11T09:12:03Z</time>
      </trkpt>
      <trkpt lat="45.1154" lon="2.62774">
        <ele>1277.7</ele>
        <time>2021-08-11T09:12:04Z</time>
      </trkpt>
      <trkpt lat="45.1154" lon="2.62774">
        <ele>1277.7</ele>
        <time>2021-08-11T09:12:05Z</time>
      </trkpt>
      <trkpt lat="45.1154" lon="2.62774">
        <ele>1277.7</ele>
        <time>2021-08-11T09:12:06Z</time>
      </trkpt>
      <trkpt lat="45.1154" lon="2.62774">
        <ele>1277.8</ele>
        <time>2021-08-11T09:12:07Z</time>
      </trkpt>
      <trkpt lat="45.1154" lon="2.62774">
        <ele>1277.8</ele>
        <time>2021-08-11T09:12:08Z</time>
      </trkpt>
      <trkpt lat="45.1154" lon="2.62774">
        <ele>1277.8</ele>
        <time>2021-08-11T09:12:09Z</time>
      </trkpt>
      <trkpt lat="45.1154" lon="2.62774">
        <ele>1277.8</ele>
        <time>2021-08-11T09:12:10Z</time>
      </trkpt>
      <trkpt lat="45.1154" lon="2.62774">
        <ele>1277.8</ele>
        <time>2021-08-11T09:12:11Z</time>
      </trkpt>
      <trkpt lat="45.1154" lon="2.62774">
        <ele>1277.8</ele>
        <time>2021-08-11T09:12:12Z</time>
      </trkpt>
      <trkpt lat="45.1154" lon="2.62774">
        <ele>1277.8</ele>
        <time>2021-08-11T09:12:13Z</time>
      </trkpt>
      <trkpt lat="45.11541" lon="2.62774">
        <ele>1277.8</ele>
        <time>2021-08-11T09:12:14Z</time>
      </trkpt>
      <trkpt lat="45.11541" lon="2.62774">
        <ele>1277.8</ele>
        <time>2021-08-11T09:12:15Z</time>
      </trkpt>
      <trkpt lat="45.11541" lon="2.62774">
        <ele>1277.8</ele>
        <time>2021-08-11T09:12:16Z</time>
      </trkpt>
      <trkpt lat="45.11541" lon="2.62774">
        <ele>1277.8</ele>
        <time>2021-08-11T09:12:17Z</time>
      </trkpt>
      <trkpt lat="45.11541" lon="2.62774">
        <ele>1277.8</ele>
        <time>2021-08-11T09:12:18Z</time>
      </trkpt>
      <trkpt lat="45.11541" lon="2.62774">
        <ele>1277.8</ele>
        <time>2021-08-11T09:12:19Z</time>
      </trkpt>
      <trkpt lat="45.11541" lon="2.62774">
        <ele>1277.8</ele>
        <time>2021-08-11T09:12:20Z</time>
      </trkpt>
      <trkpt lat="45.11541" lon="2.62774">
        <ele>1277.8</ele>
        <time>2021-08-11T09:12:21Z</time>
      </trkpt>
      <trkpt lat="45.11541" lon="2.62774">
        <ele>1277.8</ele>
        <time>2021-08-11T09:12:22Z</time>
      </trkpt>
      <trkpt lat="45.11541" lon="2.62774">
        <ele>1277.8</ele>
        <time>2021-08-11T09:12:23Z</time>
      </trkpt>
      <trkpt lat="45.11541" lon="2.62774">
        <ele>1277.8</ele>
        <time>2021-08-11T09:12:24Z</time>
      </trkpt>
      <trkpt lat="45.11541" lon="2.62774">
        <ele>1277.8</ele>
        <time>2021-08-11T09:12:25Z</time>
      </trkpt>
      <trkpt lat="45.11541" lon="2.62774">
        <ele>1277.8</ele>
        <time>2021-08-11T09:12:26Z</time>
      </trkpt>
      <trkpt lat="45.11541" lon="2.62774">
        <ele>1277.8</ele>
        <time>2021-08-11T09:12:27Z</time>
      </trkpt>
      <trkpt lat="45.11541" lon="2.62774">
        <ele>1277.8</ele>
        <time>2021-08-11T09:12:28Z</time>
      </trkpt>
      <trkpt lat="45.11541" lon="2.62774">
        <ele>1277.9</ele>
        <time>2021-08-11T09:12:29Z</time>
      </trkpt>
      <trkpt lat="45.11541" lon="2.62774">
        <ele>1277.9</ele>
        <time>2021-08-11T09:12:30Z</time>
      </trkpt>
      <trkpt lat="45.11541" lon="2.62774">
        <ele>1277.9</ele>
        <time>2021-08-11T09:12:31Z</time>
      </trkpt>
      <trkpt lat="45.11541" lon="2.62774">
        <ele>1277.9</ele>
        <time>2021-08-11T09:12:32Z</time>
      </trkpt>
      <trkpt lat="45.11541" lon="2.62774">
        <ele>1277.9</ele>
        <time>2021-08-11T09:12:33Z</time>
      </trkpt>
      <trkpt lat="45.11541" lon="2.62774">
        <ele>1277.9</ele>
        <time>2021-08-11T09:12:34Z</time>
      </trkpt>
      <trkpt lat="45.11541" lon="2.62774">
        <ele>1277.9</ele>
        <time>2021-08-11T09:12:35Z</time>
      </trkpt>
      <trkpt lat="45.11541" lon="2.62774">
        <ele>1277.9</ele>
        <time>2021-08-11T09:12:36Z</time>
      </trkpt>
      <trkpt lat="45.11542" lon="2.62774">
        <ele>1278</ele>
        <time>2021-08-11T09:12:37Z</time>
      </trkpt>
      <trkpt lat="45.11542" lon="2.62774">
        <ele>1278</ele>
        <time>2021-08-11T09:12:38Z</time>
      </trkpt>
      <trkpt lat="45.11542" lon="2.62775">
        <ele>1278.1</ele>
        <time>2021-08-11T09:12:39Z</time>
      </trkpt>
      <trkpt lat="45.11542" lon="2.62775">
        <ele>1278.2</ele>
        <time>2021-08-11T09:12:40Z</time>
      </trkpt>
      <trkpt lat="45.11542" lon="2.62776">
        <ele>1278.3</ele>
        <time>2021-08-11T09:12:41Z</time>
      </trkpt>
      <trkpt lat="45.11543" lon="2.62776">
        <ele>1278.4</ele>
        <time>2021-08-11T09:12:42Z</time>
      </trkpt>
      <trkpt lat="45.11543" lon="2.62776">
        <ele>1278.5</ele>
        <time>2021-08-11T09:12:43Z</time>
      </trkpt>
      <trkpt lat="45.11543" lon="2.62777">
        <ele>1278.5</ele>
        <time>2021-08-11T09:12:44Z</time>
      </trkpt>
      <trkpt lat="45.11543" lon="2.62777">
        <ele>1278.6</ele>
        <time>2021-08-11T09:12:45Z</time>
      </trkpt>
      <trkpt lat="45.11543" lon="2.62777">
        <ele>1278.7</ele>
        <time>2021-08-11T09:12:46Z</time>
      </trkpt>
      <trkpt lat="45.11543" lon="2.62778">
        <ele>1278.8</ele>
        <time>2021-08-11T09:12:47Z</time>
      </trkpt>
      <trkpt lat="45.11544" lon="2.62779">
        <ele>1279</ele>
        <time>2021-08-11T09:12:48Z</time>
      </trkpt>
      <trkpt lat="45.11544" lon="2.62779">
        <ele>1279.1</ele>
        <time>2021-08-11T09:12:49Z</time>
      </trkpt>
      <trkpt lat="45.11544" lon="2.6278">
        <ele>1279.2</ele>
        <time>2021-08-11T09:12:50Z</time>
      </trkpt>
      <trkpt lat="45.11545" lon="2.6278">
        <ele>1279.3</ele>
        <time>2021-08-11T09:12:51Z</time>
      </trkpt>
      <trkpt lat="45.11545" lon="2.6278">
        <ele>1279.3</ele>
        <time>2021-08-11T09:12:52Z</time>
      </trkpt>
      <trkpt lat="45.11545" lon="2.6278">
        <ele>1279.3</ele>
        <time>2021-08-11T09:12:53Z</time>
      </trkpt>
      <trkpt lat="45.11545" lon="2.6278">
        <ele>1279.3</ele>
        <time>2021-08-11T09:12:54Z</time>
      </trkpt>
      <trkpt lat="45.11545" lon="2.6278">
        <ele>1279.3</ele>
        <time>2021-08-11T09:12:55Z</time>
      </trkpt>
      <trkpt lat="45.11545" lon="2.6278">
        <ele>1279.4</ele>
        <time>2021-08-11T09:12:56Z</time>
      </trkpt>
      <trkpt lat="45.11545" lon="2.62781">
        <ele>1279.5</ele>
        <time>2021-08-11T09:12:57Z</time>
      </trkpt>
      <trkpt lat="45.11545" lon="2.62781">
        <ele>1279.6</ele>
        <time>2021-08-11T09:12:58Z</time>
      </trkpt>
      <trkpt lat="45.11545" lon="2.62782">
        <ele>1279.6</ele>
        <time>2021-08-11T09:12:59Z</time>
      </trkpt>
      <trkpt lat="45.11545" lon="2.62782">
        <ele>1279.8</ele>
        <time>2021-08-11T09:13:00Z</time>
      </trkpt>
      <trkpt lat="45.11545" lon="2.62783">
        <ele>1279.9</ele>
        <time>2021-08-11T09:13:01Z</time>
      </trkpt>
      <trkpt lat="45.11545" lon="2.62784">
        <ele>1280.1</ele>
        <time>2021-08-11T09:13:02Z</time>
      </trkpt>
      <trkpt lat="45.11545" lon="2.62785">
        <ele>1280.2</ele>
        <time>2021-08-11T09:13:03Z</time>
      </trkpt>
      <trkpt lat="45.11545" lon="2.62786">
        <ele>1280.4</ele>
        <time>2021-08-11T09:13:04Z</time>
      </trkpt>
      <trkpt lat="45.11545" lon="2.62786">
        <ele>1280.5</ele>
        <time>2021-08-11T09:13:05Z</time>
      </trkpt>
      <trkpt lat="45.11546" lon="2.62787">
        <ele>1280.7</ele>
        <time>2021-08-11T09:13:06Z</time>
      </trkpt>
      <trkpt lat="45.11546" lon="2.62788">
        <ele>1280.9</ele>
        <time>2021-08-11T09:13:07Z</time>
      </trkpt>
      <trkpt lat="45.11547" lon="2.62789">
        <ele>1281.1</ele>
        <time>2021-08-11T09:13:08Z</time>
      </trkpt>
      <trkpt lat="45.11548" lon="2.62789">
        <ele>1281.3</ele>
        <time>2021-08-11T09:13:09Z</time>
      </trkpt>
      <trkpt lat="45.11548" lon="2.6279">
        <ele>1281.5</ele>
        <time>2021-08-11T09:13:10Z</time>
      </trkpt>
      <trkpt lat="45.11549" lon="2.62791">
        <ele>1281.7</ele>
        <time>2021-08-11T09:13:11Z</time>
      </trkpt>
      <trkpt lat="45.11549" lon="2.62792">
        <ele>1281.9</ele>
        <time>2021-08-11T09:13:12Z</time>
      </trkpt>
      <trkpt lat="45.1155" lon="2.62793">
        <ele>1282.1</ele>
        <time>2021-08-11T09:13:13Z</time>
      </trkpt>
      <trkpt lat="45.1155" lon="2.62794">
        <ele>1282.4</ele>
        <time>2021-08-11T09:13:14Z</time>
      </trkpt>
      <trkpt lat="45.11551" lon="2.62795">
        <ele>1282.6</ele>
        <time>2021-08-11T09:13:15Z</time>
      </trkpt>
      <trkpt lat="45.11552" lon="2.62796">
        <ele>1282.8</ele>
        <time>2021-08-11T09:13:16Z</time>
      </trkpt>
      <trkpt lat="45.11552" lon="2.62797">
        <ele>1282.9</ele>
        <time>2021-08-11T09:13:17Z</time>
      </trkpt>
      <trkpt lat="45.11553" lon="2.62798">
        <ele>1283.1</ele>
        <time>2021-08-11T09:13:18Z</time>
      </trkpt>
      <trkpt lat="45.11553" lon="2.62798">
        <ele>1283.3</ele>
        <time>2021-08-11T09:13:19Z</time>
      </trkpt>
      <trkpt lat="45.11554" lon="2.62799">
        <ele>1283.5</ele>
        <time>2021-08-11T09:13:20Z</time>
      </trkpt>
      <trkpt lat="45.11554" lon="2.628">
        <ele>1283.7</ele>
        <time>2021-08-11T09:13:21Z</time>
      </trkpt>
      <trkpt lat="45.11554" lon="2.62801">
        <ele>1283.8</ele>
        <time>2021-08-11T09:13:22Z</time>
      </trkpt>
      <trkpt lat="45.11554" lon="2.62802">
        <ele>1284</ele>
        <time>2021-08-11T09:13:23Z</time>
      </trkpt>
      <trkpt lat="45.11555" lon="2.62802">
        <ele>1284.1</ele>
        <time>2021-08-11T09:13:24Z</time>
      </trkpt>
      <trkpt lat="45.11555" lon="2.62803">
        <ele>1284.3</ele>
        <time>2021-08-11T09:13:25Z</time>
      </trkpt>
      <trkpt lat="45.11556" lon="2.62804">
        <ele>1284.5</ele>
        <time>2021-08-11T09:13:26Z</time>
      </trkpt>
      <trkpt lat="45.11556" lon="2.62805">
        <ele>1284.6</ele>
        <time>2021-08-11T09:13:27Z</time>
      </trkpt>
      <trkpt lat="45.11557" lon="2.62805">
        <ele>1284.8</ele>
        <time>2021-08-11T09:13:28Z</time>
      </trkpt>
      <trkpt lat="45.11557" lon="2.62806">
        <ele>1285</ele>
        <time>2021-08-11T09:13:29Z</time>
      </trkpt>
      <trkpt lat="45.11558" lon="2.62807">
        <ele>1285.2</ele>
        <time>2021-08-11T09:13:30Z</time>
      </trkpt>
      <trkpt lat="45.11558" lon="2.62808">
        <ele>1285.3</ele>
        <time>2021-08-11T09:13:31Z</time>
      </trkpt>
      <trkpt lat="45.11558" lon="2.62809">
        <ele>1285.5</ele>
        <time>2021-08-11T09:13:32Z</time>
      </trkpt>
      <trkpt lat="45.11559" lon="2.6281">
        <ele>1285.7</ele>
        <time>2021-08-11T09:13:33Z</time>
      </trkpt>
      <trkpt lat="45.1156" lon="2.6281">
        <ele>1285.8</ele>
        <time>2021-08-11T09:13:34Z</time>
      </trkpt>
      <trkpt lat="45.1156" lon="2.62811">
        <ele>1286</ele>
        <time>2021-08-11T09:13:35Z</time>
      </trkpt>
      <trkpt lat="45.11561" lon="2.62812">
        <ele>1286.2</ele>
        <time>2021-08-11T09:13:36Z</time>
      </trkpt>
      <trkpt lat="45.11562" lon="2.62812">
        <ele>1286.3</ele>
        <time>2021-08-11T09:13:37Z</time>
      </trkpt>
      <trkpt lat="45.11562" lon="2.62813">
        <ele>1286.5</ele>
        <time>2021-08-11T09:13:38Z</time>
      </trkpt>
      <trkpt lat="45.11562" lon="2.62814">
        <ele>1286.6</ele>
        <time>2021-08-11T09:13:39Z</time>
      </trkpt>
      <trkpt lat="45.11562" lon="2.62815">
        <ele>1286.8</ele>
        <time>2021-08-11T09:13:40Z</time>
      </trkpt>
      <trkpt lat="45.11563" lon="2.62816">
        <ele>1287</ele>
        <time>2021-08-11T09:13:41Z</time>
      </trkpt>
      <trkpt lat="45.11563" lon="2.62816">
        <ele>1287.1</ele>
        <time>2021-08-11T09:13:42Z</time>
      </trkpt>
      <trkpt lat="45.11564" lon="2.62817">
        <ele>1287.3</ele>
        <time>2021-08-11T09:13:43Z</time>
      </trkpt>
      <trkpt lat="45.11564" lon="2.62818">
        <ele>1287.5</ele>
        <time>2021-08-11T09:13:44Z</time>
      </trkpt>
      <trkpt lat="45.11565" lon="2.62819">
        <ele>1287.6</ele>
        <time>2021-08-11T09:13:45Z</time>
      </trkpt>
      <trkpt lat="45.11565" lon="2.6282">
        <ele>1287.8</ele>
        <time>2021-08-11T09:13:46Z</time>
      </trkpt>
      <trkpt lat="45.11566" lon="2.6282">
        <ele>1288</ele>
        <time>2021-08-11T09:13:47Z</time>
      </trkpt>
      <trkpt lat="45.11566" lon="2.62821">
        <ele>1288.1</ele>
        <time>2021-08-11T09:13:48Z</time>
      </trkpt>
      <trkpt lat="45.11567" lon="2.62821">
        <ele>1288.1</ele>
        <time>2021-08-11T09:13:49Z</time>
      </trkpt>
      <trkpt lat="45.11567" lon="2.62821">
        <ele>1288.2</ele>
        <time>2021-08-11T09:13:50Z</time>
      </trkpt>
      <trkpt lat="45.11567" lon="2.62821">
        <ele>1288.2</ele>
        <time>2021-08-11T09:13:51Z</time>
      </trkpt>
      <trkpt lat="45.11568" lon="2.62821">
        <ele>1288.2</ele>
        <time>2021-08-11T09:13:52Z</time>
      </trkpt>
      <trkpt lat="45.11568" lon="2.62821">
        <ele>1288.1</ele>
        <time>2021-08-11T09:13:53Z</time>
      </trkpt>
      <trkpt lat="45.11568" lon="2.62821">
        <ele>1288.1</ele>
        <time>2021-08-11T09:13:54Z</time>
      </trkpt>
      <trkpt lat="45.11568" lon="2.6282">
        <ele>1288.1</ele>
        <time>2021-08-11T09:13:55Z</time>
      </trkpt>
      <trkpt lat="45.11568" lon="2.6282">
        <ele>1288</ele>
        <time>2021-08-11T09:13:56Z</time>
      </trkpt>
      <trkpt lat="45.11568" lon="2.6282">
        <ele>1288</ele>
        <time>2021-08-11T09:13:57Z</time>
      </trkpt>
      <trkpt lat="45.11569" lon="2.62819">
        <ele>1288</ele>
        <time>2021-08-11T09:13:58Z</time>
      </trkpt>
      <trkpt lat="45.11569" lon="2.62819">
        <ele>1287.9</ele>
        <time>2021-08-11T09:13:59Z</time>
      </trkpt>
      <trkpt lat="45.1157" lon="2.62819">
        <ele>1287.9</ele>
        <time>2021-08-11T09:14:00Z</time>
      </trkpt>
      <trkpt lat="45.1157" lon="2.62818">
        <ele>1287.9</ele>
        <time>2021-08-11T09:14:01Z</time>
      </trkpt>
      <trkpt lat="45.1157" lon="2.62818">
        <ele>1287.8</ele>
        <time>2021-08-11T09:14:02Z</time>
      </trkpt>
      <trkpt lat="45.1157" lon="2.62817">
        <ele>1287.7</ele>
        <time>2021-08-11T09:14:03Z</time>
      </trkpt>
      <trkpt lat="45.11571" lon="2.62817">
        <ele>1287.7</ele>
        <time>2021-08-11T09:14:04Z</time>
      </trkpt>
      <trkpt lat="45.11571" lon="2.62816">
        <ele>1287.6</ele>
        <time>2021-08-11T09:14:05Z</time>
      </trkpt>
      <trkpt lat="45.11572" lon="2.62816">
        <ele>1287.5</ele>
        <time>2021-08-11T09:14:06Z</time>
      </trkpt>
      <trkpt lat="45.11572" lon="2.62815">
        <ele>1287.5</ele>
        <time>2021-08-11T09:14:07Z</time>
      </trkpt>
      <trkpt lat="45.11572" lon="2.62815">
        <ele>1287.4</ele>
        <time>2021-08-11T09:14:08Z</time>
      </trkpt>
      <trkpt lat="45.11572" lon="2.62814">
        <ele>1287.3</ele>
        <time>2021-08-11T09:14:09Z</time>
      </trkpt>
      <trkpt lat="45.11573" lon="2.62813">
        <ele>1287.2</ele>
        <time>2021-08-11T09:14:10Z</time>
      </trkpt>
      <trkpt lat="45.11573" lon="2.62813">
        <ele>1287.1</ele>
        <time>2021-08-11T09:14:11Z</time>
      </trkpt>
      <trkpt lat="45.11573" lon="2.62813">
        <ele>1287.1</ele>
        <time>2021-08-11T09:14:12Z</time>
      </trkpt>
      <trkpt lat="45.11573" lon="2.62812">
        <ele>1287.1</ele>
        <time>2021-08-11T09:14:13Z</time>
      </trkpt>
      <trkpt lat="45.11573" lon="2.62812">
        <ele>1287</ele>
        <time>2021-08-11T09:14:14Z</time>
      </trkpt>
      <trkpt lat="45.11573" lon="2.62812">
        <ele>1287</ele>
        <time>2021-08-11T09:14:15Z</time>
      </trkpt>
      <trkpt lat="45.11572" lon="2.62812">
        <ele>1286.9</ele>
        <time>2021-08-11T09:14:16Z</time>
      </trkpt>
      <trkpt lat="45.11572" lon="2.62811">
        <ele>1286.9</ele>
        <time>2021-08-11T09:14:17Z</time>
      </trkpt>
      <trkpt lat="45.11572" lon="2.62811">
        <ele>1286.9</ele>
        <time>2021-08-11T09:14:18Z</time>
      </trkpt>
      <trkpt lat="45.11572" lon="2.62811">
        <ele>1286.8</ele>
        <time>2021-08-11T09:14:19Z</time>
      </trkpt>
      <trkpt lat="45.11572" lon="2.62811">
        <ele>1286.8</ele>
        <time>2021-08-11T09:14:20Z</time>
      </trkpt>
      <trkpt lat="45.11572" lon="2.62811">
        <ele>1286.7</ele>
        <time>2021-08-11T09:14:21Z</time>
      </trkpt>
      <trkpt lat="45.11572" lon="2.62811">
        <ele>1286.7</ele>
        <time>2021-08-11T09:14:22Z</time>
      </trkpt>
      <trkpt lat="45.11571" lon="2.6281">
        <ele>1286.6</ele>
        <time>2021-08-11T09:14:23Z</time>
      </trkpt>
      <trkpt lat="45.11571" lon="2.6281">
        <ele>1286.6</ele>
        <time>2021-08-11T09:14:24Z</time>
      </trkpt>
      <trkpt lat="45.11571" lon="2.6281">
        <ele>1286.6</ele>
        <time>2021-08-11T09:14:25Z</time>
      </trkpt>
      <trkpt lat="45.11571" lon="2.6281">
        <ele>1286.5</ele>
        <time>2021-08-11T09:14:26Z</time>
      </trkpt>
      <trkpt lat="45.11571" lon="2.6281">
        <ele>1286.5</ele>
        <time>2021-08-11T09:14:27Z</time>
      </trkpt>
      <trkpt lat="45.11571" lon="2.6281">
        <ele>1286.5</ele>
        <time>2021-08-11T09:14:28Z</time>
      </trkpt>
      <trkpt lat="45.11571" lon="2.6281">
        <ele>1286.5</ele>
        <time>2021-08-11T09:14:29Z</time>
      </trkpt>
      <trkpt lat="45.11571" lon="2.6281">
        <ele>1286.5</ele>
        <time>2021-08-11T09:14:30Z</time>
      </trkpt>
      <trkpt lat="45.11571" lon="2.6281">
        <ele>1286.5</ele>
        <time>2021-08-11T09:14:31Z</time>
      </trkpt>
      <trkpt lat="45.11571" lon="2.62809">
        <ele>1286.4</ele>
        <time>2021-08-11T09:14:32Z</time>
      </trkpt>
      <trkpt lat="45.11571" lon="2.62809">
        <ele>1286.4</ele>
        <time>2021-08-11T09:14:33Z</time>
      </trkpt>
      <trkpt lat="45.11571" lon="2.62809">
        <ele>1286.4</ele>
        <time>2021-08-11T09:14:34Z</time>
      </trkpt>
      <trkpt lat="45.11571" lon="2.62809">
        <ele>1286.4</ele>
        <time>2021-08-11T09:14:35Z</time>
      </trkpt>
      <trkpt lat="45.11571" lon="2.62809">
        <ele>1286.4</ele>
        <time>2021-08-11T09:14:36Z</time>
      </trkpt>
      <trkpt lat="45.1157" lon="2.62809">
        <ele>1286.3</ele>
        <time>2021-08-11T09:14:37Z</time>
      </trkpt>
      <trkpt lat="45.1157" lon="2.62809">
        <ele>1286.3</ele>
        <time>2021-08-11T09:14:38Z</time>
      </trkpt>
      <trkpt lat="45.1157" lon="2.62809">
        <ele>1286.3</ele>
        <time>2021-08-11T09:14:39Z</time>
      </trkpt>
      <trkpt lat="45.1157" lon="2.62809">
        <ele>1286.3</ele>
        <time>2021-08-11T09:14:40Z</time>
      </trkpt>
      <trkpt lat="45.1157" lon="2.62809">
        <ele>1286.3</ele>
        <time>2021-08-11T09:14:41Z</time>
      </trkpt>
      <trkpt lat="45.1157" lon="2.62808">
        <ele>1286.2</ele>
        <time>2021-08-11T09:14:42Z</time>
      </trkpt>
      <trkpt lat="45.1157" lon="2.62808">
        <ele>1286.2</ele>
        <time>2021-08-11T09:14:43Z</time>
      </trkpt>
      <trkpt lat="45.1157" lon="2.62808">
        <ele>1286.2</ele>
        <time>2021-08-11T09:14:44Z</time>
      </trkpt>
      <trkpt lat="45.1157" lon="2.62808">
        <ele>1286.2</ele>
        <time>2021-08-11T09:14:45Z</time>
      </trkpt>
      <trkpt lat="45.1157" lon="2.62808">
        <ele>1286.2</ele>
        <time>2021-08-11T09:14:46Z</time>
      </trkpt>
      <trkpt lat="45.1157" lon="2.62808">
        <ele>1286.2</ele>
        <time>2021-08-11T09:14:47Z</time>
      </trkpt>
      <trkpt lat="45.1157" lon="2.62808">
        <ele>1286.2</ele>
        <time>2021-08-11T09:14:48Z</time>
      </trkpt>
      <trkpt lat="45.1157" lon="2.62808">
        <ele>1286.2</ele>
        <time>2021-08-11T09:14:49Z</time>
      </trkpt>
      <trkpt lat="45.1157" lon="2.62808">
        <ele>1286.2</ele>
        <time>2021-08-11T09:14:50Z</time>
      </trkpt>
      <trkpt lat="45.1157" lon="2.62808">
        <ele>1286.2</ele>
        <time>2021-08-11T09:14:51Z</time>
      </trkpt>
      <trkpt lat="45.1157" lon="2.62808">
        <ele>1286.2</ele>
        <time>2021-08-11T09:14:52Z</time>
      </trkpt>
      <trkpt lat="45.1157" lon="2.62808">
        <ele>1286.1</ele>
        <time>2021-08-11T09:14:53Z</time>
      </trkpt>
      <trkpt lat="45.1157" lon="2.62808">
        <ele>1286.1</ele>
        <time>2021-08-11T09:14:54Z</time>
      </trkpt>
      <trkpt lat="45.1157" lon="2.62808">
        <ele>1286.1</ele>
        <time>2021-08-11T09:14:55Z</time>
      </trkpt>
      <trkpt lat="45.1157" lon="2.62808">
        <ele>1286.1</ele>
        <time>2021-08-11T09:14:56Z</time>
      </trkpt>
      <trkpt lat="45.1157" lon="2.62808">
        <ele>1286.1</ele>
        <time>2021-08-11T09:14:57Z</time>
      </trkpt>
      <trkpt lat="45.1157" lon="2.62808">
        <ele>1286.1</ele>
        <time>2021-08-11T09:14:58Z</time>
      </trkpt>
      <trkpt lat="45.1157" lon="2.62808">
        <ele>1286.1</ele>
        <time>2021-08-11T09:14:59Z</time>
      </trkpt>
      <trkpt lat="45.1157" lon="2.62808">
        <ele>1286.1</ele>
        <time>2021-08-11T09:15:00Z</time>
      </trkpt>
      <trkpt lat="45.1157" lon="2.62808">
        <ele>1286.1</ele>
        <time>2021-08-11T09:15:01Z</time>
      </trkpt>
      <trkpt lat="45.1157" lon="2.62808">
        <ele>1286</ele>
        <time>2021-08-11T09:15:02Z</time>
      </trkpt>
      <trkpt lat="45.1157" lon="2.62808">
        <ele>1286</ele>
        <time>2021-08-11T09:15:03Z</time>
      </trkpt>
      <trkpt lat="45.1157" lon="2.62808">
        <ele>1286</ele>
        <time>2021-08-11T09:15:04Z</time>
      </trkpt>
      <trkpt lat="45.1157" lon="2.62807">
        <ele>1286</ele>
        <time>2021-08-11T09:15:05Z</time>
      </trkpt>
      <trkpt lat="45.1157" lon="2.62807">
        <ele>1286</ele>
        <time>2021-08-11T09:15:06Z</time>
      </trkpt>
      <trkpt lat="45.1157" lon="2.62807">
        <ele>1286</ele>
        <time>2021-08-11T09:15:07Z</time>
      </trkpt>
      <trkpt lat="45.1157" lon="2.62807">
        <ele>1286</ele>
        <time>2021-08-11T09:15:08Z</time>
      </trkpt>
      <trkpt lat="45.1157" lon="2.62807">
        <ele>1286</ele>
        <time>2021-08-11T09:15:09Z</time>
      </trkpt>
      <trkpt lat="45.1157" lon="2.62808">
        <ele>1286.1</ele>
        <time>2021-08-11T09:15:10Z</time>
      </trkpt>
      <trkpt lat="45.1157" lon="2.62807">
        <ele>1286</ele>
        <time>2021-08-11T09:15:11Z</time>
      </trkpt>
      <trkpt lat="45.1157" lon="2.62808">
        <ele>1286</ele>
        <time>2021-08-11T09:15:12Z</time>
      </trkpt>
      <trkpt lat="45.11569" lon="2.62808">
        <ele>1286.1</ele>
        <time>2021-08-11T09:15:13Z</time>
      </trkpt>
      <trkpt lat="45.11569" lon="2.62808">
        <ele>1286.1</ele>
        <time>2021-08-11T09:15:14Z</time>
      </trkpt>
      <trkpt lat="45.11568" lon="2.62808">
        <ele>1286.1</ele>
        <time>2021-08-11T09:15:15Z</time>
      </trkpt>
      <trkpt lat="45.11568" lon="2.62809">
        <ele>1286.2</ele>
        <time>2021-08-11T09:15:16Z</time>
      </trkpt>
      <trkpt lat="45.11567" lon="2.6281">
        <ele>1286.2</ele>
        <time>2021-08-11T09:15:17Z</time>
      </trkpt>
      <trkpt lat="45.11567" lon="2.6281">
        <ele>1286.3</ele>
        <time>2021-08-11T09:15:18Z</time>
      </trkpt>
      <trkpt lat="45.11566" lon="2.62811">
        <ele>1286.3</ele>
        <time>2021-08-11T09:15:19Z</time>
      </trkpt>
      <trkpt lat="45.11565" lon="2.62811">
        <ele>1286.4</ele>
        <time>2021-08-11T09:15:20Z</time>
      </trkpt>
      <trkpt lat="45.11565" lon="2.62812">
        <ele>1286.5</ele>
        <time>2021-08-11T09:15:21Z</time>
      </trkpt>
      <trkpt lat="45.11565" lon="2.62813">
        <ele>1286.6</ele>
        <time>2021-08-11T09:15:22Z</time>
      </trkpt>
      <trkpt lat="45.11565" lon="2.62814">
        <ele>1286.7</ele>
        <time>2021-08-11T09:15:23Z</time>
      </trkpt>
      <trkpt lat="45.11565" lon="2.62814">
        <ele>1286.8</ele>
        <time>2021-08-11T09:15:24Z</time>
      </trkpt>
      <trkpt lat="45.11564" lon="2.62815">
        <ele>1286.9</ele>
        <time>2021-08-11T09:15:25Z</time>
      </trkpt>
      <trkpt lat="45.11565" lon="2.62816">
        <ele>1287.2</ele>
        <time>2021-08-11T09:15:26Z</time>
      </trkpt>
      <trkpt lat="45.11564" lon="2.62818">
        <ele>1287.4</ele>
        <time>2021-08-11T09:15:27Z</time>
      </trkpt>
      <trkpt lat="45.11564" lon="2.62819">
        <ele>1287.6</ele>
        <time>2021-08-11T09:15:28Z</time>
      </trkpt>
      <trkpt lat="45.11564" lon="2.6282">
        <ele>1287.8</ele>
        <time>2021-08-11T09:15:29Z</time>
      </trkpt>
      <trkpt lat="45.11564" lon="2.62821">
        <ele>1288</ele>
        <time>2021-08-11T09:15:30Z</time>
      </trkpt>
      <trkpt lat="45.11564" lon="2.62822">
        <ele>1288.2</ele>
        <time>2021-08-11T09:15:31Z</time>
      </trkpt>
      <trkpt lat="45.11564" lon="2.62823">
        <ele>1288.3</ele>
        <time>2021-08-11T09:15:32Z</time>
      </trkpt>
      <trkpt lat="45.11563" lon="2.62824">
        <ele>1288.4</ele>
        <time>2021-08-11T09:15:33Z</time>
      </trkpt>
      <trkpt lat="45.11563" lon="2.62825">
        <ele>1288.6</ele>
        <time>2021-08-11T09:15:34Z</time>
      </trkpt>
      <trkpt lat="45.11562" lon="2.62826">
        <ele>1288.7</ele>
        <time>2021-08-11T09:15:35Z</time>
      </trkpt>
      <trkpt lat="45.11562" lon="2.62827">
        <ele>1288.8</ele>
        <time>2021-08-11T09:15:36Z</time>
      </trkpt>
      <trkpt lat="45.11561" lon="2.62827">
        <ele>1288.9</ele>
        <time>2021-08-11T09:15:37Z</time>
      </trkpt>
      <trkpt lat="45.11561" lon="2.62828">
        <ele>1289</ele>
        <time>2021-08-11T09:15:38Z</time>
      </trkpt>
      <trkpt lat="45.1156" lon="2.62829">
        <ele>1289.1</ele>
        <time>2021-08-11T09:15:39Z</time>
      </trkpt>
      <trkpt lat="45.1156" lon="2.6283">
        <ele>1289.3</ele>
        <time>2021-08-11T09:15:40Z</time>
      </trkpt>
      <trkpt lat="45.11559" lon="2.6283">
        <ele>1289.3</ele>
        <time>2021-08-11T09:15:41Z</time>
      </trkpt>
      <trkpt lat="45.11558" lon="2.62831">
        <ele>1289.3</ele>
        <time>2021-08-11T09:15:42Z</time>
      </trkpt>
      <trkpt lat="45.11558" lon="2.62831">
        <ele>1289.3</ele>
        <time>2021-08-11T09:15:43Z</time>
      </trkpt>
      <trkpt lat="45.11557" lon="2.62831">
        <ele>1289.3</ele>
        <time>2021-08-11T09:15:44Z</time>
      </trkpt>
      <trkpt lat="45.11557" lon="2.62831">
        <ele>1289.4</ele>
        <time>2021-08-11T09:15:45Z</time>
      </trkpt>
      <trkpt lat="45.11556" lon="2.62832">
        <ele>1289.4</ele>
        <time>2021-08-11T09:15:46Z</time>
      </trkpt>
      <trkpt lat="45.11555" lon="2.62832">
        <ele>1289.3</ele>
        <time>2021-08-11T09:15:47Z</time>
      </trkpt>
      <trkpt lat="45.11555" lon="2.62832">
        <ele>1289.3</ele>
        <time>2021-08-11T09:15:48Z</time>
      </trkpt>
      <trkpt lat="45.11555" lon="2.62832">
        <ele>1289.4</ele>
        <time>2021-08-11T09:15:49Z</time>
      </trkpt>
      <trkpt lat="45.11554" lon="2.62833">
        <ele>1289.5</ele>
        <time>2021-08-11T09:15:50Z</time>
      </trkpt>
      <trkpt lat="45.11554" lon="2.62833">
        <ele>1289.6</ele>
        <time>2021-08-11T09:15:51Z</time>
      </trkpt>
      <trkpt lat="45.11554" lon="2.62834">
        <ele>1289.6</ele>
        <time>2021-08-11T09:15:52Z</time>
      </trkpt>
      <trkpt lat="45.11553" lon="2.62835">
        <ele>1289.7</ele>
        <time>2021-08-11T09:15:53Z</time>
      </trkpt>
      <trkpt lat="45.11553" lon="2.62836">
        <ele>1289.7</ele>
        <time>2021-08-11T09:15:54Z</time>
      </trkpt>
      <trkpt lat="45.11552" lon="2.62837">
        <ele>1289.8</ele>
        <time>2021-08-11T09:15:55Z</time>
      </trkpt>
      <trkpt lat="45.11552" lon="2.62838">
        <ele>1289.9</ele>
        <time>2021-08-11T09:15:56Z</time>
      </trkpt>
      <trkpt lat="45.11551" lon="2.62838">
        <ele>1289.9</ele>
        <time>2021-08-11T09:15:57Z</time>
      </trkpt>
      <trkpt lat="45.11551" lon="2.62839">
        <ele>1290</ele>
        <time>2021-08-11T09:15:58Z</time>
      </trkpt>
      <trkpt lat="45.1155" lon="2.62839">
        <ele>1290</ele>
        <time>2021-08-11T09:15:59Z</time>
      </trkpt>
      <trkpt lat="45.1155" lon="2.6284">
        <ele>1290</ele>
        <time>2021-08-11T09:16:00Z</time>
      </trkpt>
      <trkpt lat="45.11549" lon="2.6284">
        <ele>1290</ele>
        <time>2021-08-11T09:16:01Z</time>
      </trkpt>
      <trkpt lat="45.11549" lon="2.62841">
        <ele>1290</ele>
        <time>2021-08-11T09:16:02Z</time>
      </trkpt>
      <trkpt lat="45.11548" lon="2.62841">
        <ele>1290.1</ele>
        <time>2021-08-11T09:16:03Z</time>
      </trkpt>
      <trkpt lat="45.11548" lon="2.62842">
        <ele>1290.1</ele>
        <time>2021-08-11T09:16:04Z</time>
      </trkpt>
      <trkpt lat="45.11547" lon="2.62843">
        <ele>1290.2</ele>
        <time>2021-08-11T09:16:05Z</time>
      </trkpt>
      <trkpt lat="45.11546" lon="2.62844">
        <ele>1290.2</ele>
        <time>2021-08-11T09:16:06Z</time>
      </trkpt>
      <trkpt lat="45.11546" lon="2.62844">
        <ele>1290.3</ele>
        <time>2021-08-11T09:16:07Z</time>
      </trkpt>
      <trkpt lat="45.11545" lon="2.62845">
        <ele>1290.3</ele>
        <time>2021-08-11T09:16:08Z</time>
      </trkpt>
      <trkpt lat="45.11544" lon="2.62845">
        <ele>1290.3</ele>
        <time>2021-08-11T09:16:09Z</time>
      </trkpt>
      <trkpt lat="45.11544" lon="2.62846">
        <ele>1290.3</ele>
        <time>2021-08-11T09:16:10Z</time>
      </trkpt>
      <trkpt lat="45.11544" lon="2.62846">
        <ele>1290.3</ele>
        <time>2021-08-11T09:16:11Z</time>
      </trkpt>
      <trkpt lat="45.11544" lon="2.62846">
        <ele>1290.4</ele>
        <time>2021-08-11T09:16:12Z</time>
      </trkpt>
      <trkpt lat="45.11544" lon="2.62847">
        <ele>1290.4</ele>
        <time>2021-08-11T09:16:13Z</time>
      </trkpt>
      <trkpt lat="45.11544" lon="2.62847">
        <ele>1290.5</ele>
        <time>2021-08-11T09:16:14Z</time>
      </trkpt>
      <trkpt lat="45.11544" lon="2.62847">
        <ele>1290.5</ele>
        <time>2021-08-11T09:16:15Z</time>
      </trkpt>
      <trkpt lat="45.11544" lon="2.62848">
        <ele>1290.5</ele>
        <time>2021-08-11T09:16:16Z</time>
      </trkpt>
      <trkpt lat="45.11544" lon="2.62848">
        <ele>1290.6</ele>
        <time>2021-08-11T09:16:17Z</time>
      </trkpt>
      <trkpt lat="45.11544" lon="2.62848">
        <ele>1290.6</ele>
        <time>2021-08-11T09:16:18Z</time>
      </trkpt>
      <trkpt lat="45.11544" lon="2.62848">
        <ele>1290.6</ele>
        <time>2021-08-11T09:16:19Z</time>
      </trkpt>
      <trkpt lat="45.11544" lon="2.62849">
        <ele>1290.6</ele>
        <time>2021-08-11T09:16:20Z</time>
      </trkpt>
      <trkpt lat="45.11544" lon="2.62849">
        <ele>1290.6</ele>
        <time>2021-08-11T09:16:21Z</time>
      </trkpt>
      <trkpt lat="45.11544" lon="2.6285">
        <ele>1290.7</ele>
        <time>2021-08-11T09:16:22Z</time>
      </trkpt>
      <trkpt lat="45.11544" lon="2.62851">
        <ele>1290.8</ele>
        <time>2021-08-11T09:16:23Z</time>
      </trkpt>
      <trkpt lat="45.11543" lon="2.62852">
        <ele>1291</ele>
        <time>2021-08-11T09:16:24Z</time>
      </trkpt>
      <trkpt lat="45.11543" lon="2.62854">
        <ele>1291.1</ele>
        <time>2021-08-11T09:16:25Z</time>
      </trkpt>
      <trkpt lat="45.11543" lon="2.62855">
        <ele>1291.2</ele>
        <time>2021-08-11T09:16:26Z</time>
      </trkpt>
      <trkpt lat="45.11542" lon="2.62856">
        <ele>1291.3</ele>
        <time>2021-08-11T09:16:27Z</time>
      </trkpt>
      <trkpt lat="45.11542" lon="2.62857">
        <ele>1291.4</ele>
        <time>2021-08-11T09:16:28Z</time>
      </trkpt>
      <trkpt lat="45.11542" lon="2.62858">
        <ele>1291.5</ele>
        <time>2021-08-11T09:16:29Z</time>
      </trkpt>
      <trkpt lat="45.11541" lon="2.62859">
        <ele>1291.6</ele>
        <time>2021-08-11T09:16:30Z</time>
      </trkpt>
      <trkpt lat="45.11541" lon="2.6286">
        <ele>1291.7</ele>
        <time>2021-08-11T09:16:31Z</time>
      </trkpt>
      <trkpt lat="45.11541" lon="2.62861">
        <ele>1291.8</ele>
        <time>2021-08-11T09:16:32Z</time>
      </trkpt>
      <trkpt lat="45.11541" lon="2.62862">
        <ele>1291.9</ele>
        <time>2021-08-11T09:16:33Z</time>
      </trkpt>
      <trkpt lat="45.11541" lon="2.62863">
        <ele>1292</ele>
        <time>2021-08-11T09:16:34Z</time>
      </trkpt>
      <trkpt lat="45.11542" lon="2.62864">
        <ele>1292.2</ele>
        <time>2021-08-11T09:16:35Z</time>
      </trkpt>
      <trkpt lat="45.11542" lon="2.62866">
        <ele>1292.3</ele>
        <time>2021-08-11T09:16:36Z</time>
      </trkpt>
      <trkpt lat="45.11542" lon="2.62867">
        <ele>1292.4</ele>
        <time>2021-08-11T09:16:37Z</time>
      </trkpt>
      <trkpt lat="45.11542" lon="2.62868">
        <ele>1292.5</ele>
        <time>2021-08-11T09:16:38Z</time>
      </trkpt>
      <trkpt lat="45.11542" lon="2.62869">
        <ele>1292.7</ele>
        <time>2021-08-11T09:16:39Z</time>
      </trkpt>
      <trkpt lat="45.11543" lon="2.62871">
        <ele>1292.8</ele>
        <time>2021-08-11T09:16:40Z</time>
      </trkpt>
      <trkpt lat="45.11543" lon="2.62872">
        <ele>1293</ele>
        <time>2021-08-11T09:16:41Z</time>
      </trkpt>
      <trkpt lat="45.11543" lon="2.62873">
        <ele>1293.1</ele>
        <time>2021-08-11T09:16:42Z</time>
      </trkpt>
      <trkpt lat="45.11543" lon="2.62875">
        <ele>1293.2</ele>
        <time>2021-08-11T09:16:43Z</time>
      </trkpt>
      <trkpt lat="45.11543" lon="2.62876">
        <ele>1293.4</ele>
        <time>2021-08-11T09:16:44Z</time>
      </trkpt>
      <trkpt lat="45.11543" lon="2.62877">
        <ele>1293.5</ele>
        <time>2021-08-11T09:16:45Z</time>
      </trkpt>
      <trkpt lat="45.11543" lon="2.62878">
        <ele>1293.6</ele>
        <time>2021-08-11T09:16:46Z</time>
      </trkpt>
      <trkpt lat="45.11543" lon="2.62879">
        <ele>1293.7</ele>
        <time>2021-08-11T09:16:47Z</time>
      </trkpt>
      <trkpt lat="45.11543" lon="2.62881">
        <ele>1293.8</ele>
        <time>2021-08-11T09:16:48Z</time>
      </trkpt>
      <trkpt lat="45.11543" lon="2.62882">
        <ele>1293.9</ele>
        <time>2021-08-11T09:16:49Z</time>
      </trkpt>
      <trkpt lat="45.11544" lon="2.62883">
        <ele>1294.1</ele>
        <time>2021-08-11T09:16:50Z</time>
      </trkpt>
      <trkpt lat="45.11544" lon="2.62884">
        <ele>1294.2</ele>
        <time>2021-08-11T09:16:51Z</time>
      </trkpt>
      <trkpt lat="45.11544" lon="2.62885">
        <ele>1294.3</ele>
        <time>2021-08-11T09:16:52Z</time>
      </trkpt>
      <trkpt lat="45.11544" lon="2.62887">
        <ele>1294.5</ele>
        <time>2021-08-11T09:16:53Z</time>
      </trkpt>
      <trkpt lat="45.11545" lon="2.62888">
        <ele>1294.6</ele>
        <time>2021-08-11T09:16:54Z</time>
      </trkpt>
      <trkpt lat="45.11545" lon="2.62889">
        <ele>1294.7</ele>
        <time>2021-08-11T09:16:55Z</time>
      </trkpt>
      <trkpt lat="45.11545" lon="2.6289">
        <ele>1294.8</ele>
        <time>2021-08-11T09:16:56Z</time>
      </trkpt>
      <trkpt lat="45.11545" lon="2.62892">
        <ele>1295</ele>
        <time>2021-08-11T09:16:57Z</time>
      </trkpt>
      <trkpt lat="45.11546" lon="2.62893">
        <ele>1295.1</ele>
        <time>2021-08-11T09:16:58Z</time>
      </trkpt>
      <trkpt lat="45.11546" lon="2.62895">
        <ele>1295.3</ele>
        <time>2021-08-11T09:16:59Z</time>
      </trkpt>
      <trkpt lat="45.11546" lon="2.62896">
        <ele>1295.4</ele>
        <time>2021-08-11T09:17:00Z</time>
      </trkpt>
      <trkpt lat="45.11546" lon="2.62897">
        <ele>1295.5</ele>
        <time>2021-08-11T09:17:01Z</time>
      </trkpt>
      <trkpt lat="45.11546" lon="2.62899">
        <ele>1295.7</ele>
        <time>2021-08-11T09:17:02Z</time>
      </trkpt>
      <trkpt lat="45.11546" lon="2.629">
        <ele>1295.8</ele>
        <time>2021-08-11T09:17:03Z</time>
      </trkpt>
      <trkpt lat="45.11546" lon="2.62901">
        <ele>1295.9</ele>
        <time>2021-08-11T09:17:04Z</time>
      </trkpt>
      <trkpt lat="45.11546" lon="2.62902">
        <ele>1296</ele>
        <time>2021-08-11T09:17:05Z</time>
      </trkpt>
      <trkpt lat="45.11546" lon="2.62903">
        <ele>1296.1</ele>
        <time>2021-08-11T09:17:06Z</time>
      </trkpt>
      <trkpt lat="45.11546" lon="2.62904">
        <ele>1296.2</ele>
        <time>2021-08-11T09:17:07Z</time>
      </trkpt>
      <trkpt lat="45.11546" lon="2.62905">
        <ele>1296.3</ele>
        <time>2021-08-11T09:17:08Z</time>
      </trkpt>
      <trkpt lat="45.11547" lon="2.62906">
        <ele>1296.3</ele>
        <time>2021-08-11T09:17:09Z</time>
      </trkpt>
      <trkpt lat="45.11547" lon="2.62907">
        <ele>1296.4</ele>
        <time>2021-08-11T09:17:10Z</time>
      </trkpt>
      <trkpt lat="45.11547" lon="2.62907">
        <ele>1296.5</ele>
        <time>2021-08-11T09:17:11Z</time>
      </trkpt>
      <trkpt lat="45.11547" lon="2.62908">
        <ele>1296.5</ele>
        <time>2021-08-11T09:17:12Z</time>
      </trkpt>
      <trkpt lat="45.11547" lon="2.62908">
        <ele>1296.6</ele>
        <time>2021-08-11T09:17:13Z</time>
      </trkpt>
      <trkpt lat="45.11547" lon="2.62909">
        <ele>1296.7</ele>
        <time>2021-08-11T09:17:14Z</time>
      </trkpt>
      <trkpt lat="45.11547" lon="2.6291">
        <ele>1296.8</ele>
        <time>2021-08-11T09:17:15Z</time>
      </trkpt>
      <trkpt lat="45.11547" lon="2.62911">
        <ele>1296.9</ele>
        <time>2021-08-11T09:17:16Z</time>
      </trkpt>
      <trkpt lat="45.11547" lon="2.62912">
        <ele>1297</ele>
        <time>2021-08-11T09:17:17Z</time>
      </trkpt>
      <trkpt lat="45.11547" lon="2.62914">
        <ele>1297.1</ele>
        <time>2021-08-11T09:17:18Z</time>
      </trkpt>
      <trkpt lat="45.11547" lon="2.62915">
        <ele>1297.2</ele>
        <time>2021-08-11T09:17:19Z</time>
      </trkpt>
      <trkpt lat="45.11548" lon="2.62915">
        <ele>1297.3</ele>
        <time>2021-08-11T09:17:20Z</time>
      </trkpt>
      <trkpt lat="45.11548" lon="2.62916">
        <ele>1297.3</ele>
        <time>2021-08-11T09:17:21Z</time>
      </trkpt>
      <trkpt lat="45.11548" lon="2.62916">
        <ele>1297.4</ele>
        <time>2021-08-11T09:17:22Z</time>
      </trkpt>
      <trkpt lat="45.11548" lon="2.62917">
        <ele>1297.4</ele>
        <time>2021-08-11T09:17:23Z</time>
      </trkpt>
      <trkpt lat="45.11549" lon="2.62917">
        <ele>1297.4</ele>
        <time>2021-08-11T09:17:24Z</time>
      </trkpt>
      <trkpt lat="45.11549" lon="2.62917">
        <ele>1297.4</ele>
        <time>2021-08-11T09:17:25Z</time>
      </trkpt>
      <trkpt lat="45.11549" lon="2.62917">
        <ele>1297.4</ele>
        <time>2021-08-11T09:17:26Z</time>
      </trkpt>
      <trkpt lat="45.11549" lon="2.62917">
        <ele>1297.4</ele>
        <time>2021-08-11T09:17:27Z</time>
      </trkpt>
      <trkpt lat="45.11548" lon="2.62916">
        <ele>1297.3</ele>
        <time>2021-08-11T09:17:28Z</time>
      </trkpt>
      <trkpt lat="45.11548" lon="2.62916">
        <ele>1297.3</ele>
        <time>2021-08-11T09:17:29Z</time>
      </trkpt>
      <trkpt lat="45.11548" lon="2.62915">
        <ele>1297.3</ele>
        <time>2021-08-11T09:17:30Z</time>
      </trkpt>
      <trkpt lat="45.11548" lon="2.62916">
        <ele>1297.3</ele>
        <time>2021-08-11T09:17:31Z</time>
      </trkpt>
      <trkpt lat="45.11549" lon="2.62916">
        <ele>1297.4</ele>
        <time>2021-08-11T09:17:32Z</time>
      </trkpt>
      <trkpt lat="45.1155" lon="2.62917">
        <ele>1297.4</ele>
        <time>2021-08-11T09:17:33Z</time>
      </trkpt>
      <trkpt lat="45.1155" lon="2.62918">
        <ele>1297.5</ele>
        <time>2021-08-11T09:17:34Z</time>
      </trkpt>
      <trkpt lat="45.11551" lon="2.62918">
        <ele>1297.5</ele>
        <time>2021-08-11T09:17:35Z</time>
      </trkpt>
      <trkpt lat="45.11552" lon="2.62919">
        <ele>1297.5</ele>
        <time>2021-08-11T09:17:36Z</time>
      </trkpt>
      <trkpt lat="45.11552" lon="2.62919">
        <ele>1297.6</ele>
        <time>2021-08-11T09:17:37Z</time>
      </trkpt>
      <trkpt lat="45.11553" lon="2.6292">
        <ele>1297.6</ele>
        <time>2021-08-11T09:17:38Z</time>
      </trkpt>
      <trkpt lat="45.11553" lon="2.62921">
        <ele>1297.7</ele>
        <time>2021-08-11T09:17:39Z</time>
      </trkpt>
      <trkpt lat="45.11553" lon="2.62921">
        <ele>1297.7</ele>
        <time>2021-08-11T09:17:40Z</time>
      </trkpt>
      <trkpt lat="45.11553" lon="2.62922">
        <ele>1297.8</ele>
        <time>2021-08-11T09:17:41Z</time>
      </trkpt>
      <trkpt lat="45.11553" lon="2.62922">
        <ele>1297.8</ele>
        <time>2021-08-11T09:17:42Z</time>
      </trkpt>
      <trkpt lat="45.11553" lon="2.62923">
        <ele>1297.8</ele>
        <time>2021-08-11T09:17:43Z</time>
      </trkpt>
      <trkpt lat="45.11553" lon="2.62923">
        <ele>1297.8</ele>
        <time>2021-08-11T09:17:44Z</time>
      </trkpt>
      <trkpt lat="45.11553" lon="2.62924">
        <ele>1297.9</ele>
        <time>2021-08-11T09:17:45Z</time>
      </trkpt>
      <trkpt lat="45.11553" lon="2.62924">
        <ele>1298</ele>
        <time>2021-08-11T09:17:46Z</time>
      </trkpt>
      <trkpt lat="45.11553" lon="2.62925">
        <ele>1298</ele>
        <time>2021-08-11T09:17:47Z</time>
      </trkpt>
      <trkpt lat="45.11553" lon="2.62925">
        <ele>1298</ele>
        <time>2021-08-11T09:17:48Z</time>
      </trkpt>
      <trkpt lat="45.11553" lon="2.62926">
        <ele>1298.1</ele>
        <time>2021-08-11T09:17:49Z</time>
      </trkpt>
      <trkpt lat="45.11553" lon="2.62927">
        <ele>1298.1</ele>
        <time>2021-08-11T09:17:50Z</time>
      </trkpt>
      <trkpt lat="45.11553" lon="2.62927">
        <ele>1298.1</ele>
        <time>2021-08-11T09:17:51Z</time>
      </trkpt>
      <trkpt lat="45.11553" lon="2.62927">
        <ele>1298.2</ele>
        <time>2021-08-11T09:17:52Z</time>
      </trkpt>
      <trkpt lat="45.11553" lon="2.62928">
        <ele>1298.2</ele>
        <time>2021-08-11T09:17:53Z</time>
      </trkpt>
      <trkpt lat="45.11553" lon="2.62928">
        <ele>1298.2</ele>
        <time>2021-08-11T09:17:54Z</time>
      </trkpt>
      <trkpt lat="45.11552" lon="2.62927">
        <ele>1298.2</ele>
        <time>2021-08-11T09:17:55Z</time>
      </trkpt>
      <trkpt lat="45.11552" lon="2.62927">
        <ele>1298.2</ele>
        <time>2021-08-11T09:17:56Z</time>
      </trkpt>
      <trkpt lat="45.11551" lon="2.62927">
        <ele>1298.2</ele>
        <time>2021-08-11T09:17:57Z</time>
      </trkpt>
      <trkpt lat="45.11551" lon="2.62928">
        <ele>1298.2</ele>
        <time>2021-08-11T09:17:58Z</time>
      </trkpt>
      <trkpt lat="45.1155" lon="2.62928">
        <ele>1298.3</ele>
        <time>2021-08-11T09:17:59Z</time>
      </trkpt>
      <trkpt lat="45.1155" lon="2.62929">
        <ele>1298.3</ele>
        <time>2021-08-11T09:18:00Z</time>
      </trkpt>
      <trkpt lat="45.1155" lon="2.62929">
        <ele>1298.4</ele>
        <time>2021-08-11T09:18:01Z</time>
      </trkpt>
      <trkpt lat="45.1155" lon="2.6293">
        <ele>1298.4</ele>
        <time>2021-08-11T09:18:02Z</time>
      </trkpt>
      <trkpt lat="45.1155" lon="2.6293">
        <ele>1298.4</ele>
        <time>2021-08-11T09:18:03Z</time>
      </trkpt>
      <trkpt lat="45.1155" lon="2.6293">
        <ele>1298.5</ele>
        <time>2021-08-11T09:18:04Z</time>
      </trkpt>
      <trkpt lat="45.1155" lon="2.6293">
        <ele>1298.5</ele>
        <time>2021-08-11T09:18:05Z</time>
      </trkpt>
      <trkpt lat="45.1155" lon="2.62931">
        <ele>1298.5</ele>
        <time>2021-08-11T09:18:06Z</time>
      </trkpt>
      <trkpt lat="45.1155" lon="2.62931">
        <ele>1298.6</ele>
        <time>2021-08-11T09:18:07Z</time>
      </trkpt>
      <trkpt lat="45.1155" lon="2.62932">
        <ele>1298.6</ele>
        <time>2021-08-11T09:18:08Z</time>
      </trkpt>
      <trkpt lat="45.1155" lon="2.62932">
        <ele>1298.6</ele>
        <time>2021-08-11T09:18:09Z</time>
      </trkpt>
      <trkpt lat="45.1155" lon="2.62932">
        <ele>1298.6</ele>
        <time>2021-08-11T09:18:10Z</time>
      </trkpt>
      <trkpt lat="45.1155" lon="2.62932">
        <ele>1298.6</ele>
        <time>2021-08-11T09:18:11Z</time>
      </trkpt>
      <trkpt lat="45.1155" lon="2.62932">
        <ele>1298.6</ele>
        <time>2021-08-11T09:18:12Z</time>
      </trkpt>
      <trkpt lat="45.1155" lon="2.62932">
        <ele>1298.6</ele>
        <time>2021-08-11T09:18:13Z</time>
      </trkpt>
      <trkpt lat="45.1155" lon="2.62932">
        <ele>1298.6</ele>
        <time>2021-08-11T09:18:14Z</time>
      </trkpt>
      <trkpt lat="45.1155" lon="2.62932">
        <ele>1298.6</ele>
        <time>2021-08-11T09:18:15Z</time>
      </trkpt>
      <trkpt lat="45.1155" lon="2.62932">
        <ele>1298.6</ele>
        <time>2021-08-11T09:18:16Z</time>
      </trkpt>
      <trkpt lat="45.1155" lon="2.62932">
        <ele>1298.6</ele>
        <time>2021-08-11T09:18:17Z</time>
      </trkpt>
      <trkpt lat="45.11551" lon="2.62932">
        <ele>1298.6</ele>
        <time>2021-08-11T09:18:18Z</time>
      </trkpt>
      <trkpt lat="45.11551" lon="2.62932">
        <ele>1298.6</ele>
        <time>2021-08-11T09:18:19Z</time>
      </trkpt>
      <trkpt lat="45.11551" lon="2.62932">
        <ele>1298.6</ele>
        <time>2021-08-11T09:18:20Z</time>
      </trkpt>
      <trkpt lat="45.11551" lon="2.62932">
        <ele>1298.6</ele>
        <time>2021-08-11T09:18:21Z</time>
      </trkpt>
      <trkpt lat="45.11551" lon="2.62932">
        <ele>1298.6</ele>
        <time>2021-08-11T09:18:22Z</time>
      </trkpt>
      <trkpt lat="45.11551" lon="2.62932">
        <ele>1298.6</ele>
        <time>2021-08-11T09:18:23Z</time>
      </trkpt>
      <trkpt lat="45.11551" lon="2.62932">
        <ele>1298.6</ele>
        <time>2021-08-11T09:18:24Z</time>
      </trkpt>
      <trkpt lat="45.11551" lon="2.62933">
        <ele>1298.6</ele>
        <time>2021-08-11T09:18:25Z</time>
      </trkpt>
      <trkpt lat="45.11552" lon="2.62933">
        <ele>1298.6</ele>
        <time>2021-08-11T09:18:26Z</time>
      </trkpt>
      <trkpt lat="45.11553" lon="2.62933">
        <ele>1298.6</ele>
        <time>2021-08-11T09:18:27Z</time>
      </trkpt>
      <trkpt lat="45.11554" lon="2.62934">
        <ele>1298.7</ele>
        <time>2021-08-11T09:18:28Z</time>
      </trkpt>
      <trkpt lat="45.11554" lon="2.62935">
        <ele>1298.7</ele>
        <time>2021-08-11T09:18:29Z</time>
      </trkpt>
      <trkpt lat="45.11555" lon="2.62936">
        <ele>1298.8</ele>
        <time>2021-08-11T09:18:30Z</time>
      </trkpt>
      <trkpt lat="45.11556" lon="2.62936">
        <ele>1298.8</ele>
        <time>2021-08-11T09:18:31Z</time>
      </trkpt>
      <trkpt lat="45.11556" lon="2.62938">
        <ele>1298.9</ele>
        <time>2021-08-11T09:18:32Z</time>
      </trkpt>
      <trkpt lat="45.11556" lon="2.62938">
        <ele>1299</ele>
        <time>2021-08-11T09:18:33Z</time>
      </trkpt>
      <trkpt lat="45.11556" lon="2.62939">
        <ele>1299</ele>
        <time>2021-08-11T09:18:34Z</time>
      </trkpt>
      <trkpt lat="45.11557" lon="2.62939">
        <ele>1299</ele>
        <time>2021-08-11T09:18:35Z</time>
      </trkpt>
      <trkpt lat="45.11557" lon="2.6294">
        <ele>1299</ele>
        <time>2021-08-11T09:18:36Z</time>
      </trkpt>
      <trkpt lat="45.11558" lon="2.62941">
        <ele>1299.1</ele>
        <time>2021-08-11T09:18:37Z</time>
      </trkpt>
      <trkpt lat="45.11558" lon="2.62942">
        <ele>1299.2</ele>
        <time>2021-08-11T09:18:38Z</time>
      </trkpt>
      <trkpt lat="45.11559" lon="2.62943">
        <ele>1299.3</ele>
        <time>2021-08-11T09:18:39Z</time>
      </trkpt>
      <trkpt lat="45.11559" lon="2.62944">
        <ele>1299.3</ele>
        <time>2021-08-11T09:18:40Z</time>
      </trkpt>
      <trkpt lat="45.1156" lon="2.62946">
        <ele>1299.4</ele>
        <time>2021-08-11T09:18:41Z</time>
      </trkpt>
      <trkpt lat="45.1156" lon="2.62947">
        <ele>1299.5</ele>
        <time>2021-08-11T09:18:42Z</time>
      </trkpt>
      <trkpt lat="45.1156" lon="2.62948">
        <ele>1299.6</ele>
        <time>2021-08-11T09:18:43Z</time>
      </trkpt>
      <trkpt lat="45.11561" lon="2.62949">
        <ele>1299.6</ele>
        <time>2021-08-11T09:18:44Z</time>
      </trkpt>
      <trkpt lat="45.11561" lon="2.6295">
        <ele>1299.7</ele>
        <time>2021-08-11T09:18:45Z</time>
      </trkpt>
      <trkpt lat="45.11561" lon="2.62951">
        <ele>1299.7</ele>
        <time>2021-08-11T09:18:46Z</time>
      </trkpt>
      <trkpt lat="45.11562" lon="2.62951">
        <ele>1299.8</ele>
        <time>2021-08-11T09:18:47Z</time>
      </trkpt>
      <trkpt lat="45.11562" lon="2.62952">
        <ele>1299.8</ele>
        <time>2021-08-11T09:18:48Z</time>
      </trkpt>
      <trkpt lat="45.11562" lon="2.62953">
        <ele>1299.9</ele>
        <time>2021-08-11T09:18:49Z</time>
      </trkpt>
      <trkpt lat="45.11562" lon="2.62953">
        <ele>1299.9</ele>
        <time>2021-08-11T09:18:50Z</time>
      </trkpt>
      <trkpt lat="45.11562" lon="2.62954">
        <ele>1299.9</ele>
        <time>2021-08-11T09:18:51Z</time>
      </trkpt>
      <trkpt lat="45.11562" lon="2.62954">
        <ele>1299.9</ele>
        <time>2021-08-11T09:18:52Z</time>
      </trkpt>
      <trkpt lat="45.11563" lon="2.62954">
        <ele>1300</ele>
        <time>2021-08-11T09:18:53Z</time>
      </trkpt>
      <trkpt lat="45.11563" lon="2.62955">
        <ele>1300</ele>
        <time>2021-08-11T09:18:54Z</time>
      </trkpt>
      <trkpt lat="45.11564" lon="2.62955">
        <ele>1300</ele>
        <time>2021-08-11T09:18:55Z</time>
      </trkpt>
      <trkpt lat="45.11564" lon="2.62956">
        <ele>1300</ele>
        <time>2021-08-11T09:18:56Z</time>
      </trkpt>
      <trkpt lat="45.11565" lon="2.62956">
        <ele>1300</ele>
        <time>2021-08-11T09:18:57Z</time>
      </trkpt>
      <trkpt lat="45.11565" lon="2.62956">
        <ele>1300</ele>
        <time>2021-08-11T09:18:58Z</time>
      </trkpt>
      <trkpt lat="45.11565" lon="2.62956">
        <ele>1300</ele>
        <time>2021-08-11T09:18:59Z</time>
      </trkpt>
      <trkpt lat="45.11566" lon="2.62956">
        <ele>1300</ele>
        <time>2021-08-11T09:19:00Z</time>
      </trkpt>
      <trkpt lat="45.11566" lon="2.62956">
        <ele>1300</ele>
        <time>2021-08-11T09:19:01Z</time>
      </trkpt>
      <trkpt lat="45.11567" lon="2.62956">
        <ele>1300</ele>
        <time>2021-08-11T09:19:02Z</time>
      </trkpt>
      <trkpt lat="45.11567" lon="2.62957">
        <ele>1300</ele>
        <time>2021-08-11T09:19:03Z</time>
      </trkpt>
      <trkpt lat="45.11568" lon="2.62957">
        <ele>1300</ele>
        <time>2021-08-11T09:19:04Z</time>
      </trkpt>
      <trkpt lat="45.11569" lon="2.62958">
        <ele>1300</ele>
        <time>2021-08-11T09:19:05Z</time>
      </trkpt>
      <trkpt lat="45.1157" lon="2.62959">
        <ele>1300</ele>
        <time>2021-08-11T09:19:06Z</time>
      </trkpt>
      <trkpt lat="45.11571" lon="2.62959">
        <ele>1300</ele>
        <time>2021-08-11T09:19:07Z</time>
      </trkpt>
      <trkpt lat="45.11571" lon="2.6296">
        <ele>1300</ele>
        <time>2021-08-11T09:19:08Z</time>
      </trkpt>
      <trkpt lat="45.11572" lon="2.6296">
        <ele>1300</ele>
        <time>2021-08-11T09:19:09Z</time>
      </trkpt>
      <trkpt lat="45.11573" lon="2.62961">
        <ele>1300.1</ele>
        <time>2021-08-11T09:19:10Z</time>
      </trkpt>
      <trkpt lat="45.11574" lon="2.62962">
        <ele>1300.1</ele>
        <time>2021-08-11T09:19:11Z</time>
      </trkpt>
      <trkpt lat="45.11574" lon="2.62962">
        <ele>1300.1</ele>
        <time>2021-08-11T09:19:12Z</time>
      </trkpt>
      <trkpt lat="45.11575" lon="2.62963">
        <ele>1300.1</ele>
        <time>2021-08-11T09:19:13Z</time>
      </trkpt>
      <trkpt lat="45.11576" lon="2.62964">
        <ele>1300.1</ele>
        <time>2021-08-11T09:19:14Z</time>
      </trkpt>
      <trkpt lat="45.11577" lon="2.62964">
        <ele>1300.1</ele>
        <time>2021-08-11T09:19:15Z</time>
      </trkpt>
      <trkpt lat="45.11577" lon="2.62965">
        <ele>1300.2</ele>
        <time>2021-08-11T09:19:16Z</time>
      </trkpt>
      <trkpt lat="45.11578" lon="2.62967">
        <ele>1300.2</ele>
        <time>2021-08-11T09:19:17Z</time>
      </trkpt>
      <trkpt lat="45.11579" lon="2.62968">
        <ele>1300.2</ele>
        <time>2021-08-11T09:19:18Z</time>
      </trkpt>
      <trkpt lat="45.11579" lon="2.62968">
        <ele>1300.3</ele>
        <time>2021-08-11T09:19:19Z</time>
      </trkpt>
      <trkpt lat="45.1158" lon="2.62969">
        <ele>1300.3</ele>
        <time>2021-08-11T09:19:20Z</time>
      </trkpt>
      <trkpt lat="45.11581" lon="2.6297">
        <ele>1300.3</ele>
        <time>2021-08-11T09:19:21Z</time>
      </trkpt>
      <trkpt lat="45.11582" lon="2.62971">
        <ele>1300.3</ele>
        <time>2021-08-11T09:19:22Z</time>
      </trkpt>
      <trkpt lat="45.11582" lon="2.62972">
        <ele>1300.4</ele>
        <time>2021-08-11T09:19:23Z</time>
      </trkpt>
      <trkpt lat="45.11583" lon="2.62973">
        <ele>1300.4</ele>
        <time>2021-08-11T09:19:24Z</time>
      </trkpt>
      <trkpt lat="45.11584" lon="2.62974">
        <ele>1300.5</ele>
        <time>2021-08-11T09:19:25Z</time>
      </trkpt>
      <trkpt lat="45.11584" lon="2.62975">
        <ele>1300.6</ele>
        <time>2021-08-11T09:19:26Z</time>
      </trkpt>
      <trkpt lat="45.11585" lon="2.62976">
        <ele>1300.7</ele>
        <time>2021-08-11T09:19:27Z</time>
      </trkpt>
      <trkpt lat="45.11585" lon="2.62977">
        <ele>1300.8</ele>
        <time>2021-08-11T09:19:28Z</time>
      </trkpt>
      <trkpt lat="45.11585" lon="2.62978">
        <ele>1301</ele>
        <time>2021-08-11T09:19:29Z</time>
      </trkpt>
      <trkpt lat="45.11586" lon="2.62979">
        <ele>1301.1</ele>
        <time>2021-08-11T09:19:30Z</time>
      </trkpt>
      <trkpt lat="45.11586" lon="2.6298">
        <ele>1301.2</ele>
        <time>2021-08-11T09:19:31Z</time>
      </trkpt>
      <trkpt lat="45.11586" lon="2.62981">
        <ele>1301.3</ele>
        <time>2021-08-11T09:19:32Z</time>
      </trkpt>
      <trkpt lat="45.11587" lon="2.62982">
        <ele>1301.4</ele>
        <time>2021-08-11T09:19:33Z</time>
      </trkpt>
      <trkpt lat="45.11587" lon="2.62983">
        <ele>1301.5</ele>
        <time>2021-08-11T09:19:34Z</time>
      </trkpt>
      <trkpt lat="45.11587" lon="2.62984">
        <ele>1301.6</ele>
        <time>2021-08-11T09:19:35Z</time>
      </trkpt>
      <trkpt lat="45.11587" lon="2.62984">
        <ele>1301.6</ele>
        <time>2021-08-11T09:19:36Z</time>
      </trkpt>
      <trkpt lat="45.11588" lon="2.62985">
        <ele>1301.7</ele>
        <time>2021-08-11T09:19:37Z</time>
      </trkpt>
      <trkpt lat="45.11588" lon="2.62985">
        <ele>1301.8</ele>
        <time>2021-08-11T09:19:38Z</time>
      </trkpt>
      <trkpt lat="45.11589" lon="2.62985">
        <ele>1301.9</ele>
        <time>2021-08-11T09:19:39Z</time>
      </trkpt>
      <trkpt lat="45.11589" lon="2.62986">
        <ele>1301.9</ele>
        <time>2021-08-11T09:19:40Z</time>
      </trkpt>
      <trkpt lat="45.11589" lon="2.62986">
        <ele>1301.9</ele>
        <time>2021-08-11T09:19:41Z</time>
      </trkpt>
      <trkpt lat="45.11589" lon="2.62986">
        <ele>1301.9</ele>
        <time>2021-08-11T09:19:42Z</time>
      </trkpt>
      <trkpt lat="45.11589" lon="2.62986">
        <ele>1301.9</ele>
        <time>2021-08-11T09:19:43Z</time>
      </trkpt>
      <trkpt lat="45.11589" lon="2.62986">
        <ele>1301.9</ele>
        <time>2021-08-11T09:19:44Z</time>
      </trkpt>
      <trkpt lat="45.11589" lon="2.62986">
        <ele>1301.9</ele>
        <time>2021-08-11T09:19:45Z</time>
      </trkpt>
      <trkpt lat="45.11589" lon="2.62986">
        <ele>1302</ele>
        <time>2021-08-11T09:19:46Z</time>
      </trkpt>
      <trkpt lat="45.11589" lon="2.62986">
        <ele>1302</ele>
        <time>2021-08-11T09:19:47Z</time>
      </trkpt>
      <trkpt lat="45.11589" lon="2.62986">
        <ele>1302</ele>
        <time>2021-08-11T09:19:48Z</time>
      </trkpt>
      <trkpt lat="45.11589" lon="2.62986">
        <ele>1301.9</ele>
        <time>2021-08-11T09:19:49Z</time>
      </trkpt>
      <trkpt lat="45.11589" lon="2.62986">
        <ele>1301.9</ele>
        <time>2021-08-11T09:19:50Z</time>
      </trkpt>
      <trkpt lat="45.11589" lon="2.62986">
        <ele>1301.9</ele>
        <time>2021-08-11T09:19:51Z</time>
      </trkpt>
      <trkpt lat="45.11589" lon="2.62986">
        <ele>1301.9</ele>
        <time>2021-08-11T09:19:52Z</time>
      </trkpt>
      <trkpt lat="45.11589" lon="2.62987">
        <ele>1302</ele>
        <time>2021-08-11T09:19:53Z</time>
      </trkpt>
      <trkpt lat="45.11589" lon="2.62988">
        <ele>1302</ele>
        <time>2021-08-11T09:19:54Z</time>
      </trkpt>
      <trkpt lat="45.11589" lon="2.62988">
        <ele>1302</ele>
        <time>2021-08-11T09:19:55Z</time>
      </trkpt>
      <trkpt lat="45.11589" lon="2.62988">
        <ele>1302</ele>
        <time>2021-08-11T09:19:56Z</time>
      </trkpt>
      <trkpt lat="45.11589" lon="2.62988">
        <ele>1302</ele>
        <time>2021-08-11T09:19:57Z</time>
      </trkpt>
      <trkpt lat="45.11589" lon="2.62988">
        <ele>1302</ele>
        <time>2021-08-11T09:19:58Z</time>
      </trkpt>
      <trkpt lat="45.11589" lon="2.62988">
        <ele>1302</ele>
        <time>2021-08-11T09:19:59Z</time>
      </trkpt>
      <trkpt lat="45.11588" lon="2.62988">
        <ele>1302</ele>
        <time>2021-08-11T09:20:00Z</time>
      </trkpt>
      <trkpt lat="45.11589" lon="2.62987">
        <ele>1302</ele>
        <time>2021-08-11T09:20:01Z</time>
      </trkpt>
      <trkpt lat="45.11588" lon="2.62987">
        <ele>1301.9</ele>
        <time>2021-08-11T09:20:02Z</time>
      </trkpt>
      <trkpt lat="45.11588" lon="2.62987">
        <ele>1301.9</ele>
        <time>2021-08-11T09:20:03Z</time>
      </trkpt>
      <trkpt lat="45.11588" lon="2.62987">
        <ele>1301.9</ele>
        <time>2021-08-11T09:20:04Z</time>
      </trkpt>
      <trkpt lat="45.11588" lon="2.62987">
        <ele>1301.8</ele>
        <time>2021-08-11T09:20:05Z</time>
      </trkpt>
      <trkpt lat="45.11588" lon="2.62987">
        <ele>1301.9</ele>
        <time>2021-08-11T09:20:06Z</time>
      </trkpt>
      <trkpt lat="45.11588" lon="2.62987">
        <ele>1301.9</ele>
        <time>2021-08-11T09:20:07Z</time>
      </trkpt>
      <trkpt lat="45.11588" lon="2.62987">
        <ele>1301.9</ele>
        <time>2021-08-11T09:20:08Z</time>
      </trkpt>
      <trkpt lat="45.11588" lon="2.62987">
        <ele>1301.9</ele>
        <time>2021-08-11T09:20:09Z</time>
      </trkpt>
      <trkpt lat="45.11588" lon="2.62987">
        <ele>1301.9</ele>
        <time>2021-08-11T09:20:10Z</time>
      </trkpt>
      <trkpt lat="45.11588" lon="2.62987">
        <ele>1301.9</ele>
        <time>2021-08-11T09:20:11Z</time>
      </trkpt>
      <trkpt lat="45.11588" lon="2.62987">
        <ele>1301.9</ele>
        <time>2021-08-11T09:20:12Z</time>
      </trkpt>
      <trkpt lat="45.11588" lon="2.62987">
        <ele>1301.9</ele>
        <time>2021-08-11T09:20:13Z</time>
      </trkpt>
      <trkpt lat="45.11588" lon="2.62987">
        <ele>1301.9</ele>
        <time>2021-08-11T09:20:14Z</time>
      </trkpt>
      <trkpt lat="45.11588" lon="2.62987">
        <ele>1301.9</ele>
        <time>2021-08-11T09:20:15Z</time>
      </trkpt>
      <trkpt lat="45.11588" lon="2.62987">
        <ele>1301.9</ele>
        <time>2021-08-11T09:20:16Z</time>
      </trkpt>
      <trkpt lat="45.11588" lon="2.62987">
        <ele>1301.9</ele>
        <time>2021-08-11T09:20:17Z</time>
      </trkpt>
      <trkpt lat="45.11588" lon="2.62987">
        <ele>1301.9</ele>
        <time>2021-08-11T09:20:18Z</time>
      </trkpt>
      <trkpt lat="45.11588" lon="2.62987">
        <ele>1301.9</ele>
        <time>2021-08-11T09:20:19Z</time>
      </trkpt>
      <trkpt lat="45.11588" lon="2.62987">
        <ele>1301.9</ele>
        <time>2021-08-11T09:20:20Z</time>
      </trkpt>
      <trkpt lat="45.11588" lon="2.62987">
        <ele>1301.9</ele>
        <time>2021-08-11T09:20:21Z</time>
      </trkpt>
      <trkpt lat="45.11588" lon="2.62987">
        <ele>1301.9</ele>
        <time>2021-08-11T09:20:22Z</time>
      </trkpt>
      <trkpt lat="45.11588" lon="2.62987">
        <ele>1301.9</ele>
        <time>2021-08-11T09:20:23Z</time>
      </trkpt>
      <trkpt lat="45.11588" lon="2.62987">
        <ele>1301.9</ele>
        <time>2021-08-11T09:20:24Z</time>
      </trkpt>
      <trkpt lat="45.11588" lon="2.62987">
        <ele>1301.9</ele>
        <time>2021-08-11T09:20:25Z</time>
      </trkpt>
      <trkpt lat="45.11588" lon="2.62987">
        <ele>1301.9</ele>
        <time>2021-08-11T09:20:26Z</time>
      </trkpt>
      <trkpt lat="45.11588" lon="2.62987">
        <ele>1301.9</ele>
        <time>2021-08-11T09:20:27Z</time>
      </trkpt>
      <trkpt lat="45.11588" lon="2.62987">
        <ele>1301.9</ele>
        <time>2021-08-11T09:20:28Z</time>
      </trkpt>
      <trkpt lat="45.11588" lon="2.62987">
        <ele>1301.9</ele>
        <time>2021-08-11T09:20:29Z</time>
      </trkpt>
      <trkpt lat="45.11589" lon="2.62987">
        <ele>1302</ele>
        <time>2021-08-11T09:20:30Z</time>
      </trkpt>
      <trkpt lat="45.11588" lon="2.62987">
        <ele>1301.9</ele>
        <time>2021-08-11T09:20:31Z</time>
      </trkpt>
      <trkpt lat="45.11589" lon="2.62987">
        <ele>1302</ele>
        <time>2021-08-11T09:20:32Z</time>
      </trkpt>
      <trkpt lat="45.11589" lon="2.62987">
        <ele>1302</ele>
        <time>2021-08-11T09:20:33Z</time>
      </trkpt>
      <trkpt lat="45.11589" lon="2.62987">
        <ele>1302</ele>
        <time>2021-08-11T09:20:34Z</time>
      </trkpt>
      <trkpt lat="45.11589" lon="2.62987">
        <ele>1302</ele>
        <time>2021-08-11T09:20:35Z</time>
      </trkpt>
      <trkpt lat="45.11589" lon="2.62987">
        <ele>1302</ele>
        <time>2021-08-11T09:20:36Z</time>
      </trkpt>
      <trkpt lat="45.11589" lon="2.62987">
        <ele>1302</ele>
        <time>2021-08-11T09:20:37Z</time>
      </trkpt>
      <trkpt lat="45.11589" lon="2.62987">
        <ele>1302</ele>
        <time>2021-08-11T09:20:38Z</time>
      </trkpt>
      <trkpt lat="45.11589" lon="2.62987">
        <ele>1302</ele>
        <time>2021-08-11T09:20:39Z</time>
      </trkpt>
      <trkpt lat="45.11589" lon="2.62988">
        <ele>1302.1</ele>
        <time>2021-08-11T09:20:40Z</time>
      </trkpt>
      <trkpt lat="45.11589" lon="2.62989">
        <ele>1302.2</ele>
        <time>2021-08-11T09:20:41Z</time>
      </trkpt>
      <trkpt lat="45.11589" lon="2.6299">
        <ele>1302.3</ele>
        <time>2021-08-11T09:20:42Z</time>
      </trkpt>
      <trkpt lat="45.1159" lon="2.62992">
        <ele>1302.4</ele>
        <time>2021-08-11T09:20:43Z</time>
      </trkpt>
      <trkpt lat="45.1159" lon="2.62993">
        <ele>1302.5</ele>
        <time>2021-08-11T09:20:44Z</time>
      </trkpt>
      <trkpt lat="45.1159" lon="2.62994">
        <ele>1302.6</ele>
        <time>2021-08-11T09:20:45Z</time>
      </trkpt>
      <trkpt lat="45.1159" lon="2.62995">
        <ele>1302.7</ele>
        <time>2021-08-11T09:20:46Z</time>
      </trkpt>
      <trkpt lat="45.11591" lon="2.62996">
        <ele>1302.8</ele>
        <time>2021-08-11T09:20:47Z</time>
      </trkpt>
      <trkpt lat="45.11591" lon="2.62997">
        <ele>1302.9</ele>
        <time>2021-08-11T09:20:48Z</time>
      </trkpt>
      <trkpt lat="45.11591" lon="2.62998">
        <ele>1303</ele>
        <time>2021-08-11T09:20:49Z</time>
      </trkpt>
      <trkpt lat="45.11591" lon="2.62999">
        <ele>1303.1</ele>
        <time>2021-08-11T09:20:50Z</time>
      </trkpt>
      <trkpt lat="45.11592" lon="2.63001">
        <ele>1303.2</ele>
        <time>2021-08-11T09:20:51Z</time>
      </trkpt>
      <trkpt lat="45.11592" lon="2.63002">
        <ele>1303.4</ele>
        <time>2021-08-11T09:20:52Z</time>
      </trkpt>
      <trkpt lat="45.11593" lon="2.63003">
        <ele>1303.5</ele>
        <time>2021-08-11T09:20:53Z</time>
      </trkpt>
      <trkpt lat="45.11593" lon="2.63004">
        <ele>1303.6</ele>
        <time>2021-08-11T09:20:54Z</time>
      </trkpt>
      <trkpt lat="45.11594" lon="2.63005">
        <ele>1303.8</ele>
        <time>2021-08-11T09:20:55Z</time>
      </trkpt>
      <trkpt lat="45.11594" lon="2.63006">
        <ele>1304</ele>
        <time>2021-08-11T09:20:56Z</time>
      </trkpt>
      <trkpt lat="45.11595" lon="2.63007">
        <ele>1304.1</ele>
        <time>2021-08-11T09:20:57Z</time>
      </trkpt>
      <trkpt lat="45.11596" lon="2.63008">
        <ele>1304.3</ele>
        <time>2021-08-11T09:20:58Z</time>
      </trkpt>
      <trkpt lat="45.11596" lon="2.63009">
        <ele>1304.5</ele>
        <time>2021-08-11T09:20:59Z</time>
      </trkpt>
      <trkpt lat="45.11596" lon="2.6301">
        <ele>1304.5</ele>
        <time>2021-08-11T09:21:00Z</time>
      </trkpt>
      <trkpt lat="45.11596" lon="2.63011">
        <ele>1304.6</ele>
        <time>2021-08-11T09:21:01Z</time>
      </trkpt>
      <trkpt lat="45.11597" lon="2.63012">
        <ele>1304.8</ele>
        <time>2021-08-11T09:21:02Z</time>
      </trkpt>
      <trkpt lat="45.11597" lon="2.63014">
        <ele>1304.8</ele>
        <time>2021-08-11T09:21:03Z</time>
      </trkpt>
      <trkpt lat="45.11597" lon="2.63014">
        <ele>1304.9</ele>
        <time>2021-08-11T09:21:04Z</time>
      </trkpt>
      <trkpt lat="45.11597" lon="2.63015">
        <ele>1305</ele>
        <time>2021-08-11T09:21:05Z</time>
      </trkpt>
      <trkpt lat="45.11597" lon="2.63016">
        <ele>1305.1</ele>
        <time>2021-08-11T09:21:06Z</time>
      </trkpt>
      <trkpt lat="45.11597" lon="2.63018">
        <ele>1305.2</ele>
        <time>2021-08-11T09:21:07Z</time>
      </trkpt>
      <trkpt lat="45.11598" lon="2.63019">
        <ele>1305.3</ele>
        <time>2021-08-11T09:21:08Z</time>
      </trkpt>
      <trkpt lat="45.11598" lon="2.6302">
        <ele>1305.4</ele>
        <time>2021-08-11T09:21:09Z</time>
      </trkpt>
      <trkpt lat="45.11598" lon="2.63021">
        <ele>1305.5</ele>
        <time>2021-08-11T09:21:10Z</time>
      </trkpt>
      <trkpt lat="45.11598" lon="2.63022">
        <ele>1305.6</ele>
        <time>2021-08-11T09:21:11Z</time>
      </trkpt>
      <trkpt lat="45.11598" lon="2.63023">
        <ele>1305.7</ele>
        <time>2021-08-11T09:21:12Z</time>
      </trkpt>
      <trkpt lat="45.11598" lon="2.63024">
        <ele>1305.8</ele>
        <time>2021-08-11T09:21:13Z</time>
      </trkpt>
      <trkpt lat="45.11599" lon="2.63025">
        <ele>1305.9</ele>
        <time>2021-08-11T09:21:14Z</time>
      </trkpt>
      <trkpt lat="45.11599" lon="2.63027">
        <ele>1306</ele>
        <time>2021-08-11T09:21:15Z</time>
      </trkpt>
      <trkpt lat="45.11599" lon="2.63028">
        <ele>1306.1</ele>
        <time>2021-08-11T09:21:16Z</time>
      </trkpt>
      <trkpt lat="45.11598" lon="2.63029">
        <ele>1306.1</ele>
        <time>2021-08-11T09:21:17Z</time>
      </trkpt>
      <trkpt lat="45.11598" lon="2.6303">
        <ele>1306.2</ele>
        <time>2021-08-11T09:21:18Z</time>
      </trkpt>
      <trkpt lat="45.11599" lon="2.63031">
        <ele>1306.3</ele>
        <time>2021-08-11T09:21:19Z</time>
      </trkpt>
      <trkpt lat="45.11599" lon="2.63032">
        <ele>1306.4</ele>
        <time>2021-08-11T09:21:20Z</time>
      </trkpt>
      <trkpt lat="45.11599" lon="2.63033">
        <ele>1306.4</ele>
        <time>2021-08-11T09:21:21Z</time>
      </trkpt>
      <trkpt lat="45.11599" lon="2.63035">
        <ele>1306.5</ele>
        <time>2021-08-11T09:21:22Z</time>
      </trkpt>
      <trkpt lat="45.11599" lon="2.63036">
        <ele>1306.6</ele>
        <time>2021-08-11T09:21:23Z</time>
      </trkpt>
      <trkpt lat="45.11599" lon="2.63037">
        <ele>1306.7</ele>
        <time>2021-08-11T09:21:24Z</time>
      </trkpt>
      <trkpt lat="45.11599" lon="2.63038">
        <ele>1306.8</ele>
        <time>2021-08-11T09:21:25Z</time>
      </trkpt>
      <trkpt lat="45.11599" lon="2.63039">
        <ele>1306.9</ele>
        <time>2021-08-11T09:21:26Z</time>
      </trkpt>
      <trkpt lat="45.11599" lon="2.6304">
        <ele>1307</ele>
        <time>2021-08-11T09:21:27Z</time>
      </trkpt>
      <trkpt lat="45.11599" lon="2.63042">
        <ele>1307.1</ele>
        <time>2021-08-11T09:21:28Z</time>
      </trkpt>
      <trkpt lat="45.11599" lon="2.63043">
        <ele>1307.1</ele>
        <time>2021-08-11T09:21:29Z</time>
      </trkpt>
      <trkpt lat="45.11599" lon="2.63043">
        <ele>1307.2</ele>
        <time>2021-08-11T09:21:30Z</time>
      </trkpt>
      <trkpt lat="45.116" lon="2.63044">
        <ele>1307.3</ele>
        <time>2021-08-11T09:21:31Z</time>
      </trkpt>
      <trkpt lat="45.116" lon="2.63045">
        <ele>1307.4</ele>
        <time>2021-08-11T09:21:32Z</time>
      </trkpt>
      <trkpt lat="45.116" lon="2.63047">
        <ele>1307.5</ele>
        <time>2021-08-11T09:21:33Z</time>
      </trkpt>
      <trkpt lat="45.116" lon="2.63047">
        <ele>1307.5</ele>
        <time>2021-08-11T09:21:34Z</time>
      </trkpt>
      <trkpt lat="45.116" lon="2.63048">
        <ele>1307.6</ele>
        <time>2021-08-11T09:21:35Z</time>
      </trkpt>
      <trkpt lat="45.116" lon="2.63049">
        <ele>1307.6</ele>
        <time>2021-08-11T09:21:36Z</time>
      </trkpt>
      <trkpt lat="45.116" lon="2.6305">
        <ele>1307.7</ele>
        <time>2021-08-11T09:21:37Z</time>
      </trkpt>
      <trkpt lat="45.116" lon="2.6305">
        <ele>1307.8</ele>
        <time>2021-08-11T09:21:38Z</time>
      </trkpt>
      <trkpt lat="45.11601" lon="2.63051">
        <ele>1307.9</ele>
        <time>2021-08-11T09:21:39Z</time>
      </trkpt>
      <trkpt lat="45.11601" lon="2.63052">
        <ele>1308</ele>
        <time>2021-08-11T09:21:40Z</time>
      </trkpt>
      <trkpt lat="45.11601" lon="2.63052">
        <ele>1308.1</ele>
        <time>2021-08-11T09:21:41Z</time>
      </trkpt>
      <trkpt lat="45.11601" lon="2.63053">
        <ele>1308.1</ele>
        <time>2021-08-11T09:21:42Z</time>
      </trkpt>
      <trkpt lat="45.11601" lon="2.63053">
        <ele>1308.1</ele>
        <time>2021-08-11T09:21:43Z</time>
      </trkpt>
      <trkpt lat="45.11601" lon="2.63053">
        <ele>1308.1</ele>
        <time>2021-08-11T09:21:44Z</time>
      </trkpt>
      <trkpt lat="45.11602" lon="2.63053">
        <ele>1308.1</ele>
        <time>2021-08-11T09:21:45Z</time>
      </trkpt>
      <trkpt lat="45.11602" lon="2.63053">
        <ele>1308.2</ele>
        <time>2021-08-11T09:21:46Z</time>
      </trkpt>
      <trkpt lat="45.11602" lon="2.63053">
        <ele>1308.3</ele>
        <time>2021-08-11T09:21:47Z</time>
      </trkpt>
      <trkpt lat="45.11603" lon="2.63054">
        <ele>1308.4</ele>
        <time>2021-08-11T09:21:48Z</time>
      </trkpt>
      <trkpt lat="45.11604" lon="2.63054">
        <ele>1308.5</ele>
        <time>2021-08-11T09:21:49Z</time>
      </trkpt>
      <trkpt lat="45.11604" lon="2.63055">
        <ele>1308.6</ele>
        <time>2021-08-11T09:21:50Z</time>
      </trkpt>
      <trkpt lat="45.11605" lon="2.63056">
        <ele>1308.7</ele>
        <time>2021-08-11T09:21:51Z</time>
      </trkpt>
      <trkpt lat="45.11605" lon="2.63057">
        <ele>1308.8</ele>
        <time>2021-08-11T09:21:52Z</time>
      </trkpt>
      <trkpt lat="45.11605" lon="2.63058">
        <ele>1308.9</ele>
        <time>2021-08-11T09:21:53Z</time>
      </trkpt>
      <trkpt lat="45.11605" lon="2.63059">
        <ele>1309</ele>
        <time>2021-08-11T09:21:54Z</time>
      </trkpt>
      <trkpt lat="45.11605" lon="2.6306">
        <ele>1309.1</ele>
        <time>2021-08-11T09:21:55Z</time>
      </trkpt>
      <trkpt lat="45.11606" lon="2.63061">
        <ele>1309.2</ele>
        <time>2021-08-11T09:21:56Z</time>
      </trkpt>
      <trkpt lat="45.11606" lon="2.63062">
        <ele>1309.4</ele>
        <time>2021-08-11T09:21:57Z</time>
      </trkpt>
      <trkpt lat="45.11607" lon="2.63063">
        <ele>1309.5</ele>
        <time>2021-08-11T09:21:58Z</time>
      </trkpt>
      <trkpt lat="45.11607" lon="2.63064">
        <ele>1309.6</ele>
        <time>2021-08-11T09:21:59Z</time>
      </trkpt>
      <trkpt lat="45.11608" lon="2.63065">
        <ele>1309.7</ele>
        <time>2021-08-11T09:22:00Z</time>
      </trkpt>
      <trkpt lat="45.11608" lon="2.63066">
        <ele>1309.8</ele>
        <time>2021-08-11T09:22:01Z</time>
      </trkpt>
      <trkpt lat="45.11608" lon="2.63067">
        <ele>1309.9</ele>
        <time>2021-08-11T09:22:02Z</time>
      </trkpt>
      <trkpt lat="45.11609" lon="2.63068">
        <ele>1310.1</ele>
        <time>2021-08-11T09:22:03Z</time>
      </trkpt>
      <trkpt lat="45.11609" lon="2.63069">
        <ele>1310.2</ele>
        <time>2021-08-11T09:22:04Z</time>
      </trkpt>
      <trkpt lat="45.1161" lon="2.63069">
        <ele>1310.3</ele>
        <time>2021-08-11T09:22:05Z</time>
      </trkpt>
      <trkpt lat="45.11611" lon="2.6307">
        <ele>1310.4</ele>
        <time>2021-08-11T09:22:06Z</time>
      </trkpt>
      <trkpt lat="45.11611" lon="2.6307">
        <ele>1310.5</ele>
        <time>2021-08-11T09:22:07Z</time>
      </trkpt>
      <trkpt lat="45.11612" lon="2.63071">
        <ele>1310.6</ele>
        <time>2021-08-11T09:22:08Z</time>
      </trkpt>
      <trkpt lat="45.11612" lon="2.63072">
        <ele>1310.7</ele>
        <time>2021-08-11T09:22:09Z</time>
      </trkpt>
      <trkpt lat="45.11613" lon="2.63072">
        <ele>1310.8</ele>
        <time>2021-08-11T09:22:10Z</time>
      </trkpt>
      <trkpt lat="45.11613" lon="2.63073">
        <ele>1310.9</ele>
        <time>2021-08-11T09:22:11Z</time>
      </trkpt>
      <trkpt lat="45.11614" lon="2.63074">
        <ele>1311</ele>
        <time>2021-08-11T09:22:12Z</time>
      </trkpt>
      <trkpt lat="45.11614" lon="2.63075">
        <ele>1311.1</ele>
        <time>2021-08-11T09:22:13Z</time>
      </trkpt>
      <trkpt lat="45.11614" lon="2.63076">
        <ele>1311.2</ele>
        <time>2021-08-11T09:22:14Z</time>
      </trkpt>
      <trkpt lat="45.11614" lon="2.63076">
        <ele>1311.2</ele>
        <time>2021-08-11T09:22:15Z</time>
      </trkpt>
      <trkpt lat="45.11614" lon="2.63076">
        <ele>1311.2</ele>
        <time>2021-08-11T09:22:16Z</time>
      </trkpt>
      <trkpt lat="45.11614" lon="2.63077">
        <ele>1311.3</ele>
        <time>2021-08-11T09:22:17Z</time>
      </trkpt>
      <trkpt lat="45.11614" lon="2.63077">
        <ele>1311.3</ele>
        <time>2021-08-11T09:22:18Z</time>
      </trkpt>
      <trkpt lat="45.11615" lon="2.63078">
        <ele>1311.4</ele>
        <time>2021-08-11T09:22:19Z</time>
      </trkpt>
      <trkpt lat="45.11615" lon="2.63078">
        <ele>1311.5</ele>
        <time>2021-08-11T09:22:20Z</time>
      </trkpt>
      <trkpt lat="45.11615" lon="2.63079">
        <ele>1311.6</ele>
        <time>2021-08-11T09:22:21Z</time>
      </trkpt>
      <trkpt lat="45.11616" lon="2.6308">
        <ele>1311.7</ele>
        <time>2021-08-11T09:22:22Z</time>
      </trkpt>
      <trkpt lat="45.11616" lon="2.63081">
        <ele>1311.8</ele>
        <time>2021-08-11T09:22:23Z</time>
      </trkpt>
      <trkpt lat="45.11616" lon="2.63082">
        <ele>1311.8</ele>
        <time>2021-08-11T09:22:24Z</time>
      </trkpt>
      <trkpt lat="45.11617" lon="2.63083">
        <ele>1311.9</ele>
        <time>2021-08-11T09:22:25Z</time>
      </trkpt>
      <trkpt lat="45.11617" lon="2.63084">
        <ele>1312.1</ele>
        <time>2021-08-11T09:22:26Z</time>
      </trkpt>
      <trkpt lat="45.11618" lon="2.63085">
        <ele>1312.2</ele>
        <time>2021-08-11T09:22:27Z</time>
      </trkpt>
      <trkpt lat="45.11618" lon="2.63086">
        <ele>1312.3</ele>
        <time>2021-08-11T09:22:28Z</time>
      </trkpt>
      <trkpt lat="45.11618" lon="2.63087">
        <ele>1312.4</ele>
        <time>2021-08-11T09:22:29Z</time>
      </trkpt>
      <trkpt lat="45.11619" lon="2.63087">
        <ele>1312.5</ele>
        <time>2021-08-11T09:22:30Z</time>
      </trkpt>
      <trkpt lat="45.11619" lon="2.63088">
        <ele>1312.7</ele>
        <time>2021-08-11T09:22:31Z</time>
      </trkpt>
      <trkpt lat="45.1162" lon="2.63089">
        <ele>1312.8</ele>
        <time>2021-08-11T09:22:32Z</time>
      </trkpt>
      <trkpt lat="45.1162" lon="2.6309">
        <ele>1312.9</ele>
        <time>2021-08-11T09:22:33Z</time>
      </trkpt>
      <trkpt lat="45.1162" lon="2.63091">
        <ele>1313</ele>
        <time>2021-08-11T09:22:34Z</time>
      </trkpt>
      <trkpt lat="45.11621" lon="2.63091">
        <ele>1313.1</ele>
        <time>2021-08-11T09:22:35Z</time>
      </trkpt>
      <trkpt lat="45.11621" lon="2.63092">
        <ele>1313.2</ele>
        <time>2021-08-11T09:22:36Z</time>
      </trkpt>
      <trkpt lat="45.11621" lon="2.63094">
        <ele>1313.3</ele>
        <time>2021-08-11T09:22:37Z</time>
      </trkpt>
      <trkpt lat="45.11621" lon="2.63095">
        <ele>1313.4</ele>
        <time>2021-08-11T09:22:38Z</time>
      </trkpt>
      <trkpt lat="45.11621" lon="2.63096">
        <ele>1313.4</ele>
        <time>2021-08-11T09:22:39Z</time>
      </trkpt>
      <trkpt lat="45.1162" lon="2.63097">
        <ele>1313.5</ele>
        <time>2021-08-11T09:22:40Z</time>
      </trkpt>
      <trkpt lat="45.1162" lon="2.63098">
        <ele>1313.5</ele>
        <time>2021-08-11T09:22:41Z</time>
      </trkpt>
      <trkpt lat="45.1162" lon="2.63099">
        <ele>1313.5</ele>
        <time>2021-08-11T09:22:42Z</time>
      </trkpt>
      <trkpt lat="45.1162" lon="2.63099">
        <ele>1313.6</ele>
        <time>2021-08-11T09:22:43Z</time>
      </trkpt>
      <trkpt lat="45.1162" lon="2.63101">
        <ele>1313.7</ele>
        <time>2021-08-11T09:22:44Z</time>
      </trkpt>
      <trkpt lat="45.11619" lon="2.63102">
        <ele>1313.7</ele>
        <time>2021-08-11T09:22:45Z</time>
      </trkpt>
      <trkpt lat="45.11619" lon="2.63102">
        <ele>1313.8</ele>
        <time>2021-08-11T09:22:46Z</time>
      </trkpt>
      <trkpt lat="45.11619" lon="2.63104">
        <ele>1313.8</ele>
        <time>2021-08-11T09:22:47Z</time>
      </trkpt>
      <trkpt lat="45.11619" lon="2.63104">
        <ele>1313.8</ele>
        <time>2021-08-11T09:22:48Z</time>
      </trkpt>
      <trkpt lat="45.11618" lon="2.63105">
        <ele>1313.9</ele>
        <time>2021-08-11T09:22:49Z</time>
      </trkpt>
      <trkpt lat="45.11618" lon="2.63107">
        <ele>1314</ele>
        <time>2021-08-11T09:22:50Z</time>
      </trkpt>
      <trkpt lat="45.11619" lon="2.63107">
        <ele>1314.1</ele>
        <time>2021-08-11T09:22:51Z</time>
      </trkpt>
      <trkpt lat="45.11619" lon="2.63108">
        <ele>1314.1</ele>
        <time>2021-08-11T09:22:52Z</time>
      </trkpt>
      <trkpt lat="45.11619" lon="2.63109">
        <ele>1314.2</ele>
        <time>2021-08-11T09:22:53Z</time>
      </trkpt>
      <trkpt lat="45.11618" lon="2.6311">
        <ele>1314.2</ele>
        <time>2021-08-11T09:22:54Z</time>
      </trkpt>
      <trkpt lat="45.11618" lon="2.63111">
        <ele>1314.3</ele>
        <time>2021-08-11T09:22:55Z</time>
      </trkpt>
      <trkpt lat="45.11618" lon="2.63112">
        <ele>1314.4</ele>
        <time>2021-08-11T09:22:56Z</time>
      </trkpt>
      <trkpt lat="45.11619" lon="2.63112">
        <ele>1314.5</ele>
        <time>2021-08-11T09:22:57Z</time>
      </trkpt>
      <trkpt lat="45.11619" lon="2.63113">
        <ele>1314.6</ele>
        <time>2021-08-11T09:22:58Z</time>
      </trkpt>
      <trkpt lat="45.11619" lon="2.63114">
        <ele>1314.6</ele>
        <time>2021-08-11T09:22:59Z</time>
      </trkpt>
      <trkpt lat="45.11619" lon="2.63115">
        <ele>1314.7</ele>
        <time>2021-08-11T09:23:00Z</time>
      </trkpt>
      <trkpt lat="45.1162" lon="2.63116">
        <ele>1314.9</ele>
        <time>2021-08-11T09:23:01Z</time>
      </trkpt>
      <trkpt lat="45.1162" lon="2.63117">
        <ele>1315</ele>
        <time>2021-08-11T09:23:02Z</time>
      </trkpt>
      <trkpt lat="45.1162" lon="2.63118">
        <ele>1315.1</ele>
        <time>2021-08-11T09:23:03Z</time>
      </trkpt>
      <trkpt lat="45.11621" lon="2.63119">
        <ele>1315.2</ele>
        <time>2021-08-11T09:23:04Z</time>
      </trkpt>
      <trkpt lat="45.11621" lon="2.6312">
        <ele>1315.3</ele>
        <time>2021-08-11T09:23:05Z</time>
      </trkpt>
      <trkpt lat="45.11621" lon="2.6312">
        <ele>1315.3</ele>
        <time>2021-08-11T09:23:06Z</time>
      </trkpt>
      <trkpt lat="45.11621" lon="2.6312">
        <ele>1315.4</ele>
        <time>2021-08-11T09:23:07Z</time>
      </trkpt>
      <trkpt lat="45.11621" lon="2.63121">
        <ele>1315.5</ele>
        <time>2021-08-11T09:23:08Z</time>
      </trkpt>
      <trkpt lat="45.11622" lon="2.63122">
        <ele>1315.6</ele>
        <time>2021-08-11T09:23:09Z</time>
      </trkpt>
      <trkpt lat="45.11622" lon="2.63123">
        <ele>1315.7</ele>
        <time>2021-08-11T09:23:10Z</time>
      </trkpt>
      <trkpt lat="45.11622" lon="2.63125">
        <ele>1315.9</ele>
        <time>2021-08-11T09:23:11Z</time>
      </trkpt>
      <trkpt lat="45.11622" lon="2.63126">
        <ele>1315.9</ele>
        <time>2021-08-11T09:23:12Z</time>
      </trkpt>
      <trkpt lat="45.11622" lon="2.63127">
        <ele>1316</ele>
        <time>2021-08-11T09:23:13Z</time>
      </trkpt>
      <trkpt lat="45.11622" lon="2.63127">
        <ele>1316</ele>
        <time>2021-08-11T09:23:14Z</time>
      </trkpt>
      <trkpt lat="45.11622" lon="2.63128">
        <ele>1316.1</ele>
        <time>2021-08-11T09:23:15Z</time>
      </trkpt>
      <trkpt lat="45.11623" lon="2.63129">
        <ele>1316.3</ele>
        <time>2021-08-11T09:23:16Z</time>
      </trkpt>
      <trkpt lat="45.11623" lon="2.6313">
        <ele>1316.4</ele>
        <time>2021-08-11T09:23:17Z</time>
      </trkpt>
      <trkpt lat="45.11623" lon="2.63131">
        <ele>1316.5</ele>
        <time>2021-08-11T09:23:18Z</time>
      </trkpt>
      <trkpt lat="45.11624" lon="2.63132">
        <ele>1316.6</ele>
        <time>2021-08-11T09:23:19Z</time>
      </trkpt>
      <trkpt lat="45.11624" lon="2.63133">
        <ele>1316.7</ele>
        <time>2021-08-11T09:23:20Z</time>
      </trkpt>
      <trkpt lat="45.11624" lon="2.63134">
        <ele>1316.8</ele>
        <time>2021-08-11T09:23:21Z</time>
      </trkpt>
      <trkpt lat="45.11625" lon="2.63134">
        <ele>1316.9</ele>
        <time>2021-08-11T09:23:22Z</time>
      </trkpt>
      <trkpt lat="45.11625" lon="2.63135">
        <ele>1317</ele>
        <time>2021-08-11T09:23:23Z</time>
      </trkpt>
      <trkpt lat="45.11625" lon="2.63136">
        <ele>1317.1</ele>
        <time>2021-08-11T09:23:24Z</time>
      </trkpt>
      <trkpt lat="45.11626" lon="2.63137">
        <ele>1317.2</ele>
        <time>2021-08-11T09:23:25Z</time>
      </trkpt>
      <trkpt lat="45.11626" lon="2.63138">
        <ele>1317.4</ele>
        <time>2021-08-11T09:23:26Z</time>
      </trkpt>
      <trkpt lat="45.11627" lon="2.63138">
        <ele>1317.5</ele>
        <time>2021-08-11T09:23:27Z</time>
      </trkpt>
      <trkpt lat="45.11627" lon="2.63139">
        <ele>1317.6</ele>
        <time>2021-08-11T09:23:28Z</time>
      </trkpt>
      <trkpt lat="45.11628" lon="2.6314">
        <ele>1317.7</ele>
        <time>2021-08-11T09:23:29Z</time>
      </trkpt>
      <trkpt lat="45.11628" lon="2.63141">
        <ele>1317.8</ele>
        <time>2021-08-11T09:23:30Z</time>
      </trkpt>
      <trkpt lat="45.11629" lon="2.63142">
        <ele>1318</ele>
        <time>2021-08-11T09:23:31Z</time>
      </trkpt>
      <trkpt lat="45.11629" lon="2.63142">
        <ele>1318.1</ele>
        <time>2021-08-11T09:23:32Z</time>
      </trkpt>
      <trkpt lat="45.1163" lon="2.63143">
        <ele>1318.2</ele>
        <time>2021-08-11T09:23:33Z</time>
      </trkpt>
      <trkpt lat="45.1163" lon="2.63144">
        <ele>1318.4</ele>
        <time>2021-08-11T09:23:34Z</time>
      </trkpt>
      <trkpt lat="45.1163" lon="2.63145">
        <ele>1318.5</ele>
        <time>2021-08-11T09:23:35Z</time>
      </trkpt>
      <trkpt lat="45.11631" lon="2.63146">
        <ele>1318.6</ele>
        <time>2021-08-11T09:23:36Z</time>
      </trkpt>
      <trkpt lat="45.11631" lon="2.63147">
        <ele>1318.7</ele>
        <time>2021-08-11T09:23:37Z</time>
      </trkpt>
      <trkpt lat="45.11632" lon="2.63148">
        <ele>1318.8</ele>
        <time>2021-08-11T09:23:38Z</time>
      </trkpt>
      <trkpt lat="45.11632" lon="2.63148">
        <ele>1318.9</ele>
        <time>2021-08-11T09:23:39Z</time>
      </trkpt>
      <trkpt lat="45.11632" lon="2.63149">
        <ele>1319.1</ele>
        <time>2021-08-11T09:23:40Z</time>
      </trkpt>
      <trkpt lat="45.11633" lon="2.6315">
        <ele>1319.2</ele>
        <time>2021-08-11T09:23:41Z</time>
      </trkpt>
      <trkpt lat="45.11633" lon="2.63151">
        <ele>1319.3</ele>
        <time>2021-08-11T09:23:42Z</time>
      </trkpt>
      <trkpt lat="45.11634" lon="2.63152">
        <ele>1319.4</ele>
        <time>2021-08-11T09:23:43Z</time>
      </trkpt>
      <trkpt lat="45.11634" lon="2.63152">
        <ele>1319.6</ele>
        <time>2021-08-11T09:23:44Z</time>
      </trkpt>
      <trkpt lat="45.11634" lon="2.63153">
        <ele>1319.7</ele>
        <time>2021-08-11T09:23:45Z</time>
      </trkpt>
      <trkpt lat="45.11635" lon="2.63154">
        <ele>1319.8</ele>
        <time>2021-08-11T09:23:46Z</time>
      </trkpt>
      <trkpt lat="45.11635" lon="2.63155">
        <ele>1319.9</ele>
        <time>2021-08-11T09:23:47Z</time>
      </trkpt>
      <trkpt lat="45.11635" lon="2.63156">
        <ele>1320</ele>
        <time>2021-08-11T09:23:48Z</time>
      </trkpt>
      <trkpt lat="45.11636" lon="2.63157">
        <ele>1320.1</ele>
        <time>2021-08-11T09:23:49Z</time>
      </trkpt>
      <trkpt lat="45.11636" lon="2.63158">
        <ele>1320.3</ele>
        <time>2021-08-11T09:23:50Z</time>
      </trkpt>
      <trkpt lat="45.11637" lon="2.63159">
        <ele>1320.4</ele>
        <time>2021-08-11T09:23:51Z</time>
      </trkpt>
      <trkpt lat="45.11637" lon="2.63159">
        <ele>1320.5</ele>
        <time>2021-08-11T09:23:52Z</time>
      </trkpt>
      <trkpt lat="45.11638" lon="2.6316">
        <ele>1320.7</ele>
        <time>2021-08-11T09:23:53Z</time>
      </trkpt>
      <trkpt lat="45.11638" lon="2.63161">
        <ele>1320.8</ele>
        <time>2021-08-11T09:23:54Z</time>
      </trkpt>
      <trkpt lat="45.11639" lon="2.63162">
        <ele>1321</ele>
        <time>2021-08-11T09:23:55Z</time>
      </trkpt>
      <trkpt lat="45.1164" lon="2.63163">
        <ele>1321.1</ele>
        <time>2021-08-11T09:23:56Z</time>
      </trkpt>
      <trkpt lat="45.1164" lon="2.63163">
        <ele>1321.2</ele>
        <time>2021-08-11T09:23:57Z</time>
      </trkpt>
      <trkpt lat="45.11641" lon="2.63164">
        <ele>1321.4</ele>
        <time>2021-08-11T09:23:58Z</time>
      </trkpt>
      <trkpt lat="45.11642" lon="2.63164">
        <ele>1321.5</ele>
        <time>2021-08-11T09:23:59Z</time>
      </trkpt>
      <trkpt lat="45.11642" lon="2.63165">
        <ele>1321.7</ele>
        <time>2021-08-11T09:24:00Z</time>
      </trkpt>
      <trkpt lat="45.11643" lon="2.63166">
        <ele>1321.8</ele>
        <time>2021-08-11T09:24:01Z</time>
      </trkpt>
      <trkpt lat="45.11643" lon="2.63167">
        <ele>1322</ele>
        <time>2021-08-11T09:24:02Z</time>
      </trkpt>
      <trkpt lat="45.11644" lon="2.63168">
        <ele>1322.1</ele>
        <time>2021-08-11T09:24:03Z</time>
      </trkpt>
      <trkpt lat="45.11644" lon="2.63168">
        <ele>1322.2</ele>
        <time>2021-08-11T09:24:04Z</time>
      </trkpt>
      <trkpt lat="45.11645" lon="2.63169">
        <ele>1322.4</ele>
        <time>2021-08-11T09:24:05Z</time>
      </trkpt>
      <trkpt lat="45.11646" lon="2.6317">
        <ele>1322.6</ele>
        <time>2021-08-11T09:24:06Z</time>
      </trkpt>
      <trkpt lat="45.11646" lon="2.63171">
        <ele>1322.7</ele>
        <time>2021-08-11T09:24:07Z</time>
      </trkpt>
      <trkpt lat="45.11647" lon="2.63172">
        <ele>1322.9</ele>
        <time>2021-08-11T09:24:08Z</time>
      </trkpt>
      <trkpt lat="45.11647" lon="2.63172">
        <ele>1323</ele>
        <time>2021-08-11T09:24:09Z</time>
      </trkpt>
      <trkpt lat="45.11648" lon="2.63173">
        <ele>1323.2</ele>
        <time>2021-08-11T09:24:10Z</time>
      </trkpt>
      <trkpt lat="45.11649" lon="2.63173">
        <ele>1323.3</ele>
        <time>2021-08-11T09:24:11Z</time>
      </trkpt>
      <trkpt lat="45.11649" lon="2.63173">
        <ele>1323.4</ele>
        <time>2021-08-11T09:24:12Z</time>
      </trkpt>
      <trkpt lat="45.1165" lon="2.63174">
        <ele>1323.5</ele>
        <time>2021-08-11T09:24:13Z</time>
      </trkpt>
      <trkpt lat="45.1165" lon="2.63174">
        <ele>1323.6</ele>
        <time>2021-08-11T09:24:14Z</time>
      </trkpt>
      <trkpt lat="45.11651" lon="2.63174">
        <ele>1323.7</ele>
        <time>2021-08-11T09:24:15Z</time>
      </trkpt>
      <trkpt lat="45.11652" lon="2.63175">
        <ele>1323.8</ele>
        <time>2021-08-11T09:24:16Z</time>
      </trkpt>
      <trkpt lat="45.11653" lon="2.63175">
        <ele>1324</ele>
        <time>2021-08-11T09:24:17Z</time>
      </trkpt>
      <trkpt lat="45.11653" lon="2.63176">
        <ele>1324.1</ele>
        <time>2021-08-11T09:24:18Z</time>
      </trkpt>
      <trkpt lat="45.11654" lon="2.63176">
        <ele>1324.2</ele>
        <time>2021-08-11T09:24:19Z</time>
      </trkpt>
      <trkpt lat="45.11655" lon="2.63176">
        <ele>1324.4</ele>
        <time>2021-08-11T09:24:20Z</time>
      </trkpt>
      <trkpt lat="45.11655" lon="2.63177">
        <ele>1324.5</ele>
        <time>2021-08-11T09:24:21Z</time>
      </trkpt>
      <trkpt lat="45.11656" lon="2.63177">
        <ele>1324.6</ele>
        <time>2021-08-11T09:24:22Z</time>
      </trkpt>
      <trkpt lat="45.11656" lon="2.63177">
        <ele>1324.6</ele>
        <time>2021-08-11T09:24:23Z</time>
      </trkpt>
      <trkpt lat="45.11657" lon="2.63177">
        <ele>1324.7</ele>
        <time>2021-08-11T09:24:24Z</time>
      </trkpt>
      <trkpt lat="45.11658" lon="2.63177">
        <ele>1324.8</ele>
        <time>2021-08-11T09:24:25Z</time>
      </trkpt>
      <trkpt lat="45.11658" lon="2.63177">
        <ele>1324.9</ele>
        <time>2021-08-11T09:24:26Z</time>
      </trkpt>
      <trkpt lat="45.11659" lon="2.63177">
        <ele>1325</ele>
        <time>2021-08-11T09:24:27Z</time>
      </trkpt>
      <trkpt lat="45.1166" lon="2.63177">
        <ele>1325.1</ele>
        <time>2021-08-11T09:24:28Z</time>
      </trkpt>
      <trkpt lat="45.11661" lon="2.63177">
        <ele>1325.2</ele>
        <time>2021-08-11T09:24:29Z</time>
      </trkpt>
      <trkpt lat="45.11662" lon="2.63176">
        <ele>1325.3</ele>
        <time>2021-08-11T09:24:30Z</time>
      </trkpt>
      <trkpt lat="45.11662" lon="2.63176">
        <ele>1325.3</ele>
        <time>2021-08-11T09:24:31Z</time>
      </trkpt>
      <trkpt lat="45.11663" lon="2.63176">
        <ele>1325.4</ele>
        <time>2021-08-11T09:24:32Z</time>
      </trkpt>
      <trkpt lat="45.11664" lon="2.63176">
        <ele>1325.5</ele>
        <time>2021-08-11T09:24:33Z</time>
      </trkpt>
      <trkpt lat="45.11665" lon="2.63176">
        <ele>1325.6</ele>
        <time>2021-08-11T09:24:34Z</time>
      </trkpt>
      <trkpt lat="45.11666" lon="2.63176">
        <ele>1325.8</ele>
        <time>2021-08-11T09:24:35Z</time>
      </trkpt>
      <trkpt lat="45.11666" lon="2.63176">
        <ele>1325.9</ele>
        <time>2021-08-11T09:24:36Z</time>
      </trkpt>
      <trkpt lat="45.11667" lon="2.63177">
        <ele>1326.1</ele>
        <time>2021-08-11T09:24:37Z</time>
      </trkpt>
      <trkpt lat="45.11668" lon="2.63177">
        <ele>1326.4</ele>
        <time>2021-08-11T09:24:38Z</time>
      </trkpt>
      <trkpt lat="45.11668" lon="2.63178">
        <ele>1326.6</ele>
        <time>2021-08-11T09:24:39Z</time>
      </trkpt>
      <trkpt lat="45.11669" lon="2.63178">
        <ele>1326.9</ele>
        <time>2021-08-11T09:24:40Z</time>
      </trkpt>
      <trkpt lat="45.11669" lon="2.63179">
        <ele>1327.1</ele>
        <time>2021-08-11T09:24:41Z</time>
      </trkpt>
      <trkpt lat="45.1167" lon="2.63179">
        <ele>1327.4</ele>
        <time>2021-08-11T09:24:42Z</time>
      </trkpt>
      <trkpt lat="45.11671" lon="2.6318">
        <ele>1327.6</ele>
        <time>2021-08-11T09:24:43Z</time>
      </trkpt>
      <trkpt lat="45.11671" lon="2.6318">
        <ele>1327.8</ele>
        <time>2021-08-11T09:24:44Z</time>
      </trkpt>
      <trkpt lat="45.11672" lon="2.6318">
        <ele>1328.1</ele>
        <time>2021-08-11T09:24:45Z</time>
      </trkpt>
      <trkpt lat="45.11672" lon="2.6318">
        <ele>1328.3</ele>
        <time>2021-08-11T09:24:46Z</time>
      </trkpt>
      <trkpt lat="45.11673" lon="2.63181">
        <ele>1328.5</ele>
        <time>2021-08-11T09:24:47Z</time>
      </trkpt>
      <trkpt lat="45.11673" lon="2.63181">
        <ele>1328.7</ele>
        <time>2021-08-11T09:24:48Z</time>
      </trkpt>
      <trkpt lat="45.11674" lon="2.63181">
        <ele>1329.1</ele>
        <time>2021-08-11T09:24:49Z</time>
      </trkpt>
      <trkpt lat="45.11675" lon="2.63182">
        <ele>1329.5</ele>
        <time>2021-08-11T09:24:50Z</time>
      </trkpt>
      <trkpt lat="45.11676" lon="2.63182">
        <ele>1329.8</ele>
        <time>2021-08-11T09:24:51Z</time>
      </trkpt>
      <trkpt lat="45.11677" lon="2.63182">
        <ele>1330.1</ele>
        <time>2021-08-11T09:24:52Z</time>
      </trkpt>
      <trkpt lat="45.11678" lon="2.63182">
        <ele>1330.4</ele>
        <time>2021-08-11T09:24:53Z</time>
      </trkpt>
      <trkpt lat="45.11679" lon="2.63182">
        <ele>1330.8</ele>
        <time>2021-08-11T09:24:54Z</time>
      </trkpt>
      <trkpt lat="45.11679" lon="2.63182">
        <ele>1330.9</ele>
        <time>2021-08-11T09:24:55Z</time>
      </trkpt>
      <trkpt lat="45.1168" lon="2.63182">
        <ele>1331.2</ele>
        <time>2021-08-11T09:24:56Z</time>
      </trkpt>
      <trkpt lat="45.11681" lon="2.63183">
        <ele>1331.5</ele>
        <time>2021-08-11T09:24:57Z</time>
      </trkpt>
      <trkpt lat="45.11681" lon="2.63183">
        <ele>1331.6</ele>
        <time>2021-08-11T09:24:58Z</time>
      </trkpt>
      <trkpt lat="45.11681" lon="2.63184">
        <ele>1331.9</ele>
        <time>2021-08-11T09:24:59Z</time>
      </trkpt>
      <trkpt lat="45.11682" lon="2.63185">
        <ele>1332.2</ele>
        <time>2021-08-11T09:25:00Z</time>
      </trkpt>
      <trkpt lat="45.11682" lon="2.63186">
        <ele>1332.3</ele>
        <time>2021-08-11T09:25:01Z</time>
      </trkpt>
      <trkpt lat="45.11682" lon="2.63188">
        <ele>1332.6</ele>
        <time>2021-08-11T09:25:02Z</time>
      </trkpt>
      <trkpt lat="45.11683" lon="2.63189">
        <ele>1332.9</ele>
        <time>2021-08-11T09:25:03Z</time>
      </trkpt>
      <trkpt lat="45.11683" lon="2.6319">
        <ele>1333</ele>
        <time>2021-08-11T09:25:04Z</time>
      </trkpt>
      <trkpt lat="45.11683" lon="2.63191">
        <ele>1333</ele>
        <time>2021-08-11T09:25:05Z</time>
      </trkpt>
      <trkpt lat="45.11683" lon="2.63191">
        <ele>1333</ele>
        <time>2021-08-11T09:25:06Z</time>
      </trkpt>
      <trkpt lat="45.11683" lon="2.63191">
        <ele>1333</ele>
        <time>2021-08-11T09:25:07Z</time>
      </trkpt>
      <trkpt lat="45.11683" lon="2.63191">
        <ele>1333.2</ele>
        <time>2021-08-11T09:25:08Z</time>
      </trkpt>
      <trkpt lat="45.11683" lon="2.63192">
        <ele>1333.4</ele>
        <time>2021-08-11T09:25:09Z</time>
      </trkpt>
      <trkpt lat="45.11684" lon="2.63192">
        <ele>1333.6</ele>
        <time>2021-08-11T09:25:10Z</time>
      </trkpt>
      <trkpt lat="45.11684" lon="2.63193">
        <ele>1333.8</ele>
        <time>2021-08-11T09:25:11Z</time>
      </trkpt>
      <trkpt lat="45.11684" lon="2.63194">
        <ele>1334.1</ele>
        <time>2021-08-11T09:25:12Z</time>
      </trkpt>
      <trkpt lat="45.11685" lon="2.63195">
        <ele>1334.3</ele>
        <time>2021-08-11T09:25:13Z</time>
      </trkpt>
      <trkpt lat="45.11685" lon="2.63196">
        <ele>1334.5</ele>
        <time>2021-08-11T09:25:14Z</time>
      </trkpt>
      <trkpt lat="45.11685" lon="2.63197">
        <ele>1334.7</ele>
        <time>2021-08-11T09:25:15Z</time>
      </trkpt>
      <trkpt lat="45.11686" lon="2.63197">
        <ele>1334.9</ele>
        <time>2021-08-11T09:25:16Z</time>
      </trkpt>
      <trkpt lat="45.11686" lon="2.63198">
        <ele>1335</ele>
        <time>2021-08-11T09:25:17Z</time>
      </trkpt>
      <trkpt lat="45.11686" lon="2.63198">
        <ele>1335.2</ele>
        <time>2021-08-11T09:25:18Z</time>
      </trkpt>
      <trkpt lat="45.11687" lon="2.63199">
        <ele>1335.3</ele>
        <time>2021-08-11T09:25:19Z</time>
      </trkpt>
      <trkpt lat="45.11687" lon="2.63199">
        <ele>1335.5</ele>
        <time>2021-08-11T09:25:20Z</time>
      </trkpt>
      <trkpt lat="45.11687" lon="2.632">
        <ele>1335.7</ele>
        <time>2021-08-11T09:25:21Z</time>
      </trkpt>
      <trkpt lat="45.11687" lon="2.632">
        <ele>1335.8</ele>
        <time>2021-08-11T09:25:22Z</time>
      </trkpt>
      <trkpt lat="45.11688" lon="2.63201">
        <ele>1336</ele>
        <time>2021-08-11T09:25:23Z</time>
      </trkpt>
      <trkpt lat="45.11688" lon="2.63202">
        <ele>1336.2</ele>
        <time>2021-08-11T09:25:24Z</time>
      </trkpt>
      <trkpt lat="45.11688" lon="2.63202">
        <ele>1336.4</ele>
        <time>2021-08-11T09:25:25Z</time>
      </trkpt>
      <trkpt lat="45.11688" lon="2.63203">
        <ele>1336.5</ele>
        <time>2021-08-11T09:25:26Z</time>
      </trkpt>
      <trkpt lat="45.11688" lon="2.63204">
        <ele>1336.5</ele>
        <time>2021-08-11T09:25:27Z</time>
      </trkpt>
      <trkpt lat="45.11688" lon="2.63205">
        <ele>1336.5</ele>
        <time>2021-08-11T09:25:28Z</time>
      </trkpt>
      <trkpt lat="45.11688" lon="2.63205">
        <ele>1336.5</ele>
        <time>2021-08-11T09:25:29Z</time>
      </trkpt>
      <trkpt lat="45.11688" lon="2.63206">
        <ele>1336.6</ele>
        <time>2021-08-11T09:25:30Z</time>
      </trkpt>
      <trkpt lat="45.11688" lon="2.63207">
        <ele>1336.9</ele>
        <time>2021-08-11T09:25:31Z</time>
      </trkpt>
      <trkpt lat="45.11688" lon="2.63208">
        <ele>1337</ele>
        <time>2021-08-11T09:25:32Z</time>
      </trkpt>
      <trkpt lat="45.11689" lon="2.63209">
        <ele>1337.1</ele>
        <time>2021-08-11T09:25:33Z</time>
      </trkpt>
      <trkpt lat="45.11689" lon="2.63209">
        <ele>1337.3</ele>
        <time>2021-08-11T09:25:34Z</time>
      </trkpt>
      <trkpt lat="45.11689" lon="2.6321">
        <ele>1337.5</ele>
        <time>2021-08-11T09:25:35Z</time>
      </trkpt>
      <trkpt lat="45.11689" lon="2.63211">
        <ele>1337.6</ele>
        <time>2021-08-11T09:25:36Z</time>
      </trkpt>
      <trkpt lat="45.1169" lon="2.63211">
        <ele>1337.8</ele>
        <time>2021-08-11T09:25:37Z</time>
      </trkpt>
      <trkpt lat="45.1169" lon="2.63212">
        <ele>1338</ele>
        <time>2021-08-11T09:25:38Z</time>
      </trkpt>
      <trkpt lat="45.1169" lon="2.63213">
        <ele>1338.2</ele>
        <time>2021-08-11T09:25:39Z</time>
      </trkpt>
      <trkpt lat="45.11691" lon="2.63214">
        <ele>1338.4</ele>
        <time>2021-08-11T09:25:40Z</time>
      </trkpt>
      <trkpt lat="45.11691" lon="2.63214">
        <ele>1338.6</ele>
        <time>2021-08-11T09:25:41Z</time>
      </trkpt>
      <trkpt lat="45.11691" lon="2.63215">
        <ele>1338.8</ele>
        <time>2021-08-11T09:25:42Z</time>
      </trkpt>
      <trkpt lat="45.11691" lon="2.63216">
        <ele>1339</ele>
        <time>2021-08-11T09:25:43Z</time>
      </trkpt>
      <trkpt lat="45.11691" lon="2.63217">
        <ele>1339.1</ele>
        <time>2021-08-11T09:25:44Z</time>
      </trkpt>
      <trkpt lat="45.11691" lon="2.63217">
        <ele>1339.2</ele>
        <time>2021-08-11T09:25:45Z</time>
      </trkpt>
      <trkpt lat="45.11691" lon="2.63217">
        <ele>1339.2</ele>
        <time>2021-08-11T09:25:46Z</time>
      </trkpt>
      <trkpt lat="45.11691" lon="2.63217">
        <ele>1339.1</ele>
        <time>2021-08-11T09:25:47Z</time>
      </trkpt>
      <trkpt lat="45.11692" lon="2.63217">
        <ele>1339.2</ele>
        <time>2021-08-11T09:25:48Z</time>
      </trkpt>
      <trkpt lat="45.11692" lon="2.63217">
        <ele>1339.2</ele>
        <time>2021-08-11T09:25:49Z</time>
      </trkpt>
      <trkpt lat="45.11692" lon="2.63217">
        <ele>1339.3</ele>
        <time>2021-08-11T09:25:50Z</time>
      </trkpt>
      <trkpt lat="45.11692" lon="2.63217">
        <ele>1339.3</ele>
        <time>2021-08-11T09:25:51Z</time>
      </trkpt>
      <trkpt lat="45.11692" lon="2.63217">
        <ele>1339.3</ele>
        <time>2021-08-11T09:25:52Z</time>
      </trkpt>
      <trkpt lat="45.11692" lon="2.63217">
        <ele>1339.4</ele>
        <time>2021-08-11T09:25:53Z</time>
      </trkpt>
      <trkpt lat="45.11692" lon="2.63217">
        <ele>1339.4</ele>
        <time>2021-08-11T09:25:54Z</time>
      </trkpt>
      <trkpt lat="45.11692" lon="2.63217">
        <ele>1339.3</ele>
        <time>2021-08-11T09:25:55Z</time>
      </trkpt>
      <trkpt lat="45.11691" lon="2.63218">
        <ele>1339.2</ele>
        <time>2021-08-11T09:25:56Z</time>
      </trkpt>
      <trkpt lat="45.11691" lon="2.63219">
        <ele>1339.3</ele>
        <time>2021-08-11T09:25:57Z</time>
      </trkpt>
      <trkpt lat="45.11691" lon="2.63219">
        <ele>1339.3</ele>
        <time>2021-08-11T09:25:58Z</time>
      </trkpt>
      <trkpt lat="45.11691" lon="2.6322">
        <ele>1339.3</ele>
        <time>2021-08-11T09:25:59Z</time>
      </trkpt>
      <trkpt lat="45.11691" lon="2.63221">
        <ele>1339.6</ele>
        <time>2021-08-11T09:26:00Z</time>
      </trkpt>
      <trkpt lat="45.11691" lon="2.63222">
        <ele>1339.7</ele>
        <time>2021-08-11T09:26:01Z</time>
      </trkpt>
      <trkpt lat="45.11691" lon="2.63223">
        <ele>1339.8</ele>
        <time>2021-08-11T09:26:02Z</time>
      </trkpt>
      <trkpt lat="45.11691" lon="2.63223">
        <ele>1339.8</ele>
        <time>2021-08-11T09:26:03Z</time>
      </trkpt>
      <trkpt lat="45.11691" lon="2.63224">
        <ele>1339.9</ele>
        <time>2021-08-11T09:26:04Z</time>
      </trkpt>
      <trkpt lat="45.11691" lon="2.63225">
        <ele>1340</ele>
        <time>2021-08-11T09:26:05Z</time>
      </trkpt>
      <trkpt lat="45.11692" lon="2.63225">
        <ele>1340.1</ele>
        <time>2021-08-11T09:26:06Z</time>
      </trkpt>
      <trkpt lat="45.11692" lon="2.63226">
        <ele>1340.3</ele>
        <time>2021-08-11T09:26:07Z</time>
      </trkpt>
      <trkpt lat="45.11692" lon="2.63227">
        <ele>1340.5</ele>
        <time>2021-08-11T09:26:08Z</time>
      </trkpt>
      <trkpt lat="45.11692" lon="2.63228">
        <ele>1340.6</ele>
        <time>2021-08-11T09:26:09Z</time>
      </trkpt>
      <trkpt lat="45.11692" lon="2.63229">
        <ele>1340.8</ele>
        <time>2021-08-11T09:26:10Z</time>
      </trkpt>
      <trkpt lat="45.11693" lon="2.6323">
        <ele>1341</ele>
        <time>2021-08-11T09:26:11Z</time>
      </trkpt>
      <trkpt lat="45.11693" lon="2.6323">
        <ele>1341.2</ele>
        <time>2021-08-11T09:26:12Z</time>
      </trkpt>
      <trkpt lat="45.11693" lon="2.63231">
        <ele>1341.4</ele>
        <time>2021-08-11T09:26:13Z</time>
      </trkpt>
      <trkpt lat="45.11694" lon="2.63232">
        <ele>1341.6</ele>
        <time>2021-08-11T09:26:14Z</time>
      </trkpt>
      <trkpt lat="45.11694" lon="2.63232">
        <ele>1341.8</ele>
        <time>2021-08-11T09:26:15Z</time>
      </trkpt>
      <trkpt lat="45.11694" lon="2.63234">
        <ele>1342</ele>
        <time>2021-08-11T09:26:16Z</time>
      </trkpt>
      <trkpt lat="45.11694" lon="2.63234">
        <ele>1342</ele>
        <time>2021-08-11T09:26:17Z</time>
      </trkpt>
      <trkpt lat="45.11694" lon="2.63236">
        <ele>1342.1</ele>
        <time>2021-08-11T09:26:18Z</time>
      </trkpt>
      <trkpt lat="45.11693" lon="2.63237">
        <ele>1342</ele>
        <time>2021-08-11T09:26:19Z</time>
      </trkpt>
      <trkpt lat="45.11693" lon="2.63237">
        <ele>1341.9</ele>
        <time>2021-08-11T09:26:20Z</time>
      </trkpt>
      <trkpt lat="45.11692" lon="2.63238">
        <ele>1341.7</ele>
        <time>2021-08-11T09:26:21Z</time>
      </trkpt>
      <trkpt lat="45.11692" lon="2.63238">
        <ele>1341.6</ele>
        <time>2021-08-11T09:26:22Z</time>
      </trkpt>
      <trkpt lat="45.11691" lon="2.63239">
        <ele>1341.5</ele>
        <time>2021-08-11T09:26:23Z</time>
      </trkpt>
      <trkpt lat="45.11691" lon="2.6324">
        <ele>1341.4</ele>
        <time>2021-08-11T09:26:24Z</time>
      </trkpt>
      <trkpt lat="45.11691" lon="2.63241">
        <ele>1341.5</ele>
        <time>2021-08-11T09:26:25Z</time>
      </trkpt>
      <trkpt lat="45.1169" lon="2.63242">
        <ele>1341.4</ele>
        <time>2021-08-11T09:26:26Z</time>
      </trkpt>
      <trkpt lat="45.1169" lon="2.63243">
        <ele>1341.3</ele>
        <time>2021-08-11T09:26:27Z</time>
      </trkpt>
      <trkpt lat="45.11689" lon="2.63244">
        <ele>1341.2</ele>
        <time>2021-08-11T09:26:28Z</time>
      </trkpt>
      <trkpt lat="45.11689" lon="2.63244">
        <ele>1341.1</ele>
        <time>2021-08-11T09:26:29Z</time>
      </trkpt>
      <trkpt lat="45.11689" lon="2.63245">
        <ele>1341.1</ele>
        <time>2021-08-11T09:26:30Z</time>
      </trkpt>
      <trkpt lat="45.11689" lon="2.63245">
        <ele>1341.2</ele>
        <time>2021-08-11T09:26:31Z</time>
      </trkpt>
      <trkpt lat="45.11689" lon="2.63246">
        <ele>1341.4</ele>
        <time>2021-08-11T09:26:32Z</time>
      </trkpt>
      <trkpt lat="45.11689" lon="2.63247">
        <ele>1341.6</ele>
        <time>2021-08-11T09:26:33Z</time>
      </trkpt>
      <trkpt lat="45.11689" lon="2.63248">
        <ele>1341.7</ele>
        <time>2021-08-11T09:26:34Z</time>
      </trkpt>
      <trkpt lat="45.11689" lon="2.63249">
        <ele>1341.8</ele>
        <time>2021-08-11T09:26:35Z</time>
      </trkpt>
      <trkpt lat="45.1169" lon="2.6325">
        <ele>1342.1</ele>
        <time>2021-08-11T09:26:36Z</time>
      </trkpt>
      <trkpt lat="45.1169" lon="2.6325">
        <ele>1342.2</ele>
        <time>2021-08-11T09:26:37Z</time>
      </trkpt>
      <trkpt lat="45.1169" lon="2.63252">
        <ele>1342.5</ele>
        <time>2021-08-11T09:26:38Z</time>
      </trkpt>
      <trkpt lat="45.1169" lon="2.63253">
        <ele>1342.7</ele>
        <time>2021-08-11T09:26:39Z</time>
      </trkpt>
      <trkpt lat="45.1169" lon="2.63253">
        <ele>1342.8</ele>
        <time>2021-08-11T09:26:40Z</time>
      </trkpt>
      <trkpt lat="45.1169" lon="2.63254">
        <ele>1342.9</ele>
        <time>2021-08-11T09:26:41Z</time>
      </trkpt>
      <trkpt lat="45.1169" lon="2.63256">
        <ele>1343.1</ele>
        <time>2021-08-11T09:26:42Z</time>
      </trkpt>
      <trkpt lat="45.1169" lon="2.63256">
        <ele>1343.1</ele>
        <time>2021-08-11T09:26:43Z</time>
      </trkpt>
      <trkpt lat="45.1169" lon="2.63257">
        <ele>1343.2</ele>
        <time>2021-08-11T09:26:44Z</time>
      </trkpt>
      <trkpt lat="45.1169" lon="2.63258">
        <ele>1343.3</ele>
        <time>2021-08-11T09:26:45Z</time>
      </trkpt>
      <trkpt lat="45.1169" lon="2.63259">
        <ele>1343.4</ele>
        <time>2021-08-11T09:26:46Z</time>
      </trkpt>
      <trkpt lat="45.1169" lon="2.6326">
        <ele>1343.6</ele>
        <time>2021-08-11T09:26:47Z</time>
      </trkpt>
      <trkpt lat="45.1169" lon="2.6326">
        <ele>1343.8</ele>
        <time>2021-08-11T09:26:48Z</time>
      </trkpt>
      <trkpt lat="45.1169" lon="2.63262">
        <ele>1343.9</ele>
        <time>2021-08-11T09:26:49Z</time>
      </trkpt>
      <trkpt lat="45.1169" lon="2.63263">
        <ele>1344.1</ele>
        <time>2021-08-11T09:26:50Z</time>
      </trkpt>
      <trkpt lat="45.1169" lon="2.63264">
        <ele>1344.2</ele>
        <time>2021-08-11T09:26:51Z</time>
      </trkpt>
      <trkpt lat="45.1169" lon="2.63265">
        <ele>1344.3</ele>
        <time>2021-08-11T09:26:52Z</time>
      </trkpt>
      <trkpt lat="45.1169" lon="2.63266">
        <ele>1344.4</ele>
        <time>2021-08-11T09:26:53Z</time>
      </trkpt>
      <trkpt lat="45.1169" lon="2.63266">
        <ele>1344.4</ele>
        <time>2021-08-11T09:26:54Z</time>
      </trkpt>
      <trkpt lat="45.1169" lon="2.63267">
        <ele>1344.6</ele>
        <time>2021-08-11T09:26:55Z</time>
      </trkpt>
      <trkpt lat="45.1169" lon="2.63268">
        <ele>1344.7</ele>
        <time>2021-08-11T09:26:56Z</time>
      </trkpt>
      <trkpt lat="45.1169" lon="2.63269">
        <ele>1344.8</ele>
        <time>2021-08-11T09:26:57Z</time>
      </trkpt>
      <trkpt lat="45.1169" lon="2.6327">
        <ele>1344.9</ele>
        <time>2021-08-11T09:26:58Z</time>
      </trkpt>
      <trkpt lat="45.1169" lon="2.63271">
        <ele>1345</ele>
        <time>2021-08-11T09:26:59Z</time>
      </trkpt>
      <trkpt lat="45.1169" lon="2.63271">
        <ele>1345.1</ele>
        <time>2021-08-11T09:27:00Z</time>
      </trkpt>
      <trkpt lat="45.1169" lon="2.63272">
        <ele>1345.2</ele>
        <time>2021-08-11T09:27:01Z</time>
      </trkpt>
      <trkpt lat="45.1169" lon="2.63273">
        <ele>1345.3</ele>
        <time>2021-08-11T09:27:02Z</time>
      </trkpt>
      <trkpt lat="45.1169" lon="2.63274">
        <ele>1345.5</ele>
        <time>2021-08-11T09:27:03Z</time>
      </trkpt>
      <trkpt lat="45.1169" lon="2.63275">
        <ele>1345.7</ele>
        <time>2021-08-11T09:27:04Z</time>
      </trkpt>
      <trkpt lat="45.1169" lon="2.63276">
        <ele>1345.8</ele>
        <time>2021-08-11T09:27:05Z</time>
      </trkpt>
      <trkpt lat="45.1169" lon="2.63276">
        <ele>1345.9</ele>
        <time>2021-08-11T09:27:06Z</time>
      </trkpt>
      <trkpt lat="45.1169" lon="2.63277">
        <ele>1346.1</ele>
        <time>2021-08-11T09:27:07Z</time>
      </trkpt>
      <trkpt lat="45.1169" lon="2.63278">
        <ele>1346.2</ele>
        <time>2021-08-11T09:27:08Z</time>
      </trkpt>
      <trkpt lat="45.1169" lon="2.63279">
        <ele>1346.3</ele>
        <time>2021-08-11T09:27:09Z</time>
      </trkpt>
      <trkpt lat="45.1169" lon="2.6328">
        <ele>1346.5</ele>
        <time>2021-08-11T09:27:10Z</time>
      </trkpt>
      <trkpt lat="45.11691" lon="2.63281">
        <ele>1346.7</ele>
        <time>2021-08-11T09:27:11Z</time>
      </trkpt>
      <trkpt lat="45.11691" lon="2.63281">
        <ele>1347</ele>
        <time>2021-08-11T09:27:12Z</time>
      </trkpt>
      <trkpt lat="45.11691" lon="2.63282">
        <ele>1347.2</ele>
        <time>2021-08-11T09:27:13Z</time>
      </trkpt>
      <trkpt lat="45.11692" lon="2.63283">
        <ele>1347.4</ele>
        <time>2021-08-11T09:27:14Z</time>
      </trkpt>
      <trkpt lat="45.11692" lon="2.63283">
        <ele>1347.7</ele>
        <time>2021-08-11T09:27:15Z</time>
      </trkpt>
      <trkpt lat="45.11692" lon="2.63284">
        <ele>1347.9</ele>
        <time>2021-08-11T09:27:16Z</time>
      </trkpt>
      <trkpt lat="45.11693" lon="2.63284">
        <ele>1348</ele>
        <time>2021-08-11T09:27:17Z</time>
      </trkpt>
      <trkpt lat="45.11693" lon="2.63285">
        <ele>1348.2</ele>
        <time>2021-08-11T09:27:18Z</time>
      </trkpt>
      <trkpt lat="45.11693" lon="2.63286">
        <ele>1348.4</ele>
        <time>2021-08-11T09:27:19Z</time>
      </trkpt>
      <trkpt lat="45.11693" lon="2.63286">
        <ele>1348.5</ele>
        <time>2021-08-11T09:27:20Z</time>
      </trkpt>
      <trkpt lat="45.11693" lon="2.63287">
        <ele>1348.7</ele>
        <time>2021-08-11T09:27:21Z</time>
      </trkpt>
      <trkpt lat="45.11693" lon="2.63289">
        <ele>1349</ele>
        <time>2021-08-11T09:27:22Z</time>
      </trkpt>
      <trkpt lat="45.11694" lon="2.63289">
        <ele>1349.1</ele>
        <time>2021-08-11T09:27:23Z</time>
      </trkpt>
      <trkpt lat="45.11694" lon="2.6329">
        <ele>1349.3</ele>
        <time>2021-08-11T09:27:24Z</time>
      </trkpt>
      <trkpt lat="45.11694" lon="2.63291">
        <ele>1349.5</ele>
        <time>2021-08-11T09:27:25Z</time>
      </trkpt>
      <trkpt lat="45.11694" lon="2.63292">
        <ele>1349.6</ele>
        <time>2021-08-11T09:27:26Z</time>
      </trkpt>
      <trkpt lat="45.11694" lon="2.63293">
        <ele>1349.9</ele>
        <time>2021-08-11T09:27:27Z</time>
      </trkpt>
      <trkpt lat="45.11694" lon="2.63294">
        <ele>1350</ele>
        <time>2021-08-11T09:27:28Z</time>
      </trkpt>
      <trkpt lat="45.11694" lon="2.63294">
        <ele>1350.1</ele>
        <time>2021-08-11T09:27:29Z</time>
      </trkpt>
      <trkpt lat="45.11695" lon="2.63295">
        <ele>1350.4</ele>
        <time>2021-08-11T09:27:30Z</time>
      </trkpt>
      <trkpt lat="45.11695" lon="2.63296">
        <ele>1350.6</ele>
        <time>2021-08-11T09:27:31Z</time>
      </trkpt>
      <trkpt lat="45.11695" lon="2.63297">
        <ele>1350.8</ele>
        <time>2021-08-11T09:27:32Z</time>
      </trkpt>
      <trkpt lat="45.11695" lon="2.63298">
        <ele>1351</ele>
        <time>2021-08-11T09:27:33Z</time>
      </trkpt>
      <trkpt lat="45.11696" lon="2.63298">
        <ele>1351.2</ele>
        <time>2021-08-11T09:27:34Z</time>
      </trkpt>
      <trkpt lat="45.11696" lon="2.63299">
        <ele>1351.4</ele>
        <time>2021-08-11T09:27:35Z</time>
      </trkpt>
      <trkpt lat="45.11696" lon="2.633">
        <ele>1351.6</ele>
        <time>2021-08-11T09:27:36Z</time>
      </trkpt>
      <trkpt lat="45.11696" lon="2.633">
        <ele>1351.8</ele>
        <time>2021-08-11T09:27:37Z</time>
      </trkpt>
      <trkpt lat="45.11697" lon="2.63301">
        <ele>1351.9</ele>
        <time>2021-08-11T09:27:38Z</time>
      </trkpt>
      <trkpt lat="45.11697" lon="2.63302">
        <ele>1352.2</ele>
        <time>2021-08-11T09:27:39Z</time>
      </trkpt>
      <trkpt lat="45.11697" lon="2.63302">
        <ele>1352.4</ele>
        <time>2021-08-11T09:27:40Z</time>
      </trkpt>
      <trkpt lat="45.11698" lon="2.63303">
        <ele>1352.6</ele>
        <time>2021-08-11T09:27:41Z</time>
      </trkpt>
      <trkpt lat="45.11698" lon="2.63304">
        <ele>1352.9</ele>
        <time>2021-08-11T09:27:42Z</time>
      </trkpt>
      <trkpt lat="45.11698" lon="2.63305">
        <ele>1352.9</ele>
        <time>2021-08-11T09:27:43Z</time>
      </trkpt>
      <trkpt lat="45.11698" lon="2.63305">
        <ele>1352.9</ele>
        <time>2021-08-11T09:27:44Z</time>
      </trkpt>
      <trkpt lat="45.11698" lon="2.63305">
        <ele>1352.9</ele>
        <time>2021-08-11T09:27:45Z</time>
      </trkpt>
      <trkpt lat="45.11698" lon="2.63305">
        <ele>1352.9</ele>
        <time>2021-08-11T09:27:46Z</time>
      </trkpt>
      <trkpt lat="45.11698" lon="2.63305">
        <ele>1352.9</ele>
        <time>2021-08-11T09:27:47Z</time>
      </trkpt>
      <trkpt lat="45.11698" lon="2.63305">
        <ele>1352.9</ele>
        <time>2021-08-11T09:27:48Z</time>
      </trkpt>
      <trkpt lat="45.11698" lon="2.63305">
        <ele>1352.9</ele>
        <time>2021-08-11T09:27:49Z</time>
      </trkpt>
      <trkpt lat="45.11698" lon="2.63305">
        <ele>1352.9</ele>
        <time>2021-08-11T09:27:50Z</time>
      </trkpt>
      <trkpt lat="45.11698" lon="2.63305">
        <ele>1352.9</ele>
        <time>2021-08-11T09:27:51Z</time>
      </trkpt>
      <trkpt lat="45.11698" lon="2.63305">
        <ele>1352.9</ele>
        <time>2021-08-11T09:27:52Z</time>
      </trkpt>
      <trkpt lat="45.11698" lon="2.63304">
        <ele>1352.9</ele>
        <time>2021-08-11T09:27:53Z</time>
      </trkpt>
      <trkpt lat="45.11698" lon="2.63304">
        <ele>1352.9</ele>
        <time>2021-08-11T09:27:54Z</time>
      </trkpt>
      <trkpt lat="45.11698" lon="2.63304">
        <ele>1352.9</ele>
        <time>2021-08-11T09:27:55Z</time>
      </trkpt>
      <trkpt lat="45.11698" lon="2.63304">
        <ele>1352.9</ele>
        <time>2021-08-11T09:27:56Z</time>
      </trkpt>
      <trkpt lat="45.11698" lon="2.63304">
        <ele>1352.9</ele>
        <time>2021-08-11T09:27:57Z</time>
      </trkpt>
      <trkpt lat="45.11698" lon="2.63304">
        <ele>1352.9</ele>
        <time>2021-08-11T09:27:58Z</time>
      </trkpt>
      <trkpt lat="45.11698" lon="2.63304">
        <ele>1352.9</ele>
        <time>2021-08-11T09:27:59Z</time>
      </trkpt>
      <trkpt lat="45.11698" lon="2.63304">
        <ele>1352.9</ele>
        <time>2021-08-11T09:28:00Z</time>
      </trkpt>
      <trkpt lat="45.11698" lon="2.63304">
        <ele>1352.9</ele>
        <time>2021-08-11T09:28:01Z</time>
      </trkpt>
      <trkpt lat="45.11698" lon="2.63304">
        <ele>1352.9</ele>
        <time>2021-08-11T09:28:02Z</time>
      </trkpt>
      <trkpt lat="45.11698" lon="2.63304">
        <ele>1352.9</ele>
        <time>2021-08-11T09:28:03Z</time>
      </trkpt>
      <trkpt lat="45.11698" lon="2.63304">
        <ele>1352.9</ele>
        <time>2021-08-11T09:28:04Z</time>
      </trkpt>
      <trkpt lat="45.11698" lon="2.63304">
        <ele>1352.9</ele>
        <time>2021-08-11T09:28:05Z</time>
      </trkpt>
      <trkpt lat="45.11698" lon="2.63304">
        <ele>1352.9</ele>
        <time>2021-08-11T09:28:06Z</time>
      </trkpt>
      <trkpt lat="45.11698" lon="2.63304">
        <ele>1352.9</ele>
        <time>2021-08-11T09:28:07Z</time>
      </trkpt>
      <trkpt lat="45.11698" lon="2.63304">
        <ele>1352.9</ele>
        <time>2021-08-11T09:28:08Z</time>
      </trkpt>
      <trkpt lat="45.11698" lon="2.63305">
        <ele>1352.9</ele>
        <time>2021-08-11T09:28:09Z</time>
      </trkpt>
      <trkpt lat="45.11698" lon="2.63305">
        <ele>1352.9</ele>
        <time>2021-08-11T09:28:10Z</time>
      </trkpt>
      <trkpt lat="45.11698" lon="2.63305">
        <ele>1352.9</ele>
        <time>2021-08-11T09:28:11Z</time>
      </trkpt>
      <trkpt lat="45.11698" lon="2.63305">
        <ele>1352.9</ele>
        <time>2021-08-11T09:28:12Z</time>
      </trkpt>
      <trkpt lat="45.11698" lon="2.63305">
        <ele>1352.9</ele>
        <time>2021-08-11T09:28:13Z</time>
      </trkpt>
      <trkpt lat="45.11698" lon="2.63305">
        <ele>1352.9</ele>
        <time>2021-08-11T09:28:14Z</time>
      </trkpt>
      <trkpt lat="45.11698" lon="2.63305">
        <ele>1352.9</ele>
        <time>2021-08-11T09:28:15Z</time>
      </trkpt>
      <trkpt lat="45.11698" lon="2.63305">
        <ele>1352.9</ele>
        <time>2021-08-11T09:28:16Z</time>
      </trkpt>
      <trkpt lat="45.11698" lon="2.63305">
        <ele>1352.8</ele>
        <time>2021-08-11T09:28:17Z</time>
      </trkpt>
      <trkpt lat="45.11697" lon="2.63305">
        <ele>1352.7</ele>
        <time>2021-08-11T09:28:18Z</time>
      </trkpt>
      <trkpt lat="45.11697" lon="2.63305">
        <ele>1352.6</ele>
        <time>2021-08-11T09:28:19Z</time>
      </trkpt>
      <trkpt lat="45.11697" lon="2.63305">
        <ele>1352.5</ele>
        <time>2021-08-11T09:28:20Z</time>
      </trkpt>
      <trkpt lat="45.11696" lon="2.63306">
        <ele>1352.5</ele>
        <time>2021-08-11T09:28:21Z</time>
      </trkpt>
      <trkpt lat="45.11696" lon="2.63306">
        <ele>1352.5</ele>
        <time>2021-08-11T09:28:22Z</time>
      </trkpt>
      <trkpt lat="45.11696" lon="2.63307">
        <ele>1352.7</ele>
        <time>2021-08-11T09:28:23Z</time>
      </trkpt>
      <trkpt lat="45.11697" lon="2.63308">
        <ele>1352.9</ele>
        <time>2021-08-11T09:28:24Z</time>
      </trkpt>
      <trkpt lat="45.11697" lon="2.63309">
        <ele>1353.1</ele>
        <time>2021-08-11T09:28:25Z</time>
      </trkpt>
      <trkpt lat="45.11697" lon="2.63309">
        <ele>1353.2</ele>
        <time>2021-08-11T09:28:26Z</time>
      </trkpt>
      <trkpt lat="45.11697" lon="2.6331">
        <ele>1353.3</ele>
        <time>2021-08-11T09:28:27Z</time>
      </trkpt>
      <trkpt lat="45.11697" lon="2.63311">
        <ele>1353.5</ele>
        <time>2021-08-11T09:28:28Z</time>
      </trkpt>
      <trkpt lat="45.11697" lon="2.63312">
        <ele>1353.7</ele>
        <time>2021-08-11T09:28:29Z</time>
      </trkpt>
      <trkpt lat="45.11698" lon="2.63313">
        <ele>1353.9</ele>
        <time>2021-08-11T09:28:30Z</time>
      </trkpt>
      <trkpt lat="45.11698" lon="2.63313">
        <ele>1354.2</ele>
        <time>2021-08-11T09:28:31Z</time>
      </trkpt>
      <trkpt lat="45.11698" lon="2.63314">
        <ele>1354.4</ele>
        <time>2021-08-11T09:28:32Z</time>
      </trkpt>
      <trkpt lat="45.11698" lon="2.63315">
        <ele>1354.6</ele>
        <time>2021-08-11T09:28:33Z</time>
      </trkpt>
      <trkpt lat="45.11698" lon="2.63316">
        <ele>1354.6</ele>
        <time>2021-08-11T09:28:34Z</time>
      </trkpt>
      <trkpt lat="45.11698" lon="2.63317">
        <ele>1354.7</ele>
        <time>2021-08-11T09:28:35Z</time>
      </trkpt>
      <trkpt lat="45.11698" lon="2.63318">
        <ele>1354.8</ele>
        <time>2021-08-11T09:28:36Z</time>
      </trkpt>
      <trkpt lat="45.11698" lon="2.63319">
        <ele>1354.9</ele>
        <time>2021-08-11T09:28:37Z</time>
      </trkpt>
      <trkpt lat="45.11698" lon="2.6332">
        <ele>1355</ele>
        <time>2021-08-11T09:28:38Z</time>
      </trkpt>
      <trkpt lat="45.11698" lon="2.63321">
        <ele>1355.2</ele>
        <time>2021-08-11T09:28:39Z</time>
      </trkpt>
      <trkpt lat="45.11698" lon="2.63322">
        <ele>1355.2</ele>
        <time>2021-08-11T09:28:40Z</time>
      </trkpt>
      <trkpt lat="45.11697" lon="2.63323">
        <ele>1355.3</ele>
        <time>2021-08-11T09:28:41Z</time>
      </trkpt>
      <trkpt lat="45.11697" lon="2.63323">
        <ele>1355.4</ele>
        <time>2021-08-11T09:28:42Z</time>
      </trkpt>
      <trkpt lat="45.11697" lon="2.63324">
        <ele>1355.4</ele>
        <time>2021-08-11T09:28:43Z</time>
      </trkpt>
      <trkpt lat="45.11697" lon="2.63324">
        <ele>1355.4</ele>
        <time>2021-08-11T09:28:44Z</time>
      </trkpt>
      <trkpt lat="45.11697" lon="2.63324">
        <ele>1355.4</ele>
        <time>2021-08-11T09:28:45Z</time>
      </trkpt>
      <trkpt lat="45.11697" lon="2.63324">
        <ele>1355.4</ele>
        <time>2021-08-11T09:28:46Z</time>
      </trkpt>
      <trkpt lat="45.11697" lon="2.63324">
        <ele>1355.4</ele>
        <time>2021-08-11T09:28:47Z</time>
      </trkpt>
      <trkpt lat="45.11697" lon="2.63324">
        <ele>1355.4</ele>
        <time>2021-08-11T09:28:48Z</time>
      </trkpt>
      <trkpt lat="45.11697" lon="2.63324">
        <ele>1355.5</ele>
        <time>2021-08-11T09:28:49Z</time>
      </trkpt>
      <trkpt lat="45.11697" lon="2.63325">
        <ele>1355.5</ele>
        <time>2021-08-11T09:28:50Z</time>
      </trkpt>
      <trkpt lat="45.11697" lon="2.63325">
        <ele>1355.6</ele>
        <time>2021-08-11T09:28:51Z</time>
      </trkpt>
      <trkpt lat="45.11697" lon="2.63326">
        <ele>1355.6</ele>
        <time>2021-08-11T09:28:52Z</time>
      </trkpt>
      <trkpt lat="45.11697" lon="2.63326">
        <ele>1355.6</ele>
        <time>2021-08-11T09:28:53Z</time>
      </trkpt>
      <trkpt lat="45.11697" lon="2.63326">
        <ele>1355.6</ele>
        <time>2021-08-11T09:28:54Z</time>
      </trkpt>
      <trkpt lat="45.11697" lon="2.63326">
        <ele>1355.6</ele>
        <time>2021-08-11T09:28:55Z</time>
      </trkpt>
      <trkpt lat="45.11697" lon="2.63326">
        <ele>1355.8</ele>
        <time>2021-08-11T09:28:56Z</time>
      </trkpt>
      <trkpt lat="45.11698" lon="2.63327">
        <ele>1355.9</ele>
        <time>2021-08-11T09:28:57Z</time>
      </trkpt>
      <trkpt lat="45.11698" lon="2.63327">
        <ele>1356</ele>
        <time>2021-08-11T09:28:58Z</time>
      </trkpt>
      <trkpt lat="45.11698" lon="2.63328">
        <ele>1356.2</ele>
        <time>2021-08-11T09:28:59Z</time>
      </trkpt>
      <trkpt lat="45.11698" lon="2.63329">
        <ele>1356.3</ele>
        <time>2021-08-11T09:29:00Z</time>
      </trkpt>
      <trkpt lat="45.11698" lon="2.6333">
        <ele>1356.5</ele>
        <time>2021-08-11T09:29:01Z</time>
      </trkpt>
      <trkpt lat="45.11698" lon="2.63331">
        <ele>1356.6</ele>
        <time>2021-08-11T09:29:02Z</time>
      </trkpt>
      <trkpt lat="45.11698" lon="2.63332">
        <ele>1356.7</ele>
        <time>2021-08-11T09:29:03Z</time>
      </trkpt>
      <trkpt lat="45.11698" lon="2.63333">
        <ele>1356.8</ele>
        <time>2021-08-11T09:29:04Z</time>
      </trkpt>
      <trkpt lat="45.11698" lon="2.63334">
        <ele>1356.9</ele>
        <time>2021-08-11T09:29:05Z</time>
      </trkpt>
      <trkpt lat="45.11697" lon="2.63334">
        <ele>1356.9</ele>
        <time>2021-08-11T09:29:06Z</time>
      </trkpt>
      <trkpt lat="45.11697" lon="2.63335">
        <ele>1357.1</ele>
        <time>2021-08-11T09:29:07Z</time>
      </trkpt>
      <trkpt lat="45.11698" lon="2.63336">
        <ele>1357.3</ele>
        <time>2021-08-11T09:29:08Z</time>
      </trkpt>
      <trkpt lat="45.11698" lon="2.63337">
        <ele>1357.5</ele>
        <time>2021-08-11T09:29:09Z</time>
      </trkpt>
      <trkpt lat="45.11698" lon="2.63338">
        <ele>1357.7</ele>
        <time>2021-08-11T09:29:10Z</time>
      </trkpt>
      <trkpt lat="45.11698" lon="2.63339">
        <ele>1357.9</ele>
        <time>2021-08-11T09:29:11Z</time>
      </trkpt>
      <trkpt lat="45.11698" lon="2.6334">
        <ele>1358</ele>
        <time>2021-08-11T09:29:12Z</time>
      </trkpt>
      <trkpt lat="45.11698" lon="2.63341">
        <ele>1358.1</ele>
        <time>2021-08-11T09:29:13Z</time>
      </trkpt>
      <trkpt lat="45.11698" lon="2.63342">
        <ele>1358.2</ele>
        <time>2021-08-11T09:29:14Z</time>
      </trkpt>
      <trkpt lat="45.11698" lon="2.63343">
        <ele>1358.4</ele>
        <time>2021-08-11T09:29:15Z</time>
      </trkpt>
      <trkpt lat="45.11698" lon="2.63344">
        <ele>1358.5</ele>
        <time>2021-08-11T09:29:16Z</time>
      </trkpt>
      <trkpt lat="45.11698" lon="2.63345">
        <ele>1358.6</ele>
        <time>2021-08-11T09:29:17Z</time>
      </trkpt>
      <trkpt lat="45.11698" lon="2.63346">
        <ele>1358.8</ele>
        <time>2021-08-11T09:29:18Z</time>
      </trkpt>
      <trkpt lat="45.11698" lon="2.63347">
        <ele>1358.9</ele>
        <time>2021-08-11T09:29:19Z</time>
      </trkpt>
      <trkpt lat="45.11698" lon="2.63348">
        <ele>1359</ele>
        <time>2021-08-11T09:29:20Z</time>
      </trkpt>
      <trkpt lat="45.11698" lon="2.63349">
        <ele>1359.2</ele>
        <time>2021-08-11T09:29:21Z</time>
      </trkpt>
      <trkpt lat="45.11698" lon="2.63351">
        <ele>1359.4</ele>
        <time>2021-08-11T09:29:22Z</time>
      </trkpt>
      <trkpt lat="45.11698" lon="2.63352">
        <ele>1359.5</ele>
        <time>2021-08-11T09:29:23Z</time>
      </trkpt>
      <trkpt lat="45.11698" lon="2.63353">
        <ele>1359.7</ele>
        <time>2021-08-11T09:29:24Z</time>
      </trkpt>
      <trkpt lat="45.11698" lon="2.63354">
        <ele>1359.9</ele>
        <time>2021-08-11T09:29:25Z</time>
      </trkpt>
      <trkpt lat="45.11698" lon="2.63355">
        <ele>1360.1</ele>
        <time>2021-08-11T09:29:26Z</time>
      </trkpt>
      <trkpt lat="45.11699" lon="2.63356">
        <ele>1360.4</ele>
        <time>2021-08-11T09:29:27Z</time>
      </trkpt>
      <trkpt lat="45.11699" lon="2.63356">
        <ele>1360.6</ele>
        <time>2021-08-11T09:29:28Z</time>
      </trkpt>
      <trkpt lat="45.11699" lon="2.63357">
        <ele>1360.8</ele>
        <time>2021-08-11T09:29:29Z</time>
      </trkpt>
      <trkpt lat="45.11699" lon="2.63358">
        <ele>1360.9</ele>
        <time>2021-08-11T09:29:30Z</time>
      </trkpt>
      <trkpt lat="45.11699" lon="2.63359">
        <ele>1361.1</ele>
        <time>2021-08-11T09:29:31Z</time>
      </trkpt>
      <trkpt lat="45.11699" lon="2.6336">
        <ele>1361.2</ele>
        <time>2021-08-11T09:29:32Z</time>
      </trkpt>
      <trkpt lat="45.11699" lon="2.63361">
        <ele>1361.4</ele>
        <time>2021-08-11T09:29:33Z</time>
      </trkpt>
      <trkpt lat="45.11699" lon="2.63362">
        <ele>1361.6</ele>
        <time>2021-08-11T09:29:34Z</time>
      </trkpt>
      <trkpt lat="45.11699" lon="2.63363">
        <ele>1361.8</ele>
        <time>2021-08-11T09:29:35Z</time>
      </trkpt>
      <trkpt lat="45.117" lon="2.63364">
        <ele>1361.9</ele>
        <time>2021-08-11T09:29:36Z</time>
      </trkpt>
      <trkpt lat="45.117" lon="2.63365">
        <ele>1362.1</ele>
        <time>2021-08-11T09:29:37Z</time>
      </trkpt>
      <trkpt lat="45.117" lon="2.63366">
        <ele>1362.4</ele>
        <time>2021-08-11T09:29:38Z</time>
      </trkpt>
      <trkpt lat="45.117" lon="2.63366">
        <ele>1362.6</ele>
        <time>2021-08-11T09:29:39Z</time>
      </trkpt>
      <trkpt lat="45.11701" lon="2.63367">
        <ele>1362.9</ele>
        <time>2021-08-11T09:29:40Z</time>
      </trkpt>
      <trkpt lat="45.11701" lon="2.63368">
        <ele>1363.2</ele>
        <time>2021-08-11T09:29:41Z</time>
      </trkpt>
      <trkpt lat="45.11701" lon="2.6337">
        <ele>1363.4</ele>
        <time>2021-08-11T09:29:42Z</time>
      </trkpt>
      <trkpt lat="45.11702" lon="2.63371">
        <ele>1363.6</ele>
        <time>2021-08-11T09:29:43Z</time>
      </trkpt>
      <trkpt lat="45.11702" lon="2.63372">
        <ele>1363.8</ele>
        <time>2021-08-11T09:29:44Z</time>
      </trkpt>
      <trkpt lat="45.11702" lon="2.63373">
        <ele>1364</ele>
        <time>2021-08-11T09:29:45Z</time>
      </trkpt>
      <trkpt lat="45.11702" lon="2.63374">
        <ele>1364.3</ele>
        <time>2021-08-11T09:29:46Z</time>
      </trkpt>
      <trkpt lat="45.11702" lon="2.63375">
        <ele>1364.4</ele>
        <time>2021-08-11T09:29:47Z</time>
      </trkpt>
      <trkpt lat="45.11702" lon="2.63375">
        <ele>1364.4</ele>
        <time>2021-08-11T09:29:48Z</time>
      </trkpt>
      <trkpt lat="45.11702" lon="2.63376">
        <ele>1364.4</ele>
        <time>2021-08-11T09:29:49Z</time>
      </trkpt>
      <trkpt lat="45.11701" lon="2.63377">
        <ele>1364.4</ele>
        <time>2021-08-11T09:29:50Z</time>
      </trkpt>
      <trkpt lat="45.11701" lon="2.63378">
        <ele>1364.5</ele>
        <time>2021-08-11T09:29:51Z</time>
      </trkpt>
      <trkpt lat="45.11701" lon="2.63378">
        <ele>1364.6</ele>
        <time>2021-08-11T09:29:52Z</time>
      </trkpt>
      <trkpt lat="45.11702" lon="2.63379">
        <ele>1364.8</ele>
        <time>2021-08-11T09:29:53Z</time>
      </trkpt>
      <trkpt lat="45.11702" lon="2.6338">
        <ele>1364.9</ele>
        <time>2021-08-11T09:29:54Z</time>
      </trkpt>
      <trkpt lat="45.11702" lon="2.63381">
        <ele>1365.1</ele>
        <time>2021-08-11T09:29:55Z</time>
      </trkpt>
      <trkpt lat="45.11702" lon="2.63382">
        <ele>1365.2</ele>
        <time>2021-08-11T09:29:56Z</time>
      </trkpt>
      <trkpt lat="45.11702" lon="2.63382">
        <ele>1365.3</ele>
        <time>2021-08-11T09:29:57Z</time>
      </trkpt>
      <trkpt lat="45.11702" lon="2.63383">
        <ele>1365.4</ele>
        <time>2021-08-11T09:29:58Z</time>
      </trkpt>
      <trkpt lat="45.11702" lon="2.63383">
        <ele>1365.4</ele>
        <time>2021-08-11T09:29:59Z</time>
      </trkpt>
      <trkpt lat="45.11702" lon="2.63384">
        <ele>1365.5</ele>
        <time>2021-08-11T09:30:00Z</time>
      </trkpt>
      <trkpt lat="45.11702" lon="2.63385">
        <ele>1365.6</ele>
        <time>2021-08-11T09:30:01Z</time>
      </trkpt>
      <trkpt lat="45.11702" lon="2.63385">
        <ele>1365.7</ele>
        <time>2021-08-11T09:30:02Z</time>
      </trkpt>
      <trkpt lat="45.11701" lon="2.63386">
        <ele>1365.7</ele>
        <time>2021-08-11T09:30:03Z</time>
      </trkpt>
      <trkpt lat="45.11701" lon="2.63387">
        <ele>1365.8</ele>
        <time>2021-08-11T09:30:04Z</time>
      </trkpt>
      <trkpt lat="45.11701" lon="2.63387">
        <ele>1365.9</ele>
        <time>2021-08-11T09:30:05Z</time>
      </trkpt>
      <trkpt lat="45.11701" lon="2.63388">
        <ele>1365.8</ele>
        <time>2021-08-11T09:30:06Z</time>
      </trkpt>
      <trkpt lat="45.11701" lon="2.63389">
        <ele>1365.9</ele>
        <time>2021-08-11T09:30:07Z</time>
      </trkpt>
      <trkpt lat="45.11701" lon="2.63389">
        <ele>1365.9</ele>
        <time>2021-08-11T09:30:08Z</time>
      </trkpt>
      <trkpt lat="45.11701" lon="2.63389">
        <ele>1366</ele>
        <time>2021-08-11T09:30:09Z</time>
      </trkpt>
      <trkpt lat="45.11701" lon="2.6339">
        <ele>1366.1</ele>
        <time>2021-08-11T09:30:10Z</time>
      </trkpt>
      <trkpt lat="45.11701" lon="2.63391">
        <ele>1366.2</ele>
        <time>2021-08-11T09:30:11Z</time>
      </trkpt>
      <trkpt lat="45.11701" lon="2.63392">
        <ele>1366.3</ele>
        <time>2021-08-11T09:30:12Z</time>
      </trkpt>
      <trkpt lat="45.11701" lon="2.63392">
        <ele>1366.3</ele>
        <time>2021-08-11T09:30:13Z</time>
      </trkpt>
      <trkpt lat="45.117" lon="2.63393">
        <ele>1366.3</ele>
        <time>2021-08-11T09:30:14Z</time>
      </trkpt>
      <trkpt lat="45.117" lon="2.63393">
        <ele>1366.4</ele>
        <time>2021-08-11T09:30:15Z</time>
      </trkpt>
      <trkpt lat="45.117" lon="2.63394">
        <ele>1366.5</ele>
        <time>2021-08-11T09:30:16Z</time>
      </trkpt>
      <trkpt lat="45.117" lon="2.63395">
        <ele>1366.6</ele>
        <time>2021-08-11T09:30:17Z</time>
      </trkpt>
      <trkpt lat="45.117" lon="2.63396">
        <ele>1366.7</ele>
        <time>2021-08-11T09:30:18Z</time>
      </trkpt>
      <trkpt lat="45.117" lon="2.63397">
        <ele>1366.8</ele>
        <time>2021-08-11T09:30:19Z</time>
      </trkpt>
      <trkpt lat="45.117" lon="2.63397">
        <ele>1366.8</ele>
        <time>2021-08-11T09:30:20Z</time>
      </trkpt>
      <trkpt lat="45.117" lon="2.63398">
        <ele>1366.9</ele>
        <time>2021-08-11T09:30:21Z</time>
      </trkpt>
      <trkpt lat="45.117" lon="2.63399">
        <ele>1367</ele>
        <time>2021-08-11T09:30:22Z</time>
      </trkpt>
      <trkpt lat="45.117" lon="2.634">
        <ele>1367.1</ele>
        <time>2021-08-11T09:30:23Z</time>
      </trkpt>
      <trkpt lat="45.117" lon="2.634">
        <ele>1367.2</ele>
        <time>2021-08-11T09:30:24Z</time>
      </trkpt>
      <trkpt lat="45.117" lon="2.63402">
        <ele>1367.4</ele>
        <time>2021-08-11T09:30:25Z</time>
      </trkpt>
      <trkpt lat="45.117" lon="2.63402">
        <ele>1367.5</ele>
        <time>2021-08-11T09:30:26Z</time>
      </trkpt>
      <trkpt lat="45.11701" lon="2.63403">
        <ele>1367.8</ele>
        <time>2021-08-11T09:30:27Z</time>
      </trkpt>
      <trkpt lat="45.11701" lon="2.63403">
        <ele>1368.1</ele>
        <time>2021-08-11T09:30:28Z</time>
      </trkpt>
      <trkpt lat="45.11701" lon="2.63404">
        <ele>1368.3</ele>
        <time>2021-08-11T09:30:29Z</time>
      </trkpt>
      <trkpt lat="45.11701" lon="2.63405">
        <ele>1368.4</ele>
        <time>2021-08-11T09:30:30Z</time>
      </trkpt>
      <trkpt lat="45.11701" lon="2.63406">
        <ele>1368.6</ele>
        <time>2021-08-11T09:30:31Z</time>
      </trkpt>
      <trkpt lat="45.11701" lon="2.63407">
        <ele>1368.7</ele>
        <time>2021-08-11T09:30:32Z</time>
      </trkpt>
      <trkpt lat="45.11701" lon="2.63407">
        <ele>1368.7</ele>
        <time>2021-08-11T09:30:33Z</time>
      </trkpt>
      <trkpt lat="45.11701" lon="2.63408">
        <ele>1368.7</ele>
        <time>2021-08-11T09:30:34Z</time>
      </trkpt>
      <trkpt lat="45.11701" lon="2.63409">
        <ele>1368.7</ele>
        <time>2021-08-11T09:30:35Z</time>
      </trkpt>
      <trkpt lat="45.11701" lon="2.6341">
        <ele>1368.8</ele>
        <time>2021-08-11T09:30:36Z</time>
      </trkpt>
      <trkpt lat="45.11701" lon="2.6341">
        <ele>1368.9</ele>
        <time>2021-08-11T09:30:37Z</time>
      </trkpt>
      <trkpt lat="45.11701" lon="2.63411">
        <ele>1369</ele>
        <time>2021-08-11T09:30:38Z</time>
      </trkpt>
      <trkpt lat="45.11701" lon="2.63412">
        <ele>1369.1</ele>
        <time>2021-08-11T09:30:39Z</time>
      </trkpt>
      <trkpt lat="45.117" lon="2.63413">
        <ele>1369.1</ele>
        <time>2021-08-11T09:30:40Z</time>
      </trkpt>
      <trkpt lat="45.11701" lon="2.63413">
        <ele>1369.3</ele>
        <time>2021-08-11T09:30:41Z</time>
      </trkpt>
      <trkpt lat="45.11701" lon="2.63414">
        <ele>1369.4</ele>
        <time>2021-08-11T09:30:42Z</time>
      </trkpt>
      <trkpt lat="45.11701" lon="2.63415">
        <ele>1369.5</ele>
        <time>2021-08-11T09:30:43Z</time>
      </trkpt>
      <trkpt lat="45.11701" lon="2.63415">
        <ele>1369.6</ele>
        <time>2021-08-11T09:30:44Z</time>
      </trkpt>
      <trkpt lat="45.11701" lon="2.63416">
        <ele>1369.6</ele>
        <time>2021-08-11T09:30:45Z</time>
      </trkpt>
      <trkpt lat="45.117" lon="2.63417">
        <ele>1369.7</ele>
        <time>2021-08-11T09:30:46Z</time>
      </trkpt>
      <trkpt lat="45.117" lon="2.63417">
        <ele>1369.8</ele>
        <time>2021-08-11T09:30:47Z</time>
      </trkpt>
      <trkpt lat="45.117" lon="2.63418">
        <ele>1369.9</ele>
        <time>2021-08-11T09:30:48Z</time>
      </trkpt>
      <trkpt lat="45.117" lon="2.63418">
        <ele>1370.1</ele>
        <time>2021-08-11T09:30:49Z</time>
      </trkpt>
      <trkpt lat="45.11701" lon="2.63419">
        <ele>1370.3</ele>
        <time>2021-08-11T09:30:50Z</time>
      </trkpt>
      <trkpt lat="45.11701" lon="2.6342">
        <ele>1370.5</ele>
        <time>2021-08-11T09:30:51Z</time>
      </trkpt>
      <trkpt lat="45.11701" lon="2.63421">
        <ele>1370.6</ele>
        <time>2021-08-11T09:30:52Z</time>
      </trkpt>
      <trkpt lat="45.117" lon="2.63422">
        <ele>1370.8</ele>
        <time>2021-08-11T09:30:53Z</time>
      </trkpt>
      <trkpt lat="45.117" lon="2.63423">
        <ele>1370.9</ele>
        <time>2021-08-11T09:30:54Z</time>
      </trkpt>
      <trkpt lat="45.117" lon="2.63423">
        <ele>1370.9</ele>
        <time>2021-08-11T09:30:55Z</time>
      </trkpt>
      <trkpt lat="45.117" lon="2.63424">
        <ele>1371.1</ele>
        <time>2021-08-11T09:30:56Z</time>
      </trkpt>
      <trkpt lat="45.117" lon="2.63425">
        <ele>1371.1</ele>
        <time>2021-08-11T09:30:57Z</time>
      </trkpt>
      <trkpt lat="45.117" lon="2.63426">
        <ele>1371.4</ele>
        <time>2021-08-11T09:30:58Z</time>
      </trkpt>
      <trkpt lat="45.117" lon="2.63426">
        <ele>1371.6</ele>
        <time>2021-08-11T09:30:59Z</time>
      </trkpt>
      <trkpt lat="45.117" lon="2.63427">
        <ele>1371.8</ele>
        <time>2021-08-11T09:31:00Z</time>
      </trkpt>
      <trkpt lat="45.117" lon="2.63428">
        <ele>1371.9</ele>
        <time>2021-08-11T09:31:01Z</time>
      </trkpt>
      <trkpt lat="45.117" lon="2.63429">
        <ele>1372.1</ele>
        <time>2021-08-11T09:31:02Z</time>
      </trkpt>
      <trkpt lat="45.117" lon="2.63429">
        <ele>1372.2</ele>
        <time>2021-08-11T09:31:03Z</time>
      </trkpt>
      <trkpt lat="45.11699" lon="2.6343">
        <ele>1372.2</ele>
        <time>2021-08-11T09:31:04Z</time>
      </trkpt>
      <trkpt lat="45.11699" lon="2.63431">
        <ele>1372.3</ele>
        <time>2021-08-11T09:31:05Z</time>
      </trkpt>
      <trkpt lat="45.11699" lon="2.63431">
        <ele>1372.4</ele>
        <time>2021-08-11T09:31:06Z</time>
      </trkpt>
      <trkpt lat="45.11699" lon="2.63432">
        <ele>1372.6</ele>
        <time>2021-08-11T09:31:07Z</time>
      </trkpt>
      <trkpt lat="45.11699" lon="2.63433">
        <ele>1372.8</ele>
        <time>2021-08-11T09:31:08Z</time>
      </trkpt>
      <trkpt lat="45.11699" lon="2.63434">
        <ele>1373</ele>
        <time>2021-08-11T09:31:09Z</time>
      </trkpt>
      <trkpt lat="45.11699" lon="2.63435">
        <ele>1373.2</ele>
        <time>2021-08-11T09:31:10Z</time>
      </trkpt>
      <trkpt lat="45.11699" lon="2.63436">
        <ele>1373.4</ele>
        <time>2021-08-11T09:31:11Z</time>
      </trkpt>
      <trkpt lat="45.11699" lon="2.63437">
        <ele>1373.6</ele>
        <time>2021-08-11T09:31:12Z</time>
      </trkpt>
      <trkpt lat="45.11699" lon="2.63437">
        <ele>1373.8</ele>
        <time>2021-08-11T09:31:13Z</time>
      </trkpt>
      <trkpt lat="45.11699" lon="2.63438">
        <ele>1373.9</ele>
        <time>2021-08-11T09:31:14Z</time>
      </trkpt>
      <trkpt lat="45.11699" lon="2.6344">
        <ele>1374.1</ele>
        <time>2021-08-11T09:31:15Z</time>
      </trkpt>
      <trkpt lat="45.11699" lon="2.63441">
        <ele>1374.3</ele>
        <time>2021-08-11T09:31:16Z</time>
      </trkpt>
      <trkpt lat="45.11699" lon="2.63441">
        <ele>1374.4</ele>
        <time>2021-08-11T09:31:17Z</time>
      </trkpt>
      <trkpt lat="45.11699" lon="2.63442">
        <ele>1374.7</ele>
        <time>2021-08-11T09:31:18Z</time>
      </trkpt>
      <trkpt lat="45.11699" lon="2.63444">
        <ele>1375</ele>
        <time>2021-08-11T09:31:19Z</time>
      </trkpt>
      <trkpt lat="45.11699" lon="2.63445">
        <ele>1375.2</ele>
        <time>2021-08-11T09:31:20Z</time>
      </trkpt>
      <trkpt lat="45.11699" lon="2.63446">
        <ele>1375.4</ele>
        <time>2021-08-11T09:31:21Z</time>
      </trkpt>
      <trkpt lat="45.11699" lon="2.63447">
        <ele>1375.6</ele>
        <time>2021-08-11T09:31:22Z</time>
      </trkpt>
      <trkpt lat="45.11699" lon="2.63448">
        <ele>1375.8</ele>
        <time>2021-08-11T09:31:23Z</time>
      </trkpt>
      <trkpt lat="45.11698" lon="2.63449">
        <ele>1375.9</ele>
        <time>2021-08-11T09:31:24Z</time>
      </trkpt>
      <trkpt lat="45.11698" lon="2.6345">
        <ele>1376</ele>
        <time>2021-08-11T09:31:25Z</time>
      </trkpt>
      <trkpt lat="45.11697" lon="2.63451">
        <ele>1376.1</ele>
        <time>2021-08-11T09:31:26Z</time>
      </trkpt>
      <trkpt lat="45.11697" lon="2.63452">
        <ele>1376.2</ele>
        <time>2021-08-11T09:31:27Z</time>
      </trkpt>
      <trkpt lat="45.11697" lon="2.63453">
        <ele>1376.3</ele>
        <time>2021-08-11T09:31:28Z</time>
      </trkpt>
      <trkpt lat="45.11696" lon="2.63455">
        <ele>1376.5</ele>
        <time>2021-08-11T09:31:29Z</time>
      </trkpt>
      <trkpt lat="45.11696" lon="2.63456">
        <ele>1376.6</ele>
        <time>2021-08-11T09:31:30Z</time>
      </trkpt>
      <trkpt lat="45.11695" lon="2.63457">
        <ele>1376.7</ele>
        <time>2021-08-11T09:31:31Z</time>
      </trkpt>
      <trkpt lat="45.11695" lon="2.63458">
        <ele>1376.6</ele>
        <time>2021-08-11T09:31:32Z</time>
      </trkpt>
      <trkpt lat="45.11694" lon="2.63459">
        <ele>1376.6</ele>
        <time>2021-08-11T09:31:33Z</time>
      </trkpt>
      <trkpt lat="45.11693" lon="2.6346">
        <ele>1376.6</ele>
        <time>2021-08-11T09:31:34Z</time>
      </trkpt>
      <trkpt lat="45.11693" lon="2.63461">
        <ele>1376.6</ele>
        <time>2021-08-11T09:31:35Z</time>
      </trkpt>
      <trkpt lat="45.11693" lon="2.63462">
        <ele>1376.8</ele>
        <time>2021-08-11T09:31:36Z</time>
      </trkpt>
      <trkpt lat="45.11692" lon="2.63463">
        <ele>1377</ele>
        <time>2021-08-11T09:31:37Z</time>
      </trkpt>
      <trkpt lat="45.11692" lon="2.63465">
        <ele>1377</ele>
        <time>2021-08-11T09:31:38Z</time>
      </trkpt>
      <trkpt lat="45.11691" lon="2.63466">
        <ele>1377.1</ele>
        <time>2021-08-11T09:31:39Z</time>
      </trkpt>
      <trkpt lat="45.11691" lon="2.63467">
        <ele>1377.2</ele>
        <time>2021-08-11T09:31:40Z</time>
      </trkpt>
      <trkpt lat="45.1169" lon="2.63468">
        <ele>1377.3</ele>
        <time>2021-08-11T09:31:41Z</time>
      </trkpt>
      <trkpt lat="45.1169" lon="2.63469">
        <ele>1377.3</ele>
        <time>2021-08-11T09:31:42Z</time>
      </trkpt>
      <trkpt lat="45.11689" lon="2.6347">
        <ele>1377.4</ele>
        <time>2021-08-11T09:31:43Z</time>
      </trkpt>
      <trkpt lat="45.11689" lon="2.63471">
        <ele>1377.5</ele>
        <time>2021-08-11T09:31:44Z</time>
      </trkpt>
      <trkpt lat="45.11689" lon="2.63473">
        <ele>1377.7</ele>
        <time>2021-08-11T09:31:45Z</time>
      </trkpt>
      <trkpt lat="45.11688" lon="2.63474">
        <ele>1377.7</ele>
        <time>2021-08-11T09:31:46Z</time>
      </trkpt>
      <trkpt lat="45.11688" lon="2.63475">
        <ele>1377.8</ele>
        <time>2021-08-11T09:31:47Z</time>
      </trkpt>
      <trkpt lat="45.11687" lon="2.63476">
        <ele>1377.9</ele>
        <time>2021-08-11T09:31:48Z</time>
      </trkpt>
      <trkpt lat="45.11687" lon="2.63477">
        <ele>1378.1</ele>
        <time>2021-08-11T09:31:49Z</time>
      </trkpt>
      <trkpt lat="45.11687" lon="2.63478">
        <ele>1378.2</ele>
        <time>2021-08-11T09:31:50Z</time>
      </trkpt>
      <trkpt lat="45.11686" lon="2.6348">
        <ele>1378.4</ele>
        <time>2021-08-11T09:31:51Z</time>
      </trkpt>
      <trkpt lat="45.11686" lon="2.63481">
        <ele>1378.6</ele>
        <time>2021-08-11T09:31:52Z</time>
      </trkpt>
      <trkpt lat="45.11686" lon="2.63482">
        <ele>1378.8</ele>
        <time>2021-08-11T09:31:53Z</time>
      </trkpt>
      <trkpt lat="45.11686" lon="2.63484">
        <ele>1379</ele>
        <time>2021-08-11T09:31:54Z</time>
      </trkpt>
      <trkpt lat="45.11685" lon="2.63485">
        <ele>1379.1</ele>
        <time>2021-08-11T09:31:55Z</time>
      </trkpt>
      <trkpt lat="45.11685" lon="2.63486">
        <ele>1379.2</ele>
        <time>2021-08-11T09:31:56Z</time>
      </trkpt>
      <trkpt lat="45.11685" lon="2.63487">
        <ele>1379.4</ele>
        <time>2021-08-11T09:31:57Z</time>
      </trkpt>
      <trkpt lat="45.11684" lon="2.63488">
        <ele>1379.5</ele>
        <time>2021-08-11T09:31:58Z</time>
      </trkpt>
      <trkpt lat="45.11684" lon="2.63489">
        <ele>1379.6</ele>
        <time>2021-08-11T09:31:59Z</time>
      </trkpt>
      <trkpt lat="45.11684" lon="2.6349">
        <ele>1379.8</ele>
        <time>2021-08-11T09:32:00Z</time>
      </trkpt>
      <trkpt lat="45.11684" lon="2.63491">
        <ele>1380</ele>
        <time>2021-08-11T09:32:01Z</time>
      </trkpt>
      <trkpt lat="45.11683" lon="2.63492">
        <ele>1380.1</ele>
        <time>2021-08-11T09:32:02Z</time>
      </trkpt>
      <trkpt lat="45.11683" lon="2.63493">
        <ele>1380.1</ele>
        <time>2021-08-11T09:32:03Z</time>
      </trkpt>
      <trkpt lat="45.11682" lon="2.63494">
        <ele>1380.1</ele>
        <time>2021-08-11T09:32:04Z</time>
      </trkpt>
      <trkpt lat="45.11682" lon="2.63494">
        <ele>1379.9</ele>
        <time>2021-08-11T09:32:05Z</time>
      </trkpt>
      <trkpt lat="45.11681" lon="2.63495">
        <ele>1379.8</ele>
        <time>2021-08-11T09:32:06Z</time>
      </trkpt>
      <trkpt lat="45.1168" lon="2.63496">
        <ele>1379.8</ele>
        <time>2021-08-11T09:32:07Z</time>
      </trkpt>
      <trkpt lat="45.1168" lon="2.63497">
        <ele>1380</ele>
        <time>2021-08-11T09:32:08Z</time>
      </trkpt>
      <trkpt lat="45.1168" lon="2.63498">
        <ele>1380.2</ele>
        <time>2021-08-11T09:32:09Z</time>
      </trkpt>
      <trkpt lat="45.1168" lon="2.63499">
        <ele>1380.4</ele>
        <time>2021-08-11T09:32:10Z</time>
      </trkpt>
      <trkpt lat="45.1168" lon="2.635">
        <ele>1380.6</ele>
        <time>2021-08-11T09:32:11Z</time>
      </trkpt>
      <trkpt lat="45.1168" lon="2.63502">
        <ele>1380.8</ele>
        <time>2021-08-11T09:32:12Z</time>
      </trkpt>
      <trkpt lat="45.1168" lon="2.63503">
        <ele>1381</ele>
        <time>2021-08-11T09:32:13Z</time>
      </trkpt>
      <trkpt lat="45.1168" lon="2.63504">
        <ele>1381</ele>
        <time>2021-08-11T09:32:14Z</time>
      </trkpt>
      <trkpt lat="45.1168" lon="2.63505">
        <ele>1381.3</ele>
        <time>2021-08-11T09:32:15Z</time>
      </trkpt>
      <trkpt lat="45.1168" lon="2.63506">
        <ele>1381.5</ele>
        <time>2021-08-11T09:32:16Z</time>
      </trkpt>
      <trkpt lat="45.1168" lon="2.63508">
        <ele>1381.7</ele>
        <time>2021-08-11T09:32:17Z</time>
      </trkpt>
      <trkpt lat="45.1168" lon="2.63509">
        <ele>1381.8</ele>
        <time>2021-08-11T09:32:18Z</time>
      </trkpt>
      <trkpt lat="45.11679" lon="2.6351">
        <ele>1381.7</ele>
        <time>2021-08-11T09:32:19Z</time>
      </trkpt>
      <trkpt lat="45.11679" lon="2.6351">
        <ele>1381.7</ele>
        <time>2021-08-11T09:32:20Z</time>
      </trkpt>
      <trkpt lat="45.11679" lon="2.63511">
        <ele>1381.8</ele>
        <time>2021-08-11T09:32:21Z</time>
      </trkpt>
      <trkpt lat="45.11678" lon="2.63512">
        <ele>1381.7</ele>
        <time>2021-08-11T09:32:22Z</time>
      </trkpt>
      <trkpt lat="45.11678" lon="2.63513">
        <ele>1381.7</ele>
        <time>2021-08-11T09:32:23Z</time>
      </trkpt>
      <trkpt lat="45.11677" lon="2.63514">
        <ele>1381.7</ele>
        <time>2021-08-11T09:32:24Z</time>
      </trkpt>
      <trkpt lat="45.11677" lon="2.63515">
        <ele>1381.8</ele>
        <time>2021-08-11T09:32:25Z</time>
      </trkpt>
      <trkpt lat="45.11677" lon="2.63516">
        <ele>1381.8</ele>
        <time>2021-08-11T09:32:26Z</time>
      </trkpt>
      <trkpt lat="45.11676" lon="2.63517">
        <ele>1381.8</ele>
        <time>2021-08-11T09:32:27Z</time>
      </trkpt>
      <trkpt lat="45.11676" lon="2.63518">
        <ele>1381.8</ele>
        <time>2021-08-11T09:32:28Z</time>
      </trkpt>
      <trkpt lat="45.11676" lon="2.63519">
        <ele>1381.8</ele>
        <time>2021-08-11T09:32:29Z</time>
      </trkpt>
      <trkpt lat="45.11675" lon="2.6352">
        <ele>1381.9</ele>
        <time>2021-08-11T09:32:30Z</time>
      </trkpt>
      <trkpt lat="45.11675" lon="2.63521">
        <ele>1381.9</ele>
        <time>2021-08-11T09:32:31Z</time>
      </trkpt>
      <trkpt lat="45.11675" lon="2.63521">
        <ele>1381.9</ele>
        <time>2021-08-11T09:32:32Z</time>
      </trkpt>
      <trkpt lat="45.11675" lon="2.63522">
        <ele>1382</ele>
        <time>2021-08-11T09:32:33Z</time>
      </trkpt>
      <trkpt lat="45.11675" lon="2.63523">
        <ele>1382</ele>
        <time>2021-08-11T09:32:34Z</time>
      </trkpt>
      <trkpt lat="45.11674" lon="2.63524">
        <ele>1382.1</ele>
        <time>2021-08-11T09:32:35Z</time>
      </trkpt>
      <trkpt lat="45.11674" lon="2.63526">
        <ele>1382.3</ele>
        <time>2021-08-11T09:32:36Z</time>
      </trkpt>
      <trkpt lat="45.11674" lon="2.63527">
        <ele>1382.4</ele>
        <time>2021-08-11T09:32:37Z</time>
      </trkpt>
      <trkpt lat="45.11674" lon="2.63528">
        <ele>1382.6</ele>
        <time>2021-08-11T09:32:38Z</time>
      </trkpt>
      <trkpt lat="45.11674" lon="2.63529">
        <ele>1382.7</ele>
        <time>2021-08-11T09:32:39Z</time>
      </trkpt>
      <trkpt lat="45.11674" lon="2.6353">
        <ele>1383</ele>
        <time>2021-08-11T09:32:40Z</time>
      </trkpt>
      <trkpt lat="45.11675" lon="2.63531">
        <ele>1383.2</ele>
        <time>2021-08-11T09:32:41Z</time>
      </trkpt>
      <trkpt lat="45.11675" lon="2.63532">
        <ele>1383.3</ele>
        <time>2021-08-11T09:32:42Z</time>
      </trkpt>
      <trkpt lat="45.11674" lon="2.63533">
        <ele>1383.4</ele>
        <time>2021-08-11T09:32:43Z</time>
      </trkpt>
      <trkpt lat="45.11674" lon="2.63534">
        <ele>1383.6</ele>
        <time>2021-08-11T09:32:44Z</time>
      </trkpt>
      <trkpt lat="45.11674" lon="2.63536">
        <ele>1383.6</ele>
        <time>2021-08-11T09:32:45Z</time>
      </trkpt>
      <trkpt lat="45.11674" lon="2.63537">
        <ele>1383.8</ele>
        <time>2021-08-11T09:32:46Z</time>
      </trkpt>
      <trkpt lat="45.11674" lon="2.63538">
        <ele>1383.9</ele>
        <time>2021-08-11T09:32:47Z</time>
      </trkpt>
      <trkpt lat="45.11674" lon="2.63539">
        <ele>1384</ele>
        <time>2021-08-11T09:32:48Z</time>
      </trkpt>
      <trkpt lat="45.11674" lon="2.6354">
        <ele>1384.1</ele>
        <time>2021-08-11T09:32:49Z</time>
      </trkpt>
      <trkpt lat="45.11674" lon="2.63541">
        <ele>1384.2</ele>
        <time>2021-08-11T09:32:50Z</time>
      </trkpt>
      <trkpt lat="45.11673" lon="2.63542">
        <ele>1384.2</ele>
        <time>2021-08-11T09:32:51Z</time>
      </trkpt>
      <trkpt lat="45.11673" lon="2.63542">
        <ele>1384.3</ele>
        <time>2021-08-11T09:32:52Z</time>
      </trkpt>
      <trkpt lat="45.11673" lon="2.63543">
        <ele>1384.4</ele>
        <time>2021-08-11T09:32:53Z</time>
      </trkpt>
      <trkpt lat="45.11673" lon="2.63544">
        <ele>1384.5</ele>
        <time>2021-08-11T09:32:54Z</time>
      </trkpt>
      <trkpt lat="45.11673" lon="2.63544">
        <ele>1384.5</ele>
        <time>2021-08-11T09:32:55Z</time>
      </trkpt>
      <trkpt lat="45.11673" lon="2.63545">
        <ele>1384.6</ele>
        <time>2021-08-11T09:32:56Z</time>
      </trkpt>
      <trkpt lat="45.11673" lon="2.63546">
        <ele>1384.6</ele>
        <time>2021-08-11T09:32:57Z</time>
      </trkpt>
      <trkpt lat="45.11673" lon="2.63547">
        <ele>1384.7</ele>
        <time>2021-08-11T09:32:58Z</time>
      </trkpt>
      <trkpt lat="45.11672" lon="2.63548">
        <ele>1384.8</ele>
        <time>2021-08-11T09:32:59Z</time>
      </trkpt>
      <trkpt lat="45.11672" lon="2.63549">
        <ele>1384.9</ele>
        <time>2021-08-11T09:33:00Z</time>
      </trkpt>
      <trkpt lat="45.11672" lon="2.6355">
        <ele>1385</ele>
        <time>2021-08-11T09:33:01Z</time>
      </trkpt>
      <trkpt lat="45.11672" lon="2.63551">
        <ele>1385</ele>
        <time>2021-08-11T09:33:02Z</time>
      </trkpt>
      <trkpt lat="45.11672" lon="2.63552">
        <ele>1385.1</ele>
        <time>2021-08-11T09:33:03Z</time>
      </trkpt>
      <trkpt lat="45.11671" lon="2.63552">
        <ele>1385.1</ele>
        <time>2021-08-11T09:33:04Z</time>
      </trkpt>
      <trkpt lat="45.11671" lon="2.63553">
        <ele>1385.2</ele>
        <time>2021-08-11T09:33:05Z</time>
      </trkpt>
      <trkpt lat="45.11671" lon="2.63554">
        <ele>1385.3</ele>
        <time>2021-08-11T09:33:06Z</time>
      </trkpt>
      <trkpt lat="45.11671" lon="2.63555">
        <ele>1385.3</ele>
        <time>2021-08-11T09:33:07Z</time>
      </trkpt>
      <trkpt lat="45.11671" lon="2.63556">
        <ele>1385.3</ele>
        <time>2021-08-11T09:33:08Z</time>
      </trkpt>
      <trkpt lat="45.11671" lon="2.63557">
        <ele>1385.5</ele>
        <time>2021-08-11T09:33:09Z</time>
      </trkpt>
      <trkpt lat="45.1167" lon="2.63557">
        <ele>1385.5</ele>
        <time>2021-08-11T09:33:10Z</time>
      </trkpt>
      <trkpt lat="45.1167" lon="2.63558">
        <ele>1385.6</ele>
        <time>2021-08-11T09:33:11Z</time>
      </trkpt>
      <trkpt lat="45.1167" lon="2.63559">
        <ele>1385.6</ele>
        <time>2021-08-11T09:33:12Z</time>
      </trkpt>
      <trkpt lat="45.11669" lon="2.6356">
        <ele>1385.6</ele>
        <time>2021-08-11T09:33:13Z</time>
      </trkpt>
      <trkpt lat="45.11669" lon="2.63561">
        <ele>1385.5</ele>
        <time>2021-08-11T09:33:14Z</time>
      </trkpt>
      <trkpt lat="45.11669" lon="2.63562">
        <ele>1385.7</ele>
        <time>2021-08-11T09:33:15Z</time>
      </trkpt>
      <trkpt lat="45.11669" lon="2.63564">
        <ele>1385.8</ele>
        <time>2021-08-11T09:33:16Z</time>
      </trkpt>
      <trkpt lat="45.11668" lon="2.63565">
        <ele>1385.9</ele>
        <time>2021-08-11T09:33:17Z</time>
      </trkpt>
      <trkpt lat="45.11668" lon="2.63566">
        <ele>1385.9</ele>
        <time>2021-08-11T09:33:18Z</time>
      </trkpt>
      <trkpt lat="45.11668" lon="2.63567">
        <ele>1385.9</ele>
        <time>2021-08-11T09:33:19Z</time>
      </trkpt>
      <trkpt lat="45.11668" lon="2.63567">
        <ele>1385.9</ele>
        <time>2021-08-11T09:33:20Z</time>
      </trkpt>
      <trkpt lat="45.11667" lon="2.63567">
        <ele>1385.9</ele>
        <time>2021-08-11T09:33:21Z</time>
      </trkpt>
      <trkpt lat="45.11667" lon="2.63568">
        <ele>1385.8</ele>
        <time>2021-08-11T09:33:22Z</time>
      </trkpt>
      <trkpt lat="45.11666" lon="2.63569">
        <ele>1385.8</ele>
        <time>2021-08-11T09:33:23Z</time>
      </trkpt>
      <trkpt lat="45.11666" lon="2.6357">
        <ele>1385.9</ele>
        <time>2021-08-11T09:33:24Z</time>
      </trkpt>
      <trkpt lat="45.11666" lon="2.63571">
        <ele>1386</ele>
        <time>2021-08-11T09:33:25Z</time>
      </trkpt>
      <trkpt lat="45.11666" lon="2.63572">
        <ele>1386.1</ele>
        <time>2021-08-11T09:33:26Z</time>
      </trkpt>
      <trkpt lat="45.11666" lon="2.63573">
        <ele>1386.3</ele>
        <time>2021-08-11T09:33:27Z</time>
      </trkpt>
      <trkpt lat="45.11665" lon="2.63575">
        <ele>1386.4</ele>
        <time>2021-08-11T09:33:28Z</time>
      </trkpt>
      <trkpt lat="45.11665" lon="2.63576">
        <ele>1386.6</ele>
        <time>2021-08-11T09:33:29Z</time>
      </trkpt>
      <trkpt lat="45.11665" lon="2.63577">
        <ele>1386.7</ele>
        <time>2021-08-11T09:33:30Z</time>
      </trkpt>
      <trkpt lat="45.11665" lon="2.63578">
        <ele>1386.7</ele>
        <time>2021-08-11T09:33:31Z</time>
      </trkpt>
      <trkpt lat="45.11664" lon="2.63579">
        <ele>1386.8</ele>
        <time>2021-08-11T09:33:32Z</time>
      </trkpt>
      <trkpt lat="45.11664" lon="2.6358">
        <ele>1386.9</ele>
        <time>2021-08-11T09:33:33Z</time>
      </trkpt>
      <trkpt lat="45.11664" lon="2.63582">
        <ele>1387.1</ele>
        <time>2021-08-11T09:33:34Z</time>
      </trkpt>
      <trkpt lat="45.11663" lon="2.63583">
        <ele>1387.2</ele>
        <time>2021-08-11T09:33:35Z</time>
      </trkpt>
      <trkpt lat="45.11663" lon="2.63584">
        <ele>1387.3</ele>
        <time>2021-08-11T09:33:36Z</time>
      </trkpt>
      <trkpt lat="45.11662" lon="2.63586">
        <ele>1387.4</ele>
        <time>2021-08-11T09:33:37Z</time>
      </trkpt>
      <trkpt lat="45.11662" lon="2.63587">
        <ele>1387.5</ele>
        <time>2021-08-11T09:33:38Z</time>
      </trkpt>
      <trkpt lat="45.11662" lon="2.63588">
        <ele>1387.7</ele>
        <time>2021-08-11T09:33:39Z</time>
      </trkpt>
      <trkpt lat="45.11662" lon="2.63589">
        <ele>1387.8</ele>
        <time>2021-08-11T09:33:40Z</time>
      </trkpt>
      <trkpt lat="45.11662" lon="2.63591">
        <ele>1388</ele>
        <time>2021-08-11T09:33:41Z</time>
      </trkpt>
      <trkpt lat="45.11661" lon="2.63591">
        <ele>1388</ele>
        <time>2021-08-11T09:33:42Z</time>
      </trkpt>
      <trkpt lat="45.11661" lon="2.63591">
        <ele>1388</ele>
        <time>2021-08-11T09:33:43Z</time>
      </trkpt>
      <trkpt lat="45.11661" lon="2.63591">
        <ele>1388</ele>
        <time>2021-08-11T09:33:44Z</time>
      </trkpt>
      <trkpt lat="45.11661" lon="2.63591">
        <ele>1388</ele>
        <time>2021-08-11T09:33:45Z</time>
      </trkpt>
      <trkpt lat="45.11661" lon="2.63591">
        <ele>1388</ele>
        <time>2021-08-11T09:33:46Z</time>
      </trkpt>
      <trkpt lat="45.11661" lon="2.63591">
        <ele>1388</ele>
        <time>2021-08-11T09:33:47Z</time>
      </trkpt>
      <trkpt lat="45.11661" lon="2.63591">
        <ele>1388</ele>
        <time>2021-08-11T09:33:48Z</time>
      </trkpt>
      <trkpt lat="45.11661" lon="2.63591">
        <ele>1388</ele>
        <time>2021-08-11T09:33:49Z</time>
      </trkpt>
      <trkpt lat="45.11661" lon="2.63592">
        <ele>1388.1</ele>
        <time>2021-08-11T09:33:50Z</time>
      </trkpt>
      <trkpt lat="45.11661" lon="2.63592">
        <ele>1388.2</ele>
        <time>2021-08-11T09:33:51Z</time>
      </trkpt>
      <trkpt lat="45.11661" lon="2.63593">
        <ele>1388.2</ele>
        <time>2021-08-11T09:33:52Z</time>
      </trkpt>
      <trkpt lat="45.1166" lon="2.63593">
        <ele>1388.2</ele>
        <time>2021-08-11T09:33:53Z</time>
      </trkpt>
      <trkpt lat="45.1166" lon="2.63594">
        <ele>1388.4</ele>
        <time>2021-08-11T09:33:54Z</time>
      </trkpt>
      <trkpt lat="45.1166" lon="2.63595">
        <ele>1388.5</ele>
        <time>2021-08-11T09:33:55Z</time>
      </trkpt>
      <trkpt lat="45.1166" lon="2.63596">
        <ele>1388.6</ele>
        <time>2021-08-11T09:33:56Z</time>
      </trkpt>
      <trkpt lat="45.1166" lon="2.63597">
        <ele>1388.7</ele>
        <time>2021-08-11T09:33:57Z</time>
      </trkpt>
      <trkpt lat="45.1166" lon="2.63598">
        <ele>1388.9</ele>
        <time>2021-08-11T09:33:58Z</time>
      </trkpt>
      <trkpt lat="45.1166" lon="2.63599">
        <ele>1389.1</ele>
        <time>2021-08-11T09:33:59Z</time>
      </trkpt>
      <trkpt lat="45.1166" lon="2.636">
        <ele>1389.3</ele>
        <time>2021-08-11T09:34:00Z</time>
      </trkpt>
      <trkpt lat="45.1166" lon="2.63601">
        <ele>1389.5</ele>
        <time>2021-08-11T09:34:01Z</time>
      </trkpt>
      <trkpt lat="45.1166" lon="2.63602">
        <ele>1389.7</ele>
        <time>2021-08-11T09:34:02Z</time>
      </trkpt>
      <trkpt lat="45.1166" lon="2.63603">
        <ele>1389.9</ele>
        <time>2021-08-11T09:34:03Z</time>
      </trkpt>
      <trkpt lat="45.1166" lon="2.63605">
        <ele>1390.1</ele>
        <time>2021-08-11T09:34:04Z</time>
      </trkpt>
      <trkpt lat="45.1166" lon="2.63606">
        <ele>1390.2</ele>
        <time>2021-08-11T09:34:05Z</time>
      </trkpt>
      <trkpt lat="45.1166" lon="2.63607">
        <ele>1390.3</ele>
        <time>2021-08-11T09:34:06Z</time>
      </trkpt>
      <trkpt lat="45.1166" lon="2.63608">
        <ele>1390.5</ele>
        <time>2021-08-11T09:34:07Z</time>
      </trkpt>
      <trkpt lat="45.1166" lon="2.63609">
        <ele>1390.8</ele>
        <time>2021-08-11T09:34:08Z</time>
      </trkpt>
      <trkpt lat="45.1166" lon="2.6361">
        <ele>1390.9</ele>
        <time>2021-08-11T09:34:09Z</time>
      </trkpt>
      <trkpt lat="45.11659" lon="2.63611">
        <ele>1390.9</ele>
        <time>2021-08-11T09:34:10Z</time>
      </trkpt>
      <trkpt lat="45.11659" lon="2.63611">
        <ele>1390.9</ele>
        <time>2021-08-11T09:34:11Z</time>
      </trkpt>
      <trkpt lat="45.11658" lon="2.63612">
        <ele>1390.9</ele>
        <time>2021-08-11T09:34:12Z</time>
      </trkpt>
      <trkpt lat="45.11658" lon="2.63612">
        <ele>1390.8</ele>
        <time>2021-08-11T09:34:13Z</time>
      </trkpt>
      <trkpt lat="45.11657" lon="2.63613">
        <ele>1390.7</ele>
        <time>2021-08-11T09:34:14Z</time>
      </trkpt>
      <trkpt lat="45.11656" lon="2.63613">
        <ele>1390.6</ele>
        <time>2021-08-11T09:34:15Z</time>
      </trkpt>
      <trkpt lat="45.11656" lon="2.63614">
        <ele>1390.7</ele>
        <time>2021-08-11T09:34:16Z</time>
      </trkpt>
      <trkpt lat="45.11656" lon="2.63615">
        <ele>1390.9</ele>
        <time>2021-08-11T09:34:17Z</time>
      </trkpt>
      <trkpt lat="45.11656" lon="2.63615">
        <ele>1391</ele>
        <time>2021-08-11T09:34:18Z</time>
      </trkpt>
      <trkpt lat="45.11656" lon="2.63616">
        <ele>1391</ele>
        <time>2021-08-11T09:34:19Z</time>
      </trkpt>
      <trkpt lat="45.11656" lon="2.63617">
        <ele>1391.1</ele>
        <time>2021-08-11T09:34:20Z</time>
      </trkpt>
      <trkpt lat="45.11655" lon="2.63617">
        <ele>1391.1</ele>
        <time>2021-08-11T09:34:21Z</time>
      </trkpt>
      <trkpt lat="45.11655" lon="2.63618">
        <ele>1391.1</ele>
        <time>2021-08-11T09:34:22Z</time>
      </trkpt>
      <trkpt lat="45.11655" lon="2.63618">
        <ele>1391.2</ele>
        <time>2021-08-11T09:34:23Z</time>
      </trkpt>
      <trkpt lat="45.11655" lon="2.63619">
        <ele>1391.3</ele>
        <time>2021-08-11T09:34:24Z</time>
      </trkpt>
      <trkpt lat="45.11655" lon="2.63619">
        <ele>1391.4</ele>
        <time>2021-08-11T09:34:25Z</time>
      </trkpt>
      <trkpt lat="45.11655" lon="2.6362">
        <ele>1391.5</ele>
        <time>2021-08-11T09:34:26Z</time>
      </trkpt>
      <trkpt lat="45.11655" lon="2.63621">
        <ele>1391.7</ele>
        <time>2021-08-11T09:34:27Z</time>
      </trkpt>
      <trkpt lat="45.11655" lon="2.63621">
        <ele>1391.8</ele>
        <time>2021-08-11T09:34:28Z</time>
      </trkpt>
      <trkpt lat="45.11655" lon="2.63623">
        <ele>1392</ele>
        <time>2021-08-11T09:34:29Z</time>
      </trkpt>
      <trkpt lat="45.11655" lon="2.63624">
        <ele>1392.2</ele>
        <time>2021-08-11T09:34:30Z</time>
      </trkpt>
      <trkpt lat="45.11655" lon="2.63625">
        <ele>1392.3</ele>
        <time>2021-08-11T09:34:31Z</time>
      </trkpt>
      <trkpt lat="45.11654" lon="2.63626">
        <ele>1392.4</ele>
        <time>2021-08-11T09:34:32Z</time>
      </trkpt>
      <trkpt lat="45.11654" lon="2.63627">
        <ele>1392.5</ele>
        <time>2021-08-11T09:34:33Z</time>
      </trkpt>
      <trkpt lat="45.11654" lon="2.63628">
        <ele>1392.7</ele>
        <time>2021-08-11T09:34:34Z</time>
      </trkpt>
      <trkpt lat="45.11653" lon="2.63629">
        <ele>1392.7</ele>
        <time>2021-08-11T09:34:35Z</time>
      </trkpt>
      <trkpt lat="45.11653" lon="2.63631">
        <ele>1392.9</ele>
        <time>2021-08-11T09:34:36Z</time>
      </trkpt>
      <trkpt lat="45.11653" lon="2.63632">
        <ele>1393.1</ele>
        <time>2021-08-11T09:34:37Z</time>
      </trkpt>
      <trkpt lat="45.11653" lon="2.63633">
        <ele>1393.3</ele>
        <time>2021-08-11T09:34:38Z</time>
      </trkpt>
      <trkpt lat="45.11653" lon="2.63634">
        <ele>1393.5</ele>
        <time>2021-08-11T09:34:39Z</time>
      </trkpt>
      <trkpt lat="45.11653" lon="2.63635">
        <ele>1393.6</ele>
        <time>2021-08-11T09:34:40Z</time>
      </trkpt>
      <trkpt lat="45.11653" lon="2.63636">
        <ele>1393.8</ele>
        <time>2021-08-11T09:34:41Z</time>
      </trkpt>
      <trkpt lat="45.11653" lon="2.63637">
        <ele>1394</ele>
        <time>2021-08-11T09:34:42Z</time>
      </trkpt>
      <trkpt lat="45.11653" lon="2.63638">
        <ele>1394.1</ele>
        <time>2021-08-11T09:34:43Z</time>
      </trkpt>
      <trkpt lat="45.11653" lon="2.63639">
        <ele>1394.3</ele>
        <time>2021-08-11T09:34:44Z</time>
      </trkpt>
      <trkpt lat="45.11653" lon="2.63641">
        <ele>1394.6</ele>
        <time>2021-08-11T09:34:45Z</time>
      </trkpt>
      <trkpt lat="45.11653" lon="2.63642">
        <ele>1394.8</ele>
        <time>2021-08-11T09:34:46Z</time>
      </trkpt>
      <trkpt lat="45.11653" lon="2.63643">
        <ele>1395</ele>
        <time>2021-08-11T09:34:47Z</time>
      </trkpt>
      <trkpt lat="45.11653" lon="2.63645">
        <ele>1395.2</ele>
        <time>2021-08-11T09:34:48Z</time>
      </trkpt>
      <trkpt lat="45.11653" lon="2.63646">
        <ele>1395.5</ele>
        <time>2021-08-11T09:34:49Z</time>
      </trkpt>
      <trkpt lat="45.11653" lon="2.63647">
        <ele>1395.7</ele>
        <time>2021-08-11T09:34:50Z</time>
      </trkpt>
      <trkpt lat="45.11653" lon="2.63649">
        <ele>1395.9</ele>
        <time>2021-08-11T09:34:51Z</time>
      </trkpt>
      <trkpt lat="45.11653" lon="2.6365">
        <ele>1396.2</ele>
        <time>2021-08-11T09:34:52Z</time>
      </trkpt>
      <trkpt lat="45.11653" lon="2.63651">
        <ele>1396.4</ele>
        <time>2021-08-11T09:34:53Z</time>
      </trkpt>
      <trkpt lat="45.11653" lon="2.63652">
        <ele>1396.6</ele>
        <time>2021-08-11T09:34:54Z</time>
      </trkpt>
      <trkpt lat="45.11653" lon="2.63654">
        <ele>1396.8</ele>
        <time>2021-08-11T09:34:55Z</time>
      </trkpt>
      <trkpt lat="45.11654" lon="2.63655">
        <ele>1397.1</ele>
        <time>2021-08-11T09:34:56Z</time>
      </trkpt>
      <trkpt lat="45.11654" lon="2.63655">
        <ele>1397.2</ele>
        <time>2021-08-11T09:34:57Z</time>
      </trkpt>
      <trkpt lat="45.11654" lon="2.63657">
        <ele>1397.5</ele>
        <time>2021-08-11T09:34:58Z</time>
      </trkpt>
      <trkpt lat="45.11654" lon="2.63658">
        <ele>1397.7</ele>
        <time>2021-08-11T09:34:59Z</time>
      </trkpt>
      <trkpt lat="45.11654" lon="2.63659">
        <ele>1397.9</ele>
        <time>2021-08-11T09:35:00Z</time>
      </trkpt>
      <trkpt lat="45.11654" lon="2.6366">
        <ele>1398.2</ele>
        <time>2021-08-11T09:35:01Z</time>
      </trkpt>
      <trkpt lat="45.11654" lon="2.63661">
        <ele>1398.4</ele>
        <time>2021-08-11T09:35:02Z</time>
      </trkpt>
      <trkpt lat="45.11655" lon="2.63663">
        <ele>1398.7</ele>
        <time>2021-08-11T09:35:03Z</time>
      </trkpt>
      <trkpt lat="45.11655" lon="2.63663">
        <ele>1398.9</ele>
        <time>2021-08-11T09:35:04Z</time>
      </trkpt>
      <trkpt lat="45.11655" lon="2.63664">
        <ele>1399.1</ele>
        <time>2021-08-11T09:35:05Z</time>
      </trkpt>
      <trkpt lat="45.11656" lon="2.63665">
        <ele>1399.4</ele>
        <time>2021-08-11T09:35:06Z</time>
      </trkpt>
      <trkpt lat="45.11656" lon="2.63666">
        <ele>1399.6</ele>
        <time>2021-08-11T09:35:07Z</time>
      </trkpt>
      <trkpt lat="45.11656" lon="2.63667">
        <ele>1399.9</ele>
        <time>2021-08-11T09:35:08Z</time>
      </trkpt>
      <trkpt lat="45.11657" lon="2.63668">
        <ele>1400.1</ele>
        <time>2021-08-11T09:35:09Z</time>
      </trkpt>
      <trkpt lat="45.11657" lon="2.63669">
        <ele>1400.4</ele>
        <time>2021-08-11T09:35:10Z</time>
      </trkpt>
      <trkpt lat="45.11658" lon="2.6367">
        <ele>1400.7</ele>
        <time>2021-08-11T09:35:11Z</time>
      </trkpt>
      <trkpt lat="45.11658" lon="2.63671">
        <ele>1400.9</ele>
        <time>2021-08-11T09:35:12Z</time>
      </trkpt>
      <trkpt lat="45.11658" lon="2.63672">
        <ele>1401.2</ele>
        <time>2021-08-11T09:35:13Z</time>
      </trkpt>
      <trkpt lat="45.11658" lon="2.63673">
        <ele>1401.5</ele>
        <time>2021-08-11T09:35:14Z</time>
      </trkpt>
      <trkpt lat="45.11658" lon="2.63674">
        <ele>1401.6</ele>
        <time>2021-08-11T09:35:15Z</time>
      </trkpt>
      <trkpt lat="45.11658" lon="2.63675">
        <ele>1401.8</ele>
        <time>2021-08-11T09:35:16Z</time>
      </trkpt>
      <trkpt lat="45.11658" lon="2.63676">
        <ele>1402</ele>
        <time>2021-08-11T09:35:17Z</time>
      </trkpt>
      <trkpt lat="45.11658" lon="2.63677">
        <ele>1402.2</ele>
        <time>2021-08-11T09:35:18Z</time>
      </trkpt>
      <trkpt lat="45.11658" lon="2.63678">
        <ele>1402.4</ele>
        <time>2021-08-11T09:35:19Z</time>
      </trkpt>
      <trkpt lat="45.11658" lon="2.63679">
        <ele>1402.4</ele>
        <time>2021-08-11T09:35:20Z</time>
      </trkpt>
      <trkpt lat="45.11657" lon="2.6368">
        <ele>1402.5</ele>
        <time>2021-08-11T09:35:21Z</time>
      </trkpt>
      <trkpt lat="45.11657" lon="2.63681">
        <ele>1402.6</ele>
        <time>2021-08-11T09:35:22Z</time>
      </trkpt>
      <trkpt lat="45.11656" lon="2.63681">
        <ele>1402.6</ele>
        <time>2021-08-11T09:35:23Z</time>
      </trkpt>
      <trkpt lat="45.11656" lon="2.63682">
        <ele>1402.6</ele>
        <time>2021-08-11T09:35:24Z</time>
      </trkpt>
      <trkpt lat="45.11655" lon="2.63683">
        <ele>1402.7</ele>
        <time>2021-08-11T09:35:25Z</time>
      </trkpt>
      <trkpt lat="45.11655" lon="2.63684">
        <ele>1402.8</ele>
        <time>2021-08-11T09:35:26Z</time>
      </trkpt>
      <trkpt lat="45.11655" lon="2.63685">
        <ele>1402.9</ele>
        <time>2021-08-11T09:35:27Z</time>
      </trkpt>
      <trkpt lat="45.11654" lon="2.63686">
        <ele>1403</ele>
        <time>2021-08-11T09:35:28Z</time>
      </trkpt>
      <trkpt lat="45.11654" lon="2.63687">
        <ele>1403.1</ele>
        <time>2021-08-11T09:35:29Z</time>
      </trkpt>
      <trkpt lat="45.11654" lon="2.63688">
        <ele>1403.3</ele>
        <time>2021-08-11T09:35:30Z</time>
      </trkpt>
      <trkpt lat="45.11653" lon="2.63689">
        <ele>1403.4</ele>
        <time>2021-08-11T09:35:31Z</time>
      </trkpt>
      <trkpt lat="45.11653" lon="2.6369">
        <ele>1403.6</ele>
        <time>2021-08-11T09:35:32Z</time>
      </trkpt>
      <trkpt lat="45.11653" lon="2.63691">
        <ele>1403.8</ele>
        <time>2021-08-11T09:35:33Z</time>
      </trkpt>
      <trkpt lat="45.11653" lon="2.63692">
        <ele>1403.9</ele>
        <time>2021-08-11T09:35:34Z</time>
      </trkpt>
      <trkpt lat="45.11652" lon="2.63693">
        <ele>1404</ele>
        <time>2021-08-11T09:35:35Z</time>
      </trkpt>
      <trkpt lat="45.11652" lon="2.63695">
        <ele>1404.2</ele>
        <time>2021-08-11T09:35:36Z</time>
      </trkpt>
      <trkpt lat="45.11651" lon="2.63696">
        <ele>1404.4</ele>
        <time>2021-08-11T09:35:37Z</time>
      </trkpt>
      <trkpt lat="45.11651" lon="2.63697">
        <ele>1404.5</ele>
        <time>2021-08-11T09:35:38Z</time>
      </trkpt>
      <trkpt lat="45.11651" lon="2.63698">
        <ele>1404.7</ele>
        <time>2021-08-11T09:35:39Z</time>
      </trkpt>
      <trkpt lat="45.1165" lon="2.63699">
        <ele>1404.9</ele>
        <time>2021-08-11T09:35:40Z</time>
      </trkpt>
      <trkpt lat="45.1165" lon="2.637">
        <ele>1405</ele>
        <time>2021-08-11T09:35:41Z</time>
      </trkpt>
      <trkpt lat="45.1165" lon="2.63702">
        <ele>1405.3</ele>
        <time>2021-08-11T09:35:42Z</time>
      </trkpt>
      <trkpt lat="45.1165" lon="2.63703">
        <ele>1405.4</ele>
        <time>2021-08-11T09:35:43Z</time>
      </trkpt>
      <trkpt lat="45.11649" lon="2.63704">
        <ele>1405.6</ele>
        <time>2021-08-11T09:35:44Z</time>
      </trkpt>
      <trkpt lat="45.11649" lon="2.63705">
        <ele>1405.8</ele>
        <time>2021-08-11T09:35:45Z</time>
      </trkpt>
      <trkpt lat="45.11649" lon="2.63707">
        <ele>1406</ele>
        <time>2021-08-11T09:35:46Z</time>
      </trkpt>
      <trkpt lat="45.11649" lon="2.63708">
        <ele>1406.2</ele>
        <time>2021-08-11T09:35:47Z</time>
      </trkpt>
      <trkpt lat="45.11649" lon="2.63709">
        <ele>1406.4</ele>
        <time>2021-08-11T09:35:48Z</time>
      </trkpt>
      <trkpt lat="45.11648" lon="2.6371">
        <ele>1406.6</ele>
        <time>2021-08-11T09:35:49Z</time>
      </trkpt>
      <trkpt lat="45.11648" lon="2.63711">
        <ele>1406.8</ele>
        <time>2021-08-11T09:35:50Z</time>
      </trkpt>
      <trkpt lat="45.11648" lon="2.63713">
        <ele>1406.9</ele>
        <time>2021-08-11T09:35:51Z</time>
      </trkpt>
      <trkpt lat="45.11647" lon="2.63714">
        <ele>1407.1</ele>
        <time>2021-08-11T09:35:52Z</time>
      </trkpt>
      <trkpt lat="45.11647" lon="2.63715">
        <ele>1407.3</ele>
        <time>2021-08-11T09:35:53Z</time>
      </trkpt>
      <trkpt lat="45.11647" lon="2.63716">
        <ele>1407.5</ele>
        <time>2021-08-11T09:35:54Z</time>
      </trkpt>
      <trkpt lat="45.11647" lon="2.63717">
        <ele>1407.7</ele>
        <time>2021-08-11T09:35:55Z</time>
      </trkpt>
      <trkpt lat="45.11647" lon="2.63718">
        <ele>1407.9</ele>
        <time>2021-08-11T09:35:56Z</time>
      </trkpt>
      <trkpt lat="45.11647" lon="2.63719">
        <ele>1408</ele>
        <time>2021-08-11T09:35:57Z</time>
      </trkpt>
      <trkpt lat="45.11647" lon="2.6372">
        <ele>1408.1</ele>
        <time>2021-08-11T09:35:58Z</time>
      </trkpt>
      <trkpt lat="45.11646" lon="2.63721">
        <ele>1408.3</ele>
        <time>2021-08-11T09:35:59Z</time>
      </trkpt>
      <trkpt lat="45.11646" lon="2.63721">
        <ele>1408.4</ele>
        <time>2021-08-11T09:36:00Z</time>
      </trkpt>
      <trkpt lat="45.11646" lon="2.63722">
        <ele>1408.5</ele>
        <time>2021-08-11T09:36:01Z</time>
      </trkpt>
      <trkpt lat="45.11646" lon="2.63723">
        <ele>1408.7</ele>
        <time>2021-08-11T09:36:02Z</time>
      </trkpt>
      <trkpt lat="45.11646" lon="2.63724">
        <ele>1408.8</ele>
        <time>2021-08-11T09:36:03Z</time>
      </trkpt>
      <trkpt lat="45.11645" lon="2.63725">
        <ele>1409</ele>
        <time>2021-08-11T09:36:04Z</time>
      </trkpt>
      <trkpt lat="45.11645" lon="2.63726">
        <ele>1409.1</ele>
        <time>2021-08-11T09:36:05Z</time>
      </trkpt>
      <trkpt lat="45.11645" lon="2.63727">
        <ele>1409.2</ele>
        <time>2021-08-11T09:36:06Z</time>
      </trkpt>
      <trkpt lat="45.11644" lon="2.63728">
        <ele>1409.3</ele>
        <time>2021-08-11T09:36:07Z</time>
      </trkpt>
      <trkpt lat="45.11644" lon="2.63729">
        <ele>1409.4</ele>
        <time>2021-08-11T09:36:08Z</time>
      </trkpt>
      <trkpt lat="45.11644" lon="2.6373">
        <ele>1409.6</ele>
        <time>2021-08-11T09:36:09Z</time>
      </trkpt>
      <trkpt lat="45.11643" lon="2.63731">
        <ele>1409.7</ele>
        <time>2021-08-11T09:36:10Z</time>
      </trkpt>
      <trkpt lat="45.11643" lon="2.63732">
        <ele>1409.8</ele>
        <time>2021-08-11T09:36:11Z</time>
      </trkpt>
      <trkpt lat="45.11643" lon="2.63733">
        <ele>1409.9</ele>
        <time>2021-08-11T09:36:12Z</time>
      </trkpt>
      <trkpt lat="45.11642" lon="2.63734">
        <ele>1410.1</ele>
        <time>2021-08-11T09:36:13Z</time>
      </trkpt>
      <trkpt lat="45.11642" lon="2.63735">
        <ele>1410.2</ele>
        <time>2021-08-11T09:36:14Z</time>
      </trkpt>
      <trkpt lat="45.11642" lon="2.63736">
        <ele>1410.4</ele>
        <time>2021-08-11T09:36:15Z</time>
      </trkpt>
      <trkpt lat="45.11642" lon="2.63737">
        <ele>1410.6</ele>
        <time>2021-08-11T09:36:16Z</time>
      </trkpt>
      <trkpt lat="45.11642" lon="2.63738">
        <ele>1410.8</ele>
        <time>2021-08-11T09:36:17Z</time>
      </trkpt>
      <trkpt lat="45.11642" lon="2.63739">
        <ele>1411</ele>
        <time>2021-08-11T09:36:18Z</time>
      </trkpt>
      <trkpt lat="45.11642" lon="2.63739">
        <ele>1411.1</ele>
        <time>2021-08-11T09:36:19Z</time>
      </trkpt>
      <trkpt lat="45.11642" lon="2.6374">
        <ele>1411.3</ele>
        <time>2021-08-11T09:36:20Z</time>
      </trkpt>
      <trkpt lat="45.11642" lon="2.63741">
        <ele>1411.4</ele>
        <time>2021-08-11T09:36:21Z</time>
      </trkpt>
      <trkpt lat="45.11642" lon="2.63742">
        <ele>1411.5</ele>
        <time>2021-08-11T09:36:22Z</time>
      </trkpt>
      <trkpt lat="45.11641" lon="2.63743">
        <ele>1411.6</ele>
        <time>2021-08-11T09:36:23Z</time>
      </trkpt>
      <trkpt lat="45.11641" lon="2.63743">
        <ele>1411.7</ele>
        <time>2021-08-11T09:36:24Z</time>
      </trkpt>
      <trkpt lat="45.1164" lon="2.63744">
        <ele>1411.7</ele>
        <time>2021-08-11T09:36:25Z</time>
      </trkpt>
      <trkpt lat="45.1164" lon="2.63745">
        <ele>1411.9</ele>
        <time>2021-08-11T09:36:26Z</time>
      </trkpt>
      <trkpt lat="45.1164" lon="2.63746">
        <ele>1412</ele>
        <time>2021-08-11T09:36:27Z</time>
      </trkpt>
      <trkpt lat="45.1164" lon="2.63747">
        <ele>1412.2</ele>
        <time>2021-08-11T09:36:28Z</time>
      </trkpt>
      <trkpt lat="45.1164" lon="2.63748">
        <ele>1412.3</ele>
        <time>2021-08-11T09:36:29Z</time>
      </trkpt>
      <trkpt lat="45.1164" lon="2.63749">
        <ele>1412.5</ele>
        <time>2021-08-11T09:36:30Z</time>
      </trkpt>
      <trkpt lat="45.1164" lon="2.63749">
        <ele>1412.6</ele>
        <time>2021-08-11T09:36:31Z</time>
      </trkpt>
      <trkpt lat="45.1164" lon="2.6375">
        <ele>1412.8</ele>
        <time>2021-08-11T09:36:32Z</time>
      </trkpt>
      <trkpt lat="45.1164" lon="2.63751">
        <ele>1413</ele>
        <time>2021-08-11T09:36:33Z</time>
      </trkpt>
      <trkpt lat="45.11639" lon="2.63752">
        <ele>1413.1</ele>
        <time>2021-08-11T09:36:34Z</time>
      </trkpt>
      <trkpt lat="45.11639" lon="2.63752">
        <ele>1413.3</ele>
        <time>2021-08-11T09:36:35Z</time>
      </trkpt>
      <trkpt lat="45.11639" lon="2.63753">
        <ele>1413.4</ele>
        <time>2021-08-11T09:36:36Z</time>
      </trkpt>
      <trkpt lat="45.11639" lon="2.63754">
        <ele>1413.6</ele>
        <time>2021-08-11T09:36:37Z</time>
      </trkpt>
      <trkpt lat="45.11639" lon="2.63755">
        <ele>1413.8</ele>
        <time>2021-08-11T09:36:38Z</time>
      </trkpt>
      <trkpt lat="45.11639" lon="2.63755">
        <ele>1414</ele>
        <time>2021-08-11T09:36:39Z</time>
      </trkpt>
      <trkpt lat="45.11638" lon="2.63756">
        <ele>1414.2</ele>
        <time>2021-08-11T09:36:40Z</time>
      </trkpt>
      <trkpt lat="45.11638" lon="2.63757">
        <ele>1414.5</ele>
        <time>2021-08-11T09:36:41Z</time>
      </trkpt>
      <trkpt lat="45.11638" lon="2.63758">
        <ele>1414.6</ele>
        <time>2021-08-11T09:36:42Z</time>
      </trkpt>
      <trkpt lat="45.11638" lon="2.63758">
        <ele>1414.7</ele>
        <time>2021-08-11T09:36:43Z</time>
      </trkpt>
      <trkpt lat="45.11638" lon="2.63759">
        <ele>1414.9</ele>
        <time>2021-08-11T09:36:44Z</time>
      </trkpt>
      <trkpt lat="45.11638" lon="2.6376">
        <ele>1415.1</ele>
        <time>2021-08-11T09:36:45Z</time>
      </trkpt>
      <trkpt lat="45.11638" lon="2.63761">
        <ele>1415.2</ele>
        <time>2021-08-11T09:36:46Z</time>
      </trkpt>
      <trkpt lat="45.11638" lon="2.63761">
        <ele>1415.4</ele>
        <time>2021-08-11T09:36:47Z</time>
      </trkpt>
      <trkpt lat="45.11638" lon="2.63762">
        <ele>1415.6</ele>
        <time>2021-08-11T09:36:48Z</time>
      </trkpt>
      <trkpt lat="45.11638" lon="2.63763">
        <ele>1415.7</ele>
        <time>2021-08-11T09:36:49Z</time>
      </trkpt>
      <trkpt lat="45.11637" lon="2.63764">
        <ele>1415.9</ele>
        <time>2021-08-11T09:36:50Z</time>
      </trkpt>
      <trkpt lat="45.11637" lon="2.63764">
        <ele>1416</ele>
        <time>2021-08-11T09:36:51Z</time>
      </trkpt>
      <trkpt lat="45.11637" lon="2.63765">
        <ele>1416.2</ele>
        <time>2021-08-11T09:36:52Z</time>
      </trkpt>
      <trkpt lat="45.11637" lon="2.63766">
        <ele>1416.5</ele>
        <time>2021-08-11T09:36:53Z</time>
      </trkpt>
      <trkpt lat="45.11637" lon="2.63767">
        <ele>1416.7</ele>
        <time>2021-08-11T09:36:54Z</time>
      </trkpt>
      <trkpt lat="45.11637" lon="2.63768">
        <ele>1416.9</ele>
        <time>2021-08-11T09:36:55Z</time>
      </trkpt>
      <trkpt lat="45.11637" lon="2.63768">
        <ele>1416.9</ele>
        <time>2021-08-11T09:36:56Z</time>
      </trkpt>
      <trkpt lat="45.11636" lon="2.63769">
        <ele>1417</ele>
        <time>2021-08-11T09:36:57Z</time>
      </trkpt>
      <trkpt lat="45.11636" lon="2.63769">
        <ele>1417.1</ele>
        <time>2021-08-11T09:36:58Z</time>
      </trkpt>
      <trkpt lat="45.11635" lon="2.6377">
        <ele>1417.1</ele>
        <time>2021-08-11T09:36:59Z</time>
      </trkpt>
      <trkpt lat="45.11634" lon="2.63771">
        <ele>1417.1</ele>
        <time>2021-08-11T09:37:00Z</time>
      </trkpt>
      <trkpt lat="45.11634" lon="2.63771">
        <ele>1417.1</ele>
        <time>2021-08-11T09:37:01Z</time>
      </trkpt>
      <trkpt lat="45.11634" lon="2.63771">
        <ele>1417.1</ele>
        <time>2021-08-11T09:37:02Z</time>
      </trkpt>
      <trkpt lat="45.11634" lon="2.63771">
        <ele>1417.1</ele>
        <time>2021-08-11T09:37:03Z</time>
      </trkpt>
      <trkpt lat="45.11634" lon="2.6377">
        <ele>1417</ele>
        <time>2021-08-11T09:37:04Z</time>
      </trkpt>
      <trkpt lat="45.11634" lon="2.6377">
        <ele>1417</ele>
        <time>2021-08-11T09:37:05Z</time>
      </trkpt>
      <trkpt lat="45.11634" lon="2.6377">
        <ele>1417</ele>
        <time>2021-08-11T09:37:06Z</time>
      </trkpt>
      <trkpt lat="45.11634" lon="2.6377">
        <ele>1417</ele>
        <time>2021-08-11T09:37:07Z</time>
      </trkpt>
      <trkpt lat="45.11634" lon="2.6377">
        <ele>1417</ele>
        <time>2021-08-11T09:37:08Z</time>
      </trkpt>
      <trkpt lat="45.11634" lon="2.6377">
        <ele>1417</ele>
        <time>2021-08-11T09:37:09Z</time>
      </trkpt>
      <trkpt lat="45.11634" lon="2.63771">
        <ele>1417</ele>
        <time>2021-08-11T09:37:10Z</time>
      </trkpt>
      <trkpt lat="45.11634" lon="2.63771">
        <ele>1417.1</ele>
        <time>2021-08-11T09:37:11Z</time>
      </trkpt>
      <trkpt lat="45.11634" lon="2.63771">
        <ele>1417.1</ele>
        <time>2021-08-11T09:37:12Z</time>
      </trkpt>
      <trkpt lat="45.11634" lon="2.63771">
        <ele>1417.1</ele>
        <time>2021-08-11T09:37:13Z</time>
      </trkpt>
      <trkpt lat="45.11634" lon="2.63771">
        <ele>1417.1</ele>
        <time>2021-08-11T09:37:14Z</time>
      </trkpt>
      <trkpt lat="45.11634" lon="2.63771">
        <ele>1417.1</ele>
        <time>2021-08-11T09:37:15Z</time>
      </trkpt>
      <trkpt lat="45.11634" lon="2.63771">
        <ele>1417.2</ele>
        <time>2021-08-11T09:37:16Z</time>
      </trkpt>
      <trkpt lat="45.11634" lon="2.63772">
        <ele>1417.3</ele>
        <time>2021-08-11T09:37:17Z</time>
      </trkpt>
      <trkpt lat="45.11634" lon="2.63773">
        <ele>1417.5</ele>
        <time>2021-08-11T09:37:18Z</time>
      </trkpt>
      <trkpt lat="45.11633" lon="2.63774">
        <ele>1417.7</ele>
        <time>2021-08-11T09:37:19Z</time>
      </trkpt>
      <trkpt lat="45.11633" lon="2.63774">
        <ele>1417.9</ele>
        <time>2021-08-11T09:37:20Z</time>
      </trkpt>
      <trkpt lat="45.11633" lon="2.63775">
        <ele>1418.1</ele>
        <time>2021-08-11T09:37:21Z</time>
      </trkpt>
      <trkpt lat="45.11633" lon="2.63776">
        <ele>1418.3</ele>
        <time>2021-08-11T09:37:22Z</time>
      </trkpt>
      <trkpt lat="45.11632" lon="2.63777">
        <ele>1418.4</ele>
        <time>2021-08-11T09:37:23Z</time>
      </trkpt>
      <trkpt lat="45.11632" lon="2.63777">
        <ele>1418.5</ele>
        <time>2021-08-11T09:37:24Z</time>
      </trkpt>
      <trkpt lat="45.11632" lon="2.63778">
        <ele>1418.7</ele>
        <time>2021-08-11T09:37:25Z</time>
      </trkpt>
      <trkpt lat="45.11632" lon="2.63778">
        <ele>1418.8</ele>
        <time>2021-08-11T09:37:26Z</time>
      </trkpt>
      <trkpt lat="45.11632" lon="2.63779">
        <ele>1418.9</ele>
        <time>2021-08-11T09:37:27Z</time>
      </trkpt>
      <trkpt lat="45.11632" lon="2.6378">
        <ele>1419.1</ele>
        <time>2021-08-11T09:37:28Z</time>
      </trkpt>
      <trkpt lat="45.11631" lon="2.63781">
        <ele>1419.2</ele>
        <time>2021-08-11T09:37:29Z</time>
      </trkpt>
      <trkpt lat="45.11631" lon="2.63781">
        <ele>1419.3</ele>
        <time>2021-08-11T09:37:30Z</time>
      </trkpt>
      <trkpt lat="45.11631" lon="2.63782">
        <ele>1419.4</ele>
        <time>2021-08-11T09:37:31Z</time>
      </trkpt>
      <trkpt lat="45.1163" lon="2.63782">
        <ele>1419.5</ele>
        <time>2021-08-11T09:37:32Z</time>
      </trkpt>
      <trkpt lat="45.1163" lon="2.63783">
        <ele>1419.6</ele>
        <time>2021-08-11T09:37:33Z</time>
      </trkpt>
      <trkpt lat="45.1163" lon="2.63783">
        <ele>1419.7</ele>
        <time>2021-08-11T09:37:34Z</time>
      </trkpt>
      <trkpt lat="45.1163" lon="2.63784">
        <ele>1419.8</ele>
        <time>2021-08-11T09:37:35Z</time>
      </trkpt>
      <trkpt lat="45.11629" lon="2.63785">
        <ele>1420</ele>
        <time>2021-08-11T09:37:36Z</time>
      </trkpt>
      <trkpt lat="45.11629" lon="2.63786">
        <ele>1420.2</ele>
        <time>2021-08-11T09:37:37Z</time>
      </trkpt>
      <trkpt lat="45.11628" lon="2.63787">
        <ele>1420.3</ele>
        <time>2021-08-11T09:37:38Z</time>
      </trkpt>
      <trkpt lat="45.11628" lon="2.63788">
        <ele>1420.5</ele>
        <time>2021-08-11T09:37:39Z</time>
      </trkpt>
      <trkpt lat="45.11628" lon="2.63789">
        <ele>1420.7</ele>
        <time>2021-08-11T09:37:40Z</time>
      </trkpt>
      <trkpt lat="45.11627" lon="2.6379">
        <ele>1420.8</ele>
        <time>2021-08-11T09:37:41Z</time>
      </trkpt>
      <trkpt lat="45.11627" lon="2.6379">
        <ele>1420.9</ele>
        <time>2021-08-11T09:37:42Z</time>
      </trkpt>
      <trkpt lat="45.11626" lon="2.63791">
        <ele>1421.1</ele>
        <time>2021-08-11T09:37:43Z</time>
      </trkpt>
      <trkpt lat="45.11626" lon="2.63792">
        <ele>1421.2</ele>
        <time>2021-08-11T09:37:44Z</time>
      </trkpt>
      <trkpt lat="45.11625" lon="2.63793">
        <ele>1421.4</ele>
        <time>2021-08-11T09:37:45Z</time>
      </trkpt>
      <trkpt lat="45.11624" lon="2.63794">
        <ele>1421.5</ele>
        <time>2021-08-11T09:37:46Z</time>
      </trkpt>
      <trkpt lat="45.11624" lon="2.63795">
        <ele>1421.6</ele>
        <time>2021-08-11T09:37:47Z</time>
      </trkpt>
      <trkpt lat="45.11623" lon="2.63796">
        <ele>1421.7</ele>
        <time>2021-08-11T09:37:48Z</time>
      </trkpt>
      <trkpt lat="45.11623" lon="2.63796">
        <ele>1421.8</ele>
        <time>2021-08-11T09:37:49Z</time>
      </trkpt>
      <trkpt lat="45.11622" lon="2.63797">
        <ele>1422</ele>
        <time>2021-08-11T09:37:50Z</time>
      </trkpt>
      <trkpt lat="45.11622" lon="2.63798">
        <ele>1422.1</ele>
        <time>2021-08-11T09:37:51Z</time>
      </trkpt>
      <trkpt lat="45.11622" lon="2.63799">
        <ele>1422.3</ele>
        <time>2021-08-11T09:37:52Z</time>
      </trkpt>
      <trkpt lat="45.11621" lon="2.638">
        <ele>1422.4</ele>
        <time>2021-08-11T09:37:53Z</time>
      </trkpt>
      <trkpt lat="45.11621" lon="2.63801">
        <ele>1422.6</ele>
        <time>2021-08-11T09:37:54Z</time>
      </trkpt>
      <trkpt lat="45.1162" lon="2.63802">
        <ele>1422.8</ele>
        <time>2021-08-11T09:37:55Z</time>
      </trkpt>
      <trkpt lat="45.1162" lon="2.63802">
        <ele>1422.9</ele>
        <time>2021-08-11T09:37:56Z</time>
      </trkpt>
      <trkpt lat="45.1162" lon="2.63803">
        <ele>1423.1</ele>
        <time>2021-08-11T09:37:57Z</time>
      </trkpt>
      <trkpt lat="45.11619" lon="2.63804">
        <ele>1423.2</ele>
        <time>2021-08-11T09:37:58Z</time>
      </trkpt>
      <trkpt lat="45.11619" lon="2.63805">
        <ele>1423.4</ele>
        <time>2021-08-11T09:37:59Z</time>
      </trkpt>
      <trkpt lat="45.11618" lon="2.63806">
        <ele>1423.6</ele>
        <time>2021-08-11T09:38:00Z</time>
      </trkpt>
      <trkpt lat="45.11618" lon="2.63807">
        <ele>1423.8</ele>
        <time>2021-08-11T09:38:01Z</time>
      </trkpt>
      <trkpt lat="45.11618" lon="2.63808">
        <ele>1424</ele>
        <time>2021-08-11T09:38:02Z</time>
      </trkpt>
      <trkpt lat="45.11618" lon="2.63809">
        <ele>1424.2</ele>
        <time>2021-08-11T09:38:03Z</time>
      </trkpt>
      <trkpt lat="45.11617" lon="2.6381">
        <ele>1424.4</ele>
        <time>2021-08-11T09:38:04Z</time>
      </trkpt>
      <trkpt lat="45.11617" lon="2.63811">
        <ele>1424.5</ele>
        <time>2021-08-11T09:38:05Z</time>
      </trkpt>
      <trkpt lat="45.11617" lon="2.63811">
        <ele>1424.7</ele>
        <time>2021-08-11T09:38:06Z</time>
      </trkpt>
      <trkpt lat="45.11616" lon="2.63812">
        <ele>1424.8</ele>
        <time>2021-08-11T09:38:07Z</time>
      </trkpt>
      <trkpt lat="45.11616" lon="2.63813">
        <ele>1425</ele>
        <time>2021-08-11T09:38:08Z</time>
      </trkpt>
      <trkpt lat="45.11616" lon="2.63813">
        <ele>1425.1</ele>
        <time>2021-08-11T09:38:09Z</time>
      </trkpt>
      <trkpt lat="45.11615" lon="2.63814">
        <ele>1425.3</ele>
        <time>2021-08-11T09:38:10Z</time>
      </trkpt>
      <trkpt lat="45.11615" lon="2.63815">
        <ele>1425.3</ele>
        <time>2021-08-11T09:38:11Z</time>
      </trkpt>
      <trkpt lat="45.11615" lon="2.63815">
        <ele>1425.4</ele>
        <time>2021-08-11T09:38:12Z</time>
      </trkpt>
      <trkpt lat="45.11614" lon="2.63816">
        <ele>1425.5</ele>
        <time>2021-08-11T09:38:13Z</time>
      </trkpt>
      <trkpt lat="45.11614" lon="2.63817">
        <ele>1425.6</ele>
        <time>2021-08-11T09:38:14Z</time>
      </trkpt>
      <trkpt lat="45.11614" lon="2.63817">
        <ele>1425.8</ele>
        <time>2021-08-11T09:38:15Z</time>
      </trkpt>
      <trkpt lat="45.11613" lon="2.63818">
        <ele>1426</ele>
        <time>2021-08-11T09:38:16Z</time>
      </trkpt>
      <trkpt lat="45.11613" lon="2.63819">
        <ele>1426.1</ele>
        <time>2021-08-11T09:38:17Z</time>
      </trkpt>
      <trkpt lat="45.11612" lon="2.6382">
        <ele>1426.3</ele>
        <time>2021-08-11T09:38:18Z</time>
      </trkpt>
      <trkpt lat="45.11612" lon="2.63821">
        <ele>1426.4</ele>
        <time>2021-08-11T09:38:19Z</time>
      </trkpt>
      <trkpt lat="45.11612" lon="2.63822">
        <ele>1426.6</ele>
        <time>2021-08-11T09:38:20Z</time>
      </trkpt>
      <trkpt lat="45.11612" lon="2.63822">
        <ele>1426.8</ele>
        <time>2021-08-11T09:38:21Z</time>
      </trkpt>
      <trkpt lat="45.11611" lon="2.63823">
        <ele>1426.9</ele>
        <time>2021-08-11T09:38:22Z</time>
      </trkpt>
      <trkpt lat="45.11611" lon="2.63824">
        <ele>1427.1</ele>
        <time>2021-08-11T09:38:23Z</time>
      </trkpt>
      <trkpt lat="45.11611" lon="2.63825">
        <ele>1427.3</ele>
        <time>2021-08-11T09:38:24Z</time>
      </trkpt>
      <trkpt lat="45.11611" lon="2.63825">
        <ele>1427.4</ele>
        <time>2021-08-11T09:38:25Z</time>
      </trkpt>
      <trkpt lat="45.11611" lon="2.63826">
        <ele>1427.6</ele>
        <time>2021-08-11T09:38:26Z</time>
      </trkpt>
      <trkpt lat="45.11611" lon="2.63827">
        <ele>1427.9</ele>
        <time>2021-08-11T09:38:27Z</time>
      </trkpt>
      <trkpt lat="45.1161" lon="2.63828">
        <ele>1428.1</ele>
        <time>2021-08-11T09:38:28Z</time>
      </trkpt>
      <trkpt lat="45.1161" lon="2.63829">
        <ele>1428.3</ele>
        <time>2021-08-11T09:38:29Z</time>
      </trkpt>
      <trkpt lat="45.1161" lon="2.6383">
        <ele>1428.5</ele>
        <time>2021-08-11T09:38:30Z</time>
      </trkpt>
      <trkpt lat="45.1161" lon="2.6383">
        <ele>1428.6</ele>
        <time>2021-08-11T09:38:31Z</time>
      </trkpt>
      <trkpt lat="45.1161" lon="2.63831">
        <ele>1428.8</ele>
        <time>2021-08-11T09:38:32Z</time>
      </trkpt>
      <trkpt lat="45.11609" lon="2.63832">
        <ele>1428.9</ele>
        <time>2021-08-11T09:38:33Z</time>
      </trkpt>
      <trkpt lat="45.11609" lon="2.63833">
        <ele>1429.1</ele>
        <time>2021-08-11T09:38:34Z</time>
      </trkpt>
      <trkpt lat="45.11608" lon="2.63833">
        <ele>1429.1</ele>
        <time>2021-08-11T09:38:35Z</time>
      </trkpt>
      <trkpt lat="45.11608" lon="2.63834">
        <ele>1429.2</ele>
        <time>2021-08-11T09:38:36Z</time>
      </trkpt>
      <trkpt lat="45.11607" lon="2.63834">
        <ele>1429.3</ele>
        <time>2021-08-11T09:38:37Z</time>
      </trkpt>
      <trkpt lat="45.11607" lon="2.63834">
        <ele>1429.3</ele>
        <time>2021-08-11T09:38:38Z</time>
      </trkpt>
      <trkpt lat="45.11606" lon="2.63835">
        <ele>1429.4</ele>
        <time>2021-08-11T09:38:39Z</time>
      </trkpt>
      <trkpt lat="45.11606" lon="2.63835">
        <ele>1429.4</ele>
        <time>2021-08-11T09:38:40Z</time>
      </trkpt>
      <trkpt lat="45.11605" lon="2.63836">
        <ele>1429.5</ele>
        <time>2021-08-11T09:38:41Z</time>
      </trkpt>
      <trkpt lat="45.11605" lon="2.63836">
        <ele>1429.5</ele>
        <time>2021-08-11T09:38:42Z</time>
      </trkpt>
      <trkpt lat="45.11604" lon="2.63836">
        <ele>1429.7</ele>
        <time>2021-08-11T09:38:43Z</time>
      </trkpt>
      <trkpt lat="45.11604" lon="2.63837">
        <ele>1429.8</ele>
        <time>2021-08-11T09:38:44Z</time>
      </trkpt>
      <trkpt lat="45.11603" lon="2.63838">
        <ele>1429.9</ele>
        <time>2021-08-11T09:38:45Z</time>
      </trkpt>
      <trkpt lat="45.11603" lon="2.63838">
        <ele>1430.1</ele>
        <time>2021-08-11T09:38:46Z</time>
      </trkpt>
      <trkpt lat="45.11603" lon="2.63838">
        <ele>1430.2</ele>
        <time>2021-08-11T09:38:47Z</time>
      </trkpt>
      <trkpt lat="45.11603" lon="2.63839">
        <ele>1430.4</ele>
        <time>2021-08-11T09:38:48Z</time>
      </trkpt>
      <trkpt lat="45.11602" lon="2.6384">
        <ele>1430.6</ele>
        <time>2021-08-11T09:38:49Z</time>
      </trkpt>
      <trkpt lat="45.11602" lon="2.6384">
        <ele>1430.7</ele>
        <time>2021-08-11T09:38:50Z</time>
      </trkpt>
      <trkpt lat="45.11602" lon="2.63841">
        <ele>1430.9</ele>
        <time>2021-08-11T09:38:51Z</time>
      </trkpt>
      <trkpt lat="45.11602" lon="2.63841">
        <ele>1431</ele>
        <time>2021-08-11T09:38:52Z</time>
      </trkpt>
      <trkpt lat="45.11601" lon="2.63842">
        <ele>1431.1</ele>
        <time>2021-08-11T09:38:53Z</time>
      </trkpt>
      <trkpt lat="45.11601" lon="2.63842">
        <ele>1431.4</ele>
        <time>2021-08-11T09:38:54Z</time>
      </trkpt>
      <trkpt lat="45.11601" lon="2.63843">
        <ele>1431.5</ele>
        <time>2021-08-11T09:38:55Z</time>
      </trkpt>
      <trkpt lat="45.11601" lon="2.63843">
        <ele>1431.6</ele>
        <time>2021-08-11T09:38:56Z</time>
      </trkpt>
      <trkpt lat="45.11601" lon="2.63844">
        <ele>1431.7</ele>
        <time>2021-08-11T09:38:57Z</time>
      </trkpt>
      <trkpt lat="45.116" lon="2.63844">
        <ele>1432</ele>
        <time>2021-08-11T09:38:58Z</time>
      </trkpt>
      <trkpt lat="45.116" lon="2.63845">
        <ele>1432.2</ele>
        <time>2021-08-11T09:38:59Z</time>
      </trkpt>
      <trkpt lat="45.116" lon="2.63846">
        <ele>1432.4</ele>
        <time>2021-08-11T09:39:00Z</time>
      </trkpt>
      <trkpt lat="45.11599" lon="2.63846">
        <ele>1432.4</ele>
        <time>2021-08-11T09:39:01Z</time>
      </trkpt>
      <trkpt lat="45.11599" lon="2.63846">
        <ele>1432.5</ele>
        <time>2021-08-11T09:39:02Z</time>
      </trkpt>
      <trkpt lat="45.11599" lon="2.63847">
        <ele>1432.7</ele>
        <time>2021-08-11T09:39:03Z</time>
      </trkpt>
      <trkpt lat="45.11598" lon="2.63847">
        <ele>1432.8</ele>
        <time>2021-08-11T09:39:04Z</time>
      </trkpt>
      <trkpt lat="45.11598" lon="2.63848">
        <ele>1433</ele>
        <time>2021-08-11T09:39:05Z</time>
      </trkpt>
      <trkpt lat="45.11598" lon="2.63848">
        <ele>1433.1</ele>
        <time>2021-08-11T09:39:06Z</time>
      </trkpt>
      <trkpt lat="45.11597" lon="2.63849">
        <ele>1433.3</ele>
        <time>2021-08-11T09:39:07Z</time>
      </trkpt>
      <trkpt lat="45.11597" lon="2.6385">
        <ele>1433.5</ele>
        <time>2021-08-11T09:39:08Z</time>
      </trkpt>
      <trkpt lat="45.11597" lon="2.6385">
        <ele>1433.7</ele>
        <time>2021-08-11T09:39:09Z</time>
      </trkpt>
      <trkpt lat="45.11597" lon="2.63851">
        <ele>1433.8</ele>
        <time>2021-08-11T09:39:10Z</time>
      </trkpt>
      <trkpt lat="45.11597" lon="2.63851">
        <ele>1434.1</ele>
        <time>2021-08-11T09:39:11Z</time>
      </trkpt>
      <trkpt lat="45.11596" lon="2.63852">
        <ele>1434.1</ele>
        <time>2021-08-11T09:39:12Z</time>
      </trkpt>
      <trkpt lat="45.11596" lon="2.63852">
        <ele>1434.2</ele>
        <time>2021-08-11T09:39:13Z</time>
      </trkpt>
      <trkpt lat="45.11596" lon="2.63852">
        <ele>1434.3</ele>
        <time>2021-08-11T09:39:14Z</time>
      </trkpt>
      <trkpt lat="45.11596" lon="2.63853">
        <ele>1434.5</ele>
        <time>2021-08-11T09:39:15Z</time>
      </trkpt>
      <trkpt lat="45.11596" lon="2.63853">
        <ele>1434.7</ele>
        <time>2021-08-11T09:39:16Z</time>
      </trkpt>
      <trkpt lat="45.11596" lon="2.63854">
        <ele>1434.9</ele>
        <time>2021-08-11T09:39:17Z</time>
      </trkpt>
      <trkpt lat="45.11595" lon="2.63855">
        <ele>1435.1</ele>
        <time>2021-08-11T09:39:18Z</time>
      </trkpt>
      <trkpt lat="45.11595" lon="2.63855">
        <ele>1435.3</ele>
        <time>2021-08-11T09:39:19Z</time>
      </trkpt>
      <trkpt lat="45.11595" lon="2.63856">
        <ele>1435.5</ele>
        <time>2021-08-11T09:39:20Z</time>
      </trkpt>
      <trkpt lat="45.11595" lon="2.63856">
        <ele>1435.5</ele>
        <time>2021-08-11T09:39:21Z</time>
      </trkpt>
      <trkpt lat="45.11595" lon="2.63856">
        <ele>1435.7</ele>
        <time>2021-08-11T09:39:22Z</time>
      </trkpt>
      <trkpt lat="45.11594" lon="2.63857">
        <ele>1435.8</ele>
        <time>2021-08-11T09:39:23Z</time>
      </trkpt>
      <trkpt lat="45.11594" lon="2.63857">
        <ele>1435.9</ele>
        <time>2021-08-11T09:39:24Z</time>
      </trkpt>
      <trkpt lat="45.11594" lon="2.63858">
        <ele>1436.2</ele>
        <time>2021-08-11T09:39:25Z</time>
      </trkpt>
      <trkpt lat="45.11594" lon="2.63858">
        <ele>1436.4</ele>
        <time>2021-08-11T09:39:26Z</time>
      </trkpt>
      <trkpt lat="45.11594" lon="2.63859">
        <ele>1436.6</ele>
        <time>2021-08-11T09:39:27Z</time>
      </trkpt>
      <trkpt lat="45.11593" lon="2.6386">
        <ele>1436.8</ele>
        <time>2021-08-11T09:39:28Z</time>
      </trkpt>
      <trkpt lat="45.11593" lon="2.6386">
        <ele>1436.9</ele>
        <time>2021-08-11T09:39:29Z</time>
      </trkpt>
      <trkpt lat="45.11593" lon="2.63861">
        <ele>1437.1</ele>
        <time>2021-08-11T09:39:30Z</time>
      </trkpt>
      <trkpt lat="45.11592" lon="2.63861">
        <ele>1437.2</ele>
        <time>2021-08-11T09:39:31Z</time>
      </trkpt>
      <trkpt lat="45.11592" lon="2.63862">
        <ele>1437.3</ele>
        <time>2021-08-11T09:39:32Z</time>
      </trkpt>
      <trkpt lat="45.11591" lon="2.63862">
        <ele>1437.4</ele>
        <time>2021-08-11T09:39:33Z</time>
      </trkpt>
      <trkpt lat="45.11591" lon="2.63862">
        <ele>1437.5</ele>
        <time>2021-08-11T09:39:34Z</time>
      </trkpt>
      <trkpt lat="45.11591" lon="2.63863">
        <ele>1437.7</ele>
        <time>2021-08-11T09:39:35Z</time>
      </trkpt>
      <trkpt lat="45.11591" lon="2.63863">
        <ele>1437.8</ele>
        <time>2021-08-11T09:39:36Z</time>
      </trkpt>
      <trkpt lat="45.11591" lon="2.63864">
        <ele>1437.9</ele>
        <time>2021-08-11T09:39:37Z</time>
      </trkpt>
      <trkpt lat="45.1159" lon="2.63864">
        <ele>1438</ele>
        <time>2021-08-11T09:39:38Z</time>
      </trkpt>
      <trkpt lat="45.1159" lon="2.63864">
        <ele>1438.1</ele>
        <time>2021-08-11T09:39:39Z</time>
      </trkpt>
      <trkpt lat="45.1159" lon="2.63865">
        <ele>1438.2</ele>
        <time>2021-08-11T09:39:40Z</time>
      </trkpt>
      <trkpt lat="45.11589" lon="2.63865">
        <ele>1438.3</ele>
        <time>2021-08-11T09:39:41Z</time>
      </trkpt>
      <trkpt lat="45.11589" lon="2.63866">
        <ele>1438.5</ele>
        <time>2021-08-11T09:39:42Z</time>
      </trkpt>
      <trkpt lat="45.11588" lon="2.63866">
        <ele>1438.5</ele>
        <time>2021-08-11T09:39:43Z</time>
      </trkpt>
      <trkpt lat="45.11588" lon="2.63866">
        <ele>1438.7</ele>
        <time>2021-08-11T09:39:44Z</time>
      </trkpt>
      <trkpt lat="45.11588" lon="2.63867">
        <ele>1438.7</ele>
        <time>2021-08-11T09:39:45Z</time>
      </trkpt>
      <trkpt lat="45.11587" lon="2.63867">
        <ele>1438.9</ele>
        <time>2021-08-11T09:39:46Z</time>
      </trkpt>
      <trkpt lat="45.11587" lon="2.63868">
        <ele>1439</ele>
        <time>2021-08-11T09:39:47Z</time>
      </trkpt>
      <trkpt lat="45.11587" lon="2.63868">
        <ele>1439.1</ele>
        <time>2021-08-11T09:39:48Z</time>
      </trkpt>
      <trkpt lat="45.11586" lon="2.63869">
        <ele>1439.3</ele>
        <time>2021-08-11T09:39:49Z</time>
      </trkpt>
      <trkpt lat="45.11586" lon="2.63869">
        <ele>1439.3</ele>
        <time>2021-08-11T09:39:50Z</time>
      </trkpt>
      <trkpt lat="45.11585" lon="2.63869">
        <ele>1439.4</ele>
        <time>2021-08-11T09:39:51Z</time>
      </trkpt>
      <trkpt lat="45.11585" lon="2.6387">
        <ele>1439.5</ele>
        <time>2021-08-11T09:39:52Z</time>
      </trkpt>
      <trkpt lat="45.11585" lon="2.6387">
        <ele>1439.7</ele>
        <time>2021-08-11T09:39:53Z</time>
      </trkpt>
      <trkpt lat="45.11584" lon="2.6387">
        <ele>1439.7</ele>
        <time>2021-08-11T09:39:54Z</time>
      </trkpt>
      <trkpt lat="45.11584" lon="2.63871">
        <ele>1439.8</ele>
        <time>2021-08-11T09:39:55Z</time>
      </trkpt>
      <trkpt lat="45.11583" lon="2.63871">
        <ele>1439.9</ele>
        <time>2021-08-11T09:39:56Z</time>
      </trkpt>
      <trkpt lat="45.11583" lon="2.63872">
        <ele>1440.1</ele>
        <time>2021-08-11T09:39:57Z</time>
      </trkpt>
      <trkpt lat="45.11583" lon="2.63872">
        <ele>1440.3</ele>
        <time>2021-08-11T09:39:58Z</time>
      </trkpt>
      <trkpt lat="45.11583" lon="2.63872">
        <ele>1440.5</ele>
        <time>2021-08-11T09:39:59Z</time>
      </trkpt>
      <trkpt lat="45.11582" lon="2.63873">
        <ele>1440.6</ele>
        <time>2021-08-11T09:40:00Z</time>
      </trkpt>
      <trkpt lat="45.11582" lon="2.63873">
        <ele>1440.8</ele>
        <time>2021-08-11T09:40:01Z</time>
      </trkpt>
      <trkpt lat="45.11582" lon="2.63874">
        <ele>1441</ele>
        <time>2021-08-11T09:40:02Z</time>
      </trkpt>
      <trkpt lat="45.11581" lon="2.63874">
        <ele>1441.2</ele>
        <time>2021-08-11T09:40:03Z</time>
      </trkpt>
      <trkpt lat="45.11581" lon="2.63875">
        <ele>1441.5</ele>
        <time>2021-08-11T09:40:04Z</time>
      </trkpt>
      <trkpt lat="45.11581" lon="2.63875">
        <ele>1441.6</ele>
        <time>2021-08-11T09:40:05Z</time>
      </trkpt>
      <trkpt lat="45.11581" lon="2.63876">
        <ele>1441.8</ele>
        <time>2021-08-11T09:40:06Z</time>
      </trkpt>
      <trkpt lat="45.1158" lon="2.63876">
        <ele>1442</ele>
        <time>2021-08-11T09:40:07Z</time>
      </trkpt>
      <trkpt lat="45.1158" lon="2.63877">
        <ele>1442.2</ele>
        <time>2021-08-11T09:40:08Z</time>
      </trkpt>
      <trkpt lat="45.1158" lon="2.63877">
        <ele>1442.4</ele>
        <time>2021-08-11T09:40:09Z</time>
      </trkpt>
      <trkpt lat="45.1158" lon="2.63877">
        <ele>1442.6</ele>
        <time>2021-08-11T09:40:10Z</time>
      </trkpt>
      <trkpt lat="45.11579" lon="2.63878">
        <ele>1442.9</ele>
        <time>2021-08-11T09:40:11Z</time>
      </trkpt>
      <trkpt lat="45.11579" lon="2.63879">
        <ele>1443.1</ele>
        <time>2021-08-11T09:40:12Z</time>
      </trkpt>
      <trkpt lat="45.11579" lon="2.63879">
        <ele>1443.2</ele>
        <time>2021-08-11T09:40:13Z</time>
      </trkpt>
      <trkpt lat="45.11579" lon="2.6388">
        <ele>1443.4</ele>
        <time>2021-08-11T09:40:14Z</time>
      </trkpt>
      <trkpt lat="45.11578" lon="2.6388">
        <ele>1443.6</ele>
        <time>2021-08-11T09:40:15Z</time>
      </trkpt>
      <trkpt lat="45.11578" lon="2.6388">
        <ele>1443.7</ele>
        <time>2021-08-11T09:40:16Z</time>
      </trkpt>
      <trkpt lat="45.11578" lon="2.6388">
        <ele>1443.8</ele>
        <time>2021-08-11T09:40:17Z</time>
      </trkpt>
      <trkpt lat="45.11578" lon="2.63881">
        <ele>1443.9</ele>
        <time>2021-08-11T09:40:18Z</time>
      </trkpt>
      <trkpt lat="45.11577" lon="2.63881">
        <ele>1444.1</ele>
        <time>2021-08-11T09:40:19Z</time>
      </trkpt>
      <trkpt lat="45.11577" lon="2.63881">
        <ele>1444.2</ele>
        <time>2021-08-11T09:40:20Z</time>
      </trkpt>
      <trkpt lat="45.11577" lon="2.63882">
        <ele>1444.4</ele>
        <time>2021-08-11T09:40:21Z</time>
      </trkpt>
      <trkpt lat="45.11576" lon="2.63882">
        <ele>1444.6</ele>
        <time>2021-08-11T09:40:22Z</time>
      </trkpt>
      <trkpt lat="45.11576" lon="2.63883">
        <ele>1444.8</ele>
        <time>2021-08-11T09:40:23Z</time>
      </trkpt>
      <trkpt lat="45.11576" lon="2.63884">
        <ele>1445.1</ele>
        <time>2021-08-11T09:40:24Z</time>
      </trkpt>
      <trkpt lat="45.11575" lon="2.63884">
        <ele>1445.3</ele>
        <time>2021-08-11T09:40:25Z</time>
      </trkpt>
      <trkpt lat="45.11575" lon="2.63884">
        <ele>1445.4</ele>
        <time>2021-08-11T09:40:26Z</time>
      </trkpt>
      <trkpt lat="45.11575" lon="2.63885">
        <ele>1445.6</ele>
        <time>2021-08-11T09:40:27Z</time>
      </trkpt>
      <trkpt lat="45.11574" lon="2.63885">
        <ele>1445.8</ele>
        <time>2021-08-11T09:40:28Z</time>
      </trkpt>
      <trkpt lat="45.11574" lon="2.63886">
        <ele>1446</ele>
        <time>2021-08-11T09:40:29Z</time>
      </trkpt>
      <trkpt lat="45.11574" lon="2.63886">
        <ele>1446.2</ele>
        <time>2021-08-11T09:40:30Z</time>
      </trkpt>
      <trkpt lat="45.11573" lon="2.63887">
        <ele>1446.5</ele>
        <time>2021-08-11T09:40:31Z</time>
      </trkpt>
      <trkpt lat="45.11573" lon="2.63887">
        <ele>1446.6</ele>
        <time>2021-08-11T09:40:32Z</time>
      </trkpt>
      <trkpt lat="45.11573" lon="2.63888">
        <ele>1446.8</ele>
        <time>2021-08-11T09:40:33Z</time>
      </trkpt>
      <trkpt lat="45.11572" lon="2.63888">
        <ele>1447.1</ele>
        <time>2021-08-11T09:40:34Z</time>
      </trkpt>
      <trkpt lat="45.11572" lon="2.63889">
        <ele>1447.2</ele>
        <time>2021-08-11T09:40:35Z</time>
      </trkpt>
      <trkpt lat="45.11572" lon="2.63889">
        <ele>1447.5</ele>
        <time>2021-08-11T09:40:36Z</time>
      </trkpt>
      <trkpt lat="45.11571" lon="2.6389">
        <ele>1447.7</ele>
        <time>2021-08-11T09:40:37Z</time>
      </trkpt>
      <trkpt lat="45.11571" lon="2.6389">
        <ele>1447.8</ele>
        <time>2021-08-11T09:40:38Z</time>
      </trkpt>
      <trkpt lat="45.11571" lon="2.6389">
        <ele>1447.9</ele>
        <time>2021-08-11T09:40:39Z</time>
      </trkpt>
      <trkpt lat="45.1157" lon="2.63891">
        <ele>1448.1</ele>
        <time>2021-08-11T09:40:40Z</time>
      </trkpt>
      <trkpt lat="45.1157" lon="2.63891">
        <ele>1448.3</ele>
        <time>2021-08-11T09:40:41Z</time>
      </trkpt>
      <trkpt lat="45.1157" lon="2.63892">
        <ele>1448.5</ele>
        <time>2021-08-11T09:40:42Z</time>
      </trkpt>
      <trkpt lat="45.11569" lon="2.63892">
        <ele>1448.7</ele>
        <time>2021-08-11T09:40:43Z</time>
      </trkpt>
      <trkpt lat="45.11569" lon="2.63893">
        <ele>1448.9</ele>
        <time>2021-08-11T09:40:44Z</time>
      </trkpt>
      <trkpt lat="45.11569" lon="2.63893">
        <ele>1449.1</ele>
        <time>2021-08-11T09:40:45Z</time>
      </trkpt>
      <trkpt lat="45.11568" lon="2.63894">
        <ele>1449.3</ele>
        <time>2021-08-11T09:40:46Z</time>
      </trkpt>
      <trkpt lat="45.11568" lon="2.63895">
        <ele>1449.6</ele>
        <time>2021-08-11T09:40:47Z</time>
      </trkpt>
      <trkpt lat="45.11568" lon="2.63895">
        <ele>1449.8</ele>
        <time>2021-08-11T09:40:48Z</time>
      </trkpt>
      <trkpt lat="45.11568" lon="2.63896">
        <ele>1450.1</ele>
        <time>2021-08-11T09:40:49Z</time>
      </trkpt>
      <trkpt lat="45.11567" lon="2.63896">
        <ele>1450.2</ele>
        <time>2021-08-11T09:40:50Z</time>
      </trkpt>
      <trkpt lat="45.11567" lon="2.63897">
        <ele>1450.4</ele>
        <time>2021-08-11T09:40:51Z</time>
      </trkpt>
      <trkpt lat="45.11567" lon="2.63897">
        <ele>1450.5</ele>
        <time>2021-08-11T09:40:52Z</time>
      </trkpt>
      <trkpt lat="45.11566" lon="2.63898">
        <ele>1450.8</ele>
        <time>2021-08-11T09:40:53Z</time>
      </trkpt>
      <trkpt lat="45.11566" lon="2.63898">
        <ele>1450.9</ele>
        <time>2021-08-11T09:40:54Z</time>
      </trkpt>
      <trkpt lat="45.11566" lon="2.63899">
        <ele>1451.2</ele>
        <time>2021-08-11T09:40:55Z</time>
      </trkpt>
      <trkpt lat="45.11566" lon="2.63899">
        <ele>1451.5</ele>
        <time>2021-08-11T09:40:56Z</time>
      </trkpt>
      <trkpt lat="45.11565" lon="2.639">
        <ele>1451.7</ele>
        <time>2021-08-11T09:40:57Z</time>
      </trkpt>
      <trkpt lat="45.11565" lon="2.639">
        <ele>1451.8</ele>
        <time>2021-08-11T09:40:58Z</time>
      </trkpt>
      <trkpt lat="45.11565" lon="2.63901">
        <ele>1452</ele>
        <time>2021-08-11T09:40:59Z</time>
      </trkpt>
      <trkpt lat="45.11565" lon="2.63901">
        <ele>1452.1</ele>
        <time>2021-08-11T09:41:00Z</time>
      </trkpt>
      <trkpt lat="45.11564" lon="2.63901">
        <ele>1452.3</ele>
        <time>2021-08-11T09:41:01Z</time>
      </trkpt>
      <trkpt lat="45.11564" lon="2.63902">
        <ele>1452.5</ele>
        <time>2021-08-11T09:41:02Z</time>
      </trkpt>
      <trkpt lat="45.11564" lon="2.63902">
        <ele>1452.5</ele>
        <time>2021-08-11T09:41:03Z</time>
      </trkpt>
      <trkpt lat="45.11564" lon="2.63902">
        <ele>1452.7</ele>
        <time>2021-08-11T09:41:04Z</time>
      </trkpt>
      <trkpt lat="45.11563" lon="2.63903">
        <ele>1453</ele>
        <time>2021-08-11T09:41:05Z</time>
      </trkpt>
      <trkpt lat="45.11563" lon="2.63903">
        <ele>1453.1</ele>
        <time>2021-08-11T09:41:06Z</time>
      </trkpt>
      <trkpt lat="45.11563" lon="2.63904">
        <ele>1453.3</ele>
        <time>2021-08-11T09:41:07Z</time>
      </trkpt>
      <trkpt lat="45.11563" lon="2.63905">
        <ele>1453.6</ele>
        <time>2021-08-11T09:41:08Z</time>
      </trkpt>
      <trkpt lat="45.11562" lon="2.63905">
        <ele>1453.8</ele>
        <time>2021-08-11T09:41:09Z</time>
      </trkpt>
      <trkpt lat="45.11562" lon="2.63906">
        <ele>1454</ele>
        <time>2021-08-11T09:41:10Z</time>
      </trkpt>
      <trkpt lat="45.11562" lon="2.63906">
        <ele>1454.2</ele>
        <time>2021-08-11T09:41:11Z</time>
      </trkpt>
      <trkpt lat="45.11562" lon="2.63907">
        <ele>1454.5</ele>
        <time>2021-08-11T09:41:12Z</time>
      </trkpt>
      <trkpt lat="45.11562" lon="2.63907">
        <ele>1454.7</ele>
        <time>2021-08-11T09:41:13Z</time>
      </trkpt>
      <trkpt lat="45.11562" lon="2.63908">
        <ele>1454.9</ele>
        <time>2021-08-11T09:41:14Z</time>
      </trkpt>
      <trkpt lat="45.11562" lon="2.63909">
        <ele>1455.1</ele>
        <time>2021-08-11T09:41:15Z</time>
      </trkpt>
      <trkpt lat="45.11562" lon="2.63909">
        <ele>1455.3</ele>
        <time>2021-08-11T09:41:16Z</time>
      </trkpt>
      <trkpt lat="45.11561" lon="2.63909">
        <ele>1455.5</ele>
        <time>2021-08-11T09:41:17Z</time>
      </trkpt>
      <trkpt lat="45.11561" lon="2.6391">
        <ele>1455.6</ele>
        <time>2021-08-11T09:41:18Z</time>
      </trkpt>
      <trkpt lat="45.1156" lon="2.6391">
        <ele>1455.7</ele>
        <time>2021-08-11T09:41:19Z</time>
      </trkpt>
      <trkpt lat="45.11559" lon="2.6391">
        <ele>1455.9</ele>
        <time>2021-08-11T09:41:20Z</time>
      </trkpt>
      <trkpt lat="45.11559" lon="2.63911">
        <ele>1456.1</ele>
        <time>2021-08-11T09:41:21Z</time>
      </trkpt>
      <trkpt lat="45.11559" lon="2.63911">
        <ele>1456.3</ele>
        <time>2021-08-11T09:41:22Z</time>
      </trkpt>
      <trkpt lat="45.11558" lon="2.63912">
        <ele>1456.5</ele>
        <time>2021-08-11T09:41:23Z</time>
      </trkpt>
      <trkpt lat="45.11558" lon="2.63913">
        <ele>1456.8</ele>
        <time>2021-08-11T09:41:24Z</time>
      </trkpt>
      <trkpt lat="45.11557" lon="2.63913">
        <ele>1457</ele>
        <time>2021-08-11T09:41:25Z</time>
      </trkpt>
      <trkpt lat="45.11557" lon="2.63914">
        <ele>1457.2</ele>
        <time>2021-08-11T09:41:26Z</time>
      </trkpt>
      <trkpt lat="45.11557" lon="2.63915">
        <ele>1457.5</ele>
        <time>2021-08-11T09:41:27Z</time>
      </trkpt>
      <trkpt lat="45.11557" lon="2.63915">
        <ele>1457.8</ele>
        <time>2021-08-11T09:41:28Z</time>
      </trkpt>
      <trkpt lat="45.11556" lon="2.63916">
        <ele>1458.1</ele>
        <time>2021-08-11T09:41:29Z</time>
      </trkpt>
      <trkpt lat="45.11556" lon="2.63917">
        <ele>1458.4</ele>
        <time>2021-08-11T09:41:30Z</time>
      </trkpt>
      <trkpt lat="45.11556" lon="2.63917">
        <ele>1458.6</ele>
        <time>2021-08-11T09:41:31Z</time>
      </trkpt>
      <trkpt lat="45.11556" lon="2.63918">
        <ele>1458.8</ele>
        <time>2021-08-11T09:41:32Z</time>
      </trkpt>
      <trkpt lat="45.11556" lon="2.63919">
        <ele>1459.1</ele>
        <time>2021-08-11T09:41:33Z</time>
      </trkpt>
      <trkpt lat="45.11555" lon="2.6392">
        <ele>1459.3</ele>
        <time>2021-08-11T09:41:34Z</time>
      </trkpt>
      <trkpt lat="45.11555" lon="2.6392">
        <ele>1459.5</ele>
        <time>2021-08-11T09:41:35Z</time>
      </trkpt>
      <trkpt lat="45.11554" lon="2.63921">
        <ele>1459.6</ele>
        <time>2021-08-11T09:41:36Z</time>
      </trkpt>
      <trkpt lat="45.11554" lon="2.63921">
        <ele>1459.9</ele>
        <time>2021-08-11T09:41:37Z</time>
      </trkpt>
      <trkpt lat="45.11554" lon="2.63922">
        <ele>1460.1</ele>
        <time>2021-08-11T09:41:38Z</time>
      </trkpt>
      <trkpt lat="45.11553" lon="2.63922">
        <ele>1460.2</ele>
        <time>2021-08-11T09:41:39Z</time>
      </trkpt>
      <trkpt lat="45.11553" lon="2.63923">
        <ele>1460.4</ele>
        <time>2021-08-11T09:41:40Z</time>
      </trkpt>
      <trkpt lat="45.11553" lon="2.63923">
        <ele>1460.6</ele>
        <time>2021-08-11T09:41:41Z</time>
      </trkpt>
      <trkpt lat="45.11553" lon="2.63924">
        <ele>1460.8</ele>
        <time>2021-08-11T09:41:42Z</time>
      </trkpt>
      <trkpt lat="45.11552" lon="2.63924">
        <ele>1461</ele>
        <time>2021-08-11T09:41:43Z</time>
      </trkpt>
      <trkpt lat="45.11552" lon="2.63925">
        <ele>1461.1</ele>
        <time>2021-08-11T09:41:44Z</time>
      </trkpt>
      <trkpt lat="45.11552" lon="2.63925">
        <ele>1461.3</ele>
        <time>2021-08-11T09:41:45Z</time>
      </trkpt>
      <trkpt lat="45.11551" lon="2.63926">
        <ele>1461.4</ele>
        <time>2021-08-11T09:41:46Z</time>
      </trkpt>
      <trkpt lat="45.11551" lon="2.63926">
        <ele>1461.6</ele>
        <time>2021-08-11T09:41:47Z</time>
      </trkpt>
      <trkpt lat="45.11551" lon="2.63927">
        <ele>1461.8</ele>
        <time>2021-08-11T09:41:48Z</time>
      </trkpt>
      <trkpt lat="45.11551" lon="2.63928">
        <ele>1462.1</ele>
        <time>2021-08-11T09:41:49Z</time>
      </trkpt>
      <trkpt lat="45.1155" lon="2.63928">
        <ele>1462.2</ele>
        <time>2021-08-11T09:41:50Z</time>
      </trkpt>
      <trkpt lat="45.1155" lon="2.63929">
        <ele>1462.4</ele>
        <time>2021-08-11T09:41:51Z</time>
      </trkpt>
      <trkpt lat="45.1155" lon="2.63929">
        <ele>1462.5</ele>
        <time>2021-08-11T09:41:52Z</time>
      </trkpt>
      <trkpt lat="45.1155" lon="2.63929">
        <ele>1462.7</ele>
        <time>2021-08-11T09:41:53Z</time>
      </trkpt>
      <trkpt lat="45.1155" lon="2.6393">
        <ele>1462.8</ele>
        <time>2021-08-11T09:41:54Z</time>
      </trkpt>
      <trkpt lat="45.1155" lon="2.6393">
        <ele>1462.9</ele>
        <time>2021-08-11T09:41:55Z</time>
      </trkpt>
      <trkpt lat="45.11549" lon="2.6393">
        <ele>1463</ele>
        <time>2021-08-11T09:41:56Z</time>
      </trkpt>
      <trkpt lat="45.11549" lon="2.63931">
        <ele>1463.2</ele>
        <time>2021-08-11T09:41:57Z</time>
      </trkpt>
      <trkpt lat="45.11549" lon="2.63931">
        <ele>1463.3</ele>
        <time>2021-08-11T09:41:58Z</time>
      </trkpt>
      <trkpt lat="45.11548" lon="2.63931">
        <ele>1463.4</ele>
        <time>2021-08-11T09:41:59Z</time>
      </trkpt>
      <trkpt lat="45.11548" lon="2.63932">
        <ele>1463.6</ele>
        <time>2021-08-11T09:42:00Z</time>
      </trkpt>
      <trkpt lat="45.11548" lon="2.63933">
        <ele>1463.8</ele>
        <time>2021-08-11T09:42:01Z</time>
      </trkpt>
      <trkpt lat="45.11547" lon="2.63933">
        <ele>1464.1</ele>
        <time>2021-08-11T09:42:02Z</time>
      </trkpt>
      <trkpt lat="45.11547" lon="2.63934">
        <ele>1464.2</ele>
        <time>2021-08-11T09:42:03Z</time>
      </trkpt>
      <trkpt lat="45.11547" lon="2.63934">
        <ele>1464.3</ele>
        <time>2021-08-11T09:42:04Z</time>
      </trkpt>
      <trkpt lat="45.11547" lon="2.63935">
        <ele>1464.5</ele>
        <time>2021-08-11T09:42:05Z</time>
      </trkpt>
      <trkpt lat="45.11547" lon="2.63935">
        <ele>1464.6</ele>
        <time>2021-08-11T09:42:06Z</time>
      </trkpt>
      <trkpt lat="45.11547" lon="2.63935">
        <ele>1464.7</ele>
        <time>2021-08-11T09:42:07Z</time>
      </trkpt>
      <trkpt lat="45.11546" lon="2.63936">
        <ele>1464.9</ele>
        <time>2021-08-11T09:42:08Z</time>
      </trkpt>
      <trkpt lat="45.11546" lon="2.63936">
        <ele>1465</ele>
        <time>2021-08-11T09:42:09Z</time>
      </trkpt>
      <trkpt lat="45.11546" lon="2.63936">
        <ele>1465</ele>
        <time>2021-08-11T09:42:10Z</time>
      </trkpt>
      <trkpt lat="45.11546" lon="2.63936">
        <ele>1465.1</ele>
        <time>2021-08-11T09:42:11Z</time>
      </trkpt>
      <trkpt lat="45.11546" lon="2.63937">
        <ele>1465.2</ele>
        <time>2021-08-11T09:42:12Z</time>
      </trkpt>
      <trkpt lat="45.11546" lon="2.63937">
        <ele>1465.4</ele>
        <time>2021-08-11T09:42:13Z</time>
      </trkpt>
      <trkpt lat="45.11546" lon="2.63938">
        <ele>1465.6</ele>
        <time>2021-08-11T09:42:14Z</time>
      </trkpt>
      <trkpt lat="45.11546" lon="2.63938">
        <ele>1465.7</ele>
        <time>2021-08-11T09:42:15Z</time>
      </trkpt>
      <trkpt lat="45.11546" lon="2.63939">
        <ele>1465.9</ele>
        <time>2021-08-11T09:42:16Z</time>
      </trkpt>
      <trkpt lat="45.11546" lon="2.63939">
        <ele>1466</ele>
        <time>2021-08-11T09:42:17Z</time>
      </trkpt>
      <trkpt lat="45.11545" lon="2.6394">
        <ele>1466.2</ele>
        <time>2021-08-11T09:42:18Z</time>
      </trkpt>
      <trkpt lat="45.11545" lon="2.6394">
        <ele>1466.3</ele>
        <time>2021-08-11T09:42:19Z</time>
      </trkpt>
      <trkpt lat="45.11545" lon="2.63941">
        <ele>1466.5</ele>
        <time>2021-08-11T09:42:20Z</time>
      </trkpt>
      <trkpt lat="45.11545" lon="2.63941">
        <ele>1466.6</ele>
        <time>2021-08-11T09:42:21Z</time>
      </trkpt>
      <trkpt lat="45.11545" lon="2.63941">
        <ele>1466.7</ele>
        <time>2021-08-11T09:42:22Z</time>
      </trkpt>
      <trkpt lat="45.11545" lon="2.63942">
        <ele>1466.9</ele>
        <time>2021-08-11T09:42:23Z</time>
      </trkpt>
      <trkpt lat="45.11544" lon="2.63942">
        <ele>1467.1</ele>
        <time>2021-08-11T09:42:24Z</time>
      </trkpt>
      <trkpt lat="45.11544" lon="2.63943">
        <ele>1467.2</ele>
        <time>2021-08-11T09:42:25Z</time>
      </trkpt>
      <trkpt lat="45.11544" lon="2.63943">
        <ele>1467.4</ele>
        <time>2021-08-11T09:42:26Z</time>
      </trkpt>
      <trkpt lat="45.11544" lon="2.63944">
        <ele>1467.6</ele>
        <time>2021-08-11T09:42:27Z</time>
      </trkpt>
      <trkpt lat="45.11544" lon="2.63944">
        <ele>1467.8</ele>
        <time>2021-08-11T09:42:28Z</time>
      </trkpt>
      <trkpt lat="45.11544" lon="2.63945">
        <ele>1468</ele>
        <time>2021-08-11T09:42:29Z</time>
      </trkpt>
      <trkpt lat="45.11544" lon="2.63946">
        <ele>1468.2</ele>
        <time>2021-08-11T09:42:30Z</time>
      </trkpt>
      <trkpt lat="45.11544" lon="2.63946">
        <ele>1468.5</ele>
        <time>2021-08-11T09:42:31Z</time>
      </trkpt>
      <trkpt lat="45.11544" lon="2.63947">
        <ele>1468.6</ele>
        <time>2021-08-11T09:42:32Z</time>
      </trkpt>
      <trkpt lat="45.11544" lon="2.63947">
        <ele>1468.8</ele>
        <time>2021-08-11T09:42:33Z</time>
      </trkpt>
      <trkpt lat="45.11544" lon="2.63948">
        <ele>1469</ele>
        <time>2021-08-11T09:42:34Z</time>
      </trkpt>
      <trkpt lat="45.11544" lon="2.63948">
        <ele>1469.1</ele>
        <time>2021-08-11T09:42:35Z</time>
      </trkpt>
      <trkpt lat="45.11544" lon="2.63948">
        <ele>1469.1</ele>
        <time>2021-08-11T09:42:36Z</time>
      </trkpt>
      <trkpt lat="45.11544" lon="2.63948">
        <ele>1469.1</ele>
        <time>2021-08-11T09:42:37Z</time>
      </trkpt>
      <trkpt lat="45.11544" lon="2.63949">
        <ele>1469.2</ele>
        <time>2021-08-11T09:42:38Z</time>
      </trkpt>
      <trkpt lat="45.11545" lon="2.63949">
        <ele>1469.3</ele>
        <time>2021-08-11T09:42:39Z</time>
      </trkpt>
      <trkpt lat="45.11545" lon="2.63949">
        <ele>1469.4</ele>
        <time>2021-08-11T09:42:40Z</time>
      </trkpt>
      <trkpt lat="45.11545" lon="2.63949">
        <ele>1469.4</ele>
        <time>2021-08-11T09:42:41Z</time>
      </trkpt>
      <trkpt lat="45.11545" lon="2.63949">
        <ele>1469.4</ele>
        <time>2021-08-11T09:42:42Z</time>
      </trkpt>
      <trkpt lat="45.11545" lon="2.63949">
        <ele>1469.4</ele>
        <time>2021-08-11T09:42:43Z</time>
      </trkpt>
      <trkpt lat="45.11545" lon="2.63949">
        <ele>1469.4</ele>
        <time>2021-08-11T09:42:44Z</time>
      </trkpt>
      <trkpt lat="45.11545" lon="2.63949">
        <ele>1469.4</ele>
        <time>2021-08-11T09:42:45Z</time>
      </trkpt>
      <trkpt lat="45.11545" lon="2.63949">
        <ele>1469.4</ele>
        <time>2021-08-11T09:42:46Z</time>
      </trkpt>
      <trkpt lat="45.11545" lon="2.63949">
        <ele>1469.4</ele>
        <time>2021-08-11T09:42:47Z</time>
      </trkpt>
      <trkpt lat="45.11545" lon="2.63949">
        <ele>1469.4</ele>
        <time>2021-08-11T09:42:48Z</time>
      </trkpt>
      <trkpt lat="45.11545" lon="2.63949">
        <ele>1469.4</ele>
        <time>2021-08-11T09:42:49Z</time>
      </trkpt>
      <trkpt lat="45.11545" lon="2.63949">
        <ele>1469.4</ele>
        <time>2021-08-11T09:42:50Z</time>
      </trkpt>
      <trkpt lat="45.11545" lon="2.63949">
        <ele>1469.4</ele>
        <time>2021-08-11T09:42:51Z</time>
      </trkpt>
      <trkpt lat="45.11545" lon="2.63949">
        <ele>1469.4</ele>
        <time>2021-08-11T09:42:52Z</time>
      </trkpt>
      <trkpt lat="45.11545" lon="2.63949">
        <ele>1469.4</ele>
        <time>2021-08-11T09:42:53Z</time>
      </trkpt>
      <trkpt lat="45.11545" lon="2.6395">
        <ele>1469.6</ele>
        <time>2021-08-11T09:42:54Z</time>
      </trkpt>
      <trkpt lat="45.11545" lon="2.6395">
        <ele>1469.8</ele>
        <time>2021-08-11T09:42:55Z</time>
      </trkpt>
      <trkpt lat="45.11545" lon="2.63951">
        <ele>1470</ele>
        <time>2021-08-11T09:42:56Z</time>
      </trkpt>
      <trkpt lat="45.11545" lon="2.63952">
        <ele>1470.3</ele>
        <time>2021-08-11T09:42:57Z</time>
      </trkpt>
      <trkpt lat="45.11545" lon="2.63952">
        <ele>1470.5</ele>
        <time>2021-08-11T09:42:58Z</time>
      </trkpt>
      <trkpt lat="45.11545" lon="2.63953">
        <ele>1470.6</ele>
        <time>2021-08-11T09:42:59Z</time>
      </trkpt>
      <trkpt lat="45.11545" lon="2.63954">
        <ele>1470.9</ele>
        <time>2021-08-11T09:43:00Z</time>
      </trkpt>
      <trkpt lat="45.11544" lon="2.63954">
        <ele>1471</ele>
        <time>2021-08-11T09:43:01Z</time>
      </trkpt>
      <trkpt lat="45.11544" lon="2.63954">
        <ele>1471.1</ele>
        <time>2021-08-11T09:43:02Z</time>
      </trkpt>
      <trkpt lat="45.11544" lon="2.63955">
        <ele>1471.3</ele>
        <time>2021-08-11T09:43:03Z</time>
      </trkpt>
      <trkpt lat="45.11544" lon="2.63955">
        <ele>1471.4</ele>
        <time>2021-08-11T09:43:04Z</time>
      </trkpt>
      <trkpt lat="45.11544" lon="2.63955">
        <ele>1471.5</ele>
        <time>2021-08-11T09:43:05Z</time>
      </trkpt>
      <trkpt lat="45.11544" lon="2.63956">
        <ele>1471.8</ele>
        <time>2021-08-11T09:43:06Z</time>
      </trkpt>
      <trkpt lat="45.11544" lon="2.63957">
        <ele>1472</ele>
        <time>2021-08-11T09:43:07Z</time>
      </trkpt>
      <trkpt lat="45.11544" lon="2.63958">
        <ele>1472.3</ele>
        <time>2021-08-11T09:43:08Z</time>
      </trkpt>
      <trkpt lat="45.11544" lon="2.63958">
        <ele>1472.4</ele>
        <time>2021-08-11T09:43:09Z</time>
      </trkpt>
      <trkpt lat="45.11544" lon="2.63959">
        <ele>1472.6</ele>
        <time>2021-08-11T09:43:10Z</time>
      </trkpt>
      <trkpt lat="45.11544" lon="2.63959">
        <ele>1472.7</ele>
        <time>2021-08-11T09:43:11Z</time>
      </trkpt>
      <trkpt lat="45.11544" lon="2.63959">
        <ele>1472.8</ele>
        <time>2021-08-11T09:43:12Z</time>
      </trkpt>
      <trkpt lat="45.11544" lon="2.6396">
        <ele>1473</ele>
        <time>2021-08-11T09:43:13Z</time>
      </trkpt>
      <trkpt lat="45.11544" lon="2.63961">
        <ele>1473.2</ele>
        <time>2021-08-11T09:43:14Z</time>
      </trkpt>
      <trkpt lat="45.11544" lon="2.63961">
        <ele>1473.3</ele>
        <time>2021-08-11T09:43:15Z</time>
      </trkpt>
      <trkpt lat="45.11544" lon="2.63961">
        <ele>1473.5</ele>
        <time>2021-08-11T09:43:16Z</time>
      </trkpt>
      <trkpt lat="45.11544" lon="2.63962">
        <ele>1473.6</ele>
        <time>2021-08-11T09:43:17Z</time>
      </trkpt>
      <trkpt lat="45.11544" lon="2.63962">
        <ele>1473.8</ele>
        <time>2021-08-11T09:43:18Z</time>
      </trkpt>
      <trkpt lat="45.11544" lon="2.63963">
        <ele>1473.9</ele>
        <time>2021-08-11T09:43:19Z</time>
      </trkpt>
      <trkpt lat="45.11544" lon="2.63963">
        <ele>1474.1</ele>
        <time>2021-08-11T09:43:20Z</time>
      </trkpt>
      <trkpt lat="45.11544" lon="2.63964">
        <ele>1474.4</ele>
        <time>2021-08-11T09:43:21Z</time>
      </trkpt>
      <trkpt lat="45.11544" lon="2.63964">
        <ele>1474.5</ele>
        <time>2021-08-11T09:43:22Z</time>
      </trkpt>
      <trkpt lat="45.11544" lon="2.63965">
        <ele>1474.6</ele>
        <time>2021-08-11T09:43:23Z</time>
      </trkpt>
      <trkpt lat="45.11544" lon="2.63965">
        <ele>1474.7</ele>
        <time>2021-08-11T09:43:24Z</time>
      </trkpt>
      <trkpt lat="45.11544" lon="2.63966">
        <ele>1475</ele>
        <time>2021-08-11T09:43:25Z</time>
      </trkpt>
      <trkpt lat="45.11543" lon="2.63966">
        <ele>1475.1</ele>
        <time>2021-08-11T09:43:26Z</time>
      </trkpt>
      <trkpt lat="45.11543" lon="2.63967">
        <ele>1475.2</ele>
        <time>2021-08-11T09:43:27Z</time>
      </trkpt>
      <trkpt lat="45.11543" lon="2.63967">
        <ele>1475.5</ele>
        <time>2021-08-11T09:43:28Z</time>
      </trkpt>
      <trkpt lat="45.11543" lon="2.63968">
        <ele>1475.9</ele>
        <time>2021-08-11T09:43:29Z</time>
      </trkpt>
      <trkpt lat="45.11543" lon="2.63969">
        <ele>1476</ele>
        <time>2021-08-11T09:43:30Z</time>
      </trkpt>
      <trkpt lat="45.11543" lon="2.63969">
        <ele>1476.2</ele>
        <time>2021-08-11T09:43:31Z</time>
      </trkpt>
      <trkpt lat="45.11543" lon="2.6397">
        <ele>1476.4</ele>
        <time>2021-08-11T09:43:32Z</time>
      </trkpt>
      <trkpt lat="45.11543" lon="2.6397">
        <ele>1476.5</ele>
        <time>2021-08-11T09:43:33Z</time>
      </trkpt>
      <trkpt lat="45.11543" lon="2.63971">
        <ele>1476.6</ele>
        <time>2021-08-11T09:43:34Z</time>
      </trkpt>
      <trkpt lat="45.11543" lon="2.63971">
        <ele>1476.8</ele>
        <time>2021-08-11T09:43:35Z</time>
      </trkpt>
      <trkpt lat="45.11542" lon="2.63972">
        <ele>1476.9</ele>
        <time>2021-08-11T09:43:36Z</time>
      </trkpt>
      <trkpt lat="45.11542" lon="2.63972">
        <ele>1477</ele>
        <time>2021-08-11T09:43:37Z</time>
      </trkpt>
      <trkpt lat="45.11542" lon="2.63972">
        <ele>1477.1</ele>
        <time>2021-08-11T09:43:38Z</time>
      </trkpt>
      <trkpt lat="45.11542" lon="2.63973">
        <ele>1477.3</ele>
        <time>2021-08-11T09:43:39Z</time>
      </trkpt>
      <trkpt lat="45.11542" lon="2.63973">
        <ele>1477.4</ele>
        <time>2021-08-11T09:43:40Z</time>
      </trkpt>
      <trkpt lat="45.11542" lon="2.63973">
        <ele>1477.5</ele>
        <time>2021-08-11T09:43:41Z</time>
      </trkpt>
      <trkpt lat="45.11541" lon="2.63974">
        <ele>1477.6</ele>
        <time>2021-08-11T09:43:42Z</time>
      </trkpt>
      <trkpt lat="45.11541" lon="2.63974">
        <ele>1477.7</ele>
        <time>2021-08-11T09:43:43Z</time>
      </trkpt>
      <trkpt lat="45.11541" lon="2.63975">
        <ele>1477.9</ele>
        <time>2021-08-11T09:43:44Z</time>
      </trkpt>
      <trkpt lat="45.11542" lon="2.63975">
        <ele>1478</ele>
        <time>2021-08-11T09:43:45Z</time>
      </trkpt>
      <trkpt lat="45.11542" lon="2.63976">
        <ele>1478.3</ele>
        <time>2021-08-11T09:43:46Z</time>
      </trkpt>
      <trkpt lat="45.11541" lon="2.63976">
        <ele>1478.4</ele>
        <time>2021-08-11T09:43:47Z</time>
      </trkpt>
      <trkpt lat="45.11541" lon="2.63977">
        <ele>1478.6</ele>
        <time>2021-08-11T09:43:48Z</time>
      </trkpt>
      <trkpt lat="45.11541" lon="2.63977">
        <ele>1478.7</ele>
        <time>2021-08-11T09:43:49Z</time>
      </trkpt>
      <trkpt lat="45.11541" lon="2.63977">
        <ele>1478.9</ele>
        <time>2021-08-11T09:43:50Z</time>
      </trkpt>
      <trkpt lat="45.11541" lon="2.63978">
        <ele>1478.9</ele>
        <time>2021-08-11T09:43:51Z</time>
      </trkpt>
      <trkpt lat="45.11541" lon="2.63978">
        <ele>1479.2</ele>
        <time>2021-08-11T09:43:52Z</time>
      </trkpt>
      <trkpt lat="45.11541" lon="2.63979">
        <ele>1479.3</ele>
        <time>2021-08-11T09:43:53Z</time>
      </trkpt>
      <trkpt lat="45.11541" lon="2.63979">
        <ele>1479.5</ele>
        <time>2021-08-11T09:43:54Z</time>
      </trkpt>
      <trkpt lat="45.11541" lon="2.6398">
        <ele>1479.7</ele>
        <time>2021-08-11T09:43:55Z</time>
      </trkpt>
      <trkpt lat="45.11541" lon="2.6398">
        <ele>1479.8</ele>
        <time>2021-08-11T09:43:56Z</time>
      </trkpt>
      <trkpt lat="45.11541" lon="2.63981">
        <ele>1479.9</ele>
        <time>2021-08-11T09:43:57Z</time>
      </trkpt>
      <trkpt lat="45.11541" lon="2.63981">
        <ele>1480.1</ele>
        <time>2021-08-11T09:43:58Z</time>
      </trkpt>
      <trkpt lat="45.11541" lon="2.63982">
        <ele>1480.3</ele>
        <time>2021-08-11T09:43:59Z</time>
      </trkpt>
      <trkpt lat="45.11541" lon="2.63982">
        <ele>1480.5</ele>
        <time>2021-08-11T09:44:00Z</time>
      </trkpt>
      <trkpt lat="45.11541" lon="2.63983">
        <ele>1480.7</ele>
        <time>2021-08-11T09:44:01Z</time>
      </trkpt>
      <trkpt lat="45.11541" lon="2.63983">
        <ele>1480.9</ele>
        <time>2021-08-11T09:44:02Z</time>
      </trkpt>
      <trkpt lat="45.11541" lon="2.63984">
        <ele>1481.1</ele>
        <time>2021-08-11T09:44:03Z</time>
      </trkpt>
      <trkpt lat="45.11541" lon="2.63985">
        <ele>1481.3</ele>
        <time>2021-08-11T09:44:04Z</time>
      </trkpt>
      <trkpt lat="45.11541" lon="2.63985">
        <ele>1481.5</ele>
        <time>2021-08-11T09:44:05Z</time>
      </trkpt>
      <trkpt lat="45.11541" lon="2.63986">
        <ele>1481.7</ele>
        <time>2021-08-11T09:44:06Z</time>
      </trkpt>
      <trkpt lat="45.11541" lon="2.63986">
        <ele>1481.8</ele>
        <time>2021-08-11T09:44:07Z</time>
      </trkpt>
      <trkpt lat="45.1154" lon="2.63987">
        <ele>1482.1</ele>
        <time>2021-08-11T09:44:08Z</time>
      </trkpt>
      <trkpt lat="45.1154" lon="2.63987">
        <ele>1482.2</ele>
        <time>2021-08-11T09:44:09Z</time>
      </trkpt>
      <trkpt lat="45.1154" lon="2.63988">
        <ele>1482.3</ele>
        <time>2021-08-11T09:44:10Z</time>
      </trkpt>
      <trkpt lat="45.1154" lon="2.63988">
        <ele>1482.4</ele>
        <time>2021-08-11T09:44:11Z</time>
      </trkpt>
      <trkpt lat="45.1154" lon="2.63989">
        <ele>1482.6</ele>
        <time>2021-08-11T09:44:12Z</time>
      </trkpt>
      <trkpt lat="45.1154" lon="2.63989">
        <ele>1482.7</ele>
        <time>2021-08-11T09:44:13Z</time>
      </trkpt>
      <trkpt lat="45.1154" lon="2.6399">
        <ele>1483</ele>
        <time>2021-08-11T09:44:14Z</time>
      </trkpt>
      <trkpt lat="45.11539" lon="2.6399">
        <ele>1483.2</ele>
        <time>2021-08-11T09:44:15Z</time>
      </trkpt>
      <trkpt lat="45.11539" lon="2.6399">
        <ele>1483.2</ele>
        <time>2021-08-11T09:44:16Z</time>
      </trkpt>
      <trkpt lat="45.11539" lon="2.63991">
        <ele>1483.3</ele>
        <time>2021-08-11T09:44:17Z</time>
      </trkpt>
      <trkpt lat="45.11539" lon="2.63991">
        <ele>1483.4</ele>
        <time>2021-08-11T09:44:18Z</time>
      </trkpt>
      <trkpt lat="45.11539" lon="2.63991">
        <ele>1483.6</ele>
        <time>2021-08-11T09:44:19Z</time>
      </trkpt>
      <trkpt lat="45.11539" lon="2.63992">
        <ele>1483.7</ele>
        <time>2021-08-11T09:44:20Z</time>
      </trkpt>
      <trkpt lat="45.11539" lon="2.63992">
        <ele>1483.9</ele>
        <time>2021-08-11T09:44:21Z</time>
      </trkpt>
      <trkpt lat="45.11538" lon="2.63993">
        <ele>1484.2</ele>
        <time>2021-08-11T09:44:22Z</time>
      </trkpt>
      <trkpt lat="45.11538" lon="2.63994">
        <ele>1484.3</ele>
        <time>2021-08-11T09:44:23Z</time>
      </trkpt>
      <trkpt lat="45.11538" lon="2.63994">
        <ele>1484.5</ele>
        <time>2021-08-11T09:44:24Z</time>
      </trkpt>
      <trkpt lat="45.11538" lon="2.63995">
        <ele>1484.7</ele>
        <time>2021-08-11T09:44:25Z</time>
      </trkpt>
      <trkpt lat="45.11538" lon="2.63995">
        <ele>1484.8</ele>
        <time>2021-08-11T09:44:26Z</time>
      </trkpt>
      <trkpt lat="45.11538" lon="2.63996">
        <ele>1485</ele>
        <time>2021-08-11T09:44:27Z</time>
      </trkpt>
      <trkpt lat="45.11538" lon="2.63996">
        <ele>1485.2</ele>
        <time>2021-08-11T09:44:28Z</time>
      </trkpt>
      <trkpt lat="45.11538" lon="2.63997">
        <ele>1485.3</ele>
        <time>2021-08-11T09:44:29Z</time>
      </trkpt>
      <trkpt lat="45.11538" lon="2.63997">
        <ele>1485.6</ele>
        <time>2021-08-11T09:44:30Z</time>
      </trkpt>
      <trkpt lat="45.11538" lon="2.63998">
        <ele>1485.8</ele>
        <time>2021-08-11T09:44:31Z</time>
      </trkpt>
      <trkpt lat="45.11539" lon="2.63999">
        <ele>1486</ele>
        <time>2021-08-11T09:44:32Z</time>
      </trkpt>
      <trkpt lat="45.11539" lon="2.64">
        <ele>1486.3</ele>
        <time>2021-08-11T09:44:33Z</time>
      </trkpt>
      <trkpt lat="45.11539" lon="2.64001">
        <ele>1486.6</ele>
        <time>2021-08-11T09:44:34Z</time>
      </trkpt>
      <trkpt lat="45.11538" lon="2.64001">
        <ele>1487</ele>
        <time>2021-08-11T09:44:35Z</time>
      </trkpt>
      <trkpt lat="45.11538" lon="2.64002">
        <ele>1487.3</ele>
        <time>2021-08-11T09:44:36Z</time>
      </trkpt>
      <trkpt lat="45.11538" lon="2.64003">
        <ele>1487.5</ele>
        <time>2021-08-11T09:44:37Z</time>
      </trkpt>
      <trkpt lat="45.11538" lon="2.64004">
        <ele>1487.7</ele>
        <time>2021-08-11T09:44:38Z</time>
      </trkpt>
      <trkpt lat="45.11538" lon="2.64004">
        <ele>1488.1</ele>
        <time>2021-08-11T09:44:39Z</time>
      </trkpt>
      <trkpt lat="45.11538" lon="2.64005">
        <ele>1488.3</ele>
        <time>2021-08-11T09:44:40Z</time>
      </trkpt>
      <trkpt lat="45.11537" lon="2.64006">
        <ele>1488.6</ele>
        <time>2021-08-11T09:44:41Z</time>
      </trkpt>
      <trkpt lat="45.11537" lon="2.64007">
        <ele>1488.9</ele>
        <time>2021-08-11T09:44:42Z</time>
      </trkpt>
      <trkpt lat="45.11537" lon="2.64008">
        <ele>1489.2</ele>
        <time>2021-08-11T09:44:43Z</time>
      </trkpt>
      <trkpt lat="45.11537" lon="2.64008">
        <ele>1489.5</ele>
        <time>2021-08-11T09:44:44Z</time>
      </trkpt>
      <trkpt lat="45.11537" lon="2.64009">
        <ele>1489.8</ele>
        <time>2021-08-11T09:44:45Z</time>
      </trkpt>
      <trkpt lat="45.11536" lon="2.6401">
        <ele>1490.1</ele>
        <time>2021-08-11T09:44:46Z</time>
      </trkpt>
      <trkpt lat="45.11536" lon="2.6401">
        <ele>1490.3</ele>
        <time>2021-08-11T09:44:47Z</time>
      </trkpt>
      <trkpt lat="45.11536" lon="2.64011">
        <ele>1490.5</ele>
        <time>2021-08-11T09:44:48Z</time>
      </trkpt>
      <trkpt lat="45.11535" lon="2.64012">
        <ele>1490.7</ele>
        <time>2021-08-11T09:44:49Z</time>
      </trkpt>
      <trkpt lat="45.11535" lon="2.64012">
        <ele>1490.9</ele>
        <time>2021-08-11T09:44:50Z</time>
      </trkpt>
      <trkpt lat="45.11535" lon="2.64013">
        <ele>1491.2</ele>
        <time>2021-08-11T09:44:51Z</time>
      </trkpt>
      <trkpt lat="45.11535" lon="2.64014">
        <ele>1491.5</ele>
        <time>2021-08-11T09:44:52Z</time>
      </trkpt>
      <trkpt lat="45.11535" lon="2.64015">
        <ele>1491.8</ele>
        <time>2021-08-11T09:44:53Z</time>
      </trkpt>
      <trkpt lat="45.11534" lon="2.64015">
        <ele>1492.1</ele>
        <time>2021-08-11T09:44:54Z</time>
      </trkpt>
      <trkpt lat="45.11534" lon="2.64016">
        <ele>1492.4</ele>
        <time>2021-08-11T09:44:55Z</time>
      </trkpt>
      <trkpt lat="45.11535" lon="2.64017">
        <ele>1492.6</ele>
        <time>2021-08-11T09:44:56Z</time>
      </trkpt>
      <trkpt lat="45.11535" lon="2.64017">
        <ele>1492.8</ele>
        <time>2021-08-11T09:44:57Z</time>
      </trkpt>
      <trkpt lat="45.11535" lon="2.64018">
        <ele>1493.1</ele>
        <time>2021-08-11T09:44:58Z</time>
      </trkpt>
      <trkpt lat="45.11535" lon="2.64018">
        <ele>1493.3</ele>
        <time>2021-08-11T09:44:59Z</time>
      </trkpt>
      <trkpt lat="45.11536" lon="2.64019">
        <ele>1493.4</ele>
        <time>2021-08-11T09:45:00Z</time>
      </trkpt>
      <trkpt lat="45.11536" lon="2.64019">
        <ele>1493.6</ele>
        <time>2021-08-11T09:45:01Z</time>
      </trkpt>
      <trkpt lat="45.11537" lon="2.6402">
        <ele>1493.7</ele>
        <time>2021-08-11T09:45:02Z</time>
      </trkpt>
      <trkpt lat="45.11537" lon="2.6402">
        <ele>1493.9</ele>
        <time>2021-08-11T09:45:03Z</time>
      </trkpt>
      <trkpt lat="45.11538" lon="2.64021">
        <ele>1494.2</ele>
        <time>2021-08-11T09:45:04Z</time>
      </trkpt>
      <trkpt lat="45.11538" lon="2.64022">
        <ele>1494.4</ele>
        <time>2021-08-11T09:45:05Z</time>
      </trkpt>
      <trkpt lat="45.11539" lon="2.64022">
        <ele>1494.6</ele>
        <time>2021-08-11T09:45:06Z</time>
      </trkpt>
      <trkpt lat="45.11539" lon="2.64023">
        <ele>1495.1</ele>
        <time>2021-08-11T09:45:07Z</time>
      </trkpt>
      <trkpt lat="45.11539" lon="2.64024">
        <ele>1495.3</ele>
        <time>2021-08-11T09:45:08Z</time>
      </trkpt>
      <trkpt lat="45.11538" lon="2.64024">
        <ele>1495.4</ele>
        <time>2021-08-11T09:45:09Z</time>
      </trkpt>
      <trkpt lat="45.11538" lon="2.64025">
        <ele>1495.6</ele>
        <time>2021-08-11T09:45:10Z</time>
      </trkpt>
      <trkpt lat="45.11538" lon="2.64025">
        <ele>1495.8</ele>
        <time>2021-08-11T09:45:11Z</time>
      </trkpt>
      <trkpt lat="45.11538" lon="2.64026">
        <ele>1495.9</ele>
        <time>2021-08-11T09:45:12Z</time>
      </trkpt>
      <trkpt lat="45.11538" lon="2.64026">
        <ele>1496.1</ele>
        <time>2021-08-11T09:45:13Z</time>
      </trkpt>
      <trkpt lat="45.11538" lon="2.64027">
        <ele>1496.4</ele>
        <time>2021-08-11T09:45:14Z</time>
      </trkpt>
      <trkpt lat="45.11538" lon="2.64028">
        <ele>1496.6</ele>
        <time>2021-08-11T09:45:15Z</time>
      </trkpt>
      <trkpt lat="45.11538" lon="2.64028">
        <ele>1496.8</ele>
        <time>2021-08-11T09:45:16Z</time>
      </trkpt>
      <trkpt lat="45.11538" lon="2.64028">
        <ele>1496.8</ele>
        <time>2021-08-11T09:45:17Z</time>
      </trkpt>
      <trkpt lat="45.11538" lon="2.64028">
        <ele>1496.8</ele>
        <time>2021-08-11T09:45:18Z</time>
      </trkpt>
      <trkpt lat="45.11538" lon="2.64028">
        <ele>1496.9</ele>
        <time>2021-08-11T09:45:19Z</time>
      </trkpt>
      <trkpt lat="45.11538" lon="2.64029">
        <ele>1497.1</ele>
        <time>2021-08-11T09:45:20Z</time>
      </trkpt>
      <trkpt lat="45.11538" lon="2.64029">
        <ele>1497.2</ele>
        <time>2021-08-11T09:45:21Z</time>
      </trkpt>
      <trkpt lat="45.11538" lon="2.64029">
        <ele>1497.2</ele>
        <time>2021-08-11T09:45:22Z</time>
      </trkpt>
      <trkpt lat="45.11538" lon="2.64029">
        <ele>1497.3</ele>
        <time>2021-08-11T09:45:23Z</time>
      </trkpt>
      <trkpt lat="45.11538" lon="2.6403">
        <ele>1497.6</ele>
        <time>2021-08-11T09:45:24Z</time>
      </trkpt>
      <trkpt lat="45.11538" lon="2.6403">
        <ele>1497.7</ele>
        <time>2021-08-11T09:45:25Z</time>
      </trkpt>
      <trkpt lat="45.11538" lon="2.64031">
        <ele>1497.9</ele>
        <time>2021-08-11T09:45:26Z</time>
      </trkpt>
      <trkpt lat="45.11538" lon="2.64031">
        <ele>1498</ele>
        <time>2021-08-11T09:45:27Z</time>
      </trkpt>
      <trkpt lat="45.11538" lon="2.64032">
        <ele>1498.2</ele>
        <time>2021-08-11T09:45:28Z</time>
      </trkpt>
      <trkpt lat="45.11538" lon="2.64032">
        <ele>1498.4</ele>
        <time>2021-08-11T09:45:29Z</time>
      </trkpt>
      <trkpt lat="45.11538" lon="2.64033">
        <ele>1498.5</ele>
        <time>2021-08-11T09:45:30Z</time>
      </trkpt>
      <trkpt lat="45.11539" lon="2.64034">
        <ele>1498.8</ele>
        <time>2021-08-11T09:45:31Z</time>
      </trkpt>
      <trkpt lat="45.11539" lon="2.64034">
        <ele>1498.9</ele>
        <time>2021-08-11T09:45:32Z</time>
      </trkpt>
      <trkpt lat="45.11539" lon="2.64034">
        <ele>1498.9</ele>
        <time>2021-08-11T09:45:33Z</time>
      </trkpt>
      <trkpt lat="45.11539" lon="2.64034">
        <ele>1498.9</ele>
        <time>2021-08-11T09:45:34Z</time>
      </trkpt>
      <trkpt lat="45.11539" lon="2.64034">
        <ele>1498.9</ele>
        <time>2021-08-11T09:45:35Z</time>
      </trkpt>
      <trkpt lat="45.11539" lon="2.64034">
        <ele>1499.1</ele>
        <time>2021-08-11T09:45:36Z</time>
      </trkpt>
      <trkpt lat="45.11539" lon="2.64035">
        <ele>1499.4</ele>
        <time>2021-08-11T09:45:37Z</time>
      </trkpt>
      <trkpt lat="45.11539" lon="2.64036">
        <ele>1499.7</ele>
        <time>2021-08-11T09:45:38Z</time>
      </trkpt>
      <trkpt lat="45.11539" lon="2.64036">
        <ele>1499.8</ele>
        <time>2021-08-11T09:45:39Z</time>
      </trkpt>
      <trkpt lat="45.11539" lon="2.64037">
        <ele>1500</ele>
        <time>2021-08-11T09:45:40Z</time>
      </trkpt>
      <trkpt lat="45.11539" lon="2.64037">
        <ele>1500.1</ele>
        <time>2021-08-11T09:45:41Z</time>
      </trkpt>
      <trkpt lat="45.11539" lon="2.64038">
        <ele>1500.3</ele>
        <time>2021-08-11T09:45:42Z</time>
      </trkpt>
      <trkpt lat="45.11539" lon="2.64038">
        <ele>1500.5</ele>
        <time>2021-08-11T09:45:43Z</time>
      </trkpt>
      <trkpt lat="45.11539" lon="2.64039">
        <ele>1500.7</ele>
        <time>2021-08-11T09:45:44Z</time>
      </trkpt>
      <trkpt lat="45.11539" lon="2.64039">
        <ele>1501</ele>
        <time>2021-08-11T09:45:45Z</time>
      </trkpt>
      <trkpt lat="45.11539" lon="2.6404">
        <ele>1501.2</ele>
        <time>2021-08-11T09:45:46Z</time>
      </trkpt>
      <trkpt lat="45.11538" lon="2.6404">
        <ele>1501.2</ele>
        <time>2021-08-11T09:45:47Z</time>
      </trkpt>
      <trkpt lat="45.11538" lon="2.6404">
        <ele>1501.1</ele>
        <time>2021-08-11T09:45:48Z</time>
      </trkpt>
      <trkpt lat="45.11537" lon="2.64039">
        <ele>1501</ele>
        <time>2021-08-11T09:45:49Z</time>
      </trkpt>
      <trkpt lat="45.11536" lon="2.64039">
        <ele>1501</ele>
        <time>2021-08-11T09:45:50Z</time>
      </trkpt>
      <trkpt lat="45.11536" lon="2.6404">
        <ele>1501.1</ele>
        <time>2021-08-11T09:45:51Z</time>
      </trkpt>
      <trkpt lat="45.11535" lon="2.6404">
        <ele>1501.3</ele>
        <time>2021-08-11T09:45:52Z</time>
      </trkpt>
      <trkpt lat="45.11534" lon="2.6404">
        <ele>1501.4</ele>
        <time>2021-08-11T09:45:53Z</time>
      </trkpt>
      <trkpt lat="45.11534" lon="2.64041">
        <ele>1501.7</ele>
        <time>2021-08-11T09:45:54Z</time>
      </trkpt>
      <trkpt lat="45.11534" lon="2.64041">
        <ele>1501.8</ele>
        <time>2021-08-11T09:45:55Z</time>
      </trkpt>
      <trkpt lat="45.11534" lon="2.64042">
        <ele>1502</ele>
        <time>2021-08-11T09:45:56Z</time>
      </trkpt>
      <trkpt lat="45.11534" lon="2.64043">
        <ele>1502.4</ele>
        <time>2021-08-11T09:45:57Z</time>
      </trkpt>
      <trkpt lat="45.11534" lon="2.64043">
        <ele>1502.6</ele>
        <time>2021-08-11T09:45:58Z</time>
      </trkpt>
      <trkpt lat="45.11533" lon="2.64044">
        <ele>1502.7</ele>
        <time>2021-08-11T09:45:59Z</time>
      </trkpt>
      <trkpt lat="45.11533" lon="2.64044">
        <ele>1502.9</ele>
        <time>2021-08-11T09:46:00Z</time>
      </trkpt>
      <trkpt lat="45.11533" lon="2.64044">
        <ele>1502.9</ele>
        <time>2021-08-11T09:46:01Z</time>
      </trkpt>
      <trkpt lat="45.11533" lon="2.64044">
        <ele>1502.9</ele>
        <time>2021-08-11T09:46:02Z</time>
      </trkpt>
      <trkpt lat="45.11533" lon="2.64044">
        <ele>1502.9</ele>
        <time>2021-08-11T09:46:03Z</time>
      </trkpt>
      <trkpt lat="45.11533" lon="2.64044">
        <ele>1503</ele>
        <time>2021-08-11T09:46:04Z</time>
      </trkpt>
      <trkpt lat="45.11533" lon="2.64045">
        <ele>1503.1</ele>
        <time>2021-08-11T09:46:05Z</time>
      </trkpt>
      <trkpt lat="45.11533" lon="2.64046">
        <ele>1503.5</ele>
        <time>2021-08-11T09:46:06Z</time>
      </trkpt>
      <trkpt lat="45.11533" lon="2.64046">
        <ele>1503.7</ele>
        <time>2021-08-11T09:46:07Z</time>
      </trkpt>
      <trkpt lat="45.11533" lon="2.64047">
        <ele>1503.9</ele>
        <time>2021-08-11T09:46:08Z</time>
      </trkpt>
      <trkpt lat="45.11532" lon="2.64047">
        <ele>1504.1</ele>
        <time>2021-08-11T09:46:09Z</time>
      </trkpt>
      <trkpt lat="45.11532" lon="2.64047">
        <ele>1504.2</ele>
        <time>2021-08-11T09:46:10Z</time>
      </trkpt>
      <trkpt lat="45.11532" lon="2.64047">
        <ele>1504.2</ele>
        <time>2021-08-11T09:46:11Z</time>
      </trkpt>
      <trkpt lat="45.11532" lon="2.64048">
        <ele>1504.3</ele>
        <time>2021-08-11T09:46:12Z</time>
      </trkpt>
      <trkpt lat="45.11532" lon="2.64048">
        <ele>1504.4</ele>
        <time>2021-08-11T09:46:13Z</time>
      </trkpt>
      <trkpt lat="45.11532" lon="2.64048">
        <ele>1504.5</ele>
        <time>2021-08-11T09:46:14Z</time>
      </trkpt>
      <trkpt lat="45.11532" lon="2.64049">
        <ele>1504.7</ele>
        <time>2021-08-11T09:46:15Z</time>
      </trkpt>
      <trkpt lat="45.11533" lon="2.64049">
        <ele>1504.9</ele>
        <time>2021-08-11T09:46:16Z</time>
      </trkpt>
      <trkpt lat="45.11533" lon="2.6405">
        <ele>1505.1</ele>
        <time>2021-08-11T09:46:17Z</time>
      </trkpt>
      <trkpt lat="45.11532" lon="2.6405">
        <ele>1505.3</ele>
        <time>2021-08-11T09:46:18Z</time>
      </trkpt>
      <trkpt lat="45.11532" lon="2.6405">
        <ele>1505.3</ele>
        <time>2021-08-11T09:46:19Z</time>
      </trkpt>
      <trkpt lat="45.11532" lon="2.64051">
        <ele>1505.4</ele>
        <time>2021-08-11T09:46:20Z</time>
      </trkpt>
      <trkpt lat="45.11532" lon="2.64051">
        <ele>1505.4</ele>
        <time>2021-08-11T09:46:21Z</time>
      </trkpt>
      <trkpt lat="45.11532" lon="2.64051">
        <ele>1505.4</ele>
        <time>2021-08-11T09:46:22Z</time>
      </trkpt>
      <trkpt lat="45.11532" lon="2.64051">
        <ele>1505.4</ele>
        <time>2021-08-11T09:46:23Z</time>
      </trkpt>
      <trkpt lat="45.11532" lon="2.64051">
        <ele>1505.5</ele>
        <time>2021-08-11T09:46:24Z</time>
      </trkpt>
      <trkpt lat="45.11532" lon="2.64052">
        <ele>1505.7</ele>
        <time>2021-08-11T09:46:25Z</time>
      </trkpt>
      <trkpt lat="45.11532" lon="2.64052">
        <ele>1506</ele>
        <time>2021-08-11T09:46:26Z</time>
      </trkpt>
      <trkpt lat="45.11531" lon="2.64053">
        <ele>1506.2</ele>
        <time>2021-08-11T09:46:27Z</time>
      </trkpt>
      <trkpt lat="45.11531" lon="2.64054">
        <ele>1506.5</ele>
        <time>2021-08-11T09:46:28Z</time>
      </trkpt>
      <trkpt lat="45.11531" lon="2.64054">
        <ele>1506.7</ele>
        <time>2021-08-11T09:46:29Z</time>
      </trkpt>
      <trkpt lat="45.11531" lon="2.64054">
        <ele>1506.8</ele>
        <time>2021-08-11T09:46:30Z</time>
      </trkpt>
      <trkpt lat="45.11531" lon="2.64054">
        <ele>1506.9</ele>
        <time>2021-08-11T09:46:31Z</time>
      </trkpt>
      <trkpt lat="45.11531" lon="2.64054">
        <ele>1506.8</ele>
        <time>2021-08-11T09:46:32Z</time>
      </trkpt>
      <trkpt lat="45.11531" lon="2.64054">
        <ele>1506.8</ele>
        <time>2021-08-11T09:46:33Z</time>
      </trkpt>
      <trkpt lat="45.11531" lon="2.64054">
        <ele>1506.8</ele>
        <time>2021-08-11T09:46:34Z</time>
      </trkpt>
      <trkpt lat="45.11531" lon="2.64054">
        <ele>1506.8</ele>
        <time>2021-08-11T09:46:35Z</time>
      </trkpt>
      <trkpt lat="45.11531" lon="2.64054">
        <ele>1506.8</ele>
        <time>2021-08-11T09:46:36Z</time>
      </trkpt>
      <trkpt lat="45.11531" lon="2.64054">
        <ele>1506.8</ele>
        <time>2021-08-11T09:46:37Z</time>
      </trkpt>
      <trkpt lat="45.11531" lon="2.64054">
        <ele>1506.8</ele>
        <time>2021-08-11T09:46:38Z</time>
      </trkpt>
      <trkpt lat="45.11531" lon="2.64054">
        <ele>1506.8</ele>
        <time>2021-08-11T09:46:39Z</time>
      </trkpt>
      <trkpt lat="45.11531" lon="2.64054">
        <ele>1506.7</ele>
        <time>2021-08-11T09:46:40Z</time>
      </trkpt>
      <trkpt lat="45.11531" lon="2.64054">
        <ele>1506.8</ele>
        <time>2021-08-11T09:46:41Z</time>
      </trkpt>
      <trkpt lat="45.11531" lon="2.64054">
        <ele>1506.9</ele>
        <time>2021-08-11T09:46:42Z</time>
      </trkpt>
      <trkpt lat="45.1153" lon="2.64054">
        <ele>1506.9</ele>
        <time>2021-08-11T09:46:43Z</time>
      </trkpt>
      <trkpt lat="45.1153" lon="2.64055">
        <ele>1506.9</ele>
        <time>2021-08-11T09:46:44Z</time>
      </trkpt>
      <trkpt lat="45.1153" lon="2.64055">
        <ele>1507.1</ele>
        <time>2021-08-11T09:46:45Z</time>
      </trkpt>
      <trkpt lat="45.1153" lon="2.64055">
        <ele>1507.1</ele>
        <time>2021-08-11T09:46:46Z</time>
      </trkpt>
      <trkpt lat="45.11531" lon="2.64055">
        <ele>1507.2</ele>
        <time>2021-08-11T09:46:47Z</time>
      </trkpt>
      <trkpt lat="45.1153" lon="2.64056">
        <ele>1507.4</ele>
        <time>2021-08-11T09:46:48Z</time>
      </trkpt>
      <trkpt lat="45.11531" lon="2.64056">
        <ele>1507.6</ele>
        <time>2021-08-11T09:46:49Z</time>
      </trkpt>
      <trkpt lat="45.1153" lon="2.64057">
        <ele>1507.7</ele>
        <time>2021-08-11T09:46:50Z</time>
      </trkpt>
      <trkpt lat="45.1153" lon="2.64057">
        <ele>1507.9</ele>
        <time>2021-08-11T09:46:51Z</time>
      </trkpt>
      <trkpt lat="45.1153" lon="2.64057">
        <ele>1508</ele>
        <time>2021-08-11T09:46:52Z</time>
      </trkpt>
      <trkpt lat="45.11529" lon="2.64057">
        <ele>1508</ele>
        <time>2021-08-11T09:46:53Z</time>
      </trkpt>
      <trkpt lat="45.11529" lon="2.64057">
        <ele>1507.9</ele>
        <time>2021-08-11T09:46:54Z</time>
      </trkpt>
      <trkpt lat="45.11529" lon="2.64057">
        <ele>1507.8</ele>
        <time>2021-08-11T09:46:55Z</time>
      </trkpt>
      <trkpt lat="45.11528" lon="2.64057">
        <ele>1508</ele>
        <time>2021-08-11T09:46:56Z</time>
      </trkpt>
      <trkpt lat="45.11528" lon="2.64057">
        <ele>1508.1</ele>
        <time>2021-08-11T09:46:57Z</time>
      </trkpt>
      <trkpt lat="45.11528" lon="2.64058">
        <ele>1508.3</ele>
        <time>2021-08-11T09:46:58Z</time>
      </trkpt>
      <trkpt lat="45.11528" lon="2.64058">
        <ele>1508.4</ele>
        <time>2021-08-11T09:46:59Z</time>
      </trkpt>
      <trkpt lat="45.11527" lon="2.64059">
        <ele>1508.6</ele>
        <time>2021-08-11T09:47:00Z</time>
      </trkpt>
      <trkpt lat="45.11527" lon="2.64059">
        <ele>1508.8</ele>
        <time>2021-08-11T09:47:01Z</time>
      </trkpt>
      <trkpt lat="45.11527" lon="2.6406">
        <ele>1509.1</ele>
        <time>2021-08-11T09:47:02Z</time>
      </trkpt>
      <trkpt lat="45.11527" lon="2.6406">
        <ele>1509.3</ele>
        <time>2021-08-11T09:47:03Z</time>
      </trkpt>
      <trkpt lat="45.11527" lon="2.64061">
        <ele>1509.4</ele>
        <time>2021-08-11T09:47:04Z</time>
      </trkpt>
      <trkpt lat="45.11526" lon="2.64061">
        <ele>1509.5</ele>
        <time>2021-08-11T09:47:05Z</time>
      </trkpt>
      <trkpt lat="45.11525" lon="2.64061">
        <ele>1509.6</ele>
        <time>2021-08-11T09:47:06Z</time>
      </trkpt>
      <trkpt lat="45.11525" lon="2.64061">
        <ele>1509.7</ele>
        <time>2021-08-11T09:47:07Z</time>
      </trkpt>
      <trkpt lat="45.11524" lon="2.64061">
        <ele>1509.7</ele>
        <time>2021-08-11T09:47:08Z</time>
      </trkpt>
      <trkpt lat="45.11524" lon="2.64061">
        <ele>1509.8</ele>
        <time>2021-08-11T09:47:09Z</time>
      </trkpt>
      <trkpt lat="45.11524" lon="2.64062">
        <ele>1510</ele>
        <time>2021-08-11T09:47:10Z</time>
      </trkpt>
      <trkpt lat="45.11523" lon="2.64062">
        <ele>1510.1</ele>
        <time>2021-08-11T09:47:11Z</time>
      </trkpt>
      <trkpt lat="45.11523" lon="2.64062">
        <ele>1510.1</ele>
        <time>2021-08-11T09:47:12Z</time>
      </trkpt>
      <trkpt lat="45.11523" lon="2.64062">
        <ele>1510.2</ele>
        <time>2021-08-11T09:47:13Z</time>
      </trkpt>
      <trkpt lat="45.11523" lon="2.64063">
        <ele>1510.4</ele>
        <time>2021-08-11T09:47:14Z</time>
      </trkpt>
      <trkpt lat="45.11523" lon="2.64063">
        <ele>1510.5</ele>
        <time>2021-08-11T09:47:15Z</time>
      </trkpt>
      <trkpt lat="45.11522" lon="2.64063">
        <ele>1510.6</ele>
        <time>2021-08-11T09:47:16Z</time>
      </trkpt>
      <trkpt lat="45.11522" lon="2.64064">
        <ele>1510.8</ele>
        <time>2021-08-11T09:47:17Z</time>
      </trkpt>
      <trkpt lat="45.11522" lon="2.64064">
        <ele>1510.9</ele>
        <time>2021-08-11T09:47:18Z</time>
      </trkpt>
      <trkpt lat="45.11522" lon="2.64065">
        <ele>1511.1</ele>
        <time>2021-08-11T09:47:19Z</time>
      </trkpt>
      <trkpt lat="45.11521" lon="2.64065">
        <ele>1511.4</ele>
        <time>2021-08-11T09:47:20Z</time>
      </trkpt>
      <trkpt lat="45.11521" lon="2.64065">
        <ele>1511.5</ele>
        <time>2021-08-11T09:47:21Z</time>
      </trkpt>
      <trkpt lat="45.1152" lon="2.64066">
        <ele>1511.7</ele>
        <time>2021-08-11T09:47:22Z</time>
      </trkpt>
      <trkpt lat="45.1152" lon="2.64066">
        <ele>1511.9</ele>
        <time>2021-08-11T09:47:23Z</time>
      </trkpt>
      <trkpt lat="45.11519" lon="2.64066">
        <ele>1512</ele>
        <time>2021-08-11T09:47:24Z</time>
      </trkpt>
      <trkpt lat="45.11519" lon="2.64067">
        <ele>1512.1</ele>
        <time>2021-08-11T09:47:25Z</time>
      </trkpt>
      <trkpt lat="45.11518" lon="2.64067">
        <ele>1512.3</ele>
        <time>2021-08-11T09:47:26Z</time>
      </trkpt>
      <trkpt lat="45.11518" lon="2.64067">
        <ele>1512.3</ele>
        <time>2021-08-11T09:47:27Z</time>
      </trkpt>
      <trkpt lat="45.11517" lon="2.64067">
        <ele>1512.4</ele>
        <time>2021-08-11T09:47:28Z</time>
      </trkpt>
      <trkpt lat="45.11517" lon="2.64068">
        <ele>1512.6</ele>
        <time>2021-08-11T09:47:29Z</time>
      </trkpt>
      <trkpt lat="45.11517" lon="2.64068">
        <ele>1512.7</ele>
        <time>2021-08-11T09:47:30Z</time>
      </trkpt>
      <trkpt lat="45.11517" lon="2.64068">
        <ele>1512.9</ele>
        <time>2021-08-11T09:47:31Z</time>
      </trkpt>
      <trkpt lat="45.11516" lon="2.64069">
        <ele>1513.1</ele>
        <time>2021-08-11T09:47:32Z</time>
      </trkpt>
      <trkpt lat="45.11516" lon="2.64069">
        <ele>1513.4</ele>
        <time>2021-08-11T09:47:33Z</time>
      </trkpt>
      <trkpt lat="45.11515" lon="2.6407">
        <ele>1513.5</ele>
        <time>2021-08-11T09:47:34Z</time>
      </trkpt>
      <trkpt lat="45.11515" lon="2.6407">
        <ele>1513.7</ele>
        <time>2021-08-11T09:47:35Z</time>
      </trkpt>
      <trkpt lat="45.11514" lon="2.64071">
        <ele>1513.9</ele>
        <time>2021-08-11T09:47:36Z</time>
      </trkpt>
      <trkpt lat="45.11513" lon="2.64071">
        <ele>1514</ele>
        <time>2021-08-11T09:47:37Z</time>
      </trkpt>
      <trkpt lat="45.11513" lon="2.64071">
        <ele>1514.1</ele>
        <time>2021-08-11T09:47:38Z</time>
      </trkpt>
      <trkpt lat="45.11512" lon="2.64071">
        <ele>1514.2</ele>
        <time>2021-08-11T09:47:39Z</time>
      </trkpt>
      <trkpt lat="45.11512" lon="2.64071">
        <ele>1514.2</ele>
        <time>2021-08-11T09:47:40Z</time>
      </trkpt>
      <trkpt lat="45.11511" lon="2.64071">
        <ele>1514.2</ele>
        <time>2021-08-11T09:47:41Z</time>
      </trkpt>
      <trkpt lat="45.11511" lon="2.64071">
        <ele>1514.1</ele>
        <time>2021-08-11T09:47:42Z</time>
      </trkpt>
      <trkpt lat="45.11511" lon="2.64071">
        <ele>1514.1</ele>
        <time>2021-08-11T09:47:43Z</time>
      </trkpt>
      <trkpt lat="45.1151" lon="2.64071">
        <ele>1514.4</ele>
        <time>2021-08-11T09:47:44Z</time>
      </trkpt>
      <trkpt lat="45.1151" lon="2.64071">
        <ele>1514.5</ele>
        <time>2021-08-11T09:47:45Z</time>
      </trkpt>
      <trkpt lat="45.11509" lon="2.64071">
        <ele>1514.4</ele>
        <time>2021-08-11T09:47:46Z</time>
      </trkpt>
      <trkpt lat="45.11509" lon="2.64071">
        <ele>1514.3</ele>
        <time>2021-08-11T09:47:47Z</time>
      </trkpt>
      <trkpt lat="45.11509" lon="2.6407">
        <ele>1514.1</ele>
        <time>2021-08-11T09:47:48Z</time>
      </trkpt>
      <trkpt lat="45.11508" lon="2.6407">
        <ele>1514.1</ele>
        <time>2021-08-11T09:47:49Z</time>
      </trkpt>
      <trkpt lat="45.11508" lon="2.6407">
        <ele>1514</ele>
        <time>2021-08-11T09:47:50Z</time>
      </trkpt>
      <trkpt lat="45.11508" lon="2.6407">
        <ele>1514.1</ele>
        <time>2021-08-11T09:47:51Z</time>
      </trkpt>
      <trkpt lat="45.11507" lon="2.6407">
        <ele>1514.2</ele>
        <time>2021-08-11T09:47:52Z</time>
      </trkpt>
      <trkpt lat="45.11507" lon="2.6407">
        <ele>1514.2</ele>
        <time>2021-08-11T09:47:53Z</time>
      </trkpt>
      <trkpt lat="45.11507" lon="2.6407">
        <ele>1514.3</ele>
        <time>2021-08-11T09:47:54Z</time>
      </trkpt>
      <trkpt lat="45.11507" lon="2.6407">
        <ele>1514.3</ele>
        <time>2021-08-11T09:47:55Z</time>
      </trkpt>
      <trkpt lat="45.11506" lon="2.6407">
        <ele>1514.3</ele>
        <time>2021-08-11T09:47:56Z</time>
      </trkpt>
      <trkpt lat="45.11506" lon="2.6407">
        <ele>1514.3</ele>
        <time>2021-08-11T09:47:57Z</time>
      </trkpt>
      <trkpt lat="45.11506" lon="2.64071">
        <ele>1514.4</ele>
        <time>2021-08-11T09:47:58Z</time>
      </trkpt>
      <trkpt lat="45.11506" lon="2.6407">
        <ele>1514.3</ele>
        <time>2021-08-11T09:47:59Z</time>
      </trkpt>
      <trkpt lat="45.11506" lon="2.6407">
        <ele>1514.3</ele>
        <time>2021-08-11T09:48:00Z</time>
      </trkpt>
      <trkpt lat="45.11506" lon="2.6407">
        <ele>1514.3</ele>
        <time>2021-08-11T09:48:01Z</time>
      </trkpt>
      <trkpt lat="45.11506" lon="2.64071">
        <ele>1514.4</ele>
        <time>2021-08-11T09:48:02Z</time>
      </trkpt>
      <trkpt lat="45.11506" lon="2.64071">
        <ele>1514.4</ele>
        <time>2021-08-11T09:48:03Z</time>
      </trkpt>
      <trkpt lat="45.11506" lon="2.64071">
        <ele>1514.4</ele>
        <time>2021-08-11T09:48:04Z</time>
      </trkpt>
      <trkpt lat="45.11506" lon="2.64071">
        <ele>1514.4</ele>
        <time>2021-08-11T09:48:05Z</time>
      </trkpt>
      <trkpt lat="45.11506" lon="2.64071">
        <ele>1514.4</ele>
        <time>2021-08-11T09:48:06Z</time>
      </trkpt>
      <trkpt lat="45.11506" lon="2.64071">
        <ele>1514.5</ele>
        <time>2021-08-11T09:48:07Z</time>
      </trkpt>
      <trkpt lat="45.11506" lon="2.64071">
        <ele>1514.5</ele>
        <time>2021-08-11T09:48:08Z</time>
      </trkpt>
      <trkpt lat="45.11506" lon="2.64071">
        <ele>1514.5</ele>
        <time>2021-08-11T09:48:09Z</time>
      </trkpt>
      <trkpt lat="45.11505" lon="2.64071">
        <ele>1514.6</ele>
        <time>2021-08-11T09:48:10Z</time>
      </trkpt>
      <trkpt lat="45.11505" lon="2.64071">
        <ele>1514.8</ele>
        <time>2021-08-11T09:48:11Z</time>
      </trkpt>
      <trkpt lat="45.11504" lon="2.64072">
        <ele>1514.9</ele>
        <time>2021-08-11T09:48:12Z</time>
      </trkpt>
      <trkpt lat="45.11504" lon="2.64072">
        <ele>1515.2</ele>
        <time>2021-08-11T09:48:13Z</time>
      </trkpt>
      <trkpt lat="45.11503" lon="2.64073">
        <ele>1515.5</ele>
        <time>2021-08-11T09:48:14Z</time>
      </trkpt>
      <trkpt lat="45.11502" lon="2.64073">
        <ele>1515.6</ele>
        <time>2021-08-11T09:48:15Z</time>
      </trkpt>
      <trkpt lat="45.11502" lon="2.64074">
        <ele>1515.9</ele>
        <time>2021-08-11T09:48:16Z</time>
      </trkpt>
      <trkpt lat="45.11501" lon="2.64074">
        <ele>1516.2</ele>
        <time>2021-08-11T09:48:17Z</time>
      </trkpt>
      <trkpt lat="45.11501" lon="2.64074">
        <ele>1516.3</ele>
        <time>2021-08-11T09:48:18Z</time>
      </trkpt>
      <trkpt lat="45.115" lon="2.64075">
        <ele>1516.4</ele>
        <time>2021-08-11T09:48:19Z</time>
      </trkpt>
      <trkpt lat="45.115" lon="2.64075">
        <ele>1516.5</ele>
        <time>2021-08-11T09:48:20Z</time>
      </trkpt>
      <trkpt lat="45.115" lon="2.64075">
        <ele>1516.4</ele>
        <time>2021-08-11T09:48:21Z</time>
      </trkpt>
      <trkpt lat="45.115" lon="2.64075">
        <ele>1516.4</ele>
        <time>2021-08-11T09:48:22Z</time>
      </trkpt>
      <trkpt lat="45.115" lon="2.64075">
        <ele>1516.4</ele>
        <time>2021-08-11T09:48:23Z</time>
      </trkpt>
      <trkpt lat="45.115" lon="2.64075">
        <ele>1516.4</ele>
        <time>2021-08-11T09:48:24Z</time>
      </trkpt>
      <trkpt lat="45.11484" lon="2.6408">
        <ele>1520.1</ele>
        <time>2021-08-11T09:48:25Z</time>
      </trkpt>
      <trkpt lat="45.11484" lon="2.6408">
        <ele>1520.1</ele>
        <time>2021-08-11T09:48:26Z</time>
      </trkpt>
      <trkpt lat="45.11484" lon="2.6408">
        <ele>1520.2</ele>
        <time>2021-08-11T09:48:27Z</time>
      </trkpt>
      <trkpt lat="45.11483" lon="2.6408">
        <ele>1520.3</ele>
        <time>2021-08-11T09:48:28Z</time>
      </trkpt>
      <trkpt lat="45.11483" lon="2.6408">
        <ele>1520.3</ele>
        <time>2021-08-11T09:48:29Z</time>
      </trkpt>
      <trkpt lat="45.11482" lon="2.6408">
        <ele>1520.4</ele>
        <time>2021-08-11T09:48:30Z</time>
      </trkpt>
      <trkpt lat="45.11482" lon="2.6408">
        <ele>1520.4</ele>
        <time>2021-08-11T09:48:31Z</time>
      </trkpt>
      <trkpt lat="45.11481" lon="2.6408">
        <ele>1520.4</ele>
        <time>2021-08-11T09:48:32Z</time>
      </trkpt>
      <trkpt lat="45.11481" lon="2.6408">
        <ele>1520.4</ele>
        <time>2021-08-11T09:48:33Z</time>
      </trkpt>
      <trkpt lat="45.1148" lon="2.64079">
        <ele>1520.2</ele>
        <time>2021-08-11T09:48:34Z</time>
      </trkpt>
      <trkpt lat="45.1148" lon="2.64079">
        <ele>1520</ele>
        <time>2021-08-11T09:48:35Z</time>
      </trkpt>
      <trkpt lat="45.11479" lon="2.64078">
        <ele>1520</ele>
        <time>2021-08-11T09:48:36Z</time>
      </trkpt>
      <trkpt lat="45.11479" lon="2.64078">
        <ele>1519.9</ele>
        <time>2021-08-11T09:48:37Z</time>
      </trkpt>
      <trkpt lat="45.11478" lon="2.64078">
        <ele>1520</ele>
        <time>2021-08-11T09:48:38Z</time>
      </trkpt>
      <trkpt lat="45.11477" lon="2.64078">
        <ele>1520.2</ele>
        <time>2021-08-11T09:48:39Z</time>
      </trkpt>
      <trkpt lat="45.11476" lon="2.64078">
        <ele>1520.2</ele>
        <time>2021-08-11T09:48:40Z</time>
      </trkpt>
      <trkpt lat="45.11475" lon="2.64078">
        <ele>1520.4</ele>
        <time>2021-08-11T09:48:41Z</time>
      </trkpt>
      <trkpt lat="45.11475" lon="2.64079">
        <ele>1520.5</ele>
        <time>2021-08-11T09:48:42Z</time>
      </trkpt>
      <trkpt lat="45.11474" lon="2.64078">
        <ele>1520.5</ele>
        <time>2021-08-11T09:48:43Z</time>
      </trkpt>
      <trkpt lat="45.11474" lon="2.64078">
        <ele>1520.4</ele>
        <time>2021-08-11T09:48:44Z</time>
      </trkpt>
      <trkpt lat="45.11473" lon="2.64078">
        <ele>1520.4</ele>
        <time>2021-08-11T09:48:45Z</time>
      </trkpt>
      <trkpt lat="45.11473" lon="2.64078">
        <ele>1520.4</ele>
        <time>2021-08-11T09:48:46Z</time>
      </trkpt>
      <trkpt lat="45.11472" lon="2.64078">
        <ele>1520.6</ele>
        <time>2021-08-11T09:48:47Z</time>
      </trkpt>
      <trkpt lat="45.11471" lon="2.64078">
        <ele>1520.7</ele>
        <time>2021-08-11T09:48:48Z</time>
      </trkpt>
      <trkpt lat="45.11471" lon="2.64078">
        <ele>1520.8</ele>
        <time>2021-08-11T09:48:49Z</time>
      </trkpt>
      <trkpt lat="45.1147" lon="2.64079">
        <ele>1521</ele>
        <time>2021-08-11T09:48:50Z</time>
      </trkpt>
      <trkpt lat="45.11469" lon="2.64079">
        <ele>1521.1</ele>
        <time>2021-08-11T09:48:51Z</time>
      </trkpt>
      <trkpt lat="45.11468" lon="2.64079">
        <ele>1521.3</ele>
        <time>2021-08-11T09:48:52Z</time>
      </trkpt>
      <trkpt lat="45.11467" lon="2.64079">
        <ele>1521.5</ele>
        <time>2021-08-11T09:48:53Z</time>
      </trkpt>
      <trkpt lat="45.11467" lon="2.64079">
        <ele>1521.6</ele>
        <time>2021-08-11T09:48:54Z</time>
      </trkpt>
      <trkpt lat="45.11467" lon="2.6408">
        <ele>1521.8</ele>
        <time>2021-08-11T09:48:55Z</time>
      </trkpt>
      <trkpt lat="45.11466" lon="2.6408">
        <ele>1522.1</ele>
        <time>2021-08-11T09:48:56Z</time>
      </trkpt>
      <trkpt lat="45.11465" lon="2.64081">
        <ele>1522.2</ele>
        <time>2021-08-11T09:48:57Z</time>
      </trkpt>
      <trkpt lat="45.11464" lon="2.64081">
        <ele>1522.3</ele>
        <time>2021-08-11T09:48:58Z</time>
      </trkpt>
      <trkpt lat="45.11464" lon="2.64081">
        <ele>1522.4</ele>
        <time>2021-08-11T09:48:59Z</time>
      </trkpt>
      <trkpt lat="45.11463" lon="2.64081">
        <ele>1522.5</ele>
        <time>2021-08-11T09:49:00Z</time>
      </trkpt>
      <trkpt lat="45.11463" lon="2.64081">
        <ele>1522.5</ele>
        <time>2021-08-11T09:49:01Z</time>
      </trkpt>
      <trkpt lat="45.11462" lon="2.6408">
        <ele>1522.5</ele>
        <time>2021-08-11T09:49:02Z</time>
      </trkpt>
      <trkpt lat="45.11461" lon="2.6408">
        <ele>1522.3</ele>
        <time>2021-08-11T09:49:03Z</time>
      </trkpt>
      <trkpt lat="45.11461" lon="2.6408">
        <ele>1522.2</ele>
        <time>2021-08-11T09:49:04Z</time>
      </trkpt>
      <trkpt lat="45.11461" lon="2.64079">
        <ele>1522.1</ele>
        <time>2021-08-11T09:49:05Z</time>
      </trkpt>
      <trkpt lat="45.1146" lon="2.64079">
        <ele>1522</ele>
        <time>2021-08-11T09:49:06Z</time>
      </trkpt>
      <trkpt lat="45.1146" lon="2.64078">
        <ele>1521.8</ele>
        <time>2021-08-11T09:49:07Z</time>
      </trkpt>
      <trkpt lat="45.11459" lon="2.64078">
        <ele>1521.9</ele>
        <time>2021-08-11T09:49:08Z</time>
      </trkpt>
      <trkpt lat="45.11459" lon="2.64078">
        <ele>1521.9</ele>
        <time>2021-08-11T09:49:09Z</time>
      </trkpt>
      <trkpt lat="45.11458" lon="2.64078">
        <ele>1521.9</ele>
        <time>2021-08-11T09:49:10Z</time>
      </trkpt>
      <trkpt lat="45.11457" lon="2.64078">
        <ele>1521.9</ele>
        <time>2021-08-11T09:49:11Z</time>
      </trkpt>
      <trkpt lat="45.11457" lon="2.64077">
        <ele>1521.8</ele>
        <time>2021-08-11T09:49:12Z</time>
      </trkpt>
      <trkpt lat="45.11456" lon="2.64077">
        <ele>1521.6</ele>
        <time>2021-08-11T09:49:13Z</time>
      </trkpt>
      <trkpt lat="45.11456" lon="2.64077">
        <ele>1521.5</ele>
        <time>2021-08-11T09:49:14Z</time>
      </trkpt>
      <trkpt lat="45.11456" lon="2.64076">
        <ele>1521.4</ele>
        <time>2021-08-11T09:49:15Z</time>
      </trkpt>
      <trkpt lat="45.11455" lon="2.64076">
        <ele>1521.3</ele>
        <time>2021-08-11T09:49:16Z</time>
      </trkpt>
      <trkpt lat="45.11455" lon="2.64075">
        <ele>1520.9</ele>
        <time>2021-08-11T09:49:17Z</time>
      </trkpt>
      <trkpt lat="45.11454" lon="2.64074">
        <ele>1520.8</ele>
        <time>2021-08-11T09:49:18Z</time>
      </trkpt>
      <trkpt lat="45.11454" lon="2.64074">
        <ele>1520.8</ele>
        <time>2021-08-11T09:49:19Z</time>
      </trkpt>
      <trkpt lat="45.11454" lon="2.64074">
        <ele>1520.8</ele>
        <time>2021-08-11T09:49:20Z</time>
      </trkpt>
      <trkpt lat="45.11453" lon="2.64074">
        <ele>1520.8</ele>
        <time>2021-08-11T09:49:21Z</time>
      </trkpt>
      <trkpt lat="45.11453" lon="2.64074">
        <ele>1520.9</ele>
        <time>2021-08-11T09:49:22Z</time>
      </trkpt>
      <trkpt lat="45.11453" lon="2.64074">
        <ele>1520.9</ele>
        <time>2021-08-11T09:49:23Z</time>
      </trkpt>
      <trkpt lat="45.11453" lon="2.64074">
        <ele>1520.8</ele>
        <time>2021-08-11T09:49:24Z</time>
      </trkpt>
      <trkpt lat="45.11452" lon="2.64074">
        <ele>1520.7</ele>
        <time>2021-08-11T09:49:25Z</time>
      </trkpt>
      <trkpt lat="45.11451" lon="2.64073">
        <ele>1520.6</ele>
        <time>2021-08-11T09:49:26Z</time>
      </trkpt>
      <trkpt lat="45.11451" lon="2.64072">
        <ele>1520.4</ele>
        <time>2021-08-11T09:49:27Z</time>
      </trkpt>
      <trkpt lat="45.1145" lon="2.64072">
        <ele>1520.1</ele>
        <time>2021-08-11T09:49:28Z</time>
      </trkpt>
      <trkpt lat="45.11449" lon="2.64071">
        <ele>1519.8</ele>
        <time>2021-08-11T09:49:29Z</time>
      </trkpt>
      <trkpt lat="45.11449" lon="2.6407">
        <ele>1519.6</ele>
        <time>2021-08-11T09:49:30Z</time>
      </trkpt>
      <trkpt lat="45.11448" lon="2.64069">
        <ele>1519.2</ele>
        <time>2021-08-11T09:49:31Z</time>
      </trkpt>
      <trkpt lat="45.11447" lon="2.64068">
        <ele>1519.1</ele>
        <time>2021-08-11T09:49:32Z</time>
      </trkpt>
      <trkpt lat="45.11446" lon="2.64067">
        <ele>1518.9</ele>
        <time>2021-08-11T09:49:33Z</time>
      </trkpt>
      <trkpt lat="45.11445" lon="2.64067">
        <ele>1518.9</ele>
        <time>2021-08-11T09:49:34Z</time>
      </trkpt>
      <trkpt lat="45.11444" lon="2.64067">
        <ele>1519.1</ele>
        <time>2021-08-11T09:49:35Z</time>
      </trkpt>
      <trkpt lat="45.11443" lon="2.64067">
        <ele>1519.1</ele>
        <time>2021-08-11T09:49:36Z</time>
      </trkpt>
      <trkpt lat="45.11443" lon="2.64067">
        <ele>1518.9</ele>
        <time>2021-08-11T09:49:37Z</time>
      </trkpt>
      <trkpt lat="45.11442" lon="2.64066">
        <ele>1518.8</ele>
        <time>2021-08-11T09:49:38Z</time>
      </trkpt>
      <trkpt lat="45.11441" lon="2.64066">
        <ele>1518.8</ele>
        <time>2021-08-11T09:49:39Z</time>
      </trkpt>
      <trkpt lat="45.1144" lon="2.64065">
        <ele>1518.7</ele>
        <time>2021-08-11T09:49:40Z</time>
      </trkpt>
      <trkpt lat="45.1144" lon="2.64065">
        <ele>1518.6</ele>
        <time>2021-08-11T09:49:41Z</time>
      </trkpt>
      <trkpt lat="45.11439" lon="2.64065">
        <ele>1518.5</ele>
        <time>2021-08-11T09:49:42Z</time>
      </trkpt>
      <trkpt lat="45.11439" lon="2.64064">
        <ele>1518.1</ele>
        <time>2021-08-11T09:49:43Z</time>
      </trkpt>
      <trkpt lat="45.11439" lon="2.64063">
        <ele>1517.8</ele>
        <time>2021-08-11T09:49:44Z</time>
      </trkpt>
      <trkpt lat="45.11438" lon="2.64062">
        <ele>1517.5</ele>
        <time>2021-08-11T09:49:45Z</time>
      </trkpt>
      <trkpt lat="45.11438" lon="2.64061">
        <ele>1517.4</ele>
        <time>2021-08-11T09:49:46Z</time>
      </trkpt>
      <trkpt lat="45.11438" lon="2.64061">
        <ele>1517.3</ele>
        <time>2021-08-11T09:49:47Z</time>
      </trkpt>
      <trkpt lat="45.11437" lon="2.6406">
        <ele>1517.1</ele>
        <time>2021-08-11T09:49:48Z</time>
      </trkpt>
      <trkpt lat="45.11436" lon="2.6406">
        <ele>1516.9</ele>
        <time>2021-08-11T09:49:49Z</time>
      </trkpt>
      <trkpt lat="45.11435" lon="2.64059">
        <ele>1516.8</ele>
        <time>2021-08-11T09:49:50Z</time>
      </trkpt>
      <trkpt lat="45.11434" lon="2.64058">
        <ele>1516.6</ele>
        <time>2021-08-11T09:49:51Z</time>
      </trkpt>
      <trkpt lat="45.11433" lon="2.64058">
        <ele>1516.5</ele>
        <time>2021-08-11T09:49:52Z</time>
      </trkpt>
      <trkpt lat="45.11433" lon="2.64057">
        <ele>1516.4</ele>
        <time>2021-08-11T09:49:53Z</time>
      </trkpt>
      <trkpt lat="45.11432" lon="2.64057">
        <ele>1516.4</ele>
        <time>2021-08-11T09:49:54Z</time>
      </trkpt>
      <trkpt lat="45.11431" lon="2.64057">
        <ele>1516.3</ele>
        <time>2021-08-11T09:49:55Z</time>
      </trkpt>
      <trkpt lat="45.1143" lon="2.64056">
        <ele>1516.3</ele>
        <time>2021-08-11T09:49:56Z</time>
      </trkpt>
      <trkpt lat="45.11429" lon="2.64056">
        <ele>1516.2</ele>
        <time>2021-08-11T09:49:57Z</time>
      </trkpt>
      <trkpt lat="45.11428" lon="2.64055">
        <ele>1516.1</ele>
        <time>2021-08-11T09:49:58Z</time>
      </trkpt>
      <trkpt lat="45.11427" lon="2.64055">
        <ele>1515.9</ele>
        <time>2021-08-11T09:49:59Z</time>
      </trkpt>
      <trkpt lat="45.11426" lon="2.64055">
        <ele>1516</ele>
        <time>2021-08-11T09:50:00Z</time>
      </trkpt>
      <trkpt lat="45.11425" lon="2.64054">
        <ele>1515.9</ele>
        <time>2021-08-11T09:50:01Z</time>
      </trkpt>
      <trkpt lat="45.11424" lon="2.64054">
        <ele>1515.9</ele>
        <time>2021-08-11T09:50:02Z</time>
      </trkpt>
      <trkpt lat="45.11423" lon="2.64054">
        <ele>1516</ele>
        <time>2021-08-11T09:50:03Z</time>
      </trkpt>
      <trkpt lat="45.11422" lon="2.64054">
        <ele>1516.1</ele>
        <time>2021-08-11T09:50:04Z</time>
      </trkpt>
      <trkpt lat="45.11421" lon="2.64053">
        <ele>1516</ele>
        <time>2021-08-11T09:50:05Z</time>
      </trkpt>
      <trkpt lat="45.1142" lon="2.64053">
        <ele>1516</ele>
        <time>2021-08-11T09:50:06Z</time>
      </trkpt>
      <trkpt lat="45.11419" lon="2.64053">
        <ele>1515.9</ele>
        <time>2021-08-11T09:50:07Z</time>
      </trkpt>
      <trkpt lat="45.11419" lon="2.64052">
        <ele>1515.7</ele>
        <time>2021-08-11T09:50:08Z</time>
      </trkpt>
      <trkpt lat="45.11418" lon="2.64051">
        <ele>1515.5</ele>
        <time>2021-08-11T09:50:09Z</time>
      </trkpt>
      <trkpt lat="45.11417" lon="2.64051">
        <ele>1515.4</ele>
        <time>2021-08-11T09:50:10Z</time>
      </trkpt>
      <trkpt lat="45.11416" lon="2.64051">
        <ele>1515.5</ele>
        <time>2021-08-11T09:50:11Z</time>
      </trkpt>
      <trkpt lat="45.11415" lon="2.6405">
        <ele>1515.6</ele>
        <time>2021-08-11T09:50:12Z</time>
      </trkpt>
      <trkpt lat="45.11414" lon="2.6405">
        <ele>1515.6</ele>
        <time>2021-08-11T09:50:13Z</time>
      </trkpt>
      <trkpt lat="45.11413" lon="2.64049">
        <ele>1515.8</ele>
        <time>2021-08-11T09:50:14Z</time>
      </trkpt>
      <trkpt lat="45.11412" lon="2.64049">
        <ele>1515.9</ele>
        <time>2021-08-11T09:50:15Z</time>
      </trkpt>
      <trkpt lat="45.11412" lon="2.64049">
        <ele>1516.1</ele>
        <time>2021-08-11T09:50:16Z</time>
      </trkpt>
      <trkpt lat="45.11411" lon="2.64049">
        <ele>1516.1</ele>
        <time>2021-08-11T09:50:17Z</time>
      </trkpt>
      <trkpt lat="45.1141" lon="2.64048">
        <ele>1515.9</ele>
        <time>2021-08-11T09:50:18Z</time>
      </trkpt>
      <trkpt lat="45.11409" lon="2.64046">
        <ele>1515.7</ele>
        <time>2021-08-11T09:50:19Z</time>
      </trkpt>
      <trkpt lat="45.11408" lon="2.64045">
        <ele>1515.4</ele>
        <time>2021-08-11T09:50:20Z</time>
      </trkpt>
      <trkpt lat="45.11406" lon="2.64044">
        <ele>1515.3</ele>
        <time>2021-08-11T09:50:21Z</time>
      </trkpt>
      <trkpt lat="45.11405" lon="2.64042">
        <ele>1515.1</ele>
        <time>2021-08-11T09:50:22Z</time>
      </trkpt>
      <trkpt lat="45.11404" lon="2.64041">
        <ele>1515</ele>
        <time>2021-08-11T09:50:23Z</time>
      </trkpt>
      <trkpt lat="45.11402" lon="2.6404">
        <ele>1514.9</ele>
        <time>2021-08-11T09:50:24Z</time>
      </trkpt>
      <trkpt lat="45.11401" lon="2.64039">
        <ele>1514.8</ele>
        <time>2021-08-11T09:50:25Z</time>
      </trkpt>
      <trkpt lat="45.11399" lon="2.64038">
        <ele>1514.8</ele>
        <time>2021-08-11T09:50:26Z</time>
      </trkpt>
      <trkpt lat="45.11398" lon="2.64037">
        <ele>1514.8</ele>
        <time>2021-08-11T09:50:27Z</time>
      </trkpt>
      <trkpt lat="45.11396" lon="2.64036">
        <ele>1514.9</ele>
        <time>2021-08-11T09:50:28Z</time>
      </trkpt>
      <trkpt lat="45.11394" lon="2.64034">
        <ele>1514.9</ele>
        <time>2021-08-11T09:50:29Z</time>
      </trkpt>
      <trkpt lat="45.11393" lon="2.64034">
        <ele>1515</ele>
        <time>2021-08-11T09:50:30Z</time>
      </trkpt>
      <trkpt lat="45.11391" lon="2.64032">
        <ele>1515.1</ele>
        <time>2021-08-11T09:50:31Z</time>
      </trkpt>
      <trkpt lat="45.11389" lon="2.64032">
        <ele>1515.2</ele>
        <time>2021-08-11T09:50:32Z</time>
      </trkpt>
      <trkpt lat="45.11388" lon="2.64031">
        <ele>1515.4</ele>
        <time>2021-08-11T09:50:33Z</time>
      </trkpt>
      <trkpt lat="45.11387" lon="2.6403">
        <ele>1515.5</ele>
        <time>2021-08-11T09:50:34Z</time>
      </trkpt>
      <trkpt lat="45.11386" lon="2.6403">
        <ele>1515.5</ele>
        <time>2021-08-11T09:50:35Z</time>
      </trkpt>
      <trkpt lat="45.11385" lon="2.64029">
        <ele>1515.6</ele>
        <time>2021-08-11T09:50:36Z</time>
      </trkpt>
      <trkpt lat="45.11384" lon="2.64029">
        <ele>1515.8</ele>
        <time>2021-08-11T09:50:37Z</time>
      </trkpt>
      <trkpt lat="45.11383" lon="2.64029">
        <ele>1515.9</ele>
        <time>2021-08-11T09:50:38Z</time>
      </trkpt>
      <trkpt lat="45.11382" lon="2.64029">
        <ele>1516.1</ele>
        <time>2021-08-11T09:50:39Z</time>
      </trkpt>
      <trkpt lat="45.11382" lon="2.64028">
        <ele>1516.1</ele>
        <time>2021-08-11T09:50:40Z</time>
      </trkpt>
      <trkpt lat="45.11381" lon="2.64028">
        <ele>1516.1</ele>
        <time>2021-08-11T09:50:41Z</time>
      </trkpt>
      <trkpt lat="45.1138" lon="2.64027">
        <ele>1516.2</ele>
        <time>2021-08-11T09:50:42Z</time>
      </trkpt>
      <trkpt lat="45.11379" lon="2.64027">
        <ele>1516.2</ele>
        <time>2021-08-11T09:50:43Z</time>
      </trkpt>
      <trkpt lat="45.11378" lon="2.64026">
        <ele>1516.2</ele>
        <time>2021-08-11T09:50:44Z</time>
      </trkpt>
      <trkpt lat="45.11378" lon="2.64026">
        <ele>1516.4</ele>
        <time>2021-08-11T09:50:45Z</time>
      </trkpt>
      <trkpt lat="45.11377" lon="2.64026">
        <ele>1516.4</ele>
        <time>2021-08-11T09:50:46Z</time>
      </trkpt>
      <trkpt lat="45.11376" lon="2.64025">
        <ele>1516.5</ele>
        <time>2021-08-11T09:50:47Z</time>
      </trkpt>
      <trkpt lat="45.11375" lon="2.64025">
        <ele>1516.7</ele>
        <time>2021-08-11T09:50:48Z</time>
      </trkpt>
      <trkpt lat="45.11374" lon="2.64025">
        <ele>1516.8</ele>
        <time>2021-08-11T09:50:49Z</time>
      </trkpt>
      <trkpt lat="45.11374" lon="2.64024">
        <ele>1516.9</ele>
        <time>2021-08-11T09:50:50Z</time>
      </trkpt>
      <trkpt lat="45.11373" lon="2.64024">
        <ele>1516.9</ele>
        <time>2021-08-11T09:50:51Z</time>
      </trkpt>
      <trkpt lat="45.11372" lon="2.64024">
        <ele>1517</ele>
        <time>2021-08-11T09:50:52Z</time>
      </trkpt>
      <trkpt lat="45.11372" lon="2.64023">
        <ele>1516.9</ele>
        <time>2021-08-11T09:50:53Z</time>
      </trkpt>
      <trkpt lat="45.11372" lon="2.64023">
        <ele>1517</ele>
        <time>2021-08-11T09:50:54Z</time>
      </trkpt>
      <trkpt lat="45.11372" lon="2.64024">
        <ele>1517</ele>
        <time>2021-08-11T09:50:55Z</time>
      </trkpt>
      <trkpt lat="45.11372" lon="2.64024">
        <ele>1517</ele>
        <time>2021-08-11T09:50:56Z</time>
      </trkpt>
      <trkpt lat="45.11372" lon="2.64024">
        <ele>1517.2</ele>
        <time>2021-08-11T09:50:57Z</time>
      </trkpt>
      <trkpt lat="45.11371" lon="2.64024">
        <ele>1517.3</ele>
        <time>2021-08-11T09:50:58Z</time>
      </trkpt>
      <trkpt lat="45.11371" lon="2.64023">
        <ele>1517.4</ele>
        <time>2021-08-11T09:50:59Z</time>
      </trkpt>
      <trkpt lat="45.1137" lon="2.64023">
        <ele>1517.5</ele>
        <time>2021-08-11T09:51:00Z</time>
      </trkpt>
      <trkpt lat="45.11369" lon="2.64023">
        <ele>1517.7</ele>
        <time>2021-08-11T09:51:01Z</time>
      </trkpt>
      <trkpt lat="45.11368" lon="2.64023">
        <ele>1517.9</ele>
        <time>2021-08-11T09:51:02Z</time>
      </trkpt>
      <trkpt lat="45.11367" lon="2.64023">
        <ele>1518.2</ele>
        <time>2021-08-11T09:51:03Z</time>
      </trkpt>
      <trkpt lat="45.11367" lon="2.64023">
        <ele>1518.3</ele>
        <time>2021-08-11T09:51:04Z</time>
      </trkpt>
      <trkpt lat="45.11366" lon="2.64023">
        <ele>1518.5</ele>
        <time>2021-08-11T09:51:05Z</time>
      </trkpt>
      <trkpt lat="45.11365" lon="2.64023">
        <ele>1518.7</ele>
        <time>2021-08-11T09:51:06Z</time>
      </trkpt>
      <trkpt lat="45.11364" lon="2.64022">
        <ele>1518.9</ele>
        <time>2021-08-11T09:51:07Z</time>
      </trkpt>
      <trkpt lat="45.11363" lon="2.64022">
        <ele>1519</ele>
        <time>2021-08-11T09:51:08Z</time>
      </trkpt>
      <trkpt lat="45.11362" lon="2.64022">
        <ele>1519.2</ele>
        <time>2021-08-11T09:51:09Z</time>
      </trkpt>
      <trkpt lat="45.11361" lon="2.64022">
        <ele>1519.4</ele>
        <time>2021-08-11T09:51:10Z</time>
      </trkpt>
      <trkpt lat="45.11361" lon="2.64022">
        <ele>1519.5</ele>
        <time>2021-08-11T09:51:11Z</time>
      </trkpt>
      <trkpt lat="45.1136" lon="2.64021">
        <ele>1519.7</ele>
        <time>2021-08-11T09:51:12Z</time>
      </trkpt>
      <trkpt lat="45.11359" lon="2.64021">
        <ele>1519.8</ele>
        <time>2021-08-11T09:51:13Z</time>
      </trkpt>
      <trkpt lat="45.11358" lon="2.64021">
        <ele>1519.9</ele>
        <time>2021-08-11T09:51:14Z</time>
      </trkpt>
      <trkpt lat="45.11358" lon="2.6402">
        <ele>1519.9</ele>
        <time>2021-08-11T09:51:15Z</time>
      </trkpt>
      <trkpt lat="45.11357" lon="2.64019">
        <ele>1519.8</ele>
        <time>2021-08-11T09:51:16Z</time>
      </trkpt>
      <trkpt lat="45.11356" lon="2.64018">
        <ele>1519.7</ele>
        <time>2021-08-11T09:51:17Z</time>
      </trkpt>
      <trkpt lat="45.11356" lon="2.64018">
        <ele>1519.6</ele>
        <time>2021-08-11T09:51:18Z</time>
      </trkpt>
      <trkpt lat="45.11355" lon="2.64017">
        <ele>1519.6</ele>
        <time>2021-08-11T09:51:19Z</time>
      </trkpt>
      <trkpt lat="45.11354" lon="2.64016">
        <ele>1519.6</ele>
        <time>2021-08-11T09:51:20Z</time>
      </trkpt>
      <trkpt lat="45.11354" lon="2.64016">
        <ele>1519.7</ele>
        <time>2021-08-11T09:51:21Z</time>
      </trkpt>
      <trkpt lat="45.11353" lon="2.64015">
        <ele>1519.8</ele>
        <time>2021-08-11T09:51:22Z</time>
      </trkpt>
      <trkpt lat="45.11352" lon="2.64015">
        <ele>1519.9</ele>
        <time>2021-08-11T09:51:23Z</time>
      </trkpt>
      <trkpt lat="45.11351" lon="2.64015">
        <ele>1519.9</ele>
        <time>2021-08-11T09:51:24Z</time>
      </trkpt>
      <trkpt lat="45.11351" lon="2.64014">
        <ele>1520.1</ele>
        <time>2021-08-11T09:51:25Z</time>
      </trkpt>
      <trkpt lat="45.1135" lon="2.64014">
        <ele>1520.3</ele>
        <time>2021-08-11T09:51:26Z</time>
      </trkpt>
      <trkpt lat="45.11349" lon="2.64014">
        <ele>1520.4</ele>
        <time>2021-08-11T09:51:27Z</time>
      </trkpt>
      <trkpt lat="45.11349" lon="2.64014">
        <ele>1520.5</ele>
        <time>2021-08-11T09:51:28Z</time>
      </trkpt>
      <trkpt lat="45.11348" lon="2.64014">
        <ele>1520.7</ele>
        <time>2021-08-11T09:51:29Z</time>
      </trkpt>
      <trkpt lat="45.11347" lon="2.64014">
        <ele>1520.9</ele>
        <time>2021-08-11T09:51:30Z</time>
      </trkpt>
      <trkpt lat="45.11346" lon="2.64014">
        <ele>1521.1</ele>
        <time>2021-08-11T09:51:31Z</time>
      </trkpt>
      <trkpt lat="45.11346" lon="2.64013">
        <ele>1521.1</ele>
        <time>2021-08-11T09:51:32Z</time>
      </trkpt>
      <trkpt lat="45.11345" lon="2.64013">
        <ele>1521.3</ele>
        <time>2021-08-11T09:51:33Z</time>
      </trkpt>
      <trkpt lat="45.11345" lon="2.64013">
        <ele>1521.4</ele>
        <time>2021-08-11T09:51:34Z</time>
      </trkpt>
      <trkpt lat="45.11344" lon="2.64013">
        <ele>1521.5</ele>
        <time>2021-08-11T09:51:35Z</time>
      </trkpt>
      <trkpt lat="45.11343" lon="2.64012">
        <ele>1521.7</ele>
        <time>2021-08-11T09:51:36Z</time>
      </trkpt>
      <trkpt lat="45.11342" lon="2.64012">
        <ele>1521.8</ele>
        <time>2021-08-11T09:51:37Z</time>
      </trkpt>
      <trkpt lat="45.11341" lon="2.64012">
        <ele>1521.9</ele>
        <time>2021-08-11T09:51:38Z</time>
      </trkpt>
      <trkpt lat="45.1134" lon="2.64011">
        <ele>1522.1</ele>
        <time>2021-08-11T09:51:39Z</time>
      </trkpt>
      <trkpt lat="45.1134" lon="2.64011">
        <ele>1522.2</ele>
        <time>2021-08-11T09:51:40Z</time>
      </trkpt>
      <trkpt lat="45.11339" lon="2.64011">
        <ele>1522.3</ele>
        <time>2021-08-11T09:51:41Z</time>
      </trkpt>
      <trkpt lat="45.11339" lon="2.6401">
        <ele>1522.4</ele>
        <time>2021-08-11T09:51:42Z</time>
      </trkpt>
      <trkpt lat="45.11338" lon="2.6401">
        <ele>1522.4</ele>
        <time>2021-08-11T09:51:43Z</time>
      </trkpt>
      <trkpt lat="45.11337" lon="2.64009">
        <ele>1522.4</ele>
        <time>2021-08-11T09:51:44Z</time>
      </trkpt>
      <trkpt lat="45.11337" lon="2.64009">
        <ele>1522.4</ele>
        <time>2021-08-11T09:51:45Z</time>
      </trkpt>
      <trkpt lat="45.11336" lon="2.64009">
        <ele>1522.5</ele>
        <time>2021-08-11T09:51:46Z</time>
      </trkpt>
      <trkpt lat="45.11336" lon="2.64008">
        <ele>1522.5</ele>
        <time>2021-08-11T09:51:47Z</time>
      </trkpt>
      <trkpt lat="45.11336" lon="2.64008">
        <ele>1522.5</ele>
        <time>2021-08-11T09:51:48Z</time>
      </trkpt>
      <trkpt lat="45.11335" lon="2.64007">
        <ele>1522.5</ele>
        <time>2021-08-11T09:51:49Z</time>
      </trkpt>
      <trkpt lat="45.11335" lon="2.64007">
        <ele>1522.5</ele>
        <time>2021-08-11T09:51:50Z</time>
      </trkpt>
      <trkpt lat="45.11334" lon="2.64006">
        <ele>1522.5</ele>
        <time>2021-08-11T09:51:51Z</time>
      </trkpt>
      <trkpt lat="45.11334" lon="2.64006">
        <ele>1522.5</ele>
        <time>2021-08-11T09:51:52Z</time>
      </trkpt>
      <trkpt lat="45.11333" lon="2.64005">
        <ele>1522.4</ele>
        <time>2021-08-11T09:51:53Z</time>
      </trkpt>
      <trkpt lat="45.11333" lon="2.64005">
        <ele>1522.5</ele>
        <time>2021-08-11T09:51:54Z</time>
      </trkpt>
      <trkpt lat="45.11333" lon="2.64004">
        <ele>1522.4</ele>
        <time>2021-08-11T09:51:55Z</time>
      </trkpt>
      <trkpt lat="45.11332" lon="2.64004">
        <ele>1522.4</ele>
        <time>2021-08-11T09:51:56Z</time>
      </trkpt>
      <trkpt lat="45.11332" lon="2.64003">
        <ele>1522.5</ele>
        <time>2021-08-11T09:51:57Z</time>
      </trkpt>
      <trkpt lat="45.11331" lon="2.64003">
        <ele>1522.6</ele>
        <time>2021-08-11T09:51:58Z</time>
      </trkpt>
      <trkpt lat="45.11331" lon="2.64003">
        <ele>1522.6</ele>
        <time>2021-08-11T09:51:59Z</time>
      </trkpt>
      <trkpt lat="45.11331" lon="2.64003">
        <ele>1522.7</ele>
        <time>2021-08-11T09:52:00Z</time>
      </trkpt>
      <trkpt lat="45.11331" lon="2.64002">
        <ele>1522.7</ele>
        <time>2021-08-11T09:52:01Z</time>
      </trkpt>
      <trkpt lat="45.1133" lon="2.64002">
        <ele>1522.8</ele>
        <time>2021-08-11T09:52:02Z</time>
      </trkpt>
      <trkpt lat="45.1133" lon="2.64002">
        <ele>1522.8</ele>
        <time>2021-08-11T09:52:03Z</time>
      </trkpt>
      <trkpt lat="45.1133" lon="2.64001">
        <ele>1522.7</ele>
        <time>2021-08-11T09:52:04Z</time>
      </trkpt>
      <trkpt lat="45.1133" lon="2.64001">
        <ele>1522.6</ele>
        <time>2021-08-11T09:52:05Z</time>
      </trkpt>
      <trkpt lat="45.1133" lon="2.64">
        <ele>1522.5</ele>
        <time>2021-08-11T09:52:06Z</time>
      </trkpt>
      <trkpt lat="45.1133" lon="2.63999">
        <ele>1522.3</ele>
        <time>2021-08-11T09:52:07Z</time>
      </trkpt>
      <trkpt lat="45.1133" lon="2.63999">
        <ele>1522.1</ele>
        <time>2021-08-11T09:52:08Z</time>
      </trkpt>
      <trkpt lat="45.11329" lon="2.63998">
        <ele>1522</ele>
        <time>2021-08-11T09:52:09Z</time>
      </trkpt>
      <trkpt lat="45.1133" lon="2.63998">
        <ele>1521.9</ele>
        <time>2021-08-11T09:52:10Z</time>
      </trkpt>
      <trkpt lat="45.1133" lon="2.63998">
        <ele>1521.9</ele>
        <time>2021-08-11T09:52:11Z</time>
      </trkpt>
      <trkpt lat="45.1133" lon="2.63998">
        <ele>1521.8</ele>
        <time>2021-08-11T09:52:12Z</time>
      </trkpt>
      <trkpt lat="45.1133" lon="2.63998">
        <ele>1521.7</ele>
        <time>2021-08-11T09:52:13Z</time>
      </trkpt>
      <trkpt lat="45.1133" lon="2.63998">
        <ele>1521.7</ele>
        <time>2021-08-11T09:52:14Z</time>
      </trkpt>
      <trkpt lat="45.1133" lon="2.63998">
        <ele>1521.7</ele>
        <time>2021-08-11T09:52:15Z</time>
      </trkpt>
      <trkpt lat="45.1133" lon="2.63998">
        <ele>1521.7</ele>
        <time>2021-08-11T09:52:16Z</time>
      </trkpt>
      <trkpt lat="45.1133" lon="2.63998">
        <ele>1521.7</ele>
        <time>2021-08-11T09:52:17Z</time>
      </trkpt>
      <trkpt lat="45.1133" lon="2.63998">
        <ele>1521.7</ele>
        <time>2021-08-11T09:52:18Z</time>
      </trkpt>
      <trkpt lat="45.1133" lon="2.63998">
        <ele>1521.7</ele>
        <time>2021-08-11T09:52:19Z</time>
      </trkpt>
      <trkpt lat="45.1133" lon="2.63998">
        <ele>1521.7</ele>
        <time>2021-08-11T09:52:20Z</time>
      </trkpt>
      <trkpt lat="45.1133" lon="2.63998">
        <ele>1521.7</ele>
        <time>2021-08-11T09:52:21Z</time>
      </trkpt>
      <trkpt lat="45.1133" lon="2.63998">
        <ele>1521.7</ele>
        <time>2021-08-11T09:52:22Z</time>
      </trkpt>
      <trkpt lat="45.1133" lon="2.63998">
        <ele>1521.7</ele>
        <time>2021-08-11T09:52:23Z</time>
      </trkpt>
      <trkpt lat="45.1133" lon="2.63998">
        <ele>1521.7</ele>
        <time>2021-08-11T09:52:24Z</time>
      </trkpt>
      <trkpt lat="45.1133" lon="2.63998">
        <ele>1521.7</ele>
        <time>2021-08-11T09:52:25Z</time>
      </trkpt>
      <trkpt lat="45.1133" lon="2.63997">
        <ele>1521.5</ele>
        <time>2021-08-11T09:52:26Z</time>
      </trkpt>
      <trkpt lat="45.1133" lon="2.63997">
        <ele>1521.4</ele>
        <time>2021-08-11T09:52:27Z</time>
      </trkpt>
      <trkpt lat="45.1133" lon="2.63997">
        <ele>1521.3</ele>
        <time>2021-08-11T09:52:28Z</time>
      </trkpt>
      <trkpt lat="45.1133" lon="2.63996">
        <ele>1521.3</ele>
        <time>2021-08-11T09:52:29Z</time>
      </trkpt>
      <trkpt lat="45.1133" lon="2.63996">
        <ele>1521.2</ele>
        <time>2021-08-11T09:52:30Z</time>
      </trkpt>
      <trkpt lat="45.1133" lon="2.63996">
        <ele>1521.2</ele>
        <time>2021-08-11T09:52:31Z</time>
      </trkpt>
      <trkpt lat="45.1133" lon="2.63996">
        <ele>1521.1</ele>
        <time>2021-08-11T09:52:32Z</time>
      </trkpt>
      <trkpt lat="45.1133" lon="2.63996">
        <ele>1521.1</ele>
        <time>2021-08-11T09:52:33Z</time>
      </trkpt>
      <trkpt lat="45.1133" lon="2.63996">
        <ele>1521.1</ele>
        <time>2021-08-11T09:52:34Z</time>
      </trkpt>
      <trkpt lat="45.1133" lon="2.63996">
        <ele>1521.1</ele>
        <time>2021-08-11T09:52:35Z</time>
      </trkpt>
      <trkpt lat="45.1133" lon="2.63996">
        <ele>1521.1</ele>
        <time>2021-08-11T09:52:36Z</time>
      </trkpt>
      <trkpt lat="45.1133" lon="2.63996">
        <ele>1521.1</ele>
        <time>2021-08-11T09:52:37Z</time>
      </trkpt>
      <trkpt lat="45.1133" lon="2.63996">
        <ele>1521.1</ele>
        <time>2021-08-11T09:52:38Z</time>
      </trkpt>
      <trkpt lat="45.1133" lon="2.63996">
        <ele>1521.1</ele>
        <time>2021-08-11T09:52:39Z</time>
      </trkpt>
      <trkpt lat="45.1133" lon="2.63996">
        <ele>1521.1</ele>
        <time>2021-08-11T09:52:40Z</time>
      </trkpt>
      <trkpt lat="45.1133" lon="2.63996">
        <ele>1521.2</ele>
        <time>2021-08-11T09:52:41Z</time>
      </trkpt>
      <trkpt lat="45.1133" lon="2.63996">
        <ele>1521.2</ele>
        <time>2021-08-11T09:52:42Z</time>
      </trkpt>
      <trkpt lat="45.11329" lon="2.63996">
        <ele>1521.2</ele>
        <time>2021-08-11T09:52:43Z</time>
      </trkpt>
      <trkpt lat="45.11329" lon="2.63995">
        <ele>1521.2</ele>
        <time>2021-08-11T09:52:44Z</time>
      </trkpt>
      <trkpt lat="45.11329" lon="2.63995">
        <ele>1521.2</ele>
        <time>2021-08-11T09:52:45Z</time>
      </trkpt>
      <trkpt lat="45.11328" lon="2.63994">
        <ele>1521.2</ele>
        <time>2021-08-11T09:52:46Z</time>
      </trkpt>
      <trkpt lat="45.11328" lon="2.63994">
        <ele>1521.2</ele>
        <time>2021-08-11T09:52:47Z</time>
      </trkpt>
      <trkpt lat="45.11327" lon="2.63993">
        <ele>1521.1</ele>
        <time>2021-08-11T09:52:48Z</time>
      </trkpt>
      <trkpt lat="45.11327" lon="2.63992">
        <ele>1520.9</ele>
        <time>2021-08-11T09:52:49Z</time>
      </trkpt>
      <trkpt lat="45.11327" lon="2.63991">
        <ele>1520.7</ele>
        <time>2021-08-11T09:52:50Z</time>
      </trkpt>
      <trkpt lat="45.11327" lon="2.63991">
        <ele>1520.7</ele>
        <time>2021-08-11T09:52:51Z</time>
      </trkpt>
      <trkpt lat="45.11327" lon="2.63991">
        <ele>1520.7</ele>
        <time>2021-08-11T09:52:52Z</time>
      </trkpt>
      <trkpt lat="45.11327" lon="2.63991">
        <ele>1520.7</ele>
        <time>2021-08-11T09:52:53Z</time>
      </trkpt>
      <trkpt lat="45.11326" lon="2.6399">
        <ele>1520.6</ele>
        <time>2021-08-11T09:52:54Z</time>
      </trkpt>
      <trkpt lat="45.11326" lon="2.63989">
        <ele>1520.5</ele>
        <time>2021-08-11T09:52:55Z</time>
      </trkpt>
      <trkpt lat="45.11326" lon="2.63988">
        <ele>1520.2</ele>
        <time>2021-08-11T09:52:56Z</time>
      </trkpt>
      <trkpt lat="45.11325" lon="2.63987">
        <ele>1520.1</ele>
        <time>2021-08-11T09:52:57Z</time>
      </trkpt>
      <trkpt lat="45.11325" lon="2.63987">
        <ele>1520</ele>
        <time>2021-08-11T09:52:58Z</time>
      </trkpt>
      <trkpt lat="45.11325" lon="2.63986">
        <ele>1519.8</ele>
        <time>2021-08-11T09:52:59Z</time>
      </trkpt>
      <trkpt lat="45.11325" lon="2.63985">
        <ele>1519.4</ele>
        <time>2021-08-11T09:53:00Z</time>
      </trkpt>
      <trkpt lat="45.11325" lon="2.63984">
        <ele>1519.1</ele>
        <time>2021-08-11T09:53:01Z</time>
      </trkpt>
      <trkpt lat="45.11324" lon="2.63983">
        <ele>1518.9</ele>
        <time>2021-08-11T09:53:02Z</time>
      </trkpt>
      <trkpt lat="45.11324" lon="2.63982">
        <ele>1518.8</ele>
        <time>2021-08-11T09:53:03Z</time>
      </trkpt>
      <trkpt lat="45.11323" lon="2.63981">
        <ele>1518.7</ele>
        <time>2021-08-11T09:53:04Z</time>
      </trkpt>
      <trkpt lat="45.11323" lon="2.6398">
        <ele>1518.6</ele>
        <time>2021-08-11T09:53:05Z</time>
      </trkpt>
      <trkpt lat="45.11322" lon="2.63979">
        <ele>1518.6</ele>
        <time>2021-08-11T09:53:06Z</time>
      </trkpt>
      <trkpt lat="45.11321" lon="2.63978">
        <ele>1518.6</ele>
        <time>2021-08-11T09:53:07Z</time>
      </trkpt>
      <trkpt lat="45.1132" lon="2.63977">
        <ele>1518.6</ele>
        <time>2021-08-11T09:53:08Z</time>
      </trkpt>
      <trkpt lat="45.11319" lon="2.63976">
        <ele>1518.6</ele>
        <time>2021-08-11T09:53:09Z</time>
      </trkpt>
      <trkpt lat="45.11319" lon="2.63975">
        <ele>1518.6</ele>
        <time>2021-08-11T09:53:10Z</time>
      </trkpt>
      <trkpt lat="45.11318" lon="2.63974">
        <ele>1518.6</ele>
        <time>2021-08-11T09:53:11Z</time>
      </trkpt>
      <trkpt lat="45.11317" lon="2.63974">
        <ele>1518.6</ele>
        <time>2021-08-11T09:53:12Z</time>
      </trkpt>
      <trkpt lat="45.11317" lon="2.63973">
        <ele>1518.6</ele>
        <time>2021-08-11T09:53:13Z</time>
      </trkpt>
      <trkpt lat="45.11316" lon="2.63972">
        <ele>1518.6</ele>
        <time>2021-08-11T09:53:14Z</time>
      </trkpt>
      <trkpt lat="45.11315" lon="2.63972">
        <ele>1518.8</ele>
        <time>2021-08-11T09:53:15Z</time>
      </trkpt>
      <trkpt lat="45.11315" lon="2.63971">
        <ele>1518.8</ele>
        <time>2021-08-11T09:53:16Z</time>
      </trkpt>
      <trkpt lat="45.11314" lon="2.6397">
        <ele>1518.6</ele>
        <time>2021-08-11T09:53:17Z</time>
      </trkpt>
      <trkpt lat="45.11314" lon="2.63969">
        <ele>1518.3</ele>
        <time>2021-08-11T09:53:18Z</time>
      </trkpt>
      <trkpt lat="45.11314" lon="2.63968">
        <ele>1518.1</ele>
        <time>2021-08-11T09:53:19Z</time>
      </trkpt>
      <trkpt lat="45.11314" lon="2.63967">
        <ele>1517.8</ele>
        <time>2021-08-11T09:53:20Z</time>
      </trkpt>
      <trkpt lat="45.11313" lon="2.63966">
        <ele>1517.4</ele>
        <time>2021-08-11T09:53:21Z</time>
      </trkpt>
      <trkpt lat="45.11313" lon="2.63965">
        <ele>1517.4</ele>
        <time>2021-08-11T09:53:22Z</time>
      </trkpt>
      <trkpt lat="45.11312" lon="2.63964">
        <ele>1517.4</ele>
        <time>2021-08-11T09:53:23Z</time>
      </trkpt>
      <trkpt lat="45.11312" lon="2.63964">
        <ele>1517.5</ele>
        <time>2021-08-11T09:53:24Z</time>
      </trkpt>
      <trkpt lat="45.11311" lon="2.63964">
        <ele>1517.6</ele>
        <time>2021-08-11T09:53:25Z</time>
      </trkpt>
      <trkpt lat="45.11311" lon="2.63963">
        <ele>1517.6</ele>
        <time>2021-08-11T09:53:26Z</time>
      </trkpt>
      <trkpt lat="45.11311" lon="2.63963">
        <ele>1517.7</ele>
        <time>2021-08-11T09:53:27Z</time>
      </trkpt>
      <trkpt lat="45.1131" lon="2.63963">
        <ele>1517.7</ele>
        <time>2021-08-11T09:53:28Z</time>
      </trkpt>
      <trkpt lat="45.1131" lon="2.63963">
        <ele>1517.7</ele>
        <time>2021-08-11T09:53:29Z</time>
      </trkpt>
      <trkpt lat="45.11309" lon="2.63962">
        <ele>1517.8</ele>
        <time>2021-08-11T09:53:30Z</time>
      </trkpt>
      <trkpt lat="45.11309" lon="2.63962">
        <ele>1517.9</ele>
        <time>2021-08-11T09:53:31Z</time>
      </trkpt>
      <trkpt lat="45.11308" lon="2.63962">
        <ele>1518.1</ele>
        <time>2021-08-11T09:53:32Z</time>
      </trkpt>
      <trkpt lat="45.11308" lon="2.63962">
        <ele>1518.3</ele>
        <time>2021-08-11T09:53:33Z</time>
      </trkpt>
      <trkpt lat="45.11307" lon="2.63962">
        <ele>1518.6</ele>
        <time>2021-08-11T09:53:34Z</time>
      </trkpt>
      <trkpt lat="45.11307" lon="2.63963">
        <ele>1518.9</ele>
        <time>2021-08-11T09:53:35Z</time>
      </trkpt>
      <trkpt lat="45.11306" lon="2.63963">
        <ele>1519.2</ele>
        <time>2021-08-11T09:53:36Z</time>
      </trkpt>
      <trkpt lat="45.11306" lon="2.63963">
        <ele>1519.4</ele>
        <time>2021-08-11T09:53:37Z</time>
      </trkpt>
      <trkpt lat="45.11305" lon="2.63962">
        <ele>1519.5</ele>
        <time>2021-08-11T09:53:38Z</time>
      </trkpt>
      <trkpt lat="45.11304" lon="2.63962">
        <ele>1519.6</ele>
        <time>2021-08-11T09:53:39Z</time>
      </trkpt>
      <trkpt lat="45.11304" lon="2.63962">
        <ele>1519.7</ele>
        <time>2021-08-11T09:53:40Z</time>
      </trkpt>
      <trkpt lat="45.11303" lon="2.63961">
        <ele>1519.8</ele>
        <time>2021-08-11T09:53:41Z</time>
      </trkpt>
      <trkpt lat="45.11302" lon="2.63961">
        <ele>1520</ele>
        <time>2021-08-11T09:53:42Z</time>
      </trkpt>
      <trkpt lat="45.11302" lon="2.6396">
        <ele>1520</ele>
        <time>2021-08-11T09:53:43Z</time>
      </trkpt>
      <trkpt lat="45.11301" lon="2.6396">
        <ele>1520</ele>
        <time>2021-08-11T09:53:44Z</time>
      </trkpt>
      <trkpt lat="45.11301" lon="2.63959">
        <ele>1519.6</ele>
        <time>2021-08-11T09:53:45Z</time>
      </trkpt>
      <trkpt lat="45.11301" lon="2.63957">
        <ele>1519.2</ele>
        <time>2021-08-11T09:53:46Z</time>
      </trkpt>
      <trkpt lat="45.113" lon="2.63956">
        <ele>1519.1</ele>
        <time>2021-08-11T09:53:47Z</time>
      </trkpt>
      <trkpt lat="45.113" lon="2.63955">
        <ele>1518.9</ele>
        <time>2021-08-11T09:53:48Z</time>
      </trkpt>
      <trkpt lat="45.11299" lon="2.63955">
        <ele>1518.9</ele>
        <time>2021-08-11T09:53:49Z</time>
      </trkpt>
      <trkpt lat="45.11298" lon="2.63954">
        <ele>1518.9</ele>
        <time>2021-08-11T09:53:50Z</time>
      </trkpt>
      <trkpt lat="45.11298" lon="2.63953">
        <ele>1519</ele>
        <time>2021-08-11T09:53:51Z</time>
      </trkpt>
      <trkpt lat="45.11297" lon="2.63953">
        <ele>1519.2</ele>
        <time>2021-08-11T09:53:52Z</time>
      </trkpt>
      <trkpt lat="45.11296" lon="2.63953">
        <ele>1519.4</ele>
        <time>2021-08-11T09:53:53Z</time>
      </trkpt>
      <trkpt lat="45.11295" lon="2.63953">
        <ele>1519.7</ele>
        <time>2021-08-11T09:53:54Z</time>
      </trkpt>
      <trkpt lat="45.11294" lon="2.63952">
        <ele>1519.8</ele>
        <time>2021-08-11T09:53:55Z</time>
      </trkpt>
      <trkpt lat="45.11294" lon="2.63952">
        <ele>1519.9</ele>
        <time>2021-08-11T09:53:56Z</time>
      </trkpt>
      <trkpt lat="45.11293" lon="2.63951">
        <ele>1519.8</ele>
        <time>2021-08-11T09:53:57Z</time>
      </trkpt>
      <trkpt lat="45.11293" lon="2.63951">
        <ele>1519.9</ele>
        <time>2021-08-11T09:53:58Z</time>
      </trkpt>
      <trkpt lat="45.11292" lon="2.6395">
        <ele>1519.8</ele>
        <time>2021-08-11T09:53:59Z</time>
      </trkpt>
      <trkpt lat="45.11292" lon="2.63949">
        <ele>1519.7</ele>
        <time>2021-08-11T09:54:00Z</time>
      </trkpt>
      <trkpt lat="45.11291" lon="2.63948">
        <ele>1519.5</ele>
        <time>2021-08-11T09:54:01Z</time>
      </trkpt>
      <trkpt lat="45.11291" lon="2.63947">
        <ele>1519.2</ele>
        <time>2021-08-11T09:54:02Z</time>
      </trkpt>
      <trkpt lat="45.1129" lon="2.63946">
        <ele>1519</ele>
        <time>2021-08-11T09:54:03Z</time>
      </trkpt>
      <trkpt lat="45.1129" lon="2.63944">
        <ele>1518.7</ele>
        <time>2021-08-11T09:54:04Z</time>
      </trkpt>
      <trkpt lat="45.11289" lon="2.63943">
        <ele>1518.6</ele>
        <time>2021-08-11T09:54:05Z</time>
      </trkpt>
      <trkpt lat="45.11288" lon="2.63942">
        <ele>1518.4</ele>
        <time>2021-08-11T09:54:06Z</time>
      </trkpt>
      <trkpt lat="45.11288" lon="2.63941">
        <ele>1518.1</ele>
        <time>2021-08-11T09:54:07Z</time>
      </trkpt>
      <trkpt lat="45.11287" lon="2.6394">
        <ele>1518.1</ele>
        <time>2021-08-11T09:54:08Z</time>
      </trkpt>
      <trkpt lat="45.11287" lon="2.63939">
        <ele>1517.9</ele>
        <time>2021-08-11T09:54:09Z</time>
      </trkpt>
      <trkpt lat="45.11286" lon="2.63939">
        <ele>1517.8</ele>
        <time>2021-08-11T09:54:10Z</time>
      </trkpt>
      <trkpt lat="45.11286" lon="2.63938">
        <ele>1517.7</ele>
        <time>2021-08-11T09:54:11Z</time>
      </trkpt>
      <trkpt lat="45.11285" lon="2.63937">
        <ele>1517.7</ele>
        <time>2021-08-11T09:54:12Z</time>
      </trkpt>
      <trkpt lat="45.11284" lon="2.63936">
        <ele>1517.5</ele>
        <time>2021-08-11T09:54:13Z</time>
      </trkpt>
      <trkpt lat="45.11284" lon="2.63935">
        <ele>1517.4</ele>
        <time>2021-08-11T09:54:14Z</time>
      </trkpt>
      <trkpt lat="45.11284" lon="2.63934">
        <ele>1517.2</ele>
        <time>2021-08-11T09:54:15Z</time>
      </trkpt>
      <trkpt lat="45.11284" lon="2.63933">
        <ele>1516.8</ele>
        <time>2021-08-11T09:54:16Z</time>
      </trkpt>
      <trkpt lat="45.11283" lon="2.63932">
        <ele>1516.5</ele>
        <time>2021-08-11T09:54:17Z</time>
      </trkpt>
      <trkpt lat="45.11283" lon="2.63931">
        <ele>1516.3</ele>
        <time>2021-08-11T09:54:18Z</time>
      </trkpt>
      <trkpt lat="45.11282" lon="2.6393">
        <ele>1516.1</ele>
        <time>2021-08-11T09:54:19Z</time>
      </trkpt>
      <trkpt lat="45.11282" lon="2.63929">
        <ele>1515.9</ele>
        <time>2021-08-11T09:54:20Z</time>
      </trkpt>
      <trkpt lat="45.11281" lon="2.63928">
        <ele>1515.8</ele>
        <time>2021-08-11T09:54:21Z</time>
      </trkpt>
      <trkpt lat="45.11281" lon="2.63928">
        <ele>1515.8</ele>
        <time>2021-08-11T09:54:22Z</time>
      </trkpt>
      <trkpt lat="45.1128" lon="2.63927">
        <ele>1515.8</ele>
        <time>2021-08-11T09:54:23Z</time>
      </trkpt>
      <trkpt lat="45.11279" lon="2.63927">
        <ele>1515.9</ele>
        <time>2021-08-11T09:54:24Z</time>
      </trkpt>
      <trkpt lat="45.11279" lon="2.63926">
        <ele>1516</ele>
        <time>2021-08-11T09:54:25Z</time>
      </trkpt>
      <trkpt lat="45.11278" lon="2.63926">
        <ele>1516.1</ele>
        <time>2021-08-11T09:54:26Z</time>
      </trkpt>
      <trkpt lat="45.11277" lon="2.63926">
        <ele>1516.2</ele>
        <time>2021-08-11T09:54:27Z</time>
      </trkpt>
      <trkpt lat="45.11276" lon="2.63925">
        <ele>1516.3</ele>
        <time>2021-08-11T09:54:28Z</time>
      </trkpt>
      <trkpt lat="45.11276" lon="2.63925">
        <ele>1516.4</ele>
        <time>2021-08-11T09:54:29Z</time>
      </trkpt>
      <trkpt lat="45.11275" lon="2.63924">
        <ele>1516.4</ele>
        <time>2021-08-11T09:54:30Z</time>
      </trkpt>
      <trkpt lat="45.11274" lon="2.63923">
        <ele>1516.4</ele>
        <time>2021-08-11T09:54:31Z</time>
      </trkpt>
      <trkpt lat="45.11273" lon="2.63923">
        <ele>1516.4</ele>
        <time>2021-08-11T09:54:32Z</time>
      </trkpt>
      <trkpt lat="45.11273" lon="2.63922">
        <ele>1516.4</ele>
        <time>2021-08-11T09:54:33Z</time>
      </trkpt>
      <trkpt lat="45.11272" lon="2.63921">
        <ele>1516.4</ele>
        <time>2021-08-11T09:54:34Z</time>
      </trkpt>
      <trkpt lat="45.11271" lon="2.63921">
        <ele>1516.5</ele>
        <time>2021-08-11T09:54:35Z</time>
      </trkpt>
      <trkpt lat="45.1127" lon="2.6392">
        <ele>1516.4</ele>
        <time>2021-08-11T09:54:36Z</time>
      </trkpt>
      <trkpt lat="45.1127" lon="2.63919">
        <ele>1516.2</ele>
        <time>2021-08-11T09:54:37Z</time>
      </trkpt>
      <trkpt lat="45.11269" lon="2.63917">
        <ele>1515.9</ele>
        <time>2021-08-11T09:54:38Z</time>
      </trkpt>
      <trkpt lat="45.11269" lon="2.63916">
        <ele>1515.5</ele>
        <time>2021-08-11T09:54:39Z</time>
      </trkpt>
      <trkpt lat="45.11268" lon="2.63915">
        <ele>1515.4</ele>
        <time>2021-08-11T09:54:40Z</time>
      </trkpt>
      <trkpt lat="45.11268" lon="2.63915">
        <ele>1515.5</ele>
        <time>2021-08-11T09:54:41Z</time>
      </trkpt>
      <trkpt lat="45.11267" lon="2.63914">
        <ele>1515.5</ele>
        <time>2021-08-11T09:54:42Z</time>
      </trkpt>
      <trkpt lat="45.11267" lon="2.63913">
        <ele>1515.4</ele>
        <time>2021-08-11T09:54:43Z</time>
      </trkpt>
      <trkpt lat="45.11266" lon="2.63912">
        <ele>1515.2</ele>
        <time>2021-08-11T09:54:44Z</time>
      </trkpt>
      <trkpt lat="45.11265" lon="2.6391">
        <ele>1515.1</ele>
        <time>2021-08-11T09:54:45Z</time>
      </trkpt>
      <trkpt lat="45.11265" lon="2.6391">
        <ele>1515.1</ele>
        <time>2021-08-11T09:54:46Z</time>
      </trkpt>
      <trkpt lat="45.11264" lon="2.63909">
        <ele>1514.9</ele>
        <time>2021-08-11T09:54:47Z</time>
      </trkpt>
      <trkpt lat="45.11264" lon="2.63908">
        <ele>1515</ele>
        <time>2021-08-11T09:54:48Z</time>
      </trkpt>
      <trkpt lat="45.11263" lon="2.63907">
        <ele>1514.9</ele>
        <time>2021-08-11T09:54:49Z</time>
      </trkpt>
      <trkpt lat="45.11263" lon="2.63906">
        <ele>1514.9</ele>
        <time>2021-08-11T09:54:50Z</time>
      </trkpt>
      <trkpt lat="45.11262" lon="2.63905">
        <ele>1515</ele>
        <time>2021-08-11T09:54:51Z</time>
      </trkpt>
      <trkpt lat="45.11261" lon="2.63905">
        <ele>1515</ele>
        <time>2021-08-11T09:54:52Z</time>
      </trkpt>
      <trkpt lat="45.11261" lon="2.63904">
        <ele>1515</ele>
        <time>2021-08-11T09:54:53Z</time>
      </trkpt>
      <trkpt lat="45.1126" lon="2.63904">
        <ele>1515.1</ele>
        <time>2021-08-11T09:54:54Z</time>
      </trkpt>
      <trkpt lat="45.1126" lon="2.63904">
        <ele>1515.2</ele>
        <time>2021-08-11T09:54:55Z</time>
      </trkpt>
      <trkpt lat="45.11259" lon="2.63903">
        <ele>1515.3</ele>
        <time>2021-08-11T09:54:56Z</time>
      </trkpt>
      <trkpt lat="45.11258" lon="2.63903">
        <ele>1515.4</ele>
        <time>2021-08-11T09:54:57Z</time>
      </trkpt>
      <trkpt lat="45.11257" lon="2.63902">
        <ele>1515.6</ele>
        <time>2021-08-11T09:54:58Z</time>
      </trkpt>
      <trkpt lat="45.11257" lon="2.63902">
        <ele>1515.6</ele>
        <time>2021-08-11T09:54:59Z</time>
      </trkpt>
      <trkpt lat="45.11256" lon="2.63901">
        <ele>1515.7</ele>
        <time>2021-08-11T09:55:00Z</time>
      </trkpt>
      <trkpt lat="45.11255" lon="2.639">
        <ele>1515.7</ele>
        <time>2021-08-11T09:55:01Z</time>
      </trkpt>
      <trkpt lat="45.11255" lon="2.63899">
        <ele>1515.7</ele>
        <time>2021-08-11T09:55:02Z</time>
      </trkpt>
      <trkpt lat="45.11254" lon="2.63899">
        <ele>1515.5</ele>
        <time>2021-08-11T09:55:03Z</time>
      </trkpt>
      <trkpt lat="45.11254" lon="2.63897">
        <ele>1515.4</ele>
        <time>2021-08-11T09:55:04Z</time>
      </trkpt>
      <trkpt lat="45.11253" lon="2.63897">
        <ele>1515.4</ele>
        <time>2021-08-11T09:55:05Z</time>
      </trkpt>
      <trkpt lat="45.11253" lon="2.63896">
        <ele>1515.4</ele>
        <time>2021-08-11T09:55:06Z</time>
      </trkpt>
      <trkpt lat="45.11252" lon="2.63895">
        <ele>1515.4</ele>
        <time>2021-08-11T09:55:07Z</time>
      </trkpt>
      <trkpt lat="45.11251" lon="2.63895">
        <ele>1515.5</ele>
        <time>2021-08-11T09:55:08Z</time>
      </trkpt>
      <trkpt lat="45.1125" lon="2.63894">
        <ele>1515.6</ele>
        <time>2021-08-11T09:55:09Z</time>
      </trkpt>
      <trkpt lat="45.1125" lon="2.63893">
        <ele>1515.6</ele>
        <time>2021-08-11T09:55:10Z</time>
      </trkpt>
      <trkpt lat="45.11249" lon="2.63893">
        <ele>1515.6</ele>
        <time>2021-08-11T09:55:11Z</time>
      </trkpt>
      <trkpt lat="45.11249" lon="2.63892">
        <ele>1515.7</ele>
        <time>2021-08-11T09:55:12Z</time>
      </trkpt>
      <trkpt lat="45.11248" lon="2.63892">
        <ele>1515.8</ele>
        <time>2021-08-11T09:55:13Z</time>
      </trkpt>
      <trkpt lat="45.11247" lon="2.63892">
        <ele>1516</ele>
        <time>2021-08-11T09:55:14Z</time>
      </trkpt>
      <trkpt lat="45.11246" lon="2.63892">
        <ele>1516.1</ele>
        <time>2021-08-11T09:55:15Z</time>
      </trkpt>
      <trkpt lat="45.11246" lon="2.63891">
        <ele>1516.2</ele>
        <time>2021-08-11T09:55:16Z</time>
      </trkpt>
      <trkpt lat="45.11245" lon="2.6389">
        <ele>1516.2</ele>
        <time>2021-08-11T09:55:17Z</time>
      </trkpt>
      <trkpt lat="45.11244" lon="2.6389">
        <ele>1516.2</ele>
        <time>2021-08-11T09:55:18Z</time>
      </trkpt>
      <trkpt lat="45.11244" lon="2.63889">
        <ele>1516.2</ele>
        <time>2021-08-11T09:55:19Z</time>
      </trkpt>
      <trkpt lat="45.11243" lon="2.63889">
        <ele>1516.2</ele>
        <time>2021-08-11T09:55:20Z</time>
      </trkpt>
      <trkpt lat="45.11242" lon="2.63888">
        <ele>1516.3</ele>
        <time>2021-08-11T09:55:21Z</time>
      </trkpt>
      <trkpt lat="45.11242" lon="2.63888">
        <ele>1516.4</ele>
        <time>2021-08-11T09:55:22Z</time>
      </trkpt>
      <trkpt lat="45.11241" lon="2.63887">
        <ele>1516.5</ele>
        <time>2021-08-11T09:55:23Z</time>
      </trkpt>
      <trkpt lat="45.1124" lon="2.63887">
        <ele>1516.7</ele>
        <time>2021-08-11T09:55:24Z</time>
      </trkpt>
      <trkpt lat="45.11239" lon="2.63887">
        <ele>1516.8</ele>
        <time>2021-08-11T09:55:25Z</time>
      </trkpt>
      <trkpt lat="45.11239" lon="2.63887">
        <ele>1516.9</ele>
        <time>2021-08-11T09:55:26Z</time>
      </trkpt>
      <trkpt lat="45.11238" lon="2.63886">
        <ele>1517</ele>
        <time>2021-08-11T09:55:27Z</time>
      </trkpt>
      <trkpt lat="45.11237" lon="2.63886">
        <ele>1517.1</ele>
        <time>2021-08-11T09:55:28Z</time>
      </trkpt>
      <trkpt lat="45.11237" lon="2.63886">
        <ele>1517.2</ele>
        <time>2021-08-11T09:55:29Z</time>
      </trkpt>
      <trkpt lat="45.11236" lon="2.63885">
        <ele>1517.3</ele>
        <time>2021-08-11T09:55:30Z</time>
      </trkpt>
      <trkpt lat="45.11236" lon="2.63885">
        <ele>1517.4</ele>
        <time>2021-08-11T09:55:31Z</time>
      </trkpt>
      <trkpt lat="45.11235" lon="2.63886">
        <ele>1517.6</ele>
        <time>2021-08-11T09:55:32Z</time>
      </trkpt>
      <trkpt lat="45.11235" lon="2.63886">
        <ele>1517.8</ele>
        <time>2021-08-11T09:55:33Z</time>
      </trkpt>
      <trkpt lat="45.11234" lon="2.63886">
        <ele>1518</ele>
        <time>2021-08-11T09:55:34Z</time>
      </trkpt>
      <trkpt lat="45.11233" lon="2.63885">
        <ele>1518.2</ele>
        <time>2021-08-11T09:55:35Z</time>
      </trkpt>
      <trkpt lat="45.11233" lon="2.63885">
        <ele>1518.3</ele>
        <time>2021-08-11T09:55:36Z</time>
      </trkpt>
      <trkpt lat="45.11232" lon="2.63886">
        <ele>1518.5</ele>
        <time>2021-08-11T09:55:37Z</time>
      </trkpt>
      <trkpt lat="45.11232" lon="2.63886">
        <ele>1518.7</ele>
        <time>2021-08-11T09:55:38Z</time>
      </trkpt>
      <trkpt lat="45.11231" lon="2.63885">
        <ele>1518.7</ele>
        <time>2021-08-11T09:55:39Z</time>
      </trkpt>
      <trkpt lat="45.11231" lon="2.63884">
        <ele>1518.6</ele>
        <time>2021-08-11T09:55:40Z</time>
      </trkpt>
      <trkpt lat="45.1123" lon="2.63884">
        <ele>1518.5</ele>
        <time>2021-08-11T09:55:41Z</time>
      </trkpt>
      <trkpt lat="45.1123" lon="2.63883">
        <ele>1518.4</ele>
        <time>2021-08-11T09:55:42Z</time>
      </trkpt>
      <trkpt lat="45.11229" lon="2.63882">
        <ele>1518.4</ele>
        <time>2021-08-11T09:55:43Z</time>
      </trkpt>
      <trkpt lat="45.11228" lon="2.63881">
        <ele>1518.4</ele>
        <time>2021-08-11T09:55:44Z</time>
      </trkpt>
      <trkpt lat="45.11228" lon="2.63881">
        <ele>1518.5</ele>
        <time>2021-08-11T09:55:45Z</time>
      </trkpt>
      <trkpt lat="45.11227" lon="2.6388">
        <ele>1518.6</ele>
        <time>2021-08-11T09:55:46Z</time>
      </trkpt>
      <trkpt lat="45.11226" lon="2.6388">
        <ele>1518.7</ele>
        <time>2021-08-11T09:55:47Z</time>
      </trkpt>
      <trkpt lat="45.11225" lon="2.63879">
        <ele>1518.8</ele>
        <time>2021-08-11T09:55:48Z</time>
      </trkpt>
      <trkpt lat="45.11224" lon="2.63879">
        <ele>1519</ele>
        <time>2021-08-11T09:55:49Z</time>
      </trkpt>
      <trkpt lat="45.11223" lon="2.63878">
        <ele>1519.2</ele>
        <time>2021-08-11T09:55:50Z</time>
      </trkpt>
      <trkpt lat="45.11221" lon="2.63878">
        <ele>1519.4</ele>
        <time>2021-08-11T09:55:51Z</time>
      </trkpt>
      <trkpt lat="45.1122" lon="2.63877">
        <ele>1519.5</ele>
        <time>2021-08-11T09:55:52Z</time>
      </trkpt>
      <trkpt lat="45.1122" lon="2.63877">
        <ele>1519.7</ele>
        <time>2021-08-11T09:55:53Z</time>
      </trkpt>
      <trkpt lat="45.11219" lon="2.63876">
        <ele>1519.7</ele>
        <time>2021-08-11T09:55:54Z</time>
      </trkpt>
      <trkpt lat="45.11218" lon="2.63876">
        <ele>1519.8</ele>
        <time>2021-08-11T09:55:55Z</time>
      </trkpt>
      <trkpt lat="45.11217" lon="2.63876">
        <ele>1520</ele>
        <time>2021-08-11T09:55:56Z</time>
      </trkpt>
      <trkpt lat="45.11217" lon="2.63876">
        <ele>1520.1</ele>
        <time>2021-08-11T09:55:57Z</time>
      </trkpt>
      <trkpt lat="45.11216" lon="2.63875">
        <ele>1520.3</ele>
        <time>2021-08-11T09:55:58Z</time>
      </trkpt>
      <trkpt lat="45.11215" lon="2.63875">
        <ele>1520.4</ele>
        <time>2021-08-11T09:55:59Z</time>
      </trkpt>
      <trkpt lat="45.11214" lon="2.63875">
        <ele>1520.5</ele>
        <time>2021-08-11T09:56:00Z</time>
      </trkpt>
      <trkpt lat="45.11214" lon="2.63874">
        <ele>1520.5</ele>
        <time>2021-08-11T09:56:01Z</time>
      </trkpt>
      <trkpt lat="45.11213" lon="2.63874">
        <ele>1520.5</ele>
        <time>2021-08-11T09:56:02Z</time>
      </trkpt>
      <trkpt lat="45.11212" lon="2.63873">
        <ele>1520.5</ele>
        <time>2021-08-11T09:56:03Z</time>
      </trkpt>
      <trkpt lat="45.11212" lon="2.63872">
        <ele>1520.5</ele>
        <time>2021-08-11T09:56:04Z</time>
      </trkpt>
      <trkpt lat="45.11211" lon="2.63872">
        <ele>1520.5</ele>
        <time>2021-08-11T09:56:05Z</time>
      </trkpt>
      <trkpt lat="45.1121" lon="2.63871">
        <ele>1520.6</ele>
        <time>2021-08-11T09:56:06Z</time>
      </trkpt>
      <trkpt lat="45.11209" lon="2.6387">
        <ele>1520.6</ele>
        <time>2021-08-11T09:56:07Z</time>
      </trkpt>
      <trkpt lat="45.11209" lon="2.6387">
        <ele>1520.6</ele>
        <time>2021-08-11T09:56:08Z</time>
      </trkpt>
      <trkpt lat="45.11208" lon="2.63869">
        <ele>1520.6</ele>
        <time>2021-08-11T09:56:09Z</time>
      </trkpt>
      <trkpt lat="45.11208" lon="2.63869">
        <ele>1520.6</ele>
        <time>2021-08-11T09:56:10Z</time>
      </trkpt>
      <trkpt lat="45.11207" lon="2.63868">
        <ele>1520.6</ele>
        <time>2021-08-11T09:56:11Z</time>
      </trkpt>
      <trkpt lat="45.11206" lon="2.63867">
        <ele>1520.5</ele>
        <time>2021-08-11T09:56:12Z</time>
      </trkpt>
      <trkpt lat="45.11206" lon="2.63866">
        <ele>1520.4</ele>
        <time>2021-08-11T09:56:13Z</time>
      </trkpt>
      <trkpt lat="45.11205" lon="2.63866">
        <ele>1520.4</ele>
        <time>2021-08-11T09:56:14Z</time>
      </trkpt>
      <trkpt lat="45.11205" lon="2.63865">
        <ele>1520.3</ele>
        <time>2021-08-11T09:56:15Z</time>
      </trkpt>
      <trkpt lat="45.11204" lon="2.63864">
        <ele>1520.3</ele>
        <time>2021-08-11T09:56:16Z</time>
      </trkpt>
      <trkpt lat="45.11203" lon="2.63863">
        <ele>1520.2</ele>
        <time>2021-08-11T09:56:17Z</time>
      </trkpt>
      <trkpt lat="45.11203" lon="2.63863">
        <ele>1520.2</ele>
        <time>2021-08-11T09:56:18Z</time>
      </trkpt>
      <trkpt lat="45.11202" lon="2.63862">
        <ele>1520.3</ele>
        <time>2021-08-11T09:56:19Z</time>
      </trkpt>
      <trkpt lat="45.11201" lon="2.63862">
        <ele>1520.3</ele>
        <time>2021-08-11T09:56:20Z</time>
      </trkpt>
      <trkpt lat="45.11201" lon="2.63861">
        <ele>1520.3</ele>
        <time>2021-08-11T09:56:21Z</time>
      </trkpt>
      <trkpt lat="45.11201" lon="2.63861">
        <ele>1520.2</ele>
        <time>2021-08-11T09:56:22Z</time>
      </trkpt>
      <trkpt lat="45.112" lon="2.63861">
        <ele>1520.2</ele>
        <time>2021-08-11T09:56:23Z</time>
      </trkpt>
      <trkpt lat="45.112" lon="2.63861">
        <ele>1520.2</ele>
        <time>2021-08-11T09:56:24Z</time>
      </trkpt>
      <trkpt lat="45.112" lon="2.63861">
        <ele>1520.3</ele>
        <time>2021-08-11T09:56:25Z</time>
      </trkpt>
      <trkpt lat="45.112" lon="2.63861">
        <ele>1520.3</ele>
        <time>2021-08-11T09:56:26Z</time>
      </trkpt>
      <trkpt lat="45.112" lon="2.63861">
        <ele>1520.3</ele>
        <time>2021-08-11T09:56:27Z</time>
      </trkpt>
      <trkpt lat="45.112" lon="2.63861">
        <ele>1520.3</ele>
        <time>2021-08-11T09:56:28Z</time>
      </trkpt>
      <trkpt lat="45.112" lon="2.63861">
        <ele>1520.3</ele>
        <time>2021-08-11T09:56:29Z</time>
      </trkpt>
      <trkpt lat="45.112" lon="2.63861">
        <ele>1520.3</ele>
        <time>2021-08-11T09:56:30Z</time>
      </trkpt>
      <trkpt lat="45.112" lon="2.6386">
        <ele>1520.2</ele>
        <time>2021-08-11T09:56:31Z</time>
      </trkpt>
      <trkpt lat="45.112" lon="2.6386">
        <ele>1520.2</ele>
        <time>2021-08-11T09:56:32Z</time>
      </trkpt>
      <trkpt lat="45.11199" lon="2.63859">
        <ele>1520.3</ele>
        <time>2021-08-11T09:56:33Z</time>
      </trkpt>
      <trkpt lat="45.11198" lon="2.63859">
        <ele>1520.4</ele>
        <time>2021-08-11T09:56:34Z</time>
      </trkpt>
      <trkpt lat="45.11197" lon="2.63859">
        <ele>1520.4</ele>
        <time>2021-08-11T09:56:35Z</time>
      </trkpt>
      <trkpt lat="45.11196" lon="2.63858">
        <ele>1520.6</ele>
        <time>2021-08-11T09:56:36Z</time>
      </trkpt>
      <trkpt lat="45.11196" lon="2.63858">
        <ele>1520.7</ele>
        <time>2021-08-11T09:56:37Z</time>
      </trkpt>
      <trkpt lat="45.11195" lon="2.63857">
        <ele>1520.8</ele>
        <time>2021-08-11T09:56:38Z</time>
      </trkpt>
      <trkpt lat="45.11194" lon="2.63857">
        <ele>1521</ele>
        <time>2021-08-11T09:56:39Z</time>
      </trkpt>
      <trkpt lat="45.11193" lon="2.63857">
        <ele>1521.2</ele>
        <time>2021-08-11T09:56:40Z</time>
      </trkpt>
      <trkpt lat="45.11192" lon="2.63857">
        <ele>1521.5</ele>
        <time>2021-08-11T09:56:41Z</time>
      </trkpt>
      <trkpt lat="45.11191" lon="2.63857">
        <ele>1521.9</ele>
        <time>2021-08-11T09:56:42Z</time>
      </trkpt>
      <trkpt lat="45.1119" lon="2.63857">
        <ele>1522.2</ele>
        <time>2021-08-11T09:56:43Z</time>
      </trkpt>
      <trkpt lat="45.11189" lon="2.63857">
        <ele>1522.4</ele>
        <time>2021-08-11T09:56:44Z</time>
      </trkpt>
      <trkpt lat="45.11188" lon="2.63857">
        <ele>1522.6</ele>
        <time>2021-08-11T09:56:45Z</time>
      </trkpt>
      <trkpt lat="45.11187" lon="2.63857">
        <ele>1522.8</ele>
        <time>2021-08-11T09:56:46Z</time>
      </trkpt>
      <trkpt lat="45.11186" lon="2.63857">
        <ele>1523</ele>
        <time>2021-08-11T09:56:47Z</time>
      </trkpt>
      <trkpt lat="45.11185" lon="2.63857">
        <ele>1523.3</ele>
        <time>2021-08-11T09:56:48Z</time>
      </trkpt>
      <trkpt lat="45.11184" lon="2.63857">
        <ele>1523.5</ele>
        <time>2021-08-11T09:56:49Z</time>
      </trkpt>
      <trkpt lat="45.11183" lon="2.63857">
        <ele>1523.7</ele>
        <time>2021-08-11T09:56:50Z</time>
      </trkpt>
      <trkpt lat="45.11183" lon="2.63856">
        <ele>1523.8</ele>
        <time>2021-08-11T09:56:51Z</time>
      </trkpt>
      <trkpt lat="45.11182" lon="2.63856">
        <ele>1524.1</ele>
        <time>2021-08-11T09:56:52Z</time>
      </trkpt>
      <trkpt lat="45.11181" lon="2.63856">
        <ele>1524.2</ele>
        <time>2021-08-11T09:56:53Z</time>
      </trkpt>
      <trkpt lat="45.1118" lon="2.63856">
        <ele>1524.4</ele>
        <time>2021-08-11T09:56:54Z</time>
      </trkpt>
      <trkpt lat="45.11179" lon="2.63856">
        <ele>1524.6</ele>
        <time>2021-08-11T09:56:55Z</time>
      </trkpt>
      <trkpt lat="45.11178" lon="2.63856">
        <ele>1525</ele>
        <time>2021-08-11T09:56:56Z</time>
      </trkpt>
      <trkpt lat="45.11177" lon="2.63856">
        <ele>1525.3</ele>
        <time>2021-08-11T09:56:57Z</time>
      </trkpt>
      <trkpt lat="45.11176" lon="2.63856">
        <ele>1525.6</ele>
        <time>2021-08-11T09:56:58Z</time>
      </trkpt>
      <trkpt lat="45.11175" lon="2.63856">
        <ele>1525.9</ele>
        <time>2021-08-11T09:56:59Z</time>
      </trkpt>
      <trkpt lat="45.11174" lon="2.63856">
        <ele>1526.2</ele>
        <time>2021-08-11T09:57:00Z</time>
      </trkpt>
      <trkpt lat="45.11173" lon="2.63856">
        <ele>1526.3</ele>
        <time>2021-08-11T09:57:01Z</time>
      </trkpt>
      <trkpt lat="45.11172" lon="2.63855">
        <ele>1526.4</ele>
        <time>2021-08-11T09:57:02Z</time>
      </trkpt>
      <trkpt lat="45.11171" lon="2.63855">
        <ele>1526.5</ele>
        <time>2021-08-11T09:57:03Z</time>
      </trkpt>
      <trkpt lat="45.11171" lon="2.63854">
        <ele>1526.5</ele>
        <time>2021-08-11T09:57:04Z</time>
      </trkpt>
      <trkpt lat="45.1117" lon="2.63854">
        <ele>1526.5</ele>
        <time>2021-08-11T09:57:05Z</time>
      </trkpt>
      <trkpt lat="45.11169" lon="2.63853">
        <ele>1526.5</ele>
        <time>2021-08-11T09:57:06Z</time>
      </trkpt>
      <trkpt lat="45.11169" lon="2.63852">
        <ele>1526.4</ele>
        <time>2021-08-11T09:57:07Z</time>
      </trkpt>
      <trkpt lat="45.11168" lon="2.63851">
        <ele>1526.3</ele>
        <time>2021-08-11T09:57:08Z</time>
      </trkpt>
      <trkpt lat="45.11167" lon="2.63851">
        <ele>1526.3</ele>
        <time>2021-08-11T09:57:09Z</time>
      </trkpt>
      <trkpt lat="45.11166" lon="2.6385">
        <ele>1526.2</ele>
        <time>2021-08-11T09:57:10Z</time>
      </trkpt>
      <trkpt lat="45.11166" lon="2.63849">
        <ele>1526.3</ele>
        <time>2021-08-11T09:57:11Z</time>
      </trkpt>
      <trkpt lat="45.11165" lon="2.63848">
        <ele>1526.4</ele>
        <time>2021-08-11T09:57:12Z</time>
      </trkpt>
      <trkpt lat="45.11164" lon="2.63848">
        <ele>1526.5</ele>
        <time>2021-08-11T09:57:13Z</time>
      </trkpt>
      <trkpt lat="45.11163" lon="2.63847">
        <ele>1526.5</ele>
        <time>2021-08-11T09:57:14Z</time>
      </trkpt>
      <trkpt lat="45.11162" lon="2.63846">
        <ele>1526.6</ele>
        <time>2021-08-11T09:57:15Z</time>
      </trkpt>
      <trkpt lat="45.11161" lon="2.63846">
        <ele>1526.8</ele>
        <time>2021-08-11T09:57:16Z</time>
      </trkpt>
      <trkpt lat="45.1116" lon="2.63845">
        <ele>1526.8</ele>
        <time>2021-08-11T09:57:17Z</time>
      </trkpt>
      <trkpt lat="45.11159" lon="2.63844">
        <ele>1527</ele>
        <time>2021-08-11T09:57:18Z</time>
      </trkpt>
      <trkpt lat="45.11159" lon="2.63843">
        <ele>1527</ele>
        <time>2021-08-11T09:57:19Z</time>
      </trkpt>
      <trkpt lat="45.11158" lon="2.63843">
        <ele>1527.2</ele>
        <time>2021-08-11T09:57:20Z</time>
      </trkpt>
      <trkpt lat="45.11157" lon="2.63842">
        <ele>1527.3</ele>
        <time>2021-08-11T09:57:21Z</time>
      </trkpt>
      <trkpt lat="45.11156" lon="2.63841">
        <ele>1527.5</ele>
        <time>2021-08-11T09:57:22Z</time>
      </trkpt>
      <trkpt lat="45.11154" lon="2.63841">
        <ele>1527.8</ele>
        <time>2021-08-11T09:57:23Z</time>
      </trkpt>
      <trkpt lat="45.11153" lon="2.63841">
        <ele>1528.1</ele>
        <time>2021-08-11T09:57:24Z</time>
      </trkpt>
      <trkpt lat="45.11152" lon="2.63841">
        <ele>1528.5</ele>
        <time>2021-08-11T09:57:25Z</time>
      </trkpt>
      <trkpt lat="45.11151" lon="2.63841">
        <ele>1528.8</ele>
        <time>2021-08-11T09:57:26Z</time>
      </trkpt>
      <trkpt lat="45.1115" lon="2.63841">
        <ele>1529.3</ele>
        <time>2021-08-11T09:57:27Z</time>
      </trkpt>
      <trkpt lat="45.11149" lon="2.6384">
        <ele>1529.5</ele>
        <time>2021-08-11T09:57:28Z</time>
      </trkpt>
      <trkpt lat="45.11148" lon="2.6384">
        <ele>1529.9</ele>
        <time>2021-08-11T09:57:29Z</time>
      </trkpt>
      <trkpt lat="45.11148" lon="2.6384">
        <ele>1530.1</ele>
        <time>2021-08-11T09:57:30Z</time>
      </trkpt>
      <trkpt lat="45.11147" lon="2.6384">
        <ele>1530.2</ele>
        <time>2021-08-11T09:57:31Z</time>
      </trkpt>
      <trkpt lat="45.11146" lon="2.6384">
        <ele>1530.4</ele>
        <time>2021-08-11T09:57:32Z</time>
      </trkpt>
      <trkpt lat="45.11146" lon="2.6384">
        <ele>1530.8</ele>
        <time>2021-08-11T09:57:33Z</time>
      </trkpt>
      <trkpt lat="45.11145" lon="2.6384">
        <ele>1531.1</ele>
        <time>2021-08-11T09:57:34Z</time>
      </trkpt>
      <trkpt lat="45.11144" lon="2.63841">
        <ele>1531.4</ele>
        <time>2021-08-11T09:57:35Z</time>
      </trkpt>
      <trkpt lat="45.11144" lon="2.63841">
        <ele>1531.7</ele>
        <time>2021-08-11T09:57:36Z</time>
      </trkpt>
      <trkpt lat="45.11143" lon="2.63842">
        <ele>1532</ele>
        <time>2021-08-11T09:57:37Z</time>
      </trkpt>
      <trkpt lat="45.11143" lon="2.63842">
        <ele>1532.4</ele>
        <time>2021-08-11T09:57:38Z</time>
      </trkpt>
      <trkpt lat="45.11142" lon="2.63842">
        <ele>1532.7</ele>
        <time>2021-08-11T09:57:39Z</time>
      </trkpt>
      <trkpt lat="45.11141" lon="2.63842">
        <ele>1532.8</ele>
        <time>2021-08-11T09:57:40Z</time>
      </trkpt>
      <trkpt lat="45.11141" lon="2.63842">
        <ele>1532.9</ele>
        <time>2021-08-11T09:57:41Z</time>
      </trkpt>
      <trkpt lat="45.1114" lon="2.63841">
        <ele>1533</ele>
        <time>2021-08-11T09:57:42Z</time>
      </trkpt>
      <trkpt lat="45.1114" lon="2.63841">
        <ele>1533.2</ele>
        <time>2021-08-11T09:57:43Z</time>
      </trkpt>
      <trkpt lat="45.11139" lon="2.63841">
        <ele>1533.4</ele>
        <time>2021-08-11T09:57:44Z</time>
      </trkpt>
      <trkpt lat="45.11138" lon="2.63841">
        <ele>1533.5</ele>
        <time>2021-08-11T09:57:45Z</time>
      </trkpt>
      <trkpt lat="45.11138" lon="2.6384">
        <ele>1533.6</ele>
        <time>2021-08-11T09:57:46Z</time>
      </trkpt>
      <trkpt lat="45.11138" lon="2.6384">
        <ele>1533.5</ele>
        <time>2021-08-11T09:57:47Z</time>
      </trkpt>
      <trkpt lat="45.11137" lon="2.6384">
        <ele>1533.7</ele>
        <time>2021-08-11T09:57:48Z</time>
      </trkpt>
      <trkpt lat="45.11137" lon="2.63839">
        <ele>1533.7</ele>
        <time>2021-08-11T09:57:49Z</time>
      </trkpt>
      <trkpt lat="45.11136" lon="2.63839">
        <ele>1534</ele>
        <time>2021-08-11T09:57:50Z</time>
      </trkpt>
      <trkpt lat="45.11136" lon="2.6384">
        <ele>1534.3</ele>
        <time>2021-08-11T09:57:51Z</time>
      </trkpt>
      <trkpt lat="45.11135" lon="2.6384">
        <ele>1534.4</ele>
        <time>2021-08-11T09:57:52Z</time>
      </trkpt>
      <trkpt lat="45.11135" lon="2.6384">
        <ele>1534.6</ele>
        <time>2021-08-11T09:57:53Z</time>
      </trkpt>
      <trkpt lat="45.11134" lon="2.6384">
        <ele>1534.8</ele>
        <time>2021-08-11T09:57:54Z</time>
      </trkpt>
      <trkpt lat="45.11134" lon="2.6384">
        <ele>1535</ele>
        <time>2021-08-11T09:57:55Z</time>
      </trkpt>
      <trkpt lat="45.11133" lon="2.6384">
        <ele>1535.2</ele>
        <time>2021-08-11T09:57:56Z</time>
      </trkpt>
      <trkpt lat="45.11133" lon="2.6384">
        <ele>1535.4</ele>
        <time>2021-08-11T09:57:57Z</time>
      </trkpt>
      <trkpt lat="45.11132" lon="2.63839">
        <ele>1535.3</ele>
        <time>2021-08-11T09:57:58Z</time>
      </trkpt>
      <trkpt lat="45.11132" lon="2.63839">
        <ele>1535.4</ele>
        <time>2021-08-11T09:57:59Z</time>
      </trkpt>
      <trkpt lat="45.11131" lon="2.63839">
        <ele>1535.4</ele>
        <time>2021-08-11T09:58:00Z</time>
      </trkpt>
      <trkpt lat="45.11131" lon="2.63838">
        <ele>1535.4</ele>
        <time>2021-08-11T09:58:01Z</time>
      </trkpt>
      <trkpt lat="45.11131" lon="2.63837">
        <ele>1535.1</ele>
        <time>2021-08-11T09:58:02Z</time>
      </trkpt>
      <trkpt lat="45.1113" lon="2.63836">
        <ele>1535</ele>
        <time>2021-08-11T09:58:03Z</time>
      </trkpt>
      <trkpt lat="45.1113" lon="2.63836">
        <ele>1535</ele>
        <time>2021-08-11T09:58:04Z</time>
      </trkpt>
      <trkpt lat="45.1113" lon="2.63835">
        <ele>1534.9</ele>
        <time>2021-08-11T09:58:05Z</time>
      </trkpt>
      <trkpt lat="45.11129" lon="2.63834">
        <ele>1534.7</ele>
        <time>2021-08-11T09:58:06Z</time>
      </trkpt>
      <trkpt lat="45.11129" lon="2.63833">
        <ele>1534.7</ele>
        <time>2021-08-11T09:58:07Z</time>
      </trkpt>
      <trkpt lat="45.11128" lon="2.63832">
        <ele>1534.7</ele>
        <time>2021-08-11T09:58:08Z</time>
      </trkpt>
      <trkpt lat="45.11128" lon="2.63832">
        <ele>1534.7</ele>
        <time>2021-08-11T09:58:09Z</time>
      </trkpt>
      <trkpt lat="45.11127" lon="2.63831">
        <ele>1534.9</ele>
        <time>2021-08-11T09:58:10Z</time>
      </trkpt>
      <trkpt lat="45.11127" lon="2.63831">
        <ele>1535</ele>
        <time>2021-08-11T09:58:11Z</time>
      </trkpt>
      <trkpt lat="45.11126" lon="2.6383">
        <ele>1535.1</ele>
        <time>2021-08-11T09:58:12Z</time>
      </trkpt>
      <trkpt lat="45.11125" lon="2.6383">
        <ele>1535.3</ele>
        <time>2021-08-11T09:58:13Z</time>
      </trkpt>
      <trkpt lat="45.11125" lon="2.6383">
        <ele>1535.5</ele>
        <time>2021-08-11T09:58:14Z</time>
      </trkpt>
      <trkpt lat="45.11124" lon="2.63829">
        <ele>1535.7</ele>
        <time>2021-08-11T09:58:15Z</time>
      </trkpt>
      <trkpt lat="45.11124" lon="2.63829">
        <ele>1535.8</ele>
        <time>2021-08-11T09:58:16Z</time>
      </trkpt>
      <trkpt lat="45.11123" lon="2.63828">
        <ele>1535.9</ele>
        <time>2021-08-11T09:58:17Z</time>
      </trkpt>
      <trkpt lat="45.11123" lon="2.63828">
        <ele>1536</ele>
        <time>2021-08-11T09:58:18Z</time>
      </trkpt>
      <trkpt lat="45.11122" lon="2.63827">
        <ele>1536.1</ele>
        <time>2021-08-11T09:58:19Z</time>
      </trkpt>
      <trkpt lat="45.11122" lon="2.63827">
        <ele>1536.3</ele>
        <time>2021-08-11T09:58:20Z</time>
      </trkpt>
      <trkpt lat="45.11121" lon="2.63827">
        <ele>1536.4</ele>
        <time>2021-08-11T09:58:21Z</time>
      </trkpt>
      <trkpt lat="45.11121" lon="2.63827">
        <ele>1536.5</ele>
        <time>2021-08-11T09:58:22Z</time>
      </trkpt>
      <trkpt lat="45.1112" lon="2.63826">
        <ele>1536.7</ele>
        <time>2021-08-11T09:58:23Z</time>
      </trkpt>
      <trkpt lat="45.1112" lon="2.63826">
        <ele>1536.8</ele>
        <time>2021-08-11T09:58:24Z</time>
      </trkpt>
      <trkpt lat="45.11119" lon="2.63826">
        <ele>1537</ele>
        <time>2021-08-11T09:58:25Z</time>
      </trkpt>
      <trkpt lat="45.11119" lon="2.63826">
        <ele>1537.1</ele>
        <time>2021-08-11T09:58:26Z</time>
      </trkpt>
      <trkpt lat="45.11118" lon="2.63825">
        <ele>1537.2</ele>
        <time>2021-08-11T09:58:27Z</time>
      </trkpt>
      <trkpt lat="45.11118" lon="2.63825">
        <ele>1537.4</ele>
        <time>2021-08-11T09:58:28Z</time>
      </trkpt>
      <trkpt lat="45.11117" lon="2.63825">
        <ele>1537.6</ele>
        <time>2021-08-11T09:58:29Z</time>
      </trkpt>
      <trkpt lat="45.11117" lon="2.63824">
        <ele>1537.7</ele>
        <time>2021-08-11T09:58:30Z</time>
      </trkpt>
      <trkpt lat="45.11116" lon="2.63824">
        <ele>1537.9</ele>
        <time>2021-08-11T09:58:31Z</time>
      </trkpt>
      <trkpt lat="45.11115" lon="2.63823">
        <ele>1538</ele>
        <time>2021-08-11T09:58:32Z</time>
      </trkpt>
      <trkpt lat="45.11115" lon="2.63823">
        <ele>1538.2</ele>
        <time>2021-08-11T09:58:33Z</time>
      </trkpt>
      <trkpt lat="45.11114" lon="2.63822">
        <ele>1538.3</ele>
        <time>2021-08-11T09:58:34Z</time>
      </trkpt>
      <trkpt lat="45.11114" lon="2.63822">
        <ele>1538.4</ele>
        <time>2021-08-11T09:58:35Z</time>
      </trkpt>
      <trkpt lat="45.11113" lon="2.63821">
        <ele>1538.6</ele>
        <time>2021-08-11T09:58:36Z</time>
      </trkpt>
      <trkpt lat="45.11113" lon="2.63821">
        <ele>1538.8</ele>
        <time>2021-08-11T09:58:37Z</time>
      </trkpt>
      <trkpt lat="45.11112" lon="2.63821">
        <ele>1538.9</ele>
        <time>2021-08-11T09:58:38Z</time>
      </trkpt>
      <trkpt lat="45.11111" lon="2.6382">
        <ele>1539.2</ele>
        <time>2021-08-11T09:58:39Z</time>
      </trkpt>
      <trkpt lat="45.11111" lon="2.6382">
        <ele>1539.3</ele>
        <time>2021-08-11T09:58:40Z</time>
      </trkpt>
      <trkpt lat="45.1111" lon="2.6382">
        <ele>1539.5</ele>
        <time>2021-08-11T09:58:41Z</time>
      </trkpt>
      <trkpt lat="45.1111" lon="2.63819">
        <ele>1539.7</ele>
        <time>2021-08-11T09:58:42Z</time>
      </trkpt>
      <trkpt lat="45.11109" lon="2.63819">
        <ele>1540</ele>
        <time>2021-08-11T09:58:43Z</time>
      </trkpt>
      <trkpt lat="45.11108" lon="2.63819">
        <ele>1540.2</ele>
        <time>2021-08-11T09:58:44Z</time>
      </trkpt>
      <trkpt lat="45.11108" lon="2.63819">
        <ele>1540.4</ele>
        <time>2021-08-11T09:58:45Z</time>
      </trkpt>
      <trkpt lat="45.11107" lon="2.63819">
        <ele>1540.6</ele>
        <time>2021-08-11T09:58:46Z</time>
      </trkpt>
      <trkpt lat="45.11106" lon="2.63819">
        <ele>1540.8</ele>
        <time>2021-08-11T09:58:47Z</time>
      </trkpt>
      <trkpt lat="45.11106" lon="2.63818">
        <ele>1541</ele>
        <time>2021-08-11T09:58:48Z</time>
      </trkpt>
      <trkpt lat="45.11105" lon="2.63818">
        <ele>1541.2</ele>
        <time>2021-08-11T09:58:49Z</time>
      </trkpt>
      <trkpt lat="45.11104" lon="2.63817">
        <ele>1541.5</ele>
        <time>2021-08-11T09:58:50Z</time>
      </trkpt>
      <trkpt lat="45.11104" lon="2.63817">
        <ele>1541.7</ele>
        <time>2021-08-11T09:58:51Z</time>
      </trkpt>
      <trkpt lat="45.11103" lon="2.63817">
        <ele>1541.9</ele>
        <time>2021-08-11T09:58:52Z</time>
      </trkpt>
      <trkpt lat="45.11102" lon="2.63817">
        <ele>1542.3</ele>
        <time>2021-08-11T09:58:53Z</time>
      </trkpt>
      <trkpt lat="45.11101" lon="2.63817">
        <ele>1542.6</ele>
        <time>2021-08-11T09:58:54Z</time>
      </trkpt>
      <trkpt lat="45.111" lon="2.63816">
        <ele>1543</ele>
        <time>2021-08-11T09:58:55Z</time>
      </trkpt>
      <trkpt lat="45.11099" lon="2.63816">
        <ele>1543.2</ele>
        <time>2021-08-11T09:58:56Z</time>
      </trkpt>
      <trkpt lat="45.11098" lon="2.63816">
        <ele>1543.5</ele>
        <time>2021-08-11T09:58:57Z</time>
      </trkpt>
      <trkpt lat="45.11098" lon="2.63816">
        <ele>1543.8</ele>
        <time>2021-08-11T09:58:58Z</time>
      </trkpt>
      <trkpt lat="45.11097" lon="2.63816">
        <ele>1544.1</ele>
        <time>2021-08-11T09:58:59Z</time>
      </trkpt>
      <trkpt lat="45.11096" lon="2.63815">
        <ele>1544.2</ele>
        <time>2021-08-11T09:59:00Z</time>
      </trkpt>
      <trkpt lat="45.11096" lon="2.63815">
        <ele>1544.5</ele>
        <time>2021-08-11T09:59:01Z</time>
      </trkpt>
      <trkpt lat="45.11095" lon="2.63815">
        <ele>1544.8</ele>
        <time>2021-08-11T09:59:02Z</time>
      </trkpt>
      <trkpt lat="45.11094" lon="2.63814">
        <ele>1545</ele>
        <time>2021-08-11T09:59:03Z</time>
      </trkpt>
      <trkpt lat="45.11093" lon="2.63814">
        <ele>1545.3</ele>
        <time>2021-08-11T09:59:04Z</time>
      </trkpt>
      <trkpt lat="45.11092" lon="2.63814">
        <ele>1545.7</ele>
        <time>2021-08-11T09:59:05Z</time>
      </trkpt>
      <trkpt lat="45.11092" lon="2.63814">
        <ele>1545.9</ele>
        <time>2021-08-11T09:59:06Z</time>
      </trkpt>
      <trkpt lat="45.11091" lon="2.63814">
        <ele>1546.2</ele>
        <time>2021-08-11T09:59:07Z</time>
      </trkpt>
      <trkpt lat="45.1109" lon="2.63813">
        <ele>1546.4</ele>
        <time>2021-08-11T09:59:08Z</time>
      </trkpt>
      <trkpt lat="45.11089" lon="2.63813">
        <ele>1546.7</ele>
        <time>2021-08-11T09:59:09Z</time>
      </trkpt>
      <trkpt lat="45.11089" lon="2.63813">
        <ele>1547</ele>
        <time>2021-08-11T09:59:10Z</time>
      </trkpt>
      <trkpt lat="45.11088" lon="2.63812">
        <ele>1547.2</ele>
        <time>2021-08-11T09:59:11Z</time>
      </trkpt>
      <trkpt lat="45.11087" lon="2.63812">
        <ele>1547.5</ele>
        <time>2021-08-11T09:59:12Z</time>
      </trkpt>
      <trkpt lat="45.11086" lon="2.63811">
        <ele>1547.7</ele>
        <time>2021-08-11T09:59:13Z</time>
      </trkpt>
      <trkpt lat="45.11086" lon="2.63811">
        <ele>1548</ele>
        <time>2021-08-11T09:59:14Z</time>
      </trkpt>
      <trkpt lat="45.11085" lon="2.63811">
        <ele>1548.2</ele>
        <time>2021-08-11T09:59:15Z</time>
      </trkpt>
      <trkpt lat="45.11084" lon="2.6381">
        <ele>1548.4</ele>
        <time>2021-08-11T09:59:16Z</time>
      </trkpt>
      <trkpt lat="45.11084" lon="2.6381">
        <ele>1548.6</ele>
        <time>2021-08-11T09:59:17Z</time>
      </trkpt>
      <trkpt lat="45.11083" lon="2.6381">
        <ele>1548.8</ele>
        <time>2021-08-11T09:59:18Z</time>
      </trkpt>
      <trkpt lat="45.11083" lon="2.6381">
        <ele>1548.9</ele>
        <time>2021-08-11T09:59:19Z</time>
      </trkpt>
      <trkpt lat="45.11082" lon="2.6381">
        <ele>1549</ele>
        <time>2021-08-11T09:59:20Z</time>
      </trkpt>
      <trkpt lat="45.11082" lon="2.6381">
        <ele>1549.2</ele>
        <time>2021-08-11T09:59:21Z</time>
      </trkpt>
      <trkpt lat="45.11081" lon="2.6381">
        <ele>1549.3</ele>
        <time>2021-08-11T09:59:22Z</time>
      </trkpt>
      <trkpt lat="45.11081" lon="2.6381">
        <ele>1549.4</ele>
        <time>2021-08-11T09:59:23Z</time>
      </trkpt>
      <trkpt lat="45.1108" lon="2.63809">
        <ele>1549.5</ele>
        <time>2021-08-11T09:59:24Z</time>
      </trkpt>
      <trkpt lat="45.1108" lon="2.63809">
        <ele>1549.6</ele>
        <time>2021-08-11T09:59:25Z</time>
      </trkpt>
      <trkpt lat="45.1108" lon="2.63809">
        <ele>1549.7</ele>
        <time>2021-08-11T09:59:26Z</time>
      </trkpt>
      <trkpt lat="45.11079" lon="2.63809">
        <ele>1549.8</ele>
        <time>2021-08-11T09:59:27Z</time>
      </trkpt>
      <trkpt lat="45.11079" lon="2.63809">
        <ele>1549.9</ele>
        <time>2021-08-11T09:59:28Z</time>
      </trkpt>
      <trkpt lat="45.11079" lon="2.63808">
        <ele>1549.9</ele>
        <time>2021-08-11T09:59:29Z</time>
      </trkpt>
      <trkpt lat="45.11078" lon="2.63808">
        <ele>1549.9</ele>
        <time>2021-08-11T09:59:30Z</time>
      </trkpt>
      <trkpt lat="45.11078" lon="2.63807">
        <ele>1550</ele>
        <time>2021-08-11T09:59:31Z</time>
      </trkpt>
      <trkpt lat="45.11078" lon="2.63807">
        <ele>1550</ele>
        <time>2021-08-11T09:59:32Z</time>
      </trkpt>
      <trkpt lat="45.11077" lon="2.63807">
        <ele>1550.1</ele>
        <time>2021-08-11T09:59:33Z</time>
      </trkpt>
      <trkpt lat="45.11077" lon="2.63806">
        <ele>1550.2</ele>
        <time>2021-08-11T09:59:34Z</time>
      </trkpt>
      <trkpt lat="45.11076" lon="2.63805">
        <ele>1550.2</ele>
        <time>2021-08-11T09:59:35Z</time>
      </trkpt>
      <trkpt lat="45.11076" lon="2.63805">
        <ele>1550.3</ele>
        <time>2021-08-11T09:59:36Z</time>
      </trkpt>
      <trkpt lat="45.11075" lon="2.63804">
        <ele>1550.4</ele>
        <time>2021-08-11T09:59:37Z</time>
      </trkpt>
      <trkpt lat="45.11075" lon="2.63804">
        <ele>1550.5</ele>
        <time>2021-08-11T09:59:38Z</time>
      </trkpt>
      <trkpt lat="45.11074" lon="2.63803">
        <ele>1550.7</ele>
        <time>2021-08-11T09:59:39Z</time>
      </trkpt>
      <trkpt lat="45.11074" lon="2.63803">
        <ele>1550.8</ele>
        <time>2021-08-11T09:59:40Z</time>
      </trkpt>
      <trkpt lat="45.11073" lon="2.63803">
        <ele>1551</ele>
        <time>2021-08-11T09:59:41Z</time>
      </trkpt>
      <trkpt lat="45.11072" lon="2.63803">
        <ele>1551.1</ele>
        <time>2021-08-11T09:59:42Z</time>
      </trkpt>
      <trkpt lat="45.11072" lon="2.63803">
        <ele>1551.1</ele>
        <time>2021-08-11T09:59:43Z</time>
      </trkpt>
      <trkpt lat="45.11072" lon="2.63802">
        <ele>1551.2</ele>
        <time>2021-08-11T09:59:44Z</time>
      </trkpt>
      <trkpt lat="45.11071" lon="2.63802">
        <ele>1551.4</ele>
        <time>2021-08-11T09:59:45Z</time>
      </trkpt>
      <trkpt lat="45.11071" lon="2.63802">
        <ele>1551.5</ele>
        <time>2021-08-11T09:59:46Z</time>
      </trkpt>
      <trkpt lat="45.1107" lon="2.63802">
        <ele>1551.6</ele>
        <time>2021-08-11T09:59:47Z</time>
      </trkpt>
      <trkpt lat="45.1107" lon="2.63802">
        <ele>1551.7</ele>
        <time>2021-08-11T09:59:48Z</time>
      </trkpt>
      <trkpt lat="45.11069" lon="2.63801">
        <ele>1551.8</ele>
        <time>2021-08-11T09:59:49Z</time>
      </trkpt>
      <trkpt lat="45.11069" lon="2.63801">
        <ele>1551.9</ele>
        <time>2021-08-11T09:59:50Z</time>
      </trkpt>
      <trkpt lat="45.11068" lon="2.638">
        <ele>1551.9</ele>
        <time>2021-08-11T09:59:51Z</time>
      </trkpt>
      <trkpt lat="45.11068" lon="2.63799">
        <ele>1551.9</ele>
        <time>2021-08-11T09:59:52Z</time>
      </trkpt>
      <trkpt lat="45.11068" lon="2.63799">
        <ele>1551.8</ele>
        <time>2021-08-11T09:59:53Z</time>
      </trkpt>
      <trkpt lat="45.11068" lon="2.63798">
        <ele>1551.8</ele>
        <time>2021-08-11T09:59:54Z</time>
      </trkpt>
      <trkpt lat="45.11068" lon="2.63797">
        <ele>1551.8</ele>
        <time>2021-08-11T09:59:55Z</time>
      </trkpt>
      <trkpt lat="45.11068" lon="2.63796">
        <ele>1551.6</ele>
        <time>2021-08-11T09:59:56Z</time>
      </trkpt>
      <trkpt lat="45.11068" lon="2.63796">
        <ele>1551.6</ele>
        <time>2021-08-11T09:59:57Z</time>
      </trkpt>
      <trkpt lat="45.11067" lon="2.63795">
        <ele>1551.7</ele>
        <time>2021-08-11T09:59:58Z</time>
      </trkpt>
      <trkpt lat="45.11067" lon="2.63795">
        <ele>1551.8</ele>
        <time>2021-08-11T09:59:59Z</time>
      </trkpt>
      <trkpt lat="45.11066" lon="2.63795">
        <ele>1552</ele>
        <time>2021-08-11T10:00:00Z</time>
      </trkpt>
      <trkpt lat="45.11066" lon="2.63794">
        <ele>1552.1</ele>
        <time>2021-08-11T10:00:01Z</time>
      </trkpt>
      <trkpt lat="45.11065" lon="2.63794">
        <ele>1552.2</ele>
        <time>2021-08-11T10:00:02Z</time>
      </trkpt>
      <trkpt lat="45.11065" lon="2.63792">
        <ele>1552.2</ele>
        <time>2021-08-11T10:00:03Z</time>
      </trkpt>
      <trkpt lat="45.11065" lon="2.63792">
        <ele>1552.1</ele>
        <time>2021-08-11T10:00:04Z</time>
      </trkpt>
      <trkpt lat="45.11065" lon="2.63791">
        <ele>1552.1</ele>
        <time>2021-08-11T10:00:05Z</time>
      </trkpt>
      <trkpt lat="45.11065" lon="2.6379">
        <ele>1552.1</ele>
        <time>2021-08-11T10:00:06Z</time>
      </trkpt>
      <trkpt lat="45.11064" lon="2.63789">
        <ele>1552.1</ele>
        <time>2021-08-11T10:00:07Z</time>
      </trkpt>
      <trkpt lat="45.11064" lon="2.63789">
        <ele>1552.2</ele>
        <time>2021-08-11T10:00:08Z</time>
      </trkpt>
      <trkpt lat="45.11063" lon="2.63788">
        <ele>1552.3</ele>
        <time>2021-08-11T10:00:09Z</time>
      </trkpt>
      <trkpt lat="45.11062" lon="2.63787">
        <ele>1552.4</ele>
        <time>2021-08-11T10:00:10Z</time>
      </trkpt>
      <trkpt lat="45.11062" lon="2.63787">
        <ele>1552.5</ele>
        <time>2021-08-11T10:00:11Z</time>
      </trkpt>
      <trkpt lat="45.11061" lon="2.63786">
        <ele>1552.6</ele>
        <time>2021-08-11T10:00:12Z</time>
      </trkpt>
      <trkpt lat="45.11061" lon="2.63786">
        <ele>1552.8</ele>
        <time>2021-08-11T10:00:13Z</time>
      </trkpt>
      <trkpt lat="45.1106" lon="2.63786">
        <ele>1552.9</ele>
        <time>2021-08-11T10:00:14Z</time>
      </trkpt>
      <trkpt lat="45.1106" lon="2.63785">
        <ele>1552.9</ele>
        <time>2021-08-11T10:00:15Z</time>
      </trkpt>
      <trkpt lat="45.11059" lon="2.63785">
        <ele>1553</ele>
        <time>2021-08-11T10:00:16Z</time>
      </trkpt>
      <trkpt lat="45.11059" lon="2.63784">
        <ele>1553.1</ele>
        <time>2021-08-11T10:00:17Z</time>
      </trkpt>
      <trkpt lat="45.11058" lon="2.63784">
        <ele>1553.3</ele>
        <time>2021-08-11T10:00:18Z</time>
      </trkpt>
      <trkpt lat="45.11058" lon="2.63784">
        <ele>1553.4</ele>
        <time>2021-08-11T10:00:19Z</time>
      </trkpt>
      <trkpt lat="45.11057" lon="2.63784">
        <ele>1553.6</ele>
        <time>2021-08-11T10:00:20Z</time>
      </trkpt>
      <trkpt lat="45.11057" lon="2.63783">
        <ele>1553.7</ele>
        <time>2021-08-11T10:00:21Z</time>
      </trkpt>
      <trkpt lat="45.11056" lon="2.63783">
        <ele>1553.7</ele>
        <time>2021-08-11T10:00:22Z</time>
      </trkpt>
      <trkpt lat="45.11056" lon="2.63782">
        <ele>1553.8</ele>
        <time>2021-08-11T10:00:23Z</time>
      </trkpt>
      <trkpt lat="45.11055" lon="2.63781">
        <ele>1553.9</ele>
        <time>2021-08-11T10:00:24Z</time>
      </trkpt>
      <trkpt lat="45.11055" lon="2.6378">
        <ele>1553.9</ele>
        <time>2021-08-11T10:00:25Z</time>
      </trkpt>
      <trkpt lat="45.11054" lon="2.6378">
        <ele>1553.9</ele>
        <time>2021-08-11T10:00:26Z</time>
      </trkpt>
      <trkpt lat="45.11054" lon="2.63779">
        <ele>1554</ele>
        <time>2021-08-11T10:00:27Z</time>
      </trkpt>
      <trkpt lat="45.11053" lon="2.63778">
        <ele>1554.1</ele>
        <time>2021-08-11T10:00:28Z</time>
      </trkpt>
      <trkpt lat="45.11053" lon="2.63778">
        <ele>1554.2</ele>
        <time>2021-08-11T10:00:29Z</time>
      </trkpt>
      <trkpt lat="45.11052" lon="2.63777">
        <ele>1554.3</ele>
        <time>2021-08-11T10:00:30Z</time>
      </trkpt>
      <trkpt lat="45.11052" lon="2.63776">
        <ele>1554.4</ele>
        <time>2021-08-11T10:00:31Z</time>
      </trkpt>
      <trkpt lat="45.11051" lon="2.63776">
        <ele>1554.4</ele>
        <time>2021-08-11T10:00:32Z</time>
      </trkpt>
      <trkpt lat="45.11051" lon="2.63775">
        <ele>1554.5</ele>
        <time>2021-08-11T10:00:33Z</time>
      </trkpt>
      <trkpt lat="45.1105" lon="2.63774">
        <ele>1554.6</ele>
        <time>2021-08-11T10:00:34Z</time>
      </trkpt>
      <trkpt lat="45.1105" lon="2.63774">
        <ele>1554.7</ele>
        <time>2021-08-11T10:00:35Z</time>
      </trkpt>
      <trkpt lat="45.11049" lon="2.63773">
        <ele>1554.8</ele>
        <time>2021-08-11T10:00:36Z</time>
      </trkpt>
      <trkpt lat="45.11049" lon="2.63773">
        <ele>1554.9</ele>
        <time>2021-08-11T10:00:37Z</time>
      </trkpt>
      <trkpt lat="45.11048" lon="2.63773">
        <ele>1555</ele>
        <time>2021-08-11T10:00:38Z</time>
      </trkpt>
      <trkpt lat="45.11048" lon="2.63772">
        <ele>1555.1</ele>
        <time>2021-08-11T10:00:39Z</time>
      </trkpt>
      <trkpt lat="45.11047" lon="2.63772">
        <ele>1555.3</ele>
        <time>2021-08-11T10:00:40Z</time>
      </trkpt>
      <trkpt lat="45.11047" lon="2.63771">
        <ele>1555.3</ele>
        <time>2021-08-11T10:00:41Z</time>
      </trkpt>
      <trkpt lat="45.11047" lon="2.63771">
        <ele>1555.4</ele>
        <time>2021-08-11T10:00:42Z</time>
      </trkpt>
      <trkpt lat="45.11046" lon="2.6377">
        <ele>1555.4</ele>
        <time>2021-08-11T10:00:43Z</time>
      </trkpt>
      <trkpt lat="45.11046" lon="2.63769">
        <ele>1555.4</ele>
        <time>2021-08-11T10:00:44Z</time>
      </trkpt>
      <trkpt lat="45.11046" lon="2.63769">
        <ele>1555.5</ele>
        <time>2021-08-11T10:00:45Z</time>
      </trkpt>
      <trkpt lat="45.11045" lon="2.63768">
        <ele>1555.6</ele>
        <time>2021-08-11T10:00:46Z</time>
      </trkpt>
      <trkpt lat="45.11045" lon="2.63768">
        <ele>1555.6</ele>
        <time>2021-08-11T10:00:47Z</time>
      </trkpt>
      <trkpt lat="45.11044" lon="2.63767">
        <ele>1555.7</ele>
        <time>2021-08-11T10:00:48Z</time>
      </trkpt>
      <trkpt lat="45.11044" lon="2.63767">
        <ele>1555.8</ele>
        <time>2021-08-11T10:00:49Z</time>
      </trkpt>
      <trkpt lat="45.11044" lon="2.63767">
        <ele>1555.9</ele>
        <time>2021-08-11T10:00:50Z</time>
      </trkpt>
      <trkpt lat="45.11043" lon="2.63766">
        <ele>1556</ele>
        <time>2021-08-11T10:00:51Z</time>
      </trkpt>
      <trkpt lat="45.11043" lon="2.63766">
        <ele>1556</ele>
        <time>2021-08-11T10:00:52Z</time>
      </trkpt>
      <trkpt lat="45.11043" lon="2.63765">
        <ele>1556</ele>
        <time>2021-08-11T10:00:53Z</time>
      </trkpt>
      <trkpt lat="45.11042" lon="2.63765">
        <ele>1556.1</ele>
        <time>2021-08-11T10:00:54Z</time>
      </trkpt>
      <trkpt lat="45.11042" lon="2.63765">
        <ele>1556.2</ele>
        <time>2021-08-11T10:00:55Z</time>
      </trkpt>
      <trkpt lat="45.11042" lon="2.63764">
        <ele>1556.2</ele>
        <time>2021-08-11T10:00:56Z</time>
      </trkpt>
      <trkpt lat="45.11041" lon="2.63763">
        <ele>1556.3</ele>
        <time>2021-08-11T10:00:57Z</time>
      </trkpt>
      <trkpt lat="45.11041" lon="2.63763">
        <ele>1556.3</ele>
        <time>2021-08-11T10:00:58Z</time>
      </trkpt>
      <trkpt lat="45.11041" lon="2.63763">
        <ele>1556.4</ele>
        <time>2021-08-11T10:00:59Z</time>
      </trkpt>
      <trkpt lat="45.1104" lon="2.63762">
        <ele>1556.5</ele>
        <time>2021-08-11T10:01:00Z</time>
      </trkpt>
      <trkpt lat="45.1104" lon="2.63762">
        <ele>1556.6</ele>
        <time>2021-08-11T10:01:01Z</time>
      </trkpt>
      <trkpt lat="45.11039" lon="2.63761">
        <ele>1556.6</ele>
        <time>2021-08-11T10:01:02Z</time>
      </trkpt>
      <trkpt lat="45.11039" lon="2.63761">
        <ele>1556.8</ele>
        <time>2021-08-11T10:01:03Z</time>
      </trkpt>
      <trkpt lat="45.11038" lon="2.6376">
        <ele>1556.9</ele>
        <time>2021-08-11T10:01:04Z</time>
      </trkpt>
      <trkpt lat="45.11037" lon="2.6376">
        <ele>1557.1</ele>
        <time>2021-08-11T10:01:05Z</time>
      </trkpt>
      <trkpt lat="45.11037" lon="2.6376">
        <ele>1557.2</ele>
        <time>2021-08-11T10:01:06Z</time>
      </trkpt>
      <trkpt lat="45.11037" lon="2.6376">
        <ele>1557.3</ele>
        <time>2021-08-11T10:01:07Z</time>
      </trkpt>
      <trkpt lat="45.11036" lon="2.63759">
        <ele>1557.4</ele>
        <time>2021-08-11T10:01:08Z</time>
      </trkpt>
      <trkpt lat="45.11035" lon="2.63759">
        <ele>1557.6</ele>
        <time>2021-08-11T10:01:09Z</time>
      </trkpt>
      <trkpt lat="45.11035" lon="2.63759">
        <ele>1557.7</ele>
        <time>2021-08-11T10:01:10Z</time>
      </trkpt>
      <trkpt lat="45.11035" lon="2.63759">
        <ele>1557.8</ele>
        <time>2021-08-11T10:01:11Z</time>
      </trkpt>
      <trkpt lat="45.11034" lon="2.63759">
        <ele>1557.8</ele>
        <time>2021-08-11T10:01:12Z</time>
      </trkpt>
      <trkpt lat="45.11034" lon="2.63759">
        <ele>1558</ele>
        <time>2021-08-11T10:01:13Z</time>
      </trkpt>
      <trkpt lat="45.11033" lon="2.63759">
        <ele>1558.1</ele>
        <time>2021-08-11T10:01:14Z</time>
      </trkpt>
      <trkpt lat="45.11033" lon="2.63758">
        <ele>1558.3</ele>
        <time>2021-08-11T10:01:15Z</time>
      </trkpt>
      <trkpt lat="45.11032" lon="2.63758">
        <ele>1558.3</ele>
        <time>2021-08-11T10:01:16Z</time>
      </trkpt>
      <trkpt lat="45.11032" lon="2.63758">
        <ele>1558.5</ele>
        <time>2021-08-11T10:01:17Z</time>
      </trkpt>
      <trkpt lat="45.11031" lon="2.63758">
        <ele>1558.6</ele>
        <time>2021-08-11T10:01:18Z</time>
      </trkpt>
      <trkpt lat="45.11031" lon="2.63758">
        <ele>1558.7</ele>
        <time>2021-08-11T10:01:19Z</time>
      </trkpt>
      <trkpt lat="45.1103" lon="2.63758">
        <ele>1558.9</ele>
        <time>2021-08-11T10:01:20Z</time>
      </trkpt>
      <trkpt lat="45.1103" lon="2.63758">
        <ele>1559.1</ele>
        <time>2021-08-11T10:01:21Z</time>
      </trkpt>
      <trkpt lat="45.11029" lon="2.63758">
        <ele>1559.3</ele>
        <time>2021-08-11T10:01:22Z</time>
      </trkpt>
      <trkpt lat="45.11028" lon="2.63758">
        <ele>1559.4</ele>
        <time>2021-08-11T10:01:23Z</time>
      </trkpt>
      <trkpt lat="45.11028" lon="2.63758">
        <ele>1559.5</ele>
        <time>2021-08-11T10:01:24Z</time>
      </trkpt>
      <trkpt lat="45.11027" lon="2.63757">
        <ele>1559.8</ele>
        <time>2021-08-11T10:01:25Z</time>
      </trkpt>
      <trkpt lat="45.11027" lon="2.63757">
        <ele>1559.9</ele>
        <time>2021-08-11T10:01:26Z</time>
      </trkpt>
      <trkpt lat="45.11026" lon="2.63757">
        <ele>1560.1</ele>
        <time>2021-08-11T10:01:27Z</time>
      </trkpt>
      <trkpt lat="45.11026" lon="2.63758">
        <ele>1560.2</ele>
        <time>2021-08-11T10:01:28Z</time>
      </trkpt>
      <trkpt lat="45.11025" lon="2.63758">
        <ele>1560.3</ele>
        <time>2021-08-11T10:01:29Z</time>
      </trkpt>
      <trkpt lat="45.11025" lon="2.63758">
        <ele>1560.5</ele>
        <time>2021-08-11T10:01:30Z</time>
      </trkpt>
      <trkpt lat="45.11024" lon="2.63758">
        <ele>1560.7</ele>
        <time>2021-08-11T10:01:31Z</time>
      </trkpt>
      <trkpt lat="45.11024" lon="2.63758">
        <ele>1560.8</ele>
        <time>2021-08-11T10:01:32Z</time>
      </trkpt>
      <trkpt lat="45.11023" lon="2.63758">
        <ele>1561</ele>
        <time>2021-08-11T10:01:33Z</time>
      </trkpt>
      <trkpt lat="45.11023" lon="2.63758">
        <ele>1561.2</ele>
        <time>2021-08-11T10:01:34Z</time>
      </trkpt>
      <trkpt lat="45.11022" lon="2.63758">
        <ele>1561.3</ele>
        <time>2021-08-11T10:01:35Z</time>
      </trkpt>
      <trkpt lat="45.11021" lon="2.63759">
        <ele>1561.5</ele>
        <time>2021-08-11T10:01:36Z</time>
      </trkpt>
      <trkpt lat="45.11021" lon="2.63759">
        <ele>1561.7</ele>
        <time>2021-08-11T10:01:37Z</time>
      </trkpt>
      <trkpt lat="45.1102" lon="2.63759">
        <ele>1562</ele>
        <time>2021-08-11T10:01:38Z</time>
      </trkpt>
      <trkpt lat="45.11019" lon="2.63759">
        <ele>1562.2</ele>
        <time>2021-08-11T10:01:39Z</time>
      </trkpt>
      <trkpt lat="45.11019" lon="2.63759">
        <ele>1562.3</ele>
        <time>2021-08-11T10:01:40Z</time>
      </trkpt>
      <trkpt lat="45.11018" lon="2.6376">
        <ele>1562.6</ele>
        <time>2021-08-11T10:01:41Z</time>
      </trkpt>
      <trkpt lat="45.11017" lon="2.63761">
        <ele>1562.8</ele>
        <time>2021-08-11T10:01:42Z</time>
      </trkpt>
      <trkpt lat="45.11017" lon="2.63761">
        <ele>1563</ele>
        <time>2021-08-11T10:01:43Z</time>
      </trkpt>
      <trkpt lat="45.11016" lon="2.63762">
        <ele>1563.2</ele>
        <time>2021-08-11T10:01:44Z</time>
      </trkpt>
      <trkpt lat="45.11016" lon="2.63763">
        <ele>1563.4</ele>
        <time>2021-08-11T10:01:45Z</time>
      </trkpt>
      <trkpt lat="45.11015" lon="2.63763">
        <ele>1563.6</ele>
        <time>2021-08-11T10:01:46Z</time>
      </trkpt>
      <trkpt lat="45.11015" lon="2.63764">
        <ele>1563.8</ele>
        <time>2021-08-11T10:01:47Z</time>
      </trkpt>
      <trkpt lat="45.11014" lon="2.63764">
        <ele>1564</ele>
        <time>2021-08-11T10:01:48Z</time>
      </trkpt>
      <trkpt lat="45.11014" lon="2.63764">
        <ele>1564.1</ele>
        <time>2021-08-11T10:01:49Z</time>
      </trkpt>
      <trkpt lat="45.11013" lon="2.63765">
        <ele>1564.3</ele>
        <time>2021-08-11T10:01:50Z</time>
      </trkpt>
      <trkpt lat="45.11013" lon="2.63765">
        <ele>1564.4</ele>
        <time>2021-08-11T10:01:51Z</time>
      </trkpt>
      <trkpt lat="45.11013" lon="2.63766">
        <ele>1564.6</ele>
        <time>2021-08-11T10:01:52Z</time>
      </trkpt>
      <trkpt lat="45.11012" lon="2.63766">
        <ele>1564.8</ele>
        <time>2021-08-11T10:01:53Z</time>
      </trkpt>
      <trkpt lat="45.11012" lon="2.63766">
        <ele>1564.9</ele>
        <time>2021-08-11T10:01:54Z</time>
      </trkpt>
      <trkpt lat="45.11011" lon="2.63767">
        <ele>1565</ele>
        <time>2021-08-11T10:01:55Z</time>
      </trkpt>
      <trkpt lat="45.11011" lon="2.63767">
        <ele>1565.1</ele>
        <time>2021-08-11T10:01:56Z</time>
      </trkpt>
      <trkpt lat="45.11011" lon="2.63767">
        <ele>1565.2</ele>
        <time>2021-08-11T10:01:57Z</time>
      </trkpt>
      <trkpt lat="45.1101" lon="2.63768">
        <ele>1565.4</ele>
        <time>2021-08-11T10:01:58Z</time>
      </trkpt>
      <trkpt lat="45.1101" lon="2.63768">
        <ele>1565.6</ele>
        <time>2021-08-11T10:01:59Z</time>
      </trkpt>
      <trkpt lat="45.11009" lon="2.63769">
        <ele>1565.7</ele>
        <time>2021-08-11T10:02:00Z</time>
      </trkpt>
      <trkpt lat="45.11009" lon="2.6377">
        <ele>1565.9</ele>
        <time>2021-08-11T10:02:01Z</time>
      </trkpt>
      <trkpt lat="45.11009" lon="2.6377">
        <ele>1566</ele>
        <time>2021-08-11T10:02:02Z</time>
      </trkpt>
      <trkpt lat="45.11008" lon="2.6377">
        <ele>1566.1</ele>
        <time>2021-08-11T10:02:03Z</time>
      </trkpt>
      <trkpt lat="45.11008" lon="2.63771">
        <ele>1566.3</ele>
        <time>2021-08-11T10:02:04Z</time>
      </trkpt>
      <trkpt lat="45.11007" lon="2.63771">
        <ele>1566.4</ele>
        <time>2021-08-11T10:02:05Z</time>
      </trkpt>
      <trkpt lat="45.11007" lon="2.63771">
        <ele>1566.5</ele>
        <time>2021-08-11T10:02:06Z</time>
      </trkpt>
      <trkpt lat="45.11007" lon="2.63771">
        <ele>1566.7</ele>
        <time>2021-08-11T10:02:07Z</time>
      </trkpt>
      <trkpt lat="45.11006" lon="2.63772">
        <ele>1566.8</ele>
        <time>2021-08-11T10:02:08Z</time>
      </trkpt>
      <trkpt lat="45.11006" lon="2.63772">
        <ele>1566.9</ele>
        <time>2021-08-11T10:02:09Z</time>
      </trkpt>
      <trkpt lat="45.11006" lon="2.63772">
        <ele>1567</ele>
        <time>2021-08-11T10:02:10Z</time>
      </trkpt>
      <trkpt lat="45.11006" lon="2.63772">
        <ele>1567.1</ele>
        <time>2021-08-11T10:02:11Z</time>
      </trkpt>
      <trkpt lat="45.11005" lon="2.63773">
        <ele>1567.2</ele>
        <time>2021-08-11T10:02:12Z</time>
      </trkpt>
      <trkpt lat="45.11005" lon="2.63773">
        <ele>1567.4</ele>
        <time>2021-08-11T10:02:13Z</time>
      </trkpt>
      <trkpt lat="45.11004" lon="2.63774">
        <ele>1567.5</ele>
        <time>2021-08-11T10:02:14Z</time>
      </trkpt>
      <trkpt lat="45.11004" lon="2.63774">
        <ele>1567.6</ele>
        <time>2021-08-11T10:02:15Z</time>
      </trkpt>
      <trkpt lat="45.11004" lon="2.63775">
        <ele>1567.8</ele>
        <time>2021-08-11T10:02:16Z</time>
      </trkpt>
      <trkpt lat="45.11003" lon="2.63775">
        <ele>1567.9</ele>
        <time>2021-08-11T10:02:17Z</time>
      </trkpt>
      <trkpt lat="45.11003" lon="2.63776">
        <ele>1568</ele>
        <time>2021-08-11T10:02:18Z</time>
      </trkpt>
      <trkpt lat="45.11003" lon="2.63776">
        <ele>1568.1</ele>
        <time>2021-08-11T10:02:19Z</time>
      </trkpt>
      <trkpt lat="45.11003" lon="2.63777">
        <ele>1568.2</ele>
        <time>2021-08-11T10:02:20Z</time>
      </trkpt>
      <trkpt lat="45.11003" lon="2.63777">
        <ele>1568.3</ele>
        <time>2021-08-11T10:02:21Z</time>
      </trkpt>
      <trkpt lat="45.11002" lon="2.63778">
        <ele>1568.4</ele>
        <time>2021-08-11T10:02:22Z</time>
      </trkpt>
      <trkpt lat="45.11002" lon="2.63778">
        <ele>1568.5</ele>
        <time>2021-08-11T10:02:23Z</time>
      </trkpt>
      <trkpt lat="45.11002" lon="2.63779">
        <ele>1568.6</ele>
        <time>2021-08-11T10:02:24Z</time>
      </trkpt>
      <trkpt lat="45.11002" lon="2.6378">
        <ele>1568.6</ele>
        <time>2021-08-11T10:02:25Z</time>
      </trkpt>
      <trkpt lat="45.11002" lon="2.6378">
        <ele>1568.6</ele>
        <time>2021-08-11T10:02:26Z</time>
      </trkpt>
      <trkpt lat="45.11002" lon="2.63781">
        <ele>1568.7</ele>
        <time>2021-08-11T10:02:27Z</time>
      </trkpt>
      <trkpt lat="45.11002" lon="2.63782">
        <ele>1568.8</ele>
        <time>2021-08-11T10:02:28Z</time>
      </trkpt>
      <trkpt lat="45.11001" lon="2.63783">
        <ele>1569</ele>
        <time>2021-08-11T10:02:29Z</time>
      </trkpt>
      <trkpt lat="45.11001" lon="2.63784">
        <ele>1569.1</ele>
        <time>2021-08-11T10:02:30Z</time>
      </trkpt>
      <trkpt lat="45.11001" lon="2.63784">
        <ele>1569.3</ele>
        <time>2021-08-11T10:02:31Z</time>
      </trkpt>
      <trkpt lat="45.11" lon="2.63785">
        <ele>1569.5</ele>
        <time>2021-08-11T10:02:32Z</time>
      </trkpt>
      <trkpt lat="45.11" lon="2.63786">
        <ele>1569.5</ele>
        <time>2021-08-11T10:02:33Z</time>
      </trkpt>
      <trkpt lat="45.10999" lon="2.63786">
        <ele>1569.5</ele>
        <time>2021-08-11T10:02:34Z</time>
      </trkpt>
      <trkpt lat="45.10999" lon="2.63787">
        <ele>1569.5</ele>
        <time>2021-08-11T10:02:35Z</time>
      </trkpt>
      <trkpt lat="45.10999" lon="2.63788">
        <ele>1569.4</ele>
        <time>2021-08-11T10:02:36Z</time>
      </trkpt>
      <trkpt lat="45.10998" lon="2.63788">
        <ele>1569.3</ele>
        <time>2021-08-11T10:02:37Z</time>
      </trkpt>
      <trkpt lat="45.10997" lon="2.63789">
        <ele>1569.3</ele>
        <time>2021-08-11T10:02:38Z</time>
      </trkpt>
      <trkpt lat="45.10997" lon="2.6379">
        <ele>1569.2</ele>
        <time>2021-08-11T10:02:39Z</time>
      </trkpt>
      <trkpt lat="45.10996" lon="2.6379">
        <ele>1569.1</ele>
        <time>2021-08-11T10:02:40Z</time>
      </trkpt>
      <trkpt lat="45.10996" lon="2.63791">
        <ele>1569</ele>
        <time>2021-08-11T10:02:41Z</time>
      </trkpt>
      <trkpt lat="45.10995" lon="2.63791">
        <ele>1568.9</ele>
        <time>2021-08-11T10:02:42Z</time>
      </trkpt>
      <trkpt lat="45.10995" lon="2.63792">
        <ele>1568.9</ele>
        <time>2021-08-11T10:02:43Z</time>
      </trkpt>
      <trkpt lat="45.10994" lon="2.63792">
        <ele>1568.8</ele>
        <time>2021-08-11T10:02:44Z</time>
      </trkpt>
      <trkpt lat="45.10994" lon="2.63793">
        <ele>1568.7</ele>
        <time>2021-08-11T10:02:45Z</time>
      </trkpt>
      <trkpt lat="45.10993" lon="2.63794">
        <ele>1568.7</ele>
        <time>2021-08-11T10:02:46Z</time>
      </trkpt>
      <trkpt lat="45.10993" lon="2.63795">
        <ele>1568.6</ele>
        <time>2021-08-11T10:02:47Z</time>
      </trkpt>
      <trkpt lat="45.10992" lon="2.63796">
        <ele>1568.5</ele>
        <time>2021-08-11T10:02:48Z</time>
      </trkpt>
      <trkpt lat="45.10991" lon="2.63796">
        <ele>1568.3</ele>
        <time>2021-08-11T10:02:49Z</time>
      </trkpt>
      <trkpt lat="45.10991" lon="2.63796">
        <ele>1568.2</ele>
        <time>2021-08-11T10:02:50Z</time>
      </trkpt>
      <trkpt lat="45.1099" lon="2.63796">
        <ele>1568</ele>
        <time>2021-08-11T10:02:51Z</time>
      </trkpt>
      <trkpt lat="45.10989" lon="2.63795">
        <ele>1567.8</ele>
        <time>2021-08-11T10:02:52Z</time>
      </trkpt>
      <trkpt lat="45.10985" lon="2.63794">
        <ele>1566.9</ele>
        <time>2021-08-11T10:02:53Z</time>
      </trkpt>
      <trkpt lat="45.10985" lon="2.63794">
        <ele>1566.9</ele>
        <time>2021-08-11T10:02:54Z</time>
      </trkpt>
      <trkpt lat="45.10985" lon="2.63794">
        <ele>1566.9</ele>
        <time>2021-08-11T10:02:55Z</time>
      </trkpt>
      <trkpt lat="45.10985" lon="2.63794">
        <ele>1567</ele>
        <time>2021-08-11T10:02:56Z</time>
      </trkpt>
      <trkpt lat="45.10986" lon="2.63794">
        <ele>1567.1</ele>
        <time>2021-08-11T10:02:57Z</time>
      </trkpt>
      <trkpt lat="45.10987" lon="2.63795">
        <ele>1567.2</ele>
        <time>2021-08-11T10:02:58Z</time>
      </trkpt>
      <trkpt lat="45.10988" lon="2.63796">
        <ele>1567.5</ele>
        <time>2021-08-11T10:02:59Z</time>
      </trkpt>
      <trkpt lat="45.10989" lon="2.63798">
        <ele>1567.8</ele>
        <time>2021-08-11T10:03:00Z</time>
      </trkpt>
      <trkpt lat="45.10989" lon="2.638">
        <ele>1568.1</ele>
        <time>2021-08-11T10:03:01Z</time>
      </trkpt>
      <trkpt lat="45.1099" lon="2.63803">
        <ele>1568.3</ele>
        <time>2021-08-11T10:03:02Z</time>
      </trkpt>
      <trkpt lat="45.1099" lon="2.63806">
        <ele>1568.5</ele>
        <time>2021-08-11T10:03:03Z</time>
      </trkpt>
      <trkpt lat="45.1099" lon="2.63809">
        <ele>1568.5</ele>
        <time>2021-08-11T10:03:04Z</time>
      </trkpt>
      <trkpt lat="45.1099" lon="2.63812">
        <ele>1568.6</ele>
        <time>2021-08-11T10:03:05Z</time>
      </trkpt>
      <trkpt lat="45.1099" lon="2.63815">
        <ele>1568.7</ele>
        <time>2021-08-11T10:03:06Z</time>
      </trkpt>
      <trkpt lat="45.1099" lon="2.63818">
        <ele>1569</ele>
        <time>2021-08-11T10:03:07Z</time>
      </trkpt>
      <trkpt lat="45.10991" lon="2.63821">
        <ele>1569.2</ele>
        <time>2021-08-11T10:03:08Z</time>
      </trkpt>
      <trkpt lat="45.10991" lon="2.63823">
        <ele>1569.5</ele>
        <time>2021-08-11T10:03:09Z</time>
      </trkpt>
      <trkpt lat="45.10992" lon="2.63824">
        <ele>1569.7</ele>
        <time>2021-08-11T10:03:10Z</time>
      </trkpt>
      <trkpt lat="45.10992" lon="2.63826">
        <ele>1569.8</ele>
        <time>2021-08-11T10:03:11Z</time>
      </trkpt>
      <trkpt lat="45.10991" lon="2.63828">
        <ele>1569.7</ele>
        <time>2021-08-11T10:03:12Z</time>
      </trkpt>
      <trkpt lat="45.10991" lon="2.63829">
        <ele>1569.6</ele>
        <time>2021-08-11T10:03:13Z</time>
      </trkpt>
      <trkpt lat="45.10991" lon="2.63831">
        <ele>1569.6</ele>
        <time>2021-08-11T10:03:14Z</time>
      </trkpt>
      <trkpt lat="45.1099" lon="2.63833">
        <ele>1569.6</ele>
        <time>2021-08-11T10:03:15Z</time>
      </trkpt>
      <trkpt lat="45.1099" lon="2.63835">
        <ele>1569.6</ele>
        <time>2021-08-11T10:03:16Z</time>
      </trkpt>
      <trkpt lat="45.1099" lon="2.63837">
        <ele>1569.7</ele>
        <time>2021-08-11T10:03:17Z</time>
      </trkpt>
      <trkpt lat="45.1099" lon="2.63839">
        <ele>1569.8</ele>
        <time>2021-08-11T10:03:18Z</time>
      </trkpt>
      <trkpt lat="45.1099" lon="2.6384">
        <ele>1569.8</ele>
        <time>2021-08-11T10:03:19Z</time>
      </trkpt>
      <trkpt lat="45.1099" lon="2.63842">
        <ele>1569.8</ele>
        <time>2021-08-11T10:03:20Z</time>
      </trkpt>
      <trkpt lat="45.1099" lon="2.63844">
        <ele>1569.8</ele>
        <time>2021-08-11T10:03:21Z</time>
      </trkpt>
      <trkpt lat="45.1099" lon="2.63846">
        <ele>1569.8</ele>
        <time>2021-08-11T10:03:22Z</time>
      </trkpt>
      <trkpt lat="45.10989" lon="2.63847">
        <ele>1569.8</ele>
        <time>2021-08-11T10:03:23Z</time>
      </trkpt>
      <trkpt lat="45.10989" lon="2.63849">
        <ele>1569.7</ele>
        <time>2021-08-11T10:03:24Z</time>
      </trkpt>
      <trkpt lat="45.10989" lon="2.6385">
        <ele>1569.6</ele>
        <time>2021-08-11T10:03:25Z</time>
      </trkpt>
      <trkpt lat="45.10988" lon="2.63851">
        <ele>1569.4</ele>
        <time>2021-08-11T10:03:26Z</time>
      </trkpt>
      <trkpt lat="45.10988" lon="2.63853">
        <ele>1569.4</ele>
        <time>2021-08-11T10:03:27Z</time>
      </trkpt>
      <trkpt lat="45.10987" lon="2.63854">
        <ele>1569.3</ele>
        <time>2021-08-11T10:03:28Z</time>
      </trkpt>
      <trkpt lat="45.10987" lon="2.63855">
        <ele>1569.2</ele>
        <time>2021-08-11T10:03:29Z</time>
      </trkpt>
      <trkpt lat="45.10987" lon="2.63857">
        <ele>1569.2</ele>
        <time>2021-08-11T10:03:30Z</time>
      </trkpt>
      <trkpt lat="45.10987" lon="2.63859">
        <ele>1569.3</ele>
        <time>2021-08-11T10:03:31Z</time>
      </trkpt>
      <trkpt lat="45.10987" lon="2.6386">
        <ele>1569.3</ele>
        <time>2021-08-11T10:03:32Z</time>
      </trkpt>
      <trkpt lat="45.10987" lon="2.63862">
        <ele>1569.3</ele>
        <time>2021-08-11T10:03:33Z</time>
      </trkpt>
      <trkpt lat="45.10987" lon="2.63863">
        <ele>1569.3</ele>
        <time>2021-08-11T10:03:34Z</time>
      </trkpt>
      <trkpt lat="45.10987" lon="2.63864">
        <ele>1569.5</ele>
        <time>2021-08-11T10:03:35Z</time>
      </trkpt>
      <trkpt lat="45.10988" lon="2.63866">
        <ele>1569.7</ele>
        <time>2021-08-11T10:03:36Z</time>
      </trkpt>
      <trkpt lat="45.10988" lon="2.63867">
        <ele>1569.8</ele>
        <time>2021-08-11T10:03:37Z</time>
      </trkpt>
      <trkpt lat="45.10988" lon="2.63868">
        <ele>1569.9</ele>
        <time>2021-08-11T10:03:38Z</time>
      </trkpt>
      <trkpt lat="45.10988" lon="2.63869">
        <ele>1570</ele>
        <time>2021-08-11T10:03:39Z</time>
      </trkpt>
      <trkpt lat="45.10988" lon="2.6387">
        <ele>1570.1</ele>
        <time>2021-08-11T10:03:40Z</time>
      </trkpt>
      <trkpt lat="45.10988" lon="2.63871">
        <ele>1570.1</ele>
        <time>2021-08-11T10:03:41Z</time>
      </trkpt>
      <trkpt lat="45.10988" lon="2.63872">
        <ele>1570</ele>
        <time>2021-08-11T10:03:42Z</time>
      </trkpt>
      <trkpt lat="45.10987" lon="2.63872">
        <ele>1569.9</ele>
        <time>2021-08-11T10:03:43Z</time>
      </trkpt>
      <trkpt lat="45.10987" lon="2.63873">
        <ele>1569.8</ele>
        <time>2021-08-11T10:03:44Z</time>
      </trkpt>
      <trkpt lat="45.10987" lon="2.63873">
        <ele>1569.6</ele>
        <time>2021-08-11T10:03:45Z</time>
      </trkpt>
      <trkpt lat="45.10986" lon="2.63873">
        <ele>1569.4</ele>
        <time>2021-08-11T10:03:46Z</time>
      </trkpt>
      <trkpt lat="45.10986" lon="2.63873">
        <ele>1569.2</ele>
        <time>2021-08-11T10:03:47Z</time>
      </trkpt>
      <trkpt lat="45.10986" lon="2.63874">
        <ele>1569.2</ele>
        <time>2021-08-11T10:03:48Z</time>
      </trkpt>
      <trkpt lat="45.10986" lon="2.63874">
        <ele>1569.1</ele>
        <time>2021-08-11T10:03:49Z</time>
      </trkpt>
      <trkpt lat="45.10985" lon="2.63875">
        <ele>1568.9</ele>
        <time>2021-08-11T10:03:50Z</time>
      </trkpt>
      <trkpt lat="45.10985" lon="2.63876">
        <ele>1568.9</ele>
        <time>2021-08-11T10:03:51Z</time>
      </trkpt>
      <trkpt lat="45.10985" lon="2.63877">
        <ele>1569</ele>
        <time>2021-08-11T10:03:52Z</time>
      </trkpt>
      <trkpt lat="45.10985" lon="2.63878">
        <ele>1569.2</ele>
        <time>2021-08-11T10:03:53Z</time>
      </trkpt>
      <trkpt lat="45.10986" lon="2.63879">
        <ele>1569.3</ele>
        <time>2021-08-11T10:03:54Z</time>
      </trkpt>
      <trkpt lat="45.10985" lon="2.6388">
        <ele>1569.2</ele>
        <time>2021-08-11T10:03:55Z</time>
      </trkpt>
      <trkpt lat="45.10985" lon="2.63882">
        <ele>1569.1</ele>
        <time>2021-08-11T10:03:56Z</time>
      </trkpt>
      <trkpt lat="45.10985" lon="2.63883">
        <ele>1568.9</ele>
        <time>2021-08-11T10:03:57Z</time>
      </trkpt>
      <trkpt lat="45.10984" lon="2.63884">
        <ele>1568.7</ele>
        <time>2021-08-11T10:03:58Z</time>
      </trkpt>
      <trkpt lat="45.10984" lon="2.63885">
        <ele>1568.5</ele>
        <time>2021-08-11T10:03:59Z</time>
      </trkpt>
      <trkpt lat="45.10983" lon="2.63887">
        <ele>1568.5</ele>
        <time>2021-08-11T10:04:00Z</time>
      </trkpt>
      <trkpt lat="45.10983" lon="2.63888">
        <ele>1568.4</ele>
        <time>2021-08-11T10:04:01Z</time>
      </trkpt>
      <trkpt lat="45.10983" lon="2.6389">
        <ele>1568.5</ele>
        <time>2021-08-11T10:04:02Z</time>
      </trkpt>
      <trkpt lat="45.10983" lon="2.63892">
        <ele>1568.4</ele>
        <time>2021-08-11T10:04:03Z</time>
      </trkpt>
      <trkpt lat="45.10982" lon="2.63894">
        <ele>1568.2</ele>
        <time>2021-08-11T10:04:04Z</time>
      </trkpt>
      <trkpt lat="45.10982" lon="2.63895">
        <ele>1568</ele>
        <time>2021-08-11T10:04:05Z</time>
      </trkpt>
      <trkpt lat="45.10982" lon="2.63897">
        <ele>1567.8</ele>
        <time>2021-08-11T10:04:06Z</time>
      </trkpt>
      <trkpt lat="45.10981" lon="2.63899">
        <ele>1567.7</ele>
        <time>2021-08-11T10:04:07Z</time>
      </trkpt>
      <trkpt lat="45.10981" lon="2.63901">
        <ele>1567.7</ele>
        <time>2021-08-11T10:04:08Z</time>
      </trkpt>
      <trkpt lat="45.10981" lon="2.63903">
        <ele>1567.6</ele>
        <time>2021-08-11T10:04:09Z</time>
      </trkpt>
      <trkpt lat="45.10981" lon="2.63906">
        <ele>1567.6</ele>
        <time>2021-08-11T10:04:10Z</time>
      </trkpt>
      <trkpt lat="45.10981" lon="2.63908">
        <ele>1567.5</ele>
        <time>2021-08-11T10:04:11Z</time>
      </trkpt>
      <trkpt lat="45.1098" lon="2.6391">
        <ele>1567.4</ele>
        <time>2021-08-11T10:04:12Z</time>
      </trkpt>
      <trkpt lat="45.1098" lon="2.63912">
        <ele>1567.2</ele>
        <time>2021-08-11T10:04:13Z</time>
      </trkpt>
      <trkpt lat="45.10979" lon="2.63915">
        <ele>1567.1</ele>
        <time>2021-08-11T10:04:14Z</time>
      </trkpt>
      <trkpt lat="45.10979" lon="2.63917">
        <ele>1566.8</ele>
        <time>2021-08-11T10:04:15Z</time>
      </trkpt>
      <trkpt lat="45.10979" lon="2.63919">
        <ele>1566.8</ele>
        <time>2021-08-11T10:04:16Z</time>
      </trkpt>
      <trkpt lat="45.10978" lon="2.63921">
        <ele>1566.6</ele>
        <time>2021-08-11T10:04:17Z</time>
      </trkpt>
      <trkpt lat="45.10977" lon="2.63924">
        <ele>1566.5</ele>
        <time>2021-08-11T10:04:18Z</time>
      </trkpt>
      <trkpt lat="45.10977" lon="2.63926">
        <ele>1566.3</ele>
        <time>2021-08-11T10:04:19Z</time>
      </trkpt>
      <trkpt lat="45.10976" lon="2.63928">
        <ele>1566.1</ele>
        <time>2021-08-11T10:04:20Z</time>
      </trkpt>
      <trkpt lat="45.10976" lon="2.63929">
        <ele>1566.1</ele>
        <time>2021-08-11T10:04:21Z</time>
      </trkpt>
      <trkpt lat="45.10975" lon="2.6393">
        <ele>1565.9</ele>
        <time>2021-08-11T10:04:22Z</time>
      </trkpt>
      <trkpt lat="45.10975" lon="2.63931">
        <ele>1565.7</ele>
        <time>2021-08-11T10:04:23Z</time>
      </trkpt>
      <trkpt lat="45.10974" lon="2.63932">
        <ele>1565.4</ele>
        <time>2021-08-11T10:04:24Z</time>
      </trkpt>
      <trkpt lat="45.10973" lon="2.63934">
        <ele>1565.1</ele>
        <time>2021-08-11T10:04:25Z</time>
      </trkpt>
      <trkpt lat="45.10973" lon="2.63935">
        <ele>1565</ele>
        <time>2021-08-11T10:04:26Z</time>
      </trkpt>
      <trkpt lat="45.10972" lon="2.63937">
        <ele>1564.9</ele>
        <time>2021-08-11T10:04:27Z</time>
      </trkpt>
      <trkpt lat="45.10972" lon="2.63939">
        <ele>1564.7</ele>
        <time>2021-08-11T10:04:28Z</time>
      </trkpt>
      <trkpt lat="45.10971" lon="2.6394">
        <ele>1564.4</ele>
        <time>2021-08-11T10:04:29Z</time>
      </trkpt>
      <trkpt lat="45.10971" lon="2.63942">
        <ele>1564.3</ele>
        <time>2021-08-11T10:04:30Z</time>
      </trkpt>
      <trkpt lat="45.1097" lon="2.63943">
        <ele>1564</ele>
        <time>2021-08-11T10:04:31Z</time>
      </trkpt>
      <trkpt lat="45.10969" lon="2.63945">
        <ele>1563.8</ele>
        <time>2021-08-11T10:04:32Z</time>
      </trkpt>
      <trkpt lat="45.10969" lon="2.63947">
        <ele>1563.5</ele>
        <time>2021-08-11T10:04:33Z</time>
      </trkpt>
      <trkpt lat="45.10968" lon="2.63948">
        <ele>1563.3</ele>
        <time>2021-08-11T10:04:34Z</time>
      </trkpt>
      <trkpt lat="45.10968" lon="2.63949">
        <ele>1563.1</ele>
        <time>2021-08-11T10:04:35Z</time>
      </trkpt>
      <trkpt lat="45.10967" lon="2.63951">
        <ele>1563</ele>
        <time>2021-08-11T10:04:36Z</time>
      </trkpt>
      <trkpt lat="45.10967" lon="2.63952">
        <ele>1562.8</ele>
        <time>2021-08-11T10:04:37Z</time>
      </trkpt>
      <trkpt lat="45.10966" lon="2.63954">
        <ele>1562.5</ele>
        <time>2021-08-11T10:04:38Z</time>
      </trkpt>
      <trkpt lat="45.10965" lon="2.63955">
        <ele>1562.1</ele>
        <time>2021-08-11T10:04:39Z</time>
      </trkpt>
      <trkpt lat="45.10964" lon="2.63956">
        <ele>1561.7</ele>
        <time>2021-08-11T10:04:40Z</time>
      </trkpt>
      <trkpt lat="45.10964" lon="2.63957">
        <ele>1561.3</ele>
        <time>2021-08-11T10:04:41Z</time>
      </trkpt>
      <trkpt lat="45.10963" lon="2.63958">
        <ele>1560.9</ele>
        <time>2021-08-11T10:04:42Z</time>
      </trkpt>
      <trkpt lat="45.10962" lon="2.6396">
        <ele>1560.7</ele>
        <time>2021-08-11T10:04:43Z</time>
      </trkpt>
      <trkpt lat="45.10961" lon="2.63961">
        <ele>1560.3</ele>
        <time>2021-08-11T10:04:44Z</time>
      </trkpt>
      <trkpt lat="45.10961" lon="2.63962">
        <ele>1560.1</ele>
        <time>2021-08-11T10:04:45Z</time>
      </trkpt>
      <trkpt lat="45.10961" lon="2.63963">
        <ele>1560</ele>
        <time>2021-08-11T10:04:46Z</time>
      </trkpt>
      <trkpt lat="45.10961" lon="2.63964">
        <ele>1560.1</ele>
        <time>2021-08-11T10:04:47Z</time>
      </trkpt>
      <trkpt lat="45.10961" lon="2.63965">
        <ele>1560.1</ele>
        <time>2021-08-11T10:04:48Z</time>
      </trkpt>
      <trkpt lat="45.10961" lon="2.63966">
        <ele>1560.4</ele>
        <time>2021-08-11T10:04:49Z</time>
      </trkpt>
      <trkpt lat="45.10961" lon="2.63967">
        <ele>1560.5</ele>
        <time>2021-08-11T10:04:50Z</time>
      </trkpt>
      <trkpt lat="45.10961" lon="2.63968">
        <ele>1560.6</ele>
        <time>2021-08-11T10:04:51Z</time>
      </trkpt>
      <trkpt lat="45.10961" lon="2.6397">
        <ele>1560.7</ele>
        <time>2021-08-11T10:04:52Z</time>
      </trkpt>
      <trkpt lat="45.10961" lon="2.63971">
        <ele>1560.8</ele>
        <time>2021-08-11T10:04:53Z</time>
      </trkpt>
      <trkpt lat="45.10961" lon="2.63972">
        <ele>1560.9</ele>
        <time>2021-08-11T10:04:54Z</time>
      </trkpt>
      <trkpt lat="45.10961" lon="2.63973">
        <ele>1560.9</ele>
        <time>2021-08-11T10:04:55Z</time>
      </trkpt>
      <trkpt lat="45.10961" lon="2.63974">
        <ele>1560.8</ele>
        <time>2021-08-11T10:04:56Z</time>
      </trkpt>
      <trkpt lat="45.10961" lon="2.63975">
        <ele>1560.8</ele>
        <time>2021-08-11T10:04:57Z</time>
      </trkpt>
      <trkpt lat="45.1096" lon="2.63976">
        <ele>1560.7</ele>
        <time>2021-08-11T10:04:58Z</time>
      </trkpt>
      <trkpt lat="45.1096" lon="2.63977">
        <ele>1560.7</ele>
        <time>2021-08-11T10:04:59Z</time>
      </trkpt>
      <trkpt lat="45.1096" lon="2.63978">
        <ele>1560.4</ele>
        <time>2021-08-11T10:05:00Z</time>
      </trkpt>
      <trkpt lat="45.1096" lon="2.63978">
        <ele>1560.4</ele>
        <time>2021-08-11T10:05:01Z</time>
      </trkpt>
      <trkpt lat="45.10959" lon="2.6398">
        <ele>1560.4</ele>
        <time>2021-08-11T10:05:02Z</time>
      </trkpt>
      <trkpt lat="45.10959" lon="2.63981">
        <ele>1560.3</ele>
        <time>2021-08-11T10:05:03Z</time>
      </trkpt>
      <trkpt lat="45.10959" lon="2.63981">
        <ele>1560.2</ele>
        <time>2021-08-11T10:05:04Z</time>
      </trkpt>
      <trkpt lat="45.10958" lon="2.63982">
        <ele>1559.8</ele>
        <time>2021-08-11T10:05:05Z</time>
      </trkpt>
      <trkpt lat="45.10958" lon="2.63983">
        <ele>1559.7</ele>
        <time>2021-08-11T10:05:06Z</time>
      </trkpt>
      <trkpt lat="45.10958" lon="2.63984">
        <ele>1559.6</ele>
        <time>2021-08-11T10:05:07Z</time>
      </trkpt>
      <trkpt lat="45.10957" lon="2.63986">
        <ele>1559.6</ele>
        <time>2021-08-11T10:05:08Z</time>
      </trkpt>
      <trkpt lat="45.10957" lon="2.63987">
        <ele>1559.5</ele>
        <time>2021-08-11T10:05:09Z</time>
      </trkpt>
      <trkpt lat="45.10957" lon="2.63989">
        <ele>1559.5</ele>
        <time>2021-08-11T10:05:10Z</time>
      </trkpt>
      <trkpt lat="45.10957" lon="2.6399">
        <ele>1559.5</ele>
        <time>2021-08-11T10:05:11Z</time>
      </trkpt>
      <trkpt lat="45.10957" lon="2.63992">
        <ele>1559.5</ele>
        <time>2021-08-11T10:05:12Z</time>
      </trkpt>
      <trkpt lat="45.10956" lon="2.63994">
        <ele>1559.4</ele>
        <time>2021-08-11T10:05:13Z</time>
      </trkpt>
      <trkpt lat="45.10956" lon="2.63996">
        <ele>1559.4</ele>
        <time>2021-08-11T10:05:14Z</time>
      </trkpt>
      <trkpt lat="45.10956" lon="2.63997">
        <ele>1559.4</ele>
        <time>2021-08-11T10:05:15Z</time>
      </trkpt>
      <trkpt lat="45.10956" lon="2.63999">
        <ele>1559.3</ele>
        <time>2021-08-11T10:05:16Z</time>
      </trkpt>
      <trkpt lat="45.10956" lon="2.64001">
        <ele>1559.4</ele>
        <time>2021-08-11T10:05:17Z</time>
      </trkpt>
      <trkpt lat="45.10956" lon="2.64002">
        <ele>1559.4</ele>
        <time>2021-08-11T10:05:18Z</time>
      </trkpt>
      <trkpt lat="45.10955" lon="2.64003">
        <ele>1559.4</ele>
        <time>2021-08-11T10:05:19Z</time>
      </trkpt>
      <trkpt lat="45.10955" lon="2.64004">
        <ele>1559.3</ele>
        <time>2021-08-11T10:05:20Z</time>
      </trkpt>
      <trkpt lat="45.10955" lon="2.64005">
        <ele>1559.2</ele>
        <time>2021-08-11T10:05:21Z</time>
      </trkpt>
      <trkpt lat="45.10955" lon="2.64006">
        <ele>1559</ele>
        <time>2021-08-11T10:05:22Z</time>
      </trkpt>
      <trkpt lat="45.10954" lon="2.64007">
        <ele>1558.9</ele>
        <time>2021-08-11T10:05:23Z</time>
      </trkpt>
      <trkpt lat="45.10954" lon="2.64008">
        <ele>1558.6</ele>
        <time>2021-08-11T10:05:24Z</time>
      </trkpt>
      <trkpt lat="45.10953" lon="2.6401">
        <ele>1558.5</ele>
        <time>2021-08-11T10:05:25Z</time>
      </trkpt>
      <trkpt lat="45.10953" lon="2.64012">
        <ele>1558.4</ele>
        <time>2021-08-11T10:05:26Z</time>
      </trkpt>
      <trkpt lat="45.10953" lon="2.64013">
        <ele>1558.2</ele>
        <time>2021-08-11T10:05:27Z</time>
      </trkpt>
      <trkpt lat="45.10952" lon="2.64015">
        <ele>1557.9</ele>
        <time>2021-08-11T10:05:28Z</time>
      </trkpt>
      <trkpt lat="45.10952" lon="2.64016">
        <ele>1557.8</ele>
        <time>2021-08-11T10:05:29Z</time>
      </trkpt>
      <trkpt lat="45.10951" lon="2.64018">
        <ele>1557.8</ele>
        <time>2021-08-11T10:05:30Z</time>
      </trkpt>
      <trkpt lat="45.10951" lon="2.64019">
        <ele>1557.8</ele>
        <time>2021-08-11T10:05:31Z</time>
      </trkpt>
      <trkpt lat="45.10951" lon="2.64021">
        <ele>1557.7</ele>
        <time>2021-08-11T10:05:32Z</time>
      </trkpt>
      <trkpt lat="45.10951" lon="2.64022">
        <ele>1557.6</ele>
        <time>2021-08-11T10:05:33Z</time>
      </trkpt>
      <trkpt lat="45.1095" lon="2.64024">
        <ele>1557.5</ele>
        <time>2021-08-11T10:05:34Z</time>
      </trkpt>
      <trkpt lat="45.1095" lon="2.64025">
        <ele>1557.5</ele>
        <time>2021-08-11T10:05:35Z</time>
      </trkpt>
      <trkpt lat="45.1095" lon="2.64026">
        <ele>1557.6</ele>
        <time>2021-08-11T10:05:36Z</time>
      </trkpt>
      <trkpt lat="45.1095" lon="2.64027">
        <ele>1557.7</ele>
        <time>2021-08-11T10:05:37Z</time>
      </trkpt>
      <trkpt lat="45.10951" lon="2.64028">
        <ele>1557.8</ele>
        <time>2021-08-11T10:05:38Z</time>
      </trkpt>
      <trkpt lat="45.1095" lon="2.64029">
        <ele>1557.8</ele>
        <time>2021-08-11T10:05:39Z</time>
      </trkpt>
      <trkpt lat="45.1095" lon="2.64029">
        <ele>1557.6</ele>
        <time>2021-08-11T10:05:40Z</time>
      </trkpt>
      <trkpt lat="45.1095" lon="2.6403">
        <ele>1557.4</ele>
        <time>2021-08-11T10:05:41Z</time>
      </trkpt>
      <trkpt lat="45.10949" lon="2.64031">
        <ele>1557.1</ele>
        <time>2021-08-11T10:05:42Z</time>
      </trkpt>
      <trkpt lat="45.10948" lon="2.64031">
        <ele>1556.7</ele>
        <time>2021-08-11T10:05:43Z</time>
      </trkpt>
      <trkpt lat="45.10948" lon="2.64032">
        <ele>1556.6</ele>
        <time>2021-08-11T10:05:44Z</time>
      </trkpt>
      <trkpt lat="45.10948" lon="2.64033">
        <ele>1556.7</ele>
        <time>2021-08-11T10:05:45Z</time>
      </trkpt>
      <trkpt lat="45.10948" lon="2.64035">
        <ele>1556.7</ele>
        <time>2021-08-11T10:05:46Z</time>
      </trkpt>
      <trkpt lat="45.10948" lon="2.64036">
        <ele>1556.6</ele>
        <time>2021-08-11T10:05:47Z</time>
      </trkpt>
      <trkpt lat="45.10948" lon="2.64037">
        <ele>1556.6</ele>
        <time>2021-08-11T10:05:48Z</time>
      </trkpt>
      <trkpt lat="45.10947" lon="2.64038">
        <ele>1556.5</ele>
        <time>2021-08-11T10:05:49Z</time>
      </trkpt>
      <trkpt lat="45.10947" lon="2.6404">
        <ele>1556.5</ele>
        <time>2021-08-11T10:05:50Z</time>
      </trkpt>
      <trkpt lat="45.10947" lon="2.64041">
        <ele>1556.5</ele>
        <time>2021-08-11T10:05:51Z</time>
      </trkpt>
      <trkpt lat="45.10947" lon="2.64042">
        <ele>1556.5</ele>
        <time>2021-08-11T10:05:52Z</time>
      </trkpt>
      <trkpt lat="45.10947" lon="2.64043">
        <ele>1556.5</ele>
        <time>2021-08-11T10:05:53Z</time>
      </trkpt>
      <trkpt lat="45.10946" lon="2.64044">
        <ele>1556.3</ele>
        <time>2021-08-11T10:05:54Z</time>
      </trkpt>
      <trkpt lat="45.10946" lon="2.64045">
        <ele>1556.1</ele>
        <time>2021-08-11T10:05:55Z</time>
      </trkpt>
      <trkpt lat="45.10946" lon="2.64046">
        <ele>1555.9</ele>
        <time>2021-08-11T10:05:56Z</time>
      </trkpt>
      <trkpt lat="45.10945" lon="2.64047">
        <ele>1555.8</ele>
        <time>2021-08-11T10:05:57Z</time>
      </trkpt>
      <trkpt lat="45.10945" lon="2.64047">
        <ele>1555.6</ele>
        <time>2021-08-11T10:05:58Z</time>
      </trkpt>
      <trkpt lat="45.10945" lon="2.64048">
        <ele>1555.5</ele>
        <time>2021-08-11T10:05:59Z</time>
      </trkpt>
      <trkpt lat="45.10944" lon="2.6405">
        <ele>1555.3</ele>
        <time>2021-08-11T10:06:00Z</time>
      </trkpt>
      <trkpt lat="45.10944" lon="2.64051">
        <ele>1555</ele>
        <time>2021-08-11T10:06:01Z</time>
      </trkpt>
      <trkpt lat="45.10943" lon="2.64052">
        <ele>1554.8</ele>
        <time>2021-08-11T10:06:02Z</time>
      </trkpt>
      <trkpt lat="45.10943" lon="2.64053">
        <ele>1554.8</ele>
        <time>2021-08-11T10:06:03Z</time>
      </trkpt>
      <trkpt lat="45.10943" lon="2.64054">
        <ele>1554.8</ele>
        <time>2021-08-11T10:06:04Z</time>
      </trkpt>
      <trkpt lat="45.10943" lon="2.64055">
        <ele>1555</ele>
        <time>2021-08-11T10:06:05Z</time>
      </trkpt>
      <trkpt lat="45.10943" lon="2.64057">
        <ele>1555</ele>
        <time>2021-08-11T10:06:06Z</time>
      </trkpt>
      <trkpt lat="45.10943" lon="2.64058">
        <ele>1555.1</ele>
        <time>2021-08-11T10:06:07Z</time>
      </trkpt>
      <trkpt lat="45.10943" lon="2.6406">
        <ele>1554.9</ele>
        <time>2021-08-11T10:06:08Z</time>
      </trkpt>
      <trkpt lat="45.10942" lon="2.64061">
        <ele>1554.8</ele>
        <time>2021-08-11T10:06:09Z</time>
      </trkpt>
      <trkpt lat="45.10942" lon="2.64062">
        <ele>1554.7</ele>
        <time>2021-08-11T10:06:10Z</time>
      </trkpt>
      <trkpt lat="45.10942" lon="2.64063">
        <ele>1554.6</ele>
        <time>2021-08-11T10:06:11Z</time>
      </trkpt>
      <trkpt lat="45.10941" lon="2.64064">
        <ele>1554.3</ele>
        <time>2021-08-11T10:06:12Z</time>
      </trkpt>
      <trkpt lat="45.10941" lon="2.64065">
        <ele>1554.2</ele>
        <time>2021-08-11T10:06:13Z</time>
      </trkpt>
      <trkpt lat="45.10941" lon="2.64066">
        <ele>1554.1</ele>
        <time>2021-08-11T10:06:14Z</time>
      </trkpt>
      <trkpt lat="45.1094" lon="2.64068">
        <ele>1554</ele>
        <time>2021-08-11T10:06:15Z</time>
      </trkpt>
      <trkpt lat="45.1094" lon="2.64069">
        <ele>1554.1</ele>
        <time>2021-08-11T10:06:16Z</time>
      </trkpt>
      <trkpt lat="45.1094" lon="2.64071">
        <ele>1554.1</ele>
        <time>2021-08-11T10:06:17Z</time>
      </trkpt>
      <trkpt lat="45.1094" lon="2.64072">
        <ele>1554</ele>
        <time>2021-08-11T10:06:18Z</time>
      </trkpt>
      <trkpt lat="45.1094" lon="2.64073">
        <ele>1554</ele>
        <time>2021-08-11T10:06:19Z</time>
      </trkpt>
      <trkpt lat="45.1094" lon="2.64074">
        <ele>1554</ele>
        <time>2021-08-11T10:06:20Z</time>
      </trkpt>
      <trkpt lat="45.10939" lon="2.64075">
        <ele>1553.9</ele>
        <time>2021-08-11T10:06:21Z</time>
      </trkpt>
      <trkpt lat="45.10939" lon="2.64076">
        <ele>1553.6</ele>
        <time>2021-08-11T10:06:22Z</time>
      </trkpt>
      <trkpt lat="45.10939" lon="2.64078">
        <ele>1553.5</ele>
        <time>2021-08-11T10:06:23Z</time>
      </trkpt>
      <trkpt lat="45.10938" lon="2.64079">
        <ele>1553.5</ele>
        <time>2021-08-11T10:06:24Z</time>
      </trkpt>
      <trkpt lat="45.10938" lon="2.6408">
        <ele>1553.5</ele>
        <time>2021-08-11T10:06:25Z</time>
      </trkpt>
      <trkpt lat="45.10938" lon="2.64082">
        <ele>1553.3</ele>
        <time>2021-08-11T10:06:26Z</time>
      </trkpt>
      <trkpt lat="45.10938" lon="2.64083">
        <ele>1553.2</ele>
        <time>2021-08-11T10:06:27Z</time>
      </trkpt>
      <trkpt lat="45.10937" lon="2.64084">
        <ele>1553</ele>
        <time>2021-08-11T10:06:28Z</time>
      </trkpt>
      <trkpt lat="45.10937" lon="2.64085">
        <ele>1552.8</ele>
        <time>2021-08-11T10:06:29Z</time>
      </trkpt>
      <trkpt lat="45.10936" lon="2.64087">
        <ele>1552.6</ele>
        <time>2021-08-11T10:06:30Z</time>
      </trkpt>
      <trkpt lat="45.10936" lon="2.64089">
        <ele>1552.5</ele>
        <time>2021-08-11T10:06:31Z</time>
      </trkpt>
      <trkpt lat="45.10936" lon="2.6409">
        <ele>1552.4</ele>
        <time>2021-08-11T10:06:32Z</time>
      </trkpt>
      <trkpt lat="45.10935" lon="2.64092">
        <ele>1552.3</ele>
        <time>2021-08-11T10:06:33Z</time>
      </trkpt>
      <trkpt lat="45.10935" lon="2.64093">
        <ele>1552.3</ele>
        <time>2021-08-11T10:06:34Z</time>
      </trkpt>
      <trkpt lat="45.10935" lon="2.64095">
        <ele>1552.2</ele>
        <time>2021-08-11T10:06:35Z</time>
      </trkpt>
      <trkpt lat="45.10935" lon="2.64096">
        <ele>1552</ele>
        <time>2021-08-11T10:06:36Z</time>
      </trkpt>
      <trkpt lat="45.10934" lon="2.64097">
        <ele>1551.8</ele>
        <time>2021-08-11T10:06:37Z</time>
      </trkpt>
      <trkpt lat="45.10934" lon="2.64099">
        <ele>1551.5</ele>
        <time>2021-08-11T10:06:38Z</time>
      </trkpt>
      <trkpt lat="45.10933" lon="2.641">
        <ele>1551.2</ele>
        <time>2021-08-11T10:06:39Z</time>
      </trkpt>
      <trkpt lat="45.10933" lon="2.64102">
        <ele>1551</ele>
        <time>2021-08-11T10:06:40Z</time>
      </trkpt>
      <trkpt lat="45.10932" lon="2.64103">
        <ele>1551</ele>
        <time>2021-08-11T10:06:41Z</time>
      </trkpt>
      <trkpt lat="45.10932" lon="2.64104">
        <ele>1550.9</ele>
        <time>2021-08-11T10:06:42Z</time>
      </trkpt>
      <trkpt lat="45.10932" lon="2.64106">
        <ele>1550.9</ele>
        <time>2021-08-11T10:06:43Z</time>
      </trkpt>
      <trkpt lat="45.10932" lon="2.64107">
        <ele>1551</ele>
        <time>2021-08-11T10:06:44Z</time>
      </trkpt>
      <trkpt lat="45.10932" lon="2.64108">
        <ele>1551.1</ele>
        <time>2021-08-11T10:06:45Z</time>
      </trkpt>
      <trkpt lat="45.10932" lon="2.64109">
        <ele>1551.1</ele>
        <time>2021-08-11T10:06:46Z</time>
      </trkpt>
      <trkpt lat="45.10932" lon="2.6411">
        <ele>1551</ele>
        <time>2021-08-11T10:06:47Z</time>
      </trkpt>
      <trkpt lat="45.10932" lon="2.64111">
        <ele>1551.1</ele>
        <time>2021-08-11T10:06:48Z</time>
      </trkpt>
      <trkpt lat="45.10932" lon="2.64112">
        <ele>1551</ele>
        <time>2021-08-11T10:06:49Z</time>
      </trkpt>
      <trkpt lat="45.10932" lon="2.64113">
        <ele>1550.8</ele>
        <time>2021-08-11T10:06:50Z</time>
      </trkpt>
      <trkpt lat="45.10931" lon="2.64114">
        <ele>1550.7</ele>
        <time>2021-08-11T10:06:51Z</time>
      </trkpt>
      <trkpt lat="45.10931" lon="2.64114">
        <ele>1550.6</ele>
        <time>2021-08-11T10:06:52Z</time>
      </trkpt>
      <trkpt lat="45.10931" lon="2.64116">
        <ele>1550.4</ele>
        <time>2021-08-11T10:06:53Z</time>
      </trkpt>
      <trkpt lat="45.1093" lon="2.64117">
        <ele>1550.3</ele>
        <time>2021-08-11T10:06:54Z</time>
      </trkpt>
      <trkpt lat="45.10931" lon="2.64118">
        <ele>1550.5</ele>
        <time>2021-08-11T10:06:55Z</time>
      </trkpt>
      <trkpt lat="45.10931" lon="2.6412">
        <ele>1550.5</ele>
        <time>2021-08-11T10:06:56Z</time>
      </trkpt>
      <trkpt lat="45.1093" lon="2.64121">
        <ele>1550.5</ele>
        <time>2021-08-11T10:06:57Z</time>
      </trkpt>
      <trkpt lat="45.1093" lon="2.64122">
        <ele>1550.4</ele>
        <time>2021-08-11T10:06:58Z</time>
      </trkpt>
      <trkpt lat="45.1093" lon="2.64123">
        <ele>1550.4</ele>
        <time>2021-08-11T10:06:59Z</time>
      </trkpt>
      <trkpt lat="45.1093" lon="2.64125">
        <ele>1550.3</ele>
        <time>2021-08-11T10:07:00Z</time>
      </trkpt>
      <trkpt lat="45.1093" lon="2.64126">
        <ele>1550.1</ele>
        <time>2021-08-11T10:07:01Z</time>
      </trkpt>
      <trkpt lat="45.10929" lon="2.64127">
        <ele>1550.1</ele>
        <time>2021-08-11T10:07:02Z</time>
      </trkpt>
      <trkpt lat="45.10929" lon="2.64128">
        <ele>1550</ele>
        <time>2021-08-11T10:07:03Z</time>
      </trkpt>
      <trkpt lat="45.10929" lon="2.6413">
        <ele>1550</ele>
        <time>2021-08-11T10:07:04Z</time>
      </trkpt>
      <trkpt lat="45.10929" lon="2.64131">
        <ele>1549.8</ele>
        <time>2021-08-11T10:07:05Z</time>
      </trkpt>
      <trkpt lat="45.10929" lon="2.64132">
        <ele>1549.8</ele>
        <time>2021-08-11T10:07:06Z</time>
      </trkpt>
      <trkpt lat="45.10929" lon="2.64133">
        <ele>1549.8</ele>
        <time>2021-08-11T10:07:07Z</time>
      </trkpt>
      <trkpt lat="45.10928" lon="2.64134">
        <ele>1549.8</ele>
        <time>2021-08-11T10:07:08Z</time>
      </trkpt>
      <trkpt lat="45.10928" lon="2.64136">
        <ele>1549.6</ele>
        <time>2021-08-11T10:07:09Z</time>
      </trkpt>
      <trkpt lat="45.10928" lon="2.64137">
        <ele>1549.4</ele>
        <time>2021-08-11T10:07:10Z</time>
      </trkpt>
      <trkpt lat="45.10927" lon="2.64138">
        <ele>1549.2</ele>
        <time>2021-08-11T10:07:11Z</time>
      </trkpt>
      <trkpt lat="45.10927" lon="2.64139">
        <ele>1549.1</ele>
        <time>2021-08-11T10:07:12Z</time>
      </trkpt>
      <trkpt lat="45.10926" lon="2.6414">
        <ele>1548.8</ele>
        <time>2021-08-11T10:07:13Z</time>
      </trkpt>
      <trkpt lat="45.10926" lon="2.64141">
        <ele>1548.4</ele>
        <time>2021-08-11T10:07:14Z</time>
      </trkpt>
      <trkpt lat="45.10926" lon="2.64142">
        <ele>1548.4</ele>
        <time>2021-08-11T10:07:15Z</time>
      </trkpt>
      <trkpt lat="45.10925" lon="2.64143">
        <ele>1548.2</ele>
        <time>2021-08-11T10:07:16Z</time>
      </trkpt>
      <trkpt lat="45.10925" lon="2.64144">
        <ele>1548.1</ele>
        <time>2021-08-11T10:07:17Z</time>
      </trkpt>
      <trkpt lat="45.10925" lon="2.64145">
        <ele>1548</ele>
        <time>2021-08-11T10:07:18Z</time>
      </trkpt>
      <trkpt lat="45.10925" lon="2.64146">
        <ele>1547.9</ele>
        <time>2021-08-11T10:07:19Z</time>
      </trkpt>
      <trkpt lat="45.10924" lon="2.64147">
        <ele>1547.8</ele>
        <time>2021-08-11T10:07:20Z</time>
      </trkpt>
      <trkpt lat="45.10924" lon="2.64149">
        <ele>1547.7</ele>
        <time>2021-08-11T10:07:21Z</time>
      </trkpt>
      <trkpt lat="45.10924" lon="2.6415">
        <ele>1547.8</ele>
        <time>2021-08-11T10:07:22Z</time>
      </trkpt>
      <trkpt lat="45.10924" lon="2.64151">
        <ele>1547.6</ele>
        <time>2021-08-11T10:07:23Z</time>
      </trkpt>
      <trkpt lat="45.10923" lon="2.64152">
        <ele>1547.5</ele>
        <time>2021-08-11T10:07:24Z</time>
      </trkpt>
      <trkpt lat="45.10923" lon="2.64153">
        <ele>1547.3</ele>
        <time>2021-08-11T10:07:25Z</time>
      </trkpt>
      <trkpt lat="45.10923" lon="2.64154">
        <ele>1547</ele>
        <time>2021-08-11T10:07:26Z</time>
      </trkpt>
      <trkpt lat="45.10922" lon="2.64155">
        <ele>1547</ele>
        <time>2021-08-11T10:07:27Z</time>
      </trkpt>
      <trkpt lat="45.10922" lon="2.64157">
        <ele>1546.9</ele>
        <time>2021-08-11T10:07:28Z</time>
      </trkpt>
      <trkpt lat="45.10922" lon="2.64158">
        <ele>1546.9</ele>
        <time>2021-08-11T10:07:29Z</time>
      </trkpt>
      <trkpt lat="45.10922" lon="2.6416">
        <ele>1546.8</ele>
        <time>2021-08-11T10:07:30Z</time>
      </trkpt>
      <trkpt lat="45.10922" lon="2.64161">
        <ele>1546.9</ele>
        <time>2021-08-11T10:07:31Z</time>
      </trkpt>
      <trkpt lat="45.10922" lon="2.64162">
        <ele>1547</ele>
        <time>2021-08-11T10:07:32Z</time>
      </trkpt>
      <trkpt lat="45.10922" lon="2.64164">
        <ele>1547.2</ele>
        <time>2021-08-11T10:07:33Z</time>
      </trkpt>
      <trkpt lat="45.10922" lon="2.64165">
        <ele>1547.3</ele>
        <time>2021-08-11T10:07:34Z</time>
      </trkpt>
      <trkpt lat="45.10922" lon="2.64167">
        <ele>1547.4</ele>
        <time>2021-08-11T10:07:35Z</time>
      </trkpt>
      <trkpt lat="45.10922" lon="2.64168">
        <ele>1547.2</ele>
        <time>2021-08-11T10:07:36Z</time>
      </trkpt>
      <trkpt lat="45.10922" lon="2.64169">
        <ele>1547</ele>
        <time>2021-08-11T10:07:37Z</time>
      </trkpt>
      <trkpt lat="45.10921" lon="2.6417">
        <ele>1546.7</ele>
        <time>2021-08-11T10:07:38Z</time>
      </trkpt>
      <trkpt lat="45.10921" lon="2.64171">
        <ele>1546.5</ele>
        <time>2021-08-11T10:07:39Z</time>
      </trkpt>
      <trkpt lat="45.10921" lon="2.64172">
        <ele>1546.4</ele>
        <time>2021-08-11T10:07:40Z</time>
      </trkpt>
      <trkpt lat="45.1092" lon="2.64173">
        <ele>1546.2</ele>
        <time>2021-08-11T10:07:41Z</time>
      </trkpt>
      <trkpt lat="45.1092" lon="2.64174">
        <ele>1546.1</ele>
        <time>2021-08-11T10:07:42Z</time>
      </trkpt>
      <trkpt lat="45.1092" lon="2.64175">
        <ele>1546.2</ele>
        <time>2021-08-11T10:07:43Z</time>
      </trkpt>
      <trkpt lat="45.1092" lon="2.64176">
        <ele>1546.1</ele>
        <time>2021-08-11T10:07:44Z</time>
      </trkpt>
      <trkpt lat="45.1092" lon="2.64178">
        <ele>1546</ele>
        <time>2021-08-11T10:07:45Z</time>
      </trkpt>
      <trkpt lat="45.10919" lon="2.64179">
        <ele>1545.5</ele>
        <time>2021-08-11T10:07:46Z</time>
      </trkpt>
      <trkpt lat="45.10919" lon="2.6418">
        <ele>1545.3</ele>
        <time>2021-08-11T10:07:47Z</time>
      </trkpt>
      <trkpt lat="45.10918" lon="2.64181">
        <ele>1545</ele>
        <time>2021-08-11T10:07:48Z</time>
      </trkpt>
      <trkpt lat="45.10918" lon="2.64182">
        <ele>1544.7</ele>
        <time>2021-08-11T10:07:49Z</time>
      </trkpt>
      <trkpt lat="45.10917" lon="2.64184">
        <ele>1544.6</ele>
        <time>2021-08-11T10:07:50Z</time>
      </trkpt>
      <trkpt lat="45.10917" lon="2.64185">
        <ele>1544.6</ele>
        <time>2021-08-11T10:07:51Z</time>
      </trkpt>
      <trkpt lat="45.10917" lon="2.64186">
        <ele>1544.6</ele>
        <time>2021-08-11T10:07:52Z</time>
      </trkpt>
      <trkpt lat="45.10918" lon="2.64187">
        <ele>1544.7</ele>
        <time>2021-08-11T10:07:53Z</time>
      </trkpt>
      <trkpt lat="45.10918" lon="2.64188">
        <ele>1544.8</ele>
        <time>2021-08-11T10:07:54Z</time>
      </trkpt>
      <trkpt lat="45.10918" lon="2.64189">
        <ele>1545</ele>
        <time>2021-08-11T10:07:55Z</time>
      </trkpt>
      <trkpt lat="45.10918" lon="2.6419">
        <ele>1545</ele>
        <time>2021-08-11T10:07:56Z</time>
      </trkpt>
      <trkpt lat="45.10918" lon="2.64191">
        <ele>1544.9</ele>
        <time>2021-08-11T10:07:57Z</time>
      </trkpt>
      <trkpt lat="45.10918" lon="2.64192">
        <ele>1544.8</ele>
        <time>2021-08-11T10:07:58Z</time>
      </trkpt>
      <trkpt lat="45.10917" lon="2.64193">
        <ele>1544.6</ele>
        <time>2021-08-11T10:07:59Z</time>
      </trkpt>
      <trkpt lat="45.10917" lon="2.64193">
        <ele>1544.5</ele>
        <time>2021-08-11T10:08:00Z</time>
      </trkpt>
      <trkpt lat="45.10917" lon="2.64194">
        <ele>1544.4</ele>
        <time>2021-08-11T10:08:01Z</time>
      </trkpt>
      <trkpt lat="45.10917" lon="2.64195">
        <ele>1544.3</ele>
        <time>2021-08-11T10:08:02Z</time>
      </trkpt>
      <trkpt lat="45.10917" lon="2.64196">
        <ele>1544.4</ele>
        <time>2021-08-11T10:08:03Z</time>
      </trkpt>
      <trkpt lat="45.10916" lon="2.64197">
        <ele>1544.2</ele>
        <time>2021-08-11T10:08:04Z</time>
      </trkpt>
      <trkpt lat="45.10916" lon="2.64198">
        <ele>1544.1</ele>
        <time>2021-08-11T10:08:05Z</time>
      </trkpt>
      <trkpt lat="45.10916" lon="2.64199">
        <ele>1543.9</ele>
        <time>2021-08-11T10:08:06Z</time>
      </trkpt>
      <trkpt lat="45.10915" lon="2.642">
        <ele>1543.8</ele>
        <time>2021-08-11T10:08:07Z</time>
      </trkpt>
      <trkpt lat="45.10915" lon="2.64202">
        <ele>1543.7</ele>
        <time>2021-08-11T10:08:08Z</time>
      </trkpt>
      <trkpt lat="45.10915" lon="2.64203">
        <ele>1543.6</ele>
        <time>2021-08-11T10:08:09Z</time>
      </trkpt>
      <trkpt lat="45.10915" lon="2.64204">
        <ele>1543.6</ele>
        <time>2021-08-11T10:08:10Z</time>
      </trkpt>
      <trkpt lat="45.10915" lon="2.64205">
        <ele>1543.7</ele>
        <time>2021-08-11T10:08:11Z</time>
      </trkpt>
      <trkpt lat="45.10915" lon="2.64206">
        <ele>1543.7</ele>
        <time>2021-08-11T10:08:12Z</time>
      </trkpt>
      <trkpt lat="45.10915" lon="2.64207">
        <ele>1543.7</ele>
        <time>2021-08-11T10:08:13Z</time>
      </trkpt>
      <trkpt lat="45.10915" lon="2.64207">
        <ele>1543.8</ele>
        <time>2021-08-11T10:08:14Z</time>
      </trkpt>
      <trkpt lat="45.10915" lon="2.64208">
        <ele>1543.8</ele>
        <time>2021-08-11T10:08:15Z</time>
      </trkpt>
      <trkpt lat="45.10915" lon="2.64209">
        <ele>1543.8</ele>
        <time>2021-08-11T10:08:16Z</time>
      </trkpt>
      <trkpt lat="45.10915" lon="2.6421">
        <ele>1543.9</ele>
        <time>2021-08-11T10:08:17Z</time>
      </trkpt>
      <trkpt lat="45.10915" lon="2.64211">
        <ele>1543.9</ele>
        <time>2021-08-11T10:08:18Z</time>
      </trkpt>
      <trkpt lat="45.10915" lon="2.64212">
        <ele>1543.7</ele>
        <time>2021-08-11T10:08:19Z</time>
      </trkpt>
      <trkpt lat="45.10915" lon="2.64213">
        <ele>1543.7</ele>
        <time>2021-08-11T10:08:20Z</time>
      </trkpt>
      <trkpt lat="45.10914" lon="2.64214">
        <ele>1543.5</ele>
        <time>2021-08-11T10:08:21Z</time>
      </trkpt>
      <trkpt lat="45.10914" lon="2.64215">
        <ele>1543.3</ele>
        <time>2021-08-11T10:08:22Z</time>
      </trkpt>
      <trkpt lat="45.10914" lon="2.64216">
        <ele>1543.3</ele>
        <time>2021-08-11T10:08:23Z</time>
      </trkpt>
      <trkpt lat="45.10914" lon="2.64218">
        <ele>1543.2</ele>
        <time>2021-08-11T10:08:24Z</time>
      </trkpt>
      <trkpt lat="45.10914" lon="2.64219">
        <ele>1543.3</ele>
        <time>2021-08-11T10:08:25Z</time>
      </trkpt>
      <trkpt lat="45.10914" lon="2.6422">
        <ele>1543.3</ele>
        <time>2021-08-11T10:08:26Z</time>
      </trkpt>
      <trkpt lat="45.10914" lon="2.64221">
        <ele>1543.3</ele>
        <time>2021-08-11T10:08:27Z</time>
      </trkpt>
      <trkpt lat="45.10914" lon="2.64222">
        <ele>1543.4</ele>
        <time>2021-08-11T10:08:28Z</time>
      </trkpt>
      <trkpt lat="45.10914" lon="2.64223">
        <ele>1543.3</ele>
        <time>2021-08-11T10:08:29Z</time>
      </trkpt>
      <trkpt lat="45.10913" lon="2.64224">
        <ele>1543.1</ele>
        <time>2021-08-11T10:08:30Z</time>
      </trkpt>
      <trkpt lat="45.10913" lon="2.64226">
        <ele>1542.9</ele>
        <time>2021-08-11T10:08:31Z</time>
      </trkpt>
      <trkpt lat="45.10912" lon="2.64228">
        <ele>1542.9</ele>
        <time>2021-08-11T10:08:32Z</time>
      </trkpt>
      <trkpt lat="45.10912" lon="2.64229">
        <ele>1542.7</ele>
        <time>2021-08-11T10:08:33Z</time>
      </trkpt>
      <trkpt lat="45.10912" lon="2.64231">
        <ele>1542.7</ele>
        <time>2021-08-11T10:08:34Z</time>
      </trkpt>
      <trkpt lat="45.10912" lon="2.64232">
        <ele>1542.7</ele>
        <time>2021-08-11T10:08:35Z</time>
      </trkpt>
      <trkpt lat="45.10912" lon="2.64234">
        <ele>1542.7</ele>
        <time>2021-08-11T10:08:36Z</time>
      </trkpt>
      <trkpt lat="45.10912" lon="2.64235">
        <ele>1542.7</ele>
        <time>2021-08-11T10:08:37Z</time>
      </trkpt>
      <trkpt lat="45.10912" lon="2.64237">
        <ele>1542.6</ele>
        <time>2021-08-11T10:08:38Z</time>
      </trkpt>
      <trkpt lat="45.10911" lon="2.64238">
        <ele>1542.6</ele>
        <time>2021-08-11T10:08:39Z</time>
      </trkpt>
      <trkpt lat="45.10911" lon="2.64239">
        <ele>1542.5</ele>
        <time>2021-08-11T10:08:40Z</time>
      </trkpt>
      <trkpt lat="45.10911" lon="2.64241">
        <ele>1542.6</ele>
        <time>2021-08-11T10:08:41Z</time>
      </trkpt>
      <trkpt lat="45.10911" lon="2.64242">
        <ele>1542.6</ele>
        <time>2021-08-11T10:08:42Z</time>
      </trkpt>
      <trkpt lat="45.10911" lon="2.64244">
        <ele>1542.6</ele>
        <time>2021-08-11T10:08:43Z</time>
      </trkpt>
      <trkpt lat="45.10911" lon="2.64245">
        <ele>1542.7</ele>
        <time>2021-08-11T10:08:44Z</time>
      </trkpt>
      <trkpt lat="45.10911" lon="2.64247">
        <ele>1542.6</ele>
        <time>2021-08-11T10:08:45Z</time>
      </trkpt>
      <trkpt lat="45.10911" lon="2.64248">
        <ele>1542.7</ele>
        <time>2021-08-11T10:08:46Z</time>
      </trkpt>
      <trkpt lat="45.10912" lon="2.6425">
        <ele>1542.8</ele>
        <time>2021-08-11T10:08:47Z</time>
      </trkpt>
      <trkpt lat="45.10912" lon="2.64251">
        <ele>1543</ele>
        <time>2021-08-11T10:08:48Z</time>
      </trkpt>
      <trkpt lat="45.10912" lon="2.64253">
        <ele>1543.1</ele>
        <time>2021-08-11T10:08:49Z</time>
      </trkpt>
      <trkpt lat="45.10912" lon="2.64254">
        <ele>1543.3</ele>
        <time>2021-08-11T10:08:50Z</time>
      </trkpt>
      <trkpt lat="45.10912" lon="2.64256">
        <ele>1543.4</ele>
        <time>2021-08-11T10:08:51Z</time>
      </trkpt>
      <trkpt lat="45.10912" lon="2.64257">
        <ele>1543.5</ele>
        <time>2021-08-11T10:08:52Z</time>
      </trkpt>
      <trkpt lat="45.10912" lon="2.64259">
        <ele>1543.6</ele>
        <time>2021-08-11T10:08:53Z</time>
      </trkpt>
      <trkpt lat="45.10912" lon="2.6426">
        <ele>1543.8</ele>
        <time>2021-08-11T10:08:54Z</time>
      </trkpt>
      <trkpt lat="45.10913" lon="2.64261">
        <ele>1544</ele>
        <time>2021-08-11T10:08:55Z</time>
      </trkpt>
      <trkpt lat="45.10913" lon="2.64263">
        <ele>1544.2</ele>
        <time>2021-08-11T10:08:56Z</time>
      </trkpt>
      <trkpt lat="45.10913" lon="2.64264">
        <ele>1544.3</ele>
        <time>2021-08-11T10:08:57Z</time>
      </trkpt>
      <trkpt lat="45.10913" lon="2.64265">
        <ele>1544.5</ele>
        <time>2021-08-11T10:08:58Z</time>
      </trkpt>
      <trkpt lat="45.10913" lon="2.64266">
        <ele>1544.6</ele>
        <time>2021-08-11T10:08:59Z</time>
      </trkpt>
      <trkpt lat="45.10914" lon="2.64267">
        <ele>1544.8</ele>
        <time>2021-08-11T10:09:00Z</time>
      </trkpt>
      <trkpt lat="45.10914" lon="2.64268">
        <ele>1544.9</ele>
        <time>2021-08-11T10:09:01Z</time>
      </trkpt>
      <trkpt lat="45.10914" lon="2.64269">
        <ele>1545.1</ele>
        <time>2021-08-11T10:09:02Z</time>
      </trkpt>
      <trkpt lat="45.10915" lon="2.64271">
        <ele>1545.3</ele>
        <time>2021-08-11T10:09:03Z</time>
      </trkpt>
      <trkpt lat="45.10915" lon="2.64272">
        <ele>1545.6</ele>
        <time>2021-08-11T10:09:04Z</time>
      </trkpt>
      <trkpt lat="45.10915" lon="2.64273">
        <ele>1545.8</ele>
        <time>2021-08-11T10:09:05Z</time>
      </trkpt>
      <trkpt lat="45.10916" lon="2.64274">
        <ele>1546</ele>
        <time>2021-08-11T10:09:06Z</time>
      </trkpt>
      <trkpt lat="45.10916" lon="2.64275">
        <ele>1546.3</ele>
        <time>2021-08-11T10:09:07Z</time>
      </trkpt>
      <trkpt lat="45.10917" lon="2.64276">
        <ele>1546.5</ele>
        <time>2021-08-11T10:09:08Z</time>
      </trkpt>
      <trkpt lat="45.10917" lon="2.64277">
        <ele>1546.6</ele>
        <time>2021-08-11T10:09:09Z</time>
      </trkpt>
      <trkpt lat="45.10917" lon="2.64279">
        <ele>1546.9</ele>
        <time>2021-08-11T10:09:10Z</time>
      </trkpt>
      <trkpt lat="45.10917" lon="2.6428">
        <ele>1547.1</ele>
        <time>2021-08-11T10:09:11Z</time>
      </trkpt>
      <trkpt lat="45.10918" lon="2.64281">
        <ele>1547.4</ele>
        <time>2021-08-11T10:09:12Z</time>
      </trkpt>
      <trkpt lat="45.10918" lon="2.64282">
        <ele>1547.6</ele>
        <time>2021-08-11T10:09:13Z</time>
      </trkpt>
      <trkpt lat="45.10919" lon="2.64283">
        <ele>1547.9</ele>
        <time>2021-08-11T10:09:14Z</time>
      </trkpt>
      <trkpt lat="45.10919" lon="2.64283">
        <ele>1548.2</ele>
        <time>2021-08-11T10:09:15Z</time>
      </trkpt>
      <trkpt lat="45.1092" lon="2.64284">
        <ele>1548.6</ele>
        <time>2021-08-11T10:09:16Z</time>
      </trkpt>
      <trkpt lat="45.1092" lon="2.64285">
        <ele>1548.9</ele>
        <time>2021-08-11T10:09:17Z</time>
      </trkpt>
      <trkpt lat="45.10921" lon="2.64286">
        <ele>1549.2</ele>
        <time>2021-08-11T10:09:18Z</time>
      </trkpt>
      <trkpt lat="45.10921" lon="2.64287">
        <ele>1549.5</ele>
        <time>2021-08-11T10:09:19Z</time>
      </trkpt>
      <trkpt lat="45.10921" lon="2.64288">
        <ele>1549.6</ele>
        <time>2021-08-11T10:09:20Z</time>
      </trkpt>
      <trkpt lat="45.10921" lon="2.64289">
        <ele>1549.7</ele>
        <time>2021-08-11T10:09:21Z</time>
      </trkpt>
      <trkpt lat="45.10922" lon="2.64291">
        <ele>1549.9</ele>
        <time>2021-08-11T10:09:22Z</time>
      </trkpt>
      <trkpt lat="45.10922" lon="2.64291">
        <ele>1550</ele>
        <time>2021-08-11T10:09:23Z</time>
      </trkpt>
      <trkpt lat="45.10922" lon="2.64292">
        <ele>1550.2</ele>
        <time>2021-08-11T10:09:24Z</time>
      </trkpt>
      <trkpt lat="45.10923" lon="2.64293">
        <ele>1550.4</ele>
        <time>2021-08-11T10:09:25Z</time>
      </trkpt>
      <trkpt lat="45.10923" lon="2.64294">
        <ele>1550.5</ele>
        <time>2021-08-11T10:09:26Z</time>
      </trkpt>
      <trkpt lat="45.10923" lon="2.64295">
        <ele>1550.6</ele>
        <time>2021-08-11T10:09:27Z</time>
      </trkpt>
      <trkpt lat="45.10923" lon="2.64297">
        <ele>1550.7</ele>
        <time>2021-08-11T10:09:28Z</time>
      </trkpt>
      <trkpt lat="45.10923" lon="2.64298">
        <ele>1550.7</ele>
        <time>2021-08-11T10:09:29Z</time>
      </trkpt>
      <trkpt lat="45.10922" lon="2.64299">
        <ele>1550.7</ele>
        <time>2021-08-11T10:09:30Z</time>
      </trkpt>
      <trkpt lat="45.10922" lon="2.643">
        <ele>1550.6</ele>
        <time>2021-08-11T10:09:31Z</time>
      </trkpt>
      <trkpt lat="45.10922" lon="2.64302">
        <ele>1550.4</ele>
        <time>2021-08-11T10:09:32Z</time>
      </trkpt>
      <trkpt lat="45.10921" lon="2.64303">
        <ele>1550.2</ele>
        <time>2021-08-11T10:09:33Z</time>
      </trkpt>
      <trkpt lat="45.1092" lon="2.64304">
        <ele>1550</ele>
        <time>2021-08-11T10:09:34Z</time>
      </trkpt>
      <trkpt lat="45.1092" lon="2.64306">
        <ele>1549.8</ele>
        <time>2021-08-11T10:09:35Z</time>
      </trkpt>
      <trkpt lat="45.10919" lon="2.64307">
        <ele>1549.6</ele>
        <time>2021-08-11T10:09:36Z</time>
      </trkpt>
      <trkpt lat="45.10919" lon="2.64308">
        <ele>1549.4</ele>
        <time>2021-08-11T10:09:37Z</time>
      </trkpt>
      <trkpt lat="45.10918" lon="2.6431">
        <ele>1549.3</ele>
        <time>2021-08-11T10:09:38Z</time>
      </trkpt>
      <trkpt lat="45.10918" lon="2.64311">
        <ele>1549.1</ele>
        <time>2021-08-11T10:09:39Z</time>
      </trkpt>
      <trkpt lat="45.10917" lon="2.64312">
        <ele>1548.8</ele>
        <time>2021-08-11T10:09:40Z</time>
      </trkpt>
      <trkpt lat="45.10916" lon="2.64312">
        <ele>1548.5</ele>
        <time>2021-08-11T10:09:41Z</time>
      </trkpt>
      <trkpt lat="45.10916" lon="2.64313">
        <ele>1548.3</ele>
        <time>2021-08-11T10:09:42Z</time>
      </trkpt>
      <trkpt lat="45.10915" lon="2.64313">
        <ele>1548.1</ele>
        <time>2021-08-11T10:09:43Z</time>
      </trkpt>
      <trkpt lat="45.10914" lon="2.64314">
        <ele>1547.7</ele>
        <time>2021-08-11T10:09:44Z</time>
      </trkpt>
      <trkpt lat="45.10913" lon="2.64315">
        <ele>1547.5</ele>
        <time>2021-08-11T10:09:45Z</time>
      </trkpt>
      <trkpt lat="45.10913" lon="2.64316">
        <ele>1547.4</ele>
        <time>2021-08-11T10:09:46Z</time>
      </trkpt>
      <trkpt lat="45.10912" lon="2.64316">
        <ele>1547.2</ele>
        <time>2021-08-11T10:09:47Z</time>
      </trkpt>
      <trkpt lat="45.10912" lon="2.64317">
        <ele>1547</ele>
        <time>2021-08-11T10:09:48Z</time>
      </trkpt>
      <trkpt lat="45.10911" lon="2.64318">
        <ele>1546.8</ele>
        <time>2021-08-11T10:09:49Z</time>
      </trkpt>
      <trkpt lat="45.1091" lon="2.6432">
        <ele>1546.7</ele>
        <time>2021-08-11T10:09:50Z</time>
      </trkpt>
      <trkpt lat="45.1091" lon="2.64321">
        <ele>1546.6</ele>
        <time>2021-08-11T10:09:51Z</time>
      </trkpt>
      <trkpt lat="45.1091" lon="2.64322">
        <ele>1546.6</ele>
        <time>2021-08-11T10:09:52Z</time>
      </trkpt>
      <trkpt lat="45.10909" lon="2.64324">
        <ele>1546.4</ele>
        <time>2021-08-11T10:09:53Z</time>
      </trkpt>
      <trkpt lat="45.10908" lon="2.64325">
        <ele>1546.3</ele>
        <time>2021-08-11T10:09:54Z</time>
      </trkpt>
      <trkpt lat="45.10908" lon="2.64327">
        <ele>1546.2</ele>
        <time>2021-08-11T10:09:55Z</time>
      </trkpt>
      <trkpt lat="45.10907" lon="2.64328">
        <ele>1546</ele>
        <time>2021-08-11T10:09:56Z</time>
      </trkpt>
      <trkpt lat="45.10907" lon="2.64329">
        <ele>1545.9</ele>
        <time>2021-08-11T10:09:57Z</time>
      </trkpt>
      <trkpt lat="45.10906" lon="2.64331">
        <ele>1545.9</ele>
        <time>2021-08-11T10:09:58Z</time>
      </trkpt>
      <trkpt lat="45.10906" lon="2.64333">
        <ele>1545.9</ele>
        <time>2021-08-11T10:09:59Z</time>
      </trkpt>
      <trkpt lat="45.10906" lon="2.64334">
        <ele>1545.8</ele>
        <time>2021-08-11T10:10:00Z</time>
      </trkpt>
      <trkpt lat="45.10905" lon="2.64336">
        <ele>1545.8</ele>
        <time>2021-08-11T10:10:01Z</time>
      </trkpt>
      <trkpt lat="45.10905" lon="2.64337">
        <ele>1545.6</ele>
        <time>2021-08-11T10:10:02Z</time>
      </trkpt>
      <trkpt lat="45.10904" lon="2.64339">
        <ele>1545.5</ele>
        <time>2021-08-11T10:10:03Z</time>
      </trkpt>
      <trkpt lat="45.10904" lon="2.6434">
        <ele>1545.5</ele>
        <time>2021-08-11T10:10:04Z</time>
      </trkpt>
      <trkpt lat="45.10903" lon="2.64342">
        <ele>1545.3</ele>
        <time>2021-08-11T10:10:05Z</time>
      </trkpt>
      <trkpt lat="45.10903" lon="2.64344">
        <ele>1545.1</ele>
        <time>2021-08-11T10:10:06Z</time>
      </trkpt>
      <trkpt lat="45.10902" lon="2.64345">
        <ele>1544.9</ele>
        <time>2021-08-11T10:10:07Z</time>
      </trkpt>
      <trkpt lat="45.10901" lon="2.64346">
        <ele>1544.7</ele>
        <time>2021-08-11T10:10:08Z</time>
      </trkpt>
      <trkpt lat="45.109" lon="2.64348">
        <ele>1544.5</ele>
        <time>2021-08-11T10:10:09Z</time>
      </trkpt>
      <trkpt lat="45.109" lon="2.64349">
        <ele>1544.4</ele>
        <time>2021-08-11T10:10:10Z</time>
      </trkpt>
      <trkpt lat="45.10899" lon="2.6435">
        <ele>1544.3</ele>
        <time>2021-08-11T10:10:11Z</time>
      </trkpt>
      <trkpt lat="45.10899" lon="2.64352">
        <ele>1544.2</ele>
        <time>2021-08-11T10:10:12Z</time>
      </trkpt>
      <trkpt lat="45.10898" lon="2.64353">
        <ele>1543.9</ele>
        <time>2021-08-11T10:10:13Z</time>
      </trkpt>
      <trkpt lat="45.10897" lon="2.64355">
        <ele>1543.7</ele>
        <time>2021-08-11T10:10:14Z</time>
      </trkpt>
      <trkpt lat="45.10897" lon="2.64356">
        <ele>1543.5</ele>
        <time>2021-08-11T10:10:15Z</time>
      </trkpt>
      <trkpt lat="45.10896" lon="2.64358">
        <ele>1543.3</ele>
        <time>2021-08-11T10:10:16Z</time>
      </trkpt>
      <trkpt lat="45.10895" lon="2.64359">
        <ele>1543.2</ele>
        <time>2021-08-11T10:10:17Z</time>
      </trkpt>
      <trkpt lat="45.10895" lon="2.64361">
        <ele>1543.1</ele>
        <time>2021-08-11T10:10:18Z</time>
      </trkpt>
      <trkpt lat="45.10894" lon="2.64362">
        <ele>1542.9</ele>
        <time>2021-08-11T10:10:19Z</time>
      </trkpt>
      <trkpt lat="45.10893" lon="2.64363">
        <ele>1542.7</ele>
        <time>2021-08-11T10:10:20Z</time>
      </trkpt>
      <trkpt lat="45.10893" lon="2.64365">
        <ele>1542.6</ele>
        <time>2021-08-11T10:10:21Z</time>
      </trkpt>
      <trkpt lat="45.10892" lon="2.64366">
        <ele>1542.5</ele>
        <time>2021-08-11T10:10:22Z</time>
      </trkpt>
      <trkpt lat="45.10891" lon="2.64368">
        <ele>1542.4</ele>
        <time>2021-08-11T10:10:23Z</time>
      </trkpt>
      <trkpt lat="45.10891" lon="2.64369">
        <ele>1542.2</ele>
        <time>2021-08-11T10:10:24Z</time>
      </trkpt>
      <trkpt lat="45.1089" lon="2.6437">
        <ele>1542</ele>
        <time>2021-08-11T10:10:25Z</time>
      </trkpt>
      <trkpt lat="45.10889" lon="2.64372">
        <ele>1541.8</ele>
        <time>2021-08-11T10:10:26Z</time>
      </trkpt>
      <trkpt lat="45.10888" lon="2.64372">
        <ele>1541.6</ele>
        <time>2021-08-11T10:10:27Z</time>
      </trkpt>
      <trkpt lat="45.10888" lon="2.64373">
        <ele>1541.5</ele>
        <time>2021-08-11T10:10:28Z</time>
      </trkpt>
      <trkpt lat="45.10888" lon="2.64373">
        <ele>1541.5</ele>
        <time>2021-08-11T10:10:29Z</time>
      </trkpt>
      <trkpt lat="45.10887" lon="2.64374">
        <ele>1541.4</ele>
        <time>2021-08-11T10:10:30Z</time>
      </trkpt>
      <trkpt lat="45.10887" lon="2.64376">
        <ele>1541.2</ele>
        <time>2021-08-11T10:10:31Z</time>
      </trkpt>
      <trkpt lat="45.10886" lon="2.64377">
        <ele>1541.1</ele>
        <time>2021-08-11T10:10:32Z</time>
      </trkpt>
      <trkpt lat="45.10885" lon="2.64378">
        <ele>1541</ele>
        <time>2021-08-11T10:10:33Z</time>
      </trkpt>
      <trkpt lat="45.10885" lon="2.6438">
        <ele>1540.9</ele>
        <time>2021-08-11T10:10:34Z</time>
      </trkpt>
      <trkpt lat="45.10884" lon="2.64381">
        <ele>1540.8</ele>
        <time>2021-08-11T10:10:35Z</time>
      </trkpt>
      <trkpt lat="45.10884" lon="2.64382">
        <ele>1540.7</ele>
        <time>2021-08-11T10:10:36Z</time>
      </trkpt>
      <trkpt lat="45.10883" lon="2.64384">
        <ele>1540.6</ele>
        <time>2021-08-11T10:10:37Z</time>
      </trkpt>
      <trkpt lat="45.10883" lon="2.64385">
        <ele>1540.5</ele>
        <time>2021-08-11T10:10:38Z</time>
      </trkpt>
      <trkpt lat="45.10882" lon="2.64386">
        <ele>1540.4</ele>
        <time>2021-08-11T10:10:39Z</time>
      </trkpt>
      <trkpt lat="45.10882" lon="2.64388">
        <ele>1540.4</ele>
        <time>2021-08-11T10:10:40Z</time>
      </trkpt>
      <trkpt lat="45.10881" lon="2.64389">
        <ele>1540.3</ele>
        <time>2021-08-11T10:10:41Z</time>
      </trkpt>
      <trkpt lat="45.1088" lon="2.64391">
        <ele>1540.2</ele>
        <time>2021-08-11T10:10:42Z</time>
      </trkpt>
      <trkpt lat="45.1088" lon="2.64392">
        <ele>1540.1</ele>
        <time>2021-08-11T10:10:43Z</time>
      </trkpt>
      <trkpt lat="45.10879" lon="2.64394">
        <ele>1540</ele>
        <time>2021-08-11T10:10:44Z</time>
      </trkpt>
      <trkpt lat="45.10879" lon="2.64395">
        <ele>1540</ele>
        <time>2021-08-11T10:10:45Z</time>
      </trkpt>
      <trkpt lat="45.10878" lon="2.64396">
        <ele>1539.9</ele>
        <time>2021-08-11T10:10:46Z</time>
      </trkpt>
      <trkpt lat="45.10878" lon="2.64398">
        <ele>1539.8</ele>
        <time>2021-08-11T10:10:47Z</time>
      </trkpt>
      <trkpt lat="45.10877" lon="2.64399">
        <ele>1539.8</ele>
        <time>2021-08-11T10:10:48Z</time>
      </trkpt>
      <trkpt lat="45.10876" lon="2.644">
        <ele>1539.6</ele>
        <time>2021-08-11T10:10:49Z</time>
      </trkpt>
      <trkpt lat="45.10876" lon="2.64402">
        <ele>1539.5</ele>
        <time>2021-08-11T10:10:50Z</time>
      </trkpt>
      <trkpt lat="45.10875" lon="2.64403">
        <ele>1539.5</ele>
        <time>2021-08-11T10:10:51Z</time>
      </trkpt>
      <trkpt lat="45.10875" lon="2.64404">
        <ele>1539.4</ele>
        <time>2021-08-11T10:10:52Z</time>
      </trkpt>
      <trkpt lat="45.10874" lon="2.64406">
        <ele>1539.3</ele>
        <time>2021-08-11T10:10:53Z</time>
      </trkpt>
      <trkpt lat="45.10873" lon="2.64407">
        <ele>1539.2</ele>
        <time>2021-08-11T10:10:54Z</time>
      </trkpt>
      <trkpt lat="45.10873" lon="2.64408">
        <ele>1539.2</ele>
        <time>2021-08-11T10:10:55Z</time>
      </trkpt>
      <trkpt lat="45.10872" lon="2.6441">
        <ele>1539.1</ele>
        <time>2021-08-11T10:10:56Z</time>
      </trkpt>
      <trkpt lat="45.10872" lon="2.64411">
        <ele>1539.1</ele>
        <time>2021-08-11T10:10:57Z</time>
      </trkpt>
      <trkpt lat="45.10871" lon="2.64413">
        <ele>1539.1</ele>
        <time>2021-08-11T10:10:58Z</time>
      </trkpt>
      <trkpt lat="45.10871" lon="2.64414">
        <ele>1539.1</ele>
        <time>2021-08-11T10:10:59Z</time>
      </trkpt>
      <trkpt lat="45.1087" lon="2.64415">
        <ele>1539</ele>
        <time>2021-08-11T10:11:00Z</time>
      </trkpt>
      <trkpt lat="45.1087" lon="2.64417">
        <ele>1538.9</ele>
        <time>2021-08-11T10:11:01Z</time>
      </trkpt>
      <trkpt lat="45.10869" lon="2.64418">
        <ele>1538.8</ele>
        <time>2021-08-11T10:11:02Z</time>
      </trkpt>
      <trkpt lat="45.10869" lon="2.64419">
        <ele>1538.7</ele>
        <time>2021-08-11T10:11:03Z</time>
      </trkpt>
      <trkpt lat="45.10868" lon="2.6442">
        <ele>1538.6</ele>
        <time>2021-08-11T10:11:04Z</time>
      </trkpt>
      <trkpt lat="45.10868" lon="2.64422">
        <ele>1538.5</ele>
        <time>2021-08-11T10:11:05Z</time>
      </trkpt>
      <trkpt lat="45.10867" lon="2.64423">
        <ele>1538.4</ele>
        <time>2021-08-11T10:11:06Z</time>
      </trkpt>
      <trkpt lat="45.10866" lon="2.64425">
        <ele>1538.3</ele>
        <time>2021-08-11T10:11:07Z</time>
      </trkpt>
      <trkpt lat="45.10866" lon="2.64426">
        <ele>1538.2</ele>
        <time>2021-08-11T10:11:08Z</time>
      </trkpt>
      <trkpt lat="45.10865" lon="2.64427">
        <ele>1538.1</ele>
        <time>2021-08-11T10:11:09Z</time>
      </trkpt>
      <trkpt lat="45.10865" lon="2.64429">
        <ele>1538</ele>
        <time>2021-08-11T10:11:10Z</time>
      </trkpt>
      <trkpt lat="45.10864" lon="2.6443">
        <ele>1538</ele>
        <time>2021-08-11T10:11:11Z</time>
      </trkpt>
      <trkpt lat="45.10864" lon="2.64431">
        <ele>1538</ele>
        <time>2021-08-11T10:11:12Z</time>
      </trkpt>
      <trkpt lat="45.10863" lon="2.64433">
        <ele>1537.9</ele>
        <time>2021-08-11T10:11:13Z</time>
      </trkpt>
      <trkpt lat="45.10863" lon="2.64434">
        <ele>1537.8</ele>
        <time>2021-08-11T10:11:14Z</time>
      </trkpt>
      <trkpt lat="45.10862" lon="2.64435">
        <ele>1537.8</ele>
        <time>2021-08-11T10:11:15Z</time>
      </trkpt>
      <trkpt lat="45.10861" lon="2.64436">
        <ele>1537.7</ele>
        <time>2021-08-11T10:11:16Z</time>
      </trkpt>
      <trkpt lat="45.1086" lon="2.64438">
        <ele>1537.6</ele>
        <time>2021-08-11T10:11:17Z</time>
      </trkpt>
      <trkpt lat="45.1086" lon="2.64439">
        <ele>1537.5</ele>
        <time>2021-08-11T10:11:18Z</time>
      </trkpt>
      <trkpt lat="45.10859" lon="2.6444">
        <ele>1537.5</ele>
        <time>2021-08-11T10:11:19Z</time>
      </trkpt>
      <trkpt lat="45.10859" lon="2.64442">
        <ele>1537.4</ele>
        <time>2021-08-11T10:11:20Z</time>
      </trkpt>
      <trkpt lat="45.10858" lon="2.64443">
        <ele>1537.5</ele>
        <time>2021-08-11T10:11:21Z</time>
      </trkpt>
      <trkpt lat="45.10858" lon="2.64444">
        <ele>1537.5</ele>
        <time>2021-08-11T10:11:22Z</time>
      </trkpt>
      <trkpt lat="45.10857" lon="2.64446">
        <ele>1537.5</ele>
        <time>2021-08-11T10:11:23Z</time>
      </trkpt>
      <trkpt lat="45.10857" lon="2.64447">
        <ele>1537.6</ele>
        <time>2021-08-11T10:11:24Z</time>
      </trkpt>
      <trkpt lat="45.10857" lon="2.64449">
        <ele>1537.6</ele>
        <time>2021-08-11T10:11:25Z</time>
      </trkpt>
      <trkpt lat="45.10857" lon="2.6445">
        <ele>1537.7</ele>
        <time>2021-08-11T10:11:26Z</time>
      </trkpt>
      <trkpt lat="45.10856" lon="2.64451">
        <ele>1537.8</ele>
        <time>2021-08-11T10:11:27Z</time>
      </trkpt>
      <trkpt lat="45.10856" lon="2.64452">
        <ele>1537.8</ele>
        <time>2021-08-11T10:11:28Z</time>
      </trkpt>
      <trkpt lat="45.10856" lon="2.64453">
        <ele>1537.8</ele>
        <time>2021-08-11T10:11:29Z</time>
      </trkpt>
      <trkpt lat="45.10855" lon="2.64455">
        <ele>1537.9</ele>
        <time>2021-08-11T10:11:30Z</time>
      </trkpt>
      <trkpt lat="45.10855" lon="2.64456">
        <ele>1537.9</ele>
        <time>2021-08-11T10:11:31Z</time>
      </trkpt>
      <trkpt lat="45.10855" lon="2.64457">
        <ele>1538</ele>
        <time>2021-08-11T10:11:32Z</time>
      </trkpt>
      <trkpt lat="45.10854" lon="2.64459">
        <ele>1538</ele>
        <time>2021-08-11T10:11:33Z</time>
      </trkpt>
      <trkpt lat="45.10854" lon="2.6446">
        <ele>1538.1</ele>
        <time>2021-08-11T10:11:34Z</time>
      </trkpt>
      <trkpt lat="45.10853" lon="2.64461">
        <ele>1538.1</ele>
        <time>2021-08-11T10:11:35Z</time>
      </trkpt>
      <trkpt lat="45.10853" lon="2.64463">
        <ele>1538.2</ele>
        <time>2021-08-11T10:11:36Z</time>
      </trkpt>
      <trkpt lat="45.10852" lon="2.64464">
        <ele>1538.2</ele>
        <time>2021-08-11T10:11:37Z</time>
      </trkpt>
      <trkpt lat="45.10852" lon="2.64465">
        <ele>1538.2</ele>
        <time>2021-08-11T10:11:38Z</time>
      </trkpt>
      <trkpt lat="45.10851" lon="2.64467">
        <ele>1538.3</ele>
        <time>2021-08-11T10:11:39Z</time>
      </trkpt>
      <trkpt lat="45.10851" lon="2.64468">
        <ele>1538.4</ele>
        <time>2021-08-11T10:11:40Z</time>
      </trkpt>
      <trkpt lat="45.1085" lon="2.6447">
        <ele>1538.5</ele>
        <time>2021-08-11T10:11:41Z</time>
      </trkpt>
      <trkpt lat="45.1085" lon="2.64471">
        <ele>1538.6</ele>
        <time>2021-08-11T10:11:42Z</time>
      </trkpt>
      <trkpt lat="45.1085" lon="2.64473">
        <ele>1538.8</ele>
        <time>2021-08-11T10:11:43Z</time>
      </trkpt>
      <trkpt lat="45.10849" lon="2.64474">
        <ele>1538.9</ele>
        <time>2021-08-11T10:11:44Z</time>
      </trkpt>
      <trkpt lat="45.10849" lon="2.64476">
        <ele>1539</ele>
        <time>2021-08-11T10:11:45Z</time>
      </trkpt>
      <trkpt lat="45.10849" lon="2.64478">
        <ele>1539.1</ele>
        <time>2021-08-11T10:11:46Z</time>
      </trkpt>
      <trkpt lat="45.10848" lon="2.64479">
        <ele>1539.2</ele>
        <time>2021-08-11T10:11:47Z</time>
      </trkpt>
      <trkpt lat="45.10848" lon="2.6448">
        <ele>1539.3</ele>
        <time>2021-08-11T10:11:48Z</time>
      </trkpt>
      <trkpt lat="45.10847" lon="2.64482">
        <ele>1539.4</ele>
        <time>2021-08-11T10:11:49Z</time>
      </trkpt>
      <trkpt lat="45.10847" lon="2.64483">
        <ele>1539.5</ele>
        <time>2021-08-11T10:11:50Z</time>
      </trkpt>
      <trkpt lat="45.10846" lon="2.64484">
        <ele>1539.6</ele>
        <time>2021-08-11T10:11:51Z</time>
      </trkpt>
      <trkpt lat="45.10845" lon="2.64485">
        <ele>1539.7</ele>
        <time>2021-08-11T10:11:52Z</time>
      </trkpt>
      <trkpt lat="45.10845" lon="2.64487">
        <ele>1539.8</ele>
        <time>2021-08-11T10:11:53Z</time>
      </trkpt>
      <trkpt lat="45.10844" lon="2.64488">
        <ele>1539.9</ele>
        <time>2021-08-11T10:11:54Z</time>
      </trkpt>
      <trkpt lat="45.10844" lon="2.6449">
        <ele>1540.1</ele>
        <time>2021-08-11T10:11:55Z</time>
      </trkpt>
      <trkpt lat="45.10844" lon="2.64491">
        <ele>1540.3</ele>
        <time>2021-08-11T10:11:56Z</time>
      </trkpt>
      <trkpt lat="45.10844" lon="2.64492">
        <ele>1540.4</ele>
        <time>2021-08-11T10:11:57Z</time>
      </trkpt>
      <trkpt lat="45.10843" lon="2.64494">
        <ele>1540.6</ele>
        <time>2021-08-11T10:11:58Z</time>
      </trkpt>
      <trkpt lat="45.10843" lon="2.64495">
        <ele>1540.7</ele>
        <time>2021-08-11T10:11:59Z</time>
      </trkpt>
      <trkpt lat="45.10842" lon="2.64496">
        <ele>1540.8</ele>
        <time>2021-08-11T10:12:00Z</time>
      </trkpt>
      <trkpt lat="45.10842" lon="2.64497">
        <ele>1540.9</ele>
        <time>2021-08-11T10:12:01Z</time>
      </trkpt>
      <trkpt lat="45.10841" lon="2.64499">
        <ele>1541.1</ele>
        <time>2021-08-11T10:12:02Z</time>
      </trkpt>
      <trkpt lat="45.10841" lon="2.645">
        <ele>1541.3</ele>
        <time>2021-08-11T10:12:03Z</time>
      </trkpt>
      <trkpt lat="45.10841" lon="2.64502">
        <ele>1541.3</ele>
        <time>2021-08-11T10:12:04Z</time>
      </trkpt>
      <trkpt lat="45.1084" lon="2.64503">
        <ele>1541.4</ele>
        <time>2021-08-11T10:12:05Z</time>
      </trkpt>
      <trkpt lat="45.10839" lon="2.64504">
        <ele>1541.4</ele>
        <time>2021-08-11T10:12:06Z</time>
      </trkpt>
      <trkpt lat="45.10839" lon="2.64505">
        <ele>1541.5</ele>
        <time>2021-08-11T10:12:07Z</time>
      </trkpt>
      <trkpt lat="45.10838" lon="2.64506">
        <ele>1541.5</ele>
        <time>2021-08-11T10:12:08Z</time>
      </trkpt>
      <trkpt lat="45.10838" lon="2.64507">
        <ele>1541.5</ele>
        <time>2021-08-11T10:12:09Z</time>
      </trkpt>
      <trkpt lat="45.10838" lon="2.64508">
        <ele>1541.6</ele>
        <time>2021-08-11T10:12:10Z</time>
      </trkpt>
      <trkpt lat="45.10837" lon="2.64509">
        <ele>1541.7</ele>
        <time>2021-08-11T10:12:11Z</time>
      </trkpt>
      <trkpt lat="45.10837" lon="2.6451">
        <ele>1541.7</ele>
        <time>2021-08-11T10:12:12Z</time>
      </trkpt>
      <trkpt lat="45.10837" lon="2.64511">
        <ele>1541.8</ele>
        <time>2021-08-11T10:12:13Z</time>
      </trkpt>
      <trkpt lat="45.10837" lon="2.64512">
        <ele>1541.9</ele>
        <time>2021-08-11T10:12:14Z</time>
      </trkpt>
      <trkpt lat="45.10836" lon="2.64513">
        <ele>1541.9</ele>
        <time>2021-08-11T10:12:15Z</time>
      </trkpt>
      <trkpt lat="45.10836" lon="2.64514">
        <ele>1542</ele>
        <time>2021-08-11T10:12:16Z</time>
      </trkpt>
      <trkpt lat="45.10836" lon="2.64515">
        <ele>1542</ele>
        <time>2021-08-11T10:12:17Z</time>
      </trkpt>
      <trkpt lat="45.10835" lon="2.64516">
        <ele>1542.1</ele>
        <time>2021-08-11T10:12:18Z</time>
      </trkpt>
      <trkpt lat="45.10835" lon="2.64517">
        <ele>1542.2</ele>
        <time>2021-08-11T10:12:19Z</time>
      </trkpt>
      <trkpt lat="45.10835" lon="2.64518">
        <ele>1542.3</ele>
        <time>2021-08-11T10:12:20Z</time>
      </trkpt>
      <trkpt lat="45.10834" lon="2.64519">
        <ele>1542.4</ele>
        <time>2021-08-11T10:12:21Z</time>
      </trkpt>
      <trkpt lat="45.10834" lon="2.6452">
        <ele>1542.4</ele>
        <time>2021-08-11T10:12:22Z</time>
      </trkpt>
      <trkpt lat="45.10834" lon="2.64522">
        <ele>1542.5</ele>
        <time>2021-08-11T10:12:23Z</time>
      </trkpt>
      <trkpt lat="45.10833" lon="2.64523">
        <ele>1542.6</ele>
        <time>2021-08-11T10:12:24Z</time>
      </trkpt>
      <trkpt lat="45.10833" lon="2.64524">
        <ele>1542.6</ele>
        <time>2021-08-11T10:12:25Z</time>
      </trkpt>
      <trkpt lat="45.10833" lon="2.64525">
        <ele>1542.6</ele>
        <time>2021-08-11T10:12:26Z</time>
      </trkpt>
      <trkpt lat="45.10833" lon="2.64526">
        <ele>1542.6</ele>
        <time>2021-08-11T10:12:27Z</time>
      </trkpt>
      <trkpt lat="45.10832" lon="2.64527">
        <ele>1542.6</ele>
        <time>2021-08-11T10:12:28Z</time>
      </trkpt>
      <trkpt lat="45.10832" lon="2.64527">
        <ele>1542.6</ele>
        <time>2021-08-11T10:12:29Z</time>
      </trkpt>
      <trkpt lat="45.10832" lon="2.64528">
        <ele>1542.7</ele>
        <time>2021-08-11T10:12:30Z</time>
      </trkpt>
      <trkpt lat="45.10832" lon="2.64529">
        <ele>1542.7</ele>
        <time>2021-08-11T10:12:31Z</time>
      </trkpt>
      <trkpt lat="45.10832" lon="2.6453">
        <ele>1542.7</ele>
        <time>2021-08-11T10:12:32Z</time>
      </trkpt>
      <trkpt lat="45.10831" lon="2.64531">
        <ele>1542.7</ele>
        <time>2021-08-11T10:12:33Z</time>
      </trkpt>
      <trkpt lat="45.10831" lon="2.64532">
        <ele>1542.6</ele>
        <time>2021-08-11T10:12:34Z</time>
      </trkpt>
      <trkpt lat="45.10831" lon="2.64533">
        <ele>1542.6</ele>
        <time>2021-08-11T10:12:35Z</time>
      </trkpt>
      <trkpt lat="45.10831" lon="2.64535">
        <ele>1542.7</ele>
        <time>2021-08-11T10:12:36Z</time>
      </trkpt>
      <trkpt lat="45.1083" lon="2.64536">
        <ele>1542.7</ele>
        <time>2021-08-11T10:12:37Z</time>
      </trkpt>
      <trkpt lat="45.1083" lon="2.64537">
        <ele>1542.8</ele>
        <time>2021-08-11T10:12:38Z</time>
      </trkpt>
      <trkpt lat="45.1083" lon="2.64538">
        <ele>1542.9</ele>
        <time>2021-08-11T10:12:39Z</time>
      </trkpt>
      <trkpt lat="45.1083" lon="2.64539">
        <ele>1543</ele>
        <time>2021-08-11T10:12:40Z</time>
      </trkpt>
      <trkpt lat="45.1083" lon="2.6454">
        <ele>1543</ele>
        <time>2021-08-11T10:12:41Z</time>
      </trkpt>
      <trkpt lat="45.1083" lon="2.64541">
        <ele>1543.1</ele>
        <time>2021-08-11T10:12:42Z</time>
      </trkpt>
      <trkpt lat="45.1083" lon="2.64542">
        <ele>1543.1</ele>
        <time>2021-08-11T10:12:43Z</time>
      </trkpt>
      <trkpt lat="45.1083" lon="2.64543">
        <ele>1543.1</ele>
        <time>2021-08-11T10:12:44Z</time>
      </trkpt>
      <trkpt lat="45.1083" lon="2.64544">
        <ele>1543.3</ele>
        <time>2021-08-11T10:12:45Z</time>
      </trkpt>
      <trkpt lat="45.1083" lon="2.64545">
        <ele>1543.3</ele>
        <time>2021-08-11T10:12:46Z</time>
      </trkpt>
      <trkpt lat="45.1083" lon="2.64546">
        <ele>1543.4</ele>
        <time>2021-08-11T10:12:47Z</time>
      </trkpt>
      <trkpt lat="45.1083" lon="2.64547">
        <ele>1543.5</ele>
        <time>2021-08-11T10:12:48Z</time>
      </trkpt>
      <trkpt lat="45.1083" lon="2.64548">
        <ele>1543.6</ele>
        <time>2021-08-11T10:12:49Z</time>
      </trkpt>
      <trkpt lat="45.1083" lon="2.64549">
        <ele>1543.7</ele>
        <time>2021-08-11T10:12:50Z</time>
      </trkpt>
      <trkpt lat="45.1083" lon="2.6455">
        <ele>1543.8</ele>
        <time>2021-08-11T10:12:51Z</time>
      </trkpt>
      <trkpt lat="45.1083" lon="2.64551">
        <ele>1543.9</ele>
        <time>2021-08-11T10:12:52Z</time>
      </trkpt>
      <trkpt lat="45.1083" lon="2.64552">
        <ele>1544</ele>
        <time>2021-08-11T10:12:53Z</time>
      </trkpt>
      <trkpt lat="45.1083" lon="2.64553">
        <ele>1544</ele>
        <time>2021-08-11T10:12:54Z</time>
      </trkpt>
      <trkpt lat="45.1083" lon="2.64554">
        <ele>1544.2</ele>
        <time>2021-08-11T10:12:55Z</time>
      </trkpt>
      <trkpt lat="45.1083" lon="2.64555">
        <ele>1544.2</ele>
        <time>2021-08-11T10:12:56Z</time>
      </trkpt>
      <trkpt lat="45.1083" lon="2.64556">
        <ele>1544.3</ele>
        <time>2021-08-11T10:12:57Z</time>
      </trkpt>
      <trkpt lat="45.1083" lon="2.64557">
        <ele>1544.5</ele>
        <time>2021-08-11T10:12:58Z</time>
      </trkpt>
      <trkpt lat="45.1083" lon="2.64559">
        <ele>1544.6</ele>
        <time>2021-08-11T10:12:59Z</time>
      </trkpt>
      <trkpt lat="45.10831" lon="2.6456">
        <ele>1544.7</ele>
        <time>2021-08-11T10:13:00Z</time>
      </trkpt>
      <trkpt lat="45.10831" lon="2.64561">
        <ele>1544.8</ele>
        <time>2021-08-11T10:13:01Z</time>
      </trkpt>
      <trkpt lat="45.10831" lon="2.64562">
        <ele>1544.9</ele>
        <time>2021-08-11T10:13:02Z</time>
      </trkpt>
      <trkpt lat="45.1083" lon="2.64563">
        <ele>1544.9</ele>
        <time>2021-08-11T10:13:03Z</time>
      </trkpt>
      <trkpt lat="45.1083" lon="2.64564">
        <ele>1544.9</ele>
        <time>2021-08-11T10:13:04Z</time>
      </trkpt>
      <trkpt lat="45.1083" lon="2.64566">
        <ele>1545</ele>
        <time>2021-08-11T10:13:05Z</time>
      </trkpt>
      <trkpt lat="45.1083" lon="2.64567">
        <ele>1545.1</ele>
        <time>2021-08-11T10:13:06Z</time>
      </trkpt>
      <trkpt lat="45.1083" lon="2.64568">
        <ele>1545.2</ele>
        <time>2021-08-11T10:13:07Z</time>
      </trkpt>
      <trkpt lat="45.1083" lon="2.64569">
        <ele>1545.3</ele>
        <time>2021-08-11T10:13:08Z</time>
      </trkpt>
      <trkpt lat="45.1083" lon="2.6457">
        <ele>1545.4</ele>
        <time>2021-08-11T10:13:09Z</time>
      </trkpt>
      <trkpt lat="45.1083" lon="2.64571">
        <ele>1545.5</ele>
        <time>2021-08-11T10:13:10Z</time>
      </trkpt>
      <trkpt lat="45.1083" lon="2.64572">
        <ele>1545.6</ele>
        <time>2021-08-11T10:13:11Z</time>
      </trkpt>
      <trkpt lat="45.10831" lon="2.64574">
        <ele>1545.8</ele>
        <time>2021-08-11T10:13:12Z</time>
      </trkpt>
      <trkpt lat="45.10831" lon="2.64575">
        <ele>1545.9</ele>
        <time>2021-08-11T10:13:13Z</time>
      </trkpt>
      <trkpt lat="45.10831" lon="2.64576">
        <ele>1546</ele>
        <time>2021-08-11T10:13:14Z</time>
      </trkpt>
      <trkpt lat="45.10831" lon="2.64577">
        <ele>1546.1</ele>
        <time>2021-08-11T10:13:15Z</time>
      </trkpt>
      <trkpt lat="45.10831" lon="2.64578">
        <ele>1546.3</ele>
        <time>2021-08-11T10:13:16Z</time>
      </trkpt>
      <trkpt lat="45.10832" lon="2.64579">
        <ele>1546.4</ele>
        <time>2021-08-11T10:13:17Z</time>
      </trkpt>
      <trkpt lat="45.10832" lon="2.6458">
        <ele>1546.5</ele>
        <time>2021-08-11T10:13:18Z</time>
      </trkpt>
      <trkpt lat="45.10832" lon="2.6458">
        <ele>1546.6</ele>
        <time>2021-08-11T10:13:19Z</time>
      </trkpt>
      <trkpt lat="45.10833" lon="2.6458">
        <ele>1546.6</ele>
        <time>2021-08-11T10:13:20Z</time>
      </trkpt>
      <trkpt lat="45.10833" lon="2.6458">
        <ele>1546.7</ele>
        <time>2021-08-11T10:13:21Z</time>
      </trkpt>
      <trkpt lat="45.10833" lon="2.64581">
        <ele>1546.8</ele>
        <time>2021-08-11T10:13:22Z</time>
      </trkpt>
      <trkpt lat="45.10834" lon="2.64582">
        <ele>1546.8</ele>
        <time>2021-08-11T10:13:23Z</time>
      </trkpt>
      <trkpt lat="45.10834" lon="2.64584">
        <ele>1546.9</ele>
        <time>2021-08-11T10:13:24Z</time>
      </trkpt>
      <trkpt lat="45.10834" lon="2.64585">
        <ele>1546.7</ele>
        <time>2021-08-11T10:13:25Z</time>
      </trkpt>
      <trkpt lat="45.10834" lon="2.64586">
        <ele>1546.6</ele>
        <time>2021-08-11T10:13:26Z</time>
      </trkpt>
      <trkpt lat="45.10834" lon="2.64587">
        <ele>1546.5</ele>
        <time>2021-08-11T10:13:27Z</time>
      </trkpt>
      <trkpt lat="45.10834" lon="2.64588">
        <ele>1546.4</ele>
        <time>2021-08-11T10:13:28Z</time>
      </trkpt>
      <trkpt lat="45.10835" lon="2.64589">
        <ele>1546.2</ele>
        <time>2021-08-11T10:13:29Z</time>
      </trkpt>
      <trkpt lat="45.10835" lon="2.64589">
        <ele>1546.2</ele>
        <time>2021-08-11T10:13:30Z</time>
      </trkpt>
      <trkpt lat="45.10835" lon="2.64589">
        <ele>1546.2</ele>
        <time>2021-08-11T10:13:31Z</time>
      </trkpt>
      <trkpt lat="45.10827" lon="2.64585">
        <ele>1545.9</ele>
        <time>2021-08-11T10:13:32Z</time>
      </trkpt>
      <trkpt lat="45.10827" lon="2.64586">
        <ele>1545.8</ele>
        <time>2021-08-11T10:13:33Z</time>
      </trkpt>
      <trkpt lat="45.10827" lon="2.64587">
        <ele>1545.7</ele>
        <time>2021-08-11T10:13:34Z</time>
      </trkpt>
      <trkpt lat="45.10827" lon="2.64588">
        <ele>1545.7</ele>
        <time>2021-08-11T10:13:35Z</time>
      </trkpt>
      <trkpt lat="45.10826" lon="2.64589">
        <ele>1545.5</ele>
        <time>2021-08-11T10:13:36Z</time>
      </trkpt>
      <trkpt lat="45.10826" lon="2.6459">
        <ele>1545.4</ele>
        <time>2021-08-11T10:13:37Z</time>
      </trkpt>
      <trkpt lat="45.10825" lon="2.64591">
        <ele>1545.3</ele>
        <time>2021-08-11T10:13:38Z</time>
      </trkpt>
      <trkpt lat="45.10825" lon="2.64592">
        <ele>1545.2</ele>
        <time>2021-08-11T10:13:39Z</time>
      </trkpt>
      <trkpt lat="45.10825" lon="2.64593">
        <ele>1545.1</ele>
        <time>2021-08-11T10:13:40Z</time>
      </trkpt>
      <trkpt lat="45.10824" lon="2.64594">
        <ele>1545</ele>
        <time>2021-08-11T10:13:41Z</time>
      </trkpt>
      <trkpt lat="45.10824" lon="2.64595">
        <ele>1544.9</ele>
        <time>2021-08-11T10:13:42Z</time>
      </trkpt>
      <trkpt lat="45.10824" lon="2.64596">
        <ele>1544.8</ele>
        <time>2021-08-11T10:13:43Z</time>
      </trkpt>
      <trkpt lat="45.10824" lon="2.64597">
        <ele>1544.6</ele>
        <time>2021-08-11T10:13:44Z</time>
      </trkpt>
      <trkpt lat="45.10823" lon="2.64599">
        <ele>1544.5</ele>
        <time>2021-08-11T10:13:45Z</time>
      </trkpt>
      <trkpt lat="45.10822" lon="2.64599">
        <ele>1544.4</ele>
        <time>2021-08-11T10:13:46Z</time>
      </trkpt>
      <trkpt lat="45.10822" lon="2.646">
        <ele>1544.3</ele>
        <time>2021-08-11T10:13:47Z</time>
      </trkpt>
      <trkpt lat="45.10822" lon="2.64601">
        <ele>1544.2</ele>
        <time>2021-08-11T10:13:48Z</time>
      </trkpt>
      <trkpt lat="45.10821" lon="2.64602">
        <ele>1544.1</ele>
        <time>2021-08-11T10:13:49Z</time>
      </trkpt>
      <trkpt lat="45.10821" lon="2.64602">
        <ele>1544</ele>
        <time>2021-08-11T10:13:50Z</time>
      </trkpt>
      <trkpt lat="45.1082" lon="2.64603">
        <ele>1543.9</ele>
        <time>2021-08-11T10:13:51Z</time>
      </trkpt>
      <trkpt lat="45.1082" lon="2.64604">
        <ele>1543.8</ele>
        <time>2021-08-11T10:13:52Z</time>
      </trkpt>
      <trkpt lat="45.10819" lon="2.64605">
        <ele>1543.7</ele>
        <time>2021-08-11T10:13:53Z</time>
      </trkpt>
      <trkpt lat="45.10819" lon="2.64605">
        <ele>1543.7</ele>
        <time>2021-08-11T10:13:54Z</time>
      </trkpt>
      <trkpt lat="45.10819" lon="2.64607">
        <ele>1543.6</ele>
        <time>2021-08-11T10:13:55Z</time>
      </trkpt>
      <trkpt lat="45.10818" lon="2.64608">
        <ele>1543.5</ele>
        <time>2021-08-11T10:13:56Z</time>
      </trkpt>
      <trkpt lat="45.10818" lon="2.64609">
        <ele>1543.4</ele>
        <time>2021-08-11T10:13:57Z</time>
      </trkpt>
      <trkpt lat="45.10817" lon="2.6461">
        <ele>1543.3</ele>
        <time>2021-08-11T10:13:58Z</time>
      </trkpt>
      <trkpt lat="45.10817" lon="2.64612">
        <ele>1543.2</ele>
        <time>2021-08-11T10:13:59Z</time>
      </trkpt>
      <trkpt lat="45.10817" lon="2.64613">
        <ele>1543.1</ele>
        <time>2021-08-11T10:14:00Z</time>
      </trkpt>
      <trkpt lat="45.10816" lon="2.64614">
        <ele>1543</ele>
        <time>2021-08-11T10:14:01Z</time>
      </trkpt>
      <trkpt lat="45.10815" lon="2.64615">
        <ele>1542.9</ele>
        <time>2021-08-11T10:14:02Z</time>
      </trkpt>
      <trkpt lat="45.10815" lon="2.64616">
        <ele>1542.8</ele>
        <time>2021-08-11T10:14:03Z</time>
      </trkpt>
      <trkpt lat="45.10814" lon="2.64616">
        <ele>1542.8</ele>
        <time>2021-08-11T10:14:04Z</time>
      </trkpt>
      <trkpt lat="45.10813" lon="2.64616">
        <ele>1542.7</ele>
        <time>2021-08-11T10:14:05Z</time>
      </trkpt>
      <trkpt lat="45.10813" lon="2.64617">
        <ele>1542.7</ele>
        <time>2021-08-11T10:14:06Z</time>
      </trkpt>
      <trkpt lat="45.10812" lon="2.64617">
        <ele>1542.6</ele>
        <time>2021-08-11T10:14:07Z</time>
      </trkpt>
      <trkpt lat="45.10812" lon="2.64618">
        <ele>1542.5</ele>
        <time>2021-08-11T10:14:08Z</time>
      </trkpt>
      <trkpt lat="45.10811" lon="2.64619">
        <ele>1542.5</ele>
        <time>2021-08-11T10:14:09Z</time>
      </trkpt>
      <trkpt lat="45.1081" lon="2.64619">
        <ele>1542.4</ele>
        <time>2021-08-11T10:14:10Z</time>
      </trkpt>
      <trkpt lat="45.1081" lon="2.6462">
        <ele>1542.4</ele>
        <time>2021-08-11T10:14:11Z</time>
      </trkpt>
      <trkpt lat="45.10809" lon="2.64621">
        <ele>1542.3</ele>
        <time>2021-08-11T10:14:12Z</time>
      </trkpt>
      <trkpt lat="45.10809" lon="2.64622">
        <ele>1542.2</ele>
        <time>2021-08-11T10:14:13Z</time>
      </trkpt>
      <trkpt lat="45.10808" lon="2.64623">
        <ele>1542.2</ele>
        <time>2021-08-11T10:14:14Z</time>
      </trkpt>
      <trkpt lat="45.10808" lon="2.64624">
        <ele>1542.1</ele>
        <time>2021-08-11T10:14:15Z</time>
      </trkpt>
      <trkpt lat="45.10807" lon="2.64624">
        <ele>1542.1</ele>
        <time>2021-08-11T10:14:16Z</time>
      </trkpt>
      <trkpt lat="45.10807" lon="2.64625">
        <ele>1542.1</ele>
        <time>2021-08-11T10:14:17Z</time>
      </trkpt>
      <trkpt lat="45.10806" lon="2.64626">
        <ele>1542</ele>
        <time>2021-08-11T10:14:18Z</time>
      </trkpt>
      <trkpt lat="45.10806" lon="2.64627">
        <ele>1542</ele>
        <time>2021-08-11T10:14:19Z</time>
      </trkpt>
      <trkpt lat="45.10805" lon="2.64627">
        <ele>1541.9</ele>
        <time>2021-08-11T10:14:20Z</time>
      </trkpt>
      <trkpt lat="45.10804" lon="2.64628">
        <ele>1541.9</ele>
        <time>2021-08-11T10:14:21Z</time>
      </trkpt>
      <trkpt lat="45.10804" lon="2.64629">
        <ele>1541.9</ele>
        <time>2021-08-11T10:14:22Z</time>
      </trkpt>
      <trkpt lat="45.10803" lon="2.6463">
        <ele>1541.8</ele>
        <time>2021-08-11T10:14:23Z</time>
      </trkpt>
      <trkpt lat="45.10803" lon="2.64631">
        <ele>1541.8</ele>
        <time>2021-08-11T10:14:24Z</time>
      </trkpt>
      <trkpt lat="45.10803" lon="2.64631">
        <ele>1541.8</ele>
        <time>2021-08-11T10:14:25Z</time>
      </trkpt>
      <trkpt lat="45.10802" lon="2.64632">
        <ele>1541.7</ele>
        <time>2021-08-11T10:14:26Z</time>
      </trkpt>
      <trkpt lat="45.10801" lon="2.64633">
        <ele>1541.7</ele>
        <time>2021-08-11T10:14:27Z</time>
      </trkpt>
      <trkpt lat="45.10801" lon="2.64634">
        <ele>1541.7</ele>
        <time>2021-08-11T10:14:28Z</time>
      </trkpt>
      <trkpt lat="45.108" lon="2.64634">
        <ele>1541.7</ele>
        <time>2021-08-11T10:14:29Z</time>
      </trkpt>
      <trkpt lat="45.108" lon="2.64635">
        <ele>1541.7</ele>
        <time>2021-08-11T10:14:30Z</time>
      </trkpt>
      <trkpt lat="45.10799" lon="2.64635">
        <ele>1541.6</ele>
        <time>2021-08-11T10:14:31Z</time>
      </trkpt>
      <trkpt lat="45.10798" lon="2.64636">
        <ele>1541.6</ele>
        <time>2021-08-11T10:14:32Z</time>
      </trkpt>
      <trkpt lat="45.10798" lon="2.64636">
        <ele>1541.6</ele>
        <time>2021-08-11T10:14:33Z</time>
      </trkpt>
      <trkpt lat="45.10797" lon="2.64637">
        <ele>1541.6</ele>
        <time>2021-08-11T10:14:34Z</time>
      </trkpt>
      <trkpt lat="45.10797" lon="2.64638">
        <ele>1541.6</ele>
        <time>2021-08-11T10:14:35Z</time>
      </trkpt>
      <trkpt lat="45.10796" lon="2.64638">
        <ele>1541.6</ele>
        <time>2021-08-11T10:14:36Z</time>
      </trkpt>
      <trkpt lat="45.10795" lon="2.64639">
        <ele>1541.6</ele>
        <time>2021-08-11T10:14:37Z</time>
      </trkpt>
      <trkpt lat="45.10795" lon="2.6464">
        <ele>1541.6</ele>
        <time>2021-08-11T10:14:38Z</time>
      </trkpt>
      <trkpt lat="45.10794" lon="2.64641">
        <ele>1541.6</ele>
        <time>2021-08-11T10:14:39Z</time>
      </trkpt>
      <trkpt lat="45.10793" lon="2.64642">
        <ele>1541.6</ele>
        <time>2021-08-11T10:14:40Z</time>
      </trkpt>
      <trkpt lat="45.10793" lon="2.64643">
        <ele>1541.6</ele>
        <time>2021-08-11T10:14:41Z</time>
      </trkpt>
      <trkpt lat="45.10792" lon="2.64644">
        <ele>1541.6</ele>
        <time>2021-08-11T10:14:42Z</time>
      </trkpt>
      <trkpt lat="45.10791" lon="2.64645">
        <ele>1541.6</ele>
        <time>2021-08-11T10:14:43Z</time>
      </trkpt>
      <trkpt lat="45.10791" lon="2.64646">
        <ele>1541.6</ele>
        <time>2021-08-11T10:14:44Z</time>
      </trkpt>
      <trkpt lat="45.10791" lon="2.64647">
        <ele>1541.6</ele>
        <time>2021-08-11T10:14:45Z</time>
      </trkpt>
      <trkpt lat="45.1079" lon="2.64648">
        <ele>1541.7</ele>
        <time>2021-08-11T10:14:46Z</time>
      </trkpt>
      <trkpt lat="45.1079" lon="2.64649">
        <ele>1541.7</ele>
        <time>2021-08-11T10:14:47Z</time>
      </trkpt>
      <trkpt lat="45.1079" lon="2.6465">
        <ele>1541.7</ele>
        <time>2021-08-11T10:14:48Z</time>
      </trkpt>
      <trkpt lat="45.10789" lon="2.64651">
        <ele>1541.7</ele>
        <time>2021-08-11T10:14:49Z</time>
      </trkpt>
      <trkpt lat="45.10789" lon="2.64651">
        <ele>1541.8</ele>
        <time>2021-08-11T10:14:50Z</time>
      </trkpt>
      <trkpt lat="45.10788" lon="2.64652">
        <ele>1541.8</ele>
        <time>2021-08-11T10:14:51Z</time>
      </trkpt>
      <trkpt lat="45.10787" lon="2.64652">
        <ele>1541.8</ele>
        <time>2021-08-11T10:14:52Z</time>
      </trkpt>
      <trkpt lat="45.10787" lon="2.64653">
        <ele>1541.8</ele>
        <time>2021-08-11T10:14:53Z</time>
      </trkpt>
      <trkpt lat="45.10786" lon="2.64654">
        <ele>1541.9</ele>
        <time>2021-08-11T10:14:54Z</time>
      </trkpt>
      <trkpt lat="45.10785" lon="2.64654">
        <ele>1541.9</ele>
        <time>2021-08-11T10:14:55Z</time>
      </trkpt>
      <trkpt lat="45.10785" lon="2.64656">
        <ele>1541.9</ele>
        <time>2021-08-11T10:14:56Z</time>
      </trkpt>
      <trkpt lat="45.10784" lon="2.64657">
        <ele>1542</ele>
        <time>2021-08-11T10:14:57Z</time>
      </trkpt>
      <trkpt lat="45.10783" lon="2.64658">
        <ele>1542.1</ele>
        <time>2021-08-11T10:14:58Z</time>
      </trkpt>
      <trkpt lat="45.10782" lon="2.64659">
        <ele>1542.1</ele>
        <time>2021-08-11T10:14:59Z</time>
      </trkpt>
      <trkpt lat="45.10782" lon="2.6466">
        <ele>1542.2</ele>
        <time>2021-08-11T10:15:00Z</time>
      </trkpt>
      <trkpt lat="45.10781" lon="2.64661">
        <ele>1542.3</ele>
        <time>2021-08-11T10:15:01Z</time>
      </trkpt>
      <trkpt lat="45.1078" lon="2.64661">
        <ele>1542.3</ele>
        <time>2021-08-11T10:15:02Z</time>
      </trkpt>
      <trkpt lat="45.10779" lon="2.64662">
        <ele>1542.4</ele>
        <time>2021-08-11T10:15:03Z</time>
      </trkpt>
      <trkpt lat="45.10778" lon="2.64663">
        <ele>1542.5</ele>
        <time>2021-08-11T10:15:04Z</time>
      </trkpt>
      <trkpt lat="45.10778" lon="2.64664">
        <ele>1542.5</ele>
        <time>2021-08-11T10:15:05Z</time>
      </trkpt>
      <trkpt lat="45.10777" lon="2.64665">
        <ele>1542.6</ele>
        <time>2021-08-11T10:15:06Z</time>
      </trkpt>
      <trkpt lat="45.10776" lon="2.64666">
        <ele>1542.7</ele>
        <time>2021-08-11T10:15:07Z</time>
      </trkpt>
      <trkpt lat="45.10775" lon="2.64667">
        <ele>1542.8</ele>
        <time>2021-08-11T10:15:08Z</time>
      </trkpt>
      <trkpt lat="45.10775" lon="2.64669">
        <ele>1542.8</ele>
        <time>2021-08-11T10:15:09Z</time>
      </trkpt>
      <trkpt lat="45.10774" lon="2.6467">
        <ele>1542.8</ele>
        <time>2021-08-11T10:15:10Z</time>
      </trkpt>
      <trkpt lat="45.10773" lon="2.64671">
        <ele>1542.9</ele>
        <time>2021-08-11T10:15:11Z</time>
      </trkpt>
      <trkpt lat="45.10773" lon="2.64672">
        <ele>1542.9</ele>
        <time>2021-08-11T10:15:12Z</time>
      </trkpt>
      <trkpt lat="45.10772" lon="2.64673">
        <ele>1543</ele>
        <time>2021-08-11T10:15:13Z</time>
      </trkpt>
      <trkpt lat="45.10771" lon="2.64674">
        <ele>1543.1</ele>
        <time>2021-08-11T10:15:14Z</time>
      </trkpt>
      <trkpt lat="45.1077" lon="2.64676">
        <ele>1543.1</ele>
        <time>2021-08-11T10:15:15Z</time>
      </trkpt>
      <trkpt lat="45.1077" lon="2.64677">
        <ele>1543.2</ele>
        <time>2021-08-11T10:15:16Z</time>
      </trkpt>
      <trkpt lat="45.10769" lon="2.64678">
        <ele>1543.3</ele>
        <time>2021-08-11T10:15:17Z</time>
      </trkpt>
      <trkpt lat="45.10768" lon="2.64679">
        <ele>1543.4</ele>
        <time>2021-08-11T10:15:18Z</time>
      </trkpt>
      <trkpt lat="45.10767" lon="2.6468">
        <ele>1543.5</ele>
        <time>2021-08-11T10:15:19Z</time>
      </trkpt>
      <trkpt lat="45.10767" lon="2.64681">
        <ele>1543.6</ele>
        <time>2021-08-11T10:15:20Z</time>
      </trkpt>
      <trkpt lat="45.10766" lon="2.64682">
        <ele>1543.8</ele>
        <time>2021-08-11T10:15:21Z</time>
      </trkpt>
      <trkpt lat="45.10765" lon="2.64684">
        <ele>1543.9</ele>
        <time>2021-08-11T10:15:22Z</time>
      </trkpt>
      <trkpt lat="45.10765" lon="2.64685">
        <ele>1543.9</ele>
        <time>2021-08-11T10:15:23Z</time>
      </trkpt>
      <trkpt lat="45.10765" lon="2.64686">
        <ele>1544</ele>
        <time>2021-08-11T10:15:24Z</time>
      </trkpt>
      <trkpt lat="45.10764" lon="2.64687">
        <ele>1544.1</ele>
        <time>2021-08-11T10:15:25Z</time>
      </trkpt>
      <trkpt lat="45.10764" lon="2.64689">
        <ele>1544.3</ele>
        <time>2021-08-11T10:15:26Z</time>
      </trkpt>
      <trkpt lat="45.10763" lon="2.6469">
        <ele>1544.4</ele>
        <time>2021-08-11T10:15:27Z</time>
      </trkpt>
      <trkpt lat="45.10763" lon="2.64691">
        <ele>1544.6</ele>
        <time>2021-08-11T10:15:28Z</time>
      </trkpt>
      <trkpt lat="45.10762" lon="2.64692">
        <ele>1544.7</ele>
        <time>2021-08-11T10:15:29Z</time>
      </trkpt>
      <trkpt lat="45.10762" lon="2.64693">
        <ele>1544.8</ele>
        <time>2021-08-11T10:15:30Z</time>
      </trkpt>
      <trkpt lat="45.10761" lon="2.64694">
        <ele>1545</ele>
        <time>2021-08-11T10:15:31Z</time>
      </trkpt>
      <trkpt lat="45.1076" lon="2.64695">
        <ele>1545.2</ele>
        <time>2021-08-11T10:15:32Z</time>
      </trkpt>
      <trkpt lat="45.1076" lon="2.64696">
        <ele>1545.3</ele>
        <time>2021-08-11T10:15:33Z</time>
      </trkpt>
      <trkpt lat="45.10759" lon="2.64697">
        <ele>1545.5</ele>
        <time>2021-08-11T10:15:34Z</time>
      </trkpt>
      <trkpt lat="45.10759" lon="2.64698">
        <ele>1545.6</ele>
        <time>2021-08-11T10:15:35Z</time>
      </trkpt>
      <trkpt lat="45.10758" lon="2.64699">
        <ele>1545.8</ele>
        <time>2021-08-11T10:15:36Z</time>
      </trkpt>
      <trkpt lat="45.10758" lon="2.647">
        <ele>1546</ele>
        <time>2021-08-11T10:15:37Z</time>
      </trkpt>
      <trkpt lat="45.10757" lon="2.64701">
        <ele>1546.2</ele>
        <time>2021-08-11T10:15:38Z</time>
      </trkpt>
      <trkpt lat="45.10757" lon="2.64702">
        <ele>1546.4</ele>
        <time>2021-08-11T10:15:39Z</time>
      </trkpt>
      <trkpt lat="45.10756" lon="2.64703">
        <ele>1546.6</ele>
        <time>2021-08-11T10:15:40Z</time>
      </trkpt>
      <trkpt lat="45.10755" lon="2.64704">
        <ele>1546.8</ele>
        <time>2021-08-11T10:15:41Z</time>
      </trkpt>
      <trkpt lat="45.10755" lon="2.64705">
        <ele>1547.1</ele>
        <time>2021-08-11T10:15:42Z</time>
      </trkpt>
      <trkpt lat="45.10754" lon="2.64707">
        <ele>1547.4</ele>
        <time>2021-08-11T10:15:43Z</time>
      </trkpt>
      <trkpt lat="45.10753" lon="2.64708">
        <ele>1547.8</ele>
        <time>2021-08-11T10:15:44Z</time>
      </trkpt>
      <trkpt lat="45.10752" lon="2.64709">
        <ele>1548.1</ele>
        <time>2021-08-11T10:15:45Z</time>
      </trkpt>
      <trkpt lat="45.10751" lon="2.6471">
        <ele>1548.4</ele>
        <time>2021-08-11T10:15:46Z</time>
      </trkpt>
      <trkpt lat="45.1075" lon="2.6471">
        <ele>1548.7</ele>
        <time>2021-08-11T10:15:47Z</time>
      </trkpt>
      <trkpt lat="45.10749" lon="2.64711">
        <ele>1548.8</ele>
        <time>2021-08-11T10:15:48Z</time>
      </trkpt>
      <trkpt lat="45.10749" lon="2.64712">
        <ele>1548.9</ele>
        <time>2021-08-11T10:15:49Z</time>
      </trkpt>
      <trkpt lat="45.10748" lon="2.64713">
        <ele>1549</ele>
        <time>2021-08-11T10:15:50Z</time>
      </trkpt>
      <trkpt lat="45.10747" lon="2.64714">
        <ele>1549.1</ele>
        <time>2021-08-11T10:15:51Z</time>
      </trkpt>
      <trkpt lat="45.10746" lon="2.64716">
        <ele>1549.2</ele>
        <time>2021-08-11T10:15:52Z</time>
      </trkpt>
      <trkpt lat="45.10745" lon="2.64717">
        <ele>1549.4</ele>
        <time>2021-08-11T10:15:53Z</time>
      </trkpt>
      <trkpt lat="45.10745" lon="2.64718">
        <ele>1549.5</ele>
        <time>2021-08-11T10:15:54Z</time>
      </trkpt>
      <trkpt lat="45.10744" lon="2.64719">
        <ele>1549.6</ele>
        <time>2021-08-11T10:15:55Z</time>
      </trkpt>
      <trkpt lat="45.10743" lon="2.6472">
        <ele>1549.7</ele>
        <time>2021-08-11T10:15:56Z</time>
      </trkpt>
      <trkpt lat="45.10742" lon="2.64721">
        <ele>1549.8</ele>
        <time>2021-08-11T10:15:57Z</time>
      </trkpt>
      <trkpt lat="45.10741" lon="2.64722">
        <ele>1549.9</ele>
        <time>2021-08-11T10:15:58Z</time>
      </trkpt>
      <trkpt lat="45.1074" lon="2.64723">
        <ele>1550.1</ele>
        <time>2021-08-11T10:15:59Z</time>
      </trkpt>
      <trkpt lat="45.10739" lon="2.64724">
        <ele>1550.3</ele>
        <time>2021-08-11T10:16:00Z</time>
      </trkpt>
      <trkpt lat="45.10739" lon="2.64725">
        <ele>1550.4</ele>
        <time>2021-08-11T10:16:01Z</time>
      </trkpt>
      <trkpt lat="45.10738" lon="2.64726">
        <ele>1550.6</ele>
        <time>2021-08-11T10:16:02Z</time>
      </trkpt>
      <trkpt lat="45.10737" lon="2.64727">
        <ele>1550.7</ele>
        <time>2021-08-11T10:16:03Z</time>
      </trkpt>
      <trkpt lat="45.10736" lon="2.64729">
        <ele>1550.9</ele>
        <time>2021-08-11T10:16:04Z</time>
      </trkpt>
      <trkpt lat="45.10736" lon="2.6473">
        <ele>1551.1</ele>
        <time>2021-08-11T10:16:05Z</time>
      </trkpt>
      <trkpt lat="45.10735" lon="2.64731">
        <ele>1551.2</ele>
        <time>2021-08-11T10:16:06Z</time>
      </trkpt>
      <trkpt lat="45.10734" lon="2.64732">
        <ele>1551.4</ele>
        <time>2021-08-11T10:16:07Z</time>
      </trkpt>
      <trkpt lat="45.10734" lon="2.64733">
        <ele>1551.6</ele>
        <time>2021-08-11T10:16:08Z</time>
      </trkpt>
      <trkpt lat="45.10733" lon="2.64734">
        <ele>1551.8</ele>
        <time>2021-08-11T10:16:09Z</time>
      </trkpt>
      <trkpt lat="45.10732" lon="2.64735">
        <ele>1551.9</ele>
        <time>2021-08-11T10:16:10Z</time>
      </trkpt>
      <trkpt lat="45.10732" lon="2.64736">
        <ele>1552.1</ele>
        <time>2021-08-11T10:16:11Z</time>
      </trkpt>
      <trkpt lat="45.10731" lon="2.64737">
        <ele>1552.3</ele>
        <time>2021-08-11T10:16:12Z</time>
      </trkpt>
      <trkpt lat="45.1073" lon="2.64738">
        <ele>1552.5</ele>
        <time>2021-08-11T10:16:13Z</time>
      </trkpt>
      <trkpt lat="45.10729" lon="2.6474">
        <ele>1552.7</ele>
        <time>2021-08-11T10:16:14Z</time>
      </trkpt>
      <trkpt lat="45.10729" lon="2.64741">
        <ele>1552.9</ele>
        <time>2021-08-11T10:16:15Z</time>
      </trkpt>
      <trkpt lat="45.10728" lon="2.64742">
        <ele>1553</ele>
        <time>2021-08-11T10:16:16Z</time>
      </trkpt>
      <trkpt lat="45.10727" lon="2.64743">
        <ele>1553.2</ele>
        <time>2021-08-11T10:16:17Z</time>
      </trkpt>
      <trkpt lat="45.10726" lon="2.64744">
        <ele>1553.4</ele>
        <time>2021-08-11T10:16:18Z</time>
      </trkpt>
      <trkpt lat="45.10726" lon="2.64745">
        <ele>1553.6</ele>
        <time>2021-08-11T10:16:19Z</time>
      </trkpt>
      <trkpt lat="45.10725" lon="2.64746">
        <ele>1553.8</ele>
        <time>2021-08-11T10:16:20Z</time>
      </trkpt>
      <trkpt lat="45.10724" lon="2.64747">
        <ele>1554</ele>
        <time>2021-08-11T10:16:21Z</time>
      </trkpt>
      <trkpt lat="45.10723" lon="2.64748">
        <ele>1554.2</ele>
        <time>2021-08-11T10:16:22Z</time>
      </trkpt>
      <trkpt lat="45.10722" lon="2.64749">
        <ele>1554.4</ele>
        <time>2021-08-11T10:16:23Z</time>
      </trkpt>
      <trkpt lat="45.10722" lon="2.64749">
        <ele>1554.6</ele>
        <time>2021-08-11T10:16:24Z</time>
      </trkpt>
      <trkpt lat="45.10721" lon="2.6475">
        <ele>1554.7</ele>
        <time>2021-08-11T10:16:25Z</time>
      </trkpt>
      <trkpt lat="45.1072" lon="2.64751">
        <ele>1554.8</ele>
        <time>2021-08-11T10:16:26Z</time>
      </trkpt>
      <trkpt lat="45.10719" lon="2.64752">
        <ele>1554.8</ele>
        <time>2021-08-11T10:16:27Z</time>
      </trkpt>
      <trkpt lat="45.10719" lon="2.64753">
        <ele>1554.8</ele>
        <time>2021-08-11T10:16:28Z</time>
      </trkpt>
      <trkpt lat="45.10718" lon="2.64754">
        <ele>1554.8</ele>
        <time>2021-08-11T10:16:29Z</time>
      </trkpt>
      <trkpt lat="45.10717" lon="2.64755">
        <ele>1554.8</ele>
        <time>2021-08-11T10:16:30Z</time>
      </trkpt>
      <trkpt lat="45.10716" lon="2.64755">
        <ele>1554.8</ele>
        <time>2021-08-11T10:16:31Z</time>
      </trkpt>
      <trkpt lat="45.10716" lon="2.64756">
        <ele>1554.9</ele>
        <time>2021-08-11T10:16:32Z</time>
      </trkpt>
      <trkpt lat="45.10715" lon="2.64757">
        <ele>1554.9</ele>
        <time>2021-08-11T10:16:33Z</time>
      </trkpt>
      <trkpt lat="45.10715" lon="2.64757">
        <ele>1554.9</ele>
        <time>2021-08-11T10:16:34Z</time>
      </trkpt>
      <trkpt lat="45.10714" lon="2.64758">
        <ele>1554.9</ele>
        <time>2021-08-11T10:16:35Z</time>
      </trkpt>
      <trkpt lat="45.10714" lon="2.64759">
        <ele>1555</ele>
        <time>2021-08-11T10:16:36Z</time>
      </trkpt>
      <trkpt lat="45.10713" lon="2.6476">
        <ele>1555</ele>
        <time>2021-08-11T10:16:37Z</time>
      </trkpt>
      <trkpt lat="45.10712" lon="2.64761">
        <ele>1555</ele>
        <time>2021-08-11T10:16:38Z</time>
      </trkpt>
      <trkpt lat="45.10712" lon="2.64762">
        <ele>1555.1</ele>
        <time>2021-08-11T10:16:39Z</time>
      </trkpt>
      <trkpt lat="45.10711" lon="2.64763">
        <ele>1555.1</ele>
        <time>2021-08-11T10:16:40Z</time>
      </trkpt>
      <trkpt lat="45.10711" lon="2.64764">
        <ele>1555.1</ele>
        <time>2021-08-11T10:16:41Z</time>
      </trkpt>
      <trkpt lat="45.1071" lon="2.64764">
        <ele>1555.2</ele>
        <time>2021-08-11T10:16:42Z</time>
      </trkpt>
      <trkpt lat="45.10709" lon="2.64765">
        <ele>1555.2</ele>
        <time>2021-08-11T10:16:43Z</time>
      </trkpt>
      <trkpt lat="45.10709" lon="2.64766">
        <ele>1555.3</ele>
        <time>2021-08-11T10:16:44Z</time>
      </trkpt>
      <trkpt lat="45.10708" lon="2.64767">
        <ele>1555.3</ele>
        <time>2021-08-11T10:16:45Z</time>
      </trkpt>
      <trkpt lat="45.10708" lon="2.64767">
        <ele>1555.4</ele>
        <time>2021-08-11T10:16:46Z</time>
      </trkpt>
      <trkpt lat="45.10707" lon="2.64768">
        <ele>1555.4</ele>
        <time>2021-08-11T10:16:47Z</time>
      </trkpt>
      <trkpt lat="45.10706" lon="2.64769">
        <ele>1555.5</ele>
        <time>2021-08-11T10:16:48Z</time>
      </trkpt>
      <trkpt lat="45.10706" lon="2.6477">
        <ele>1555.5</ele>
        <time>2021-08-11T10:16:49Z</time>
      </trkpt>
      <trkpt lat="45.10705" lon="2.64771">
        <ele>1555.6</ele>
        <time>2021-08-11T10:16:50Z</time>
      </trkpt>
      <trkpt lat="45.10705" lon="2.64772">
        <ele>1555.7</ele>
        <time>2021-08-11T10:16:51Z</time>
      </trkpt>
      <trkpt lat="45.10704" lon="2.64773">
        <ele>1555.7</ele>
        <time>2021-08-11T10:16:52Z</time>
      </trkpt>
      <trkpt lat="45.10704" lon="2.64774">
        <ele>1555.8</ele>
        <time>2021-08-11T10:16:53Z</time>
      </trkpt>
      <trkpt lat="45.10704" lon="2.64775">
        <ele>1555.8</ele>
        <time>2021-08-11T10:16:54Z</time>
      </trkpt>
      <trkpt lat="45.10703" lon="2.64776">
        <ele>1555.8</ele>
        <time>2021-08-11T10:16:55Z</time>
      </trkpt>
      <trkpt lat="45.10703" lon="2.64777">
        <ele>1555.9</ele>
        <time>2021-08-11T10:16:56Z</time>
      </trkpt>
      <trkpt lat="45.10702" lon="2.64779">
        <ele>1556</ele>
        <time>2021-08-11T10:16:57Z</time>
      </trkpt>
      <trkpt lat="45.10702" lon="2.64779">
        <ele>1556.1</ele>
        <time>2021-08-11T10:16:58Z</time>
      </trkpt>
      <trkpt lat="45.10701" lon="2.6478">
        <ele>1556.1</ele>
        <time>2021-08-11T10:16:59Z</time>
      </trkpt>
      <trkpt lat="45.10701" lon="2.64781">
        <ele>1556.2</ele>
        <time>2021-08-11T10:17:00Z</time>
      </trkpt>
      <trkpt lat="45.107" lon="2.64782">
        <ele>1556.3</ele>
        <time>2021-08-11T10:17:01Z</time>
      </trkpt>
      <trkpt lat="45.107" lon="2.64783">
        <ele>1556.4</ele>
        <time>2021-08-11T10:17:02Z</time>
      </trkpt>
      <trkpt lat="45.10699" lon="2.64784">
        <ele>1556.5</ele>
        <time>2021-08-11T10:17:03Z</time>
      </trkpt>
      <trkpt lat="45.10698" lon="2.64785">
        <ele>1556.6</ele>
        <time>2021-08-11T10:17:04Z</time>
      </trkpt>
      <trkpt lat="45.10698" lon="2.64786">
        <ele>1556.6</ele>
        <time>2021-08-11T10:17:05Z</time>
      </trkpt>
      <trkpt lat="45.10697" lon="2.64786">
        <ele>1556.8</ele>
        <time>2021-08-11T10:17:06Z</time>
      </trkpt>
      <trkpt lat="45.10697" lon="2.64787">
        <ele>1556.8</ele>
        <time>2021-08-11T10:17:07Z</time>
      </trkpt>
      <trkpt lat="45.10696" lon="2.64788">
        <ele>1556.9</ele>
        <time>2021-08-11T10:17:08Z</time>
      </trkpt>
      <trkpt lat="45.10696" lon="2.64789">
        <ele>1557</ele>
        <time>2021-08-11T10:17:09Z</time>
      </trkpt>
      <trkpt lat="45.10696" lon="2.6479">
        <ele>1557.1</ele>
        <time>2021-08-11T10:17:10Z</time>
      </trkpt>
      <trkpt lat="45.10695" lon="2.64791">
        <ele>1557.2</ele>
        <time>2021-08-11T10:17:11Z</time>
      </trkpt>
      <trkpt lat="45.10695" lon="2.64793">
        <ele>1557.3</ele>
        <time>2021-08-11T10:17:12Z</time>
      </trkpt>
      <trkpt lat="45.10695" lon="2.64794">
        <ele>1557.4</ele>
        <time>2021-08-11T10:17:13Z</time>
      </trkpt>
      <trkpt lat="45.10694" lon="2.64795">
        <ele>1557.5</ele>
        <time>2021-08-11T10:17:14Z</time>
      </trkpt>
      <trkpt lat="45.10693" lon="2.64796">
        <ele>1557.6</ele>
        <time>2021-08-11T10:17:15Z</time>
      </trkpt>
      <trkpt lat="45.10693" lon="2.64797">
        <ele>1557.8</ele>
        <time>2021-08-11T10:17:16Z</time>
      </trkpt>
      <trkpt lat="45.10692" lon="2.64798">
        <ele>1557.9</ele>
        <time>2021-08-11T10:17:17Z</time>
      </trkpt>
      <trkpt lat="45.10692" lon="2.64798">
        <ele>1558</ele>
        <time>2021-08-11T10:17:18Z</time>
      </trkpt>
      <trkpt lat="45.10691" lon="2.64799">
        <ele>1558.2</ele>
        <time>2021-08-11T10:17:19Z</time>
      </trkpt>
      <trkpt lat="45.1069" lon="2.648">
        <ele>1558.3</ele>
        <time>2021-08-11T10:17:20Z</time>
      </trkpt>
      <trkpt lat="45.1069" lon="2.64801">
        <ele>1558.5</ele>
        <time>2021-08-11T10:17:21Z</time>
      </trkpt>
      <trkpt lat="45.10689" lon="2.64803">
        <ele>1558.6</ele>
        <time>2021-08-11T10:17:22Z</time>
      </trkpt>
      <trkpt lat="45.10689" lon="2.64803">
        <ele>1558.7</ele>
        <time>2021-08-11T10:17:23Z</time>
      </trkpt>
      <trkpt lat="45.10689" lon="2.64804">
        <ele>1558.8</ele>
        <time>2021-08-11T10:17:24Z</time>
      </trkpt>
      <trkpt lat="45.10688" lon="2.64806">
        <ele>1559</ele>
        <time>2021-08-11T10:17:25Z</time>
      </trkpt>
      <trkpt lat="45.10688" lon="2.64807">
        <ele>1559.1</ele>
        <time>2021-08-11T10:17:26Z</time>
      </trkpt>
      <trkpt lat="45.10688" lon="2.64808">
        <ele>1559.2</ele>
        <time>2021-08-11T10:17:27Z</time>
      </trkpt>
      <trkpt lat="45.10687" lon="2.64809">
        <ele>1559.3</ele>
        <time>2021-08-11T10:17:28Z</time>
      </trkpt>
      <trkpt lat="45.10687" lon="2.6481">
        <ele>1559.4</ele>
        <time>2021-08-11T10:17:29Z</time>
      </trkpt>
      <trkpt lat="45.10687" lon="2.64812">
        <ele>1559.5</ele>
        <time>2021-08-11T10:17:30Z</time>
      </trkpt>
      <trkpt lat="45.10687" lon="2.64813">
        <ele>1559.6</ele>
        <time>2021-08-11T10:17:31Z</time>
      </trkpt>
      <trkpt lat="45.10686" lon="2.64814">
        <ele>1559.7</ele>
        <time>2021-08-11T10:17:32Z</time>
      </trkpt>
      <trkpt lat="45.10686" lon="2.64815">
        <ele>1559.8</ele>
        <time>2021-08-11T10:17:33Z</time>
      </trkpt>
      <trkpt lat="45.10686" lon="2.64816">
        <ele>1560</ele>
        <time>2021-08-11T10:17:34Z</time>
      </trkpt>
      <trkpt lat="45.10685" lon="2.64817">
        <ele>1560.1</ele>
        <time>2021-08-11T10:17:35Z</time>
      </trkpt>
      <trkpt lat="45.10685" lon="2.64819">
        <ele>1560.2</ele>
        <time>2021-08-11T10:17:36Z</time>
      </trkpt>
      <trkpt lat="45.10685" lon="2.6482">
        <ele>1560.4</ele>
        <time>2021-08-11T10:17:37Z</time>
      </trkpt>
      <trkpt lat="45.10684" lon="2.64821">
        <ele>1560.5</ele>
        <time>2021-08-11T10:17:38Z</time>
      </trkpt>
      <trkpt lat="45.10684" lon="2.64822">
        <ele>1560.7</ele>
        <time>2021-08-11T10:17:39Z</time>
      </trkpt>
      <trkpt lat="45.10683" lon="2.64823">
        <ele>1560.9</ele>
        <time>2021-08-11T10:17:40Z</time>
      </trkpt>
      <trkpt lat="45.10683" lon="2.64824">
        <ele>1560.9</ele>
        <time>2021-08-11T10:17:41Z</time>
      </trkpt>
      <trkpt lat="45.10683" lon="2.64825">
        <ele>1561.1</ele>
        <time>2021-08-11T10:17:42Z</time>
      </trkpt>
      <trkpt lat="45.10683" lon="2.64826">
        <ele>1561.2</ele>
        <time>2021-08-11T10:17:43Z</time>
      </trkpt>
      <trkpt lat="45.10682" lon="2.64827">
        <ele>1561.3</ele>
        <time>2021-08-11T10:17:44Z</time>
      </trkpt>
      <trkpt lat="45.10682" lon="2.64828">
        <ele>1561.5</ele>
        <time>2021-08-11T10:17:45Z</time>
      </trkpt>
      <trkpt lat="45.10681" lon="2.64829">
        <ele>1561.7</ele>
        <time>2021-08-11T10:17:46Z</time>
      </trkpt>
      <trkpt lat="45.10681" lon="2.6483">
        <ele>1561.8</ele>
        <time>2021-08-11T10:17:47Z</time>
      </trkpt>
      <trkpt lat="45.10681" lon="2.64831">
        <ele>1562</ele>
        <time>2021-08-11T10:17:48Z</time>
      </trkpt>
      <trkpt lat="45.10681" lon="2.64832">
        <ele>1562</ele>
        <time>2021-08-11T10:17:49Z</time>
      </trkpt>
      <trkpt lat="45.10681" lon="2.64833">
        <ele>1562.1</ele>
        <time>2021-08-11T10:17:50Z</time>
      </trkpt>
      <trkpt lat="45.1068" lon="2.64835">
        <ele>1562.3</ele>
        <time>2021-08-11T10:17:51Z</time>
      </trkpt>
      <trkpt lat="45.1068" lon="2.64836">
        <ele>1562.6</ele>
        <time>2021-08-11T10:17:52Z</time>
      </trkpt>
      <trkpt lat="45.1068" lon="2.64837">
        <ele>1562.7</ele>
        <time>2021-08-11T10:17:53Z</time>
      </trkpt>
      <trkpt lat="45.10679" lon="2.64838">
        <ele>1562.9</ele>
        <time>2021-08-11T10:17:54Z</time>
      </trkpt>
      <trkpt lat="45.10679" lon="2.64838">
        <ele>1563.2</ele>
        <time>2021-08-11T10:17:55Z</time>
      </trkpt>
      <trkpt lat="45.10678" lon="2.64839">
        <ele>1563.5</ele>
        <time>2021-08-11T10:17:56Z</time>
      </trkpt>
      <trkpt lat="45.10678" lon="2.64841">
        <ele>1563.7</ele>
        <time>2021-08-11T10:17:57Z</time>
      </trkpt>
      <trkpt lat="45.10677" lon="2.64842">
        <ele>1564</ele>
        <time>2021-08-11T10:17:58Z</time>
      </trkpt>
      <trkpt lat="45.10677" lon="2.64843">
        <ele>1564.1</ele>
        <time>2021-08-11T10:17:59Z</time>
      </trkpt>
      <trkpt lat="45.10677" lon="2.64844">
        <ele>1564.4</ele>
        <time>2021-08-11T10:18:00Z</time>
      </trkpt>
      <trkpt lat="45.10676" lon="2.64845">
        <ele>1564.6</ele>
        <time>2021-08-11T10:18:01Z</time>
      </trkpt>
      <trkpt lat="45.10676" lon="2.64846">
        <ele>1564.8</ele>
        <time>2021-08-11T10:18:02Z</time>
      </trkpt>
      <trkpt lat="45.10676" lon="2.64847">
        <ele>1565</ele>
        <time>2021-08-11T10:18:03Z</time>
      </trkpt>
      <trkpt lat="45.10675" lon="2.64848">
        <ele>1565.3</ele>
        <time>2021-08-11T10:18:04Z</time>
      </trkpt>
      <trkpt lat="45.10675" lon="2.64849">
        <ele>1565.6</ele>
        <time>2021-08-11T10:18:05Z</time>
      </trkpt>
      <trkpt lat="45.10674" lon="2.6485">
        <ele>1565.8</ele>
        <time>2021-08-11T10:18:06Z</time>
      </trkpt>
      <trkpt lat="45.10674" lon="2.64851">
        <ele>1566</ele>
        <time>2021-08-11T10:18:07Z</time>
      </trkpt>
      <trkpt lat="45.10674" lon="2.64852">
        <ele>1566.2</ele>
        <time>2021-08-11T10:18:08Z</time>
      </trkpt>
      <trkpt lat="45.10673" lon="2.64853">
        <ele>1566.5</ele>
        <time>2021-08-11T10:18:09Z</time>
      </trkpt>
      <trkpt lat="45.10673" lon="2.64854">
        <ele>1566.7</ele>
        <time>2021-08-11T10:18:10Z</time>
      </trkpt>
      <trkpt lat="45.10672" lon="2.64855">
        <ele>1567</ele>
        <time>2021-08-11T10:18:11Z</time>
      </trkpt>
      <trkpt lat="45.10672" lon="2.64855">
        <ele>1567.3</ele>
        <time>2021-08-11T10:18:12Z</time>
      </trkpt>
      <trkpt lat="45.10671" lon="2.64856">
        <ele>1567.5</ele>
        <time>2021-08-11T10:18:13Z</time>
      </trkpt>
      <trkpt lat="45.10671" lon="2.64857">
        <ele>1567.8</ele>
        <time>2021-08-11T10:18:14Z</time>
      </trkpt>
      <trkpt lat="45.1067" lon="2.64858">
        <ele>1568.1</ele>
        <time>2021-08-11T10:18:15Z</time>
      </trkpt>
      <trkpt lat="45.1067" lon="2.64859">
        <ele>1568.4</ele>
        <time>2021-08-11T10:18:16Z</time>
      </trkpt>
      <trkpt lat="45.10669" lon="2.6486">
        <ele>1568.6</ele>
        <time>2021-08-11T10:18:17Z</time>
      </trkpt>
      <trkpt lat="45.10669" lon="2.6486">
        <ele>1568.8</ele>
        <time>2021-08-11T10:18:18Z</time>
      </trkpt>
      <trkpt lat="45.10669" lon="2.64862">
        <ele>1569</ele>
        <time>2021-08-11T10:18:19Z</time>
      </trkpt>
      <trkpt lat="45.10668" lon="2.64863">
        <ele>1569.3</ele>
        <time>2021-08-11T10:18:20Z</time>
      </trkpt>
      <trkpt lat="45.10668" lon="2.64864">
        <ele>1569.6</ele>
        <time>2021-08-11T10:18:21Z</time>
      </trkpt>
      <trkpt lat="45.10668" lon="2.64864">
        <ele>1569.8</ele>
        <time>2021-08-11T10:18:22Z</time>
      </trkpt>
      <trkpt lat="45.10667" lon="2.64865">
        <ele>1570.1</ele>
        <time>2021-08-11T10:18:23Z</time>
      </trkpt>
      <trkpt lat="45.10666" lon="2.64866">
        <ele>1570.3</ele>
        <time>2021-08-11T10:18:24Z</time>
      </trkpt>
      <trkpt lat="45.10666" lon="2.64867">
        <ele>1570.4</ele>
        <time>2021-08-11T10:18:25Z</time>
      </trkpt>
      <trkpt lat="45.10665" lon="2.64868">
        <ele>1570.5</ele>
        <time>2021-08-11T10:18:26Z</time>
      </trkpt>
      <trkpt lat="45.10665" lon="2.64869">
        <ele>1570.6</ele>
        <time>2021-08-11T10:18:27Z</time>
      </trkpt>
      <trkpt lat="45.10664" lon="2.6487">
        <ele>1570.8</ele>
        <time>2021-08-11T10:18:28Z</time>
      </trkpt>
      <trkpt lat="45.10664" lon="2.64871">
        <ele>1570.9</ele>
        <time>2021-08-11T10:18:29Z</time>
      </trkpt>
      <trkpt lat="45.10664" lon="2.64872">
        <ele>1571</ele>
        <time>2021-08-11T10:18:30Z</time>
      </trkpt>
      <trkpt lat="45.10663" lon="2.64873">
        <ele>1571.1</ele>
        <time>2021-08-11T10:18:31Z</time>
      </trkpt>
      <trkpt lat="45.10663" lon="2.64874">
        <ele>1571.2</ele>
        <time>2021-08-11T10:18:32Z</time>
      </trkpt>
      <trkpt lat="45.10662" lon="2.64875">
        <ele>1571.4</ele>
        <time>2021-08-11T10:18:33Z</time>
      </trkpt>
      <trkpt lat="45.10661" lon="2.64876">
        <ele>1571.5</ele>
        <time>2021-08-11T10:18:34Z</time>
      </trkpt>
      <trkpt lat="45.10661" lon="2.64877">
        <ele>1571.6</ele>
        <time>2021-08-11T10:18:35Z</time>
      </trkpt>
      <trkpt lat="45.1066" lon="2.64878">
        <ele>1571.8</ele>
        <time>2021-08-11T10:18:36Z</time>
      </trkpt>
      <trkpt lat="45.1066" lon="2.64879">
        <ele>1571.9</ele>
        <time>2021-08-11T10:18:37Z</time>
      </trkpt>
      <trkpt lat="45.10659" lon="2.64881">
        <ele>1572.1</ele>
        <time>2021-08-11T10:18:38Z</time>
      </trkpt>
      <trkpt lat="45.10659" lon="2.64882">
        <ele>1572.2</ele>
        <time>2021-08-11T10:18:39Z</time>
      </trkpt>
      <trkpt lat="45.10658" lon="2.64883">
        <ele>1572.3</ele>
        <time>2021-08-11T10:18:40Z</time>
      </trkpt>
      <trkpt lat="45.10658" lon="2.64884">
        <ele>1572.5</ele>
        <time>2021-08-11T10:18:41Z</time>
      </trkpt>
      <trkpt lat="45.10657" lon="2.64885">
        <ele>1572.6</ele>
        <time>2021-08-11T10:18:42Z</time>
      </trkpt>
      <trkpt lat="45.10657" lon="2.64886">
        <ele>1572.8</ele>
        <time>2021-08-11T10:18:43Z</time>
      </trkpt>
      <trkpt lat="45.10657" lon="2.64887">
        <ele>1573</ele>
        <time>2021-08-11T10:18:44Z</time>
      </trkpt>
      <trkpt lat="45.10657" lon="2.64889">
        <ele>1573.2</ele>
        <time>2021-08-11T10:18:45Z</time>
      </trkpt>
      <trkpt lat="45.10656" lon="2.6489">
        <ele>1573.3</ele>
        <time>2021-08-11T10:18:46Z</time>
      </trkpt>
      <trkpt lat="45.10656" lon="2.64891">
        <ele>1573.5</ele>
        <time>2021-08-11T10:18:47Z</time>
      </trkpt>
      <trkpt lat="45.10655" lon="2.64892">
        <ele>1573.7</ele>
        <time>2021-08-11T10:18:48Z</time>
      </trkpt>
      <trkpt lat="45.10655" lon="2.64894">
        <ele>1573.9</ele>
        <time>2021-08-11T10:18:49Z</time>
      </trkpt>
      <trkpt lat="45.10654" lon="2.64895">
        <ele>1574</ele>
        <time>2021-08-11T10:18:50Z</time>
      </trkpt>
      <trkpt lat="45.10654" lon="2.64896">
        <ele>1574.2</ele>
        <time>2021-08-11T10:18:51Z</time>
      </trkpt>
      <trkpt lat="45.10653" lon="2.64897">
        <ele>1574.3</ele>
        <time>2021-08-11T10:18:52Z</time>
      </trkpt>
      <trkpt lat="45.10653" lon="2.64898">
        <ele>1574.5</ele>
        <time>2021-08-11T10:18:53Z</time>
      </trkpt>
      <trkpt lat="45.10652" lon="2.64899">
        <ele>1574.7</ele>
        <time>2021-08-11T10:18:54Z</time>
      </trkpt>
      <trkpt lat="45.10652" lon="2.649">
        <ele>1574.9</ele>
        <time>2021-08-11T10:18:55Z</time>
      </trkpt>
      <trkpt lat="45.10651" lon="2.64901">
        <ele>1575</ele>
        <time>2021-08-11T10:18:56Z</time>
      </trkpt>
      <trkpt lat="45.10651" lon="2.64902">
        <ele>1575.1</ele>
        <time>2021-08-11T10:18:57Z</time>
      </trkpt>
      <trkpt lat="45.1065" lon="2.64903">
        <ele>1575.3</ele>
        <time>2021-08-11T10:18:58Z</time>
      </trkpt>
      <trkpt lat="45.10649" lon="2.64904">
        <ele>1575.5</ele>
        <time>2021-08-11T10:18:59Z</time>
      </trkpt>
      <trkpt lat="45.10649" lon="2.64905">
        <ele>1575.6</ele>
        <time>2021-08-11T10:19:00Z</time>
      </trkpt>
      <trkpt lat="45.10648" lon="2.64906">
        <ele>1575.8</ele>
        <time>2021-08-11T10:19:01Z</time>
      </trkpt>
      <trkpt lat="45.10648" lon="2.64907">
        <ele>1575.9</ele>
        <time>2021-08-11T10:19:02Z</time>
      </trkpt>
      <trkpt lat="45.10647" lon="2.64908">
        <ele>1576.1</ele>
        <time>2021-08-11T10:19:03Z</time>
      </trkpt>
      <trkpt lat="45.10647" lon="2.64909">
        <ele>1576.2</ele>
        <time>2021-08-11T10:19:04Z</time>
      </trkpt>
      <trkpt lat="45.10646" lon="2.6491">
        <ele>1576.4</ele>
        <time>2021-08-11T10:19:05Z</time>
      </trkpt>
      <trkpt lat="45.10646" lon="2.64911">
        <ele>1576.5</ele>
        <time>2021-08-11T10:19:06Z</time>
      </trkpt>
      <trkpt lat="45.10646" lon="2.64912">
        <ele>1576.7</ele>
        <time>2021-08-11T10:19:07Z</time>
      </trkpt>
      <trkpt lat="45.10645" lon="2.64913">
        <ele>1576.9</ele>
        <time>2021-08-11T10:19:08Z</time>
      </trkpt>
      <trkpt lat="45.10645" lon="2.64914">
        <ele>1577</ele>
        <time>2021-08-11T10:19:09Z</time>
      </trkpt>
      <trkpt lat="45.10644" lon="2.64915">
        <ele>1577.2</ele>
        <time>2021-08-11T10:19:10Z</time>
      </trkpt>
      <trkpt lat="45.10644" lon="2.64916">
        <ele>1577.4</ele>
        <time>2021-08-11T10:19:11Z</time>
      </trkpt>
      <trkpt lat="45.10643" lon="2.64917">
        <ele>1577.6</ele>
        <time>2021-08-11T10:19:12Z</time>
      </trkpt>
      <trkpt lat="45.10643" lon="2.64918">
        <ele>1577.6</ele>
        <time>2021-08-11T10:19:13Z</time>
      </trkpt>
      <trkpt lat="45.10642" lon="2.64918">
        <ele>1577.6</ele>
        <time>2021-08-11T10:19:14Z</time>
      </trkpt>
      <trkpt lat="45.10642" lon="2.64919">
        <ele>1577.6</ele>
        <time>2021-08-11T10:19:15Z</time>
      </trkpt>
      <trkpt lat="45.10642" lon="2.64921">
        <ele>1577.6</ele>
        <time>2021-08-11T10:19:16Z</time>
      </trkpt>
      <trkpt lat="45.10641" lon="2.64922">
        <ele>1577.7</ele>
        <time>2021-08-11T10:19:17Z</time>
      </trkpt>
      <trkpt lat="45.10641" lon="2.64922">
        <ele>1577.7</ele>
        <time>2021-08-11T10:19:18Z</time>
      </trkpt>
      <trkpt lat="45.10641" lon="2.64923">
        <ele>1577.7</ele>
        <time>2021-08-11T10:19:19Z</time>
      </trkpt>
      <trkpt lat="45.1064" lon="2.64924">
        <ele>1577.7</ele>
        <time>2021-08-11T10:19:20Z</time>
      </trkpt>
      <trkpt lat="45.1064" lon="2.64925">
        <ele>1577.8</ele>
        <time>2021-08-11T10:19:21Z</time>
      </trkpt>
      <trkpt lat="45.10639" lon="2.64925">
        <ele>1577.8</ele>
        <time>2021-08-11T10:19:22Z</time>
      </trkpt>
      <trkpt lat="45.10639" lon="2.64927">
        <ele>1577.8</ele>
        <time>2021-08-11T10:19:23Z</time>
      </trkpt>
      <trkpt lat="45.10639" lon="2.64927">
        <ele>1577.9</ele>
        <time>2021-08-11T10:19:24Z</time>
      </trkpt>
      <trkpt lat="45.10638" lon="2.64928">
        <ele>1577.9</ele>
        <time>2021-08-11T10:19:25Z</time>
      </trkpt>
      <trkpt lat="45.10638" lon="2.64929">
        <ele>1577.9</ele>
        <time>2021-08-11T10:19:26Z</time>
      </trkpt>
      <trkpt lat="45.10637" lon="2.6493">
        <ele>1578</ele>
        <time>2021-08-11T10:19:27Z</time>
      </trkpt>
      <trkpt lat="45.10637" lon="2.64931">
        <ele>1578</ele>
        <time>2021-08-11T10:19:28Z</time>
      </trkpt>
      <trkpt lat="45.10637" lon="2.64932">
        <ele>1578</ele>
        <time>2021-08-11T10:19:29Z</time>
      </trkpt>
      <trkpt lat="45.10637" lon="2.64933">
        <ele>1578</ele>
        <time>2021-08-11T10:19:30Z</time>
      </trkpt>
      <trkpt lat="45.10636" lon="2.64934">
        <ele>1578.1</ele>
        <time>2021-08-11T10:19:31Z</time>
      </trkpt>
      <trkpt lat="45.10636" lon="2.64935">
        <ele>1578.1</ele>
        <time>2021-08-11T10:19:32Z</time>
      </trkpt>
      <trkpt lat="45.10636" lon="2.64936">
        <ele>1578.1</ele>
        <time>2021-08-11T10:19:33Z</time>
      </trkpt>
      <trkpt lat="45.10635" lon="2.64936">
        <ele>1578.2</ele>
        <time>2021-08-11T10:19:34Z</time>
      </trkpt>
      <trkpt lat="45.10635" lon="2.64937">
        <ele>1578.2</ele>
        <time>2021-08-11T10:19:35Z</time>
      </trkpt>
      <trkpt lat="45.10634" lon="2.64938">
        <ele>1578.3</ele>
        <time>2021-08-11T10:19:36Z</time>
      </trkpt>
      <trkpt lat="45.10634" lon="2.64939">
        <ele>1578.3</ele>
        <time>2021-08-11T10:19:37Z</time>
      </trkpt>
      <trkpt lat="45.10633" lon="2.6494">
        <ele>1578.4</ele>
        <time>2021-08-11T10:19:38Z</time>
      </trkpt>
      <trkpt lat="45.10633" lon="2.64941">
        <ele>1578.4</ele>
        <time>2021-08-11T10:19:39Z</time>
      </trkpt>
      <trkpt lat="45.10633" lon="2.64942">
        <ele>1578.4</ele>
        <time>2021-08-11T10:19:40Z</time>
      </trkpt>
      <trkpt lat="45.10632" lon="2.64944">
        <ele>1578.5</ele>
        <time>2021-08-11T10:19:41Z</time>
      </trkpt>
      <trkpt lat="45.10632" lon="2.64946">
        <ele>1578.6</ele>
        <time>2021-08-11T10:19:42Z</time>
      </trkpt>
      <trkpt lat="45.10631" lon="2.64947">
        <ele>1578.7</ele>
        <time>2021-08-11T10:19:43Z</time>
      </trkpt>
      <trkpt lat="45.10631" lon="2.64948">
        <ele>1578.7</ele>
        <time>2021-08-11T10:19:44Z</time>
      </trkpt>
      <trkpt lat="45.10631" lon="2.64949">
        <ele>1578.8</ele>
        <time>2021-08-11T10:19:45Z</time>
      </trkpt>
      <trkpt lat="45.1063" lon="2.6495">
        <ele>1578.8</ele>
        <time>2021-08-11T10:19:46Z</time>
      </trkpt>
      <trkpt lat="45.1063" lon="2.64951">
        <ele>1578.9</ele>
        <time>2021-08-11T10:19:47Z</time>
      </trkpt>
      <trkpt lat="45.10629" lon="2.64952">
        <ele>1579</ele>
        <time>2021-08-11T10:19:48Z</time>
      </trkpt>
      <trkpt lat="45.10629" lon="2.64953">
        <ele>1579</ele>
        <time>2021-08-11T10:19:49Z</time>
      </trkpt>
      <trkpt lat="45.10628" lon="2.64955">
        <ele>1579.1</ele>
        <time>2021-08-11T10:19:50Z</time>
      </trkpt>
      <trkpt lat="45.10628" lon="2.64956">
        <ele>1579.2</ele>
        <time>2021-08-11T10:19:51Z</time>
      </trkpt>
      <trkpt lat="45.10627" lon="2.64957">
        <ele>1579.3</ele>
        <time>2021-08-11T10:19:52Z</time>
      </trkpt>
      <trkpt lat="45.10627" lon="2.64958">
        <ele>1579.3</ele>
        <time>2021-08-11T10:19:53Z</time>
      </trkpt>
      <trkpt lat="45.10626" lon="2.64959">
        <ele>1579.4</ele>
        <time>2021-08-11T10:19:54Z</time>
      </trkpt>
      <trkpt lat="45.10626" lon="2.6496">
        <ele>1579.5</ele>
        <time>2021-08-11T10:19:55Z</time>
      </trkpt>
      <trkpt lat="45.10625" lon="2.64961">
        <ele>1579.6</ele>
        <time>2021-08-11T10:19:56Z</time>
      </trkpt>
      <trkpt lat="45.10625" lon="2.64962">
        <ele>1579.6</ele>
        <time>2021-08-11T10:19:57Z</time>
      </trkpt>
      <trkpt lat="45.10625" lon="2.64963">
        <ele>1579.7</ele>
        <time>2021-08-11T10:19:58Z</time>
      </trkpt>
      <trkpt lat="45.10624" lon="2.64964">
        <ele>1579.8</ele>
        <time>2021-08-11T10:19:59Z</time>
      </trkpt>
      <trkpt lat="45.10624" lon="2.64965">
        <ele>1579.9</ele>
        <time>2021-08-11T10:20:00Z</time>
      </trkpt>
      <trkpt lat="45.10623" lon="2.64966">
        <ele>1580</ele>
        <time>2021-08-11T10:20:01Z</time>
      </trkpt>
      <trkpt lat="45.10623" lon="2.64967">
        <ele>1580.1</ele>
        <time>2021-08-11T10:20:02Z</time>
      </trkpt>
      <trkpt lat="45.10622" lon="2.64969">
        <ele>1580.1</ele>
        <time>2021-08-11T10:20:03Z</time>
      </trkpt>
      <trkpt lat="45.10622" lon="2.6497">
        <ele>1580.2</ele>
        <time>2021-08-11T10:20:04Z</time>
      </trkpt>
      <trkpt lat="45.10621" lon="2.64971">
        <ele>1580.3</ele>
        <time>2021-08-11T10:20:05Z</time>
      </trkpt>
      <trkpt lat="45.10621" lon="2.64973">
        <ele>1580.5</ele>
        <time>2021-08-11T10:20:06Z</time>
      </trkpt>
      <trkpt lat="45.1062" lon="2.64974">
        <ele>1580.5</ele>
        <time>2021-08-11T10:20:07Z</time>
      </trkpt>
      <trkpt lat="45.1062" lon="2.64975">
        <ele>1580.6</ele>
        <time>2021-08-11T10:20:08Z</time>
      </trkpt>
      <trkpt lat="45.1062" lon="2.64976">
        <ele>1580.7</ele>
        <time>2021-08-11T10:20:09Z</time>
      </trkpt>
      <trkpt lat="45.10619" lon="2.64977">
        <ele>1580.8</ele>
        <time>2021-08-11T10:20:10Z</time>
      </trkpt>
      <trkpt lat="45.10619" lon="2.64978">
        <ele>1580.9</ele>
        <time>2021-08-11T10:20:11Z</time>
      </trkpt>
      <trkpt lat="45.10618" lon="2.64979">
        <ele>1581.1</ele>
        <time>2021-08-11T10:20:12Z</time>
      </trkpt>
      <trkpt lat="45.10618" lon="2.64981">
        <ele>1581.2</ele>
        <time>2021-08-11T10:20:13Z</time>
      </trkpt>
      <trkpt lat="45.10617" lon="2.64982">
        <ele>1581.3</ele>
        <time>2021-08-11T10:20:14Z</time>
      </trkpt>
      <trkpt lat="45.10616" lon="2.64983">
        <ele>1581.4</ele>
        <time>2021-08-11T10:20:15Z</time>
      </trkpt>
      <trkpt lat="45.10616" lon="2.64984">
        <ele>1581.6</ele>
        <time>2021-08-11T10:20:16Z</time>
      </trkpt>
      <trkpt lat="45.10615" lon="2.64985">
        <ele>1581.7</ele>
        <time>2021-08-11T10:20:17Z</time>
      </trkpt>
      <trkpt lat="45.10615" lon="2.64986">
        <ele>1581.8</ele>
        <time>2021-08-11T10:20:18Z</time>
      </trkpt>
      <trkpt lat="45.10614" lon="2.64987">
        <ele>1581.9</ele>
        <time>2021-08-11T10:20:19Z</time>
      </trkpt>
      <trkpt lat="45.10613" lon="2.64988">
        <ele>1582</ele>
        <time>2021-08-11T10:20:20Z</time>
      </trkpt>
      <trkpt lat="45.10613" lon="2.64989">
        <ele>1582.2</ele>
        <time>2021-08-11T10:20:21Z</time>
      </trkpt>
      <trkpt lat="45.10612" lon="2.6499">
        <ele>1582.3</ele>
        <time>2021-08-11T10:20:22Z</time>
      </trkpt>
      <trkpt lat="45.10612" lon="2.64991">
        <ele>1582.4</ele>
        <time>2021-08-11T10:20:23Z</time>
      </trkpt>
      <trkpt lat="45.10611" lon="2.64992">
        <ele>1582.6</ele>
        <time>2021-08-11T10:20:24Z</time>
      </trkpt>
      <trkpt lat="45.10611" lon="2.64993">
        <ele>1582.7</ele>
        <time>2021-08-11T10:20:25Z</time>
      </trkpt>
      <trkpt lat="45.1061" lon="2.64994">
        <ele>1582.8</ele>
        <time>2021-08-11T10:20:26Z</time>
      </trkpt>
      <trkpt lat="45.10609" lon="2.64995">
        <ele>1583</ele>
        <time>2021-08-11T10:20:27Z</time>
      </trkpt>
      <trkpt lat="45.10609" lon="2.64996">
        <ele>1583.1</ele>
        <time>2021-08-11T10:20:28Z</time>
      </trkpt>
      <trkpt lat="45.10608" lon="2.64997">
        <ele>1583.3</ele>
        <time>2021-08-11T10:20:29Z</time>
      </trkpt>
      <trkpt lat="45.10607" lon="2.64997">
        <ele>1583.4</ele>
        <time>2021-08-11T10:20:30Z</time>
      </trkpt>
      <trkpt lat="45.10606" lon="2.64998">
        <ele>1583.6</ele>
        <time>2021-08-11T10:20:31Z</time>
      </trkpt>
      <trkpt lat="45.10606" lon="2.64999">
        <ele>1583.7</ele>
        <time>2021-08-11T10:20:32Z</time>
      </trkpt>
      <trkpt lat="45.10605" lon="2.65">
        <ele>1583.9</ele>
        <time>2021-08-11T10:20:33Z</time>
      </trkpt>
      <trkpt lat="45.10604" lon="2.65001">
        <ele>1584</ele>
        <time>2021-08-11T10:20:34Z</time>
      </trkpt>
      <trkpt lat="45.10603" lon="2.65002">
        <ele>1584</ele>
        <time>2021-08-11T10:20:35Z</time>
      </trkpt>
      <trkpt lat="45.10603" lon="2.65003">
        <ele>1584</ele>
        <time>2021-08-11T10:20:36Z</time>
      </trkpt>
      <trkpt lat="45.10602" lon="2.65004">
        <ele>1584</ele>
        <time>2021-08-11T10:20:37Z</time>
      </trkpt>
      <trkpt lat="45.10601" lon="2.65005">
        <ele>1584</ele>
        <time>2021-08-11T10:20:38Z</time>
      </trkpt>
      <trkpt lat="45.10601" lon="2.65006">
        <ele>1583.9</ele>
        <time>2021-08-11T10:20:39Z</time>
      </trkpt>
      <trkpt lat="45.106" lon="2.65007">
        <ele>1583.9</ele>
        <time>2021-08-11T10:20:40Z</time>
      </trkpt>
      <trkpt lat="45.106" lon="2.65008">
        <ele>1583.9</ele>
        <time>2021-08-11T10:20:41Z</time>
      </trkpt>
      <trkpt lat="45.10599" lon="2.65009">
        <ele>1583.9</ele>
        <time>2021-08-11T10:20:42Z</time>
      </trkpt>
      <trkpt lat="45.10599" lon="2.6501">
        <ele>1584</ele>
        <time>2021-08-11T10:20:43Z</time>
      </trkpt>
      <trkpt lat="45.10598" lon="2.65011">
        <ele>1584</ele>
        <time>2021-08-11T10:20:44Z</time>
      </trkpt>
      <trkpt lat="45.10597" lon="2.65012">
        <ele>1584</ele>
        <time>2021-08-11T10:20:45Z</time>
      </trkpt>
      <trkpt lat="45.10596" lon="2.65013">
        <ele>1584</ele>
        <time>2021-08-11T10:20:46Z</time>
      </trkpt>
      <trkpt lat="45.10596" lon="2.65014">
        <ele>1584.1</ele>
        <time>2021-08-11T10:20:47Z</time>
      </trkpt>
      <trkpt lat="45.10595" lon="2.65015">
        <ele>1584.1</ele>
        <time>2021-08-11T10:20:48Z</time>
      </trkpt>
      <trkpt lat="45.10594" lon="2.65015">
        <ele>1584.2</ele>
        <time>2021-08-11T10:20:49Z</time>
      </trkpt>
      <trkpt lat="45.10593" lon="2.65016">
        <ele>1584.2</ele>
        <time>2021-08-11T10:20:50Z</time>
      </trkpt>
      <trkpt lat="45.10593" lon="2.65017">
        <ele>1584.3</ele>
        <time>2021-08-11T10:20:51Z</time>
      </trkpt>
      <trkpt lat="45.10592" lon="2.65018">
        <ele>1584.3</ele>
        <time>2021-08-11T10:20:52Z</time>
      </trkpt>
      <trkpt lat="45.10591" lon="2.6502">
        <ele>1584.3</ele>
        <time>2021-08-11T10:20:53Z</time>
      </trkpt>
      <trkpt lat="45.1059" lon="2.65021">
        <ele>1584.4</ele>
        <time>2021-08-11T10:20:54Z</time>
      </trkpt>
      <trkpt lat="45.1059" lon="2.65021">
        <ele>1584.4</ele>
        <time>2021-08-11T10:20:55Z</time>
      </trkpt>
      <trkpt lat="45.10589" lon="2.65022">
        <ele>1584.6</ele>
        <time>2021-08-11T10:20:56Z</time>
      </trkpt>
      <trkpt lat="45.10588" lon="2.65022">
        <ele>1584.6</ele>
        <time>2021-08-11T10:20:57Z</time>
      </trkpt>
      <trkpt lat="45.10587" lon="2.65023">
        <ele>1584.7</ele>
        <time>2021-08-11T10:20:58Z</time>
      </trkpt>
      <trkpt lat="45.10586" lon="2.65024">
        <ele>1584.8</ele>
        <time>2021-08-11T10:20:59Z</time>
      </trkpt>
      <trkpt lat="45.10586" lon="2.65025">
        <ele>1584.8</ele>
        <time>2021-08-11T10:21:00Z</time>
      </trkpt>
      <trkpt lat="45.10586" lon="2.65025">
        <ele>1584.8</ele>
        <time>2021-08-11T10:21:01Z</time>
      </trkpt>
      <trkpt lat="45.10586" lon="2.65025">
        <ele>1584.8</ele>
        <time>2021-08-11T10:21:02Z</time>
      </trkpt>
      <trkpt lat="45.10585" lon="2.65026">
        <ele>1584.9</ele>
        <time>2021-08-11T10:21:03Z</time>
      </trkpt>
      <trkpt lat="45.10584" lon="2.65027">
        <ele>1584.9</ele>
        <time>2021-08-11T10:21:04Z</time>
      </trkpt>
      <trkpt lat="45.10584" lon="2.65027">
        <ele>1585</ele>
        <time>2021-08-11T10:21:05Z</time>
      </trkpt>
      <trkpt lat="45.10583" lon="2.65028">
        <ele>1585</ele>
        <time>2021-08-11T10:21:06Z</time>
      </trkpt>
      <trkpt lat="45.10582" lon="2.65029">
        <ele>1584.9</ele>
        <time>2021-08-11T10:21:07Z</time>
      </trkpt>
      <trkpt lat="45.10582" lon="2.65029">
        <ele>1584.8</ele>
        <time>2021-08-11T10:21:08Z</time>
      </trkpt>
      <trkpt lat="45.10581" lon="2.6503">
        <ele>1584.7</ele>
        <time>2021-08-11T10:21:09Z</time>
      </trkpt>
      <trkpt lat="45.1058" lon="2.65031">
        <ele>1584.6</ele>
        <time>2021-08-11T10:21:10Z</time>
      </trkpt>
      <trkpt lat="45.10579" lon="2.65032">
        <ele>1584.6</ele>
        <time>2021-08-11T10:21:11Z</time>
      </trkpt>
      <trkpt lat="45.10579" lon="2.65033">
        <ele>1584.5</ele>
        <time>2021-08-11T10:21:12Z</time>
      </trkpt>
      <trkpt lat="45.10578" lon="2.65034">
        <ele>1584.4</ele>
        <time>2021-08-11T10:21:13Z</time>
      </trkpt>
      <trkpt lat="45.10577" lon="2.65035">
        <ele>1584.4</ele>
        <time>2021-08-11T10:21:14Z</time>
      </trkpt>
      <trkpt lat="45.10576" lon="2.65036">
        <ele>1584.3</ele>
        <time>2021-08-11T10:21:15Z</time>
      </trkpt>
      <trkpt lat="45.10575" lon="2.65037">
        <ele>1584.2</ele>
        <time>2021-08-11T10:21:16Z</time>
      </trkpt>
      <trkpt lat="45.10574" lon="2.65038">
        <ele>1584.2</ele>
        <time>2021-08-11T10:21:17Z</time>
      </trkpt>
      <trkpt lat="45.10573" lon="2.65039">
        <ele>1584.2</ele>
        <time>2021-08-11T10:21:18Z</time>
      </trkpt>
      <trkpt lat="45.10572" lon="2.6504">
        <ele>1584.1</ele>
        <time>2021-08-11T10:21:19Z</time>
      </trkpt>
      <trkpt lat="45.10571" lon="2.6504">
        <ele>1584.1</ele>
        <time>2021-08-11T10:21:20Z</time>
      </trkpt>
      <trkpt lat="45.10571" lon="2.65041">
        <ele>1584.1</ele>
        <time>2021-08-11T10:21:21Z</time>
      </trkpt>
      <trkpt lat="45.1057" lon="2.65042">
        <ele>1584.1</ele>
        <time>2021-08-11T10:21:22Z</time>
      </trkpt>
      <trkpt lat="45.10569" lon="2.65043">
        <ele>1584.1</ele>
        <time>2021-08-11T10:21:23Z</time>
      </trkpt>
      <trkpt lat="45.10568" lon="2.65044">
        <ele>1584.1</ele>
        <time>2021-08-11T10:21:24Z</time>
      </trkpt>
      <trkpt lat="45.10567" lon="2.65045">
        <ele>1584.1</ele>
        <time>2021-08-11T10:21:25Z</time>
      </trkpt>
      <trkpt lat="45.10567" lon="2.65046">
        <ele>1584.1</ele>
        <time>2021-08-11T10:21:26Z</time>
      </trkpt>
      <trkpt lat="45.10566" lon="2.65047">
        <ele>1584.1</ele>
        <time>2021-08-11T10:21:27Z</time>
      </trkpt>
      <trkpt lat="45.10565" lon="2.65048">
        <ele>1584.1</ele>
        <time>2021-08-11T10:21:28Z</time>
      </trkpt>
      <trkpt lat="45.10565" lon="2.65049">
        <ele>1584.1</ele>
        <time>2021-08-11T10:21:29Z</time>
      </trkpt>
      <trkpt lat="45.10564" lon="2.6505">
        <ele>1584.1</ele>
        <time>2021-08-11T10:21:30Z</time>
      </trkpt>
      <trkpt lat="45.10563" lon="2.6505">
        <ele>1584.2</ele>
        <time>2021-08-11T10:21:31Z</time>
      </trkpt>
      <trkpt lat="45.10563" lon="2.65051">
        <ele>1584.2</ele>
        <time>2021-08-11T10:21:32Z</time>
      </trkpt>
      <trkpt lat="45.10562" lon="2.65052">
        <ele>1584.2</ele>
        <time>2021-08-11T10:21:33Z</time>
      </trkpt>
      <trkpt lat="45.10561" lon="2.65052">
        <ele>1584.3</ele>
        <time>2021-08-11T10:21:34Z</time>
      </trkpt>
      <trkpt lat="45.1056" lon="2.65053">
        <ele>1584.3</ele>
        <time>2021-08-11T10:21:35Z</time>
      </trkpt>
      <trkpt lat="45.1056" lon="2.65054">
        <ele>1584.4</ele>
        <time>2021-08-11T10:21:36Z</time>
      </trkpt>
      <trkpt lat="45.10559" lon="2.65054">
        <ele>1584.4</ele>
        <time>2021-08-11T10:21:37Z</time>
      </trkpt>
      <trkpt lat="45.10558" lon="2.65055">
        <ele>1584.5</ele>
        <time>2021-08-11T10:21:38Z</time>
      </trkpt>
      <trkpt lat="45.10557" lon="2.65056">
        <ele>1584.6</ele>
        <time>2021-08-11T10:21:39Z</time>
      </trkpt>
      <trkpt lat="45.10557" lon="2.65056">
        <ele>1584.6</ele>
        <time>2021-08-11T10:21:40Z</time>
      </trkpt>
      <trkpt lat="45.10556" lon="2.65057">
        <ele>1584.7</ele>
        <time>2021-08-11T10:21:41Z</time>
      </trkpt>
      <trkpt lat="45.10555" lon="2.65058">
        <ele>1584.8</ele>
        <time>2021-08-11T10:21:42Z</time>
      </trkpt>
      <trkpt lat="45.10554" lon="2.65058">
        <ele>1584.9</ele>
        <time>2021-08-11T10:21:43Z</time>
      </trkpt>
      <trkpt lat="45.10553" lon="2.65059">
        <ele>1585</ele>
        <time>2021-08-11T10:21:44Z</time>
      </trkpt>
      <trkpt lat="45.10552" lon="2.65059">
        <ele>1585</ele>
        <time>2021-08-11T10:21:45Z</time>
      </trkpt>
      <trkpt lat="45.10551" lon="2.6506">
        <ele>1585.1</ele>
        <time>2021-08-11T10:21:46Z</time>
      </trkpt>
      <trkpt lat="45.10551" lon="2.6506">
        <ele>1585.2</ele>
        <time>2021-08-11T10:21:47Z</time>
      </trkpt>
      <trkpt lat="45.1055" lon="2.65061">
        <ele>1585.3</ele>
        <time>2021-08-11T10:21:48Z</time>
      </trkpt>
      <trkpt lat="45.10549" lon="2.65061">
        <ele>1585.4</ele>
        <time>2021-08-11T10:21:49Z</time>
      </trkpt>
      <trkpt lat="45.10548" lon="2.65061">
        <ele>1585.5</ele>
        <time>2021-08-11T10:21:50Z</time>
      </trkpt>
      <trkpt lat="45.10547" lon="2.65061">
        <ele>1585.6</ele>
        <time>2021-08-11T10:21:51Z</time>
      </trkpt>
      <trkpt lat="45.10547" lon="2.65062">
        <ele>1585.6</ele>
        <time>2021-08-11T10:21:52Z</time>
      </trkpt>
      <trkpt lat="45.10546" lon="2.65062">
        <ele>1585.7</ele>
        <time>2021-08-11T10:21:53Z</time>
      </trkpt>
      <trkpt lat="45.10545" lon="2.65063">
        <ele>1585.8</ele>
        <time>2021-08-11T10:21:54Z</time>
      </trkpt>
      <trkpt lat="45.10544" lon="2.65063">
        <ele>1585.9</ele>
        <time>2021-08-11T10:21:55Z</time>
      </trkpt>
      <trkpt lat="45.10544" lon="2.65063">
        <ele>1586</ele>
        <time>2021-08-11T10:21:56Z</time>
      </trkpt>
      <trkpt lat="45.10543" lon="2.65064">
        <ele>1586.1</ele>
        <time>2021-08-11T10:21:57Z</time>
      </trkpt>
      <trkpt lat="45.10542" lon="2.65064">
        <ele>1586.2</ele>
        <time>2021-08-11T10:21:58Z</time>
      </trkpt>
      <trkpt lat="45.10541" lon="2.65065">
        <ele>1586.4</ele>
        <time>2021-08-11T10:21:59Z</time>
      </trkpt>
      <trkpt lat="45.10541" lon="2.65065">
        <ele>1586.4</ele>
        <time>2021-08-11T10:22:00Z</time>
      </trkpt>
      <trkpt lat="45.1054" lon="2.65065">
        <ele>1586.5</ele>
        <time>2021-08-11T10:22:01Z</time>
      </trkpt>
      <trkpt lat="45.1054" lon="2.65066">
        <ele>1586.6</ele>
        <time>2021-08-11T10:22:02Z</time>
      </trkpt>
      <trkpt lat="45.10539" lon="2.65066">
        <ele>1586.7</ele>
        <time>2021-08-11T10:22:03Z</time>
      </trkpt>
      <trkpt lat="45.10539" lon="2.65067">
        <ele>1586.8</ele>
        <time>2021-08-11T10:22:04Z</time>
      </trkpt>
      <trkpt lat="45.10538" lon="2.65067">
        <ele>1586.9</ele>
        <time>2021-08-11T10:22:05Z</time>
      </trkpt>
      <trkpt lat="45.10537" lon="2.65068">
        <ele>1587.1</ele>
        <time>2021-08-11T10:22:06Z</time>
      </trkpt>
      <trkpt lat="45.10537" lon="2.65069">
        <ele>1587.2</ele>
        <time>2021-08-11T10:22:07Z</time>
      </trkpt>
      <trkpt lat="45.10536" lon="2.65069">
        <ele>1587.3</ele>
        <time>2021-08-11T10:22:08Z</time>
      </trkpt>
      <trkpt lat="45.10536" lon="2.6507">
        <ele>1587.5</ele>
        <time>2021-08-11T10:22:09Z</time>
      </trkpt>
      <trkpt lat="45.10535" lon="2.6507">
        <ele>1587.6</ele>
        <time>2021-08-11T10:22:10Z</time>
      </trkpt>
      <trkpt lat="45.10535" lon="2.65071">
        <ele>1587.8</ele>
        <time>2021-08-11T10:22:11Z</time>
      </trkpt>
      <trkpt lat="45.10534" lon="2.65072">
        <ele>1587.9</ele>
        <time>2021-08-11T10:22:12Z</time>
      </trkpt>
      <trkpt lat="45.10533" lon="2.65072">
        <ele>1588.1</ele>
        <time>2021-08-11T10:22:13Z</time>
      </trkpt>
      <trkpt lat="45.10532" lon="2.65073">
        <ele>1588.3</ele>
        <time>2021-08-11T10:22:14Z</time>
      </trkpt>
      <trkpt lat="45.10532" lon="2.65073">
        <ele>1588.4</ele>
        <time>2021-08-11T10:22:15Z</time>
      </trkpt>
      <trkpt lat="45.10531" lon="2.65074">
        <ele>1588.6</ele>
        <time>2021-08-11T10:22:16Z</time>
      </trkpt>
      <trkpt lat="45.1053" lon="2.65075">
        <ele>1588.8</ele>
        <time>2021-08-11T10:22:17Z</time>
      </trkpt>
      <trkpt lat="45.10529" lon="2.65075">
        <ele>1588.9</ele>
        <time>2021-08-11T10:22:18Z</time>
      </trkpt>
      <trkpt lat="45.10528" lon="2.65075">
        <ele>1589.1</ele>
        <time>2021-08-11T10:22:19Z</time>
      </trkpt>
      <trkpt lat="45.10527" lon="2.65075">
        <ele>1589.2</ele>
        <time>2021-08-11T10:22:20Z</time>
      </trkpt>
      <trkpt lat="45.10527" lon="2.65076">
        <ele>1589.4</ele>
        <time>2021-08-11T10:22:21Z</time>
      </trkpt>
      <trkpt lat="45.10527" lon="2.65077">
        <ele>1589.6</ele>
        <time>2021-08-11T10:22:22Z</time>
      </trkpt>
      <trkpt lat="45.10526" lon="2.65078">
        <ele>1589.8</ele>
        <time>2021-08-11T10:22:23Z</time>
      </trkpt>
      <trkpt lat="45.10526" lon="2.65079">
        <ele>1590.1</ele>
        <time>2021-08-11T10:22:24Z</time>
      </trkpt>
      <trkpt lat="45.10525" lon="2.6508">
        <ele>1590.3</ele>
        <time>2021-08-11T10:22:25Z</time>
      </trkpt>
      <trkpt lat="45.10525" lon="2.65081">
        <ele>1590.5</ele>
        <time>2021-08-11T10:22:26Z</time>
      </trkpt>
      <trkpt lat="45.10524" lon="2.65082">
        <ele>1590.7</ele>
        <time>2021-08-11T10:22:27Z</time>
      </trkpt>
      <trkpt lat="45.10524" lon="2.65083">
        <ele>1590.9</ele>
        <time>2021-08-11T10:22:28Z</time>
      </trkpt>
      <trkpt lat="45.10524" lon="2.65084">
        <ele>1590.9</ele>
        <time>2021-08-11T10:22:29Z</time>
      </trkpt>
      <trkpt lat="45.10524" lon="2.65085">
        <ele>1590.9</ele>
        <time>2021-08-11T10:22:30Z</time>
      </trkpt>
      <trkpt lat="45.10523" lon="2.65086">
        <ele>1590.9</ele>
        <time>2021-08-11T10:22:31Z</time>
      </trkpt>
      <trkpt lat="45.10523" lon="2.65087">
        <ele>1590.9</ele>
        <time>2021-08-11T10:22:32Z</time>
      </trkpt>
      <trkpt lat="45.10523" lon="2.65088">
        <ele>1591</ele>
        <time>2021-08-11T10:22:33Z</time>
      </trkpt>
      <trkpt lat="45.10522" lon="2.65088">
        <ele>1591</ele>
        <time>2021-08-11T10:22:34Z</time>
      </trkpt>
      <trkpt lat="45.10522" lon="2.65089">
        <ele>1591.1</ele>
        <time>2021-08-11T10:22:35Z</time>
      </trkpt>
      <trkpt lat="45.10521" lon="2.6509">
        <ele>1591.2</ele>
        <time>2021-08-11T10:22:36Z</time>
      </trkpt>
      <trkpt lat="45.10521" lon="2.65091">
        <ele>1591.1</ele>
        <time>2021-08-11T10:22:37Z</time>
      </trkpt>
      <trkpt lat="45.1052" lon="2.65091">
        <ele>1591.2</ele>
        <time>2021-08-11T10:22:38Z</time>
      </trkpt>
      <trkpt lat="45.1052" lon="2.65092">
        <ele>1591.3</ele>
        <time>2021-08-11T10:22:39Z</time>
      </trkpt>
      <trkpt lat="45.10519" lon="2.65093">
        <ele>1591.4</ele>
        <time>2021-08-11T10:22:40Z</time>
      </trkpt>
      <trkpt lat="45.10518" lon="2.65093">
        <ele>1591.5</ele>
        <time>2021-08-11T10:22:41Z</time>
      </trkpt>
      <trkpt lat="45.10518" lon="2.65094">
        <ele>1591.6</ele>
        <time>2021-08-11T10:22:42Z</time>
      </trkpt>
      <trkpt lat="45.10517" lon="2.65095">
        <ele>1591.7</ele>
        <time>2021-08-11T10:22:43Z</time>
      </trkpt>
      <trkpt lat="45.10517" lon="2.65096">
        <ele>1591.8</ele>
        <time>2021-08-11T10:22:44Z</time>
      </trkpt>
      <trkpt lat="45.10516" lon="2.65096">
        <ele>1591.9</ele>
        <time>2021-08-11T10:22:45Z</time>
      </trkpt>
      <trkpt lat="45.10516" lon="2.65097">
        <ele>1592</ele>
        <time>2021-08-11T10:22:46Z</time>
      </trkpt>
      <trkpt lat="45.10515" lon="2.65098">
        <ele>1592.1</ele>
        <time>2021-08-11T10:22:47Z</time>
      </trkpt>
      <trkpt lat="45.10515" lon="2.65099">
        <ele>1592.1</ele>
        <time>2021-08-11T10:22:48Z</time>
      </trkpt>
      <trkpt lat="45.10514" lon="2.651">
        <ele>1592.2</ele>
        <time>2021-08-11T10:22:49Z</time>
      </trkpt>
      <trkpt lat="45.10513" lon="2.65101">
        <ele>1592.3</ele>
        <time>2021-08-11T10:22:50Z</time>
      </trkpt>
      <trkpt lat="45.10513" lon="2.65102">
        <ele>1592.4</ele>
        <time>2021-08-11T10:22:51Z</time>
      </trkpt>
      <trkpt lat="45.10512" lon="2.65103">
        <ele>1592.5</ele>
        <time>2021-08-11T10:22:52Z</time>
      </trkpt>
      <trkpt lat="45.10512" lon="2.65104">
        <ele>1592.6</ele>
        <time>2021-08-11T10:22:53Z</time>
      </trkpt>
      <trkpt lat="45.10511" lon="2.65105">
        <ele>1592.8</ele>
        <time>2021-08-11T10:22:54Z</time>
      </trkpt>
      <trkpt lat="45.10511" lon="2.65106">
        <ele>1592.9</ele>
        <time>2021-08-11T10:22:55Z</time>
      </trkpt>
      <trkpt lat="45.1051" lon="2.65107">
        <ele>1593</ele>
        <time>2021-08-11T10:22:56Z</time>
      </trkpt>
      <trkpt lat="45.1051" lon="2.65109">
        <ele>1593</ele>
        <time>2021-08-11T10:22:57Z</time>
      </trkpt>
      <trkpt lat="45.10509" lon="2.6511">
        <ele>1593.2</ele>
        <time>2021-08-11T10:22:58Z</time>
      </trkpt>
      <trkpt lat="45.10508" lon="2.6511">
        <ele>1593.4</ele>
        <time>2021-08-11T10:22:59Z</time>
      </trkpt>
      <trkpt lat="45.10507" lon="2.65111">
        <ele>1593.6</ele>
        <time>2021-08-11T10:23:00Z</time>
      </trkpt>
      <trkpt lat="45.10506" lon="2.65112">
        <ele>1593.8</ele>
        <time>2021-08-11T10:23:01Z</time>
      </trkpt>
      <trkpt lat="45.10506" lon="2.65113">
        <ele>1594</ele>
        <time>2021-08-11T10:23:02Z</time>
      </trkpt>
      <trkpt lat="45.10505" lon="2.65114">
        <ele>1594.1</ele>
        <time>2021-08-11T10:23:03Z</time>
      </trkpt>
      <trkpt lat="45.10504" lon="2.65115">
        <ele>1594.3</ele>
        <time>2021-08-11T10:23:04Z</time>
      </trkpt>
      <trkpt lat="45.10504" lon="2.65116">
        <ele>1594.4</ele>
        <time>2021-08-11T10:23:05Z</time>
      </trkpt>
      <trkpt lat="45.10503" lon="2.65117">
        <ele>1594.6</ele>
        <time>2021-08-11T10:23:06Z</time>
      </trkpt>
      <trkpt lat="45.10502" lon="2.65117">
        <ele>1594.8</ele>
        <time>2021-08-11T10:23:07Z</time>
      </trkpt>
      <trkpt lat="45.10502" lon="2.65118">
        <ele>1595</ele>
        <time>2021-08-11T10:23:08Z</time>
      </trkpt>
      <trkpt lat="45.10501" lon="2.65118">
        <ele>1595.3</ele>
        <time>2021-08-11T10:23:09Z</time>
      </trkpt>
      <trkpt lat="45.105" lon="2.65119">
        <ele>1595.3</ele>
        <time>2021-08-11T10:23:10Z</time>
      </trkpt>
      <trkpt lat="45.10499" lon="2.6512">
        <ele>1595.3</ele>
        <time>2021-08-11T10:23:11Z</time>
      </trkpt>
      <trkpt lat="45.10498" lon="2.6512">
        <ele>1595.1</ele>
        <time>2021-08-11T10:23:12Z</time>
      </trkpt>
      <trkpt lat="45.10497" lon="2.65121">
        <ele>1595</ele>
        <time>2021-08-11T10:23:13Z</time>
      </trkpt>
      <trkpt lat="45.10497" lon="2.65121">
        <ele>1594.9</ele>
        <time>2021-08-11T10:23:14Z</time>
      </trkpt>
      <trkpt lat="45.10496" lon="2.65122">
        <ele>1594.8</ele>
        <time>2021-08-11T10:23:15Z</time>
      </trkpt>
      <trkpt lat="45.10496" lon="2.65123">
        <ele>1594.8</ele>
        <time>2021-08-11T10:23:16Z</time>
      </trkpt>
      <trkpt lat="45.10495" lon="2.65123">
        <ele>1594.8</ele>
        <time>2021-08-11T10:23:17Z</time>
      </trkpt>
      <trkpt lat="45.10495" lon="2.65124">
        <ele>1594.7</ele>
        <time>2021-08-11T10:23:18Z</time>
      </trkpt>
      <trkpt lat="45.10494" lon="2.65125">
        <ele>1594.7</ele>
        <time>2021-08-11T10:23:19Z</time>
      </trkpt>
      <trkpt lat="45.10494" lon="2.65125">
        <ele>1594.6</ele>
        <time>2021-08-11T10:23:20Z</time>
      </trkpt>
      <trkpt lat="45.10493" lon="2.65126">
        <ele>1594.6</ele>
        <time>2021-08-11T10:23:21Z</time>
      </trkpt>
      <trkpt lat="45.10493" lon="2.65127">
        <ele>1594.6</ele>
        <time>2021-08-11T10:23:22Z</time>
      </trkpt>
      <trkpt lat="45.10493" lon="2.65128">
        <ele>1594.5</ele>
        <time>2021-08-11T10:23:23Z</time>
      </trkpt>
      <trkpt lat="45.10492" lon="2.65129">
        <ele>1594.5</ele>
        <time>2021-08-11T10:23:24Z</time>
      </trkpt>
      <trkpt lat="45.10492" lon="2.6513">
        <ele>1594.4</ele>
        <time>2021-08-11T10:23:25Z</time>
      </trkpt>
      <trkpt lat="45.10491" lon="2.65131">
        <ele>1594.4</ele>
        <time>2021-08-11T10:23:26Z</time>
      </trkpt>
      <trkpt lat="45.1049" lon="2.65132">
        <ele>1594.3</ele>
        <time>2021-08-11T10:23:27Z</time>
      </trkpt>
      <trkpt lat="45.1049" lon="2.65132">
        <ele>1594.3</ele>
        <time>2021-08-11T10:23:28Z</time>
      </trkpt>
      <trkpt lat="45.10489" lon="2.65132">
        <ele>1594.2</ele>
        <time>2021-08-11T10:23:29Z</time>
      </trkpt>
      <trkpt lat="45.10489" lon="2.65132">
        <ele>1594.2</ele>
        <time>2021-08-11T10:23:30Z</time>
      </trkpt>
      <trkpt lat="45.10489" lon="2.65133">
        <ele>1594.2</ele>
        <time>2021-08-11T10:23:31Z</time>
      </trkpt>
      <trkpt lat="45.10488" lon="2.65133">
        <ele>1594.1</ele>
        <time>2021-08-11T10:23:32Z</time>
      </trkpt>
      <trkpt lat="45.10487" lon="2.65134">
        <ele>1594.1</ele>
        <time>2021-08-11T10:23:33Z</time>
      </trkpt>
      <trkpt lat="45.10487" lon="2.65134">
        <ele>1594</ele>
        <time>2021-08-11T10:23:34Z</time>
      </trkpt>
      <trkpt lat="45.10486" lon="2.65135">
        <ele>1593.9</ele>
        <time>2021-08-11T10:23:35Z</time>
      </trkpt>
      <trkpt lat="45.10485" lon="2.65136">
        <ele>1593.9</ele>
        <time>2021-08-11T10:23:36Z</time>
      </trkpt>
      <trkpt lat="45.10485" lon="2.65137">
        <ele>1593.9</ele>
        <time>2021-08-11T10:23:37Z</time>
      </trkpt>
      <trkpt lat="45.10484" lon="2.65137">
        <ele>1593.8</ele>
        <time>2021-08-11T10:23:38Z</time>
      </trkpt>
      <trkpt lat="45.10483" lon="2.65138">
        <ele>1593.8</ele>
        <time>2021-08-11T10:23:39Z</time>
      </trkpt>
      <trkpt lat="45.10482" lon="2.65139">
        <ele>1593.7</ele>
        <time>2021-08-11T10:23:40Z</time>
      </trkpt>
      <trkpt lat="45.10482" lon="2.65139">
        <ele>1593.7</ele>
        <time>2021-08-11T10:23:41Z</time>
      </trkpt>
      <trkpt lat="45.10481" lon="2.6514">
        <ele>1593.6</ele>
        <time>2021-08-11T10:23:42Z</time>
      </trkpt>
      <trkpt lat="45.1048" lon="2.6514">
        <ele>1593.6</ele>
        <time>2021-08-11T10:23:43Z</time>
      </trkpt>
      <trkpt lat="45.10479" lon="2.6514">
        <ele>1593.5</ele>
        <time>2021-08-11T10:23:44Z</time>
      </trkpt>
      <trkpt lat="45.10479" lon="2.65141">
        <ele>1593.5</ele>
        <time>2021-08-11T10:23:45Z</time>
      </trkpt>
      <trkpt lat="45.10478" lon="2.65141">
        <ele>1593.4</ele>
        <time>2021-08-11T10:23:46Z</time>
      </trkpt>
      <trkpt lat="45.10477" lon="2.65141">
        <ele>1593.4</ele>
        <time>2021-08-11T10:23:47Z</time>
      </trkpt>
      <trkpt lat="45.10477" lon="2.65142">
        <ele>1593.4</ele>
        <time>2021-08-11T10:23:48Z</time>
      </trkpt>
      <trkpt lat="45.10476" lon="2.65143">
        <ele>1593.4</ele>
        <time>2021-08-11T10:23:49Z</time>
      </trkpt>
      <trkpt lat="45.10476" lon="2.65144">
        <ele>1593.4</ele>
        <time>2021-08-11T10:23:50Z</time>
      </trkpt>
      <trkpt lat="45.10475" lon="2.65145">
        <ele>1593.4</ele>
        <time>2021-08-11T10:23:51Z</time>
      </trkpt>
      <trkpt lat="45.10474" lon="2.65145">
        <ele>1593.4</ele>
        <time>2021-08-11T10:23:52Z</time>
      </trkpt>
      <trkpt lat="45.10474" lon="2.65146">
        <ele>1593.4</ele>
        <time>2021-08-11T10:23:53Z</time>
      </trkpt>
      <trkpt lat="45.10473" lon="2.65148">
        <ele>1593.4</ele>
        <time>2021-08-11T10:23:54Z</time>
      </trkpt>
      <trkpt lat="45.10472" lon="2.65149">
        <ele>1593.5</ele>
        <time>2021-08-11T10:23:55Z</time>
      </trkpt>
      <trkpt lat="45.10472" lon="2.6515">
        <ele>1593.5</ele>
        <time>2021-08-11T10:23:56Z</time>
      </trkpt>
      <trkpt lat="45.10471" lon="2.65151">
        <ele>1593.6</ele>
        <time>2021-08-11T10:23:57Z</time>
      </trkpt>
      <trkpt lat="45.1047" lon="2.65152">
        <ele>1593.6</ele>
        <time>2021-08-11T10:23:58Z</time>
      </trkpt>
      <trkpt lat="45.1047" lon="2.65153">
        <ele>1593.7</ele>
        <time>2021-08-11T10:23:59Z</time>
      </trkpt>
      <trkpt lat="45.10469" lon="2.65154">
        <ele>1593.7</ele>
        <time>2021-08-11T10:24:00Z</time>
      </trkpt>
      <trkpt lat="45.10468" lon="2.65155">
        <ele>1593.8</ele>
        <time>2021-08-11T10:24:01Z</time>
      </trkpt>
      <trkpt lat="45.10468" lon="2.65157">
        <ele>1593.9</ele>
        <time>2021-08-11T10:24:02Z</time>
      </trkpt>
      <trkpt lat="45.10467" lon="2.65158">
        <ele>1593.9</ele>
        <time>2021-08-11T10:24:03Z</time>
      </trkpt>
      <trkpt lat="45.10466" lon="2.65159">
        <ele>1594</ele>
        <time>2021-08-11T10:24:04Z</time>
      </trkpt>
      <trkpt lat="45.10466" lon="2.6516">
        <ele>1594.1</ele>
        <time>2021-08-11T10:24:05Z</time>
      </trkpt>
      <trkpt lat="45.10465" lon="2.65161">
        <ele>1594.2</ele>
        <time>2021-08-11T10:24:06Z</time>
      </trkpt>
      <trkpt lat="45.10465" lon="2.65162">
        <ele>1594.3</ele>
        <time>2021-08-11T10:24:07Z</time>
      </trkpt>
      <trkpt lat="45.10464" lon="2.65163">
        <ele>1594.3</ele>
        <time>2021-08-11T10:24:08Z</time>
      </trkpt>
      <trkpt lat="45.10463" lon="2.65165">
        <ele>1594.4</ele>
        <time>2021-08-11T10:24:09Z</time>
      </trkpt>
      <trkpt lat="45.10462" lon="2.65166">
        <ele>1594.5</ele>
        <time>2021-08-11T10:24:10Z</time>
      </trkpt>
      <trkpt lat="45.10462" lon="2.65167">
        <ele>1594.6</ele>
        <time>2021-08-11T10:24:11Z</time>
      </trkpt>
      <trkpt lat="45.10461" lon="2.65168">
        <ele>1594.6</ele>
        <time>2021-08-11T10:24:12Z</time>
      </trkpt>
      <trkpt lat="45.1046" lon="2.65169">
        <ele>1594.5</ele>
        <time>2021-08-11T10:24:13Z</time>
      </trkpt>
      <trkpt lat="45.1046" lon="2.6517">
        <ele>1594.5</ele>
        <time>2021-08-11T10:24:14Z</time>
      </trkpt>
      <trkpt lat="45.10459" lon="2.65171">
        <ele>1594.4</ele>
        <time>2021-08-11T10:24:15Z</time>
      </trkpt>
      <trkpt lat="45.10458" lon="2.65172">
        <ele>1594.4</ele>
        <time>2021-08-11T10:24:16Z</time>
      </trkpt>
      <trkpt lat="45.10458" lon="2.65173">
        <ele>1594.4</ele>
        <time>2021-08-11T10:24:17Z</time>
      </trkpt>
      <trkpt lat="45.10457" lon="2.65175">
        <ele>1594.3</ele>
        <time>2021-08-11T10:24:18Z</time>
      </trkpt>
      <trkpt lat="45.10456" lon="2.65176">
        <ele>1594.3</ele>
        <time>2021-08-11T10:24:19Z</time>
      </trkpt>
      <trkpt lat="45.10456" lon="2.65177">
        <ele>1594.3</ele>
        <time>2021-08-11T10:24:20Z</time>
      </trkpt>
      <trkpt lat="45.10455" lon="2.65178">
        <ele>1594.3</ele>
        <time>2021-08-11T10:24:21Z</time>
      </trkpt>
      <trkpt lat="45.10454" lon="2.65179">
        <ele>1594.2</ele>
        <time>2021-08-11T10:24:22Z</time>
      </trkpt>
      <trkpt lat="45.10454" lon="2.6518">
        <ele>1594.2</ele>
        <time>2021-08-11T10:24:23Z</time>
      </trkpt>
      <trkpt lat="45.10453" lon="2.65181">
        <ele>1594.2</ele>
        <time>2021-08-11T10:24:24Z</time>
      </trkpt>
      <trkpt lat="45.10453" lon="2.65182">
        <ele>1594.2</ele>
        <time>2021-08-11T10:24:25Z</time>
      </trkpt>
      <trkpt lat="45.10452" lon="2.65184">
        <ele>1594.2</ele>
        <time>2021-08-11T10:24:26Z</time>
      </trkpt>
      <trkpt lat="45.10451" lon="2.65185">
        <ele>1594.2</ele>
        <time>2021-08-11T10:24:27Z</time>
      </trkpt>
      <trkpt lat="45.10451" lon="2.65185">
        <ele>1594.2</ele>
        <time>2021-08-11T10:24:28Z</time>
      </trkpt>
      <trkpt lat="45.1045" lon="2.65186">
        <ele>1594.2</ele>
        <time>2021-08-11T10:24:29Z</time>
      </trkpt>
      <trkpt lat="45.10449" lon="2.65187">
        <ele>1594.2</ele>
        <time>2021-08-11T10:24:30Z</time>
      </trkpt>
      <trkpt lat="45.10449" lon="2.65188">
        <ele>1594.2</ele>
        <time>2021-08-11T10:24:31Z</time>
      </trkpt>
      <trkpt lat="45.10448" lon="2.65189">
        <ele>1594.2</ele>
        <time>2021-08-11T10:24:32Z</time>
      </trkpt>
      <trkpt lat="45.10448" lon="2.6519">
        <ele>1594.2</ele>
        <time>2021-08-11T10:24:33Z</time>
      </trkpt>
      <trkpt lat="45.10447" lon="2.65191">
        <ele>1594.2</ele>
        <time>2021-08-11T10:24:34Z</time>
      </trkpt>
      <trkpt lat="45.10447" lon="2.65192">
        <ele>1594.2</ele>
        <time>2021-08-11T10:24:35Z</time>
      </trkpt>
      <trkpt lat="45.10446" lon="2.65193">
        <ele>1594.2</ele>
        <time>2021-08-11T10:24:36Z</time>
      </trkpt>
      <trkpt lat="45.10446" lon="2.65195">
        <ele>1594.2</ele>
        <time>2021-08-11T10:24:37Z</time>
      </trkpt>
      <trkpt lat="45.10445" lon="2.65196">
        <ele>1594.2</ele>
        <time>2021-08-11T10:24:38Z</time>
      </trkpt>
      <trkpt lat="45.10445" lon="2.65197">
        <ele>1594.2</ele>
        <time>2021-08-11T10:24:39Z</time>
      </trkpt>
      <trkpt lat="45.10444" lon="2.65198">
        <ele>1594.3</ele>
        <time>2021-08-11T10:24:40Z</time>
      </trkpt>
      <trkpt lat="45.10444" lon="2.65199">
        <ele>1594.3</ele>
        <time>2021-08-11T10:24:41Z</time>
      </trkpt>
      <trkpt lat="45.10443" lon="2.652">
        <ele>1594.3</ele>
        <time>2021-08-11T10:24:42Z</time>
      </trkpt>
      <trkpt lat="45.10443" lon="2.65201">
        <ele>1594.3</ele>
        <time>2021-08-11T10:24:43Z</time>
      </trkpt>
      <trkpt lat="45.10442" lon="2.65202">
        <ele>1594.4</ele>
        <time>2021-08-11T10:24:44Z</time>
      </trkpt>
      <trkpt lat="45.10442" lon="2.65203">
        <ele>1594.4</ele>
        <time>2021-08-11T10:24:45Z</time>
      </trkpt>
      <trkpt lat="45.10441" lon="2.65204">
        <ele>1594.4</ele>
        <time>2021-08-11T10:24:46Z</time>
      </trkpt>
      <trkpt lat="45.10441" lon="2.65206">
        <ele>1594.4</ele>
        <time>2021-08-11T10:24:47Z</time>
      </trkpt>
      <trkpt lat="45.1044" lon="2.65206">
        <ele>1594.5</ele>
        <time>2021-08-11T10:24:48Z</time>
      </trkpt>
      <trkpt lat="45.1044" lon="2.65207">
        <ele>1594.5</ele>
        <time>2021-08-11T10:24:49Z</time>
      </trkpt>
      <trkpt lat="45.10439" lon="2.65208">
        <ele>1594.5</ele>
        <time>2021-08-11T10:24:50Z</time>
      </trkpt>
      <trkpt lat="45.10439" lon="2.65209">
        <ele>1594.6</ele>
        <time>2021-08-11T10:24:51Z</time>
      </trkpt>
      <trkpt lat="45.10438" lon="2.65211">
        <ele>1594.6</ele>
        <time>2021-08-11T10:24:52Z</time>
      </trkpt>
      <trkpt lat="45.10438" lon="2.65212">
        <ele>1594.7</ele>
        <time>2021-08-11T10:24:53Z</time>
      </trkpt>
      <trkpt lat="45.10437" lon="2.65213">
        <ele>1594.7</ele>
        <time>2021-08-11T10:24:54Z</time>
      </trkpt>
      <trkpt lat="45.10437" lon="2.65214">
        <ele>1594.8</ele>
        <time>2021-08-11T10:24:55Z</time>
      </trkpt>
      <trkpt lat="45.10436" lon="2.65215">
        <ele>1594.8</ele>
        <time>2021-08-11T10:24:56Z</time>
      </trkpt>
      <trkpt lat="45.10436" lon="2.65216">
        <ele>1594.9</ele>
        <time>2021-08-11T10:24:57Z</time>
      </trkpt>
      <trkpt lat="45.10435" lon="2.65217">
        <ele>1594.9</ele>
        <time>2021-08-11T10:24:58Z</time>
      </trkpt>
      <trkpt lat="45.10435" lon="2.65218">
        <ele>1595</ele>
        <time>2021-08-11T10:24:59Z</time>
      </trkpt>
      <trkpt lat="45.10434" lon="2.65219">
        <ele>1595.1</ele>
        <time>2021-08-11T10:25:00Z</time>
      </trkpt>
      <trkpt lat="45.10434" lon="2.6522">
        <ele>1595.1</ele>
        <time>2021-08-11T10:25:01Z</time>
      </trkpt>
      <trkpt lat="45.10433" lon="2.65221">
        <ele>1595.2</ele>
        <time>2021-08-11T10:25:02Z</time>
      </trkpt>
      <trkpt lat="45.10432" lon="2.65222">
        <ele>1595.3</ele>
        <time>2021-08-11T10:25:03Z</time>
      </trkpt>
      <trkpt lat="45.10432" lon="2.65223">
        <ele>1595.3</ele>
        <time>2021-08-11T10:25:04Z</time>
      </trkpt>
      <trkpt lat="45.10431" lon="2.65224">
        <ele>1595.4</ele>
        <time>2021-08-11T10:25:05Z</time>
      </trkpt>
      <trkpt lat="45.10431" lon="2.65225">
        <ele>1595.5</ele>
        <time>2021-08-11T10:25:06Z</time>
      </trkpt>
      <trkpt lat="45.1043" lon="2.65226">
        <ele>1595.6</ele>
        <time>2021-08-11T10:25:07Z</time>
      </trkpt>
      <trkpt lat="45.1043" lon="2.65227">
        <ele>1595.6</ele>
        <time>2021-08-11T10:25:08Z</time>
      </trkpt>
      <trkpt lat="45.10429" lon="2.65228">
        <ele>1595.7</ele>
        <time>2021-08-11T10:25:09Z</time>
      </trkpt>
      <trkpt lat="45.10429" lon="2.65229">
        <ele>1595.8</ele>
        <time>2021-08-11T10:25:10Z</time>
      </trkpt>
      <trkpt lat="45.10428" lon="2.6523">
        <ele>1595.9</ele>
        <time>2021-08-11T10:25:11Z</time>
      </trkpt>
      <trkpt lat="45.10428" lon="2.65231">
        <ele>1596</ele>
        <time>2021-08-11T10:25:12Z</time>
      </trkpt>
      <trkpt lat="45.10427" lon="2.65232">
        <ele>1596</ele>
        <time>2021-08-11T10:25:13Z</time>
      </trkpt>
      <trkpt lat="45.10427" lon="2.65233">
        <ele>1596.1</ele>
        <time>2021-08-11T10:25:14Z</time>
      </trkpt>
      <trkpt lat="45.10426" lon="2.65235">
        <ele>1596.2</ele>
        <time>2021-08-11T10:25:15Z</time>
      </trkpt>
      <trkpt lat="45.10426" lon="2.65236">
        <ele>1596.3</ele>
        <time>2021-08-11T10:25:16Z</time>
      </trkpt>
      <trkpt lat="45.10425" lon="2.65236">
        <ele>1596.4</ele>
        <time>2021-08-11T10:25:17Z</time>
      </trkpt>
      <trkpt lat="45.10424" lon="2.65237">
        <ele>1596.5</ele>
        <time>2021-08-11T10:25:18Z</time>
      </trkpt>
      <trkpt lat="45.10424" lon="2.65238">
        <ele>1596.6</ele>
        <time>2021-08-11T10:25:19Z</time>
      </trkpt>
      <trkpt lat="45.10423" lon="2.6524">
        <ele>1596.7</ele>
        <time>2021-08-11T10:25:20Z</time>
      </trkpt>
      <trkpt lat="45.10423" lon="2.65241">
        <ele>1596.8</ele>
        <time>2021-08-11T10:25:21Z</time>
      </trkpt>
      <trkpt lat="45.10422" lon="2.65242">
        <ele>1596.9</ele>
        <time>2021-08-11T10:25:22Z</time>
      </trkpt>
      <trkpt lat="45.10422" lon="2.65243">
        <ele>1597</ele>
        <time>2021-08-11T10:25:23Z</time>
      </trkpt>
      <trkpt lat="45.10421" lon="2.65244">
        <ele>1597.2</ele>
        <time>2021-08-11T10:25:24Z</time>
      </trkpt>
      <trkpt lat="45.10421" lon="2.65245">
        <ele>1597.3</ele>
        <time>2021-08-11T10:25:25Z</time>
      </trkpt>
      <trkpt lat="45.1042" lon="2.65246">
        <ele>1597.4</ele>
        <time>2021-08-11T10:25:26Z</time>
      </trkpt>
      <trkpt lat="45.10419" lon="2.65246">
        <ele>1597.5</ele>
        <time>2021-08-11T10:25:27Z</time>
      </trkpt>
      <trkpt lat="45.10418" lon="2.65247">
        <ele>1597.6</ele>
        <time>2021-08-11T10:25:28Z</time>
      </trkpt>
      <trkpt lat="45.10418" lon="2.65248">
        <ele>1597.8</ele>
        <time>2021-08-11T10:25:29Z</time>
      </trkpt>
      <trkpt lat="45.10417" lon="2.65249">
        <ele>1597.9</ele>
        <time>2021-08-11T10:25:30Z</time>
      </trkpt>
      <trkpt lat="45.10416" lon="2.6525">
        <ele>1598</ele>
        <time>2021-08-11T10:25:31Z</time>
      </trkpt>
      <trkpt lat="45.10416" lon="2.65251">
        <ele>1598.1</ele>
        <time>2021-08-11T10:25:32Z</time>
      </trkpt>
      <trkpt lat="45.10416" lon="2.65252">
        <ele>1598.2</ele>
        <time>2021-08-11T10:25:33Z</time>
      </trkpt>
      <trkpt lat="45.10415" lon="2.65253">
        <ele>1598.3</ele>
        <time>2021-08-11T10:25:34Z</time>
      </trkpt>
      <trkpt lat="45.10414" lon="2.65254">
        <ele>1598.5</ele>
        <time>2021-08-11T10:25:35Z</time>
      </trkpt>
      <trkpt lat="45.10414" lon="2.65255">
        <ele>1598.6</ele>
        <time>2021-08-11T10:25:36Z</time>
      </trkpt>
      <trkpt lat="45.10413" lon="2.65255">
        <ele>1598.7</ele>
        <time>2021-08-11T10:25:37Z</time>
      </trkpt>
      <trkpt lat="45.10412" lon="2.65256">
        <ele>1598.8</ele>
        <time>2021-08-11T10:25:38Z</time>
      </trkpt>
      <trkpt lat="45.10412" lon="2.65256">
        <ele>1598.9</ele>
        <time>2021-08-11T10:25:39Z</time>
      </trkpt>
      <trkpt lat="45.10411" lon="2.65257">
        <ele>1599</ele>
        <time>2021-08-11T10:25:40Z</time>
      </trkpt>
      <trkpt lat="45.1041" lon="2.65258">
        <ele>1599.1</ele>
        <time>2021-08-11T10:25:41Z</time>
      </trkpt>
      <trkpt lat="45.10409" lon="2.65258">
        <ele>1599.3</ele>
        <time>2021-08-11T10:25:42Z</time>
      </trkpt>
      <trkpt lat="45.10409" lon="2.65259">
        <ele>1599.4</ele>
        <time>2021-08-11T10:25:43Z</time>
      </trkpt>
      <trkpt lat="45.10408" lon="2.65259">
        <ele>1599.5</ele>
        <time>2021-08-11T10:25:44Z</time>
      </trkpt>
      <trkpt lat="45.10407" lon="2.6526">
        <ele>1599.6</ele>
        <time>2021-08-11T10:25:45Z</time>
      </trkpt>
      <trkpt lat="45.10407" lon="2.6526">
        <ele>1599.7</ele>
        <time>2021-08-11T10:25:46Z</time>
      </trkpt>
      <trkpt lat="45.10406" lon="2.65261">
        <ele>1599.8</ele>
        <time>2021-08-11T10:25:47Z</time>
      </trkpt>
      <trkpt lat="45.10405" lon="2.65261">
        <ele>1599.9</ele>
        <time>2021-08-11T10:25:48Z</time>
      </trkpt>
      <trkpt lat="45.10405" lon="2.65262">
        <ele>1600</ele>
        <time>2021-08-11T10:25:49Z</time>
      </trkpt>
      <trkpt lat="45.10404" lon="2.65262">
        <ele>1600.2</ele>
        <time>2021-08-11T10:25:50Z</time>
      </trkpt>
      <trkpt lat="45.10403" lon="2.65263">
        <ele>1600.3</ele>
        <time>2021-08-11T10:25:51Z</time>
      </trkpt>
      <trkpt lat="45.10403" lon="2.65264">
        <ele>1600.4</ele>
        <time>2021-08-11T10:25:52Z</time>
      </trkpt>
      <trkpt lat="45.10402" lon="2.65265">
        <ele>1600.6</ele>
        <time>2021-08-11T10:25:53Z</time>
      </trkpt>
      <trkpt lat="45.10401" lon="2.65266">
        <ele>1600.8</ele>
        <time>2021-08-11T10:25:54Z</time>
      </trkpt>
      <trkpt lat="45.10401" lon="2.65267">
        <ele>1601</ele>
        <time>2021-08-11T10:25:55Z</time>
      </trkpt>
      <trkpt lat="45.104" lon="2.65267">
        <ele>1601.1</ele>
        <time>2021-08-11T10:25:56Z</time>
      </trkpt>
      <trkpt lat="45.104" lon="2.65268">
        <ele>1601.2</ele>
        <time>2021-08-11T10:25:57Z</time>
      </trkpt>
      <trkpt lat="45.104" lon="2.65269">
        <ele>1601.3</ele>
        <time>2021-08-11T10:25:58Z</time>
      </trkpt>
      <trkpt lat="45.10399" lon="2.65269">
        <ele>1601.4</ele>
        <time>2021-08-11T10:25:59Z</time>
      </trkpt>
      <trkpt lat="45.10399" lon="2.65269">
        <ele>1601.5</ele>
        <time>2021-08-11T10:26:00Z</time>
      </trkpt>
      <trkpt lat="45.10399" lon="2.6527">
        <ele>1601.5</ele>
        <time>2021-08-11T10:26:01Z</time>
      </trkpt>
      <trkpt lat="45.10399" lon="2.6527">
        <ele>1601.5</ele>
        <time>2021-08-11T10:26:02Z</time>
      </trkpt>
      <trkpt lat="45.10399" lon="2.6527">
        <ele>1601.6</ele>
        <time>2021-08-11T10:26:03Z</time>
      </trkpt>
      <trkpt lat="45.10398" lon="2.6527">
        <ele>1601.7</ele>
        <time>2021-08-11T10:26:04Z</time>
      </trkpt>
      <trkpt lat="45.10398" lon="2.65271">
        <ele>1601.8</ele>
        <time>2021-08-11T10:26:05Z</time>
      </trkpt>
      <trkpt lat="45.10397" lon="2.65272">
        <ele>1601.9</ele>
        <time>2021-08-11T10:26:06Z</time>
      </trkpt>
      <trkpt lat="45.10397" lon="2.65272">
        <ele>1602.1</ele>
        <time>2021-08-11T10:26:07Z</time>
      </trkpt>
      <trkpt lat="45.10396" lon="2.65272">
        <ele>1602.2</ele>
        <time>2021-08-11T10:26:08Z</time>
      </trkpt>
      <trkpt lat="45.10395" lon="2.65273">
        <ele>1602.3</ele>
        <time>2021-08-11T10:26:09Z</time>
      </trkpt>
      <trkpt lat="45.10395" lon="2.65273">
        <ele>1602.4</ele>
        <time>2021-08-11T10:26:10Z</time>
      </trkpt>
      <trkpt lat="45.10394" lon="2.65274">
        <ele>1602.6</ele>
        <time>2021-08-11T10:26:11Z</time>
      </trkpt>
      <trkpt lat="45.10394" lon="2.65274">
        <ele>1602.7</ele>
        <time>2021-08-11T10:26:12Z</time>
      </trkpt>
      <trkpt lat="45.10393" lon="2.65275">
        <ele>1602.9</ele>
        <time>2021-08-11T10:26:13Z</time>
      </trkpt>
      <trkpt lat="45.10392" lon="2.65276">
        <ele>1603.1</ele>
        <time>2021-08-11T10:26:14Z</time>
      </trkpt>
      <trkpt lat="45.10391" lon="2.65276">
        <ele>1603.3</ele>
        <time>2021-08-11T10:26:15Z</time>
      </trkpt>
      <trkpt lat="45.10391" lon="2.65277">
        <ele>1603.4</ele>
        <time>2021-08-11T10:26:16Z</time>
      </trkpt>
      <trkpt lat="45.1039" lon="2.65278">
        <ele>1603.6</ele>
        <time>2021-08-11T10:26:17Z</time>
      </trkpt>
      <trkpt lat="45.10389" lon="2.65278">
        <ele>1603.8</ele>
        <time>2021-08-11T10:26:18Z</time>
      </trkpt>
      <trkpt lat="45.10389" lon="2.65278">
        <ele>1603.9</ele>
        <time>2021-08-11T10:26:19Z</time>
      </trkpt>
      <trkpt lat="45.10388" lon="2.65279">
        <ele>1604.1</ele>
        <time>2021-08-11T10:26:20Z</time>
      </trkpt>
      <trkpt lat="45.10387" lon="2.65279">
        <ele>1604.2</ele>
        <time>2021-08-11T10:26:21Z</time>
      </trkpt>
      <trkpt lat="45.10386" lon="2.6528">
        <ele>1604.4</ele>
        <time>2021-08-11T10:26:22Z</time>
      </trkpt>
      <trkpt lat="45.10386" lon="2.6528">
        <ele>1604.5</ele>
        <time>2021-08-11T10:26:23Z</time>
      </trkpt>
      <trkpt lat="45.10385" lon="2.6528">
        <ele>1604.7</ele>
        <time>2021-08-11T10:26:24Z</time>
      </trkpt>
      <trkpt lat="45.10384" lon="2.65281">
        <ele>1604.9</ele>
        <time>2021-08-11T10:26:25Z</time>
      </trkpt>
      <trkpt lat="45.10383" lon="2.65282">
        <ele>1605.1</ele>
        <time>2021-08-11T10:26:26Z</time>
      </trkpt>
      <trkpt lat="45.10383" lon="2.65282">
        <ele>1605.2</ele>
        <time>2021-08-11T10:26:27Z</time>
      </trkpt>
      <trkpt lat="45.10382" lon="2.65283">
        <ele>1605.4</ele>
        <time>2021-08-11T10:26:28Z</time>
      </trkpt>
      <trkpt lat="45.10382" lon="2.65284">
        <ele>1605.6</ele>
        <time>2021-08-11T10:26:29Z</time>
      </trkpt>
      <trkpt lat="45.10381" lon="2.65284">
        <ele>1605.8</ele>
        <time>2021-08-11T10:26:30Z</time>
      </trkpt>
      <trkpt lat="45.10381" lon="2.65285">
        <ele>1605.9</ele>
        <time>2021-08-11T10:26:31Z</time>
      </trkpt>
      <trkpt lat="45.1038" lon="2.65285">
        <ele>1606.1</ele>
        <time>2021-08-11T10:26:32Z</time>
      </trkpt>
      <trkpt lat="45.10379" lon="2.65286">
        <ele>1606.3</ele>
        <time>2021-08-11T10:26:33Z</time>
      </trkpt>
      <trkpt lat="45.10379" lon="2.65286">
        <ele>1606.5</ele>
        <time>2021-08-11T10:26:34Z</time>
      </trkpt>
      <trkpt lat="45.10378" lon="2.65287">
        <ele>1606.7</ele>
        <time>2021-08-11T10:26:35Z</time>
      </trkpt>
      <trkpt lat="45.10377" lon="2.65287">
        <ele>1606.9</ele>
        <time>2021-08-11T10:26:36Z</time>
      </trkpt>
      <trkpt lat="45.10377" lon="2.65288">
        <ele>1607.1</ele>
        <time>2021-08-11T10:26:37Z</time>
      </trkpt>
      <trkpt lat="45.10376" lon="2.65289">
        <ele>1607.3</ele>
        <time>2021-08-11T10:26:38Z</time>
      </trkpt>
      <trkpt lat="45.10376" lon="2.65289">
        <ele>1607.5</ele>
        <time>2021-08-11T10:26:39Z</time>
      </trkpt>
      <trkpt lat="45.10375" lon="2.6529">
        <ele>1607.6</ele>
        <time>2021-08-11T10:26:40Z</time>
      </trkpt>
      <trkpt lat="45.10374" lon="2.6529">
        <ele>1607.9</ele>
        <time>2021-08-11T10:26:41Z</time>
      </trkpt>
      <trkpt lat="45.10374" lon="2.65291">
        <ele>1608</ele>
        <time>2021-08-11T10:26:42Z</time>
      </trkpt>
      <trkpt lat="45.10373" lon="2.65291">
        <ele>1608.2</ele>
        <time>2021-08-11T10:26:43Z</time>
      </trkpt>
      <trkpt lat="45.10372" lon="2.65291">
        <ele>1608.4</ele>
        <time>2021-08-11T10:26:44Z</time>
      </trkpt>
      <trkpt lat="45.10371" lon="2.65292">
        <ele>1608.6</ele>
        <time>2021-08-11T10:26:45Z</time>
      </trkpt>
      <trkpt lat="45.1037" lon="2.65292">
        <ele>1608.8</ele>
        <time>2021-08-11T10:26:46Z</time>
      </trkpt>
      <trkpt lat="45.1037" lon="2.65293">
        <ele>1609</ele>
        <time>2021-08-11T10:26:47Z</time>
      </trkpt>
      <trkpt lat="45.10369" lon="2.65293">
        <ele>1609.2</ele>
        <time>2021-08-11T10:26:48Z</time>
      </trkpt>
      <trkpt lat="45.10368" lon="2.65293">
        <ele>1609.4</ele>
        <time>2021-08-11T10:26:49Z</time>
      </trkpt>
      <trkpt lat="45.10367" lon="2.65294">
        <ele>1609.6</ele>
        <time>2021-08-11T10:26:50Z</time>
      </trkpt>
      <trkpt lat="45.10367" lon="2.65294">
        <ele>1609.8</ele>
        <time>2021-08-11T10:26:51Z</time>
      </trkpt>
      <trkpt lat="45.10366" lon="2.65295">
        <ele>1610.1</ele>
        <time>2021-08-11T10:26:52Z</time>
      </trkpt>
      <trkpt lat="45.10365" lon="2.65296">
        <ele>1610.3</ele>
        <time>2021-08-11T10:26:53Z</time>
      </trkpt>
      <trkpt lat="45.10364" lon="2.65296">
        <ele>1610.6</ele>
        <time>2021-08-11T10:26:54Z</time>
      </trkpt>
      <trkpt lat="45.10364" lon="2.65297">
        <ele>1610.9</ele>
        <time>2021-08-11T10:26:55Z</time>
      </trkpt>
      <trkpt lat="45.10363" lon="2.65298">
        <ele>1611.1</ele>
        <time>2021-08-11T10:26:56Z</time>
      </trkpt>
      <trkpt lat="45.10363" lon="2.65299">
        <ele>1611.4</ele>
        <time>2021-08-11T10:26:57Z</time>
      </trkpt>
      <trkpt lat="45.10362" lon="2.65299">
        <ele>1611.5</ele>
        <time>2021-08-11T10:26:58Z</time>
      </trkpt>
      <trkpt lat="45.10362" lon="2.653">
        <ele>1611.8</ele>
        <time>2021-08-11T10:26:59Z</time>
      </trkpt>
      <trkpt lat="45.10361" lon="2.65301">
        <ele>1612</ele>
        <time>2021-08-11T10:27:00Z</time>
      </trkpt>
      <trkpt lat="45.1036" lon="2.65302">
        <ele>1612.4</ele>
        <time>2021-08-11T10:27:01Z</time>
      </trkpt>
      <trkpt lat="45.1036" lon="2.65303">
        <ele>1612.7</ele>
        <time>2021-08-11T10:27:02Z</time>
      </trkpt>
      <trkpt lat="45.10359" lon="2.65304">
        <ele>1613.1</ele>
        <time>2021-08-11T10:27:03Z</time>
      </trkpt>
      <trkpt lat="45.10358" lon="2.65305">
        <ele>1613.5</ele>
        <time>2021-08-11T10:27:04Z</time>
      </trkpt>
      <trkpt lat="45.10358" lon="2.65306">
        <ele>1613.8</ele>
        <time>2021-08-11T10:27:05Z</time>
      </trkpt>
      <trkpt lat="45.10357" lon="2.65307">
        <ele>1614.2</ele>
        <time>2021-08-11T10:27:06Z</time>
      </trkpt>
      <trkpt lat="45.10357" lon="2.65308">
        <ele>1614.5</ele>
        <time>2021-08-11T10:27:07Z</time>
      </trkpt>
      <trkpt lat="45.10356" lon="2.65309">
        <ele>1614.7</ele>
        <time>2021-08-11T10:27:08Z</time>
      </trkpt>
      <trkpt lat="45.10355" lon="2.65309">
        <ele>1615</ele>
        <time>2021-08-11T10:27:09Z</time>
      </trkpt>
      <trkpt lat="45.10355" lon="2.6531">
        <ele>1615.3</ele>
        <time>2021-08-11T10:27:10Z</time>
      </trkpt>
      <trkpt lat="45.10354" lon="2.65311">
        <ele>1615.6</ele>
        <time>2021-08-11T10:27:11Z</time>
      </trkpt>
      <trkpt lat="45.10354" lon="2.65312">
        <ele>1615.9</ele>
        <time>2021-08-11T10:27:12Z</time>
      </trkpt>
      <trkpt lat="45.10353" lon="2.65312">
        <ele>1616.2</ele>
        <time>2021-08-11T10:27:13Z</time>
      </trkpt>
      <trkpt lat="45.10352" lon="2.65313">
        <ele>1616.4</ele>
        <time>2021-08-11T10:27:14Z</time>
      </trkpt>
      <trkpt lat="45.10351" lon="2.65313">
        <ele>1616.7</ele>
        <time>2021-08-11T10:27:15Z</time>
      </trkpt>
      <trkpt lat="45.10351" lon="2.65314">
        <ele>1617</ele>
        <time>2021-08-11T10:27:16Z</time>
      </trkpt>
      <trkpt lat="45.1035" lon="2.65314">
        <ele>1617.3</ele>
        <time>2021-08-11T10:27:17Z</time>
      </trkpt>
      <trkpt lat="45.10349" lon="2.65315">
        <ele>1617.6</ele>
        <time>2021-08-11T10:27:18Z</time>
      </trkpt>
      <trkpt lat="45.10348" lon="2.65315">
        <ele>1617.9</ele>
        <time>2021-08-11T10:27:19Z</time>
      </trkpt>
      <trkpt lat="45.10347" lon="2.65316">
        <ele>1618.2</ele>
        <time>2021-08-11T10:27:20Z</time>
      </trkpt>
      <trkpt lat="45.10346" lon="2.65317">
        <ele>1618.6</ele>
        <time>2021-08-11T10:27:21Z</time>
      </trkpt>
      <trkpt lat="45.10345" lon="2.65317">
        <ele>1619</ele>
        <time>2021-08-11T10:27:22Z</time>
      </trkpt>
      <trkpt lat="45.10344" lon="2.65318">
        <ele>1619.3</ele>
        <time>2021-08-11T10:27:23Z</time>
      </trkpt>
      <trkpt lat="45.10343" lon="2.65318">
        <ele>1619.6</ele>
        <time>2021-08-11T10:27:24Z</time>
      </trkpt>
      <trkpt lat="45.10342" lon="2.65319">
        <ele>1620</ele>
        <time>2021-08-11T10:27:25Z</time>
      </trkpt>
      <trkpt lat="45.10341" lon="2.65319">
        <ele>1620.3</ele>
        <time>2021-08-11T10:27:26Z</time>
      </trkpt>
      <trkpt lat="45.1034" lon="2.6532">
        <ele>1620.7</ele>
        <time>2021-08-11T10:27:27Z</time>
      </trkpt>
      <trkpt lat="45.1034" lon="2.6532">
        <ele>1621</ele>
        <time>2021-08-11T10:27:28Z</time>
      </trkpt>
      <trkpt lat="45.10339" lon="2.65321">
        <ele>1621.4</ele>
        <time>2021-08-11T10:27:29Z</time>
      </trkpt>
      <trkpt lat="45.10338" lon="2.65322">
        <ele>1621.8</ele>
        <time>2021-08-11T10:27:30Z</time>
      </trkpt>
      <trkpt lat="45.10337" lon="2.65322">
        <ele>1622.1</ele>
        <time>2021-08-11T10:27:31Z</time>
      </trkpt>
      <trkpt lat="45.10336" lon="2.65323">
        <ele>1622.6</ele>
        <time>2021-08-11T10:27:32Z</time>
      </trkpt>
      <trkpt lat="45.10336" lon="2.65324">
        <ele>1623</ele>
        <time>2021-08-11T10:27:33Z</time>
      </trkpt>
      <trkpt lat="45.10335" lon="2.65325">
        <ele>1623.3</ele>
        <time>2021-08-11T10:27:34Z</time>
      </trkpt>
      <trkpt lat="45.10334" lon="2.65326">
        <ele>1623.8</ele>
        <time>2021-08-11T10:27:35Z</time>
      </trkpt>
      <trkpt lat="45.10333" lon="2.65326">
        <ele>1624</ele>
        <time>2021-08-11T10:27:36Z</time>
      </trkpt>
      <trkpt lat="45.10332" lon="2.65327">
        <ele>1624.3</ele>
        <time>2021-08-11T10:27:37Z</time>
      </trkpt>
      <trkpt lat="45.10331" lon="2.65328">
        <ele>1624.4</ele>
        <time>2021-08-11T10:27:38Z</time>
      </trkpt>
      <trkpt lat="45.1033" lon="2.65328">
        <ele>1624.6</ele>
        <time>2021-08-11T10:27:39Z</time>
      </trkpt>
      <trkpt lat="45.1033" lon="2.65329">
        <ele>1624.8</ele>
        <time>2021-08-11T10:27:40Z</time>
      </trkpt>
      <trkpt lat="45.10329" lon="2.6533">
        <ele>1624.9</ele>
        <time>2021-08-11T10:27:41Z</time>
      </trkpt>
      <trkpt lat="45.10328" lon="2.6533">
        <ele>1625.2</ele>
        <time>2021-08-11T10:27:42Z</time>
      </trkpt>
      <trkpt lat="45.10327" lon="2.65331">
        <ele>1625.4</ele>
        <time>2021-08-11T10:27:43Z</time>
      </trkpt>
      <trkpt lat="45.10326" lon="2.65332">
        <ele>1625.6</ele>
        <time>2021-08-11T10:27:44Z</time>
      </trkpt>
      <trkpt lat="45.10325" lon="2.65333">
        <ele>1625.8</ele>
        <time>2021-08-11T10:27:45Z</time>
      </trkpt>
      <trkpt lat="45.10325" lon="2.65333">
        <ele>1626</ele>
        <time>2021-08-11T10:27:46Z</time>
      </trkpt>
      <trkpt lat="45.10324" lon="2.65334">
        <ele>1626.1</ele>
        <time>2021-08-11T10:27:47Z</time>
      </trkpt>
      <trkpt lat="45.10323" lon="2.65335">
        <ele>1626.2</ele>
        <time>2021-08-11T10:27:48Z</time>
      </trkpt>
      <trkpt lat="45.10323" lon="2.65335">
        <ele>1626.4</ele>
        <time>2021-08-11T10:27:49Z</time>
      </trkpt>
      <trkpt lat="45.10322" lon="2.65336">
        <ele>1626.5</ele>
        <time>2021-08-11T10:27:50Z</time>
      </trkpt>
      <trkpt lat="45.10321" lon="2.65336">
        <ele>1626.6</ele>
        <time>2021-08-11T10:27:51Z</time>
      </trkpt>
      <trkpt lat="45.1032" lon="2.65337">
        <ele>1626.6</ele>
        <time>2021-08-11T10:27:52Z</time>
      </trkpt>
      <trkpt lat="45.10319" lon="2.65337">
        <ele>1626.7</ele>
        <time>2021-08-11T10:27:53Z</time>
      </trkpt>
      <trkpt lat="45.10318" lon="2.65337">
        <ele>1626.7</ele>
        <time>2021-08-11T10:27:54Z</time>
      </trkpt>
      <trkpt lat="45.10317" lon="2.65338">
        <ele>1626.8</ele>
        <time>2021-08-11T10:27:55Z</time>
      </trkpt>
      <trkpt lat="45.10316" lon="2.65339">
        <ele>1626.9</ele>
        <time>2021-08-11T10:27:56Z</time>
      </trkpt>
      <trkpt lat="45.10315" lon="2.65339">
        <ele>1627</ele>
        <time>2021-08-11T10:27:57Z</time>
      </trkpt>
      <trkpt lat="45.10314" lon="2.6534">
        <ele>1627.2</ele>
        <time>2021-08-11T10:27:58Z</time>
      </trkpt>
      <trkpt lat="45.10313" lon="2.65341">
        <ele>1627.3</ele>
        <time>2021-08-11T10:27:59Z</time>
      </trkpt>
      <trkpt lat="45.10312" lon="2.65342">
        <ele>1627.4</ele>
        <time>2021-08-11T10:28:00Z</time>
      </trkpt>
      <trkpt lat="45.10311" lon="2.65342">
        <ele>1627.5</ele>
        <time>2021-08-11T10:28:01Z</time>
      </trkpt>
      <trkpt lat="45.10311" lon="2.65343">
        <ele>1627.7</ele>
        <time>2021-08-11T10:28:02Z</time>
      </trkpt>
      <trkpt lat="45.1031" lon="2.65344">
        <ele>1627.8</ele>
        <time>2021-08-11T10:28:03Z</time>
      </trkpt>
      <trkpt lat="45.10309" lon="2.65345">
        <ele>1627.9</ele>
        <time>2021-08-11T10:28:04Z</time>
      </trkpt>
      <trkpt lat="45.10308" lon="2.65346">
        <ele>1628</ele>
        <time>2021-08-11T10:28:05Z</time>
      </trkpt>
      <trkpt lat="45.10307" lon="2.65346">
        <ele>1628</ele>
        <time>2021-08-11T10:28:06Z</time>
      </trkpt>
      <trkpt lat="45.10306" lon="2.65346">
        <ele>1628.1</ele>
        <time>2021-08-11T10:28:07Z</time>
      </trkpt>
      <trkpt lat="45.10306" lon="2.65347">
        <ele>1628.1</ele>
        <time>2021-08-11T10:28:08Z</time>
      </trkpt>
      <trkpt lat="45.10305" lon="2.65347">
        <ele>1628.1</ele>
        <time>2021-08-11T10:28:09Z</time>
      </trkpt>
      <trkpt lat="45.10304" lon="2.65347">
        <ele>1628.2</ele>
        <time>2021-08-11T10:28:10Z</time>
      </trkpt>
      <trkpt lat="45.10304" lon="2.65348">
        <ele>1628.2</ele>
        <time>2021-08-11T10:28:11Z</time>
      </trkpt>
      <trkpt lat="45.10303" lon="2.65348">
        <ele>1628.3</ele>
        <time>2021-08-11T10:28:12Z</time>
      </trkpt>
      <trkpt lat="45.10302" lon="2.65349">
        <ele>1628.4</ele>
        <time>2021-08-11T10:28:13Z</time>
      </trkpt>
      <trkpt lat="45.10301" lon="2.6535">
        <ele>1628.5</ele>
        <time>2021-08-11T10:28:14Z</time>
      </trkpt>
      <trkpt lat="45.103" lon="2.6535">
        <ele>1628.5</ele>
        <time>2021-08-11T10:28:15Z</time>
      </trkpt>
      <trkpt lat="45.10299" lon="2.6535">
        <ele>1628.6</ele>
        <time>2021-08-11T10:28:16Z</time>
      </trkpt>
      <trkpt lat="45.10299" lon="2.65351">
        <ele>1628.6</ele>
        <time>2021-08-11T10:28:17Z</time>
      </trkpt>
      <trkpt lat="45.10298" lon="2.65351">
        <ele>1628.6</ele>
        <time>2021-08-11T10:28:18Z</time>
      </trkpt>
      <trkpt lat="45.10297" lon="2.65352">
        <ele>1628.6</ele>
        <time>2021-08-11T10:28:19Z</time>
      </trkpt>
      <trkpt lat="45.10296" lon="2.65352">
        <ele>1628.7</ele>
        <time>2021-08-11T10:28:20Z</time>
      </trkpt>
      <trkpt lat="45.10295" lon="2.65353">
        <ele>1628.7</ele>
        <time>2021-08-11T10:28:21Z</time>
      </trkpt>
      <trkpt lat="45.10294" lon="2.65353">
        <ele>1628.7</ele>
        <time>2021-08-11T10:28:22Z</time>
      </trkpt>
      <trkpt lat="45.10293" lon="2.65353">
        <ele>1628.8</ele>
        <time>2021-08-11T10:28:23Z</time>
      </trkpt>
      <trkpt lat="45.10293" lon="2.65354">
        <ele>1628.8</ele>
        <time>2021-08-11T10:28:24Z</time>
      </trkpt>
      <trkpt lat="45.10292" lon="2.65355">
        <ele>1628.9</ele>
        <time>2021-08-11T10:28:25Z</time>
      </trkpt>
      <trkpt lat="45.10292" lon="2.65355">
        <ele>1629</ele>
        <time>2021-08-11T10:28:26Z</time>
      </trkpt>
      <trkpt lat="45.10291" lon="2.65356">
        <ele>1629.1</ele>
        <time>2021-08-11T10:28:27Z</time>
      </trkpt>
      <trkpt lat="45.1029" lon="2.65356">
        <ele>1629.1</ele>
        <time>2021-08-11T10:28:28Z</time>
      </trkpt>
      <trkpt lat="45.1029" lon="2.65357">
        <ele>1629.1</ele>
        <time>2021-08-11T10:28:29Z</time>
      </trkpt>
      <trkpt lat="45.10289" lon="2.65357">
        <ele>1629.2</ele>
        <time>2021-08-11T10:28:30Z</time>
      </trkpt>
      <trkpt lat="45.10288" lon="2.65357">
        <ele>1629.2</ele>
        <time>2021-08-11T10:28:31Z</time>
      </trkpt>
      <trkpt lat="45.10288" lon="2.65358">
        <ele>1629.2</ele>
        <time>2021-08-11T10:28:32Z</time>
      </trkpt>
      <trkpt lat="45.10287" lon="2.65359">
        <ele>1629.3</ele>
        <time>2021-08-11T10:28:33Z</time>
      </trkpt>
      <trkpt lat="45.10287" lon="2.65359">
        <ele>1629.3</ele>
        <time>2021-08-11T10:28:34Z</time>
      </trkpt>
      <trkpt lat="45.10286" lon="2.65359">
        <ele>1629.3</ele>
        <time>2021-08-11T10:28:35Z</time>
      </trkpt>
      <trkpt lat="45.10285" lon="2.65359">
        <ele>1629.3</ele>
        <time>2021-08-11T10:28:36Z</time>
      </trkpt>
      <trkpt lat="45.10285" lon="2.65359">
        <ele>1629.3</ele>
        <time>2021-08-11T10:28:37Z</time>
      </trkpt>
      <trkpt lat="45.10284" lon="2.6536">
        <ele>1629.3</ele>
        <time>2021-08-11T10:28:38Z</time>
      </trkpt>
      <trkpt lat="45.10284" lon="2.6536">
        <ele>1629.3</ele>
        <time>2021-08-11T10:28:39Z</time>
      </trkpt>
      <trkpt lat="45.10283" lon="2.6536">
        <ele>1629.3</ele>
        <time>2021-08-11T10:28:40Z</time>
      </trkpt>
      <trkpt lat="45.10283" lon="2.6536">
        <ele>1629.3</ele>
        <time>2021-08-11T10:28:41Z</time>
      </trkpt>
      <trkpt lat="45.10282" lon="2.65361">
        <ele>1629.4</ele>
        <time>2021-08-11T10:28:42Z</time>
      </trkpt>
      <trkpt lat="45.10282" lon="2.65361">
        <ele>1629.4</ele>
        <time>2021-08-11T10:28:43Z</time>
      </trkpt>
      <trkpt lat="45.10281" lon="2.65361">
        <ele>1629.4</ele>
        <time>2021-08-11T10:28:44Z</time>
      </trkpt>
      <trkpt lat="45.1028" lon="2.65362">
        <ele>1629.4</ele>
        <time>2021-08-11T10:28:45Z</time>
      </trkpt>
      <trkpt lat="45.10279" lon="2.65362">
        <ele>1629.4</ele>
        <time>2021-08-11T10:28:46Z</time>
      </trkpt>
      <trkpt lat="45.10278" lon="2.65363">
        <ele>1629.4</ele>
        <time>2021-08-11T10:28:47Z</time>
      </trkpt>
      <trkpt lat="45.10278" lon="2.65363">
        <ele>1629.4</ele>
        <time>2021-08-11T10:28:48Z</time>
      </trkpt>
      <trkpt lat="45.10277" lon="2.65363">
        <ele>1629.4</ele>
        <time>2021-08-11T10:28:49Z</time>
      </trkpt>
      <trkpt lat="45.10276" lon="2.65363">
        <ele>1629.4</ele>
        <time>2021-08-11T10:28:50Z</time>
      </trkpt>
      <trkpt lat="45.10276" lon="2.65364">
        <ele>1629.4</ele>
        <time>2021-08-11T10:28:51Z</time>
      </trkpt>
      <trkpt lat="45.10275" lon="2.65364">
        <ele>1629.4</ele>
        <time>2021-08-11T10:28:52Z</time>
      </trkpt>
      <trkpt lat="45.10274" lon="2.65365">
        <ele>1629.4</ele>
        <time>2021-08-11T10:28:53Z</time>
      </trkpt>
      <trkpt lat="45.10273" lon="2.65365">
        <ele>1629.5</ele>
        <time>2021-08-11T10:28:54Z</time>
      </trkpt>
      <trkpt lat="45.10273" lon="2.65366">
        <ele>1629.5</ele>
        <time>2021-08-11T10:28:55Z</time>
      </trkpt>
      <trkpt lat="45.10272" lon="2.65366">
        <ele>1629.4</ele>
        <time>2021-08-11T10:28:56Z</time>
      </trkpt>
      <trkpt lat="45.10271" lon="2.65366">
        <ele>1629.4</ele>
        <time>2021-08-11T10:28:57Z</time>
      </trkpt>
      <trkpt lat="45.10271" lon="2.65367">
        <ele>1629.5</ele>
        <time>2021-08-11T10:28:58Z</time>
      </trkpt>
      <trkpt lat="45.1027" lon="2.65367">
        <ele>1629.5</ele>
        <time>2021-08-11T10:28:59Z</time>
      </trkpt>
      <trkpt lat="45.10269" lon="2.65368">
        <ele>1629.5</ele>
        <time>2021-08-11T10:29:00Z</time>
      </trkpt>
      <trkpt lat="45.10268" lon="2.65368">
        <ele>1629.5</ele>
        <time>2021-08-11T10:29:01Z</time>
      </trkpt>
      <trkpt lat="45.10267" lon="2.65369">
        <ele>1629.5</ele>
        <time>2021-08-11T10:29:02Z</time>
      </trkpt>
      <trkpt lat="45.10267" lon="2.65369">
        <ele>1629.5</ele>
        <time>2021-08-11T10:29:03Z</time>
      </trkpt>
      <trkpt lat="45.10266" lon="2.6537">
        <ele>1629.5</ele>
        <time>2021-08-11T10:29:04Z</time>
      </trkpt>
      <trkpt lat="45.10265" lon="2.6537">
        <ele>1629.6</ele>
        <time>2021-08-11T10:29:05Z</time>
      </trkpt>
      <trkpt lat="45.10265" lon="2.65371">
        <ele>1629.6</ele>
        <time>2021-08-11T10:29:06Z</time>
      </trkpt>
      <trkpt lat="45.10264" lon="2.65372">
        <ele>1629.7</ele>
        <time>2021-08-11T10:29:07Z</time>
      </trkpt>
      <trkpt lat="45.10264" lon="2.65373">
        <ele>1629.7</ele>
        <time>2021-08-11T10:29:08Z</time>
      </trkpt>
      <trkpt lat="45.10263" lon="2.65374">
        <ele>1629.8</ele>
        <time>2021-08-11T10:29:09Z</time>
      </trkpt>
      <trkpt lat="45.10263" lon="2.65374">
        <ele>1629.8</ele>
        <time>2021-08-11T10:29:10Z</time>
      </trkpt>
      <trkpt lat="45.10263" lon="2.65375">
        <ele>1629.8</ele>
        <time>2021-08-11T10:29:11Z</time>
      </trkpt>
      <trkpt lat="45.10262" lon="2.65375">
        <ele>1629.8</ele>
        <time>2021-08-11T10:29:12Z</time>
      </trkpt>
      <trkpt lat="45.10261" lon="2.65376">
        <ele>1629.8</ele>
        <time>2021-08-11T10:29:13Z</time>
      </trkpt>
      <trkpt lat="45.10261" lon="2.65376">
        <ele>1629.8</ele>
        <time>2021-08-11T10:29:14Z</time>
      </trkpt>
      <trkpt lat="45.1026" lon="2.65377">
        <ele>1629.8</ele>
        <time>2021-08-11T10:29:15Z</time>
      </trkpt>
      <trkpt lat="45.10259" lon="2.65377">
        <ele>1629.8</ele>
        <time>2021-08-11T10:29:16Z</time>
      </trkpt>
      <trkpt lat="45.10258" lon="2.65378">
        <ele>1629.8</ele>
        <time>2021-08-11T10:29:17Z</time>
      </trkpt>
      <trkpt lat="45.10257" lon="2.65378">
        <ele>1629.8</ele>
        <time>2021-08-11T10:29:18Z</time>
      </trkpt>
      <trkpt lat="45.10257" lon="2.65379">
        <ele>1629.7</ele>
        <time>2021-08-11T10:29:19Z</time>
      </trkpt>
      <trkpt lat="45.10256" lon="2.65379">
        <ele>1629.7</ele>
        <time>2021-08-11T10:29:20Z</time>
      </trkpt>
      <trkpt lat="45.10255" lon="2.65379">
        <ele>1629.7</ele>
        <time>2021-08-11T10:29:21Z</time>
      </trkpt>
      <trkpt lat="45.10254" lon="2.6538">
        <ele>1629.6</ele>
        <time>2021-08-11T10:29:22Z</time>
      </trkpt>
      <trkpt lat="45.10253" lon="2.6538">
        <ele>1629.6</ele>
        <time>2021-08-11T10:29:23Z</time>
      </trkpt>
      <trkpt lat="45.10252" lon="2.6538">
        <ele>1629.5</ele>
        <time>2021-08-11T10:29:24Z</time>
      </trkpt>
      <trkpt lat="45.10251" lon="2.65381">
        <ele>1629.5</ele>
        <time>2021-08-11T10:29:25Z</time>
      </trkpt>
      <trkpt lat="45.10251" lon="2.65382">
        <ele>1629.5</ele>
        <time>2021-08-11T10:29:26Z</time>
      </trkpt>
      <trkpt lat="45.1025" lon="2.65382">
        <ele>1629.6</ele>
        <time>2021-08-11T10:29:27Z</time>
      </trkpt>
      <trkpt lat="45.10249" lon="2.65383">
        <ele>1629.7</ele>
        <time>2021-08-11T10:29:28Z</time>
      </trkpt>
      <trkpt lat="45.10248" lon="2.65384">
        <ele>1629.8</ele>
        <time>2021-08-11T10:29:29Z</time>
      </trkpt>
      <trkpt lat="45.10248" lon="2.65385">
        <ele>1629.9</ele>
        <time>2021-08-11T10:29:30Z</time>
      </trkpt>
      <trkpt lat="45.10247" lon="2.65385">
        <ele>1629.9</ele>
        <time>2021-08-11T10:29:31Z</time>
      </trkpt>
      <trkpt lat="45.10246" lon="2.65386">
        <ele>1630</ele>
        <time>2021-08-11T10:29:32Z</time>
      </trkpt>
      <trkpt lat="45.10246" lon="2.65386">
        <ele>1630.1</ele>
        <time>2021-08-11T10:29:33Z</time>
      </trkpt>
      <trkpt lat="45.10245" lon="2.65385">
        <ele>1630.1</ele>
        <time>2021-08-11T10:29:34Z</time>
      </trkpt>
      <trkpt lat="45.10244" lon="2.65385">
        <ele>1630.1</ele>
        <time>2021-08-11T10:29:35Z</time>
      </trkpt>
      <trkpt lat="45.10244" lon="2.65386">
        <ele>1630.2</ele>
        <time>2021-08-11T10:29:36Z</time>
      </trkpt>
      <trkpt lat="45.10243" lon="2.65386">
        <ele>1630.2</ele>
        <time>2021-08-11T10:29:37Z</time>
      </trkpt>
      <trkpt lat="45.10243" lon="2.65386">
        <ele>1630.3</ele>
        <time>2021-08-11T10:29:38Z</time>
      </trkpt>
      <trkpt lat="45.10243" lon="2.65386">
        <ele>1630.3</ele>
        <time>2021-08-11T10:29:39Z</time>
      </trkpt>
      <trkpt lat="45.10231" lon="2.6542">
        <ele>1630.9</ele>
        <time>2021-08-11T10:29:40Z</time>
      </trkpt>
      <trkpt lat="45.1023" lon="2.65421">
        <ele>1630.8</ele>
        <time>2021-08-11T10:29:41Z</time>
      </trkpt>
      <trkpt lat="45.1023" lon="2.65421">
        <ele>1630.6</ele>
        <time>2021-08-11T10:29:42Z</time>
      </trkpt>
      <trkpt lat="45.10229" lon="2.65422">
        <ele>1630.5</ele>
        <time>2021-08-11T10:29:43Z</time>
      </trkpt>
      <trkpt lat="45.10229" lon="2.65422">
        <ele>1630.3</ele>
        <time>2021-08-11T10:29:44Z</time>
      </trkpt>
      <trkpt lat="45.10229" lon="2.65423">
        <ele>1630.1</ele>
        <time>2021-08-11T10:29:45Z</time>
      </trkpt>
      <trkpt lat="45.10229" lon="2.65423">
        <ele>1629.9</ele>
        <time>2021-08-11T10:29:46Z</time>
      </trkpt>
      <trkpt lat="45.10229" lon="2.65424">
        <ele>1629.7</ele>
        <time>2021-08-11T10:29:47Z</time>
      </trkpt>
      <trkpt lat="45.10229" lon="2.65424">
        <ele>1629.6</ele>
        <time>2021-08-11T10:29:48Z</time>
      </trkpt>
      <trkpt lat="45.10228" lon="2.65425">
        <ele>1629.5</ele>
        <time>2021-08-11T10:29:49Z</time>
      </trkpt>
      <trkpt lat="45.10228" lon="2.65425">
        <ele>1629.3</ele>
        <time>2021-08-11T10:29:50Z</time>
      </trkpt>
      <trkpt lat="45.10227" lon="2.65425">
        <ele>1629.2</ele>
        <time>2021-08-11T10:29:51Z</time>
      </trkpt>
      <trkpt lat="45.10227" lon="2.65426">
        <ele>1629</ele>
        <time>2021-08-11T10:29:52Z</time>
      </trkpt>
      <trkpt lat="45.10227" lon="2.65427">
        <ele>1628.8</ele>
        <time>2021-08-11T10:29:53Z</time>
      </trkpt>
      <trkpt lat="45.10226" lon="2.65428">
        <ele>1628.5</ele>
        <time>2021-08-11T10:29:54Z</time>
      </trkpt>
      <trkpt lat="45.10226" lon="2.65429">
        <ele>1628.2</ele>
        <time>2021-08-11T10:29:55Z</time>
      </trkpt>
      <trkpt lat="45.10226" lon="2.6543">
        <ele>1627.9</ele>
        <time>2021-08-11T10:29:56Z</time>
      </trkpt>
      <trkpt lat="45.10226" lon="2.6543">
        <ele>1627.7</ele>
        <time>2021-08-11T10:29:57Z</time>
      </trkpt>
      <trkpt lat="45.10226" lon="2.65431">
        <ele>1627.6</ele>
        <time>2021-08-11T10:29:58Z</time>
      </trkpt>
      <trkpt lat="45.10225" lon="2.65431">
        <ele>1627.5</ele>
        <time>2021-08-11T10:29:59Z</time>
      </trkpt>
      <trkpt lat="45.10225" lon="2.65431">
        <ele>1627.4</ele>
        <time>2021-08-11T10:30:00Z</time>
      </trkpt>
      <trkpt lat="45.10226" lon="2.65432">
        <ele>1627.3</ele>
        <time>2021-08-11T10:30:01Z</time>
      </trkpt>
      <trkpt lat="45.10226" lon="2.65432">
        <ele>1627</ele>
        <time>2021-08-11T10:30:02Z</time>
      </trkpt>
      <trkpt lat="45.10226" lon="2.65433">
        <ele>1626.8</ele>
        <time>2021-08-11T10:30:03Z</time>
      </trkpt>
      <trkpt lat="45.10226" lon="2.65434">
        <ele>1626.6</ele>
        <time>2021-08-11T10:30:04Z</time>
      </trkpt>
      <trkpt lat="45.10225" lon="2.65434">
        <ele>1626.5</ele>
        <time>2021-08-11T10:30:05Z</time>
      </trkpt>
      <trkpt lat="45.10225" lon="2.65434">
        <ele>1626.3</ele>
        <time>2021-08-11T10:30:06Z</time>
      </trkpt>
      <trkpt lat="45.10225" lon="2.65435">
        <ele>1626.1</ele>
        <time>2021-08-11T10:30:07Z</time>
      </trkpt>
      <trkpt lat="45.10224" lon="2.65436">
        <ele>1625.9</ele>
        <time>2021-08-11T10:30:08Z</time>
      </trkpt>
      <trkpt lat="45.10224" lon="2.65436">
        <ele>1625.7</ele>
        <time>2021-08-11T10:30:09Z</time>
      </trkpt>
      <trkpt lat="45.10224" lon="2.65437">
        <ele>1625.4</ele>
        <time>2021-08-11T10:30:10Z</time>
      </trkpt>
      <trkpt lat="45.10223" lon="2.65438">
        <ele>1625.1</ele>
        <time>2021-08-11T10:30:11Z</time>
      </trkpt>
      <trkpt lat="45.10224" lon="2.65439">
        <ele>1624.9</ele>
        <time>2021-08-11T10:30:12Z</time>
      </trkpt>
      <trkpt lat="45.10224" lon="2.6544">
        <ele>1624.5</ele>
        <time>2021-08-11T10:30:13Z</time>
      </trkpt>
      <trkpt lat="45.10224" lon="2.6544">
        <ele>1624.4</ele>
        <time>2021-08-11T10:30:14Z</time>
      </trkpt>
      <trkpt lat="45.10224" lon="2.65441">
        <ele>1624.3</ele>
        <time>2021-08-11T10:30:15Z</time>
      </trkpt>
      <trkpt lat="45.10225" lon="2.65441">
        <ele>1624.2</ele>
        <time>2021-08-11T10:30:16Z</time>
      </trkpt>
      <trkpt lat="45.10225" lon="2.65441">
        <ele>1624.1</ele>
        <time>2021-08-11T10:30:17Z</time>
      </trkpt>
      <trkpt lat="45.10226" lon="2.65442">
        <ele>1624</ele>
        <time>2021-08-11T10:30:18Z</time>
      </trkpt>
      <trkpt lat="45.10226" lon="2.65442">
        <ele>1623.9</ele>
        <time>2021-08-11T10:30:19Z</time>
      </trkpt>
      <trkpt lat="45.10227" lon="2.65443">
        <ele>1623.8</ele>
        <time>2021-08-11T10:30:20Z</time>
      </trkpt>
      <trkpt lat="45.10227" lon="2.65443">
        <ele>1623.6</ele>
        <time>2021-08-11T10:30:21Z</time>
      </trkpt>
      <trkpt lat="45.10228" lon="2.65443">
        <ele>1623.6</ele>
        <time>2021-08-11T10:30:22Z</time>
      </trkpt>
      <trkpt lat="45.10228" lon="2.65444">
        <ele>1623.4</ele>
        <time>2021-08-11T10:30:23Z</time>
      </trkpt>
      <trkpt lat="45.10229" lon="2.65444">
        <ele>1623.3</ele>
        <time>2021-08-11T10:30:24Z</time>
      </trkpt>
      <trkpt lat="45.10229" lon="2.65445">
        <ele>1623.1</ele>
        <time>2021-08-11T10:30:25Z</time>
      </trkpt>
      <trkpt lat="45.1023" lon="2.65446">
        <ele>1622.9</ele>
        <time>2021-08-11T10:30:26Z</time>
      </trkpt>
      <trkpt lat="45.1023" lon="2.65446">
        <ele>1622.9</ele>
        <time>2021-08-11T10:30:27Z</time>
      </trkpt>
      <trkpt lat="45.1023" lon="2.65446">
        <ele>1622.8</ele>
        <time>2021-08-11T10:30:28Z</time>
      </trkpt>
      <trkpt lat="45.10231" lon="2.65447">
        <ele>1622.7</ele>
        <time>2021-08-11T10:30:29Z</time>
      </trkpt>
      <trkpt lat="45.10231" lon="2.65447">
        <ele>1622.6</ele>
        <time>2021-08-11T10:30:30Z</time>
      </trkpt>
      <trkpt lat="45.10232" lon="2.65447">
        <ele>1622.5</ele>
        <time>2021-08-11T10:30:31Z</time>
      </trkpt>
      <trkpt lat="45.10232" lon="2.65447">
        <ele>1622.5</ele>
        <time>2021-08-11T10:30:32Z</time>
      </trkpt>
      <trkpt lat="45.10233" lon="2.65447">
        <ele>1622.5</ele>
        <time>2021-08-11T10:30:33Z</time>
      </trkpt>
      <trkpt lat="45.10233" lon="2.65448">
        <ele>1622.4</ele>
        <time>2021-08-11T10:30:34Z</time>
      </trkpt>
      <trkpt lat="45.10234" lon="2.65448">
        <ele>1622.4</ele>
        <time>2021-08-11T10:30:35Z</time>
      </trkpt>
      <trkpt lat="45.10234" lon="2.65448">
        <ele>1622.4</ele>
        <time>2021-08-11T10:30:36Z</time>
      </trkpt>
      <trkpt lat="45.10235" lon="2.65448">
        <ele>1622.4</ele>
        <time>2021-08-11T10:30:37Z</time>
      </trkpt>
      <trkpt lat="45.10236" lon="2.65448">
        <ele>1622.4</ele>
        <time>2021-08-11T10:30:38Z</time>
      </trkpt>
      <trkpt lat="45.10236" lon="2.65448">
        <ele>1622.6</ele>
        <time>2021-08-11T10:30:39Z</time>
      </trkpt>
      <trkpt lat="45.10237" lon="2.65447">
        <ele>1622.6</ele>
        <time>2021-08-11T10:30:40Z</time>
      </trkpt>
      <trkpt lat="45.10238" lon="2.65447">
        <ele>1622.7</ele>
        <time>2021-08-11T10:30:41Z</time>
      </trkpt>
      <trkpt lat="45.10238" lon="2.65447">
        <ele>1622.7</ele>
        <time>2021-08-11T10:30:42Z</time>
      </trkpt>
      <trkpt lat="45.10239" lon="2.65447">
        <ele>1622.7</ele>
        <time>2021-08-11T10:30:43Z</time>
      </trkpt>
      <trkpt lat="45.1024" lon="2.65447">
        <ele>1622.8</ele>
        <time>2021-08-11T10:30:44Z</time>
      </trkpt>
      <trkpt lat="45.1024" lon="2.65448">
        <ele>1622.7</ele>
        <time>2021-08-11T10:30:45Z</time>
      </trkpt>
      <trkpt lat="45.10241" lon="2.65448">
        <ele>1622.6</ele>
        <time>2021-08-11T10:30:46Z</time>
      </trkpt>
      <trkpt lat="45.10241" lon="2.65448">
        <ele>1622.6</ele>
        <time>2021-08-11T10:30:47Z</time>
      </trkpt>
      <trkpt lat="45.10242" lon="2.65448">
        <ele>1622.5</ele>
        <time>2021-08-11T10:30:48Z</time>
      </trkpt>
      <trkpt lat="45.10242" lon="2.65449">
        <ele>1622.5</ele>
        <time>2021-08-11T10:30:49Z</time>
      </trkpt>
      <trkpt lat="45.10243" lon="2.65449">
        <ele>1622.4</ele>
        <time>2021-08-11T10:30:50Z</time>
      </trkpt>
      <trkpt lat="45.10244" lon="2.6545">
        <ele>1622.3</ele>
        <time>2021-08-11T10:30:51Z</time>
      </trkpt>
      <trkpt lat="45.10244" lon="2.6545">
        <ele>1622.2</ele>
        <time>2021-08-11T10:30:52Z</time>
      </trkpt>
      <trkpt lat="45.10245" lon="2.65451">
        <ele>1622</ele>
        <time>2021-08-11T10:30:53Z</time>
      </trkpt>
      <trkpt lat="45.10245" lon="2.65452">
        <ele>1621.7</ele>
        <time>2021-08-11T10:30:54Z</time>
      </trkpt>
      <trkpt lat="45.10246" lon="2.65452">
        <ele>1621.5</ele>
        <time>2021-08-11T10:30:55Z</time>
      </trkpt>
      <trkpt lat="45.10246" lon="2.65453">
        <ele>1621.3</ele>
        <time>2021-08-11T10:30:56Z</time>
      </trkpt>
      <trkpt lat="45.10247" lon="2.65454">
        <ele>1621.2</ele>
        <time>2021-08-11T10:30:57Z</time>
      </trkpt>
      <trkpt lat="45.10247" lon="2.65454">
        <ele>1621.2</ele>
        <time>2021-08-11T10:30:58Z</time>
      </trkpt>
      <trkpt lat="45.10247" lon="2.65454">
        <ele>1621.1</ele>
        <time>2021-08-11T10:30:59Z</time>
      </trkpt>
      <trkpt lat="45.10248" lon="2.65454">
        <ele>1621</ele>
        <time>2021-08-11T10:31:00Z</time>
      </trkpt>
      <trkpt lat="45.10248" lon="2.65455">
        <ele>1621</ele>
        <time>2021-08-11T10:31:01Z</time>
      </trkpt>
      <trkpt lat="45.10249" lon="2.65455">
        <ele>1621.1</ele>
        <time>2021-08-11T10:31:02Z</time>
      </trkpt>
      <trkpt lat="45.1025" lon="2.65454">
        <ele>1621.1</ele>
        <time>2021-08-11T10:31:03Z</time>
      </trkpt>
      <trkpt lat="45.1025" lon="2.65454">
        <ele>1621.2</ele>
        <time>2021-08-11T10:31:04Z</time>
      </trkpt>
      <trkpt lat="45.10251" lon="2.65455">
        <ele>1621.4</ele>
        <time>2021-08-11T10:31:05Z</time>
      </trkpt>
      <trkpt lat="45.10252" lon="2.65455">
        <ele>1621.5</ele>
        <time>2021-08-11T10:31:06Z</time>
      </trkpt>
      <trkpt lat="45.10253" lon="2.65456">
        <ele>1621.5</ele>
        <time>2021-08-11T10:31:07Z</time>
      </trkpt>
      <trkpt lat="45.10253" lon="2.65456">
        <ele>1621.4</ele>
        <time>2021-08-11T10:31:08Z</time>
      </trkpt>
      <trkpt lat="45.10253" lon="2.65457">
        <ele>1621.4</ele>
        <time>2021-08-11T10:31:09Z</time>
      </trkpt>
      <trkpt lat="45.10253" lon="2.65457">
        <ele>1621.3</ele>
        <time>2021-08-11T10:31:10Z</time>
      </trkpt>
      <trkpt lat="45.10254" lon="2.65458">
        <ele>1621.2</ele>
        <time>2021-08-11T10:31:11Z</time>
      </trkpt>
      <trkpt lat="45.10254" lon="2.65458">
        <ele>1621.2</ele>
        <time>2021-08-11T10:31:12Z</time>
      </trkpt>
      <trkpt lat="45.10255" lon="2.65459">
        <ele>1621.1</ele>
        <time>2021-08-11T10:31:13Z</time>
      </trkpt>
      <trkpt lat="45.10255" lon="2.6546">
        <ele>1621.1</ele>
        <time>2021-08-11T10:31:14Z</time>
      </trkpt>
      <trkpt lat="45.10255" lon="2.65461">
        <ele>1620.8</ele>
        <time>2021-08-11T10:31:15Z</time>
      </trkpt>
      <trkpt lat="45.10255" lon="2.65461">
        <ele>1620.7</ele>
        <time>2021-08-11T10:31:16Z</time>
      </trkpt>
      <trkpt lat="45.10255" lon="2.65462">
        <ele>1620.3</ele>
        <time>2021-08-11T10:31:17Z</time>
      </trkpt>
      <trkpt lat="45.10255" lon="2.65463">
        <ele>1620.1</ele>
        <time>2021-08-11T10:31:18Z</time>
      </trkpt>
      <trkpt lat="45.10254" lon="2.65464">
        <ele>1619.7</ele>
        <time>2021-08-11T10:31:19Z</time>
      </trkpt>
      <trkpt lat="45.10254" lon="2.65464">
        <ele>1619.6</ele>
        <time>2021-08-11T10:31:20Z</time>
      </trkpt>
      <trkpt lat="45.10254" lon="2.65464">
        <ele>1619.4</ele>
        <time>2021-08-11T10:31:21Z</time>
      </trkpt>
      <trkpt lat="45.10253" lon="2.65465">
        <ele>1619.2</ele>
        <time>2021-08-11T10:31:22Z</time>
      </trkpt>
      <trkpt lat="45.10253" lon="2.65465">
        <ele>1618.9</ele>
        <time>2021-08-11T10:31:23Z</time>
      </trkpt>
      <trkpt lat="45.10253" lon="2.65465">
        <ele>1619</ele>
        <time>2021-08-11T10:31:24Z</time>
      </trkpt>
      <trkpt lat="45.10252" lon="2.65465">
        <ele>1618.9</ele>
        <time>2021-08-11T10:31:25Z</time>
      </trkpt>
      <trkpt lat="45.10252" lon="2.65464">
        <ele>1618.9</ele>
        <time>2021-08-11T10:31:26Z</time>
      </trkpt>
      <trkpt lat="45.10251" lon="2.65464">
        <ele>1618.7</ele>
        <time>2021-08-11T10:31:27Z</time>
      </trkpt>
      <trkpt lat="45.10251" lon="2.65464">
        <ele>1618.6</ele>
        <time>2021-08-11T10:31:28Z</time>
      </trkpt>
      <trkpt lat="45.10251" lon="2.65464">
        <ele>1618.7</ele>
        <time>2021-08-11T10:31:29Z</time>
      </trkpt>
      <trkpt lat="45.10251" lon="2.65464">
        <ele>1618.7</ele>
        <time>2021-08-11T10:31:30Z</time>
      </trkpt>
      <trkpt lat="45.10251" lon="2.65464">
        <ele>1618.5</ele>
        <time>2021-08-11T10:31:31Z</time>
      </trkpt>
      <trkpt lat="45.1025" lon="2.65465">
        <ele>1618.3</ele>
        <time>2021-08-11T10:31:32Z</time>
      </trkpt>
      <trkpt lat="45.1025" lon="2.65465">
        <ele>1618.2</ele>
        <time>2021-08-11T10:31:33Z</time>
      </trkpt>
      <trkpt lat="45.1025" lon="2.65465">
        <ele>1618.1</ele>
        <time>2021-08-11T10:31:34Z</time>
      </trkpt>
      <trkpt lat="45.1025" lon="2.65466">
        <ele>1618</ele>
        <time>2021-08-11T10:31:35Z</time>
      </trkpt>
      <trkpt lat="45.1025" lon="2.65466">
        <ele>1617.8</ele>
        <time>2021-08-11T10:31:36Z</time>
      </trkpt>
      <trkpt lat="45.1025" lon="2.65467">
        <ele>1617.6</ele>
        <time>2021-08-11T10:31:37Z</time>
      </trkpt>
      <trkpt lat="45.1025" lon="2.65467">
        <ele>1617.6</ele>
        <time>2021-08-11T10:31:38Z</time>
      </trkpt>
      <trkpt lat="45.1025" lon="2.65467">
        <ele>1617.4</ele>
        <time>2021-08-11T10:31:39Z</time>
      </trkpt>
      <trkpt lat="45.1025" lon="2.65468">
        <ele>1617.3</ele>
        <time>2021-08-11T10:31:40Z</time>
      </trkpt>
      <trkpt lat="45.1025" lon="2.65468">
        <ele>1617.3</ele>
        <time>2021-08-11T10:31:41Z</time>
      </trkpt>
      <trkpt lat="45.1025" lon="2.65468">
        <ele>1617.3</ele>
        <time>2021-08-11T10:31:42Z</time>
      </trkpt>
      <trkpt lat="45.1025" lon="2.65468">
        <ele>1617.2</ele>
        <time>2021-08-11T10:31:43Z</time>
      </trkpt>
      <trkpt lat="45.1025" lon="2.65468">
        <ele>1617.1</ele>
        <time>2021-08-11T10:31:44Z</time>
      </trkpt>
      <trkpt lat="45.1025" lon="2.65469">
        <ele>1617</ele>
        <time>2021-08-11T10:31:45Z</time>
      </trkpt>
      <trkpt lat="45.1025" lon="2.65469">
        <ele>1617</ele>
        <time>2021-08-11T10:31:46Z</time>
      </trkpt>
      <trkpt lat="45.1025" lon="2.65469">
        <ele>1617</ele>
        <time>2021-08-11T10:31:47Z</time>
      </trkpt>
      <trkpt lat="45.1025" lon="2.65469">
        <ele>1617</ele>
        <time>2021-08-11T10:31:48Z</time>
      </trkpt>
      <trkpt lat="45.1025" lon="2.65469">
        <ele>1617</ele>
        <time>2021-08-11T10:31:49Z</time>
      </trkpt>
      <trkpt lat="45.1025" lon="2.65469">
        <ele>1616.8</ele>
        <time>2021-08-11T10:31:50Z</time>
      </trkpt>
      <trkpt lat="45.10249" lon="2.65469">
        <ele>1616.8</ele>
        <time>2021-08-11T10:31:51Z</time>
      </trkpt>
      <trkpt lat="45.10249" lon="2.65469">
        <ele>1616.8</ele>
        <time>2021-08-11T10:31:52Z</time>
      </trkpt>
      <trkpt lat="45.10249" lon="2.65469">
        <ele>1616.7</ele>
        <time>2021-08-11T10:31:53Z</time>
      </trkpt>
      <trkpt lat="45.10249" lon="2.65469">
        <ele>1616.7</ele>
        <time>2021-08-11T10:31:54Z</time>
      </trkpt>
      <trkpt lat="45.10249" lon="2.6547">
        <ele>1616.7</ele>
        <time>2021-08-11T10:31:55Z</time>
      </trkpt>
      <trkpt lat="45.10249" lon="2.6547">
        <ele>1616.7</ele>
        <time>2021-08-11T10:31:56Z</time>
      </trkpt>
      <trkpt lat="45.10249" lon="2.6547">
        <ele>1616.6</ele>
        <time>2021-08-11T10:31:57Z</time>
      </trkpt>
      <trkpt lat="45.10249" lon="2.6547">
        <ele>1616.5</ele>
        <time>2021-08-11T10:31:58Z</time>
      </trkpt>
      <trkpt lat="45.10249" lon="2.6547">
        <ele>1616.5</ele>
        <time>2021-08-11T10:31:59Z</time>
      </trkpt>
      <trkpt lat="45.10249" lon="2.65471">
        <ele>1616.4</ele>
        <time>2021-08-11T10:32:00Z</time>
      </trkpt>
      <trkpt lat="45.10249" lon="2.65471">
        <ele>1616.2</ele>
        <time>2021-08-11T10:32:01Z</time>
      </trkpt>
      <trkpt lat="45.10249" lon="2.65472">
        <ele>1616</ele>
        <time>2021-08-11T10:32:02Z</time>
      </trkpt>
      <trkpt lat="45.10249" lon="2.65472">
        <ele>1615.9</ele>
        <time>2021-08-11T10:32:03Z</time>
      </trkpt>
      <trkpt lat="45.1025" lon="2.65473">
        <ele>1615.9</ele>
        <time>2021-08-11T10:32:04Z</time>
      </trkpt>
      <trkpt lat="45.1025" lon="2.65473">
        <ele>1615.8</ele>
        <time>2021-08-11T10:32:05Z</time>
      </trkpt>
      <trkpt lat="45.1025" lon="2.65473">
        <ele>1615.9</ele>
        <time>2021-08-11T10:32:06Z</time>
      </trkpt>
      <trkpt lat="45.1025" lon="2.65472">
        <ele>1616</ele>
        <time>2021-08-11T10:32:07Z</time>
      </trkpt>
      <trkpt lat="45.1025" lon="2.65472">
        <ele>1616</ele>
        <time>2021-08-11T10:32:08Z</time>
      </trkpt>
      <trkpt lat="45.1025" lon="2.65472">
        <ele>1616.1</ele>
        <time>2021-08-11T10:32:09Z</time>
      </trkpt>
      <trkpt lat="45.1025" lon="2.65472">
        <ele>1616.1</ele>
        <time>2021-08-11T10:32:10Z</time>
      </trkpt>
      <trkpt lat="45.1025" lon="2.65472">
        <ele>1616.2</ele>
        <time>2021-08-11T10:32:11Z</time>
      </trkpt>
      <trkpt lat="45.1025" lon="2.65471">
        <ele>1616.3</ele>
        <time>2021-08-11T10:32:12Z</time>
      </trkpt>
      <trkpt lat="45.1025" lon="2.65471">
        <ele>1616.3</ele>
        <time>2021-08-11T10:32:13Z</time>
      </trkpt>
      <trkpt lat="45.1025" lon="2.65471">
        <ele>1616.4</ele>
        <time>2021-08-11T10:32:14Z</time>
      </trkpt>
      <trkpt lat="45.1025" lon="2.65471">
        <ele>1616.5</ele>
        <time>2021-08-11T10:32:15Z</time>
      </trkpt>
      <trkpt lat="45.1025" lon="2.65471">
        <ele>1616.5</ele>
        <time>2021-08-11T10:32:16Z</time>
      </trkpt>
      <trkpt lat="45.1025" lon="2.65471">
        <ele>1616.6</ele>
        <time>2021-08-11T10:32:17Z</time>
      </trkpt>
      <trkpt lat="45.10251" lon="2.65471">
        <ele>1616.6</ele>
        <time>2021-08-11T10:32:18Z</time>
      </trkpt>
      <trkpt lat="45.10251" lon="2.65471">
        <ele>1616.5</ele>
        <time>2021-08-11T10:32:19Z</time>
      </trkpt>
      <trkpt lat="45.10251" lon="2.65472">
        <ele>1616.4</ele>
        <time>2021-08-11T10:32:20Z</time>
      </trkpt>
      <trkpt lat="45.10251" lon="2.65472">
        <ele>1616.4</ele>
        <time>2021-08-11T10:32:21Z</time>
      </trkpt>
      <trkpt lat="45.10252" lon="2.65473">
        <ele>1616.4</ele>
        <time>2021-08-11T10:32:22Z</time>
      </trkpt>
      <trkpt lat="45.10252" lon="2.65473">
        <ele>1616.3</ele>
        <time>2021-08-11T10:32:23Z</time>
      </trkpt>
      <trkpt lat="45.10252" lon="2.65473">
        <ele>1616.2</ele>
        <time>2021-08-11T10:32:24Z</time>
      </trkpt>
      <trkpt lat="45.10252" lon="2.65473">
        <ele>1616.3</ele>
        <time>2021-08-11T10:32:25Z</time>
      </trkpt>
      <trkpt lat="45.10252" lon="2.65473">
        <ele>1616.3</ele>
        <time>2021-08-11T10:32:26Z</time>
      </trkpt>
      <trkpt lat="45.10252" lon="2.65473">
        <ele>1616.4</ele>
        <time>2021-08-11T10:32:27Z</time>
      </trkpt>
      <trkpt lat="45.10253" lon="2.65474">
        <ele>1616.4</ele>
        <time>2021-08-11T10:32:28Z</time>
      </trkpt>
      <trkpt lat="45.10253" lon="2.65474">
        <ele>1616.4</ele>
        <time>2021-08-11T10:32:29Z</time>
      </trkpt>
      <trkpt lat="45.10254" lon="2.65475">
        <ele>1616.5</ele>
        <time>2021-08-11T10:32:30Z</time>
      </trkpt>
      <trkpt lat="45.10254" lon="2.65475">
        <ele>1616.4</ele>
        <time>2021-08-11T10:32:31Z</time>
      </trkpt>
      <trkpt lat="45.10254" lon="2.65476">
        <ele>1616.3</ele>
        <time>2021-08-11T10:32:32Z</time>
      </trkpt>
      <trkpt lat="45.10255" lon="2.65476">
        <ele>1616.3</ele>
        <time>2021-08-11T10:32:33Z</time>
      </trkpt>
      <trkpt lat="45.10255" lon="2.65477">
        <ele>1616.2</ele>
        <time>2021-08-11T10:32:34Z</time>
      </trkpt>
      <trkpt lat="45.10255" lon="2.65478">
        <ele>1616.1</ele>
        <time>2021-08-11T10:32:35Z</time>
      </trkpt>
      <trkpt lat="45.10255" lon="2.65479">
        <ele>1616</ele>
        <time>2021-08-11T10:32:36Z</time>
      </trkpt>
      <trkpt lat="45.10256" lon="2.65479">
        <ele>1615.9</ele>
        <time>2021-08-11T10:32:37Z</time>
      </trkpt>
      <trkpt lat="45.10256" lon="2.6548">
        <ele>1615.8</ele>
        <time>2021-08-11T10:32:38Z</time>
      </trkpt>
      <trkpt lat="45.10256" lon="2.65481">
        <ele>1615.8</ele>
        <time>2021-08-11T10:32:39Z</time>
      </trkpt>
      <trkpt lat="45.10257" lon="2.65482">
        <ele>1615.6</ele>
        <time>2021-08-11T10:32:40Z</time>
      </trkpt>
      <trkpt lat="45.10257" lon="2.65483">
        <ele>1615.4</ele>
        <time>2021-08-11T10:32:41Z</time>
      </trkpt>
      <trkpt lat="45.10257" lon="2.65483">
        <ele>1615.4</ele>
        <time>2021-08-11T10:32:42Z</time>
      </trkpt>
      <trkpt lat="45.10257" lon="2.65484">
        <ele>1615.3</ele>
        <time>2021-08-11T10:32:43Z</time>
      </trkpt>
      <trkpt lat="45.10257" lon="2.65485">
        <ele>1615.1</ele>
        <time>2021-08-11T10:32:44Z</time>
      </trkpt>
      <trkpt lat="45.10258" lon="2.65486">
        <ele>1614.9</ele>
        <time>2021-08-11T10:32:45Z</time>
      </trkpt>
      <trkpt lat="45.10258" lon="2.65487">
        <ele>1614.7</ele>
        <time>2021-08-11T10:32:46Z</time>
      </trkpt>
      <trkpt lat="45.10258" lon="2.65487">
        <ele>1614.5</ele>
        <time>2021-08-11T10:32:47Z</time>
      </trkpt>
      <trkpt lat="45.10258" lon="2.65488">
        <ele>1614.5</ele>
        <time>2021-08-11T10:32:48Z</time>
      </trkpt>
      <trkpt lat="45.10258" lon="2.65489">
        <ele>1614.3</ele>
        <time>2021-08-11T10:32:49Z</time>
      </trkpt>
      <trkpt lat="45.10259" lon="2.65491">
        <ele>1614</ele>
        <time>2021-08-11T10:32:50Z</time>
      </trkpt>
      <trkpt lat="45.10259" lon="2.65491">
        <ele>1613.8</ele>
        <time>2021-08-11T10:32:51Z</time>
      </trkpt>
      <trkpt lat="45.10259" lon="2.65492">
        <ele>1613.7</ele>
        <time>2021-08-11T10:32:52Z</time>
      </trkpt>
      <trkpt lat="45.10259" lon="2.65493">
        <ele>1613.5</ele>
        <time>2021-08-11T10:32:53Z</time>
      </trkpt>
      <trkpt lat="45.10259" lon="2.65494">
        <ele>1613.3</ele>
        <time>2021-08-11T10:32:54Z</time>
      </trkpt>
      <trkpt lat="45.10259" lon="2.65495">
        <ele>1613.2</ele>
        <time>2021-08-11T10:32:55Z</time>
      </trkpt>
      <trkpt lat="45.10259" lon="2.65496">
        <ele>1613.1</ele>
        <time>2021-08-11T10:32:56Z</time>
      </trkpt>
      <trkpt lat="45.1026" lon="2.65496">
        <ele>1613.1</ele>
        <time>2021-08-11T10:32:57Z</time>
      </trkpt>
      <trkpt lat="45.1026" lon="2.65497">
        <ele>1613.2</ele>
        <time>2021-08-11T10:32:58Z</time>
      </trkpt>
      <trkpt lat="45.10261" lon="2.65497">
        <ele>1613.4</ele>
        <time>2021-08-11T10:32:59Z</time>
      </trkpt>
      <trkpt lat="45.10262" lon="2.65498">
        <ele>1613.4</ele>
        <time>2021-08-11T10:33:00Z</time>
      </trkpt>
      <trkpt lat="45.10262" lon="2.65499">
        <ele>1613.5</ele>
        <time>2021-08-11T10:33:01Z</time>
      </trkpt>
      <trkpt lat="45.10263" lon="2.655">
        <ele>1613.4</ele>
        <time>2021-08-11T10:33:02Z</time>
      </trkpt>
      <trkpt lat="45.10263" lon="2.655">
        <ele>1613.2</ele>
        <time>2021-08-11T10:33:03Z</time>
      </trkpt>
      <trkpt lat="45.10263" lon="2.65501">
        <ele>1612.9</ele>
        <time>2021-08-11T10:33:04Z</time>
      </trkpt>
      <trkpt lat="45.10262" lon="2.65503">
        <ele>1612.5</ele>
        <time>2021-08-11T10:33:05Z</time>
      </trkpt>
      <trkpt lat="45.10262" lon="2.65503">
        <ele>1612.2</ele>
        <time>2021-08-11T10:33:06Z</time>
      </trkpt>
      <trkpt lat="45.10262" lon="2.65504">
        <ele>1611.9</ele>
        <time>2021-08-11T10:33:07Z</time>
      </trkpt>
      <trkpt lat="45.10262" lon="2.65505">
        <ele>1611.7</ele>
        <time>2021-08-11T10:33:08Z</time>
      </trkpt>
      <trkpt lat="45.10262" lon="2.65506">
        <ele>1611.4</ele>
        <time>2021-08-11T10:33:09Z</time>
      </trkpt>
      <trkpt lat="45.10262" lon="2.65507">
        <ele>1611.2</ele>
        <time>2021-08-11T10:33:10Z</time>
      </trkpt>
      <trkpt lat="45.10262" lon="2.65508">
        <ele>1611</ele>
        <time>2021-08-11T10:33:11Z</time>
      </trkpt>
      <trkpt lat="45.10263" lon="2.65509">
        <ele>1610.8</ele>
        <time>2021-08-11T10:33:12Z</time>
      </trkpt>
      <trkpt lat="45.10263" lon="2.6551">
        <ele>1610.6</ele>
        <time>2021-08-11T10:33:13Z</time>
      </trkpt>
      <trkpt lat="45.10263" lon="2.65511">
        <ele>1610.3</ele>
        <time>2021-08-11T10:33:14Z</time>
      </trkpt>
      <trkpt lat="45.10263" lon="2.65512">
        <ele>1610.1</ele>
        <time>2021-08-11T10:33:15Z</time>
      </trkpt>
      <trkpt lat="45.10263" lon="2.65513">
        <ele>1609.9</ele>
        <time>2021-08-11T10:33:16Z</time>
      </trkpt>
      <trkpt lat="45.10263" lon="2.65513">
        <ele>1609.7</ele>
        <time>2021-08-11T10:33:17Z</time>
      </trkpt>
      <trkpt lat="45.10263" lon="2.65514">
        <ele>1609.7</ele>
        <time>2021-08-11T10:33:18Z</time>
      </trkpt>
      <trkpt lat="45.10263" lon="2.65515">
        <ele>1609.5</ele>
        <time>2021-08-11T10:33:19Z</time>
      </trkpt>
      <trkpt lat="45.10263" lon="2.65515">
        <ele>1609.3</ele>
        <time>2021-08-11T10:33:20Z</time>
      </trkpt>
      <trkpt lat="45.10264" lon="2.65516">
        <ele>1609.2</ele>
        <time>2021-08-11T10:33:21Z</time>
      </trkpt>
      <trkpt lat="45.10264" lon="2.65517">
        <ele>1608.9</ele>
        <time>2021-08-11T10:33:22Z</time>
      </trkpt>
      <trkpt lat="45.10263" lon="2.65518">
        <ele>1608.6</ele>
        <time>2021-08-11T10:33:23Z</time>
      </trkpt>
      <trkpt lat="45.10263" lon="2.65519">
        <ele>1608.1</ele>
        <time>2021-08-11T10:33:24Z</time>
      </trkpt>
      <trkpt lat="45.10263" lon="2.6552">
        <ele>1607.8</ele>
        <time>2021-08-11T10:33:25Z</time>
      </trkpt>
      <trkpt lat="45.10263" lon="2.65521">
        <ele>1607.4</ele>
        <time>2021-08-11T10:33:26Z</time>
      </trkpt>
      <trkpt lat="45.10262" lon="2.65522">
        <ele>1607.1</ele>
        <time>2021-08-11T10:33:27Z</time>
      </trkpt>
      <trkpt lat="45.10262" lon="2.65523">
        <ele>1606.8</ele>
        <time>2021-08-11T10:33:28Z</time>
      </trkpt>
      <trkpt lat="45.10262" lon="2.65524">
        <ele>1606.5</ele>
        <time>2021-08-11T10:33:29Z</time>
      </trkpt>
      <trkpt lat="45.10262" lon="2.65525">
        <ele>1606.2</ele>
        <time>2021-08-11T10:33:30Z</time>
      </trkpt>
      <trkpt lat="45.10262" lon="2.65526">
        <ele>1605.9</ele>
        <time>2021-08-11T10:33:31Z</time>
      </trkpt>
      <trkpt lat="45.10263" lon="2.65527">
        <ele>1605.7</ele>
        <time>2021-08-11T10:33:32Z</time>
      </trkpt>
      <trkpt lat="45.10263" lon="2.65528">
        <ele>1605.5</ele>
        <time>2021-08-11T10:33:33Z</time>
      </trkpt>
      <trkpt lat="45.10263" lon="2.65529">
        <ele>1605.4</ele>
        <time>2021-08-11T10:33:34Z</time>
      </trkpt>
      <trkpt lat="45.10263" lon="2.6553">
        <ele>1605.3</ele>
        <time>2021-08-11T10:33:35Z</time>
      </trkpt>
      <trkpt lat="45.10263" lon="2.65531">
        <ele>1605.2</ele>
        <time>2021-08-11T10:33:36Z</time>
      </trkpt>
      <trkpt lat="45.10263" lon="2.65532">
        <ele>1604.9</ele>
        <time>2021-08-11T10:33:37Z</time>
      </trkpt>
      <trkpt lat="45.10263" lon="2.65532">
        <ele>1604.7</ele>
        <time>2021-08-11T10:33:38Z</time>
      </trkpt>
      <trkpt lat="45.10263" lon="2.65533">
        <ele>1604.5</ele>
        <time>2021-08-11T10:33:39Z</time>
      </trkpt>
      <trkpt lat="45.10263" lon="2.65534">
        <ele>1604.3</ele>
        <time>2021-08-11T10:33:40Z</time>
      </trkpt>
      <trkpt lat="45.10263" lon="2.65534">
        <ele>1604.2</ele>
        <time>2021-08-11T10:33:41Z</time>
      </trkpt>
      <trkpt lat="45.10263" lon="2.65534">
        <ele>1604.1</ele>
        <time>2021-08-11T10:33:42Z</time>
      </trkpt>
      <trkpt lat="45.10264" lon="2.65535">
        <ele>1604.1</ele>
        <time>2021-08-11T10:33:43Z</time>
      </trkpt>
      <trkpt lat="45.10264" lon="2.65536">
        <ele>1603.9</ele>
        <time>2021-08-11T10:33:44Z</time>
      </trkpt>
      <trkpt lat="45.10264" lon="2.65536">
        <ele>1603.9</ele>
        <time>2021-08-11T10:33:45Z</time>
      </trkpt>
      <trkpt lat="45.10264" lon="2.65536">
        <ele>1603.9</ele>
        <time>2021-08-11T10:33:46Z</time>
      </trkpt>
      <trkpt lat="45.10264" lon="2.65536">
        <ele>1603.9</ele>
        <time>2021-08-11T10:33:47Z</time>
      </trkpt>
      <trkpt lat="45.10264" lon="2.65536">
        <ele>1604.1</ele>
        <time>2021-08-11T10:33:48Z</time>
      </trkpt>
      <trkpt lat="45.10264" lon="2.65536">
        <ele>1604.1</ele>
        <time>2021-08-11T10:33:49Z</time>
      </trkpt>
      <trkpt lat="45.10264" lon="2.65537">
        <ele>1603.9</ele>
        <time>2021-08-11T10:33:50Z</time>
      </trkpt>
      <trkpt lat="45.10264" lon="2.65538">
        <ele>1603.5</ele>
        <time>2021-08-11T10:33:51Z</time>
      </trkpt>
      <trkpt lat="45.10264" lon="2.6554">
        <ele>1603.2</ele>
        <time>2021-08-11T10:33:52Z</time>
      </trkpt>
      <trkpt lat="45.10265" lon="2.65541">
        <ele>1603</ele>
        <time>2021-08-11T10:33:53Z</time>
      </trkpt>
      <trkpt lat="45.10265" lon="2.65542">
        <ele>1602.9</ele>
        <time>2021-08-11T10:33:54Z</time>
      </trkpt>
      <trkpt lat="45.10265" lon="2.65543">
        <ele>1602.7</ele>
        <time>2021-08-11T10:33:55Z</time>
      </trkpt>
      <trkpt lat="45.10265" lon="2.65544">
        <ele>1602.6</ele>
        <time>2021-08-11T10:33:56Z</time>
      </trkpt>
      <trkpt lat="45.10265" lon="2.65545">
        <ele>1602.3</ele>
        <time>2021-08-11T10:33:57Z</time>
      </trkpt>
      <trkpt lat="45.10265" lon="2.65546">
        <ele>1602.1</ele>
        <time>2021-08-11T10:33:58Z</time>
      </trkpt>
      <trkpt lat="45.10266" lon="2.65547">
        <ele>1601.9</ele>
        <time>2021-08-11T10:33:59Z</time>
      </trkpt>
      <trkpt lat="45.10266" lon="2.65548">
        <ele>1601.9</ele>
        <time>2021-08-11T10:34:00Z</time>
      </trkpt>
      <trkpt lat="45.10266" lon="2.65548">
        <ele>1601.8</ele>
        <time>2021-08-11T10:34:01Z</time>
      </trkpt>
      <trkpt lat="45.10266" lon="2.65549">
        <ele>1601.6</ele>
        <time>2021-08-11T10:34:02Z</time>
      </trkpt>
      <trkpt lat="45.10266" lon="2.6555">
        <ele>1601.5</ele>
        <time>2021-08-11T10:34:03Z</time>
      </trkpt>
      <trkpt lat="45.10267" lon="2.65551">
        <ele>1601.7</ele>
        <time>2021-08-11T10:34:04Z</time>
      </trkpt>
      <trkpt lat="45.10267" lon="2.65552">
        <ele>1601.6</ele>
        <time>2021-08-11T10:34:05Z</time>
      </trkpt>
      <trkpt lat="45.10268" lon="2.65553">
        <ele>1601.6</ele>
        <time>2021-08-11T10:34:06Z</time>
      </trkpt>
      <trkpt lat="45.10268" lon="2.65554">
        <ele>1601.6</ele>
        <time>2021-08-11T10:34:07Z</time>
      </trkpt>
      <trkpt lat="45.10268" lon="2.65555">
        <ele>1601.4</ele>
        <time>2021-08-11T10:34:08Z</time>
      </trkpt>
      <trkpt lat="45.10269" lon="2.65555">
        <ele>1601.5</ele>
        <time>2021-08-11T10:34:09Z</time>
      </trkpt>
      <trkpt lat="45.1027" lon="2.65556">
        <ele>1601.7</ele>
        <time>2021-08-11T10:34:10Z</time>
      </trkpt>
      <trkpt lat="45.1027" lon="2.65557">
        <ele>1601.6</ele>
        <time>2021-08-11T10:34:11Z</time>
      </trkpt>
      <trkpt lat="45.1027" lon="2.65558">
        <ele>1601.7</ele>
        <time>2021-08-11T10:34:12Z</time>
      </trkpt>
      <trkpt lat="45.1027" lon="2.65558">
        <ele>1601.7</ele>
        <time>2021-08-11T10:34:13Z</time>
      </trkpt>
      <trkpt lat="45.10271" lon="2.65558">
        <ele>1601.8</ele>
        <time>2021-08-11T10:34:14Z</time>
      </trkpt>
      <trkpt lat="45.10271" lon="2.65558">
        <ele>1601.9</ele>
        <time>2021-08-11T10:34:15Z</time>
      </trkpt>
      <trkpt lat="45.10271" lon="2.65558">
        <ele>1601.9</ele>
        <time>2021-08-11T10:34:16Z</time>
      </trkpt>
      <trkpt lat="45.10271" lon="2.65558">
        <ele>1602.1</ele>
        <time>2021-08-11T10:34:17Z</time>
      </trkpt>
      <trkpt lat="45.10271" lon="2.65557">
        <ele>1602.1</ele>
        <time>2021-08-11T10:34:18Z</time>
      </trkpt>
      <trkpt lat="45.10271" lon="2.65557">
        <ele>1602.3</ele>
        <time>2021-08-11T10:34:19Z</time>
      </trkpt>
      <trkpt lat="45.10271" lon="2.65557">
        <ele>1602.3</ele>
        <time>2021-08-11T10:34:20Z</time>
      </trkpt>
      <trkpt lat="45.10271" lon="2.65557">
        <ele>1602.4</ele>
        <time>2021-08-11T10:34:21Z</time>
      </trkpt>
      <trkpt lat="45.10271" lon="2.65557">
        <ele>1602.4</ele>
        <time>2021-08-11T10:34:22Z</time>
      </trkpt>
      <trkpt lat="45.10271" lon="2.65556">
        <ele>1602.6</ele>
        <time>2021-08-11T10:34:23Z</time>
      </trkpt>
      <trkpt lat="45.10272" lon="2.65556">
        <ele>1602.8</ele>
        <time>2021-08-11T10:34:24Z</time>
      </trkpt>
      <trkpt lat="45.10272" lon="2.65557">
        <ele>1603</ele>
        <time>2021-08-11T10:34:25Z</time>
      </trkpt>
      <trkpt lat="45.10273" lon="2.65558">
        <ele>1603</ele>
        <time>2021-08-11T10:34:26Z</time>
      </trkpt>
      <trkpt lat="45.10273" lon="2.65558">
        <ele>1603</ele>
        <time>2021-08-11T10:34:27Z</time>
      </trkpt>
      <trkpt lat="45.10273" lon="2.65559">
        <ele>1602.7</ele>
        <time>2021-08-11T10:34:28Z</time>
      </trkpt>
      <trkpt lat="45.10273" lon="2.6556">
        <ele>1602.6</ele>
        <time>2021-08-11T10:34:29Z</time>
      </trkpt>
      <trkpt lat="45.10273" lon="2.6556">
        <ele>1602.5</ele>
        <time>2021-08-11T10:34:30Z</time>
      </trkpt>
      <trkpt lat="45.10273" lon="2.6556">
        <ele>1602.5</ele>
        <time>2021-08-11T10:34:31Z</time>
      </trkpt>
      <trkpt lat="45.10273" lon="2.65561">
        <ele>1602.6</ele>
        <time>2021-08-11T10:34:32Z</time>
      </trkpt>
      <trkpt lat="45.10273" lon="2.65562">
        <ele>1602.4</ele>
        <time>2021-08-11T10:34:33Z</time>
      </trkpt>
      <trkpt lat="45.10273" lon="2.65562">
        <ele>1602.3</ele>
        <time>2021-08-11T10:34:34Z</time>
      </trkpt>
      <trkpt lat="45.10273" lon="2.65563">
        <ele>1602.1</ele>
        <time>2021-08-11T10:34:35Z</time>
      </trkpt>
      <trkpt lat="45.10273" lon="2.65564">
        <ele>1602</ele>
        <time>2021-08-11T10:34:36Z</time>
      </trkpt>
      <trkpt lat="45.10274" lon="2.65564">
        <ele>1602</ele>
        <time>2021-08-11T10:34:37Z</time>
      </trkpt>
      <trkpt lat="45.10273" lon="2.65564">
        <ele>1601.8</ele>
        <time>2021-08-11T10:34:38Z</time>
      </trkpt>
      <trkpt lat="45.10273" lon="2.65565">
        <ele>1601.7</ele>
        <time>2021-08-11T10:34:39Z</time>
      </trkpt>
      <trkpt lat="45.10273" lon="2.65566">
        <ele>1601.5</ele>
        <time>2021-08-11T10:34:40Z</time>
      </trkpt>
      <trkpt lat="45.10274" lon="2.65566">
        <ele>1601.5</ele>
        <time>2021-08-11T10:34:41Z</time>
      </trkpt>
      <trkpt lat="45.10273" lon="2.65567">
        <ele>1601.2</ele>
        <time>2021-08-11T10:34:42Z</time>
      </trkpt>
      <trkpt lat="45.10273" lon="2.65568">
        <ele>1600.9</ele>
        <time>2021-08-11T10:34:43Z</time>
      </trkpt>
      <trkpt lat="45.10273" lon="2.65569">
        <ele>1600.6</ele>
        <time>2021-08-11T10:34:44Z</time>
      </trkpt>
      <trkpt lat="45.10273" lon="2.6557">
        <ele>1600.2</ele>
        <time>2021-08-11T10:34:45Z</time>
      </trkpt>
      <trkpt lat="45.10273" lon="2.65571">
        <ele>1600.1</ele>
        <time>2021-08-11T10:34:46Z</time>
      </trkpt>
      <trkpt lat="45.10273" lon="2.65572">
        <ele>1599.8</ele>
        <time>2021-08-11T10:34:47Z</time>
      </trkpt>
      <trkpt lat="45.10274" lon="2.65574">
        <ele>1599.7</ele>
        <time>2021-08-11T10:34:48Z</time>
      </trkpt>
      <trkpt lat="45.10274" lon="2.65575">
        <ele>1599.6</ele>
        <time>2021-08-11T10:34:49Z</time>
      </trkpt>
      <trkpt lat="45.10274" lon="2.65576">
        <ele>1599.6</ele>
        <time>2021-08-11T10:34:50Z</time>
      </trkpt>
      <trkpt lat="45.10275" lon="2.65577">
        <ele>1599.4</ele>
        <time>2021-08-11T10:34:51Z</time>
      </trkpt>
      <trkpt lat="45.10275" lon="2.65578">
        <ele>1599.2</ele>
        <time>2021-08-11T10:34:52Z</time>
      </trkpt>
      <trkpt lat="45.10275" lon="2.65579">
        <ele>1599.1</ele>
        <time>2021-08-11T10:34:53Z</time>
      </trkpt>
      <trkpt lat="45.10275" lon="2.6558">
        <ele>1599.1</ele>
        <time>2021-08-11T10:34:54Z</time>
      </trkpt>
      <trkpt lat="45.10276" lon="2.65581">
        <ele>1599.1</ele>
        <time>2021-08-11T10:34:55Z</time>
      </trkpt>
      <trkpt lat="45.10276" lon="2.65582">
        <ele>1599.1</ele>
        <time>2021-08-11T10:34:56Z</time>
      </trkpt>
      <trkpt lat="45.10276" lon="2.65583">
        <ele>1599</ele>
        <time>2021-08-11T10:34:57Z</time>
      </trkpt>
      <trkpt lat="45.10277" lon="2.65584">
        <ele>1598.9</ele>
        <time>2021-08-11T10:34:58Z</time>
      </trkpt>
      <trkpt lat="45.10277" lon="2.65586">
        <ele>1598.7</ele>
        <time>2021-08-11T10:34:59Z</time>
      </trkpt>
      <trkpt lat="45.10277" lon="2.65587">
        <ele>1598.6</ele>
        <time>2021-08-11T10:35:00Z</time>
      </trkpt>
      <trkpt lat="45.10277" lon="2.65588">
        <ele>1598.6</ele>
        <time>2021-08-11T10:35:01Z</time>
      </trkpt>
      <trkpt lat="45.10278" lon="2.65589">
        <ele>1598.8</ele>
        <time>2021-08-11T10:35:02Z</time>
      </trkpt>
      <trkpt lat="45.10279" lon="2.6559">
        <ele>1598.8</ele>
        <time>2021-08-11T10:35:03Z</time>
      </trkpt>
      <trkpt lat="45.10279" lon="2.65592">
        <ele>1598.7</ele>
        <time>2021-08-11T10:35:04Z</time>
      </trkpt>
      <trkpt lat="45.10279" lon="2.65593">
        <ele>1598.7</ele>
        <time>2021-08-11T10:35:05Z</time>
      </trkpt>
      <trkpt lat="45.1028" lon="2.65594">
        <ele>1598.6</ele>
        <time>2021-08-11T10:35:06Z</time>
      </trkpt>
      <trkpt lat="45.1028" lon="2.65595">
        <ele>1598.7</ele>
        <time>2021-08-11T10:35:07Z</time>
      </trkpt>
      <trkpt lat="45.1028" lon="2.65596">
        <ele>1598.6</ele>
        <time>2021-08-11T10:35:08Z</time>
      </trkpt>
      <trkpt lat="45.10281" lon="2.65597">
        <ele>1598.7</ele>
        <time>2021-08-11T10:35:09Z</time>
      </trkpt>
      <trkpt lat="45.10281" lon="2.65598">
        <ele>1598.8</ele>
        <time>2021-08-11T10:35:10Z</time>
      </trkpt>
      <trkpt lat="45.10282" lon="2.65599">
        <ele>1598.9</ele>
        <time>2021-08-11T10:35:11Z</time>
      </trkpt>
      <trkpt lat="45.10283" lon="2.656">
        <ele>1599.3</ele>
        <time>2021-08-11T10:35:12Z</time>
      </trkpt>
      <trkpt lat="45.10283" lon="2.656">
        <ele>1599.3</ele>
        <time>2021-08-11T10:35:13Z</time>
      </trkpt>
      <trkpt lat="45.10283" lon="2.65601">
        <ele>1599.4</ele>
        <time>2021-08-11T10:35:14Z</time>
      </trkpt>
      <trkpt lat="45.10283" lon="2.65601">
        <ele>1599.3</ele>
        <time>2021-08-11T10:35:15Z</time>
      </trkpt>
      <trkpt lat="45.10283" lon="2.65602">
        <ele>1599.3</ele>
        <time>2021-08-11T10:35:16Z</time>
      </trkpt>
      <trkpt lat="45.10284" lon="2.65602">
        <ele>1599.3</ele>
        <time>2021-08-11T10:35:17Z</time>
      </trkpt>
      <trkpt lat="45.10284" lon="2.65603">
        <ele>1599.2</ele>
        <time>2021-08-11T10:35:18Z</time>
      </trkpt>
      <trkpt lat="45.10284" lon="2.65603">
        <ele>1599</ele>
        <time>2021-08-11T10:35:19Z</time>
      </trkpt>
      <trkpt lat="45.10284" lon="2.65604">
        <ele>1598.8</ele>
        <time>2021-08-11T10:35:20Z</time>
      </trkpt>
      <trkpt lat="45.10283" lon="2.65605">
        <ele>1598.5</ele>
        <time>2021-08-11T10:35:21Z</time>
      </trkpt>
      <trkpt lat="45.10283" lon="2.65606">
        <ele>1598.1</ele>
        <time>2021-08-11T10:35:22Z</time>
      </trkpt>
      <trkpt lat="45.10283" lon="2.65607">
        <ele>1597.9</ele>
        <time>2021-08-11T10:35:23Z</time>
      </trkpt>
      <trkpt lat="45.10283" lon="2.65608">
        <ele>1597.7</ele>
        <time>2021-08-11T10:35:24Z</time>
      </trkpt>
      <trkpt lat="45.10283" lon="2.65609">
        <ele>1597.5</ele>
        <time>2021-08-11T10:35:25Z</time>
      </trkpt>
      <trkpt lat="45.10283" lon="2.6561">
        <ele>1597.3</ele>
        <time>2021-08-11T10:35:26Z</time>
      </trkpt>
      <trkpt lat="45.10284" lon="2.65612">
        <ele>1597</ele>
        <time>2021-08-11T10:35:27Z</time>
      </trkpt>
      <trkpt lat="45.10284" lon="2.65613">
        <ele>1597</ele>
        <time>2021-08-11T10:35:28Z</time>
      </trkpt>
      <trkpt lat="45.10284" lon="2.65614">
        <ele>1596.7</ele>
        <time>2021-08-11T10:35:29Z</time>
      </trkpt>
      <trkpt lat="45.10284" lon="2.65615">
        <ele>1596.4</ele>
        <time>2021-08-11T10:35:30Z</time>
      </trkpt>
      <trkpt lat="45.10284" lon="2.65617">
        <ele>1596.2</ele>
        <time>2021-08-11T10:35:31Z</time>
      </trkpt>
      <trkpt lat="45.10285" lon="2.65618">
        <ele>1596.2</ele>
        <time>2021-08-11T10:35:32Z</time>
      </trkpt>
      <trkpt lat="45.10285" lon="2.65619">
        <ele>1596.1</ele>
        <time>2021-08-11T10:35:33Z</time>
      </trkpt>
      <trkpt lat="45.10285" lon="2.65621">
        <ele>1596.1</ele>
        <time>2021-08-11T10:35:34Z</time>
      </trkpt>
      <trkpt lat="45.10286" lon="2.65622">
        <ele>1596.1</ele>
        <time>2021-08-11T10:35:35Z</time>
      </trkpt>
      <trkpt lat="45.10286" lon="2.65623">
        <ele>1596.2</ele>
        <time>2021-08-11T10:35:36Z</time>
      </trkpt>
      <trkpt lat="45.10287" lon="2.65624">
        <ele>1596.3</ele>
        <time>2021-08-11T10:35:37Z</time>
      </trkpt>
      <trkpt lat="45.10288" lon="2.65625">
        <ele>1596.5</ele>
        <time>2021-08-11T10:35:38Z</time>
      </trkpt>
      <trkpt lat="45.10288" lon="2.65626">
        <ele>1596.6</ele>
        <time>2021-08-11T10:35:39Z</time>
      </trkpt>
      <trkpt lat="45.10289" lon="2.65627">
        <ele>1596.7</ele>
        <time>2021-08-11T10:35:40Z</time>
      </trkpt>
      <trkpt lat="45.10289" lon="2.65628">
        <ele>1596.9</ele>
        <time>2021-08-11T10:35:41Z</time>
      </trkpt>
      <trkpt lat="45.1029" lon="2.65629">
        <ele>1596.8</ele>
        <time>2021-08-11T10:35:42Z</time>
      </trkpt>
      <trkpt lat="45.1029" lon="2.65631">
        <ele>1596.9</ele>
        <time>2021-08-11T10:35:43Z</time>
      </trkpt>
      <trkpt lat="45.10291" lon="2.65632">
        <ele>1597</ele>
        <time>2021-08-11T10:35:44Z</time>
      </trkpt>
      <trkpt lat="45.10291" lon="2.65632">
        <ele>1597.1</ele>
        <time>2021-08-11T10:35:45Z</time>
      </trkpt>
      <trkpt lat="45.10292" lon="2.65634">
        <ele>1597.2</ele>
        <time>2021-08-11T10:35:46Z</time>
      </trkpt>
      <trkpt lat="45.10292" lon="2.65635">
        <ele>1597.2</ele>
        <time>2021-08-11T10:35:47Z</time>
      </trkpt>
      <trkpt lat="45.10293" lon="2.65636">
        <ele>1597.3</ele>
        <time>2021-08-11T10:35:48Z</time>
      </trkpt>
      <trkpt lat="45.10293" lon="2.65637">
        <ele>1597.3</ele>
        <time>2021-08-11T10:35:49Z</time>
      </trkpt>
      <trkpt lat="45.10293" lon="2.65638">
        <ele>1597.2</ele>
        <time>2021-08-11T10:35:50Z</time>
      </trkpt>
      <trkpt lat="45.10293" lon="2.65638">
        <ele>1597.1</ele>
        <time>2021-08-11T10:35:51Z</time>
      </trkpt>
      <trkpt lat="45.10293" lon="2.6564">
        <ele>1597</ele>
        <time>2021-08-11T10:35:52Z</time>
      </trkpt>
      <trkpt lat="45.10294" lon="2.65641">
        <ele>1596.8</ele>
        <time>2021-08-11T10:35:53Z</time>
      </trkpt>
      <trkpt lat="45.10294" lon="2.65641">
        <ele>1597</ele>
        <time>2021-08-11T10:35:54Z</time>
      </trkpt>
      <trkpt lat="45.10295" lon="2.65642">
        <ele>1597.1</ele>
        <time>2021-08-11T10:35:55Z</time>
      </trkpt>
      <trkpt lat="45.10295" lon="2.65643">
        <ele>1597.2</ele>
        <time>2021-08-11T10:35:56Z</time>
      </trkpt>
      <trkpt lat="45.10296" lon="2.65644">
        <ele>1597.3</ele>
        <time>2021-08-11T10:35:57Z</time>
      </trkpt>
      <trkpt lat="45.10296" lon="2.65645">
        <ele>1597.5</ele>
        <time>2021-08-11T10:35:58Z</time>
      </trkpt>
      <trkpt lat="45.10296" lon="2.65646">
        <ele>1597.4</ele>
        <time>2021-08-11T10:35:59Z</time>
      </trkpt>
      <trkpt lat="45.10296" lon="2.65647">
        <ele>1597.2</ele>
        <time>2021-08-11T10:36:00Z</time>
      </trkpt>
      <trkpt lat="45.10297" lon="2.65648">
        <ele>1597.2</ele>
        <time>2021-08-11T10:36:01Z</time>
      </trkpt>
      <trkpt lat="45.10297" lon="2.65649">
        <ele>1597</ele>
        <time>2021-08-11T10:36:02Z</time>
      </trkpt>
      <trkpt lat="45.10297" lon="2.6565">
        <ele>1596.8</ele>
        <time>2021-08-11T10:36:03Z</time>
      </trkpt>
      <trkpt lat="45.10297" lon="2.65651">
        <ele>1596.8</ele>
        <time>2021-08-11T10:36:04Z</time>
      </trkpt>
      <trkpt lat="45.10298" lon="2.65652">
        <ele>1596.7</ele>
        <time>2021-08-11T10:36:05Z</time>
      </trkpt>
      <trkpt lat="45.10298" lon="2.65653">
        <ele>1596.6</ele>
        <time>2021-08-11T10:36:06Z</time>
      </trkpt>
      <trkpt lat="45.10298" lon="2.65655">
        <ele>1596.3</ele>
        <time>2021-08-11T10:36:07Z</time>
      </trkpt>
      <trkpt lat="45.10298" lon="2.65656">
        <ele>1596.1</ele>
        <time>2021-08-11T10:36:08Z</time>
      </trkpt>
      <trkpt lat="45.10298" lon="2.65657">
        <ele>1595.7</ele>
        <time>2021-08-11T10:36:09Z</time>
      </trkpt>
      <trkpt lat="45.10298" lon="2.65659">
        <ele>1595.6</ele>
        <time>2021-08-11T10:36:10Z</time>
      </trkpt>
      <trkpt lat="45.10298" lon="2.6566">
        <ele>1595.4</ele>
        <time>2021-08-11T10:36:11Z</time>
      </trkpt>
      <trkpt lat="45.10299" lon="2.65662">
        <ele>1595.1</ele>
        <time>2021-08-11T10:36:12Z</time>
      </trkpt>
      <trkpt lat="45.10299" lon="2.65663">
        <ele>1594.9</ele>
        <time>2021-08-11T10:36:13Z</time>
      </trkpt>
      <trkpt lat="45.10299" lon="2.65665">
        <ele>1594.5</ele>
        <time>2021-08-11T10:36:14Z</time>
      </trkpt>
      <trkpt lat="45.10299" lon="2.65667">
        <ele>1594</ele>
        <time>2021-08-11T10:36:15Z</time>
      </trkpt>
      <trkpt lat="45.10299" lon="2.65669">
        <ele>1593.6</ele>
        <time>2021-08-11T10:36:16Z</time>
      </trkpt>
      <trkpt lat="45.10299" lon="2.65671">
        <ele>1593.2</ele>
        <time>2021-08-11T10:36:17Z</time>
      </trkpt>
      <trkpt lat="45.10299" lon="2.65672">
        <ele>1592.8</ele>
        <time>2021-08-11T10:36:18Z</time>
      </trkpt>
      <trkpt lat="45.103" lon="2.65674">
        <ele>1592.5</ele>
        <time>2021-08-11T10:36:19Z</time>
      </trkpt>
      <trkpt lat="45.103" lon="2.65676">
        <ele>1592.4</ele>
        <time>2021-08-11T10:36:20Z</time>
      </trkpt>
      <trkpt lat="45.103" lon="2.65677">
        <ele>1592.3</ele>
        <time>2021-08-11T10:36:21Z</time>
      </trkpt>
      <trkpt lat="45.10301" lon="2.65679">
        <ele>1592.1</ele>
        <time>2021-08-11T10:36:22Z</time>
      </trkpt>
      <trkpt lat="45.10301" lon="2.6568">
        <ele>1591.7</ele>
        <time>2021-08-11T10:36:23Z</time>
      </trkpt>
      <trkpt lat="45.10301" lon="2.65682">
        <ele>1591.7</ele>
        <time>2021-08-11T10:36:24Z</time>
      </trkpt>
      <trkpt lat="45.10302" lon="2.65683">
        <ele>1591.7</ele>
        <time>2021-08-11T10:36:25Z</time>
      </trkpt>
      <trkpt lat="45.10302" lon="2.65684">
        <ele>1591.7</ele>
        <time>2021-08-11T10:36:26Z</time>
      </trkpt>
      <trkpt lat="45.10303" lon="2.65685">
        <ele>1591.6</ele>
        <time>2021-08-11T10:36:27Z</time>
      </trkpt>
      <trkpt lat="45.10303" lon="2.65686">
        <ele>1591.5</ele>
        <time>2021-08-11T10:36:28Z</time>
      </trkpt>
      <trkpt lat="45.10303" lon="2.65688">
        <ele>1591.2</ele>
        <time>2021-08-11T10:36:29Z</time>
      </trkpt>
      <trkpt lat="45.10303" lon="2.65689">
        <ele>1590.8</ele>
        <time>2021-08-11T10:36:30Z</time>
      </trkpt>
      <trkpt lat="45.10304" lon="2.65691">
        <ele>1590.7</ele>
        <time>2021-08-11T10:36:31Z</time>
      </trkpt>
      <trkpt lat="45.10304" lon="2.65692">
        <ele>1590.4</ele>
        <time>2021-08-11T10:36:32Z</time>
      </trkpt>
      <trkpt lat="45.10304" lon="2.65693">
        <ele>1590.1</ele>
        <time>2021-08-11T10:36:33Z</time>
      </trkpt>
      <trkpt lat="45.10304" lon="2.65695">
        <ele>1590</ele>
        <time>2021-08-11T10:36:34Z</time>
      </trkpt>
      <trkpt lat="45.10305" lon="2.65696">
        <ele>1589.8</ele>
        <time>2021-08-11T10:36:35Z</time>
      </trkpt>
      <trkpt lat="45.10305" lon="2.65697">
        <ele>1589.7</ele>
        <time>2021-08-11T10:36:36Z</time>
      </trkpt>
      <trkpt lat="45.10306" lon="2.65698">
        <ele>1589.8</ele>
        <time>2021-08-11T10:36:37Z</time>
      </trkpt>
      <trkpt lat="45.10306" lon="2.65699">
        <ele>1589.8</ele>
        <time>2021-08-11T10:36:38Z</time>
      </trkpt>
      <trkpt lat="45.10306" lon="2.65701">
        <ele>1589.6</ele>
        <time>2021-08-11T10:36:39Z</time>
      </trkpt>
      <trkpt lat="45.10306" lon="2.65702">
        <ele>1589.3</ele>
        <time>2021-08-11T10:36:40Z</time>
      </trkpt>
      <trkpt lat="45.10307" lon="2.65704">
        <ele>1589.1</ele>
        <time>2021-08-11T10:36:41Z</time>
      </trkpt>
      <trkpt lat="45.10307" lon="2.65705">
        <ele>1589</ele>
        <time>2021-08-11T10:36:42Z</time>
      </trkpt>
      <trkpt lat="45.10307" lon="2.65706">
        <ele>1588.9</ele>
        <time>2021-08-11T10:36:43Z</time>
      </trkpt>
      <trkpt lat="45.10308" lon="2.65707">
        <ele>1588.8</ele>
        <time>2021-08-11T10:36:44Z</time>
      </trkpt>
      <trkpt lat="45.10308" lon="2.65709">
        <ele>1588.7</ele>
        <time>2021-08-11T10:36:45Z</time>
      </trkpt>
      <trkpt lat="45.10309" lon="2.6571">
        <ele>1588.8</ele>
        <time>2021-08-11T10:36:46Z</time>
      </trkpt>
      <trkpt lat="45.10309" lon="2.65711">
        <ele>1588.8</ele>
        <time>2021-08-11T10:36:47Z</time>
      </trkpt>
      <trkpt lat="45.1031" lon="2.65712">
        <ele>1588.8</ele>
        <time>2021-08-11T10:36:48Z</time>
      </trkpt>
      <trkpt lat="45.10311" lon="2.65713">
        <ele>1589.2</ele>
        <time>2021-08-11T10:36:49Z</time>
      </trkpt>
      <trkpt lat="45.10311" lon="2.65714">
        <ele>1589.3</ele>
        <time>2021-08-11T10:36:50Z</time>
      </trkpt>
      <trkpt lat="45.10312" lon="2.65715">
        <ele>1589.4</ele>
        <time>2021-08-11T10:36:51Z</time>
      </trkpt>
      <trkpt lat="45.10312" lon="2.65716">
        <ele>1589.5</ele>
        <time>2021-08-11T10:36:52Z</time>
      </trkpt>
      <trkpt lat="45.10313" lon="2.65717">
        <ele>1589.6</ele>
        <time>2021-08-11T10:36:53Z</time>
      </trkpt>
      <trkpt lat="45.10313" lon="2.65718">
        <ele>1589.8</ele>
        <time>2021-08-11T10:36:54Z</time>
      </trkpt>
      <trkpt lat="45.10314" lon="2.65719">
        <ele>1590.1</ele>
        <time>2021-08-11T10:36:55Z</time>
      </trkpt>
      <trkpt lat="45.10315" lon="2.6572">
        <ele>1590.3</ele>
        <time>2021-08-11T10:36:56Z</time>
      </trkpt>
      <trkpt lat="45.10315" lon="2.65721">
        <ele>1590.4</ele>
        <time>2021-08-11T10:36:57Z</time>
      </trkpt>
      <trkpt lat="45.10316" lon="2.65721">
        <ele>1590.8</ele>
        <time>2021-08-11T10:36:58Z</time>
      </trkpt>
      <trkpt lat="45.10316" lon="2.65722">
        <ele>1590.9</ele>
        <time>2021-08-11T10:36:59Z</time>
      </trkpt>
      <trkpt lat="45.10317" lon="2.65723">
        <ele>1590.9</ele>
        <time>2021-08-11T10:37:00Z</time>
      </trkpt>
      <trkpt lat="45.10317" lon="2.65724">
        <ele>1590.8</ele>
        <time>2021-08-11T10:37:01Z</time>
      </trkpt>
      <trkpt lat="45.10317" lon="2.65725">
        <ele>1590.8</ele>
        <time>2021-08-11T10:37:02Z</time>
      </trkpt>
      <trkpt lat="45.10318" lon="2.65725">
        <ele>1591</ele>
        <time>2021-08-11T10:37:03Z</time>
      </trkpt>
      <trkpt lat="45.10318" lon="2.65726">
        <ele>1591.2</ele>
        <time>2021-08-11T10:37:04Z</time>
      </trkpt>
      <trkpt lat="45.10319" lon="2.65727">
        <ele>1591.3</ele>
        <time>2021-08-11T10:37:05Z</time>
      </trkpt>
      <trkpt lat="45.10319" lon="2.65728">
        <ele>1591.5</ele>
        <time>2021-08-11T10:37:06Z</time>
      </trkpt>
      <trkpt lat="45.1032" lon="2.65729">
        <ele>1591.6</ele>
        <time>2021-08-11T10:37:07Z</time>
      </trkpt>
      <trkpt lat="45.1032" lon="2.65729">
        <ele>1591.9</ele>
        <time>2021-08-11T10:37:08Z</time>
      </trkpt>
      <trkpt lat="45.10321" lon="2.6573">
        <ele>1592</ele>
        <time>2021-08-11T10:37:09Z</time>
      </trkpt>
      <trkpt lat="45.10321" lon="2.6573">
        <ele>1592.2</ele>
        <time>2021-08-11T10:37:10Z</time>
      </trkpt>
      <trkpt lat="45.10322" lon="2.6573">
        <ele>1592.4</ele>
        <time>2021-08-11T10:37:11Z</time>
      </trkpt>
      <trkpt lat="45.10322" lon="2.65731">
        <ele>1592.3</ele>
        <time>2021-08-11T10:37:12Z</time>
      </trkpt>
      <trkpt lat="45.10322" lon="2.65731">
        <ele>1592.5</ele>
        <time>2021-08-11T10:37:13Z</time>
      </trkpt>
      <trkpt lat="45.10322" lon="2.65731">
        <ele>1592.4</ele>
        <time>2021-08-11T10:37:14Z</time>
      </trkpt>
      <trkpt lat="45.10322" lon="2.65731">
        <ele>1592.6</ele>
        <time>2021-08-11T10:37:15Z</time>
      </trkpt>
      <trkpt lat="45.10323" lon="2.65731">
        <ele>1592.8</ele>
        <time>2021-08-11T10:37:16Z</time>
      </trkpt>
      <trkpt lat="45.10323" lon="2.65732">
        <ele>1593</ele>
        <time>2021-08-11T10:37:17Z</time>
      </trkpt>
      <trkpt lat="45.10323" lon="2.65732">
        <ele>1593.2</ele>
        <time>2021-08-11T10:37:18Z</time>
      </trkpt>
      <trkpt lat="45.10323" lon="2.65732">
        <ele>1593.4</ele>
        <time>2021-08-11T10:37:19Z</time>
      </trkpt>
      <trkpt lat="45.10324" lon="2.65732">
        <ele>1593.9</ele>
        <time>2021-08-11T10:37:20Z</time>
      </trkpt>
      <trkpt lat="45.10325" lon="2.65732">
        <ele>1594.2</ele>
        <time>2021-08-11T10:37:21Z</time>
      </trkpt>
      <trkpt lat="45.10325" lon="2.65732">
        <ele>1594.4</ele>
        <time>2021-08-11T10:37:22Z</time>
      </trkpt>
      <trkpt lat="45.10325" lon="2.65732">
        <ele>1594.5</ele>
        <time>2021-08-11T10:37:23Z</time>
      </trkpt>
      <trkpt lat="45.10325" lon="2.65733">
        <ele>1594.6</ele>
        <time>2021-08-11T10:37:24Z</time>
      </trkpt>
      <trkpt lat="45.10326" lon="2.65733">
        <ele>1594.6</ele>
        <time>2021-08-11T10:37:25Z</time>
      </trkpt>
      <trkpt lat="45.10326" lon="2.65734">
        <ele>1594.5</ele>
        <time>2021-08-11T10:37:26Z</time>
      </trkpt>
      <trkpt lat="45.10326" lon="2.65735">
        <ele>1594.2</ele>
        <time>2021-08-11T10:37:27Z</time>
      </trkpt>
      <trkpt lat="45.10326" lon="2.65736">
        <ele>1593.8</ele>
        <time>2021-08-11T10:37:28Z</time>
      </trkpt>
      <trkpt lat="45.10326" lon="2.65737">
        <ele>1593.5</ele>
        <time>2021-08-11T10:37:29Z</time>
      </trkpt>
      <trkpt lat="45.10326" lon="2.65739">
        <ele>1593.2</ele>
        <time>2021-08-11T10:37:30Z</time>
      </trkpt>
      <trkpt lat="45.10326" lon="2.6574">
        <ele>1592.8</ele>
        <time>2021-08-11T10:37:31Z</time>
      </trkpt>
      <trkpt lat="45.10326" lon="2.65741">
        <ele>1592.4</ele>
        <time>2021-08-11T10:37:32Z</time>
      </trkpt>
      <trkpt lat="45.10326" lon="2.65743">
        <ele>1592.1</ele>
        <time>2021-08-11T10:37:33Z</time>
      </trkpt>
      <trkpt lat="45.10326" lon="2.65744">
        <ele>1591.9</ele>
        <time>2021-08-11T10:37:34Z</time>
      </trkpt>
      <trkpt lat="45.10326" lon="2.65746">
        <ele>1591.6</ele>
        <time>2021-08-11T10:37:35Z</time>
      </trkpt>
      <trkpt lat="45.10326" lon="2.65746">
        <ele>1591.3</ele>
        <time>2021-08-11T10:37:36Z</time>
      </trkpt>
      <trkpt lat="45.10326" lon="2.65746">
        <ele>1591.2</ele>
        <time>2021-08-11T10:37:37Z</time>
      </trkpt>
      <trkpt lat="45.10326" lon="2.65746">
        <ele>1591.2</ele>
        <time>2021-08-11T10:37:38Z</time>
      </trkpt>
      <trkpt lat="45.10326" lon="2.65746">
        <ele>1591.4</ele>
        <time>2021-08-11T10:37:39Z</time>
      </trkpt>
      <trkpt lat="45.10326" lon="2.65746">
        <ele>1591.5</ele>
        <time>2021-08-11T10:37:40Z</time>
      </trkpt>
      <trkpt lat="45.10326" lon="2.65747">
        <ele>1591.6</ele>
        <time>2021-08-11T10:37:41Z</time>
      </trkpt>
      <trkpt lat="45.10327" lon="2.65747">
        <ele>1591.7</ele>
        <time>2021-08-11T10:37:42Z</time>
      </trkpt>
      <trkpt lat="45.10327" lon="2.65748">
        <ele>1591.8</ele>
        <time>2021-08-11T10:37:43Z</time>
      </trkpt>
      <trkpt lat="45.10327" lon="2.65748">
        <ele>1591.6</ele>
        <time>2021-08-11T10:37:44Z</time>
      </trkpt>
      <trkpt lat="45.10326" lon="2.65748">
        <ele>1591.2</ele>
        <time>2021-08-11T10:37:45Z</time>
      </trkpt>
      <trkpt lat="45.10326" lon="2.65748">
        <ele>1591</ele>
        <time>2021-08-11T10:37:46Z</time>
      </trkpt>
      <trkpt lat="45.10326" lon="2.65748">
        <ele>1590.8</ele>
        <time>2021-08-11T10:37:47Z</time>
      </trkpt>
      <trkpt lat="45.10325" lon="2.65748">
        <ele>1590.7</ele>
        <time>2021-08-11T10:37:48Z</time>
      </trkpt>
      <trkpt lat="45.10325" lon="2.65748">
        <ele>1590.6</ele>
        <time>2021-08-11T10:37:49Z</time>
      </trkpt>
      <trkpt lat="45.10325" lon="2.65747">
        <ele>1590.5</ele>
        <time>2021-08-11T10:37:50Z</time>
      </trkpt>
      <trkpt lat="45.10325" lon="2.65747">
        <ele>1590.5</ele>
        <time>2021-08-11T10:37:51Z</time>
      </trkpt>
      <trkpt lat="45.10325" lon="2.65747">
        <ele>1590.5</ele>
        <time>2021-08-11T10:37:52Z</time>
      </trkpt>
      <trkpt lat="45.10325" lon="2.65747">
        <ele>1590.5</ele>
        <time>2021-08-11T10:37:53Z</time>
      </trkpt>
      <trkpt lat="45.10325" lon="2.65747">
        <ele>1590.5</ele>
        <time>2021-08-11T10:37:54Z</time>
      </trkpt>
      <trkpt lat="45.10325" lon="2.65747">
        <ele>1590.5</ele>
        <time>2021-08-11T10:37:55Z</time>
      </trkpt>
      <trkpt lat="45.10325" lon="2.65747">
        <ele>1590.6</ele>
        <time>2021-08-11T10:37:56Z</time>
      </trkpt>
      <trkpt lat="45.10325" lon="2.65747">
        <ele>1590.7</ele>
        <time>2021-08-11T10:37:57Z</time>
      </trkpt>
      <trkpt lat="45.10325" lon="2.65747">
        <ele>1590.8</ele>
        <time>2021-08-11T10:37:58Z</time>
      </trkpt>
      <trkpt lat="45.10325" lon="2.65747">
        <ele>1590.8</ele>
        <time>2021-08-11T10:37:59Z</time>
      </trkpt>
      <trkpt lat="45.10326" lon="2.65747">
        <ele>1590.9</ele>
        <time>2021-08-11T10:38:00Z</time>
      </trkpt>
      <trkpt lat="45.10326" lon="2.65748">
        <ele>1590.9</ele>
        <time>2021-08-11T10:38:01Z</time>
      </trkpt>
      <trkpt lat="45.10326" lon="2.65748">
        <ele>1590.9</ele>
        <time>2021-08-11T10:38:02Z</time>
      </trkpt>
      <trkpt lat="45.10326" lon="2.65748">
        <ele>1590.9</ele>
        <time>2021-08-11T10:38:03Z</time>
      </trkpt>
      <trkpt lat="45.10326" lon="2.65748">
        <ele>1590.9</ele>
        <time>2021-08-11T10:38:04Z</time>
      </trkpt>
      <trkpt lat="45.10326" lon="2.65748">
        <ele>1590.9</ele>
        <time>2021-08-11T10:38:05Z</time>
      </trkpt>
      <trkpt lat="45.10326" lon="2.65748">
        <ele>1590.9</ele>
        <time>2021-08-11T10:38:06Z</time>
      </trkpt>
      <trkpt lat="45.10326" lon="2.65748">
        <ele>1590.9</ele>
        <time>2021-08-11T10:38:07Z</time>
      </trkpt>
      <trkpt lat="45.10326" lon="2.65748">
        <ele>1590.9</ele>
        <time>2021-08-11T10:38:08Z</time>
      </trkpt>
      <trkpt lat="45.10326" lon="2.65748">
        <ele>1590.9</ele>
        <time>2021-08-11T10:38:09Z</time>
      </trkpt>
      <trkpt lat="45.10326" lon="2.65748">
        <ele>1590.9</ele>
        <time>2021-08-11T10:38:10Z</time>
      </trkpt>
      <trkpt lat="45.10326" lon="2.65748">
        <ele>1590.9</ele>
        <time>2021-08-11T10:38:11Z</time>
      </trkpt>
      <trkpt lat="45.10326" lon="2.65748">
        <ele>1590.9</ele>
        <time>2021-08-11T10:38:12Z</time>
      </trkpt>
      <trkpt lat="45.10326" lon="2.65748">
        <ele>1590.9</ele>
        <time>2021-08-11T10:38:13Z</time>
      </trkpt>
      <trkpt lat="45.10326" lon="2.65748">
        <ele>1590.9</ele>
        <time>2021-08-11T10:38:14Z</time>
      </trkpt>
      <trkpt lat="45.10326" lon="2.65748">
        <ele>1590.9</ele>
        <time>2021-08-11T10:38:15Z</time>
      </trkpt>
      <trkpt lat="45.10326" lon="2.65748">
        <ele>1591.3</ele>
        <time>2021-08-11T10:38:16Z</time>
      </trkpt>
      <trkpt lat="45.10327" lon="2.65748">
        <ele>1591.6</ele>
        <time>2021-08-11T10:38:17Z</time>
      </trkpt>
      <trkpt lat="45.10327" lon="2.65749">
        <ele>1591.7</ele>
        <time>2021-08-11T10:38:18Z</time>
      </trkpt>
      <trkpt lat="45.10328" lon="2.6575">
        <ele>1591.9</ele>
        <time>2021-08-11T10:38:19Z</time>
      </trkpt>
      <trkpt lat="45.10328" lon="2.65751">
        <ele>1591.8</ele>
        <time>2021-08-11T10:38:20Z</time>
      </trkpt>
      <trkpt lat="45.10328" lon="2.65751">
        <ele>1591.9</ele>
        <time>2021-08-11T10:38:21Z</time>
      </trkpt>
      <trkpt lat="45.10329" lon="2.65752">
        <ele>1591.7</ele>
        <time>2021-08-11T10:38:22Z</time>
      </trkpt>
      <trkpt lat="45.10329" lon="2.65753">
        <ele>1591.5</ele>
        <time>2021-08-11T10:38:23Z</time>
      </trkpt>
      <trkpt lat="45.10329" lon="2.65754">
        <ele>1591.3</ele>
        <time>2021-08-11T10:38:24Z</time>
      </trkpt>
      <trkpt lat="45.10329" lon="2.65755">
        <ele>1591.2</ele>
        <time>2021-08-11T10:38:25Z</time>
      </trkpt>
      <trkpt lat="45.10329" lon="2.65756">
        <ele>1590.9</ele>
        <time>2021-08-11T10:38:26Z</time>
      </trkpt>
      <trkpt lat="45.10329" lon="2.65757">
        <ele>1590.5</ele>
        <time>2021-08-11T10:38:27Z</time>
      </trkpt>
      <trkpt lat="45.10329" lon="2.65758">
        <ele>1590.2</ele>
        <time>2021-08-11T10:38:28Z</time>
      </trkpt>
      <trkpt lat="45.10329" lon="2.65759">
        <ele>1589.8</ele>
        <time>2021-08-11T10:38:29Z</time>
      </trkpt>
      <trkpt lat="45.10329" lon="2.6576">
        <ele>1589.5</ele>
        <time>2021-08-11T10:38:30Z</time>
      </trkpt>
      <trkpt lat="45.10329" lon="2.65761">
        <ele>1589.3</ele>
        <time>2021-08-11T10:38:31Z</time>
      </trkpt>
      <trkpt lat="45.10329" lon="2.65762">
        <ele>1589.2</ele>
        <time>2021-08-11T10:38:32Z</time>
      </trkpt>
      <trkpt lat="45.10329" lon="2.65763">
        <ele>1589.2</ele>
        <time>2021-08-11T10:38:33Z</time>
      </trkpt>
      <trkpt lat="45.1033" lon="2.65763">
        <ele>1589.1</ele>
        <time>2021-08-11T10:38:34Z</time>
      </trkpt>
      <trkpt lat="45.1033" lon="2.65764">
        <ele>1589.4</ele>
        <time>2021-08-11T10:38:35Z</time>
      </trkpt>
      <trkpt lat="45.10331" lon="2.65765">
        <ele>1589.4</ele>
        <time>2021-08-11T10:38:36Z</time>
      </trkpt>
      <trkpt lat="45.10331" lon="2.65767">
        <ele>1589.4</ele>
        <time>2021-08-11T10:38:37Z</time>
      </trkpt>
      <trkpt lat="45.10332" lon="2.65768">
        <ele>1589.4</ele>
        <time>2021-08-11T10:38:38Z</time>
      </trkpt>
      <trkpt lat="45.10332" lon="2.65769">
        <ele>1589.4</ele>
        <time>2021-08-11T10:38:39Z</time>
      </trkpt>
      <trkpt lat="45.10333" lon="2.6577">
        <ele>1589.5</ele>
        <time>2021-08-11T10:38:40Z</time>
      </trkpt>
      <trkpt lat="45.10333" lon="2.65771">
        <ele>1589.4</ele>
        <time>2021-08-11T10:38:41Z</time>
      </trkpt>
      <trkpt lat="45.10333" lon="2.65772">
        <ele>1589.2</ele>
        <time>2021-08-11T10:38:42Z</time>
      </trkpt>
      <trkpt lat="45.10334" lon="2.65773">
        <ele>1589</ele>
        <time>2021-08-11T10:38:43Z</time>
      </trkpt>
      <trkpt lat="45.10334" lon="2.65774">
        <ele>1588.5</ele>
        <time>2021-08-11T10:38:44Z</time>
      </trkpt>
      <trkpt lat="45.10334" lon="2.65776">
        <ele>1588.2</ele>
        <time>2021-08-11T10:38:45Z</time>
      </trkpt>
      <trkpt lat="45.10334" lon="2.65777">
        <ele>1588.1</ele>
        <time>2021-08-11T10:38:46Z</time>
      </trkpt>
      <trkpt lat="45.10334" lon="2.65778">
        <ele>1587.8</ele>
        <time>2021-08-11T10:38:47Z</time>
      </trkpt>
      <trkpt lat="45.10335" lon="2.65779">
        <ele>1587.7</ele>
        <time>2021-08-11T10:38:48Z</time>
      </trkpt>
      <trkpt lat="45.10335" lon="2.6578">
        <ele>1587.5</ele>
        <time>2021-08-11T10:38:49Z</time>
      </trkpt>
      <trkpt lat="45.10335" lon="2.6578">
        <ele>1587.4</ele>
        <time>2021-08-11T10:38:50Z</time>
      </trkpt>
      <trkpt lat="45.10335" lon="2.65781">
        <ele>1587.3</ele>
        <time>2021-08-11T10:38:51Z</time>
      </trkpt>
      <trkpt lat="45.10336" lon="2.65782">
        <ele>1587.2</ele>
        <time>2021-08-11T10:38:52Z</time>
      </trkpt>
      <trkpt lat="45.10336" lon="2.65783">
        <ele>1586.9</ele>
        <time>2021-08-11T10:38:53Z</time>
      </trkpt>
      <trkpt lat="45.10336" lon="2.65783">
        <ele>1586.9</ele>
        <time>2021-08-11T10:38:54Z</time>
      </trkpt>
      <trkpt lat="45.10336" lon="2.65784">
        <ele>1586.7</ele>
        <time>2021-08-11T10:38:55Z</time>
      </trkpt>
      <trkpt lat="45.10336" lon="2.65785">
        <ele>1586.6</ele>
        <time>2021-08-11T10:38:56Z</time>
      </trkpt>
      <trkpt lat="45.10337" lon="2.65786">
        <ele>1586.6</ele>
        <time>2021-08-11T10:38:57Z</time>
      </trkpt>
      <trkpt lat="45.10337" lon="2.65786">
        <ele>1586.7</ele>
        <time>2021-08-11T10:38:58Z</time>
      </trkpt>
      <trkpt lat="45.10338" lon="2.65786">
        <ele>1587.1</ele>
        <time>2021-08-11T10:38:59Z</time>
      </trkpt>
      <trkpt lat="45.10338" lon="2.65786">
        <ele>1587.2</ele>
        <time>2021-08-11T10:39:00Z</time>
      </trkpt>
      <trkpt lat="45.10338" lon="2.65787">
        <ele>1587.1</ele>
        <time>2021-08-11T10:39:01Z</time>
      </trkpt>
      <trkpt lat="45.10338" lon="2.65788">
        <ele>1586.6</ele>
        <time>2021-08-11T10:39:02Z</time>
      </trkpt>
      <trkpt lat="45.10338" lon="2.65788">
        <ele>1586.1</ele>
        <time>2021-08-11T10:39:03Z</time>
      </trkpt>
      <trkpt lat="45.10337" lon="2.6579">
        <ele>1585.7</ele>
        <time>2021-08-11T10:39:04Z</time>
      </trkpt>
      <trkpt lat="45.10337" lon="2.65791">
        <ele>1585.1</ele>
        <time>2021-08-11T10:39:05Z</time>
      </trkpt>
      <trkpt lat="45.10337" lon="2.65793">
        <ele>1584.3</ele>
        <time>2021-08-11T10:39:06Z</time>
      </trkpt>
      <trkpt lat="45.10336" lon="2.65794">
        <ele>1583.8</ele>
        <time>2021-08-11T10:39:07Z</time>
      </trkpt>
      <trkpt lat="45.10336" lon="2.65796">
        <ele>1583.2</ele>
        <time>2021-08-11T10:39:08Z</time>
      </trkpt>
      <trkpt lat="45.10336" lon="2.65797">
        <ele>1582.7</ele>
        <time>2021-08-11T10:39:09Z</time>
      </trkpt>
      <trkpt lat="45.10336" lon="2.65798">
        <ele>1582.2</ele>
        <time>2021-08-11T10:39:10Z</time>
      </trkpt>
      <trkpt lat="45.10336" lon="2.658">
        <ele>1581.8</ele>
        <time>2021-08-11T10:39:11Z</time>
      </trkpt>
      <trkpt lat="45.10336" lon="2.65801">
        <ele>1581.6</ele>
        <time>2021-08-11T10:39:12Z</time>
      </trkpt>
      <trkpt lat="45.10337" lon="2.65802">
        <ele>1581.4</ele>
        <time>2021-08-11T10:39:13Z</time>
      </trkpt>
      <trkpt lat="45.10337" lon="2.65803">
        <ele>1581.3</ele>
        <time>2021-08-11T10:39:14Z</time>
      </trkpt>
      <trkpt lat="45.10337" lon="2.65804">
        <ele>1581</ele>
        <time>2021-08-11T10:39:15Z</time>
      </trkpt>
      <trkpt lat="45.10337" lon="2.65805">
        <ele>1580.6</ele>
        <time>2021-08-11T10:39:16Z</time>
      </trkpt>
      <trkpt lat="45.10337" lon="2.65806">
        <ele>1580.3</ele>
        <time>2021-08-11T10:39:17Z</time>
      </trkpt>
      <trkpt lat="45.10337" lon="2.65808">
        <ele>1579.9</ele>
        <time>2021-08-11T10:39:18Z</time>
      </trkpt>
      <trkpt lat="45.10337" lon="2.65809">
        <ele>1579.7</ele>
        <time>2021-08-11T10:39:19Z</time>
      </trkpt>
      <trkpt lat="45.10338" lon="2.65809">
        <ele>1579.6</ele>
        <time>2021-08-11T10:39:20Z</time>
      </trkpt>
      <trkpt lat="45.10338" lon="2.6581">
        <ele>1579.4</ele>
        <time>2021-08-11T10:39:21Z</time>
      </trkpt>
      <trkpt lat="45.10338" lon="2.65811">
        <ele>1579.1</ele>
        <time>2021-08-11T10:39:22Z</time>
      </trkpt>
      <trkpt lat="45.10338" lon="2.65812">
        <ele>1578.9</ele>
        <time>2021-08-11T10:39:23Z</time>
      </trkpt>
      <trkpt lat="45.10338" lon="2.65813">
        <ele>1578.5</ele>
        <time>2021-08-11T10:39:24Z</time>
      </trkpt>
      <trkpt lat="45.10337" lon="2.65814">
        <ele>1578.1</ele>
        <time>2021-08-11T10:39:25Z</time>
      </trkpt>
      <trkpt lat="45.10338" lon="2.65815">
        <ele>1577.9</ele>
        <time>2021-08-11T10:39:26Z</time>
      </trkpt>
      <trkpt lat="45.10338" lon="2.65816">
        <ele>1577.6</ele>
        <time>2021-08-11T10:39:27Z</time>
      </trkpt>
      <trkpt lat="45.10338" lon="2.65817">
        <ele>1577.4</ele>
        <time>2021-08-11T10:39:28Z</time>
      </trkpt>
      <trkpt lat="45.10338" lon="2.65818">
        <ele>1577.3</ele>
        <time>2021-08-11T10:39:29Z</time>
      </trkpt>
      <trkpt lat="45.10339" lon="2.65818">
        <ele>1577.4</ele>
        <time>2021-08-11T10:39:30Z</time>
      </trkpt>
      <trkpt lat="45.1034" lon="2.65818">
        <ele>1577.7</ele>
        <time>2021-08-11T10:39:31Z</time>
      </trkpt>
      <trkpt lat="45.1034" lon="2.65819">
        <ele>1577.9</ele>
        <time>2021-08-11T10:39:32Z</time>
      </trkpt>
      <trkpt lat="45.10341" lon="2.6582">
        <ele>1577.9</ele>
        <time>2021-08-11T10:39:33Z</time>
      </trkpt>
      <trkpt lat="45.10341" lon="2.65821">
        <ele>1577.8</ele>
        <time>2021-08-11T10:39:34Z</time>
      </trkpt>
      <trkpt lat="45.10341" lon="2.65821">
        <ele>1577.6</ele>
        <time>2021-08-11T10:39:35Z</time>
      </trkpt>
      <trkpt lat="45.10341" lon="2.65822">
        <ele>1577.3</ele>
        <time>2021-08-11T10:39:36Z</time>
      </trkpt>
      <trkpt lat="45.10341" lon="2.65823">
        <ele>1577.1</ele>
        <time>2021-08-11T10:39:37Z</time>
      </trkpt>
      <trkpt lat="45.10341" lon="2.65823">
        <ele>1576.7</ele>
        <time>2021-08-11T10:39:38Z</time>
      </trkpt>
      <trkpt lat="45.10341" lon="2.65824">
        <ele>1576.4</ele>
        <time>2021-08-11T10:39:39Z</time>
      </trkpt>
      <trkpt lat="45.10341" lon="2.65825">
        <ele>1576</ele>
        <time>2021-08-11T10:39:40Z</time>
      </trkpt>
      <trkpt lat="45.1034" lon="2.65826">
        <ele>1575.6</ele>
        <time>2021-08-11T10:39:41Z</time>
      </trkpt>
      <trkpt lat="45.1034" lon="2.65827">
        <ele>1575.2</ele>
        <time>2021-08-11T10:39:42Z</time>
      </trkpt>
      <trkpt lat="45.1034" lon="2.65829">
        <ele>1574.6</ele>
        <time>2021-08-11T10:39:43Z</time>
      </trkpt>
      <trkpt lat="45.10339" lon="2.6583">
        <ele>1574</ele>
        <time>2021-08-11T10:39:44Z</time>
      </trkpt>
      <trkpt lat="45.10339" lon="2.65831">
        <ele>1573.4</ele>
        <time>2021-08-11T10:39:45Z</time>
      </trkpt>
      <trkpt lat="45.10338" lon="2.65832">
        <ele>1572.9</ele>
        <time>2021-08-11T10:39:46Z</time>
      </trkpt>
      <trkpt lat="45.10338" lon="2.65833">
        <ele>1572.5</ele>
        <time>2021-08-11T10:39:47Z</time>
      </trkpt>
      <trkpt lat="45.10338" lon="2.65835">
        <ele>1572.1</ele>
        <time>2021-08-11T10:39:48Z</time>
      </trkpt>
      <trkpt lat="45.10339" lon="2.65836">
        <ele>1571.8</ele>
        <time>2021-08-11T10:39:49Z</time>
      </trkpt>
      <trkpt lat="45.10339" lon="2.65837">
        <ele>1571.6</ele>
        <time>2021-08-11T10:39:50Z</time>
      </trkpt>
      <trkpt lat="45.10339" lon="2.65838">
        <ele>1571.6</ele>
        <time>2021-08-11T10:39:51Z</time>
      </trkpt>
      <trkpt lat="45.1034" lon="2.65838">
        <ele>1571.8</ele>
        <time>2021-08-11T10:39:52Z</time>
      </trkpt>
      <trkpt lat="45.1034" lon="2.65839">
        <ele>1571.6</ele>
        <time>2021-08-11T10:39:53Z</time>
      </trkpt>
      <trkpt lat="45.1034" lon="2.65839">
        <ele>1571.5</ele>
        <time>2021-08-11T10:39:54Z</time>
      </trkpt>
      <trkpt lat="45.1034" lon="2.6584">
        <ele>1571.2</ele>
        <time>2021-08-11T10:39:55Z</time>
      </trkpt>
      <trkpt lat="45.1034" lon="2.65841">
        <ele>1571</ele>
        <time>2021-08-11T10:39:56Z</time>
      </trkpt>
      <trkpt lat="45.1034" lon="2.65841">
        <ele>1570.9</ele>
        <time>2021-08-11T10:39:57Z</time>
      </trkpt>
      <trkpt lat="45.1034" lon="2.65841">
        <ele>1570.7</ele>
        <time>2021-08-11T10:39:58Z</time>
      </trkpt>
      <trkpt lat="45.1034" lon="2.65841">
        <ele>1570.8</ele>
        <time>2021-08-11T10:39:59Z</time>
      </trkpt>
      <trkpt lat="45.1034" lon="2.65841">
        <ele>1570.6</ele>
        <time>2021-08-11T10:40:00Z</time>
      </trkpt>
      <trkpt lat="45.10339" lon="2.65842">
        <ele>1570.3</ele>
        <time>2021-08-11T10:40:01Z</time>
      </trkpt>
      <trkpt lat="45.10339" lon="2.65843">
        <ele>1570</ele>
        <time>2021-08-11T10:40:02Z</time>
      </trkpt>
      <trkpt lat="45.10339" lon="2.65843">
        <ele>1569.9</ele>
        <time>2021-08-11T10:40:03Z</time>
      </trkpt>
      <trkpt lat="45.10339" lon="2.65844">
        <ele>1569.6</ele>
        <time>2021-08-11T10:40:04Z</time>
      </trkpt>
      <trkpt lat="45.10339" lon="2.65845">
        <ele>1569.2</ele>
        <time>2021-08-11T10:40:05Z</time>
      </trkpt>
      <trkpt lat="45.10338" lon="2.65845">
        <ele>1568.8</ele>
        <time>2021-08-11T10:40:06Z</time>
      </trkpt>
      <trkpt lat="45.10339" lon="2.65846">
        <ele>1568.7</ele>
        <time>2021-08-11T10:40:07Z</time>
      </trkpt>
      <trkpt lat="45.10339" lon="2.65847">
        <ele>1568.4</ele>
        <time>2021-08-11T10:40:08Z</time>
      </trkpt>
      <trkpt lat="45.10339" lon="2.65848">
        <ele>1568.2</ele>
        <time>2021-08-11T10:40:09Z</time>
      </trkpt>
      <trkpt lat="45.10339" lon="2.65849">
        <ele>1567.8</ele>
        <time>2021-08-11T10:40:10Z</time>
      </trkpt>
      <trkpt lat="45.10339" lon="2.6585">
        <ele>1567.6</ele>
        <time>2021-08-11T10:40:11Z</time>
      </trkpt>
      <trkpt lat="45.10339" lon="2.65851">
        <ele>1567.5</ele>
        <time>2021-08-11T10:40:12Z</time>
      </trkpt>
      <trkpt lat="45.1034" lon="2.65852">
        <ele>1567.4</ele>
        <time>2021-08-11T10:40:13Z</time>
      </trkpt>
      <trkpt lat="45.1034" lon="2.65852">
        <ele>1567.4</ele>
        <time>2021-08-11T10:40:14Z</time>
      </trkpt>
      <trkpt lat="45.1034" lon="2.65852">
        <ele>1567.3</ele>
        <time>2021-08-11T10:40:15Z</time>
      </trkpt>
      <trkpt lat="45.1034" lon="2.65852">
        <ele>1567.4</ele>
        <time>2021-08-11T10:40:16Z</time>
      </trkpt>
      <trkpt lat="45.1034" lon="2.65853">
        <ele>1567.2</ele>
        <time>2021-08-11T10:40:17Z</time>
      </trkpt>
      <trkpt lat="45.10339" lon="2.65853">
        <ele>1567.1</ele>
        <time>2021-08-11T10:40:18Z</time>
      </trkpt>
      <trkpt lat="45.10339" lon="2.65854">
        <ele>1566.9</ele>
        <time>2021-08-11T10:40:19Z</time>
      </trkpt>
      <trkpt lat="45.10339" lon="2.65854">
        <ele>1566.8</ele>
        <time>2021-08-11T10:40:20Z</time>
      </trkpt>
      <trkpt lat="45.10339" lon="2.65855">
        <ele>1566.4</ele>
        <time>2021-08-11T10:40:21Z</time>
      </trkpt>
      <trkpt lat="45.10339" lon="2.65856">
        <ele>1566.2</ele>
        <time>2021-08-11T10:40:22Z</time>
      </trkpt>
      <trkpt lat="45.10339" lon="2.65857">
        <ele>1566</ele>
        <time>2021-08-11T10:40:23Z</time>
      </trkpt>
      <trkpt lat="45.1034" lon="2.65858">
        <ele>1565.7</ele>
        <time>2021-08-11T10:40:24Z</time>
      </trkpt>
      <trkpt lat="45.1034" lon="2.65859">
        <ele>1565.6</ele>
        <time>2021-08-11T10:40:25Z</time>
      </trkpt>
      <trkpt lat="45.1034" lon="2.65859">
        <ele>1565.4</ele>
        <time>2021-08-11T10:40:26Z</time>
      </trkpt>
      <trkpt lat="45.1034" lon="2.6586">
        <ele>1565.3</ele>
        <time>2021-08-11T10:40:27Z</time>
      </trkpt>
      <trkpt lat="45.1034" lon="2.6586">
        <ele>1565.3</ele>
        <time>2021-08-11T10:40:28Z</time>
      </trkpt>
      <trkpt lat="45.1034" lon="2.6586">
        <ele>1565.3</ele>
        <time>2021-08-11T10:40:29Z</time>
      </trkpt>
      <trkpt lat="45.1034" lon="2.6586">
        <ele>1565.4</ele>
        <time>2021-08-11T10:40:30Z</time>
      </trkpt>
      <trkpt lat="45.1034" lon="2.6586">
        <ele>1565.4</ele>
        <time>2021-08-11T10:40:31Z</time>
      </trkpt>
      <trkpt lat="45.1034" lon="2.6586">
        <ele>1565.4</ele>
        <time>2021-08-11T10:40:32Z</time>
      </trkpt>
      <trkpt lat="45.1034" lon="2.6586">
        <ele>1565.4</ele>
        <time>2021-08-11T10:40:33Z</time>
      </trkpt>
      <trkpt lat="45.1034" lon="2.6586">
        <ele>1565.4</ele>
        <time>2021-08-11T10:40:34Z</time>
      </trkpt>
      <trkpt lat="45.1034" lon="2.6586">
        <ele>1565.4</ele>
        <time>2021-08-11T10:40:35Z</time>
      </trkpt>
      <trkpt lat="45.1034" lon="2.6586">
        <ele>1565.4</ele>
        <time>2021-08-11T10:40:36Z</time>
      </trkpt>
      <trkpt lat="45.1034" lon="2.6586">
        <ele>1565.4</ele>
        <time>2021-08-11T10:40:37Z</time>
      </trkpt>
      <trkpt lat="45.1034" lon="2.6586">
        <ele>1565.4</ele>
        <time>2021-08-11T10:40:38Z</time>
      </trkpt>
      <trkpt lat="45.1034" lon="2.6586">
        <ele>1565.4</ele>
        <time>2021-08-11T10:40:39Z</time>
      </trkpt>
      <trkpt lat="45.1034" lon="2.6586">
        <ele>1565.4</ele>
        <time>2021-08-11T10:40:40Z</time>
      </trkpt>
      <trkpt lat="45.1034" lon="2.6586">
        <ele>1565.4</ele>
        <time>2021-08-11T10:40:41Z</time>
      </trkpt>
      <trkpt lat="45.1034" lon="2.6586">
        <ele>1565.4</ele>
        <time>2021-08-11T10:40:42Z</time>
      </trkpt>
      <trkpt lat="45.1034" lon="2.6586">
        <ele>1565.4</ele>
        <time>2021-08-11T10:40:43Z</time>
      </trkpt>
      <trkpt lat="45.1034" lon="2.6586">
        <ele>1565.3</ele>
        <time>2021-08-11T10:40:44Z</time>
      </trkpt>
      <trkpt lat="45.1034" lon="2.65861">
        <ele>1565.1</ele>
        <time>2021-08-11T10:40:45Z</time>
      </trkpt>
      <trkpt lat="45.1034" lon="2.65862">
        <ele>1564.8</ele>
        <time>2021-08-11T10:40:46Z</time>
      </trkpt>
      <trkpt lat="45.1034" lon="2.65862">
        <ele>1564.5</ele>
        <time>2021-08-11T10:40:47Z</time>
      </trkpt>
      <trkpt lat="45.1034" lon="2.65863">
        <ele>1564.2</ele>
        <time>2021-08-11T10:40:48Z</time>
      </trkpt>
      <trkpt lat="45.1034" lon="2.65864">
        <ele>1564.1</ele>
        <time>2021-08-11T10:40:49Z</time>
      </trkpt>
      <trkpt lat="45.1034" lon="2.65865">
        <ele>1563.9</ele>
        <time>2021-08-11T10:40:50Z</time>
      </trkpt>
      <trkpt lat="45.1034" lon="2.65866">
        <ele>1563.7</ele>
        <time>2021-08-11T10:40:51Z</time>
      </trkpt>
      <trkpt lat="45.10341" lon="2.65866">
        <ele>1563.6</ele>
        <time>2021-08-11T10:40:52Z</time>
      </trkpt>
      <trkpt lat="45.10341" lon="2.65867">
        <ele>1563.5</ele>
        <time>2021-08-11T10:40:53Z</time>
      </trkpt>
      <trkpt lat="45.10341" lon="2.65868">
        <ele>1563.5</ele>
        <time>2021-08-11T10:40:54Z</time>
      </trkpt>
      <trkpt lat="45.10342" lon="2.65869">
        <ele>1563.5</ele>
        <time>2021-08-11T10:40:55Z</time>
      </trkpt>
      <trkpt lat="45.10342" lon="2.65869">
        <ele>1563.5</ele>
        <time>2021-08-11T10:40:56Z</time>
      </trkpt>
      <trkpt lat="45.10343" lon="2.65869">
        <ele>1563.7</ele>
        <time>2021-08-11T10:40:57Z</time>
      </trkpt>
      <trkpt lat="45.10343" lon="2.65869">
        <ele>1564</ele>
        <time>2021-08-11T10:40:58Z</time>
      </trkpt>
      <trkpt lat="45.10343" lon="2.65869">
        <ele>1564.1</ele>
        <time>2021-08-11T10:40:59Z</time>
      </trkpt>
      <trkpt lat="45.10344" lon="2.65869">
        <ele>1564.3</ele>
        <time>2021-08-11T10:41:00Z</time>
      </trkpt>
      <trkpt lat="45.10344" lon="2.6587">
        <ele>1564.3</ele>
        <time>2021-08-11T10:41:01Z</time>
      </trkpt>
      <trkpt lat="45.10345" lon="2.65871">
        <ele>1564.3</ele>
        <time>2021-08-11T10:41:02Z</time>
      </trkpt>
      <trkpt lat="45.10345" lon="2.65871">
        <ele>1564.3</ele>
        <time>2021-08-11T10:41:03Z</time>
      </trkpt>
      <trkpt lat="45.10345" lon="2.65872">
        <ele>1564.1</ele>
        <time>2021-08-11T10:41:04Z</time>
      </trkpt>
      <trkpt lat="45.10346" lon="2.65872">
        <ele>1564.3</ele>
        <time>2021-08-11T10:41:05Z</time>
      </trkpt>
      <trkpt lat="45.10346" lon="2.65872">
        <ele>1564.4</ele>
        <time>2021-08-11T10:41:06Z</time>
      </trkpt>
      <trkpt lat="45.10346" lon="2.65872">
        <ele>1564.5</ele>
        <time>2021-08-11T10:41:07Z</time>
      </trkpt>
      <trkpt lat="45.10346" lon="2.65873">
        <ele>1564.4</ele>
        <time>2021-08-11T10:41:08Z</time>
      </trkpt>
      <trkpt lat="45.10346" lon="2.65873">
        <ele>1564.3</ele>
        <time>2021-08-11T10:41:09Z</time>
      </trkpt>
      <trkpt lat="45.10346" lon="2.65873">
        <ele>1564.3</ele>
        <time>2021-08-11T10:41:10Z</time>
      </trkpt>
      <trkpt lat="45.10347" lon="2.65874">
        <ele>1564.2</ele>
        <time>2021-08-11T10:41:11Z</time>
      </trkpt>
      <trkpt lat="45.10347" lon="2.65874">
        <ele>1564.2</ele>
        <time>2021-08-11T10:41:12Z</time>
      </trkpt>
      <trkpt lat="45.10347" lon="2.65874">
        <ele>1564.2</ele>
        <time>2021-08-11T10:41:13Z</time>
      </trkpt>
      <trkpt lat="45.10347" lon="2.65874">
        <ele>1564.2</ele>
        <time>2021-08-11T10:41:14Z</time>
      </trkpt>
      <trkpt lat="45.10347" lon="2.65873">
        <ele>1564.3</ele>
        <time>2021-08-11T10:41:15Z</time>
      </trkpt>
      <trkpt lat="45.10347" lon="2.65873">
        <ele>1564.4</ele>
        <time>2021-08-11T10:41:16Z</time>
      </trkpt>
      <trkpt lat="45.10347" lon="2.65873">
        <ele>1564.5</ele>
        <time>2021-08-11T10:41:17Z</time>
      </trkpt>
      <trkpt lat="45.10347" lon="2.65873">
        <ele>1564.5</ele>
        <time>2021-08-11T10:41:18Z</time>
      </trkpt>
      <trkpt lat="45.10347" lon="2.65874">
        <ele>1564.5</ele>
        <time>2021-08-11T10:41:19Z</time>
      </trkpt>
      <trkpt lat="45.10347" lon="2.65874">
        <ele>1564.5</ele>
        <time>2021-08-11T10:41:20Z</time>
      </trkpt>
      <trkpt lat="45.10348" lon="2.65874">
        <ele>1564.5</ele>
        <time>2021-08-11T10:41:21Z</time>
      </trkpt>
      <trkpt lat="45.10348" lon="2.65875">
        <ele>1564.4</ele>
        <time>2021-08-11T10:41:22Z</time>
      </trkpt>
      <trkpt lat="45.10348" lon="2.65876">
        <ele>1564.3</ele>
        <time>2021-08-11T10:41:23Z</time>
      </trkpt>
      <trkpt lat="45.10349" lon="2.65877">
        <ele>1564.2</ele>
        <time>2021-08-11T10:41:24Z</time>
      </trkpt>
      <trkpt lat="45.10349" lon="2.65878">
        <ele>1564.1</ele>
        <time>2021-08-11T10:41:25Z</time>
      </trkpt>
      <trkpt lat="45.10349" lon="2.65879">
        <ele>1563.9</ele>
        <time>2021-08-11T10:41:26Z</time>
      </trkpt>
      <trkpt lat="45.10349" lon="2.65879">
        <ele>1563.8</ele>
        <time>2021-08-11T10:41:27Z</time>
      </trkpt>
      <trkpt lat="45.1035" lon="2.6588">
        <ele>1563.7</ele>
        <time>2021-08-11T10:41:28Z</time>
      </trkpt>
      <trkpt lat="45.1035" lon="2.65881">
        <ele>1563.5</ele>
        <time>2021-08-11T10:41:29Z</time>
      </trkpt>
      <trkpt lat="45.1035" lon="2.65882">
        <ele>1563.4</ele>
        <time>2021-08-11T10:41:30Z</time>
      </trkpt>
      <trkpt lat="45.10351" lon="2.65883">
        <ele>1563.2</ele>
        <time>2021-08-11T10:41:31Z</time>
      </trkpt>
      <trkpt lat="45.10351" lon="2.65885">
        <ele>1563.1</ele>
        <time>2021-08-11T10:41:32Z</time>
      </trkpt>
      <trkpt lat="45.10351" lon="2.65886">
        <ele>1562.8</ele>
        <time>2021-08-11T10:41:33Z</time>
      </trkpt>
      <trkpt lat="45.10352" lon="2.65887">
        <ele>1562.7</ele>
        <time>2021-08-11T10:41:34Z</time>
      </trkpt>
      <trkpt lat="45.10352" lon="2.65888">
        <ele>1562.6</ele>
        <time>2021-08-11T10:41:35Z</time>
      </trkpt>
      <trkpt lat="45.10354" lon="2.6589">
        <ele>1562.7</ele>
        <time>2021-08-11T10:41:36Z</time>
      </trkpt>
      <trkpt lat="45.10355" lon="2.6589">
        <ele>1563</ele>
        <time>2021-08-11T10:41:37Z</time>
      </trkpt>
      <trkpt lat="45.10355" lon="2.65891">
        <ele>1563.2</ele>
        <time>2021-08-11T10:41:38Z</time>
      </trkpt>
      <trkpt lat="45.10356" lon="2.65892">
        <ele>1563.3</ele>
        <time>2021-08-11T10:41:39Z</time>
      </trkpt>
      <trkpt lat="45.10356" lon="2.65893">
        <ele>1563.2</ele>
        <time>2021-08-11T10:41:40Z</time>
      </trkpt>
      <trkpt lat="45.10357" lon="2.65893">
        <ele>1563.2</ele>
        <time>2021-08-11T10:41:41Z</time>
      </trkpt>
      <trkpt lat="45.10357" lon="2.65895">
        <ele>1563</ele>
        <time>2021-08-11T10:41:42Z</time>
      </trkpt>
      <trkpt lat="45.10358" lon="2.65896">
        <ele>1563</ele>
        <time>2021-08-11T10:41:43Z</time>
      </trkpt>
      <trkpt lat="45.10358" lon="2.65897">
        <ele>1562.8</ele>
        <time>2021-08-11T10:41:44Z</time>
      </trkpt>
      <trkpt lat="45.10359" lon="2.65898">
        <ele>1562.8</ele>
        <time>2021-08-11T10:41:45Z</time>
      </trkpt>
      <trkpt lat="45.1036" lon="2.65898">
        <ele>1563</ele>
        <time>2021-08-11T10:41:46Z</time>
      </trkpt>
      <trkpt lat="45.10361" lon="2.65899">
        <ele>1563.2</ele>
        <time>2021-08-11T10:41:47Z</time>
      </trkpt>
      <trkpt lat="45.10361" lon="2.65899">
        <ele>1563.4</ele>
        <time>2021-08-11T10:41:48Z</time>
      </trkpt>
      <trkpt lat="45.10362" lon="2.659">
        <ele>1563.6</ele>
        <time>2021-08-11T10:41:49Z</time>
      </trkpt>
      <trkpt lat="45.10363" lon="2.659">
        <ele>1563.9</ele>
        <time>2021-08-11T10:41:50Z</time>
      </trkpt>
      <trkpt lat="45.10364" lon="2.65901">
        <ele>1564.3</ele>
        <time>2021-08-11T10:41:51Z</time>
      </trkpt>
      <trkpt lat="45.10365" lon="2.65901">
        <ele>1564.8</ele>
        <time>2021-08-11T10:41:52Z</time>
      </trkpt>
      <trkpt lat="45.10366" lon="2.65901">
        <ele>1565.3</ele>
        <time>2021-08-11T10:41:53Z</time>
      </trkpt>
      <trkpt lat="45.10368" lon="2.65901">
        <ele>1565.8</ele>
        <time>2021-08-11T10:41:54Z</time>
      </trkpt>
      <trkpt lat="45.10369" lon="2.65902">
        <ele>1566.2</ele>
        <time>2021-08-11T10:41:55Z</time>
      </trkpt>
      <trkpt lat="45.1037" lon="2.65902">
        <ele>1566.5</ele>
        <time>2021-08-11T10:41:56Z</time>
      </trkpt>
      <trkpt lat="45.10371" lon="2.65903">
        <ele>1566.6</ele>
        <time>2021-08-11T10:41:57Z</time>
      </trkpt>
      <trkpt lat="45.10372" lon="2.65905">
        <ele>1566.6</ele>
        <time>2021-08-11T10:41:58Z</time>
      </trkpt>
      <trkpt lat="45.10372" lon="2.65906">
        <ele>1566.5</ele>
        <time>2021-08-11T10:41:59Z</time>
      </trkpt>
      <trkpt lat="45.10373" lon="2.65909">
        <ele>1566</ele>
        <time>2021-08-11T10:42:00Z</time>
      </trkpt>
      <trkpt lat="45.10374" lon="2.65912">
        <ele>1565.5</ele>
        <time>2021-08-11T10:42:01Z</time>
      </trkpt>
      <trkpt lat="45.10374" lon="2.65914">
        <ele>1565.1</ele>
        <time>2021-08-11T10:42:02Z</time>
      </trkpt>
      <trkpt lat="45.10375" lon="2.65916">
        <ele>1564.7</ele>
        <time>2021-08-11T10:42:03Z</time>
      </trkpt>
      <trkpt lat="45.10375" lon="2.65917">
        <ele>1564.4</ele>
        <time>2021-08-11T10:42:04Z</time>
      </trkpt>
      <trkpt lat="45.10376" lon="2.65919">
        <ele>1564</ele>
        <time>2021-08-11T10:42:05Z</time>
      </trkpt>
      <trkpt lat="45.10376" lon="2.6592">
        <ele>1563.6</ele>
        <time>2021-08-11T10:42:06Z</time>
      </trkpt>
      <trkpt lat="45.10376" lon="2.65922">
        <ele>1563</ele>
        <time>2021-08-11T10:42:07Z</time>
      </trkpt>
      <trkpt lat="45.10376" lon="2.65923">
        <ele>1562.6</ele>
        <time>2021-08-11T10:42:08Z</time>
      </trkpt>
      <trkpt lat="45.10376" lon="2.65924">
        <ele>1562.1</ele>
        <time>2021-08-11T10:42:09Z</time>
      </trkpt>
      <trkpt lat="45.10376" lon="2.65925">
        <ele>1561.8</ele>
        <time>2021-08-11T10:42:10Z</time>
      </trkpt>
      <trkpt lat="45.10376" lon="2.65926">
        <ele>1561.4</ele>
        <time>2021-08-11T10:42:11Z</time>
      </trkpt>
      <trkpt lat="45.10376" lon="2.65927">
        <ele>1561.1</ele>
        <time>2021-08-11T10:42:12Z</time>
      </trkpt>
      <trkpt lat="45.10375" lon="2.65928">
        <ele>1560.7</ele>
        <time>2021-08-11T10:42:13Z</time>
      </trkpt>
      <trkpt lat="45.10375" lon="2.65929">
        <ele>1560.4</ele>
        <time>2021-08-11T10:42:14Z</time>
      </trkpt>
      <trkpt lat="45.10375" lon="2.65931">
        <ele>1559.8</ele>
        <time>2021-08-11T10:42:15Z</time>
      </trkpt>
      <trkpt lat="45.10375" lon="2.65932">
        <ele>1559.2</ele>
        <time>2021-08-11T10:42:16Z</time>
      </trkpt>
      <trkpt lat="45.10374" lon="2.65933">
        <ele>1558.6</ele>
        <time>2021-08-11T10:42:17Z</time>
      </trkpt>
      <trkpt lat="45.10374" lon="2.65933">
        <ele>1558.1</ele>
        <time>2021-08-11T10:42:18Z</time>
      </trkpt>
      <trkpt lat="45.10373" lon="2.65934">
        <ele>1557.7</ele>
        <time>2021-08-11T10:42:19Z</time>
      </trkpt>
      <trkpt lat="45.10373" lon="2.65935">
        <ele>1557.3</ele>
        <time>2021-08-11T10:42:20Z</time>
      </trkpt>
      <trkpt lat="45.10373" lon="2.65936">
        <ele>1556.8</ele>
        <time>2021-08-11T10:42:21Z</time>
      </trkpt>
      <trkpt lat="45.10373" lon="2.65937">
        <ele>1556.6</ele>
        <time>2021-08-11T10:42:22Z</time>
      </trkpt>
      <trkpt lat="45.10373" lon="2.65937">
        <ele>1556.4</ele>
        <time>2021-08-11T10:42:23Z</time>
      </trkpt>
      <trkpt lat="45.10373" lon="2.65937">
        <ele>1556.3</ele>
        <time>2021-08-11T10:42:24Z</time>
      </trkpt>
      <trkpt lat="45.10372" lon="2.65937">
        <ele>1556.2</ele>
        <time>2021-08-11T10:42:25Z</time>
      </trkpt>
      <trkpt lat="45.10373" lon="2.65937">
        <ele>1556.3</ele>
        <time>2021-08-11T10:42:26Z</time>
      </trkpt>
      <trkpt lat="45.10373" lon="2.65937">
        <ele>1556.3</ele>
        <time>2021-08-11T10:42:27Z</time>
      </trkpt>
      <trkpt lat="45.10373" lon="2.65937">
        <ele>1556.3</ele>
        <time>2021-08-11T10:42:28Z</time>
      </trkpt>
      <trkpt lat="45.10373" lon="2.65937">
        <ele>1556.3</ele>
        <time>2021-08-11T10:42:29Z</time>
      </trkpt>
      <trkpt lat="45.10373" lon="2.65937">
        <ele>1556.5</ele>
        <time>2021-08-11T10:42:30Z</time>
      </trkpt>
      <trkpt lat="45.10373" lon="2.65936">
        <ele>1556.9</ele>
        <time>2021-08-11T10:42:31Z</time>
      </trkpt>
      <trkpt lat="45.10373" lon="2.65935">
        <ele>1557.2</ele>
        <time>2021-08-11T10:42:32Z</time>
      </trkpt>
      <trkpt lat="45.10373" lon="2.65934">
        <ele>1557.8</ele>
        <time>2021-08-11T10:42:33Z</time>
      </trkpt>
      <trkpt lat="45.10374" lon="2.65932">
        <ele>1558.6</ele>
        <time>2021-08-11T10:42:34Z</time>
      </trkpt>
      <trkpt lat="45.10374" lon="2.6593">
        <ele>1559.5</ele>
        <time>2021-08-11T10:42:35Z</time>
      </trkpt>
      <trkpt lat="45.10375" lon="2.65929">
        <ele>1560.5</ele>
        <time>2021-08-11T10:42:36Z</time>
      </trkpt>
      <trkpt lat="45.10376" lon="2.65927">
        <ele>1561.4</ele>
        <time>2021-08-11T10:42:37Z</time>
      </trkpt>
      <trkpt lat="45.10377" lon="2.65927">
        <ele>1562</ele>
        <time>2021-08-11T10:42:38Z</time>
      </trkpt>
      <trkpt lat="45.10378" lon="2.65926">
        <ele>1562.4</ele>
        <time>2021-08-11T10:42:39Z</time>
      </trkpt>
      <trkpt lat="45.10378" lon="2.65927">
        <ele>1562.5</ele>
        <time>2021-08-11T10:42:40Z</time>
      </trkpt>
      <trkpt lat="45.10378" lon="2.65927">
        <ele>1562.6</ele>
        <time>2021-08-11T10:42:41Z</time>
      </trkpt>
      <trkpt lat="45.10379" lon="2.65927">
        <ele>1562.6</ele>
        <time>2021-08-11T10:42:42Z</time>
      </trkpt>
      <trkpt lat="45.10379" lon="2.65927">
        <ele>1562.6</ele>
        <time>2021-08-11T10:42:43Z</time>
      </trkpt>
      <trkpt lat="45.10379" lon="2.65928">
        <ele>1562.7</ele>
        <time>2021-08-11T10:42:44Z</time>
      </trkpt>
      <trkpt lat="45.10379" lon="2.65928">
        <ele>1562.7</ele>
        <time>2021-08-11T10:42:45Z</time>
      </trkpt>
      <trkpt lat="45.1038" lon="2.65928">
        <ele>1562.7</ele>
        <time>2021-08-11T10:42:46Z</time>
      </trkpt>
      <trkpt lat="45.1038" lon="2.65928">
        <ele>1562.8</ele>
        <time>2021-08-11T10:42:47Z</time>
      </trkpt>
      <trkpt lat="45.1038" lon="2.65929">
        <ele>1562.9</ele>
        <time>2021-08-11T10:42:48Z</time>
      </trkpt>
      <trkpt lat="45.10381" lon="2.65929">
        <ele>1562.9</ele>
        <time>2021-08-11T10:42:49Z</time>
      </trkpt>
      <trkpt lat="45.10381" lon="2.6593">
        <ele>1563</ele>
        <time>2021-08-11T10:42:50Z</time>
      </trkpt>
      <trkpt lat="45.10382" lon="2.6593">
        <ele>1563.1</ele>
        <time>2021-08-11T10:42:51Z</time>
      </trkpt>
      <trkpt lat="45.10382" lon="2.65931">
        <ele>1563.1</ele>
        <time>2021-08-11T10:42:52Z</time>
      </trkpt>
      <trkpt lat="45.10383" lon="2.65931">
        <ele>1563.3</ele>
        <time>2021-08-11T10:42:53Z</time>
      </trkpt>
      <trkpt lat="45.10384" lon="2.65931">
        <ele>1563.6</ele>
        <time>2021-08-11T10:42:54Z</time>
      </trkpt>
      <trkpt lat="45.10384" lon="2.65932">
        <ele>1563.7</ele>
        <time>2021-08-11T10:42:55Z</time>
      </trkpt>
      <trkpt lat="45.10385" lon="2.65932">
        <ele>1563.9</ele>
        <time>2021-08-11T10:42:56Z</time>
      </trkpt>
      <trkpt lat="45.10386" lon="2.65933">
        <ele>1564</ele>
        <time>2021-08-11T10:42:57Z</time>
      </trkpt>
      <trkpt lat="45.10386" lon="2.65934">
        <ele>1563.9</ele>
        <time>2021-08-11T10:42:58Z</time>
      </trkpt>
      <trkpt lat="45.10387" lon="2.65935">
        <ele>1563.8</ele>
        <time>2021-08-11T10:42:59Z</time>
      </trkpt>
      <trkpt lat="45.10387" lon="2.65935">
        <ele>1563.7</ele>
        <time>2021-08-11T10:43:00Z</time>
      </trkpt>
      <trkpt lat="45.10387" lon="2.65936">
        <ele>1563.5</ele>
        <time>2021-08-11T10:43:01Z</time>
      </trkpt>
      <trkpt lat="45.10388" lon="2.65937">
        <ele>1563.3</ele>
        <time>2021-08-11T10:43:02Z</time>
      </trkpt>
      <trkpt lat="45.10388" lon="2.65938">
        <ele>1563.2</ele>
        <time>2021-08-11T10:43:03Z</time>
      </trkpt>
      <trkpt lat="45.10388" lon="2.65939">
        <ele>1563.1</ele>
        <time>2021-08-11T10:43:04Z</time>
      </trkpt>
      <trkpt lat="45.10389" lon="2.6594">
        <ele>1563</ele>
        <time>2021-08-11T10:43:05Z</time>
      </trkpt>
      <trkpt lat="45.10389" lon="2.65941">
        <ele>1562.8</ele>
        <time>2021-08-11T10:43:06Z</time>
      </trkpt>
      <trkpt lat="45.1039" lon="2.65942">
        <ele>1562.9</ele>
        <time>2021-08-11T10:43:07Z</time>
      </trkpt>
      <trkpt lat="45.1039" lon="2.65943">
        <ele>1562.8</ele>
        <time>2021-08-11T10:43:08Z</time>
      </trkpt>
      <trkpt lat="45.10391" lon="2.65943">
        <ele>1562.9</ele>
        <time>2021-08-11T10:43:09Z</time>
      </trkpt>
      <trkpt lat="45.10391" lon="2.65944">
        <ele>1562.9</ele>
        <time>2021-08-11T10:43:10Z</time>
      </trkpt>
      <trkpt lat="45.10392" lon="2.65945">
        <ele>1562.8</ele>
        <time>2021-08-11T10:43:11Z</time>
      </trkpt>
      <trkpt lat="45.10392" lon="2.65945">
        <ele>1562.8</ele>
        <time>2021-08-11T10:43:12Z</time>
      </trkpt>
      <trkpt lat="45.10392" lon="2.65946">
        <ele>1562.6</ele>
        <time>2021-08-11T10:43:13Z</time>
      </trkpt>
      <trkpt lat="45.10392" lon="2.65947">
        <ele>1562.2</ele>
        <time>2021-08-11T10:43:14Z</time>
      </trkpt>
      <trkpt lat="45.10392" lon="2.65947">
        <ele>1562.2</ele>
        <time>2021-08-11T10:43:15Z</time>
      </trkpt>
      <trkpt lat="45.10393" lon="2.65948">
        <ele>1562.1</ele>
        <time>2021-08-11T10:43:16Z</time>
      </trkpt>
      <trkpt lat="45.10393" lon="2.65949">
        <ele>1561.8</ele>
        <time>2021-08-11T10:43:17Z</time>
      </trkpt>
      <trkpt lat="45.10393" lon="2.6595">
        <ele>1561.6</ele>
        <time>2021-08-11T10:43:18Z</time>
      </trkpt>
      <trkpt lat="45.10393" lon="2.65951">
        <ele>1561.3</ele>
        <time>2021-08-11T10:43:19Z</time>
      </trkpt>
      <trkpt lat="45.10393" lon="2.65952">
        <ele>1561</ele>
        <time>2021-08-11T10:43:20Z</time>
      </trkpt>
      <trkpt lat="45.10394" lon="2.65953">
        <ele>1560.9</ele>
        <time>2021-08-11T10:43:21Z</time>
      </trkpt>
      <trkpt lat="45.10394" lon="2.65954">
        <ele>1560.7</ele>
        <time>2021-08-11T10:43:22Z</time>
      </trkpt>
      <trkpt lat="45.10394" lon="2.65955">
        <ele>1560.5</ele>
        <time>2021-08-11T10:43:23Z</time>
      </trkpt>
      <trkpt lat="45.10395" lon="2.65956">
        <ele>1560.3</ele>
        <time>2021-08-11T10:43:24Z</time>
      </trkpt>
      <trkpt lat="45.10395" lon="2.65957">
        <ele>1560</ele>
        <time>2021-08-11T10:43:25Z</time>
      </trkpt>
      <trkpt lat="45.10395" lon="2.65958">
        <ele>1559.9</ele>
        <time>2021-08-11T10:43:26Z</time>
      </trkpt>
      <trkpt lat="45.10396" lon="2.65959">
        <ele>1559.7</ele>
        <time>2021-08-11T10:43:27Z</time>
      </trkpt>
      <trkpt lat="45.10396" lon="2.6596">
        <ele>1559.5</ele>
        <time>2021-08-11T10:43:28Z</time>
      </trkpt>
      <trkpt lat="45.10396" lon="2.65961">
        <ele>1559.3</ele>
        <time>2021-08-11T10:43:29Z</time>
      </trkpt>
      <trkpt lat="45.10396" lon="2.65962">
        <ele>1559.1</ele>
        <time>2021-08-11T10:43:30Z</time>
      </trkpt>
      <trkpt lat="45.10396" lon="2.65963">
        <ele>1558.8</ele>
        <time>2021-08-11T10:43:31Z</time>
      </trkpt>
      <trkpt lat="45.10396" lon="2.65964">
        <ele>1558.4</ele>
        <time>2021-08-11T10:43:32Z</time>
      </trkpt>
      <trkpt lat="45.10397" lon="2.65965">
        <ele>1558.3</ele>
        <time>2021-08-11T10:43:33Z</time>
      </trkpt>
      <trkpt lat="45.10397" lon="2.65966">
        <ele>1558.1</ele>
        <time>2021-08-11T10:43:34Z</time>
      </trkpt>
      <trkpt lat="45.10397" lon="2.65967">
        <ele>1558</ele>
        <time>2021-08-11T10:43:35Z</time>
      </trkpt>
      <trkpt lat="45.10398" lon="2.65968">
        <ele>1557.8</ele>
        <time>2021-08-11T10:43:36Z</time>
      </trkpt>
      <trkpt lat="45.10398" lon="2.65969">
        <ele>1557.7</ele>
        <time>2021-08-11T10:43:37Z</time>
      </trkpt>
      <trkpt lat="45.10398" lon="2.6597">
        <ele>1557.5</ele>
        <time>2021-08-11T10:43:38Z</time>
      </trkpt>
      <trkpt lat="45.10399" lon="2.65971">
        <ele>1557.3</ele>
        <time>2021-08-11T10:43:39Z</time>
      </trkpt>
      <trkpt lat="45.10399" lon="2.65971">
        <ele>1557.1</ele>
        <time>2021-08-11T10:43:40Z</time>
      </trkpt>
      <trkpt lat="45.10399" lon="2.65972">
        <ele>1556.8</ele>
        <time>2021-08-11T10:43:41Z</time>
      </trkpt>
      <trkpt lat="45.10399" lon="2.65973">
        <ele>1556.5</ele>
        <time>2021-08-11T10:43:42Z</time>
      </trkpt>
      <trkpt lat="45.10399" lon="2.65974">
        <ele>1556.4</ele>
        <time>2021-08-11T10:43:43Z</time>
      </trkpt>
      <trkpt lat="45.10399" lon="2.65975">
        <ele>1556.2</ele>
        <time>2021-08-11T10:43:44Z</time>
      </trkpt>
      <trkpt lat="45.10399" lon="2.65975">
        <ele>1556</ele>
        <time>2021-08-11T10:43:45Z</time>
      </trkpt>
      <trkpt lat="45.10399" lon="2.65977">
        <ele>1555.6</ele>
        <time>2021-08-11T10:43:46Z</time>
      </trkpt>
      <trkpt lat="45.10399" lon="2.65978">
        <ele>1555.3</ele>
        <time>2021-08-11T10:43:47Z</time>
      </trkpt>
      <trkpt lat="45.104" lon="2.65978">
        <ele>1555.3</ele>
        <time>2021-08-11T10:43:48Z</time>
      </trkpt>
      <trkpt lat="45.104" lon="2.6598">
        <ele>1555.1</ele>
        <time>2021-08-11T10:43:49Z</time>
      </trkpt>
      <trkpt lat="45.10401" lon="2.65981">
        <ele>1554.9</ele>
        <time>2021-08-11T10:43:50Z</time>
      </trkpt>
      <trkpt lat="45.10401" lon="2.65982">
        <ele>1554.9</ele>
        <time>2021-08-11T10:43:51Z</time>
      </trkpt>
      <trkpt lat="45.10402" lon="2.65982">
        <ele>1554.9</ele>
        <time>2021-08-11T10:43:52Z</time>
      </trkpt>
      <trkpt lat="45.10403" lon="2.65983">
        <ele>1554.9</ele>
        <time>2021-08-11T10:43:53Z</time>
      </trkpt>
      <trkpt lat="45.10403" lon="2.65984">
        <ele>1554.8</ele>
        <time>2021-08-11T10:43:54Z</time>
      </trkpt>
      <trkpt lat="45.10404" lon="2.65985">
        <ele>1554.9</ele>
        <time>2021-08-11T10:43:55Z</time>
      </trkpt>
      <trkpt lat="45.10405" lon="2.65986">
        <ele>1554.9</ele>
        <time>2021-08-11T10:43:56Z</time>
      </trkpt>
      <trkpt lat="45.10405" lon="2.65987">
        <ele>1554.8</ele>
        <time>2021-08-11T10:43:57Z</time>
      </trkpt>
      <trkpt lat="45.10406" lon="2.65988">
        <ele>1554.7</ele>
        <time>2021-08-11T10:43:58Z</time>
      </trkpt>
      <trkpt lat="45.10406" lon="2.65989">
        <ele>1554.7</ele>
        <time>2021-08-11T10:43:59Z</time>
      </trkpt>
      <trkpt lat="45.10407" lon="2.6599">
        <ele>1554.4</ele>
        <time>2021-08-11T10:44:00Z</time>
      </trkpt>
      <trkpt lat="45.10407" lon="2.65992">
        <ele>1554.1</ele>
        <time>2021-08-11T10:44:01Z</time>
      </trkpt>
      <trkpt lat="45.10407" lon="2.65993">
        <ele>1553.9</ele>
        <time>2021-08-11T10:44:02Z</time>
      </trkpt>
      <trkpt lat="45.10408" lon="2.65994">
        <ele>1553.7</ele>
        <time>2021-08-11T10:44:03Z</time>
      </trkpt>
      <trkpt lat="45.10408" lon="2.65995">
        <ele>1553.4</ele>
        <time>2021-08-11T10:44:04Z</time>
      </trkpt>
      <trkpt lat="45.10408" lon="2.65996">
        <ele>1553.2</ele>
        <time>2021-08-11T10:44:05Z</time>
      </trkpt>
      <trkpt lat="45.10408" lon="2.65996">
        <ele>1553.2</ele>
        <time>2021-08-11T10:44:06Z</time>
      </trkpt>
      <trkpt lat="45.10409" lon="2.65997">
        <ele>1553.3</ele>
        <time>2021-08-11T10:44:07Z</time>
      </trkpt>
      <trkpt lat="45.1041" lon="2.65998">
        <ele>1553.4</ele>
        <time>2021-08-11T10:44:08Z</time>
      </trkpt>
      <trkpt lat="45.1041" lon="2.65999">
        <ele>1553.2</ele>
        <time>2021-08-11T10:44:09Z</time>
      </trkpt>
      <trkpt lat="45.1041" lon="2.66">
        <ele>1553.1</ele>
        <time>2021-08-11T10:44:10Z</time>
      </trkpt>
      <trkpt lat="45.10411" lon="2.66001">
        <ele>1553</ele>
        <time>2021-08-11T10:44:11Z</time>
      </trkpt>
      <trkpt lat="45.10411" lon="2.66001">
        <ele>1553</ele>
        <time>2021-08-11T10:44:12Z</time>
      </trkpt>
      <trkpt lat="45.10411" lon="2.66002">
        <ele>1552.8</ele>
        <time>2021-08-11T10:44:13Z</time>
      </trkpt>
      <trkpt lat="45.10412" lon="2.66004">
        <ele>1552.7</ele>
        <time>2021-08-11T10:44:14Z</time>
      </trkpt>
      <trkpt lat="45.10412" lon="2.66004">
        <ele>1552.5</ele>
        <time>2021-08-11T10:44:15Z</time>
      </trkpt>
      <trkpt lat="45.10412" lon="2.66005">
        <ele>1552.5</ele>
        <time>2021-08-11T10:44:16Z</time>
      </trkpt>
      <trkpt lat="45.10412" lon="2.66006">
        <ele>1552.3</ele>
        <time>2021-08-11T10:44:17Z</time>
      </trkpt>
      <trkpt lat="45.10412" lon="2.66007">
        <ele>1552.2</ele>
        <time>2021-08-11T10:44:18Z</time>
      </trkpt>
      <trkpt lat="45.10412" lon="2.66008">
        <ele>1552.1</ele>
        <time>2021-08-11T10:44:19Z</time>
      </trkpt>
      <trkpt lat="45.10412" lon="2.66009">
        <ele>1551.8</ele>
        <time>2021-08-11T10:44:20Z</time>
      </trkpt>
      <trkpt lat="45.10413" lon="2.6601">
        <ele>1551.8</ele>
        <time>2021-08-11T10:44:21Z</time>
      </trkpt>
      <trkpt lat="45.10413" lon="2.66011">
        <ele>1551.7</ele>
        <time>2021-08-11T10:44:22Z</time>
      </trkpt>
      <trkpt lat="45.10413" lon="2.66012">
        <ele>1551.7</ele>
        <time>2021-08-11T10:44:23Z</time>
      </trkpt>
      <trkpt lat="45.10414" lon="2.66013">
        <ele>1551.6</ele>
        <time>2021-08-11T10:44:24Z</time>
      </trkpt>
      <trkpt lat="45.10414" lon="2.66014">
        <ele>1551.4</ele>
        <time>2021-08-11T10:44:25Z</time>
      </trkpt>
      <trkpt lat="45.10414" lon="2.66015">
        <ele>1551.4</ele>
        <time>2021-08-11T10:44:26Z</time>
      </trkpt>
      <trkpt lat="45.10415" lon="2.66016">
        <ele>1551.2</ele>
        <time>2021-08-11T10:44:27Z</time>
      </trkpt>
      <trkpt lat="45.10415" lon="2.66018">
        <ele>1551</ele>
        <time>2021-08-11T10:44:28Z</time>
      </trkpt>
      <trkpt lat="45.10415" lon="2.66019">
        <ele>1550.8</ele>
        <time>2021-08-11T10:44:29Z</time>
      </trkpt>
      <trkpt lat="45.10415" lon="2.6602">
        <ele>1550.5</ele>
        <time>2021-08-11T10:44:30Z</time>
      </trkpt>
      <trkpt lat="45.10415" lon="2.66021">
        <ele>1550.3</ele>
        <time>2021-08-11T10:44:31Z</time>
      </trkpt>
      <trkpt lat="45.10415" lon="2.66022">
        <ele>1550.1</ele>
        <time>2021-08-11T10:44:32Z</time>
      </trkpt>
      <trkpt lat="45.10415" lon="2.66023">
        <ele>1549.9</ele>
        <time>2021-08-11T10:44:33Z</time>
      </trkpt>
      <trkpt lat="45.10416" lon="2.66024">
        <ele>1549.9</ele>
        <time>2021-08-11T10:44:34Z</time>
      </trkpt>
      <trkpt lat="45.10416" lon="2.66025">
        <ele>1549.8</ele>
        <time>2021-08-11T10:44:35Z</time>
      </trkpt>
      <trkpt lat="45.10416" lon="2.66026">
        <ele>1549.5</ele>
        <time>2021-08-11T10:44:36Z</time>
      </trkpt>
      <trkpt lat="45.10415" lon="2.66027">
        <ele>1549.3</ele>
        <time>2021-08-11T10:44:37Z</time>
      </trkpt>
      <trkpt lat="45.10415" lon="2.66027">
        <ele>1549.1</ele>
        <time>2021-08-11T10:44:38Z</time>
      </trkpt>
      <trkpt lat="45.10415" lon="2.66028">
        <ele>1548.9</ele>
        <time>2021-08-11T10:44:39Z</time>
      </trkpt>
      <trkpt lat="45.10416" lon="2.66029">
        <ele>1548.7</ele>
        <time>2021-08-11T10:44:40Z</time>
      </trkpt>
      <trkpt lat="45.10416" lon="2.66031">
        <ele>1548.5</ele>
        <time>2021-08-11T10:44:41Z</time>
      </trkpt>
      <trkpt lat="45.10416" lon="2.66032">
        <ele>1548.2</ele>
        <time>2021-08-11T10:44:42Z</time>
      </trkpt>
      <trkpt lat="45.10416" lon="2.66033">
        <ele>1548</ele>
        <time>2021-08-11T10:44:43Z</time>
      </trkpt>
      <trkpt lat="45.10416" lon="2.66034">
        <ele>1547.9</ele>
        <time>2021-08-11T10:44:44Z</time>
      </trkpt>
      <trkpt lat="45.10416" lon="2.66035">
        <ele>1547.6</ele>
        <time>2021-08-11T10:44:45Z</time>
      </trkpt>
      <trkpt lat="45.10416" lon="2.66036">
        <ele>1547.4</ele>
        <time>2021-08-11T10:44:46Z</time>
      </trkpt>
      <trkpt lat="45.10416" lon="2.66037">
        <ele>1547.1</ele>
        <time>2021-08-11T10:44:47Z</time>
      </trkpt>
      <trkpt lat="45.10416" lon="2.66038">
        <ele>1547</ele>
        <time>2021-08-11T10:44:48Z</time>
      </trkpt>
      <trkpt lat="45.10416" lon="2.66039">
        <ele>1546.9</ele>
        <time>2021-08-11T10:44:49Z</time>
      </trkpt>
      <trkpt lat="45.10416" lon="2.6604">
        <ele>1546.6</ele>
        <time>2021-08-11T10:44:50Z</time>
      </trkpt>
      <trkpt lat="45.10416" lon="2.66041">
        <ele>1546.4</ele>
        <time>2021-08-11T10:44:51Z</time>
      </trkpt>
      <trkpt lat="45.10416" lon="2.66042">
        <ele>1546.2</ele>
        <time>2021-08-11T10:44:52Z</time>
      </trkpt>
      <trkpt lat="45.10416" lon="2.66043">
        <ele>1546</ele>
        <time>2021-08-11T10:44:53Z</time>
      </trkpt>
      <trkpt lat="45.10416" lon="2.66044">
        <ele>1545.8</ele>
        <time>2021-08-11T10:44:54Z</time>
      </trkpt>
      <trkpt lat="45.10417" lon="2.66045">
        <ele>1545.7</ele>
        <time>2021-08-11T10:44:55Z</time>
      </trkpt>
      <trkpt lat="45.10417" lon="2.66046">
        <ele>1545.5</ele>
        <time>2021-08-11T10:44:56Z</time>
      </trkpt>
      <trkpt lat="45.10417" lon="2.66047">
        <ele>1545.3</ele>
        <time>2021-08-11T10:44:57Z</time>
      </trkpt>
      <trkpt lat="45.10417" lon="2.66048">
        <ele>1545</ele>
        <time>2021-08-11T10:44:58Z</time>
      </trkpt>
      <trkpt lat="45.10417" lon="2.66049">
        <ele>1544.8</ele>
        <time>2021-08-11T10:44:59Z</time>
      </trkpt>
      <trkpt lat="45.10418" lon="2.6605">
        <ele>1544.6</ele>
        <time>2021-08-11T10:45:00Z</time>
      </trkpt>
      <trkpt lat="45.10418" lon="2.66051">
        <ele>1544.3</ele>
        <time>2021-08-11T10:45:01Z</time>
      </trkpt>
      <trkpt lat="45.10418" lon="2.66052">
        <ele>1544</ele>
        <time>2021-08-11T10:45:02Z</time>
      </trkpt>
      <trkpt lat="45.10418" lon="2.66053">
        <ele>1543.7</ele>
        <time>2021-08-11T10:45:03Z</time>
      </trkpt>
      <trkpt lat="45.10418" lon="2.66054">
        <ele>1543.5</ele>
        <time>2021-08-11T10:45:04Z</time>
      </trkpt>
      <trkpt lat="45.10418" lon="2.66055">
        <ele>1543.2</ele>
        <time>2021-08-11T10:45:05Z</time>
      </trkpt>
      <trkpt lat="45.10419" lon="2.66056">
        <ele>1543</ele>
        <time>2021-08-11T10:45:06Z</time>
      </trkpt>
      <trkpt lat="45.10419" lon="2.66057">
        <ele>1542.7</ele>
        <time>2021-08-11T10:45:07Z</time>
      </trkpt>
      <trkpt lat="45.10419" lon="2.66058">
        <ele>1542.4</ele>
        <time>2021-08-11T10:45:08Z</time>
      </trkpt>
      <trkpt lat="45.1042" lon="2.66059">
        <ele>1542.1</ele>
        <time>2021-08-11T10:45:09Z</time>
      </trkpt>
      <trkpt lat="45.1042" lon="2.6606">
        <ele>1541.8</ele>
        <time>2021-08-11T10:45:10Z</time>
      </trkpt>
      <trkpt lat="45.10421" lon="2.66061">
        <ele>1541.5</ele>
        <time>2021-08-11T10:45:11Z</time>
      </trkpt>
      <trkpt lat="45.10421" lon="2.66062">
        <ele>1541.3</ele>
        <time>2021-08-11T10:45:12Z</time>
      </trkpt>
      <trkpt lat="45.10422" lon="2.66063">
        <ele>1541</ele>
        <time>2021-08-11T10:45:13Z</time>
      </trkpt>
      <trkpt lat="45.10423" lon="2.66064">
        <ele>1540.7</ele>
        <time>2021-08-11T10:45:14Z</time>
      </trkpt>
      <trkpt lat="45.10423" lon="2.66065">
        <ele>1540.4</ele>
        <time>2021-08-11T10:45:15Z</time>
      </trkpt>
      <trkpt lat="45.10423" lon="2.66066">
        <ele>1540.1</ele>
        <time>2021-08-11T10:45:16Z</time>
      </trkpt>
      <trkpt lat="45.10424" lon="2.66067">
        <ele>1539.9</ele>
        <time>2021-08-11T10:45:17Z</time>
      </trkpt>
      <trkpt lat="45.10424" lon="2.66068">
        <ele>1539.6</ele>
        <time>2021-08-11T10:45:18Z</time>
      </trkpt>
      <trkpt lat="45.10424" lon="2.66069">
        <ele>1539.4</ele>
        <time>2021-08-11T10:45:19Z</time>
      </trkpt>
      <trkpt lat="45.10425" lon="2.6607">
        <ele>1539.1</ele>
        <time>2021-08-11T10:45:20Z</time>
      </trkpt>
      <trkpt lat="45.10425" lon="2.66071">
        <ele>1538.8</ele>
        <time>2021-08-11T10:45:21Z</time>
      </trkpt>
      <trkpt lat="45.10425" lon="2.66072">
        <ele>1538.4</ele>
        <time>2021-08-11T10:45:22Z</time>
      </trkpt>
      <trkpt lat="45.10426" lon="2.66073">
        <ele>1538.2</ele>
        <time>2021-08-11T10:45:23Z</time>
      </trkpt>
      <trkpt lat="45.10426" lon="2.66074">
        <ele>1537.8</ele>
        <time>2021-08-11T10:45:24Z</time>
      </trkpt>
      <trkpt lat="45.10426" lon="2.66076">
        <ele>1537.5</ele>
        <time>2021-08-11T10:45:25Z</time>
      </trkpt>
      <trkpt lat="45.10426" lon="2.66077">
        <ele>1537.2</ele>
        <time>2021-08-11T10:45:26Z</time>
      </trkpt>
      <trkpt lat="45.10426" lon="2.66078">
        <ele>1536.9</ele>
        <time>2021-08-11T10:45:27Z</time>
      </trkpt>
      <trkpt lat="45.10427" lon="2.66079">
        <ele>1536.7</ele>
        <time>2021-08-11T10:45:28Z</time>
      </trkpt>
      <trkpt lat="45.10427" lon="2.6608">
        <ele>1536.4</ele>
        <time>2021-08-11T10:45:29Z</time>
      </trkpt>
      <trkpt lat="45.10427" lon="2.66081">
        <ele>1536.1</ele>
        <time>2021-08-11T10:45:30Z</time>
      </trkpt>
      <trkpt lat="45.10427" lon="2.66082">
        <ele>1535.8</ele>
        <time>2021-08-11T10:45:31Z</time>
      </trkpt>
      <trkpt lat="45.10427" lon="2.66083">
        <ele>1535.5</ele>
        <time>2021-08-11T10:45:32Z</time>
      </trkpt>
      <trkpt lat="45.10427" lon="2.66084">
        <ele>1535.3</ele>
        <time>2021-08-11T10:45:33Z</time>
      </trkpt>
      <trkpt lat="45.10427" lon="2.66086">
        <ele>1535.2</ele>
        <time>2021-08-11T10:45:34Z</time>
      </trkpt>
      <trkpt lat="45.10427" lon="2.66087">
        <ele>1535</ele>
        <time>2021-08-11T10:45:35Z</time>
      </trkpt>
      <trkpt lat="45.10427" lon="2.66088">
        <ele>1534.9</ele>
        <time>2021-08-11T10:45:36Z</time>
      </trkpt>
      <trkpt lat="45.10427" lon="2.66089">
        <ele>1534.7</ele>
        <time>2021-08-11T10:45:37Z</time>
      </trkpt>
      <trkpt lat="45.10427" lon="2.6609">
        <ele>1534.6</ele>
        <time>2021-08-11T10:45:38Z</time>
      </trkpt>
      <trkpt lat="45.10427" lon="2.66091">
        <ele>1534.5</ele>
        <time>2021-08-11T10:45:39Z</time>
      </trkpt>
      <trkpt lat="45.10426" lon="2.66091">
        <ele>1534.4</ele>
        <time>2021-08-11T10:45:40Z</time>
      </trkpt>
      <trkpt lat="45.10427" lon="2.66091">
        <ele>1534.4</ele>
        <time>2021-08-11T10:45:41Z</time>
      </trkpt>
      <trkpt lat="45.10427" lon="2.66091">
        <ele>1534.4</ele>
        <time>2021-08-11T10:45:42Z</time>
      </trkpt>
      <trkpt lat="45.10427" lon="2.66091">
        <ele>1534.4</ele>
        <time>2021-08-11T10:45:43Z</time>
      </trkpt>
      <trkpt lat="45.10427" lon="2.66091">
        <ele>1534.4</ele>
        <time>2021-08-11T10:45:44Z</time>
      </trkpt>
      <trkpt lat="45.10427" lon="2.66092">
        <ele>1534.3</ele>
        <time>2021-08-11T10:45:45Z</time>
      </trkpt>
      <trkpt lat="45.10427" lon="2.66092">
        <ele>1534.2</ele>
        <time>2021-08-11T10:45:46Z</time>
      </trkpt>
      <trkpt lat="45.10426" lon="2.66093">
        <ele>1534.2</ele>
        <time>2021-08-11T10:45:47Z</time>
      </trkpt>
      <trkpt lat="45.10426" lon="2.66094">
        <ele>1534</ele>
        <time>2021-08-11T10:45:48Z</time>
      </trkpt>
      <trkpt lat="45.10426" lon="2.66094">
        <ele>1534</ele>
        <time>2021-08-11T10:45:49Z</time>
      </trkpt>
      <trkpt lat="45.10426" lon="2.66094">
        <ele>1534.1</ele>
        <time>2021-08-11T10:45:50Z</time>
      </trkpt>
      <trkpt lat="45.10426" lon="2.66094">
        <ele>1534.1</ele>
        <time>2021-08-11T10:45:51Z</time>
      </trkpt>
      <trkpt lat="45.10425" lon="2.66094">
        <ele>1534.1</ele>
        <time>2021-08-11T10:45:52Z</time>
      </trkpt>
      <trkpt lat="45.10426" lon="2.66095">
        <ele>1534</ele>
        <time>2021-08-11T10:45:53Z</time>
      </trkpt>
      <trkpt lat="45.10426" lon="2.66095">
        <ele>1534</ele>
        <time>2021-08-11T10:45:54Z</time>
      </trkpt>
      <trkpt lat="45.10426" lon="2.66095">
        <ele>1534</ele>
        <time>2021-08-11T10:45:55Z</time>
      </trkpt>
      <trkpt lat="45.10426" lon="2.66095">
        <ele>1534</ele>
        <time>2021-08-11T10:45:56Z</time>
      </trkpt>
      <trkpt lat="45.10426" lon="2.66094">
        <ele>1534.1</ele>
        <time>2021-08-11T10:45:57Z</time>
      </trkpt>
      <trkpt lat="45.10426" lon="2.66094">
        <ele>1534.1</ele>
        <time>2021-08-11T10:45:58Z</time>
      </trkpt>
      <trkpt lat="45.10426" lon="2.66094">
        <ele>1534.1</ele>
        <time>2021-08-11T10:45:59Z</time>
      </trkpt>
      <trkpt lat="45.10426" lon="2.66094">
        <ele>1534.1</ele>
        <time>2021-08-11T10:46:00Z</time>
      </trkpt>
      <trkpt lat="45.10426" lon="2.66094">
        <ele>1534.1</ele>
        <time>2021-08-11T10:46:01Z</time>
      </trkpt>
      <trkpt lat="45.10426" lon="2.66094">
        <ele>1534.1</ele>
        <time>2021-08-11T10:46:02Z</time>
      </trkpt>
      <trkpt lat="45.10425" lon="2.66094">
        <ele>1534.1</ele>
        <time>2021-08-11T10:46:03Z</time>
      </trkpt>
      <trkpt lat="45.10425" lon="2.66094">
        <ele>1534.1</ele>
        <time>2021-08-11T10:46:04Z</time>
      </trkpt>
      <trkpt lat="45.10425" lon="2.66094">
        <ele>1534.1</ele>
        <time>2021-08-11T10:46:05Z</time>
      </trkpt>
      <trkpt lat="45.10425" lon="2.66094">
        <ele>1534.2</ele>
        <time>2021-08-11T10:46:06Z</time>
      </trkpt>
      <trkpt lat="45.10425" lon="2.66094">
        <ele>1534.2</ele>
        <time>2021-08-11T10:46:07Z</time>
      </trkpt>
      <trkpt lat="45.10425" lon="2.66094">
        <ele>1534.2</ele>
        <time>2021-08-11T10:46:08Z</time>
      </trkpt>
      <trkpt lat="45.10425" lon="2.66094">
        <ele>1534.2</ele>
        <time>2021-08-11T10:46:09Z</time>
      </trkpt>
      <trkpt lat="45.10425" lon="2.66094">
        <ele>1534.2</ele>
        <time>2021-08-11T10:46:10Z</time>
      </trkpt>
      <trkpt lat="45.10425" lon="2.66094">
        <ele>1534.2</ele>
        <time>2021-08-11T10:46:11Z</time>
      </trkpt>
      <trkpt lat="45.10425" lon="2.66094">
        <ele>1534.2</ele>
        <time>2021-08-11T10:46:12Z</time>
      </trkpt>
      <trkpt lat="45.10425" lon="2.66094">
        <ele>1534.2</ele>
        <time>2021-08-11T10:46:13Z</time>
      </trkpt>
      <trkpt lat="45.10425" lon="2.66094">
        <ele>1534.2</ele>
        <time>2021-08-11T10:46:14Z</time>
      </trkpt>
      <trkpt lat="45.10425" lon="2.66094">
        <ele>1534.2</ele>
        <time>2021-08-11T10:46:15Z</time>
      </trkpt>
      <trkpt lat="45.10425" lon="2.66094">
        <ele>1534.2</ele>
        <time>2021-08-11T10:46:16Z</time>
      </trkpt>
      <trkpt lat="45.10425" lon="2.66094">
        <ele>1534.2</ele>
        <time>2021-08-11T10:46:17Z</time>
      </trkpt>
      <trkpt lat="45.10425" lon="2.66094">
        <ele>1534.2</ele>
        <time>2021-08-11T10:46:18Z</time>
      </trkpt>
      <trkpt lat="45.10425" lon="2.66094">
        <ele>1534.2</ele>
        <time>2021-08-11T10:46:19Z</time>
      </trkpt>
      <trkpt lat="45.10425" lon="2.66094">
        <ele>1534.2</ele>
        <time>2021-08-11T10:46:20Z</time>
      </trkpt>
      <trkpt lat="45.10425" lon="2.66094">
        <ele>1534.2</ele>
        <time>2021-08-11T10:46:21Z</time>
      </trkpt>
      <trkpt lat="45.10425" lon="2.66094">
        <ele>1534.2</ele>
        <time>2021-08-11T10:46:22Z</time>
      </trkpt>
      <trkpt lat="45.10425" lon="2.66094">
        <ele>1534.2</ele>
        <time>2021-08-11T10:46:23Z</time>
      </trkpt>
      <trkpt lat="45.10426" lon="2.66094">
        <ele>1534.1</ele>
        <time>2021-08-11T10:46:24Z</time>
      </trkpt>
      <trkpt lat="45.10426" lon="2.66095">
        <ele>1534</ele>
        <time>2021-08-11T10:46:25Z</time>
      </trkpt>
      <trkpt lat="45.10426" lon="2.66095">
        <ele>1533.9</ele>
        <time>2021-08-11T10:46:26Z</time>
      </trkpt>
      <trkpt lat="45.10426" lon="2.66096">
        <ele>1533.7</ele>
        <time>2021-08-11T10:46:27Z</time>
      </trkpt>
      <trkpt lat="45.10426" lon="2.66098">
        <ele>1533.5</ele>
        <time>2021-08-11T10:46:28Z</time>
      </trkpt>
      <trkpt lat="45.10426" lon="2.66099">
        <ele>1533.2</ele>
        <time>2021-08-11T10:46:29Z</time>
      </trkpt>
      <trkpt lat="45.10426" lon="2.661">
        <ele>1533.1</ele>
        <time>2021-08-11T10:46:30Z</time>
      </trkpt>
      <trkpt lat="45.10427" lon="2.66101">
        <ele>1532.9</ele>
        <time>2021-08-11T10:46:31Z</time>
      </trkpt>
      <trkpt lat="45.10427" lon="2.66103">
        <ele>1532.7</ele>
        <time>2021-08-11T10:46:32Z</time>
      </trkpt>
      <trkpt lat="45.10427" lon="2.66104">
        <ele>1532.4</ele>
        <time>2021-08-11T10:46:33Z</time>
      </trkpt>
      <trkpt lat="45.10427" lon="2.66105">
        <ele>1532.2</ele>
        <time>2021-08-11T10:46:34Z</time>
      </trkpt>
      <trkpt lat="45.10428" lon="2.66106">
        <ele>1532</ele>
        <time>2021-08-11T10:46:35Z</time>
      </trkpt>
      <trkpt lat="45.10428" lon="2.66107">
        <ele>1531.8</ele>
        <time>2021-08-11T10:46:36Z</time>
      </trkpt>
      <trkpt lat="45.10429" lon="2.66108">
        <ele>1531.5</ele>
        <time>2021-08-11T10:46:37Z</time>
      </trkpt>
      <trkpt lat="45.10429" lon="2.66109">
        <ele>1531.3</ele>
        <time>2021-08-11T10:46:38Z</time>
      </trkpt>
      <trkpt lat="45.1043" lon="2.66111">
        <ele>1531.1</ele>
        <time>2021-08-11T10:46:39Z</time>
      </trkpt>
      <trkpt lat="45.1043" lon="2.66111">
        <ele>1530.9</ele>
        <time>2021-08-11T10:46:40Z</time>
      </trkpt>
      <trkpt lat="45.10431" lon="2.66112">
        <ele>1530.6</ele>
        <time>2021-08-11T10:46:41Z</time>
      </trkpt>
      <trkpt lat="45.10431" lon="2.66113">
        <ele>1530.4</ele>
        <time>2021-08-11T10:46:42Z</time>
      </trkpt>
      <trkpt lat="45.10432" lon="2.66114">
        <ele>1530.2</ele>
        <time>2021-08-11T10:46:43Z</time>
      </trkpt>
      <trkpt lat="45.10433" lon="2.66115">
        <ele>1530</ele>
        <time>2021-08-11T10:46:44Z</time>
      </trkpt>
      <trkpt lat="45.10433" lon="2.66116">
        <ele>1529.8</ele>
        <time>2021-08-11T10:46:45Z</time>
      </trkpt>
      <trkpt lat="45.10433" lon="2.66117">
        <ele>1529.6</ele>
        <time>2021-08-11T10:46:46Z</time>
      </trkpt>
      <trkpt lat="45.10434" lon="2.66118">
        <ele>1529.4</ele>
        <time>2021-08-11T10:46:47Z</time>
      </trkpt>
      <trkpt lat="45.10435" lon="2.66119">
        <ele>1529.2</ele>
        <time>2021-08-11T10:46:48Z</time>
      </trkpt>
      <trkpt lat="45.10435" lon="2.6612">
        <ele>1528.9</ele>
        <time>2021-08-11T10:46:49Z</time>
      </trkpt>
      <trkpt lat="45.10436" lon="2.66121">
        <ele>1528.7</ele>
        <time>2021-08-11T10:46:50Z</time>
      </trkpt>
      <trkpt lat="45.10436" lon="2.66122">
        <ele>1528.5</ele>
        <time>2021-08-11T10:46:51Z</time>
      </trkpt>
      <trkpt lat="45.10437" lon="2.66123">
        <ele>1528.3</ele>
        <time>2021-08-11T10:46:52Z</time>
      </trkpt>
      <trkpt lat="45.10437" lon="2.66124">
        <ele>1528.1</ele>
        <time>2021-08-11T10:46:53Z</time>
      </trkpt>
      <trkpt lat="45.10437" lon="2.66125">
        <ele>1527.9</ele>
        <time>2021-08-11T10:46:54Z</time>
      </trkpt>
      <trkpt lat="45.10438" lon="2.66126">
        <ele>1527.7</ele>
        <time>2021-08-11T10:46:55Z</time>
      </trkpt>
      <trkpt lat="45.10438" lon="2.66127">
        <ele>1527.5</ele>
        <time>2021-08-11T10:46:56Z</time>
      </trkpt>
      <trkpt lat="45.10438" lon="2.66129">
        <ele>1527.3</ele>
        <time>2021-08-11T10:46:57Z</time>
      </trkpt>
      <trkpt lat="45.10439" lon="2.6613">
        <ele>1527.1</ele>
        <time>2021-08-11T10:46:58Z</time>
      </trkpt>
      <trkpt lat="45.10439" lon="2.66131">
        <ele>1526.9</ele>
        <time>2021-08-11T10:46:59Z</time>
      </trkpt>
      <trkpt lat="45.10439" lon="2.66132">
        <ele>1526.6</ele>
        <time>2021-08-11T10:47:00Z</time>
      </trkpt>
      <trkpt lat="45.1044" lon="2.66134">
        <ele>1526.4</ele>
        <time>2021-08-11T10:47:01Z</time>
      </trkpt>
      <trkpt lat="45.1044" lon="2.66135">
        <ele>1526.2</ele>
        <time>2021-08-11T10:47:02Z</time>
      </trkpt>
      <trkpt lat="45.10441" lon="2.66136">
        <ele>1525.9</ele>
        <time>2021-08-11T10:47:03Z</time>
      </trkpt>
      <trkpt lat="45.10441" lon="2.66137">
        <ele>1525.7</ele>
        <time>2021-08-11T10:47:04Z</time>
      </trkpt>
      <trkpt lat="45.10442" lon="2.66138">
        <ele>1525.5</ele>
        <time>2021-08-11T10:47:05Z</time>
      </trkpt>
      <trkpt lat="45.10442" lon="2.6614">
        <ele>1525.2</ele>
        <time>2021-08-11T10:47:06Z</time>
      </trkpt>
      <trkpt lat="45.10442" lon="2.66141">
        <ele>1524.9</ele>
        <time>2021-08-11T10:47:07Z</time>
      </trkpt>
      <trkpt lat="45.10442" lon="2.66143">
        <ele>1524.7</ele>
        <time>2021-08-11T10:47:08Z</time>
      </trkpt>
      <trkpt lat="45.10442" lon="2.66144">
        <ele>1524.5</ele>
        <time>2021-08-11T10:47:09Z</time>
      </trkpt>
      <trkpt lat="45.10442" lon="2.66146">
        <ele>1524.3</ele>
        <time>2021-08-11T10:47:10Z</time>
      </trkpt>
      <trkpt lat="45.10442" lon="2.66147">
        <ele>1524.1</ele>
        <time>2021-08-11T10:47:11Z</time>
      </trkpt>
      <trkpt lat="45.10442" lon="2.66148">
        <ele>1523.9</ele>
        <time>2021-08-11T10:47:12Z</time>
      </trkpt>
      <trkpt lat="45.10442" lon="2.6615">
        <ele>1523.8</ele>
        <time>2021-08-11T10:47:13Z</time>
      </trkpt>
      <trkpt lat="45.10441" lon="2.66151">
        <ele>1523.6</ele>
        <time>2021-08-11T10:47:14Z</time>
      </trkpt>
      <trkpt lat="45.10441" lon="2.66153">
        <ele>1523.4</ele>
        <time>2021-08-11T10:47:15Z</time>
      </trkpt>
      <trkpt lat="45.10441" lon="2.66154">
        <ele>1523.3</ele>
        <time>2021-08-11T10:47:16Z</time>
      </trkpt>
      <trkpt lat="45.1044" lon="2.66156">
        <ele>1523.1</ele>
        <time>2021-08-11T10:47:17Z</time>
      </trkpt>
      <trkpt lat="45.1044" lon="2.66157">
        <ele>1522.9</ele>
        <time>2021-08-11T10:47:18Z</time>
      </trkpt>
      <trkpt lat="45.1044" lon="2.66158">
        <ele>1522.8</ele>
        <time>2021-08-11T10:47:19Z</time>
      </trkpt>
      <trkpt lat="45.10439" lon="2.6616">
        <ele>1522.6</ele>
        <time>2021-08-11T10:47:20Z</time>
      </trkpt>
      <trkpt lat="45.10439" lon="2.66161">
        <ele>1522.4</ele>
        <time>2021-08-11T10:47:21Z</time>
      </trkpt>
      <trkpt lat="45.10439" lon="2.66162">
        <ele>1522.3</ele>
        <time>2021-08-11T10:47:22Z</time>
      </trkpt>
      <trkpt lat="45.10439" lon="2.66164">
        <ele>1522.1</ele>
        <time>2021-08-11T10:47:23Z</time>
      </trkpt>
      <trkpt lat="45.10438" lon="2.66165">
        <ele>1521.9</ele>
        <time>2021-08-11T10:47:24Z</time>
      </trkpt>
      <trkpt lat="45.10438" lon="2.66167">
        <ele>1521.7</ele>
        <time>2021-08-11T10:47:25Z</time>
      </trkpt>
      <trkpt lat="45.10438" lon="2.66168">
        <ele>1521.5</ele>
        <time>2021-08-11T10:47:26Z</time>
      </trkpt>
      <trkpt lat="45.10438" lon="2.66169">
        <ele>1521.3</ele>
        <time>2021-08-11T10:47:27Z</time>
      </trkpt>
      <trkpt lat="45.10438" lon="2.6617">
        <ele>1521.2</ele>
        <time>2021-08-11T10:47:28Z</time>
      </trkpt>
      <trkpt lat="45.10439" lon="2.66172">
        <ele>1520.9</ele>
        <time>2021-08-11T10:47:29Z</time>
      </trkpt>
      <trkpt lat="45.10439" lon="2.66173">
        <ele>1520.8</ele>
        <time>2021-08-11T10:47:30Z</time>
      </trkpt>
      <trkpt lat="45.10439" lon="2.66174">
        <ele>1520.6</ele>
        <time>2021-08-11T10:47:31Z</time>
      </trkpt>
      <trkpt lat="45.1044" lon="2.66175">
        <ele>1520.4</ele>
        <time>2021-08-11T10:47:32Z</time>
      </trkpt>
      <trkpt lat="45.1044" lon="2.66176">
        <ele>1520.2</ele>
        <time>2021-08-11T10:47:33Z</time>
      </trkpt>
      <trkpt lat="45.1044" lon="2.66177">
        <ele>1520</ele>
        <time>2021-08-11T10:47:34Z</time>
      </trkpt>
      <trkpt lat="45.1044" lon="2.66178">
        <ele>1519.9</ele>
        <time>2021-08-11T10:47:35Z</time>
      </trkpt>
      <trkpt lat="45.1044" lon="2.66179">
        <ele>1519.7</ele>
        <time>2021-08-11T10:47:36Z</time>
      </trkpt>
      <trkpt lat="45.1044" lon="2.66181">
        <ele>1519.5</ele>
        <time>2021-08-11T10:47:37Z</time>
      </trkpt>
      <trkpt lat="45.1044" lon="2.66182">
        <ele>1519.3</ele>
        <time>2021-08-11T10:47:38Z</time>
      </trkpt>
      <trkpt lat="45.10441" lon="2.66183">
        <ele>1519.1</ele>
        <time>2021-08-11T10:47:39Z</time>
      </trkpt>
      <trkpt lat="45.10441" lon="2.66184">
        <ele>1518.9</ele>
        <time>2021-08-11T10:47:40Z</time>
      </trkpt>
      <trkpt lat="45.10441" lon="2.66185">
        <ele>1518.8</ele>
        <time>2021-08-11T10:47:41Z</time>
      </trkpt>
      <trkpt lat="45.10441" lon="2.66187">
        <ele>1518.6</ele>
        <time>2021-08-11T10:47:42Z</time>
      </trkpt>
      <trkpt lat="45.10441" lon="2.66188">
        <ele>1518.4</ele>
        <time>2021-08-11T10:47:43Z</time>
      </trkpt>
      <trkpt lat="45.10441" lon="2.66189">
        <ele>1518.2</ele>
        <time>2021-08-11T10:47:44Z</time>
      </trkpt>
      <trkpt lat="45.10441" lon="2.6619">
        <ele>1518</ele>
        <time>2021-08-11T10:47:45Z</time>
      </trkpt>
      <trkpt lat="45.10441" lon="2.66192">
        <ele>1517.8</ele>
        <time>2021-08-11T10:47:46Z</time>
      </trkpt>
      <trkpt lat="45.10441" lon="2.66193">
        <ele>1517.7</ele>
        <time>2021-08-11T10:47:47Z</time>
      </trkpt>
      <trkpt lat="45.10442" lon="2.66194">
        <ele>1517.5</ele>
        <time>2021-08-11T10:47:48Z</time>
      </trkpt>
      <trkpt lat="45.10442" lon="2.66195">
        <ele>1517.4</ele>
        <time>2021-08-11T10:47:49Z</time>
      </trkpt>
      <trkpt lat="45.10442" lon="2.66195">
        <ele>1517.2</ele>
        <time>2021-08-11T10:47:50Z</time>
      </trkpt>
      <trkpt lat="45.10442" lon="2.66196">
        <ele>1517</ele>
        <time>2021-08-11T10:47:51Z</time>
      </trkpt>
      <trkpt lat="45.10443" lon="2.66197">
        <ele>1516.9</ele>
        <time>2021-08-11T10:47:52Z</time>
      </trkpt>
      <trkpt lat="45.10443" lon="2.66198">
        <ele>1516.8</ele>
        <time>2021-08-11T10:47:53Z</time>
      </trkpt>
      <trkpt lat="45.10443" lon="2.66198">
        <ele>1516.7</ele>
        <time>2021-08-11T10:47:54Z</time>
      </trkpt>
      <trkpt lat="45.10443" lon="2.66198">
        <ele>1516.6</ele>
        <time>2021-08-11T10:47:55Z</time>
      </trkpt>
      <trkpt lat="45.10444" lon="2.66198">
        <ele>1516.6</ele>
        <time>2021-08-11T10:47:56Z</time>
      </trkpt>
      <trkpt lat="45.10444" lon="2.66198">
        <ele>1516.6</ele>
        <time>2021-08-11T10:47:57Z</time>
      </trkpt>
      <trkpt lat="45.10445" lon="2.66197">
        <ele>1516.6</ele>
        <time>2021-08-11T10:47:58Z</time>
      </trkpt>
      <trkpt lat="45.10445" lon="2.66196">
        <ele>1516.7</ele>
        <time>2021-08-11T10:47:59Z</time>
      </trkpt>
      <trkpt lat="45.10446" lon="2.66195">
        <ele>1516.7</ele>
        <time>2021-08-11T10:48:00Z</time>
      </trkpt>
      <trkpt lat="45.10446" lon="2.66194">
        <ele>1516.8</ele>
        <time>2021-08-11T10:48:01Z</time>
      </trkpt>
      <trkpt lat="45.10447" lon="2.66194">
        <ele>1516.8</ele>
        <time>2021-08-11T10:48:02Z</time>
      </trkpt>
      <trkpt lat="45.10447" lon="2.66193">
        <ele>1516.9</ele>
        <time>2021-08-11T10:48:03Z</time>
      </trkpt>
      <trkpt lat="45.10448" lon="2.66192">
        <ele>1517</ele>
        <time>2021-08-11T10:48:04Z</time>
      </trkpt>
      <trkpt lat="45.10448" lon="2.66191">
        <ele>1517.1</ele>
        <time>2021-08-11T10:48:05Z</time>
      </trkpt>
      <trkpt lat="45.10449" lon="2.66189">
        <ele>1517.2</ele>
        <time>2021-08-11T10:48:06Z</time>
      </trkpt>
      <trkpt lat="45.10449" lon="2.66188">
        <ele>1517.4</ele>
        <time>2021-08-11T10:48:07Z</time>
      </trkpt>
      <trkpt lat="45.10449" lon="2.66187">
        <ele>1517.5</ele>
        <time>2021-08-11T10:48:08Z</time>
      </trkpt>
      <trkpt lat="45.1045" lon="2.66185">
        <ele>1517.6</ele>
        <time>2021-08-11T10:48:09Z</time>
      </trkpt>
      <trkpt lat="45.1045" lon="2.66184">
        <ele>1517.8</ele>
        <time>2021-08-11T10:48:10Z</time>
      </trkpt>
      <trkpt lat="45.10451" lon="2.66183">
        <ele>1517.9</ele>
        <time>2021-08-11T10:48:11Z</time>
      </trkpt>
      <trkpt lat="45.10451" lon="2.66182">
        <ele>1518</ele>
        <time>2021-08-11T10:48:12Z</time>
      </trkpt>
      <trkpt lat="45.10452" lon="2.66181">
        <ele>1518.1</ele>
        <time>2021-08-11T10:48:13Z</time>
      </trkpt>
      <trkpt lat="45.10452" lon="2.66179">
        <ele>1518.3</ele>
        <time>2021-08-11T10:48:14Z</time>
      </trkpt>
      <trkpt lat="45.10453" lon="2.66178">
        <ele>1518.4</ele>
        <time>2021-08-11T10:48:15Z</time>
      </trkpt>
      <trkpt lat="45.10453" lon="2.66177">
        <ele>1518.5</ele>
        <time>2021-08-11T10:48:16Z</time>
      </trkpt>
      <trkpt lat="45.10454" lon="2.66175">
        <ele>1518.7</ele>
        <time>2021-08-11T10:48:17Z</time>
      </trkpt>
      <trkpt lat="45.10454" lon="2.66174">
        <ele>1518.8</ele>
        <time>2021-08-11T10:48:18Z</time>
      </trkpt>
      <trkpt lat="45.10455" lon="2.66173">
        <ele>1518.8</ele>
        <time>2021-08-11T10:48:19Z</time>
      </trkpt>
      <trkpt lat="45.10456" lon="2.66173">
        <ele>1518.9</ele>
        <time>2021-08-11T10:48:20Z</time>
      </trkpt>
      <trkpt lat="45.10456" lon="2.66171">
        <ele>1519</ele>
        <time>2021-08-11T10:48:21Z</time>
      </trkpt>
      <trkpt lat="45.10457" lon="2.6617">
        <ele>1519.1</ele>
        <time>2021-08-11T10:48:22Z</time>
      </trkpt>
      <trkpt lat="45.10457" lon="2.66169">
        <ele>1519.2</ele>
        <time>2021-08-11T10:48:23Z</time>
      </trkpt>
      <trkpt lat="45.10458" lon="2.66168">
        <ele>1519.4</ele>
        <time>2021-08-11T10:48:24Z</time>
      </trkpt>
      <trkpt lat="45.10458" lon="2.66167">
        <ele>1519.5</ele>
        <time>2021-08-11T10:48:25Z</time>
      </trkpt>
      <trkpt lat="45.10459" lon="2.66166">
        <ele>1519.6</ele>
        <time>2021-08-11T10:48:26Z</time>
      </trkpt>
      <trkpt lat="45.10459" lon="2.66165">
        <ele>1519.6</ele>
        <time>2021-08-11T10:48:27Z</time>
      </trkpt>
      <trkpt lat="45.1046" lon="2.66164">
        <ele>1519.7</ele>
        <time>2021-08-11T10:48:28Z</time>
      </trkpt>
      <trkpt lat="45.10461" lon="2.66163">
        <ele>1519.7</ele>
        <time>2021-08-11T10:48:29Z</time>
      </trkpt>
      <trkpt lat="45.10461" lon="2.66163">
        <ele>1519.8</ele>
        <time>2021-08-11T10:48:30Z</time>
      </trkpt>
      <trkpt lat="45.10462" lon="2.66162">
        <ele>1519.8</ele>
        <time>2021-08-11T10:48:31Z</time>
      </trkpt>
      <trkpt lat="45.10463" lon="2.66161">
        <ele>1519.8</ele>
        <time>2021-08-11T10:48:32Z</time>
      </trkpt>
      <trkpt lat="45.10463" lon="2.6616">
        <ele>1519.9</ele>
        <time>2021-08-11T10:48:33Z</time>
      </trkpt>
      <trkpt lat="45.10464" lon="2.66159">
        <ele>1519.9</ele>
        <time>2021-08-11T10:48:34Z</time>
      </trkpt>
      <trkpt lat="45.10465" lon="2.66159">
        <ele>1519.9</ele>
        <time>2021-08-11T10:48:35Z</time>
      </trkpt>
      <trkpt lat="45.10465" lon="2.66158">
        <ele>1520</ele>
        <time>2021-08-11T10:48:36Z</time>
      </trkpt>
      <trkpt lat="45.10466" lon="2.66157">
        <ele>1520</ele>
        <time>2021-08-11T10:48:37Z</time>
      </trkpt>
      <trkpt lat="45.10467" lon="2.66156">
        <ele>1520.1</ele>
        <time>2021-08-11T10:48:38Z</time>
      </trkpt>
      <trkpt lat="45.10467" lon="2.66155">
        <ele>1520.1</ele>
        <time>2021-08-11T10:48:39Z</time>
      </trkpt>
      <trkpt lat="45.10468" lon="2.66155">
        <ele>1520.1</ele>
        <time>2021-08-11T10:48:40Z</time>
      </trkpt>
      <trkpt lat="45.10469" lon="2.66154">
        <ele>1520.1</ele>
        <time>2021-08-11T10:48:41Z</time>
      </trkpt>
      <trkpt lat="45.1047" lon="2.66153">
        <ele>1520.1</ele>
        <time>2021-08-11T10:48:42Z</time>
      </trkpt>
      <trkpt lat="45.10471" lon="2.66153">
        <ele>1520</ele>
        <time>2021-08-11T10:48:43Z</time>
      </trkpt>
      <trkpt lat="45.10471" lon="2.66152">
        <ele>1520</ele>
        <time>2021-08-11T10:48:44Z</time>
      </trkpt>
      <trkpt lat="45.10472" lon="2.66152">
        <ele>1520</ele>
        <time>2021-08-11T10:48:45Z</time>
      </trkpt>
      <trkpt lat="45.10473" lon="2.66151">
        <ele>1520</ele>
        <time>2021-08-11T10:48:46Z</time>
      </trkpt>
      <trkpt lat="45.10474" lon="2.66151">
        <ele>1519.9</ele>
        <time>2021-08-11T10:48:47Z</time>
      </trkpt>
      <trkpt lat="45.10474" lon="2.66151">
        <ele>1519.9</ele>
        <time>2021-08-11T10:48:48Z</time>
      </trkpt>
      <trkpt lat="45.10475" lon="2.6615">
        <ele>1519.9</ele>
        <time>2021-08-11T10:48:49Z</time>
      </trkpt>
      <trkpt lat="45.10476" lon="2.66149">
        <ele>1519.9</ele>
        <time>2021-08-11T10:48:50Z</time>
      </trkpt>
      <trkpt lat="45.10476" lon="2.66148">
        <ele>1520</ele>
        <time>2021-08-11T10:48:51Z</time>
      </trkpt>
      <trkpt lat="45.10477" lon="2.66148">
        <ele>1520</ele>
        <time>2021-08-11T10:48:52Z</time>
      </trkpt>
      <trkpt lat="45.10478" lon="2.66148">
        <ele>1519.9</ele>
        <time>2021-08-11T10:48:53Z</time>
      </trkpt>
      <trkpt lat="45.10478" lon="2.66148">
        <ele>1519.8</ele>
        <time>2021-08-11T10:48:54Z</time>
      </trkpt>
      <trkpt lat="45.10479" lon="2.66149">
        <ele>1519.6</ele>
        <time>2021-08-11T10:48:55Z</time>
      </trkpt>
      <trkpt lat="45.1048" lon="2.66149">
        <ele>1519.5</ele>
        <time>2021-08-11T10:48:56Z</time>
      </trkpt>
      <trkpt lat="45.1048" lon="2.6615">
        <ele>1519.3</ele>
        <time>2021-08-11T10:48:57Z</time>
      </trkpt>
      <trkpt lat="45.10481" lon="2.66151">
        <ele>1519.1</ele>
        <time>2021-08-11T10:48:58Z</time>
      </trkpt>
      <trkpt lat="45.10481" lon="2.66152">
        <ele>1518.9</ele>
        <time>2021-08-11T10:48:59Z</time>
      </trkpt>
      <trkpt lat="45.10481" lon="2.66153">
        <ele>1518.8</ele>
        <time>2021-08-11T10:49:00Z</time>
      </trkpt>
      <trkpt lat="45.10481" lon="2.66154">
        <ele>1518.7</ele>
        <time>2021-08-11T10:49:01Z</time>
      </trkpt>
      <trkpt lat="45.10481" lon="2.66155">
        <ele>1518.6</ele>
        <time>2021-08-11T10:49:02Z</time>
      </trkpt>
      <trkpt lat="45.10481" lon="2.66156">
        <ele>1518.5</ele>
        <time>2021-08-11T10:49:03Z</time>
      </trkpt>
      <trkpt lat="45.1048" lon="2.66157">
        <ele>1518.3</ele>
        <time>2021-08-11T10:49:04Z</time>
      </trkpt>
      <trkpt lat="45.1048" lon="2.66158">
        <ele>1518.2</ele>
        <time>2021-08-11T10:49:05Z</time>
      </trkpt>
      <trkpt lat="45.1048" lon="2.66159">
        <ele>1518.1</ele>
        <time>2021-08-11T10:49:06Z</time>
      </trkpt>
      <trkpt lat="45.1048" lon="2.6616">
        <ele>1518</ele>
        <time>2021-08-11T10:49:07Z</time>
      </trkpt>
      <trkpt lat="45.1048" lon="2.66161">
        <ele>1517.9</ele>
        <time>2021-08-11T10:49:08Z</time>
      </trkpt>
      <trkpt lat="45.1048" lon="2.66162">
        <ele>1517.8</ele>
        <time>2021-08-11T10:49:09Z</time>
      </trkpt>
      <trkpt lat="45.1048" lon="2.66163">
        <ele>1517.7</ele>
        <time>2021-08-11T10:49:10Z</time>
      </trkpt>
      <trkpt lat="45.10479" lon="2.66164">
        <ele>1517.7</ele>
        <time>2021-08-11T10:49:11Z</time>
      </trkpt>
      <trkpt lat="45.10479" lon="2.66164">
        <ele>1517.6</ele>
        <time>2021-08-11T10:49:12Z</time>
      </trkpt>
      <trkpt lat="45.10479" lon="2.66165">
        <ele>1517.6</ele>
        <time>2021-08-11T10:49:13Z</time>
      </trkpt>
      <trkpt lat="45.10478" lon="2.66165">
        <ele>1517.5</ele>
        <time>2021-08-11T10:49:14Z</time>
      </trkpt>
      <trkpt lat="45.10478" lon="2.66166">
        <ele>1517.4</ele>
        <time>2021-08-11T10:49:15Z</time>
      </trkpt>
      <trkpt lat="45.10478" lon="2.66167">
        <ele>1517.3</ele>
        <time>2021-08-11T10:49:16Z</time>
      </trkpt>
      <trkpt lat="45.10478" lon="2.66168">
        <ele>1517.2</ele>
        <time>2021-08-11T10:49:17Z</time>
      </trkpt>
      <trkpt lat="45.10478" lon="2.66168">
        <ele>1517.1</ele>
        <time>2021-08-11T10:49:18Z</time>
      </trkpt>
      <trkpt lat="45.10478" lon="2.66169">
        <ele>1516.9</ele>
        <time>2021-08-11T10:49:19Z</time>
      </trkpt>
      <trkpt lat="45.10479" lon="2.6617">
        <ele>1516.7</ele>
        <time>2021-08-11T10:49:20Z</time>
      </trkpt>
      <trkpt lat="45.10479" lon="2.66171">
        <ele>1516.6</ele>
        <time>2021-08-11T10:49:21Z</time>
      </trkpt>
      <trkpt lat="45.10479" lon="2.66172">
        <ele>1516.4</ele>
        <time>2021-08-11T10:49:22Z</time>
      </trkpt>
      <trkpt lat="45.10479" lon="2.66173">
        <ele>1516.2</ele>
        <time>2021-08-11T10:49:23Z</time>
      </trkpt>
      <trkpt lat="45.10479" lon="2.66174">
        <ele>1516</ele>
        <time>2021-08-11T10:49:24Z</time>
      </trkpt>
      <trkpt lat="45.10479" lon="2.66174">
        <ele>1515.9</ele>
        <time>2021-08-11T10:49:25Z</time>
      </trkpt>
      <trkpt lat="45.10479" lon="2.66175">
        <ele>1515.8</ele>
        <time>2021-08-11T10:49:26Z</time>
      </trkpt>
      <trkpt lat="45.1048" lon="2.66176">
        <ele>1515.6</ele>
        <time>2021-08-11T10:49:27Z</time>
      </trkpt>
      <trkpt lat="45.1048" lon="2.66176">
        <ele>1515.5</ele>
        <time>2021-08-11T10:49:28Z</time>
      </trkpt>
      <trkpt lat="45.1048" lon="2.66177">
        <ele>1515.3</ele>
        <time>2021-08-11T10:49:29Z</time>
      </trkpt>
      <trkpt lat="45.1048" lon="2.66178">
        <ele>1515.2</ele>
        <time>2021-08-11T10:49:30Z</time>
      </trkpt>
      <trkpt lat="45.1048" lon="2.66179">
        <ele>1515</ele>
        <time>2021-08-11T10:49:31Z</time>
      </trkpt>
      <trkpt lat="45.1048" lon="2.6618">
        <ele>1514.8</ele>
        <time>2021-08-11T10:49:32Z</time>
      </trkpt>
      <trkpt lat="45.10481" lon="2.66181">
        <ele>1514.6</ele>
        <time>2021-08-11T10:49:33Z</time>
      </trkpt>
      <trkpt lat="45.10481" lon="2.66181">
        <ele>1514.5</ele>
        <time>2021-08-11T10:49:34Z</time>
      </trkpt>
      <trkpt lat="45.10481" lon="2.66182">
        <ele>1514.3</ele>
        <time>2021-08-11T10:49:35Z</time>
      </trkpt>
      <trkpt lat="45.10482" lon="2.66183">
        <ele>1514.1</ele>
        <time>2021-08-11T10:49:36Z</time>
      </trkpt>
      <trkpt lat="45.10483" lon="2.66183">
        <ele>1513.9</ele>
        <time>2021-08-11T10:49:37Z</time>
      </trkpt>
      <trkpt lat="45.10483" lon="2.66184">
        <ele>1513.7</ele>
        <time>2021-08-11T10:49:38Z</time>
      </trkpt>
      <trkpt lat="45.10484" lon="2.66185">
        <ele>1513.6</ele>
        <time>2021-08-11T10:49:39Z</time>
      </trkpt>
      <trkpt lat="45.10484" lon="2.66186">
        <ele>1513.3</ele>
        <time>2021-08-11T10:49:40Z</time>
      </trkpt>
      <trkpt lat="45.10484" lon="2.66187">
        <ele>1513.2</ele>
        <time>2021-08-11T10:49:41Z</time>
      </trkpt>
      <trkpt lat="45.10485" lon="2.66187">
        <ele>1512.9</ele>
        <time>2021-08-11T10:49:42Z</time>
      </trkpt>
      <trkpt lat="45.10485" lon="2.66188">
        <ele>1512.7</ele>
        <time>2021-08-11T10:49:43Z</time>
      </trkpt>
      <trkpt lat="45.10486" lon="2.66189">
        <ele>1512.5</ele>
        <time>2021-08-11T10:49:44Z</time>
      </trkpt>
      <trkpt lat="45.10486" lon="2.6619">
        <ele>1512.3</ele>
        <time>2021-08-11T10:49:45Z</time>
      </trkpt>
      <trkpt lat="45.10486" lon="2.66191">
        <ele>1512.1</ele>
        <time>2021-08-11T10:49:46Z</time>
      </trkpt>
      <trkpt lat="45.10486" lon="2.66192">
        <ele>1511.9</ele>
        <time>2021-08-11T10:49:47Z</time>
      </trkpt>
      <trkpt lat="45.10487" lon="2.66194">
        <ele>1511.6</ele>
        <time>2021-08-11T10:49:48Z</time>
      </trkpt>
      <trkpt lat="45.10486" lon="2.66194">
        <ele>1511.5</ele>
        <time>2021-08-11T10:49:49Z</time>
      </trkpt>
      <trkpt lat="45.10487" lon="2.66195">
        <ele>1511.3</ele>
        <time>2021-08-11T10:49:50Z</time>
      </trkpt>
      <trkpt lat="45.10487" lon="2.66196">
        <ele>1511.2</ele>
        <time>2021-08-11T10:49:51Z</time>
      </trkpt>
      <trkpt lat="45.10487" lon="2.66197">
        <ele>1511</ele>
        <time>2021-08-11T10:49:52Z</time>
      </trkpt>
      <trkpt lat="45.10487" lon="2.66197">
        <ele>1510.9</ele>
        <time>2021-08-11T10:49:53Z</time>
      </trkpt>
      <trkpt lat="45.10487" lon="2.66198">
        <ele>1510.7</ele>
        <time>2021-08-11T10:49:54Z</time>
      </trkpt>
      <trkpt lat="45.10488" lon="2.66199">
        <ele>1510.5</ele>
        <time>2021-08-11T10:49:55Z</time>
      </trkpt>
      <trkpt lat="45.10488" lon="2.66199">
        <ele>1510.3</ele>
        <time>2021-08-11T10:49:56Z</time>
      </trkpt>
      <trkpt lat="45.10489" lon="2.662">
        <ele>1510.2</ele>
        <time>2021-08-11T10:49:57Z</time>
      </trkpt>
      <trkpt lat="45.10489" lon="2.66201">
        <ele>1510</ele>
        <time>2021-08-11T10:49:58Z</time>
      </trkpt>
      <trkpt lat="45.10489" lon="2.66201">
        <ele>1509.8</ele>
        <time>2021-08-11T10:49:59Z</time>
      </trkpt>
      <trkpt lat="45.1049" lon="2.66202">
        <ele>1509.7</ele>
        <time>2021-08-11T10:50:00Z</time>
      </trkpt>
      <trkpt lat="45.1049" lon="2.66202">
        <ele>1509.5</ele>
        <time>2021-08-11T10:50:01Z</time>
      </trkpt>
      <trkpt lat="45.1049" lon="2.66203">
        <ele>1509.4</ele>
        <time>2021-08-11T10:50:02Z</time>
      </trkpt>
      <trkpt lat="45.10491" lon="2.66204">
        <ele>1509.3</ele>
        <time>2021-08-11T10:50:03Z</time>
      </trkpt>
      <trkpt lat="45.10491" lon="2.66204">
        <ele>1509.1</ele>
        <time>2021-08-11T10:50:04Z</time>
      </trkpt>
      <trkpt lat="45.10491" lon="2.66205">
        <ele>1509</ele>
        <time>2021-08-11T10:50:05Z</time>
      </trkpt>
      <trkpt lat="45.10491" lon="2.66205">
        <ele>1508.9</ele>
        <time>2021-08-11T10:50:06Z</time>
      </trkpt>
      <trkpt lat="45.10491" lon="2.66205">
        <ele>1508.8</ele>
        <time>2021-08-11T10:50:07Z</time>
      </trkpt>
      <trkpt lat="45.10492" lon="2.66206">
        <ele>1508.7</ele>
        <time>2021-08-11T10:50:08Z</time>
      </trkpt>
      <trkpt lat="45.10492" lon="2.66207">
        <ele>1508.5</ele>
        <time>2021-08-11T10:50:09Z</time>
      </trkpt>
      <trkpt lat="45.10493" lon="2.66207">
        <ele>1508.3</ele>
        <time>2021-08-11T10:50:10Z</time>
      </trkpt>
      <trkpt lat="45.10493" lon="2.66207">
        <ele>1508.2</ele>
        <time>2021-08-11T10:50:11Z</time>
      </trkpt>
      <trkpt lat="45.10493" lon="2.66207">
        <ele>1508.2</ele>
        <time>2021-08-11T10:50:12Z</time>
      </trkpt>
      <trkpt lat="45.10493" lon="2.66207">
        <ele>1508.2</ele>
        <time>2021-08-11T10:50:13Z</time>
      </trkpt>
      <trkpt lat="45.10493" lon="2.66207">
        <ele>1508.2</ele>
        <time>2021-08-11T10:50:14Z</time>
      </trkpt>
      <trkpt lat="45.10493" lon="2.66207">
        <ele>1508.2</ele>
        <time>2021-08-11T10:50:15Z</time>
      </trkpt>
      <trkpt lat="45.10494" lon="2.66207">
        <ele>1508.2</ele>
        <time>2021-08-11T10:50:16Z</time>
      </trkpt>
      <trkpt lat="45.10494" lon="2.66206">
        <ele>1508.2</ele>
        <time>2021-08-11T10:50:17Z</time>
      </trkpt>
      <trkpt lat="45.10495" lon="2.66206">
        <ele>1508.3</ele>
        <time>2021-08-11T10:50:18Z</time>
      </trkpt>
      <trkpt lat="45.10495" lon="2.66205">
        <ele>1508.3</ele>
        <time>2021-08-11T10:50:19Z</time>
      </trkpt>
      <trkpt lat="45.10496" lon="2.66205">
        <ele>1508.3</ele>
        <time>2021-08-11T10:50:20Z</time>
      </trkpt>
      <trkpt lat="45.10496" lon="2.66204">
        <ele>1508.4</ele>
        <time>2021-08-11T10:50:21Z</time>
      </trkpt>
      <trkpt lat="45.10497" lon="2.66203">
        <ele>1508.4</ele>
        <time>2021-08-11T10:50:22Z</time>
      </trkpt>
      <trkpt lat="45.10498" lon="2.66202">
        <ele>1508.5</ele>
        <time>2021-08-11T10:50:23Z</time>
      </trkpt>
      <trkpt lat="45.10498" lon="2.66202">
        <ele>1508.6</ele>
        <time>2021-08-11T10:50:24Z</time>
      </trkpt>
      <trkpt lat="45.10499" lon="2.66201">
        <ele>1508.7</ele>
        <time>2021-08-11T10:50:25Z</time>
      </trkpt>
      <trkpt lat="45.10499" lon="2.662">
        <ele>1508.8</ele>
        <time>2021-08-11T10:50:26Z</time>
      </trkpt>
      <trkpt lat="45.10499" lon="2.66199">
        <ele>1508.9</ele>
        <time>2021-08-11T10:50:27Z</time>
      </trkpt>
      <trkpt lat="45.105" lon="2.66198">
        <ele>1508.9</ele>
        <time>2021-08-11T10:50:28Z</time>
      </trkpt>
      <trkpt lat="45.10501" lon="2.66198">
        <ele>1508.7</ele>
        <time>2021-08-11T10:50:29Z</time>
      </trkpt>
      <trkpt lat="45.10501" lon="2.66198">
        <ele>1508.5</ele>
        <time>2021-08-11T10:50:30Z</time>
      </trkpt>
      <trkpt lat="45.10502" lon="2.66197">
        <ele>1508.2</ele>
        <time>2021-08-11T10:50:31Z</time>
      </trkpt>
      <trkpt lat="45.10503" lon="2.66197">
        <ele>1508</ele>
        <time>2021-08-11T10:50:32Z</time>
      </trkpt>
      <trkpt lat="45.10503" lon="2.66197">
        <ele>1507.8</ele>
        <time>2021-08-11T10:50:33Z</time>
      </trkpt>
      <trkpt lat="45.10504" lon="2.66197">
        <ele>1507.6</ele>
        <time>2021-08-11T10:50:34Z</time>
      </trkpt>
      <trkpt lat="45.10504" lon="2.66196">
        <ele>1507.3</ele>
        <time>2021-08-11T10:50:35Z</time>
      </trkpt>
      <trkpt lat="45.10505" lon="2.66196">
        <ele>1507.1</ele>
        <time>2021-08-11T10:50:36Z</time>
      </trkpt>
      <trkpt lat="45.10505" lon="2.66196">
        <ele>1506.9</ele>
        <time>2021-08-11T10:50:37Z</time>
      </trkpt>
      <trkpt lat="45.10506" lon="2.66195">
        <ele>1506.7</ele>
        <time>2021-08-11T10:50:38Z</time>
      </trkpt>
      <trkpt lat="45.10507" lon="2.66194">
        <ele>1506.5</ele>
        <time>2021-08-11T10:50:39Z</time>
      </trkpt>
      <trkpt lat="45.10508" lon="2.66193">
        <ele>1506.3</ele>
        <time>2021-08-11T10:50:40Z</time>
      </trkpt>
      <trkpt lat="45.10508" lon="2.66193">
        <ele>1506.2</ele>
        <time>2021-08-11T10:50:41Z</time>
      </trkpt>
      <trkpt lat="45.10509" lon="2.66192">
        <ele>1506</ele>
        <time>2021-08-11T10:50:42Z</time>
      </trkpt>
      <trkpt lat="45.10509" lon="2.66191">
        <ele>1505.9</ele>
        <time>2021-08-11T10:50:43Z</time>
      </trkpt>
      <trkpt lat="45.1051" lon="2.6619">
        <ele>1505.9</ele>
        <time>2021-08-11T10:50:44Z</time>
      </trkpt>
      <trkpt lat="45.1051" lon="2.66189">
        <ele>1506</ele>
        <time>2021-08-11T10:50:45Z</time>
      </trkpt>
      <trkpt lat="45.10511" lon="2.66187">
        <ele>1506</ele>
        <time>2021-08-11T10:50:46Z</time>
      </trkpt>
      <trkpt lat="45.10511" lon="2.66186">
        <ele>1506</ele>
        <time>2021-08-11T10:50:47Z</time>
      </trkpt>
      <trkpt lat="45.10512" lon="2.66185">
        <ele>1506</ele>
        <time>2021-08-11T10:50:48Z</time>
      </trkpt>
      <trkpt lat="45.10512" lon="2.66184">
        <ele>1505.9</ele>
        <time>2021-08-11T10:50:49Z</time>
      </trkpt>
      <trkpt lat="45.10513" lon="2.66183">
        <ele>1505.9</ele>
        <time>2021-08-11T10:50:50Z</time>
      </trkpt>
      <trkpt lat="45.10513" lon="2.66182">
        <ele>1505.8</ele>
        <time>2021-08-11T10:50:51Z</time>
      </trkpt>
      <trkpt lat="45.10514" lon="2.66182">
        <ele>1505.6</ele>
        <time>2021-08-11T10:50:52Z</time>
      </trkpt>
      <trkpt lat="45.10514" lon="2.66182">
        <ele>1505.4</ele>
        <time>2021-08-11T10:50:53Z</time>
      </trkpt>
      <trkpt lat="45.10515" lon="2.66182">
        <ele>1505.2</ele>
        <time>2021-08-11T10:50:54Z</time>
      </trkpt>
      <trkpt lat="45.10515" lon="2.66181">
        <ele>1505</ele>
        <time>2021-08-11T10:50:55Z</time>
      </trkpt>
      <trkpt lat="45.10516" lon="2.66181">
        <ele>1504.7</ele>
        <time>2021-08-11T10:50:56Z</time>
      </trkpt>
      <trkpt lat="45.10517" lon="2.66181">
        <ele>1504.4</ele>
        <time>2021-08-11T10:50:57Z</time>
      </trkpt>
      <trkpt lat="45.10517" lon="2.6618">
        <ele>1504.2</ele>
        <time>2021-08-11T10:50:58Z</time>
      </trkpt>
      <trkpt lat="45.10518" lon="2.6618">
        <ele>1503.9</ele>
        <time>2021-08-11T10:50:59Z</time>
      </trkpt>
      <trkpt lat="45.10519" lon="2.6618">
        <ele>1503.7</ele>
        <time>2021-08-11T10:51:00Z</time>
      </trkpt>
      <trkpt lat="45.10519" lon="2.6618">
        <ele>1503.4</ele>
        <time>2021-08-11T10:51:01Z</time>
      </trkpt>
      <trkpt lat="45.1052" lon="2.66179">
        <ele>1503.1</ele>
        <time>2021-08-11T10:51:02Z</time>
      </trkpt>
      <trkpt lat="45.10521" lon="2.66179">
        <ele>1503</ele>
        <time>2021-08-11T10:51:03Z</time>
      </trkpt>
      <trkpt lat="45.10521" lon="2.66178">
        <ele>1502.8</ele>
        <time>2021-08-11T10:51:04Z</time>
      </trkpt>
      <trkpt lat="45.10522" lon="2.66178">
        <ele>1502.6</ele>
        <time>2021-08-11T10:51:05Z</time>
      </trkpt>
      <trkpt lat="45.10523" lon="2.66177">
        <ele>1502.3</ele>
        <time>2021-08-11T10:51:06Z</time>
      </trkpt>
      <trkpt lat="45.10523" lon="2.66177">
        <ele>1502.1</ele>
        <time>2021-08-11T10:51:07Z</time>
      </trkpt>
      <trkpt lat="45.10524" lon="2.66177">
        <ele>1501.9</ele>
        <time>2021-08-11T10:51:08Z</time>
      </trkpt>
      <trkpt lat="45.10524" lon="2.66177">
        <ele>1501.7</ele>
        <time>2021-08-11T10:51:09Z</time>
      </trkpt>
      <trkpt lat="45.10525" lon="2.66176">
        <ele>1501.4</ele>
        <time>2021-08-11T10:51:10Z</time>
      </trkpt>
      <trkpt lat="45.10526" lon="2.66176">
        <ele>1501</ele>
        <time>2021-08-11T10:51:11Z</time>
      </trkpt>
      <trkpt lat="45.10527" lon="2.66176">
        <ele>1500.6</ele>
        <time>2021-08-11T10:51:12Z</time>
      </trkpt>
      <trkpt lat="45.10527" lon="2.66176">
        <ele>1500.3</ele>
        <time>2021-08-11T10:51:13Z</time>
      </trkpt>
      <trkpt lat="45.10528" lon="2.66176">
        <ele>1500.1</ele>
        <time>2021-08-11T10:51:14Z</time>
      </trkpt>
      <trkpt lat="45.10529" lon="2.66175">
        <ele>1499.8</ele>
        <time>2021-08-11T10:51:15Z</time>
      </trkpt>
      <trkpt lat="45.10529" lon="2.66175">
        <ele>1499.6</ele>
        <time>2021-08-11T10:51:16Z</time>
      </trkpt>
      <trkpt lat="45.1053" lon="2.66175">
        <ele>1499.3</ele>
        <time>2021-08-11T10:51:17Z</time>
      </trkpt>
      <trkpt lat="45.10531" lon="2.66175">
        <ele>1499</ele>
        <time>2021-08-11T10:51:18Z</time>
      </trkpt>
      <trkpt lat="45.10531" lon="2.66175">
        <ele>1498.7</ele>
        <time>2021-08-11T10:51:19Z</time>
      </trkpt>
      <trkpt lat="45.10532" lon="2.66175">
        <ele>1498.3</ele>
        <time>2021-08-11T10:51:20Z</time>
      </trkpt>
      <trkpt lat="45.10533" lon="2.66175">
        <ele>1498</ele>
        <time>2021-08-11T10:51:21Z</time>
      </trkpt>
      <trkpt lat="45.10534" lon="2.66175">
        <ele>1497.7</ele>
        <time>2021-08-11T10:51:22Z</time>
      </trkpt>
      <trkpt lat="45.10534" lon="2.66175">
        <ele>1497.2</ele>
        <time>2021-08-11T10:51:23Z</time>
      </trkpt>
      <trkpt lat="45.10535" lon="2.66175">
        <ele>1496.9</ele>
        <time>2021-08-11T10:51:24Z</time>
      </trkpt>
      <trkpt lat="45.10536" lon="2.66175">
        <ele>1496.6</ele>
        <time>2021-08-11T10:51:25Z</time>
      </trkpt>
      <trkpt lat="45.10537" lon="2.66175">
        <ele>1496.2</ele>
        <time>2021-08-11T10:51:26Z</time>
      </trkpt>
      <trkpt lat="45.10537" lon="2.66175">
        <ele>1496</ele>
        <time>2021-08-11T10:51:27Z</time>
      </trkpt>
      <trkpt lat="45.10538" lon="2.66175">
        <ele>1495.6</ele>
        <time>2021-08-11T10:51:28Z</time>
      </trkpt>
      <trkpt lat="45.10539" lon="2.66175">
        <ele>1495.4</ele>
        <time>2021-08-11T10:51:29Z</time>
      </trkpt>
      <trkpt lat="45.10539" lon="2.66175">
        <ele>1495</ele>
        <time>2021-08-11T10:51:30Z</time>
      </trkpt>
      <trkpt lat="45.1054" lon="2.66175">
        <ele>1494.6</ele>
        <time>2021-08-11T10:51:31Z</time>
      </trkpt>
      <trkpt lat="45.10541" lon="2.66175">
        <ele>1494.3</ele>
        <time>2021-08-11T10:51:32Z</time>
      </trkpt>
      <trkpt lat="45.10542" lon="2.66174">
        <ele>1494</ele>
        <time>2021-08-11T10:51:33Z</time>
      </trkpt>
      <trkpt lat="45.10542" lon="2.66174">
        <ele>1493.7</ele>
        <time>2021-08-11T10:51:34Z</time>
      </trkpt>
      <trkpt lat="45.10543" lon="2.66174">
        <ele>1493.4</ele>
        <time>2021-08-11T10:51:35Z</time>
      </trkpt>
      <trkpt lat="45.10544" lon="2.66173">
        <ele>1493.2</ele>
        <time>2021-08-11T10:51:36Z</time>
      </trkpt>
      <trkpt lat="45.10545" lon="2.66173">
        <ele>1492.9</ele>
        <time>2021-08-11T10:51:37Z</time>
      </trkpt>
      <trkpt lat="45.10545" lon="2.66172">
        <ele>1492.7</ele>
        <time>2021-08-11T10:51:38Z</time>
      </trkpt>
      <trkpt lat="45.10546" lon="2.66172">
        <ele>1492.4</ele>
        <time>2021-08-11T10:51:39Z</time>
      </trkpt>
      <trkpt lat="45.10546" lon="2.66172">
        <ele>1492.2</ele>
        <time>2021-08-11T10:51:40Z</time>
      </trkpt>
      <trkpt lat="45.10547" lon="2.66172">
        <ele>1491.9</ele>
        <time>2021-08-11T10:51:41Z</time>
      </trkpt>
      <trkpt lat="45.10548" lon="2.66172">
        <ele>1491.7</ele>
        <time>2021-08-11T10:51:42Z</time>
      </trkpt>
      <trkpt lat="45.10548" lon="2.66172">
        <ele>1491.4</ele>
        <time>2021-08-11T10:51:43Z</time>
      </trkpt>
      <trkpt lat="45.10549" lon="2.66172">
        <ele>1491.2</ele>
        <time>2021-08-11T10:51:44Z</time>
      </trkpt>
      <trkpt lat="45.10549" lon="2.66172">
        <ele>1490.8</ele>
        <time>2021-08-11T10:51:45Z</time>
      </trkpt>
      <trkpt lat="45.1055" lon="2.66172">
        <ele>1490.6</ele>
        <time>2021-08-11T10:51:46Z</time>
      </trkpt>
      <trkpt lat="45.1055" lon="2.66172">
        <ele>1490.3</ele>
        <time>2021-08-11T10:51:47Z</time>
      </trkpt>
      <trkpt lat="45.10551" lon="2.66173">
        <ele>1490</ele>
        <time>2021-08-11T10:51:48Z</time>
      </trkpt>
      <trkpt lat="45.10551" lon="2.66174">
        <ele>1489.7</ele>
        <time>2021-08-11T10:51:49Z</time>
      </trkpt>
      <trkpt lat="45.10551" lon="2.66175">
        <ele>1489.3</ele>
        <time>2021-08-11T10:51:50Z</time>
      </trkpt>
      <trkpt lat="45.10552" lon="2.66176">
        <ele>1488.9</ele>
        <time>2021-08-11T10:51:51Z</time>
      </trkpt>
      <trkpt lat="45.10552" lon="2.66177">
        <ele>1488.7</ele>
        <time>2021-08-11T10:51:52Z</time>
      </trkpt>
      <trkpt lat="45.10551" lon="2.66179">
        <ele>1488.6</ele>
        <time>2021-08-11T10:51:53Z</time>
      </trkpt>
      <trkpt lat="45.10551" lon="2.6618">
        <ele>1488.6</ele>
        <time>2021-08-11T10:51:54Z</time>
      </trkpt>
      <trkpt lat="45.1055" lon="2.6618">
        <ele>1488.6</ele>
        <time>2021-08-11T10:51:55Z</time>
      </trkpt>
      <trkpt lat="45.1055" lon="2.66181">
        <ele>1488.6</ele>
        <time>2021-08-11T10:51:56Z</time>
      </trkpt>
      <trkpt lat="45.1055" lon="2.66183">
        <ele>1488.4</ele>
        <time>2021-08-11T10:51:57Z</time>
      </trkpt>
      <trkpt lat="45.1055" lon="2.66184">
        <ele>1488.3</ele>
        <time>2021-08-11T10:51:58Z</time>
      </trkpt>
      <trkpt lat="45.10549" lon="2.66185">
        <ele>1488.2</ele>
        <time>2021-08-11T10:51:59Z</time>
      </trkpt>
      <trkpt lat="45.10549" lon="2.66186">
        <ele>1488.2</ele>
        <time>2021-08-11T10:52:00Z</time>
      </trkpt>
      <trkpt lat="45.10549" lon="2.66187">
        <ele>1488.1</ele>
        <time>2021-08-11T10:52:01Z</time>
      </trkpt>
      <trkpt lat="45.10549" lon="2.66188">
        <ele>1487.9</ele>
        <time>2021-08-11T10:52:02Z</time>
      </trkpt>
      <trkpt lat="45.10548" lon="2.6619">
        <ele>1487.6</ele>
        <time>2021-08-11T10:52:03Z</time>
      </trkpt>
      <trkpt lat="45.10548" lon="2.66191">
        <ele>1487.4</ele>
        <time>2021-08-11T10:52:04Z</time>
      </trkpt>
      <trkpt lat="45.10548" lon="2.66192">
        <ele>1487.3</ele>
        <time>2021-08-11T10:52:05Z</time>
      </trkpt>
      <trkpt lat="45.10548" lon="2.66194">
        <ele>1487.3</ele>
        <time>2021-08-11T10:52:06Z</time>
      </trkpt>
      <trkpt lat="45.10547" lon="2.66195">
        <ele>1487.1</ele>
        <time>2021-08-11T10:52:07Z</time>
      </trkpt>
      <trkpt lat="45.10547" lon="2.66196">
        <ele>1486.9</ele>
        <time>2021-08-11T10:52:08Z</time>
      </trkpt>
      <trkpt lat="45.10547" lon="2.66197">
        <ele>1486.8</ele>
        <time>2021-08-11T10:52:09Z</time>
      </trkpt>
      <trkpt lat="45.10547" lon="2.66199">
        <ele>1486.7</ele>
        <time>2021-08-11T10:52:10Z</time>
      </trkpt>
      <trkpt lat="45.10546" lon="2.662">
        <ele>1486.6</ele>
        <time>2021-08-11T10:52:11Z</time>
      </trkpt>
      <trkpt lat="45.10546" lon="2.66201">
        <ele>1486.5</ele>
        <time>2021-08-11T10:52:12Z</time>
      </trkpt>
      <trkpt lat="45.10546" lon="2.66203">
        <ele>1486.3</ele>
        <time>2021-08-11T10:52:13Z</time>
      </trkpt>
      <trkpt lat="45.10545" lon="2.66204">
        <ele>1486.2</ele>
        <time>2021-08-11T10:52:14Z</time>
      </trkpt>
      <trkpt lat="45.10544" lon="2.66206">
        <ele>1486.3</ele>
        <time>2021-08-11T10:52:15Z</time>
      </trkpt>
      <trkpt lat="45.10544" lon="2.66207">
        <ele>1486.4</ele>
        <time>2021-08-11T10:52:16Z</time>
      </trkpt>
      <trkpt lat="45.10543" lon="2.66207">
        <ele>1486.4</ele>
        <time>2021-08-11T10:52:17Z</time>
      </trkpt>
      <trkpt lat="45.10543" lon="2.66207">
        <ele>1486.4</ele>
        <time>2021-08-11T10:52:18Z</time>
      </trkpt>
      <trkpt lat="45.10543" lon="2.66207">
        <ele>1486.4</ele>
        <time>2021-08-11T10:52:19Z</time>
      </trkpt>
      <trkpt lat="45.10543" lon="2.66207">
        <ele>1486.5</ele>
        <time>2021-08-11T10:52:20Z</time>
      </trkpt>
      <trkpt lat="45.10543" lon="2.66207">
        <ele>1486.4</ele>
        <time>2021-08-11T10:52:21Z</time>
      </trkpt>
      <trkpt lat="45.10543" lon="2.66208">
        <ele>1486.4</ele>
        <time>2021-08-11T10:52:22Z</time>
      </trkpt>
      <trkpt lat="45.10543" lon="2.66209">
        <ele>1486.3</ele>
        <time>2021-08-11T10:52:23Z</time>
      </trkpt>
      <trkpt lat="45.10543" lon="2.6621">
        <ele>1486.2</ele>
        <time>2021-08-11T10:52:24Z</time>
      </trkpt>
      <trkpt lat="45.10543" lon="2.66211">
        <ele>1486.1</ele>
        <time>2021-08-11T10:52:25Z</time>
      </trkpt>
      <trkpt lat="45.10543" lon="2.66212">
        <ele>1485.8</ele>
        <time>2021-08-11T10:52:26Z</time>
      </trkpt>
      <trkpt lat="45.10543" lon="2.66213">
        <ele>1485.6</ele>
        <time>2021-08-11T10:52:27Z</time>
      </trkpt>
      <trkpt lat="45.10542" lon="2.66214">
        <ele>1485.5</ele>
        <time>2021-08-11T10:52:28Z</time>
      </trkpt>
      <trkpt lat="45.10542" lon="2.66216">
        <ele>1485.4</ele>
        <time>2021-08-11T10:52:29Z</time>
      </trkpt>
      <trkpt lat="45.10542" lon="2.66217">
        <ele>1485.3</ele>
        <time>2021-08-11T10:52:30Z</time>
      </trkpt>
      <trkpt lat="45.10541" lon="2.66218">
        <ele>1485.3</ele>
        <time>2021-08-11T10:52:31Z</time>
      </trkpt>
      <trkpt lat="45.10541" lon="2.66219">
        <ele>1485.2</ele>
        <time>2021-08-11T10:52:32Z</time>
      </trkpt>
      <trkpt lat="45.10541" lon="2.6622">
        <ele>1485.2</ele>
        <time>2021-08-11T10:52:33Z</time>
      </trkpt>
      <trkpt lat="45.1054" lon="2.66221">
        <ele>1485.1</ele>
        <time>2021-08-11T10:52:34Z</time>
      </trkpt>
      <trkpt lat="45.1054" lon="2.66222">
        <ele>1485.1</ele>
        <time>2021-08-11T10:52:35Z</time>
      </trkpt>
      <trkpt lat="45.1054" lon="2.66223">
        <ele>1485.1</ele>
        <time>2021-08-11T10:52:36Z</time>
      </trkpt>
      <trkpt lat="45.1054" lon="2.66224">
        <ele>1484.9</ele>
        <time>2021-08-11T10:52:37Z</time>
      </trkpt>
      <trkpt lat="45.10539" lon="2.66225">
        <ele>1484.7</ele>
        <time>2021-08-11T10:52:38Z</time>
      </trkpt>
      <trkpt lat="45.1054" lon="2.66226">
        <ele>1484.4</ele>
        <time>2021-08-11T10:52:39Z</time>
      </trkpt>
      <trkpt lat="45.10539" lon="2.66227">
        <ele>1484.3</ele>
        <time>2021-08-11T10:52:40Z</time>
      </trkpt>
      <trkpt lat="45.10539" lon="2.66229">
        <ele>1484.2</ele>
        <time>2021-08-11T10:52:41Z</time>
      </trkpt>
      <trkpt lat="45.10539" lon="2.6623">
        <ele>1484</ele>
        <time>2021-08-11T10:52:42Z</time>
      </trkpt>
      <trkpt lat="45.10539" lon="2.66231">
        <ele>1484</ele>
        <time>2021-08-11T10:52:43Z</time>
      </trkpt>
      <trkpt lat="45.10538" lon="2.66232">
        <ele>1483.8</ele>
        <time>2021-08-11T10:52:44Z</time>
      </trkpt>
      <trkpt lat="45.10538" lon="2.66233">
        <ele>1483.6</ele>
        <time>2021-08-11T10:52:45Z</time>
      </trkpt>
      <trkpt lat="45.10538" lon="2.66234">
        <ele>1483.4</ele>
        <time>2021-08-11T10:52:46Z</time>
      </trkpt>
      <trkpt lat="45.10538" lon="2.66236">
        <ele>1483.1</ele>
        <time>2021-08-11T10:52:47Z</time>
      </trkpt>
      <trkpt lat="45.10538" lon="2.66237">
        <ele>1482.8</ele>
        <time>2021-08-11T10:52:48Z</time>
      </trkpt>
      <trkpt lat="45.10538" lon="2.66238">
        <ele>1482.6</ele>
        <time>2021-08-11T10:52:49Z</time>
      </trkpt>
      <trkpt lat="45.10538" lon="2.66239">
        <ele>1482.4</ele>
        <time>2021-08-11T10:52:50Z</time>
      </trkpt>
      <trkpt lat="45.10538" lon="2.6624">
        <ele>1482.1</ele>
        <time>2021-08-11T10:52:51Z</time>
      </trkpt>
      <trkpt lat="45.10539" lon="2.66241">
        <ele>1481.9</ele>
        <time>2021-08-11T10:52:52Z</time>
      </trkpt>
      <trkpt lat="45.10539" lon="2.66241">
        <ele>1481.7</ele>
        <time>2021-08-11T10:52:53Z</time>
      </trkpt>
      <trkpt lat="45.10539" lon="2.66242">
        <ele>1481.4</ele>
        <time>2021-08-11T10:52:54Z</time>
      </trkpt>
      <trkpt lat="45.10539" lon="2.66243">
        <ele>1481.1</ele>
        <time>2021-08-11T10:52:55Z</time>
      </trkpt>
      <trkpt lat="45.10539" lon="2.66245">
        <ele>1480.9</ele>
        <time>2021-08-11T10:52:56Z</time>
      </trkpt>
      <trkpt lat="45.10539" lon="2.66246">
        <ele>1480.8</ele>
        <time>2021-08-11T10:52:57Z</time>
      </trkpt>
      <trkpt lat="45.10538" lon="2.66247">
        <ele>1480.7</ele>
        <time>2021-08-11T10:52:58Z</time>
      </trkpt>
      <trkpt lat="45.10538" lon="2.66249">
        <ele>1480.4</ele>
        <time>2021-08-11T10:52:59Z</time>
      </trkpt>
      <trkpt lat="45.10538" lon="2.6625">
        <ele>1480.3</ele>
        <time>2021-08-11T10:53:00Z</time>
      </trkpt>
      <trkpt lat="45.10538" lon="2.66251">
        <ele>1480.3</ele>
        <time>2021-08-11T10:53:01Z</time>
      </trkpt>
      <trkpt lat="45.10537" lon="2.66252">
        <ele>1480.2</ele>
        <time>2021-08-11T10:53:02Z</time>
      </trkpt>
      <trkpt lat="45.10537" lon="2.66254">
        <ele>1480.2</ele>
        <time>2021-08-11T10:53:03Z</time>
      </trkpt>
      <trkpt lat="45.10537" lon="2.66255">
        <ele>1479.9</ele>
        <time>2021-08-11T10:53:04Z</time>
      </trkpt>
      <trkpt lat="45.10537" lon="2.66256">
        <ele>1479.8</ele>
        <time>2021-08-11T10:53:05Z</time>
      </trkpt>
      <trkpt lat="45.10537" lon="2.66258">
        <ele>1479.7</ele>
        <time>2021-08-11T10:53:06Z</time>
      </trkpt>
      <trkpt lat="45.10537" lon="2.66258">
        <ele>1479.6</ele>
        <time>2021-08-11T10:53:07Z</time>
      </trkpt>
      <trkpt lat="45.10537" lon="2.66259">
        <ele>1479.4</ele>
        <time>2021-08-11T10:53:08Z</time>
      </trkpt>
      <trkpt lat="45.10537" lon="2.6626">
        <ele>1479.2</ele>
        <time>2021-08-11T10:53:09Z</time>
      </trkpt>
      <trkpt lat="45.10537" lon="2.66261">
        <ele>1479.1</ele>
        <time>2021-08-11T10:53:10Z</time>
      </trkpt>
      <trkpt lat="45.10537" lon="2.66261">
        <ele>1479</ele>
        <time>2021-08-11T10:53:11Z</time>
      </trkpt>
      <trkpt lat="45.10537" lon="2.66262">
        <ele>1478.7</ele>
        <time>2021-08-11T10:53:12Z</time>
      </trkpt>
      <trkpt lat="45.10537" lon="2.66263">
        <ele>1478.6</ele>
        <time>2021-08-11T10:53:13Z</time>
      </trkpt>
      <trkpt lat="45.10538" lon="2.66264">
        <ele>1478.3</ele>
        <time>2021-08-11T10:53:14Z</time>
      </trkpt>
      <trkpt lat="45.10538" lon="2.66264">
        <ele>1478</ele>
        <time>2021-08-11T10:53:15Z</time>
      </trkpt>
      <trkpt lat="45.10538" lon="2.66264">
        <ele>1477.8</ele>
        <time>2021-08-11T10:53:16Z</time>
      </trkpt>
      <trkpt lat="45.10539" lon="2.66265">
        <ele>1477.5</ele>
        <time>2021-08-11T10:53:17Z</time>
      </trkpt>
      <trkpt lat="45.10539" lon="2.66265">
        <ele>1477.2</ele>
        <time>2021-08-11T10:53:18Z</time>
      </trkpt>
      <trkpt lat="45.1054" lon="2.66265">
        <ele>1477</ele>
        <time>2021-08-11T10:53:19Z</time>
      </trkpt>
      <trkpt lat="45.1054" lon="2.66264">
        <ele>1476.8</ele>
        <time>2021-08-11T10:53:20Z</time>
      </trkpt>
      <trkpt lat="45.10541" lon="2.66264">
        <ele>1476.6</ele>
        <time>2021-08-11T10:53:21Z</time>
      </trkpt>
      <trkpt lat="45.10541" lon="2.66264">
        <ele>1476.5</ele>
        <time>2021-08-11T10:53:22Z</time>
      </trkpt>
      <trkpt lat="45.10541" lon="2.66263">
        <ele>1476.4</ele>
        <time>2021-08-11T10:53:23Z</time>
      </trkpt>
      <trkpt lat="45.10542" lon="2.66263">
        <ele>1476.4</ele>
        <time>2021-08-11T10:53:24Z</time>
      </trkpt>
      <trkpt lat="45.10542" lon="2.66262">
        <ele>1476.2</ele>
        <time>2021-08-11T10:53:25Z</time>
      </trkpt>
      <trkpt lat="45.10543" lon="2.66262">
        <ele>1476</ele>
        <time>2021-08-11T10:53:26Z</time>
      </trkpt>
      <trkpt lat="45.10543" lon="2.66262">
        <ele>1475.8</ele>
        <time>2021-08-11T10:53:27Z</time>
      </trkpt>
      <trkpt lat="45.10543" lon="2.66262">
        <ele>1475.7</ele>
        <time>2021-08-11T10:53:28Z</time>
      </trkpt>
      <trkpt lat="45.10543" lon="2.66262">
        <ele>1475.7</ele>
        <time>2021-08-11T10:53:29Z</time>
      </trkpt>
      <trkpt lat="45.10543" lon="2.66262">
        <ele>1475.7</ele>
        <time>2021-08-11T10:53:30Z</time>
      </trkpt>
      <trkpt lat="45.10543" lon="2.66262">
        <ele>1475.7</ele>
        <time>2021-08-11T10:53:31Z</time>
      </trkpt>
      <trkpt lat="45.10543" lon="2.66261">
        <ele>1475.7</ele>
        <time>2021-08-11T10:53:32Z</time>
      </trkpt>
      <trkpt lat="45.10544" lon="2.66261">
        <ele>1475.6</ele>
        <time>2021-08-11T10:53:33Z</time>
      </trkpt>
      <trkpt lat="45.10544" lon="2.66261">
        <ele>1475.6</ele>
        <time>2021-08-11T10:53:34Z</time>
      </trkpt>
      <trkpt lat="45.10544" lon="2.66261">
        <ele>1475.6</ele>
        <time>2021-08-11T10:53:35Z</time>
      </trkpt>
      <trkpt lat="45.10544" lon="2.66261">
        <ele>1475.4</ele>
        <time>2021-08-11T10:53:36Z</time>
      </trkpt>
      <trkpt lat="45.10544" lon="2.66261">
        <ele>1475.3</ele>
        <time>2021-08-11T10:53:37Z</time>
      </trkpt>
      <trkpt lat="45.10545" lon="2.6626">
        <ele>1475.1</ele>
        <time>2021-08-11T10:53:38Z</time>
      </trkpt>
      <trkpt lat="45.10545" lon="2.6626">
        <ele>1475</ele>
        <time>2021-08-11T10:53:39Z</time>
      </trkpt>
      <trkpt lat="45.10546" lon="2.66259">
        <ele>1475</ele>
        <time>2021-08-11T10:53:40Z</time>
      </trkpt>
      <trkpt lat="45.10546" lon="2.66259">
        <ele>1474.9</ele>
        <time>2021-08-11T10:53:41Z</time>
      </trkpt>
      <trkpt lat="45.10546" lon="2.66258">
        <ele>1475</ele>
        <time>2021-08-11T10:53:42Z</time>
      </trkpt>
      <trkpt lat="45.10546" lon="2.66258">
        <ele>1475</ele>
        <time>2021-08-11T10:53:43Z</time>
      </trkpt>
      <trkpt lat="45.10546" lon="2.66257">
        <ele>1474.9</ele>
        <time>2021-08-11T10:53:44Z</time>
      </trkpt>
      <trkpt lat="45.10547" lon="2.66257">
        <ele>1474.9</ele>
        <time>2021-08-11T10:53:45Z</time>
      </trkpt>
      <trkpt lat="45.10547" lon="2.66257">
        <ele>1474.8</ele>
        <time>2021-08-11T10:53:46Z</time>
      </trkpt>
      <trkpt lat="45.10547" lon="2.66257">
        <ele>1474.6</ele>
        <time>2021-08-11T10:53:47Z</time>
      </trkpt>
      <trkpt lat="45.10548" lon="2.66256">
        <ele>1474.5</ele>
        <time>2021-08-11T10:53:48Z</time>
      </trkpt>
      <trkpt lat="45.10548" lon="2.66256">
        <ele>1474.3</ele>
        <time>2021-08-11T10:53:49Z</time>
      </trkpt>
      <trkpt lat="45.10548" lon="2.66256">
        <ele>1474.2</ele>
        <time>2021-08-11T10:53:50Z</time>
      </trkpt>
      <trkpt lat="45.10548" lon="2.66257">
        <ele>1474</ele>
        <time>2021-08-11T10:53:51Z</time>
      </trkpt>
      <trkpt lat="45.10549" lon="2.66258">
        <ele>1473.5</ele>
        <time>2021-08-11T10:53:52Z</time>
      </trkpt>
      <trkpt lat="45.10549" lon="2.66258">
        <ele>1473.3</ele>
        <time>2021-08-11T10:53:53Z</time>
      </trkpt>
      <trkpt lat="45.10549" lon="2.66259">
        <ele>1473.3</ele>
        <time>2021-08-11T10:53:54Z</time>
      </trkpt>
      <trkpt lat="45.10549" lon="2.6626">
        <ele>1473.3</ele>
        <time>2021-08-11T10:53:55Z</time>
      </trkpt>
      <trkpt lat="45.10549" lon="2.6626">
        <ele>1473.3</ele>
        <time>2021-08-11T10:53:56Z</time>
      </trkpt>
      <trkpt lat="45.10548" lon="2.66261">
        <ele>1473.3</ele>
        <time>2021-08-11T10:53:57Z</time>
      </trkpt>
      <trkpt lat="45.10548" lon="2.66261">
        <ele>1473.3</ele>
        <time>2021-08-11T10:53:58Z</time>
      </trkpt>
      <trkpt lat="45.10548" lon="2.66261">
        <ele>1473.4</ele>
        <time>2021-08-11T10:53:59Z</time>
      </trkpt>
      <trkpt lat="45.10548" lon="2.66262">
        <ele>1473.4</ele>
        <time>2021-08-11T10:54:00Z</time>
      </trkpt>
      <trkpt lat="45.10548" lon="2.66262">
        <ele>1473.2</ele>
        <time>2021-08-11T10:54:01Z</time>
      </trkpt>
      <trkpt lat="45.10548" lon="2.66263">
        <ele>1473.2</ele>
        <time>2021-08-11T10:54:02Z</time>
      </trkpt>
      <trkpt lat="45.10548" lon="2.66263">
        <ele>1473.2</ele>
        <time>2021-08-11T10:54:03Z</time>
      </trkpt>
      <trkpt lat="45.10548" lon="2.66264">
        <ele>1473</ele>
        <time>2021-08-11T10:54:04Z</time>
      </trkpt>
      <trkpt lat="45.10548" lon="2.66264">
        <ele>1473</ele>
        <time>2021-08-11T10:54:05Z</time>
      </trkpt>
      <trkpt lat="45.10548" lon="2.66264">
        <ele>1472.7</ele>
        <time>2021-08-11T10:54:06Z</time>
      </trkpt>
      <trkpt lat="45.10549" lon="2.66265">
        <ele>1472.4</ele>
        <time>2021-08-11T10:54:07Z</time>
      </trkpt>
      <trkpt lat="45.10549" lon="2.66266">
        <ele>1472.3</ele>
        <time>2021-08-11T10:54:08Z</time>
      </trkpt>
      <trkpt lat="45.10548" lon="2.66267">
        <ele>1472.3</ele>
        <time>2021-08-11T10:54:09Z</time>
      </trkpt>
      <trkpt lat="45.10548" lon="2.66268">
        <ele>1472.2</ele>
        <time>2021-08-11T10:54:10Z</time>
      </trkpt>
      <trkpt lat="45.10548" lon="2.66269">
        <ele>1472.1</ele>
        <time>2021-08-11T10:54:11Z</time>
      </trkpt>
      <trkpt lat="45.10548" lon="2.66269">
        <ele>1472.2</ele>
        <time>2021-08-11T10:54:12Z</time>
      </trkpt>
      <trkpt lat="45.10548" lon="2.6627">
        <ele>1472</ele>
        <time>2021-08-11T10:54:13Z</time>
      </trkpt>
      <trkpt lat="45.10548" lon="2.66271">
        <ele>1471.8</ele>
        <time>2021-08-11T10:54:14Z</time>
      </trkpt>
      <trkpt lat="45.10548" lon="2.66272">
        <ele>1471.5</ele>
        <time>2021-08-11T10:54:15Z</time>
      </trkpt>
      <trkpt lat="45.10548" lon="2.66273">
        <ele>1471.2</ele>
        <time>2021-08-11T10:54:16Z</time>
      </trkpt>
      <trkpt lat="45.10548" lon="2.66274">
        <ele>1470.9</ele>
        <time>2021-08-11T10:54:17Z</time>
      </trkpt>
      <trkpt lat="45.10548" lon="2.66275">
        <ele>1470.8</ele>
        <time>2021-08-11T10:54:18Z</time>
      </trkpt>
      <trkpt lat="45.10548" lon="2.66276">
        <ele>1470.6</ele>
        <time>2021-08-11T10:54:19Z</time>
      </trkpt>
      <trkpt lat="45.10549" lon="2.66276">
        <ele>1470.4</ele>
        <time>2021-08-11T10:54:20Z</time>
      </trkpt>
      <trkpt lat="45.10548" lon="2.66277">
        <ele>1470.3</ele>
        <time>2021-08-11T10:54:21Z</time>
      </trkpt>
      <trkpt lat="45.10548" lon="2.66279">
        <ele>1470.2</ele>
        <time>2021-08-11T10:54:22Z</time>
      </trkpt>
      <trkpt lat="45.10548" lon="2.66279">
        <ele>1470.2</ele>
        <time>2021-08-11T10:54:23Z</time>
      </trkpt>
      <trkpt lat="45.10548" lon="2.6628">
        <ele>1470.2</ele>
        <time>2021-08-11T10:54:24Z</time>
      </trkpt>
      <trkpt lat="45.10547" lon="2.66281">
        <ele>1470.3</ele>
        <time>2021-08-11T10:54:25Z</time>
      </trkpt>
      <trkpt lat="45.10547" lon="2.66281">
        <ele>1470.4</ele>
        <time>2021-08-11T10:54:26Z</time>
      </trkpt>
      <trkpt lat="45.10546" lon="2.66282">
        <ele>1470.5</ele>
        <time>2021-08-11T10:54:27Z</time>
      </trkpt>
      <trkpt lat="45.10546" lon="2.66283">
        <ele>1470.7</ele>
        <time>2021-08-11T10:54:28Z</time>
      </trkpt>
      <trkpt lat="45.10546" lon="2.66284">
        <ele>1470.6</ele>
        <time>2021-08-11T10:54:29Z</time>
      </trkpt>
      <trkpt lat="45.10545" lon="2.66285">
        <ele>1470.5</ele>
        <time>2021-08-11T10:54:30Z</time>
      </trkpt>
      <trkpt lat="45.10545" lon="2.66285">
        <ele>1470.7</ele>
        <time>2021-08-11T10:54:31Z</time>
      </trkpt>
      <trkpt lat="45.10544" lon="2.66286">
        <ele>1470.9</ele>
        <time>2021-08-11T10:54:32Z</time>
      </trkpt>
      <trkpt lat="45.10544" lon="2.66286">
        <ele>1471</ele>
        <time>2021-08-11T10:54:33Z</time>
      </trkpt>
      <trkpt lat="45.10544" lon="2.66286">
        <ele>1471.2</ele>
        <time>2021-08-11T10:54:34Z</time>
      </trkpt>
      <trkpt lat="45.10543" lon="2.66287">
        <ele>1471.4</ele>
        <time>2021-08-11T10:54:35Z</time>
      </trkpt>
      <trkpt lat="45.10543" lon="2.66287">
        <ele>1471.6</ele>
        <time>2021-08-11T10:54:36Z</time>
      </trkpt>
      <trkpt lat="45.10542" lon="2.66287">
        <ele>1471.7</ele>
        <time>2021-08-11T10:54:37Z</time>
      </trkpt>
      <trkpt lat="45.10542" lon="2.66288">
        <ele>1471.9</ele>
        <time>2021-08-11T10:54:38Z</time>
      </trkpt>
      <trkpt lat="45.10542" lon="2.66289">
        <ele>1471.9</ele>
        <time>2021-08-11T10:54:39Z</time>
      </trkpt>
      <trkpt lat="45.10541" lon="2.66289">
        <ele>1472</ele>
        <time>2021-08-11T10:54:40Z</time>
      </trkpt>
      <trkpt lat="45.10541" lon="2.6629">
        <ele>1472</ele>
        <time>2021-08-11T10:54:41Z</time>
      </trkpt>
      <trkpt lat="45.10541" lon="2.6629">
        <ele>1472</ele>
        <time>2021-08-11T10:54:42Z</time>
      </trkpt>
      <trkpt lat="45.1054" lon="2.66291">
        <ele>1472.2</ele>
        <time>2021-08-11T10:54:43Z</time>
      </trkpt>
      <trkpt lat="45.1054" lon="2.66291">
        <ele>1472.1</ele>
        <time>2021-08-11T10:54:44Z</time>
      </trkpt>
      <trkpt lat="45.1054" lon="2.66292">
        <ele>1472.1</ele>
        <time>2021-08-11T10:54:45Z</time>
      </trkpt>
      <trkpt lat="45.1054" lon="2.66292">
        <ele>1472.1</ele>
        <time>2021-08-11T10:54:46Z</time>
      </trkpt>
      <trkpt lat="45.1054" lon="2.66293">
        <ele>1472.1</ele>
        <time>2021-08-11T10:54:47Z</time>
      </trkpt>
      <trkpt lat="45.1054" lon="2.66293">
        <ele>1472</ele>
        <time>2021-08-11T10:54:48Z</time>
      </trkpt>
      <trkpt lat="45.10539" lon="2.66294">
        <ele>1472.1</ele>
        <time>2021-08-11T10:54:49Z</time>
      </trkpt>
      <trkpt lat="45.10539" lon="2.66294">
        <ele>1472.2</ele>
        <time>2021-08-11T10:54:50Z</time>
      </trkpt>
      <trkpt lat="45.10539" lon="2.66295">
        <ele>1472.1</ele>
        <time>2021-08-11T10:54:51Z</time>
      </trkpt>
      <trkpt lat="45.10539" lon="2.66295">
        <ele>1472</ele>
        <time>2021-08-11T10:54:52Z</time>
      </trkpt>
      <trkpt lat="45.10539" lon="2.66295">
        <ele>1471.9</ele>
        <time>2021-08-11T10:54:53Z</time>
      </trkpt>
      <trkpt lat="45.1054" lon="2.66296">
        <ele>1471.6</ele>
        <time>2021-08-11T10:54:54Z</time>
      </trkpt>
      <trkpt lat="45.1054" lon="2.66296">
        <ele>1471.3</ele>
        <time>2021-08-11T10:54:55Z</time>
      </trkpt>
      <trkpt lat="45.1054" lon="2.66297">
        <ele>1471.2</ele>
        <time>2021-08-11T10:54:56Z</time>
      </trkpt>
      <trkpt lat="45.10541" lon="2.66297">
        <ele>1470.8</ele>
        <time>2021-08-11T10:54:57Z</time>
      </trkpt>
      <trkpt lat="45.10541" lon="2.66298">
        <ele>1470.5</ele>
        <time>2021-08-11T10:54:58Z</time>
      </trkpt>
      <trkpt lat="45.10541" lon="2.66299">
        <ele>1470.3</ele>
        <time>2021-08-11T10:54:59Z</time>
      </trkpt>
      <trkpt lat="45.10541" lon="2.66299">
        <ele>1470.2</ele>
        <time>2021-08-11T10:55:00Z</time>
      </trkpt>
      <trkpt lat="45.10541" lon="2.663">
        <ele>1470</ele>
        <time>2021-08-11T10:55:01Z</time>
      </trkpt>
      <trkpt lat="45.10541" lon="2.66301">
        <ele>1469.8</ele>
        <time>2021-08-11T10:55:02Z</time>
      </trkpt>
      <trkpt lat="45.10542" lon="2.66301">
        <ele>1469.6</ele>
        <time>2021-08-11T10:55:03Z</time>
      </trkpt>
      <trkpt lat="45.10542" lon="2.66302">
        <ele>1469.5</ele>
        <time>2021-08-11T10:55:04Z</time>
      </trkpt>
      <trkpt lat="45.10542" lon="2.66302">
        <ele>1469.4</ele>
        <time>2021-08-11T10:55:05Z</time>
      </trkpt>
      <trkpt lat="45.10542" lon="2.66303">
        <ele>1469.2</ele>
        <time>2021-08-11T10:55:06Z</time>
      </trkpt>
      <trkpt lat="45.10542" lon="2.66304">
        <ele>1468.9</ele>
        <time>2021-08-11T10:55:07Z</time>
      </trkpt>
      <trkpt lat="45.10542" lon="2.66305">
        <ele>1468.7</ele>
        <time>2021-08-11T10:55:08Z</time>
      </trkpt>
      <trkpt lat="45.10542" lon="2.66305">
        <ele>1468.5</ele>
        <time>2021-08-11T10:55:09Z</time>
      </trkpt>
      <trkpt lat="45.10542" lon="2.66306">
        <ele>1468.4</ele>
        <time>2021-08-11T10:55:10Z</time>
      </trkpt>
      <trkpt lat="45.10543" lon="2.66307">
        <ele>1468</ele>
        <time>2021-08-11T10:55:11Z</time>
      </trkpt>
      <trkpt lat="45.10543" lon="2.66307">
        <ele>1467.7</ele>
        <time>2021-08-11T10:55:12Z</time>
      </trkpt>
      <trkpt lat="45.10544" lon="2.66308">
        <ele>1467.5</ele>
        <time>2021-08-11T10:55:13Z</time>
      </trkpt>
      <trkpt lat="45.10544" lon="2.66308">
        <ele>1467.3</ele>
        <time>2021-08-11T10:55:14Z</time>
      </trkpt>
      <trkpt lat="45.10544" lon="2.66309">
        <ele>1466.8</ele>
        <time>2021-08-11T10:55:15Z</time>
      </trkpt>
      <trkpt lat="45.10545" lon="2.6631">
        <ele>1466.5</ele>
        <time>2021-08-11T10:55:16Z</time>
      </trkpt>
      <trkpt lat="45.10545" lon="2.66311">
        <ele>1466.3</ele>
        <time>2021-08-11T10:55:17Z</time>
      </trkpt>
      <trkpt lat="45.10545" lon="2.66311">
        <ele>1466</ele>
        <time>2021-08-11T10:55:18Z</time>
      </trkpt>
      <trkpt lat="45.10545" lon="2.66312">
        <ele>1465.7</ele>
        <time>2021-08-11T10:55:19Z</time>
      </trkpt>
      <trkpt lat="45.10546" lon="2.66313">
        <ele>1465.4</ele>
        <time>2021-08-11T10:55:20Z</time>
      </trkpt>
      <trkpt lat="45.10546" lon="2.66313">
        <ele>1465.2</ele>
        <time>2021-08-11T10:55:21Z</time>
      </trkpt>
      <trkpt lat="45.10546" lon="2.66313">
        <ele>1465.1</ele>
        <time>2021-08-11T10:55:22Z</time>
      </trkpt>
      <trkpt lat="45.10546" lon="2.66314">
        <ele>1464.9</ele>
        <time>2021-08-11T10:55:23Z</time>
      </trkpt>
      <trkpt lat="45.10546" lon="2.66314">
        <ele>1464.8</ele>
        <time>2021-08-11T10:55:24Z</time>
      </trkpt>
      <trkpt lat="45.10547" lon="2.66314">
        <ele>1464.7</ele>
        <time>2021-08-11T10:55:25Z</time>
      </trkpt>
      <trkpt lat="45.10547" lon="2.66314">
        <ele>1464.6</ele>
        <time>2021-08-11T10:55:26Z</time>
      </trkpt>
      <trkpt lat="45.10547" lon="2.66314">
        <ele>1464.4</ele>
        <time>2021-08-11T10:55:27Z</time>
      </trkpt>
      <trkpt lat="45.10547" lon="2.66314">
        <ele>1464.2</ele>
        <time>2021-08-11T10:55:28Z</time>
      </trkpt>
      <trkpt lat="45.10547" lon="2.66314">
        <ele>1464.2</ele>
        <time>2021-08-11T10:55:29Z</time>
      </trkpt>
      <trkpt lat="45.10548" lon="2.66315">
        <ele>1463.9</ele>
        <time>2021-08-11T10:55:30Z</time>
      </trkpt>
      <trkpt lat="45.10548" lon="2.66315">
        <ele>1463.7</ele>
        <time>2021-08-11T10:55:31Z</time>
      </trkpt>
      <trkpt lat="45.10549" lon="2.66315">
        <ele>1463.3</ele>
        <time>2021-08-11T10:55:32Z</time>
      </trkpt>
      <trkpt lat="45.10549" lon="2.66315">
        <ele>1463.1</ele>
        <time>2021-08-11T10:55:33Z</time>
      </trkpt>
      <trkpt lat="45.10549" lon="2.66316">
        <ele>1462.9</ele>
        <time>2021-08-11T10:55:34Z</time>
      </trkpt>
      <trkpt lat="45.10549" lon="2.66316">
        <ele>1462.7</ele>
        <time>2021-08-11T10:55:35Z</time>
      </trkpt>
      <trkpt lat="45.1055" lon="2.66317">
        <ele>1462.5</ele>
        <time>2021-08-11T10:55:36Z</time>
      </trkpt>
      <trkpt lat="45.1055" lon="2.66317">
        <ele>1462.4</ele>
        <time>2021-08-11T10:55:37Z</time>
      </trkpt>
      <trkpt lat="45.1055" lon="2.66318">
        <ele>1462.1</ele>
        <time>2021-08-11T10:55:38Z</time>
      </trkpt>
      <trkpt lat="45.1055" lon="2.66318">
        <ele>1461.8</ele>
        <time>2021-08-11T10:55:39Z</time>
      </trkpt>
      <trkpt lat="45.10551" lon="2.66319">
        <ele>1461.6</ele>
        <time>2021-08-11T10:55:40Z</time>
      </trkpt>
      <trkpt lat="45.10551" lon="2.66319">
        <ele>1461.4</ele>
        <time>2021-08-11T10:55:41Z</time>
      </trkpt>
      <trkpt lat="45.10551" lon="2.66319">
        <ele>1461.3</ele>
        <time>2021-08-11T10:55:42Z</time>
      </trkpt>
      <trkpt lat="45.10551" lon="2.6632">
        <ele>1461.1</ele>
        <time>2021-08-11T10:55:43Z</time>
      </trkpt>
      <trkpt lat="45.10551" lon="2.66321">
        <ele>1460.9</ele>
        <time>2021-08-11T10:55:44Z</time>
      </trkpt>
      <trkpt lat="45.10551" lon="2.66321">
        <ele>1460.8</ele>
        <time>2021-08-11T10:55:45Z</time>
      </trkpt>
      <trkpt lat="45.10551" lon="2.66322">
        <ele>1460.6</ele>
        <time>2021-08-11T10:55:46Z</time>
      </trkpt>
      <trkpt lat="45.10552" lon="2.66322">
        <ele>1460.3</ele>
        <time>2021-08-11T10:55:47Z</time>
      </trkpt>
      <trkpt lat="45.10552" lon="2.66323">
        <ele>1460</ele>
        <time>2021-08-11T10:55:48Z</time>
      </trkpt>
      <trkpt lat="45.10552" lon="2.66323">
        <ele>1459.9</ele>
        <time>2021-08-11T10:55:49Z</time>
      </trkpt>
      <trkpt lat="45.10553" lon="2.66323">
        <ele>1459.6</ele>
        <time>2021-08-11T10:55:50Z</time>
      </trkpt>
      <trkpt lat="45.10553" lon="2.66324">
        <ele>1459.3</ele>
        <time>2021-08-11T10:55:51Z</time>
      </trkpt>
      <trkpt lat="45.10553" lon="2.66325">
        <ele>1459</ele>
        <time>2021-08-11T10:55:52Z</time>
      </trkpt>
      <trkpt lat="45.10553" lon="2.66325">
        <ele>1458.8</ele>
        <time>2021-08-11T10:55:53Z</time>
      </trkpt>
      <trkpt lat="45.10554" lon="2.66326">
        <ele>1458.5</ele>
        <time>2021-08-11T10:55:54Z</time>
      </trkpt>
      <trkpt lat="45.10554" lon="2.66327">
        <ele>1458.2</ele>
        <time>2021-08-11T10:55:55Z</time>
      </trkpt>
      <trkpt lat="45.10554" lon="2.66328">
        <ele>1457.9</ele>
        <time>2021-08-11T10:55:56Z</time>
      </trkpt>
      <trkpt lat="45.10554" lon="2.66329">
        <ele>1457.8</ele>
        <time>2021-08-11T10:55:57Z</time>
      </trkpt>
      <trkpt lat="45.10554" lon="2.66329">
        <ele>1457.6</ele>
        <time>2021-08-11T10:55:58Z</time>
      </trkpt>
      <trkpt lat="45.10554" lon="2.6633">
        <ele>1457.4</ele>
        <time>2021-08-11T10:55:59Z</time>
      </trkpt>
      <trkpt lat="45.10554" lon="2.66331">
        <ele>1457.2</ele>
        <time>2021-08-11T10:56:00Z</time>
      </trkpt>
      <trkpt lat="45.10554" lon="2.66332">
        <ele>1457.1</ele>
        <time>2021-08-11T10:56:01Z</time>
      </trkpt>
      <trkpt lat="45.10554" lon="2.66333">
        <ele>1456.9</ele>
        <time>2021-08-11T10:56:02Z</time>
      </trkpt>
      <trkpt lat="45.10554" lon="2.66334">
        <ele>1456.9</ele>
        <time>2021-08-11T10:56:03Z</time>
      </trkpt>
      <trkpt lat="45.10554" lon="2.66335">
        <ele>1457</ele>
        <time>2021-08-11T10:56:04Z</time>
      </trkpt>
      <trkpt lat="45.10553" lon="2.66336">
        <ele>1457.3</ele>
        <time>2021-08-11T10:56:05Z</time>
      </trkpt>
      <trkpt lat="45.10553" lon="2.66337">
        <ele>1457.5</ele>
        <time>2021-08-11T10:56:06Z</time>
      </trkpt>
      <trkpt lat="45.10553" lon="2.66338">
        <ele>1457.6</ele>
        <time>2021-08-11T10:56:07Z</time>
      </trkpt>
      <trkpt lat="45.10552" lon="2.6634">
        <ele>1458</ele>
        <time>2021-08-11T10:56:08Z</time>
      </trkpt>
      <trkpt lat="45.10552" lon="2.66341">
        <ele>1458.3</ele>
        <time>2021-08-11T10:56:09Z</time>
      </trkpt>
      <trkpt lat="45.10551" lon="2.66342">
        <ele>1458.5</ele>
        <time>2021-08-11T10:56:10Z</time>
      </trkpt>
      <trkpt lat="45.10551" lon="2.66343">
        <ele>1458.7</ele>
        <time>2021-08-11T10:56:11Z</time>
      </trkpt>
      <trkpt lat="45.10551" lon="2.66344">
        <ele>1458.8</ele>
        <time>2021-08-11T10:56:12Z</time>
      </trkpt>
      <trkpt lat="45.10551" lon="2.66345">
        <ele>1458.7</ele>
        <time>2021-08-11T10:56:13Z</time>
      </trkpt>
      <trkpt lat="45.10551" lon="2.66346">
        <ele>1458.6</ele>
        <time>2021-08-11T10:56:14Z</time>
      </trkpt>
      <trkpt lat="45.10551" lon="2.66348">
        <ele>1458.6</ele>
        <time>2021-08-11T10:56:15Z</time>
      </trkpt>
      <trkpt lat="45.10551" lon="2.66349">
        <ele>1458.6</ele>
        <time>2021-08-11T10:56:16Z</time>
      </trkpt>
      <trkpt lat="45.10551" lon="2.6635">
        <ele>1458.5</ele>
        <time>2021-08-11T10:56:17Z</time>
      </trkpt>
      <trkpt lat="45.10551" lon="2.66351">
        <ele>1458.4</ele>
        <time>2021-08-11T10:56:18Z</time>
      </trkpt>
      <trkpt lat="45.10552" lon="2.66352">
        <ele>1458.3</ele>
        <time>2021-08-11T10:56:19Z</time>
      </trkpt>
      <trkpt lat="45.10552" lon="2.66353">
        <ele>1458.2</ele>
        <time>2021-08-11T10:56:20Z</time>
      </trkpt>
      <trkpt lat="45.10552" lon="2.66354">
        <ele>1458.1</ele>
        <time>2021-08-11T10:56:21Z</time>
      </trkpt>
      <trkpt lat="45.10552" lon="2.66355">
        <ele>1458</ele>
        <time>2021-08-11T10:56:22Z</time>
      </trkpt>
      <trkpt lat="45.10552" lon="2.66356">
        <ele>1457.9</ele>
        <time>2021-08-11T10:56:23Z</time>
      </trkpt>
      <trkpt lat="45.10552" lon="2.66357">
        <ele>1457.8</ele>
        <time>2021-08-11T10:56:24Z</time>
      </trkpt>
      <trkpt lat="45.10552" lon="2.66358">
        <ele>1457.8</ele>
        <time>2021-08-11T10:56:25Z</time>
      </trkpt>
      <trkpt lat="45.10552" lon="2.66359">
        <ele>1457.8</ele>
        <time>2021-08-11T10:56:26Z</time>
      </trkpt>
      <trkpt lat="45.10552" lon="2.6636">
        <ele>1457.9</ele>
        <time>2021-08-11T10:56:27Z</time>
      </trkpt>
      <trkpt lat="45.10552" lon="2.66361">
        <ele>1457.8</ele>
        <time>2021-08-11T10:56:28Z</time>
      </trkpt>
      <trkpt lat="45.10552" lon="2.66361">
        <ele>1457.7</ele>
        <time>2021-08-11T10:56:29Z</time>
      </trkpt>
      <trkpt lat="45.10553" lon="2.66362">
        <ele>1457.6</ele>
        <time>2021-08-11T10:56:30Z</time>
      </trkpt>
      <trkpt lat="45.10553" lon="2.66362">
        <ele>1457.5</ele>
        <time>2021-08-11T10:56:31Z</time>
      </trkpt>
      <trkpt lat="45.10553" lon="2.66363">
        <ele>1457.3</ele>
        <time>2021-08-11T10:56:32Z</time>
      </trkpt>
      <trkpt lat="45.10553" lon="2.66364">
        <ele>1457.1</ele>
        <time>2021-08-11T10:56:33Z</time>
      </trkpt>
      <trkpt lat="45.10554" lon="2.66364">
        <ele>1456.9</ele>
        <time>2021-08-11T10:56:34Z</time>
      </trkpt>
      <trkpt lat="45.10554" lon="2.66366">
        <ele>1456.7</ele>
        <time>2021-08-11T10:56:35Z</time>
      </trkpt>
      <trkpt lat="45.10554" lon="2.66367">
        <ele>1456.6</ele>
        <time>2021-08-11T10:56:36Z</time>
      </trkpt>
      <trkpt lat="45.10554" lon="2.66367">
        <ele>1456.8</ele>
        <time>2021-08-11T10:56:37Z</time>
      </trkpt>
      <trkpt lat="45.10554" lon="2.66368">
        <ele>1456.7</ele>
        <time>2021-08-11T10:56:38Z</time>
      </trkpt>
      <trkpt lat="45.10554" lon="2.66369">
        <ele>1456.7</ele>
        <time>2021-08-11T10:56:39Z</time>
      </trkpt>
      <trkpt lat="45.10554" lon="2.6637">
        <ele>1456.7</ele>
        <time>2021-08-11T10:56:40Z</time>
      </trkpt>
      <trkpt lat="45.10554" lon="2.66371">
        <ele>1456.7</ele>
        <time>2021-08-11T10:56:41Z</time>
      </trkpt>
      <trkpt lat="45.10554" lon="2.66371">
        <ele>1456.7</ele>
        <time>2021-08-11T10:56:42Z</time>
      </trkpt>
      <trkpt lat="45.10554" lon="2.66372">
        <ele>1456.7</ele>
        <time>2021-08-11T10:56:43Z</time>
      </trkpt>
      <trkpt lat="45.10554" lon="2.66373">
        <ele>1456.6</ele>
        <time>2021-08-11T10:56:44Z</time>
      </trkpt>
      <trkpt lat="45.10554" lon="2.66373">
        <ele>1456.6</ele>
        <time>2021-08-11T10:56:45Z</time>
      </trkpt>
      <trkpt lat="45.10555" lon="2.66374">
        <ele>1456.4</ele>
        <time>2021-08-11T10:56:46Z</time>
      </trkpt>
      <trkpt lat="45.10555" lon="2.66374">
        <ele>1456.2</ele>
        <time>2021-08-11T10:56:47Z</time>
      </trkpt>
      <trkpt lat="45.10555" lon="2.66375">
        <ele>1456</ele>
        <time>2021-08-11T10:56:48Z</time>
      </trkpt>
      <trkpt lat="45.10556" lon="2.66376">
        <ele>1455.8</ele>
        <time>2021-08-11T10:56:49Z</time>
      </trkpt>
      <trkpt lat="45.10556" lon="2.66376">
        <ele>1455.5</ele>
        <time>2021-08-11T10:56:50Z</time>
      </trkpt>
      <trkpt lat="45.10557" lon="2.66377">
        <ele>1455.3</ele>
        <time>2021-08-11T10:56:51Z</time>
      </trkpt>
      <trkpt lat="45.10557" lon="2.66377">
        <ele>1455</ele>
        <time>2021-08-11T10:56:52Z</time>
      </trkpt>
      <trkpt lat="45.10557" lon="2.66378">
        <ele>1454.8</ele>
        <time>2021-08-11T10:56:53Z</time>
      </trkpt>
      <trkpt lat="45.10558" lon="2.66379">
        <ele>1454.6</ele>
        <time>2021-08-11T10:56:54Z</time>
      </trkpt>
      <trkpt lat="45.10558" lon="2.6638">
        <ele>1454.4</ele>
        <time>2021-08-11T10:56:55Z</time>
      </trkpt>
      <trkpt lat="45.10558" lon="2.66381">
        <ele>1454.5</ele>
        <time>2021-08-11T10:56:56Z</time>
      </trkpt>
      <trkpt lat="45.10558" lon="2.66383">
        <ele>1454.5</ele>
        <time>2021-08-11T10:56:57Z</time>
      </trkpt>
      <trkpt lat="45.10558" lon="2.66384">
        <ele>1454.6</ele>
        <time>2021-08-11T10:56:58Z</time>
      </trkpt>
      <trkpt lat="45.10558" lon="2.66385">
        <ele>1454.7</ele>
        <time>2021-08-11T10:56:59Z</time>
      </trkpt>
      <trkpt lat="45.10558" lon="2.66386">
        <ele>1454.6</ele>
        <time>2021-08-11T10:57:00Z</time>
      </trkpt>
      <trkpt lat="45.10558" lon="2.66387">
        <ele>1454.5</ele>
        <time>2021-08-11T10:57:01Z</time>
      </trkpt>
      <trkpt lat="45.10558" lon="2.66387">
        <ele>1454.5</ele>
        <time>2021-08-11T10:57:02Z</time>
      </trkpt>
      <trkpt lat="45.10558" lon="2.66388">
        <ele>1454.5</ele>
        <time>2021-08-11T10:57:03Z</time>
      </trkpt>
      <trkpt lat="45.10558" lon="2.66389">
        <ele>1454.5</ele>
        <time>2021-08-11T10:57:04Z</time>
      </trkpt>
      <trkpt lat="45.10558" lon="2.66389">
        <ele>1454.4</ele>
        <time>2021-08-11T10:57:05Z</time>
      </trkpt>
      <trkpt lat="45.10558" lon="2.66389">
        <ele>1454.2</ele>
        <time>2021-08-11T10:57:06Z</time>
      </trkpt>
      <trkpt lat="45.10559" lon="2.66389">
        <ele>1454.1</ele>
        <time>2021-08-11T10:57:07Z</time>
      </trkpt>
      <trkpt lat="45.10559" lon="2.6639">
        <ele>1453.8</ele>
        <time>2021-08-11T10:57:08Z</time>
      </trkpt>
      <trkpt lat="45.1056" lon="2.6639">
        <ele>1453.5</ele>
        <time>2021-08-11T10:57:09Z</time>
      </trkpt>
      <trkpt lat="45.1056" lon="2.66391">
        <ele>1453.3</ele>
        <time>2021-08-11T10:57:10Z</time>
      </trkpt>
      <trkpt lat="45.1056" lon="2.66392">
        <ele>1453.1</ele>
        <time>2021-08-11T10:57:11Z</time>
      </trkpt>
      <trkpt lat="45.10561" lon="2.66392">
        <ele>1453</ele>
        <time>2021-08-11T10:57:12Z</time>
      </trkpt>
      <trkpt lat="45.10561" lon="2.66393">
        <ele>1452.9</ele>
        <time>2021-08-11T10:57:13Z</time>
      </trkpt>
      <trkpt lat="45.10561" lon="2.66394">
        <ele>1452.7</ele>
        <time>2021-08-11T10:57:14Z</time>
      </trkpt>
      <trkpt lat="45.10561" lon="2.66395">
        <ele>1452.6</ele>
        <time>2021-08-11T10:57:15Z</time>
      </trkpt>
      <trkpt lat="45.10562" lon="2.66396">
        <ele>1452.4</ele>
        <time>2021-08-11T10:57:16Z</time>
      </trkpt>
      <trkpt lat="45.10562" lon="2.66397">
        <ele>1452.2</ele>
        <time>2021-08-11T10:57:17Z</time>
      </trkpt>
      <trkpt lat="45.10562" lon="2.66398">
        <ele>1452</ele>
        <time>2021-08-11T10:57:18Z</time>
      </trkpt>
      <trkpt lat="45.10563" lon="2.66399">
        <ele>1451.8</ele>
        <time>2021-08-11T10:57:19Z</time>
      </trkpt>
      <trkpt lat="45.10563" lon="2.664">
        <ele>1451.6</ele>
        <time>2021-08-11T10:57:20Z</time>
      </trkpt>
      <trkpt lat="45.10563" lon="2.66401">
        <ele>1451.3</ele>
        <time>2021-08-11T10:57:21Z</time>
      </trkpt>
      <trkpt lat="45.10564" lon="2.66402">
        <ele>1450.9</ele>
        <time>2021-08-11T10:57:22Z</time>
      </trkpt>
      <trkpt lat="45.10565" lon="2.66403">
        <ele>1450.5</ele>
        <time>2021-08-11T10:57:23Z</time>
      </trkpt>
      <trkpt lat="45.10566" lon="2.66405">
        <ele>1450.1</ele>
        <time>2021-08-11T10:57:24Z</time>
      </trkpt>
      <trkpt lat="45.10566" lon="2.66406">
        <ele>1449.8</ele>
        <time>2021-08-11T10:57:25Z</time>
      </trkpt>
      <trkpt lat="45.10567" lon="2.66408">
        <ele>1449.4</ele>
        <time>2021-08-11T10:57:26Z</time>
      </trkpt>
      <trkpt lat="45.10567" lon="2.66409">
        <ele>1449.2</ele>
        <time>2021-08-11T10:57:27Z</time>
      </trkpt>
      <trkpt lat="45.10568" lon="2.6641">
        <ele>1448.9</ele>
        <time>2021-08-11T10:57:28Z</time>
      </trkpt>
      <trkpt lat="45.10568" lon="2.66412">
        <ele>1448.8</ele>
        <time>2021-08-11T10:57:29Z</time>
      </trkpt>
      <trkpt lat="45.10568" lon="2.66413">
        <ele>1448.8</ele>
        <time>2021-08-11T10:57:30Z</time>
      </trkpt>
      <trkpt lat="45.10568" lon="2.66413">
        <ele>1448.7</ele>
        <time>2021-08-11T10:57:31Z</time>
      </trkpt>
      <trkpt lat="45.10568" lon="2.66413">
        <ele>1448.7</ele>
        <time>2021-08-11T10:57:32Z</time>
      </trkpt>
      <trkpt lat="45.10568" lon="2.66413">
        <ele>1448.7</ele>
        <time>2021-08-11T10:57:33Z</time>
      </trkpt>
      <trkpt lat="45.10568" lon="2.66413">
        <ele>1448.6</ele>
        <time>2021-08-11T10:57:34Z</time>
      </trkpt>
      <trkpt lat="45.10568" lon="2.66413">
        <ele>1448.6</ele>
        <time>2021-08-11T10:57:35Z</time>
      </trkpt>
      <trkpt lat="45.10568" lon="2.66413">
        <ele>1448.5</ele>
        <time>2021-08-11T10:57:36Z</time>
      </trkpt>
      <trkpt lat="45.10568" lon="2.66414">
        <ele>1448.5</ele>
        <time>2021-08-11T10:57:37Z</time>
      </trkpt>
      <trkpt lat="45.10569" lon="2.66414">
        <ele>1448.4</ele>
        <time>2021-08-11T10:57:38Z</time>
      </trkpt>
      <trkpt lat="45.10569" lon="2.66414">
        <ele>1448.3</ele>
        <time>2021-08-11T10:57:39Z</time>
      </trkpt>
      <trkpt lat="45.10569" lon="2.66415">
        <ele>1448.3</ele>
        <time>2021-08-11T10:57:40Z</time>
      </trkpt>
      <trkpt lat="45.10569" lon="2.66415">
        <ele>1448.2</ele>
        <time>2021-08-11T10:57:41Z</time>
      </trkpt>
      <trkpt lat="45.10569" lon="2.66415">
        <ele>1448.2</ele>
        <time>2021-08-11T10:57:42Z</time>
      </trkpt>
      <trkpt lat="45.10569" lon="2.66415">
        <ele>1448.1</ele>
        <time>2021-08-11T10:57:43Z</time>
      </trkpt>
      <trkpt lat="45.10569" lon="2.66415">
        <ele>1448.1</ele>
        <time>2021-08-11T10:57:44Z</time>
      </trkpt>
      <trkpt lat="45.10569" lon="2.66416">
        <ele>1448.1</ele>
        <time>2021-08-11T10:57:45Z</time>
      </trkpt>
      <trkpt lat="45.10569" lon="2.66416">
        <ele>1448.1</ele>
        <time>2021-08-11T10:57:46Z</time>
      </trkpt>
      <trkpt lat="45.10569" lon="2.66417">
        <ele>1447.9</ele>
        <time>2021-08-11T10:57:47Z</time>
      </trkpt>
      <trkpt lat="45.1057" lon="2.66417">
        <ele>1447.9</ele>
        <time>2021-08-11T10:57:48Z</time>
      </trkpt>
      <trkpt lat="45.1057" lon="2.66418">
        <ele>1447.8</ele>
        <time>2021-08-11T10:57:49Z</time>
      </trkpt>
      <trkpt lat="45.1057" lon="2.66418">
        <ele>1447.9</ele>
        <time>2021-08-11T10:57:50Z</time>
      </trkpt>
      <trkpt lat="45.1057" lon="2.66418">
        <ele>1447.8</ele>
        <time>2021-08-11T10:57:51Z</time>
      </trkpt>
      <trkpt lat="45.1057" lon="2.66419">
        <ele>1447.9</ele>
        <time>2021-08-11T10:57:52Z</time>
      </trkpt>
      <trkpt lat="45.1057" lon="2.66419">
        <ele>1447.9</ele>
        <time>2021-08-11T10:57:53Z</time>
      </trkpt>
      <trkpt lat="45.1057" lon="2.66419">
        <ele>1447.8</ele>
        <time>2021-08-11T10:57:54Z</time>
      </trkpt>
      <trkpt lat="45.1057" lon="2.6642">
        <ele>1447.8</ele>
        <time>2021-08-11T10:57:55Z</time>
      </trkpt>
      <trkpt lat="45.1057" lon="2.6642">
        <ele>1447.7</ele>
        <time>2021-08-11T10:57:56Z</time>
      </trkpt>
      <trkpt lat="45.10571" lon="2.6642">
        <ele>1447.6</ele>
        <time>2021-08-11T10:57:57Z</time>
      </trkpt>
      <trkpt lat="45.10571" lon="2.66421">
        <ele>1447.5</ele>
        <time>2021-08-11T10:57:58Z</time>
      </trkpt>
      <trkpt lat="45.10571" lon="2.66422">
        <ele>1447.3</ele>
        <time>2021-08-11T10:57:59Z</time>
      </trkpt>
      <trkpt lat="45.10572" lon="2.66423">
        <ele>1447.2</ele>
        <time>2021-08-11T10:58:00Z</time>
      </trkpt>
      <trkpt lat="45.10572" lon="2.66423">
        <ele>1447.2</ele>
        <time>2021-08-11T10:58:01Z</time>
      </trkpt>
      <trkpt lat="45.10572" lon="2.66424">
        <ele>1447.5</ele>
        <time>2021-08-11T10:58:02Z</time>
      </trkpt>
      <trkpt lat="45.10572" lon="2.66425">
        <ele>1447.6</ele>
        <time>2021-08-11T10:58:03Z</time>
      </trkpt>
      <trkpt lat="45.10572" lon="2.66426">
        <ele>1447.6</ele>
        <time>2021-08-11T10:58:04Z</time>
      </trkpt>
      <trkpt lat="45.10572" lon="2.66427">
        <ele>1447.7</ele>
        <time>2021-08-11T10:58:05Z</time>
      </trkpt>
      <trkpt lat="45.10572" lon="2.66427">
        <ele>1447.6</ele>
        <time>2021-08-11T10:58:06Z</time>
      </trkpt>
      <trkpt lat="45.10572" lon="2.66427">
        <ele>1447.7</ele>
        <time>2021-08-11T10:58:07Z</time>
      </trkpt>
      <trkpt lat="45.10572" lon="2.66428">
        <ele>1447.7</ele>
        <time>2021-08-11T10:58:08Z</time>
      </trkpt>
      <trkpt lat="45.10572" lon="2.66428">
        <ele>1447.9</ele>
        <time>2021-08-11T10:58:09Z</time>
      </trkpt>
      <trkpt lat="45.10572" lon="2.66429">
        <ele>1448.1</ele>
        <time>2021-08-11T10:58:10Z</time>
      </trkpt>
      <trkpt lat="45.10572" lon="2.6643">
        <ele>1448.1</ele>
        <time>2021-08-11T10:58:11Z</time>
      </trkpt>
      <trkpt lat="45.10572" lon="2.6643">
        <ele>1448.2</ele>
        <time>2021-08-11T10:58:12Z</time>
      </trkpt>
      <trkpt lat="45.10572" lon="2.6643">
        <ele>1448.1</ele>
        <time>2021-08-11T10:58:13Z</time>
      </trkpt>
      <trkpt lat="45.10572" lon="2.66431">
        <ele>1448.3</ele>
        <time>2021-08-11T10:58:14Z</time>
      </trkpt>
      <trkpt lat="45.10572" lon="2.66432">
        <ele>1448.4</ele>
        <time>2021-08-11T10:58:15Z</time>
      </trkpt>
      <trkpt lat="45.10572" lon="2.66433">
        <ele>1448.4</ele>
        <time>2021-08-11T10:58:16Z</time>
      </trkpt>
      <trkpt lat="45.10572" lon="2.66434">
        <ele>1448.4</ele>
        <time>2021-08-11T10:58:17Z</time>
      </trkpt>
      <trkpt lat="45.10572" lon="2.66435">
        <ele>1448.3</ele>
        <time>2021-08-11T10:58:18Z</time>
      </trkpt>
      <trkpt lat="45.10573" lon="2.66436">
        <ele>1448.3</ele>
        <time>2021-08-11T10:58:19Z</time>
      </trkpt>
      <trkpt lat="45.10572" lon="2.66437">
        <ele>1448.5</ele>
        <time>2021-08-11T10:58:20Z</time>
      </trkpt>
      <trkpt lat="45.10572" lon="2.66437">
        <ele>1448.6</ele>
        <time>2021-08-11T10:58:21Z</time>
      </trkpt>
      <trkpt lat="45.10573" lon="2.66438">
        <ele>1448.5</ele>
        <time>2021-08-11T10:58:22Z</time>
      </trkpt>
      <trkpt lat="45.10573" lon="2.66439">
        <ele>1448.4</ele>
        <time>2021-08-11T10:58:23Z</time>
      </trkpt>
      <trkpt lat="45.10573" lon="2.66439">
        <ele>1448.1</ele>
        <time>2021-08-11T10:58:24Z</time>
      </trkpt>
      <trkpt lat="45.10574" lon="2.6644">
        <ele>1447.9</ele>
        <time>2021-08-11T10:58:25Z</time>
      </trkpt>
      <trkpt lat="45.10574" lon="2.66442">
        <ele>1447.8</ele>
        <time>2021-08-11T10:58:26Z</time>
      </trkpt>
      <trkpt lat="45.10575" lon="2.66443">
        <ele>1447.7</ele>
        <time>2021-08-11T10:58:27Z</time>
      </trkpt>
      <trkpt lat="45.10575" lon="2.66443">
        <ele>1447.6</ele>
        <time>2021-08-11T10:58:28Z</time>
      </trkpt>
      <trkpt lat="45.10575" lon="2.66444">
        <ele>1447.5</ele>
        <time>2021-08-11T10:58:29Z</time>
      </trkpt>
      <trkpt lat="45.10576" lon="2.66445">
        <ele>1447.4</ele>
        <time>2021-08-11T10:58:30Z</time>
      </trkpt>
      <trkpt lat="45.10576" lon="2.66446">
        <ele>1447.3</ele>
        <time>2021-08-11T10:58:31Z</time>
      </trkpt>
      <trkpt lat="45.10576" lon="2.66447">
        <ele>1447.2</ele>
        <time>2021-08-11T10:58:32Z</time>
      </trkpt>
      <trkpt lat="45.10577" lon="2.66448">
        <ele>1447</ele>
        <time>2021-08-11T10:58:33Z</time>
      </trkpt>
      <trkpt lat="45.10577" lon="2.66448">
        <ele>1446.8</ele>
        <time>2021-08-11T10:58:34Z</time>
      </trkpt>
      <trkpt lat="45.10577" lon="2.66449">
        <ele>1446.7</ele>
        <time>2021-08-11T10:58:35Z</time>
      </trkpt>
      <trkpt lat="45.10577" lon="2.6645">
        <ele>1446.7</ele>
        <time>2021-08-11T10:58:36Z</time>
      </trkpt>
      <trkpt lat="45.10577" lon="2.66451">
        <ele>1446.8</ele>
        <time>2021-08-11T10:58:37Z</time>
      </trkpt>
      <trkpt lat="45.10578" lon="2.66451">
        <ele>1446.6</ele>
        <time>2021-08-11T10:58:38Z</time>
      </trkpt>
      <trkpt lat="45.10578" lon="2.66452">
        <ele>1446.6</ele>
        <time>2021-08-11T10:58:39Z</time>
      </trkpt>
      <trkpt lat="45.10578" lon="2.66453">
        <ele>1446.7</ele>
        <time>2021-08-11T10:58:40Z</time>
      </trkpt>
      <trkpt lat="45.10578" lon="2.66454">
        <ele>1446.6</ele>
        <time>2021-08-11T10:58:41Z</time>
      </trkpt>
      <trkpt lat="45.10578" lon="2.66455">
        <ele>1446.6</ele>
        <time>2021-08-11T10:58:42Z</time>
      </trkpt>
      <trkpt lat="45.10578" lon="2.66455">
        <ele>1446.5</ele>
        <time>2021-08-11T10:58:43Z</time>
      </trkpt>
      <trkpt lat="45.10579" lon="2.66455">
        <ele>1446.3</ele>
        <time>2021-08-11T10:58:44Z</time>
      </trkpt>
      <trkpt lat="45.10579" lon="2.66456">
        <ele>1446</ele>
        <time>2021-08-11T10:58:45Z</time>
      </trkpt>
      <trkpt lat="45.10579" lon="2.66456">
        <ele>1446</ele>
        <time>2021-08-11T10:58:46Z</time>
      </trkpt>
      <trkpt lat="45.1058" lon="2.66457">
        <ele>1445.8</ele>
        <time>2021-08-11T10:58:47Z</time>
      </trkpt>
      <trkpt lat="45.1058" lon="2.66457">
        <ele>1445.6</ele>
        <time>2021-08-11T10:58:48Z</time>
      </trkpt>
      <trkpt lat="45.1058" lon="2.66458">
        <ele>1445.5</ele>
        <time>2021-08-11T10:58:49Z</time>
      </trkpt>
      <trkpt lat="45.10581" lon="2.66458">
        <ele>1445.4</ele>
        <time>2021-08-11T10:58:50Z</time>
      </trkpt>
      <trkpt lat="45.10581" lon="2.66459">
        <ele>1445.3</ele>
        <time>2021-08-11T10:58:51Z</time>
      </trkpt>
      <trkpt lat="45.10581" lon="2.6646">
        <ele>1445.2</ele>
        <time>2021-08-11T10:58:52Z</time>
      </trkpt>
      <trkpt lat="45.10581" lon="2.6646">
        <ele>1445.1</ele>
        <time>2021-08-11T10:58:53Z</time>
      </trkpt>
      <trkpt lat="45.10581" lon="2.66461">
        <ele>1445.1</ele>
        <time>2021-08-11T10:58:54Z</time>
      </trkpt>
      <trkpt lat="45.10581" lon="2.66462">
        <ele>1445.2</ele>
        <time>2021-08-11T10:58:55Z</time>
      </trkpt>
      <trkpt lat="45.10581" lon="2.66463">
        <ele>1445.4</ele>
        <time>2021-08-11T10:58:56Z</time>
      </trkpt>
      <trkpt lat="45.10581" lon="2.66464">
        <ele>1445.3</ele>
        <time>2021-08-11T10:58:57Z</time>
      </trkpt>
      <trkpt lat="45.10582" lon="2.66465">
        <ele>1445.2</ele>
        <time>2021-08-11T10:58:58Z</time>
      </trkpt>
      <trkpt lat="45.10582" lon="2.66465">
        <ele>1445</ele>
        <time>2021-08-11T10:58:59Z</time>
      </trkpt>
      <trkpt lat="45.10583" lon="2.66466">
        <ele>1444.7</ele>
        <time>2021-08-11T10:59:00Z</time>
      </trkpt>
      <trkpt lat="45.10583" lon="2.66467">
        <ele>1444.5</ele>
        <time>2021-08-11T10:59:01Z</time>
      </trkpt>
      <trkpt lat="45.10583" lon="2.66467">
        <ele>1444.2</ele>
        <time>2021-08-11T10:59:02Z</time>
      </trkpt>
      <trkpt lat="45.10584" lon="2.66468">
        <ele>1444.1</ele>
        <time>2021-08-11T10:59:03Z</time>
      </trkpt>
      <trkpt lat="45.10584" lon="2.66468">
        <ele>1444</ele>
        <time>2021-08-11T10:59:04Z</time>
      </trkpt>
      <trkpt lat="45.10584" lon="2.66469">
        <ele>1443.9</ele>
        <time>2021-08-11T10:59:05Z</time>
      </trkpt>
      <trkpt lat="45.10584" lon="2.66469">
        <ele>1443.9</ele>
        <time>2021-08-11T10:59:06Z</time>
      </trkpt>
      <trkpt lat="45.10585" lon="2.66471">
        <ele>1443.9</ele>
        <time>2021-08-11T10:59:07Z</time>
      </trkpt>
      <trkpt lat="45.10585" lon="2.66471">
        <ele>1443.8</ele>
        <time>2021-08-11T10:59:08Z</time>
      </trkpt>
      <trkpt lat="45.10585" lon="2.66472">
        <ele>1443.8</ele>
        <time>2021-08-11T10:59:09Z</time>
      </trkpt>
      <trkpt lat="45.10585" lon="2.66473">
        <ele>1443.7</ele>
        <time>2021-08-11T10:59:10Z</time>
      </trkpt>
      <trkpt lat="45.10586" lon="2.66473">
        <ele>1443.6</ele>
        <time>2021-08-11T10:59:11Z</time>
      </trkpt>
      <trkpt lat="45.10586" lon="2.66473">
        <ele>1443.6</ele>
        <time>2021-08-11T10:59:12Z</time>
      </trkpt>
      <trkpt lat="45.10586" lon="2.66474">
        <ele>1443.4</ele>
        <time>2021-08-11T10:59:13Z</time>
      </trkpt>
      <trkpt lat="45.10586" lon="2.66474">
        <ele>1443.4</ele>
        <time>2021-08-11T10:59:14Z</time>
      </trkpt>
      <trkpt lat="45.10586" lon="2.66474">
        <ele>1443.3</ele>
        <time>2021-08-11T10:59:15Z</time>
      </trkpt>
      <trkpt lat="45.10587" lon="2.66475">
        <ele>1443.3</ele>
        <time>2021-08-11T10:59:16Z</time>
      </trkpt>
      <trkpt lat="45.10587" lon="2.66475">
        <ele>1443.2</ele>
        <time>2021-08-11T10:59:17Z</time>
      </trkpt>
      <trkpt lat="45.10587" lon="2.66476">
        <ele>1443.1</ele>
        <time>2021-08-11T10:59:18Z</time>
      </trkpt>
      <trkpt lat="45.10587" lon="2.66476">
        <ele>1443.1</ele>
        <time>2021-08-11T10:59:19Z</time>
      </trkpt>
      <trkpt lat="45.10587" lon="2.66477">
        <ele>1443.1</ele>
        <time>2021-08-11T10:59:20Z</time>
      </trkpt>
      <trkpt lat="45.10588" lon="2.66477">
        <ele>1443</ele>
        <time>2021-08-11T10:59:21Z</time>
      </trkpt>
      <trkpt lat="45.10588" lon="2.66478">
        <ele>1442.9</ele>
        <time>2021-08-11T10:59:22Z</time>
      </trkpt>
      <trkpt lat="45.10588" lon="2.66479">
        <ele>1442.8</ele>
        <time>2021-08-11T10:59:23Z</time>
      </trkpt>
      <trkpt lat="45.10588" lon="2.66479">
        <ele>1442.8</ele>
        <time>2021-08-11T10:59:24Z</time>
      </trkpt>
      <trkpt lat="45.10588" lon="2.6648">
        <ele>1442.9</ele>
        <time>2021-08-11T10:59:25Z</time>
      </trkpt>
      <trkpt lat="45.10588" lon="2.66481">
        <ele>1442.9</ele>
        <time>2021-08-11T10:59:26Z</time>
      </trkpt>
      <trkpt lat="45.10589" lon="2.66481">
        <ele>1442.6</ele>
        <time>2021-08-11T10:59:27Z</time>
      </trkpt>
      <trkpt lat="45.1059" lon="2.66482">
        <ele>1442.4</ele>
        <time>2021-08-11T10:59:28Z</time>
      </trkpt>
      <trkpt lat="45.1059" lon="2.66483">
        <ele>1442.2</ele>
        <time>2021-08-11T10:59:29Z</time>
      </trkpt>
      <trkpt lat="45.1059" lon="2.66484">
        <ele>1442.2</ele>
        <time>2021-08-11T10:59:30Z</time>
      </trkpt>
      <trkpt lat="45.1059" lon="2.66484">
        <ele>1442.2</ele>
        <time>2021-08-11T10:59:31Z</time>
      </trkpt>
      <trkpt lat="45.1059" lon="2.66485">
        <ele>1442.2</ele>
        <time>2021-08-11T10:59:32Z</time>
      </trkpt>
      <trkpt lat="45.10591" lon="2.66486">
        <ele>1442</ele>
        <time>2021-08-11T10:59:33Z</time>
      </trkpt>
      <trkpt lat="45.10591" lon="2.66486">
        <ele>1442</ele>
        <time>2021-08-11T10:59:34Z</time>
      </trkpt>
      <trkpt lat="45.10591" lon="2.66487">
        <ele>1441.9</ele>
        <time>2021-08-11T10:59:35Z</time>
      </trkpt>
      <trkpt lat="45.10592" lon="2.66487">
        <ele>1441.6</ele>
        <time>2021-08-11T10:59:36Z</time>
      </trkpt>
      <trkpt lat="45.10592" lon="2.66488">
        <ele>1441.4</ele>
        <time>2021-08-11T10:59:37Z</time>
      </trkpt>
      <trkpt lat="45.10593" lon="2.66488">
        <ele>1441.2</ele>
        <time>2021-08-11T10:59:38Z</time>
      </trkpt>
      <trkpt lat="45.10593" lon="2.66489">
        <ele>1441</ele>
        <time>2021-08-11T10:59:39Z</time>
      </trkpt>
      <trkpt lat="45.10593" lon="2.6649">
        <ele>1441</ele>
        <time>2021-08-11T10:59:40Z</time>
      </trkpt>
      <trkpt lat="45.10594" lon="2.6649">
        <ele>1440.9</ele>
        <time>2021-08-11T10:59:41Z</time>
      </trkpt>
      <trkpt lat="45.10594" lon="2.66491">
        <ele>1440.8</ele>
        <time>2021-08-11T10:59:42Z</time>
      </trkpt>
      <trkpt lat="45.10595" lon="2.66492">
        <ele>1440.6</ele>
        <time>2021-08-11T10:59:43Z</time>
      </trkpt>
      <trkpt lat="45.10595" lon="2.66493">
        <ele>1440.7</ele>
        <time>2021-08-11T10:59:44Z</time>
      </trkpt>
      <trkpt lat="45.10595" lon="2.66494">
        <ele>1440.7</ele>
        <time>2021-08-11T10:59:45Z</time>
      </trkpt>
      <trkpt lat="45.10595" lon="2.66495">
        <ele>1440.6</ele>
        <time>2021-08-11T10:59:46Z</time>
      </trkpt>
      <trkpt lat="45.10595" lon="2.66495">
        <ele>1440.5</ele>
        <time>2021-08-11T10:59:47Z</time>
      </trkpt>
      <trkpt lat="45.10596" lon="2.66496">
        <ele>1440.3</ele>
        <time>2021-08-11T10:59:48Z</time>
      </trkpt>
      <trkpt lat="45.10596" lon="2.66496">
        <ele>1440.1</ele>
        <time>2021-08-11T10:59:49Z</time>
      </trkpt>
      <trkpt lat="45.10597" lon="2.66497">
        <ele>1440</ele>
        <time>2021-08-11T10:59:50Z</time>
      </trkpt>
      <trkpt lat="45.10597" lon="2.66498">
        <ele>1439.8</ele>
        <time>2021-08-11T10:59:51Z</time>
      </trkpt>
      <trkpt lat="45.10597" lon="2.66499">
        <ele>1439.7</ele>
        <time>2021-08-11T10:59:52Z</time>
      </trkpt>
      <trkpt lat="45.10598" lon="2.66499">
        <ele>1439.5</ele>
        <time>2021-08-11T10:59:53Z</time>
      </trkpt>
      <trkpt lat="45.10598" lon="2.66499">
        <ele>1439.2</ele>
        <time>2021-08-11T10:59:54Z</time>
      </trkpt>
      <trkpt lat="45.10599" lon="2.665">
        <ele>1439</ele>
        <time>2021-08-11T10:59:55Z</time>
      </trkpt>
      <trkpt lat="45.106" lon="2.665">
        <ele>1438.7</ele>
        <time>2021-08-11T10:59:56Z</time>
      </trkpt>
      <trkpt lat="45.106" lon="2.665">
        <ele>1438.5</ele>
        <time>2021-08-11T10:59:57Z</time>
      </trkpt>
      <trkpt lat="45.10601" lon="2.66501">
        <ele>1438.3</ele>
        <time>2021-08-11T10:59:58Z</time>
      </trkpt>
      <trkpt lat="45.10601" lon="2.66502">
        <ele>1438.2</ele>
        <time>2021-08-11T10:59:59Z</time>
      </trkpt>
      <trkpt lat="45.10602" lon="2.66503">
        <ele>1438.2</ele>
        <time>2021-08-11T11:00:00Z</time>
      </trkpt>
      <trkpt lat="45.10602" lon="2.66504">
        <ele>1438.3</ele>
        <time>2021-08-11T11:00:01Z</time>
      </trkpt>
      <trkpt lat="45.10602" lon="2.66504">
        <ele>1438.2</ele>
        <time>2021-08-11T11:00:02Z</time>
      </trkpt>
      <trkpt lat="45.10602" lon="2.66505">
        <ele>1438.4</ele>
        <time>2021-08-11T11:00:03Z</time>
      </trkpt>
      <trkpt lat="45.10602" lon="2.66505">
        <ele>1438.5</ele>
        <time>2021-08-11T11:00:04Z</time>
      </trkpt>
      <trkpt lat="45.10602" lon="2.66506">
        <ele>1438.5</ele>
        <time>2021-08-11T11:00:05Z</time>
      </trkpt>
      <trkpt lat="45.10603" lon="2.66506">
        <ele>1438.3</ele>
        <time>2021-08-11T11:00:06Z</time>
      </trkpt>
      <trkpt lat="45.10603" lon="2.66506">
        <ele>1438.3</ele>
        <time>2021-08-11T11:00:07Z</time>
      </trkpt>
      <trkpt lat="45.10603" lon="2.66506">
        <ele>1438.3</ele>
        <time>2021-08-11T11:00:08Z</time>
      </trkpt>
      <trkpt lat="45.10603" lon="2.66507">
        <ele>1438.2</ele>
        <time>2021-08-11T11:00:09Z</time>
      </trkpt>
      <trkpt lat="45.10604" lon="2.66507">
        <ele>1438.1</ele>
        <time>2021-08-11T11:00:10Z</time>
      </trkpt>
      <trkpt lat="45.10604" lon="2.66508">
        <ele>1438</ele>
        <time>2021-08-11T11:00:11Z</time>
      </trkpt>
      <trkpt lat="45.10604" lon="2.66508">
        <ele>1437.9</ele>
        <time>2021-08-11T11:00:12Z</time>
      </trkpt>
      <trkpt lat="45.10604" lon="2.66508">
        <ele>1437.8</ele>
        <time>2021-08-11T11:00:13Z</time>
      </trkpt>
      <trkpt lat="45.10605" lon="2.66508">
        <ele>1437.7</ele>
        <time>2021-08-11T11:00:14Z</time>
      </trkpt>
      <trkpt lat="45.10605" lon="2.66508">
        <ele>1437.5</ele>
        <time>2021-08-11T11:00:15Z</time>
      </trkpt>
      <trkpt lat="45.10605" lon="2.66509">
        <ele>1437.4</ele>
        <time>2021-08-11T11:00:16Z</time>
      </trkpt>
      <trkpt lat="45.10606" lon="2.66509">
        <ele>1437.2</ele>
        <time>2021-08-11T11:00:17Z</time>
      </trkpt>
      <trkpt lat="45.10606" lon="2.66509">
        <ele>1437.1</ele>
        <time>2021-08-11T11:00:18Z</time>
      </trkpt>
      <trkpt lat="45.10607" lon="2.6651">
        <ele>1436.8</ele>
        <time>2021-08-11T11:00:19Z</time>
      </trkpt>
      <trkpt lat="45.10607" lon="2.66511">
        <ele>1436.8</ele>
        <time>2021-08-11T11:00:20Z</time>
      </trkpt>
      <trkpt lat="45.10608" lon="2.66512">
        <ele>1436.9</ele>
        <time>2021-08-11T11:00:21Z</time>
      </trkpt>
      <trkpt lat="45.10608" lon="2.66513">
        <ele>1436.9</ele>
        <time>2021-08-11T11:00:22Z</time>
      </trkpt>
      <trkpt lat="45.10608" lon="2.66514">
        <ele>1436.9</ele>
        <time>2021-08-11T11:00:23Z</time>
      </trkpt>
      <trkpt lat="45.10609" lon="2.66515">
        <ele>1437</ele>
        <time>2021-08-11T11:00:24Z</time>
      </trkpt>
      <trkpt lat="45.10609" lon="2.66516">
        <ele>1437</ele>
        <time>2021-08-11T11:00:25Z</time>
      </trkpt>
      <trkpt lat="45.10609" lon="2.66517">
        <ele>1437</ele>
        <time>2021-08-11T11:00:26Z</time>
      </trkpt>
      <trkpt lat="45.1061" lon="2.66518">
        <ele>1437.1</ele>
        <time>2021-08-11T11:00:27Z</time>
      </trkpt>
      <trkpt lat="45.1061" lon="2.66519">
        <ele>1437.2</ele>
        <time>2021-08-11T11:00:28Z</time>
      </trkpt>
      <trkpt lat="45.1061" lon="2.6652">
        <ele>1437.2</ele>
        <time>2021-08-11T11:00:29Z</time>
      </trkpt>
      <trkpt lat="45.10611" lon="2.66521">
        <ele>1437.2</ele>
        <time>2021-08-11T11:00:30Z</time>
      </trkpt>
      <trkpt lat="45.10611" lon="2.66522">
        <ele>1437.3</ele>
        <time>2021-08-11T11:00:31Z</time>
      </trkpt>
      <trkpt lat="45.10611" lon="2.66523">
        <ele>1437.5</ele>
        <time>2021-08-11T11:00:32Z</time>
      </trkpt>
      <trkpt lat="45.10611" lon="2.66525">
        <ele>1437.6</ele>
        <time>2021-08-11T11:00:33Z</time>
      </trkpt>
      <trkpt lat="45.10611" lon="2.66526">
        <ele>1437.7</ele>
        <time>2021-08-11T11:00:34Z</time>
      </trkpt>
      <trkpt lat="45.10612" lon="2.66526">
        <ele>1437.7</ele>
        <time>2021-08-11T11:00:35Z</time>
      </trkpt>
      <trkpt lat="45.10612" lon="2.66527">
        <ele>1437.5</ele>
        <time>2021-08-11T11:00:36Z</time>
      </trkpt>
      <trkpt lat="45.10612" lon="2.66528">
        <ele>1437.6</ele>
        <time>2021-08-11T11:00:37Z</time>
      </trkpt>
      <trkpt lat="45.10613" lon="2.66528">
        <ele>1437.5</ele>
        <time>2021-08-11T11:00:38Z</time>
      </trkpt>
      <trkpt lat="45.10613" lon="2.66528">
        <ele>1437.6</ele>
        <time>2021-08-11T11:00:39Z</time>
      </trkpt>
      <trkpt lat="45.10613" lon="2.66528">
        <ele>1437.6</ele>
        <time>2021-08-11T11:00:40Z</time>
      </trkpt>
      <trkpt lat="45.10613" lon="2.66529">
        <ele>1437.6</ele>
        <time>2021-08-11T11:00:41Z</time>
      </trkpt>
      <trkpt lat="45.10613" lon="2.66529">
        <ele>1437.6</ele>
        <time>2021-08-11T11:00:42Z</time>
      </trkpt>
      <trkpt lat="45.10612" lon="2.66529">
        <ele>1437.8</ele>
        <time>2021-08-11T11:00:43Z</time>
      </trkpt>
      <trkpt lat="45.10612" lon="2.66529">
        <ele>1437.9</ele>
        <time>2021-08-11T11:00:44Z</time>
      </trkpt>
      <trkpt lat="45.10612" lon="2.6653">
        <ele>1438.1</ele>
        <time>2021-08-11T11:00:45Z</time>
      </trkpt>
      <trkpt lat="45.10612" lon="2.66531">
        <ele>1438.5</ele>
        <time>2021-08-11T11:00:46Z</time>
      </trkpt>
      <trkpt lat="45.10612" lon="2.66532">
        <ele>1438.6</ele>
        <time>2021-08-11T11:00:47Z</time>
      </trkpt>
      <trkpt lat="45.10612" lon="2.66533">
        <ele>1438.6</ele>
        <time>2021-08-11T11:00:48Z</time>
      </trkpt>
      <trkpt lat="45.10612" lon="2.66534">
        <ele>1438.8</ele>
        <time>2021-08-11T11:00:49Z</time>
      </trkpt>
      <trkpt lat="45.10612" lon="2.66534">
        <ele>1438.8</ele>
        <time>2021-08-11T11:00:50Z</time>
      </trkpt>
      <trkpt lat="45.10612" lon="2.66536">
        <ele>1439.1</ele>
        <time>2021-08-11T11:00:51Z</time>
      </trkpt>
      <trkpt lat="45.10612" lon="2.66536">
        <ele>1439.3</ele>
        <time>2021-08-11T11:00:52Z</time>
      </trkpt>
      <trkpt lat="45.10612" lon="2.66537">
        <ele>1439.6</ele>
        <time>2021-08-11T11:00:53Z</time>
      </trkpt>
      <trkpt lat="45.10612" lon="2.66538">
        <ele>1439.7</ele>
        <time>2021-08-11T11:00:54Z</time>
      </trkpt>
      <trkpt lat="45.10612" lon="2.66539">
        <ele>1439.9</ele>
        <time>2021-08-11T11:00:55Z</time>
      </trkpt>
      <trkpt lat="45.10612" lon="2.66539">
        <ele>1440</ele>
        <time>2021-08-11T11:00:56Z</time>
      </trkpt>
      <trkpt lat="45.10612" lon="2.6654">
        <ele>1440.3</ele>
        <time>2021-08-11T11:00:57Z</time>
      </trkpt>
      <trkpt lat="45.10612" lon="2.66541">
        <ele>1440.5</ele>
        <time>2021-08-11T11:00:58Z</time>
      </trkpt>
      <trkpt lat="45.10611" lon="2.66541">
        <ele>1440.8</ele>
        <time>2021-08-11T11:00:59Z</time>
      </trkpt>
      <trkpt lat="45.10611" lon="2.66542">
        <ele>1440.9</ele>
        <time>2021-08-11T11:01:00Z</time>
      </trkpt>
      <trkpt lat="45.10611" lon="2.66543">
        <ele>1441</ele>
        <time>2021-08-11T11:01:01Z</time>
      </trkpt>
      <trkpt lat="45.10611" lon="2.66543">
        <ele>1441.3</ele>
        <time>2021-08-11T11:01:02Z</time>
      </trkpt>
      <trkpt lat="45.10611" lon="2.66543">
        <ele>1441.3</ele>
        <time>2021-08-11T11:01:03Z</time>
      </trkpt>
      <trkpt lat="45.10611" lon="2.66544">
        <ele>1441.4</ele>
        <time>2021-08-11T11:01:04Z</time>
      </trkpt>
      <trkpt lat="45.10611" lon="2.66544">
        <ele>1441.6</ele>
        <time>2021-08-11T11:01:05Z</time>
      </trkpt>
      <trkpt lat="45.10611" lon="2.66545">
        <ele>1442</ele>
        <time>2021-08-11T11:01:06Z</time>
      </trkpt>
      <trkpt lat="45.1061" lon="2.66546">
        <ele>1442.2</ele>
        <time>2021-08-11T11:01:07Z</time>
      </trkpt>
      <trkpt lat="45.1061" lon="2.66546">
        <ele>1442.4</ele>
        <time>2021-08-11T11:01:08Z</time>
      </trkpt>
      <trkpt lat="45.1061" lon="2.66546">
        <ele>1442.7</ele>
        <time>2021-08-11T11:01:09Z</time>
      </trkpt>
      <trkpt lat="45.1061" lon="2.66547">
        <ele>1442.9</ele>
        <time>2021-08-11T11:01:10Z</time>
      </trkpt>
      <trkpt lat="45.1061" lon="2.66547">
        <ele>1443</ele>
        <time>2021-08-11T11:01:11Z</time>
      </trkpt>
      <trkpt lat="45.1061" lon="2.66548">
        <ele>1443.1</ele>
        <time>2021-08-11T11:01:12Z</time>
      </trkpt>
      <trkpt lat="45.1061" lon="2.66548">
        <ele>1443.3</ele>
        <time>2021-08-11T11:01:13Z</time>
      </trkpt>
      <trkpt lat="45.10609" lon="2.66549">
        <ele>1443.5</ele>
        <time>2021-08-11T11:01:14Z</time>
      </trkpt>
      <trkpt lat="45.10609" lon="2.66549">
        <ele>1443.5</ele>
        <time>2021-08-11T11:01:15Z</time>
      </trkpt>
      <trkpt lat="45.10609" lon="2.66549">
        <ele>1443.5</ele>
        <time>2021-08-11T11:01:16Z</time>
      </trkpt>
      <trkpt lat="45.10609" lon="2.6655">
        <ele>1443.9</ele>
        <time>2021-08-11T11:01:17Z</time>
      </trkpt>
      <trkpt lat="45.10609" lon="2.66551">
        <ele>1444.1</ele>
        <time>2021-08-11T11:01:18Z</time>
      </trkpt>
      <trkpt lat="45.10609" lon="2.66551">
        <ele>1444.2</ele>
        <time>2021-08-11T11:01:19Z</time>
      </trkpt>
      <trkpt lat="45.10609" lon="2.66551">
        <ele>1444.3</ele>
        <time>2021-08-11T11:01:20Z</time>
      </trkpt>
      <trkpt lat="45.10609" lon="2.66551">
        <ele>1444.4</ele>
        <time>2021-08-11T11:01:21Z</time>
      </trkpt>
      <trkpt lat="45.10609" lon="2.66552">
        <ele>1444.4</ele>
        <time>2021-08-11T11:01:22Z</time>
      </trkpt>
      <trkpt lat="45.10609" lon="2.66553">
        <ele>1444.7</ele>
        <time>2021-08-11T11:01:23Z</time>
      </trkpt>
      <trkpt lat="45.10609" lon="2.66553">
        <ele>1444.8</ele>
        <time>2021-08-11T11:01:24Z</time>
      </trkpt>
      <trkpt lat="45.10609" lon="2.66554">
        <ele>1444.9</ele>
        <time>2021-08-11T11:01:25Z</time>
      </trkpt>
      <trkpt lat="45.10609" lon="2.66554">
        <ele>1445.1</ele>
        <time>2021-08-11T11:01:26Z</time>
      </trkpt>
      <trkpt lat="45.10609" lon="2.66555">
        <ele>1445.2</ele>
        <time>2021-08-11T11:01:27Z</time>
      </trkpt>
      <trkpt lat="45.10608" lon="2.66556">
        <ele>1445.5</ele>
        <time>2021-08-11T11:01:28Z</time>
      </trkpt>
      <trkpt lat="45.10609" lon="2.66556">
        <ele>1445.5</ele>
        <time>2021-08-11T11:01:29Z</time>
      </trkpt>
      <trkpt lat="45.10609" lon="2.66557">
        <ele>1445.6</ele>
        <time>2021-08-11T11:01:30Z</time>
      </trkpt>
      <trkpt lat="45.10609" lon="2.66558">
        <ele>1445.7</ele>
        <time>2021-08-11T11:01:31Z</time>
      </trkpt>
      <trkpt lat="45.10609" lon="2.66559">
        <ele>1446</ele>
        <time>2021-08-11T11:01:32Z</time>
      </trkpt>
      <trkpt lat="45.10609" lon="2.66559">
        <ele>1446</ele>
        <time>2021-08-11T11:01:33Z</time>
      </trkpt>
      <trkpt lat="45.10609" lon="2.66559">
        <ele>1446</ele>
        <time>2021-08-11T11:01:34Z</time>
      </trkpt>
      <trkpt lat="45.10608" lon="2.66559">
        <ele>1446.1</ele>
        <time>2021-08-11T11:01:35Z</time>
      </trkpt>
      <trkpt lat="45.10609" lon="2.66559">
        <ele>1446</ele>
        <time>2021-08-11T11:01:36Z</time>
      </trkpt>
      <trkpt lat="45.10609" lon="2.66559">
        <ele>1446</ele>
        <time>2021-08-11T11:01:37Z</time>
      </trkpt>
      <trkpt lat="45.10609" lon="2.66559">
        <ele>1446</ele>
        <time>2021-08-11T11:01:38Z</time>
      </trkpt>
      <trkpt lat="45.10609" lon="2.66559">
        <ele>1446</ele>
        <time>2021-08-11T11:01:39Z</time>
      </trkpt>
      <trkpt lat="45.10609" lon="2.66559">
        <ele>1446</ele>
        <time>2021-08-11T11:01:40Z</time>
      </trkpt>
      <trkpt lat="45.10609" lon="2.66559">
        <ele>1446</ele>
        <time>2021-08-11T11:01:41Z</time>
      </trkpt>
      <trkpt lat="45.10609" lon="2.66559">
        <ele>1446</ele>
        <time>2021-08-11T11:01:42Z</time>
      </trkpt>
      <trkpt lat="45.10609" lon="2.66559">
        <ele>1445.9</ele>
        <time>2021-08-11T11:01:43Z</time>
      </trkpt>
      <trkpt lat="45.10609" lon="2.66558">
        <ele>1445.8</ele>
        <time>2021-08-11T11:01:44Z</time>
      </trkpt>
      <trkpt lat="45.10609" lon="2.66558">
        <ele>1445.8</ele>
        <time>2021-08-11T11:01:45Z</time>
      </trkpt>
      <trkpt lat="45.10609" lon="2.66558">
        <ele>1445.8</ele>
        <time>2021-08-11T11:01:46Z</time>
      </trkpt>
      <trkpt lat="45.10609" lon="2.66558">
        <ele>1445.8</ele>
        <time>2021-08-11T11:01:47Z</time>
      </trkpt>
      <trkpt lat="45.10609" lon="2.66559">
        <ele>1445.7</ele>
        <time>2021-08-11T11:01:48Z</time>
      </trkpt>
      <trkpt lat="45.10609" lon="2.66559">
        <ele>1445.6</ele>
        <time>2021-08-11T11:01:49Z</time>
      </trkpt>
      <trkpt lat="45.10609" lon="2.6656">
        <ele>1445.8</ele>
        <time>2021-08-11T11:01:50Z</time>
      </trkpt>
      <trkpt lat="45.1061" lon="2.6656">
        <ele>1445.5</ele>
        <time>2021-08-11T11:01:51Z</time>
      </trkpt>
      <trkpt lat="45.1061" lon="2.66561">
        <ele>1445.3</ele>
        <time>2021-08-11T11:01:52Z</time>
      </trkpt>
      <trkpt lat="45.10611" lon="2.66562">
        <ele>1445.1</ele>
        <time>2021-08-11T11:01:53Z</time>
      </trkpt>
      <trkpt lat="45.10611" lon="2.66562">
        <ele>1444.9</ele>
        <time>2021-08-11T11:01:54Z</time>
      </trkpt>
      <trkpt lat="45.10612" lon="2.66562">
        <ele>1444.7</ele>
        <time>2021-08-11T11:01:55Z</time>
      </trkpt>
      <trkpt lat="45.10613" lon="2.66563">
        <ele>1444.5</ele>
        <time>2021-08-11T11:01:56Z</time>
      </trkpt>
      <trkpt lat="45.10613" lon="2.66564">
        <ele>1444.4</ele>
        <time>2021-08-11T11:01:57Z</time>
      </trkpt>
      <trkpt lat="45.10614" lon="2.66566">
        <ele>1444.3</ele>
        <time>2021-08-11T11:01:58Z</time>
      </trkpt>
      <trkpt lat="45.10614" lon="2.66566">
        <ele>1444.4</ele>
        <time>2021-08-11T11:01:59Z</time>
      </trkpt>
      <trkpt lat="45.10614" lon="2.66567">
        <ele>1444.6</ele>
        <time>2021-08-11T11:02:00Z</time>
      </trkpt>
      <trkpt lat="45.10614" lon="2.66568">
        <ele>1444.6</ele>
        <time>2021-08-11T11:02:01Z</time>
      </trkpt>
      <trkpt lat="45.10614" lon="2.66569">
        <ele>1444.5</ele>
        <time>2021-08-11T11:02:02Z</time>
      </trkpt>
      <trkpt lat="45.10615" lon="2.66569">
        <ele>1444.4</ele>
        <time>2021-08-11T11:02:03Z</time>
      </trkpt>
      <trkpt lat="45.10615" lon="2.6657">
        <ele>1444.4</ele>
        <time>2021-08-11T11:02:04Z</time>
      </trkpt>
      <trkpt lat="45.10615" lon="2.66571">
        <ele>1444.4</ele>
        <time>2021-08-11T11:02:05Z</time>
      </trkpt>
      <trkpt lat="45.10615" lon="2.66572">
        <ele>1444.4</ele>
        <time>2021-08-11T11:02:06Z</time>
      </trkpt>
      <trkpt lat="45.10616" lon="2.66572">
        <ele>1444.2</ele>
        <time>2021-08-11T11:02:07Z</time>
      </trkpt>
      <trkpt lat="45.10616" lon="2.66573">
        <ele>1444.1</ele>
        <time>2021-08-11T11:02:08Z</time>
      </trkpt>
      <trkpt lat="45.10617" lon="2.66574">
        <ele>1443.9</ele>
        <time>2021-08-11T11:02:09Z</time>
      </trkpt>
      <trkpt lat="45.10618" lon="2.66575">
        <ele>1443.7</ele>
        <time>2021-08-11T11:02:10Z</time>
      </trkpt>
      <trkpt lat="45.10618" lon="2.66576">
        <ele>1443.5</ele>
        <time>2021-08-11T11:02:11Z</time>
      </trkpt>
      <trkpt lat="45.10619" lon="2.66577">
        <ele>1443.3</ele>
        <time>2021-08-11T11:02:12Z</time>
      </trkpt>
      <trkpt lat="45.10619" lon="2.66578">
        <ele>1443</ele>
        <time>2021-08-11T11:02:13Z</time>
      </trkpt>
      <trkpt lat="45.1062" lon="2.66579">
        <ele>1442.8</ele>
        <time>2021-08-11T11:02:14Z</time>
      </trkpt>
      <trkpt lat="45.10621" lon="2.66579">
        <ele>1442.5</ele>
        <time>2021-08-11T11:02:15Z</time>
      </trkpt>
      <trkpt lat="45.10621" lon="2.6658">
        <ele>1442.2</ele>
        <time>2021-08-11T11:02:16Z</time>
      </trkpt>
      <trkpt lat="45.10622" lon="2.66581">
        <ele>1442.1</ele>
        <time>2021-08-11T11:02:17Z</time>
      </trkpt>
      <trkpt lat="45.10622" lon="2.66582">
        <ele>1442.2</ele>
        <time>2021-08-11T11:02:18Z</time>
      </trkpt>
      <trkpt lat="45.10622" lon="2.66582">
        <ele>1442.1</ele>
        <time>2021-08-11T11:02:19Z</time>
      </trkpt>
      <trkpt lat="45.10622" lon="2.66583">
        <ele>1442.1</ele>
        <time>2021-08-11T11:02:20Z</time>
      </trkpt>
      <trkpt lat="45.10623" lon="2.66584">
        <ele>1442</ele>
        <time>2021-08-11T11:02:21Z</time>
      </trkpt>
      <trkpt lat="45.10623" lon="2.66586">
        <ele>1441.9</ele>
        <time>2021-08-11T11:02:22Z</time>
      </trkpt>
      <trkpt lat="45.10624" lon="2.66587">
        <ele>1441.9</ele>
        <time>2021-08-11T11:02:23Z</time>
      </trkpt>
      <trkpt lat="45.10624" lon="2.66589">
        <ele>1441.8</ele>
        <time>2021-08-11T11:02:24Z</time>
      </trkpt>
      <trkpt lat="45.10624" lon="2.6659">
        <ele>1441.8</ele>
        <time>2021-08-11T11:02:25Z</time>
      </trkpt>
      <trkpt lat="45.10625" lon="2.66591">
        <ele>1441.7</ele>
        <time>2021-08-11T11:02:26Z</time>
      </trkpt>
      <trkpt lat="45.10625" lon="2.66592">
        <ele>1441.7</ele>
        <time>2021-08-11T11:02:27Z</time>
      </trkpt>
      <trkpt lat="45.10625" lon="2.66593">
        <ele>1441.7</ele>
        <time>2021-08-11T11:02:28Z</time>
      </trkpt>
      <trkpt lat="45.10626" lon="2.66594">
        <ele>1441.6</ele>
        <time>2021-08-11T11:02:29Z</time>
      </trkpt>
      <trkpt lat="45.10626" lon="2.66595">
        <ele>1441.6</ele>
        <time>2021-08-11T11:02:30Z</time>
      </trkpt>
      <trkpt lat="45.10626" lon="2.66596">
        <ele>1441.8</ele>
        <time>2021-08-11T11:02:31Z</time>
      </trkpt>
      <trkpt lat="45.10626" lon="2.66597">
        <ele>1441.9</ele>
        <time>2021-08-11T11:02:32Z</time>
      </trkpt>
      <trkpt lat="45.10626" lon="2.66597">
        <ele>1442</ele>
        <time>2021-08-11T11:02:33Z</time>
      </trkpt>
      <trkpt lat="45.10626" lon="2.66598">
        <ele>1442.1</ele>
        <time>2021-08-11T11:02:34Z</time>
      </trkpt>
      <trkpt lat="45.10626" lon="2.66599">
        <ele>1442.2</ele>
        <time>2021-08-11T11:02:35Z</time>
      </trkpt>
      <trkpt lat="45.10626" lon="2.666">
        <ele>1442.3</ele>
        <time>2021-08-11T11:02:36Z</time>
      </trkpt>
      <trkpt lat="45.10626" lon="2.66601">
        <ele>1442.4</ele>
        <time>2021-08-11T11:02:37Z</time>
      </trkpt>
      <trkpt lat="45.10626" lon="2.66602">
        <ele>1442.6</ele>
        <time>2021-08-11T11:02:38Z</time>
      </trkpt>
      <trkpt lat="45.10626" lon="2.66604">
        <ele>1442.8</ele>
        <time>2021-08-11T11:02:39Z</time>
      </trkpt>
      <trkpt lat="45.10626" lon="2.66604">
        <ele>1442.8</ele>
        <time>2021-08-11T11:02:40Z</time>
      </trkpt>
      <trkpt lat="45.10626" lon="2.66605">
        <ele>1442.9</ele>
        <time>2021-08-11T11:02:41Z</time>
      </trkpt>
      <trkpt lat="45.10627" lon="2.66606">
        <ele>1442.6</ele>
        <time>2021-08-11T11:02:42Z</time>
      </trkpt>
      <trkpt lat="45.10627" lon="2.66607">
        <ele>1442.5</ele>
        <time>2021-08-11T11:02:43Z</time>
      </trkpt>
      <trkpt lat="45.10627" lon="2.66608">
        <ele>1442.5</ele>
        <time>2021-08-11T11:02:44Z</time>
      </trkpt>
      <trkpt lat="45.10627" lon="2.66609">
        <ele>1442.8</ele>
        <time>2021-08-11T11:02:45Z</time>
      </trkpt>
      <trkpt lat="45.10627" lon="2.66609">
        <ele>1443</ele>
        <time>2021-08-11T11:02:46Z</time>
      </trkpt>
      <trkpt lat="45.10627" lon="2.6661">
        <ele>1443.2</ele>
        <time>2021-08-11T11:02:47Z</time>
      </trkpt>
      <trkpt lat="45.10627" lon="2.66611">
        <ele>1443.2</ele>
        <time>2021-08-11T11:02:48Z</time>
      </trkpt>
      <trkpt lat="45.10627" lon="2.66612">
        <ele>1443.4</ele>
        <time>2021-08-11T11:02:49Z</time>
      </trkpt>
      <trkpt lat="45.10627" lon="2.66613">
        <ele>1443.6</ele>
        <time>2021-08-11T11:02:50Z</time>
      </trkpt>
      <trkpt lat="45.10627" lon="2.66614">
        <ele>1443.5</ele>
        <time>2021-08-11T11:02:51Z</time>
      </trkpt>
      <trkpt lat="45.10627" lon="2.66615">
        <ele>1443.5</ele>
        <time>2021-08-11T11:02:52Z</time>
      </trkpt>
      <trkpt lat="45.10627" lon="2.66616">
        <ele>1443.6</ele>
        <time>2021-08-11T11:02:53Z</time>
      </trkpt>
      <trkpt lat="45.10627" lon="2.66617">
        <ele>1443.7</ele>
        <time>2021-08-11T11:02:54Z</time>
      </trkpt>
      <trkpt lat="45.10627" lon="2.66617">
        <ele>1443.8</ele>
        <time>2021-08-11T11:02:55Z</time>
      </trkpt>
      <trkpt lat="45.10627" lon="2.66618">
        <ele>1443.9</ele>
        <time>2021-08-11T11:02:56Z</time>
      </trkpt>
      <trkpt lat="45.10627" lon="2.66619">
        <ele>1443.9</ele>
        <time>2021-08-11T11:02:57Z</time>
      </trkpt>
      <trkpt lat="45.10627" lon="2.6662">
        <ele>1444.2</ele>
        <time>2021-08-11T11:02:58Z</time>
      </trkpt>
      <trkpt lat="45.10627" lon="2.66621">
        <ele>1444.4</ele>
        <time>2021-08-11T11:02:59Z</time>
      </trkpt>
      <trkpt lat="45.10627" lon="2.66622">
        <ele>1444.5</ele>
        <time>2021-08-11T11:03:00Z</time>
      </trkpt>
      <trkpt lat="45.10627" lon="2.66622">
        <ele>1444.9</ele>
        <time>2021-08-11T11:03:01Z</time>
      </trkpt>
      <trkpt lat="45.10626" lon="2.66623">
        <ele>1445.1</ele>
        <time>2021-08-11T11:03:02Z</time>
      </trkpt>
      <trkpt lat="45.10626" lon="2.66624">
        <ele>1445.3</ele>
        <time>2021-08-11T11:03:03Z</time>
      </trkpt>
      <trkpt lat="45.10626" lon="2.66625">
        <ele>1445.4</ele>
        <time>2021-08-11T11:03:04Z</time>
      </trkpt>
      <trkpt lat="45.10627" lon="2.66626">
        <ele>1445.4</ele>
        <time>2021-08-11T11:03:05Z</time>
      </trkpt>
      <trkpt lat="45.10627" lon="2.66626">
        <ele>1445.4</ele>
        <time>2021-08-11T11:03:06Z</time>
      </trkpt>
      <trkpt lat="45.10627" lon="2.66627">
        <ele>1445.5</ele>
        <time>2021-08-11T11:03:07Z</time>
      </trkpt>
      <trkpt lat="45.10627" lon="2.66627">
        <ele>1445.4</ele>
        <time>2021-08-11T11:03:08Z</time>
      </trkpt>
      <trkpt lat="45.10627" lon="2.66628">
        <ele>1445.5</ele>
        <time>2021-08-11T11:03:09Z</time>
      </trkpt>
      <trkpt lat="45.10627" lon="2.66629">
        <ele>1445.6</ele>
        <time>2021-08-11T11:03:10Z</time>
      </trkpt>
      <trkpt lat="45.10627" lon="2.66629">
        <ele>1445.6</ele>
        <time>2021-08-11T11:03:11Z</time>
      </trkpt>
      <trkpt lat="45.10627" lon="2.6663">
        <ele>1445.6</ele>
        <time>2021-08-11T11:03:12Z</time>
      </trkpt>
      <trkpt lat="45.10628" lon="2.66631">
        <ele>1445.5</ele>
        <time>2021-08-11T11:03:13Z</time>
      </trkpt>
      <trkpt lat="45.10628" lon="2.66632">
        <ele>1445.4</ele>
        <time>2021-08-11T11:03:14Z</time>
      </trkpt>
      <trkpt lat="45.10628" lon="2.66633">
        <ele>1445.3</ele>
        <time>2021-08-11T11:03:15Z</time>
      </trkpt>
      <trkpt lat="45.10628" lon="2.66634">
        <ele>1445.4</ele>
        <time>2021-08-11T11:03:16Z</time>
      </trkpt>
      <trkpt lat="45.10629" lon="2.66635">
        <ele>1445.3</ele>
        <time>2021-08-11T11:03:17Z</time>
      </trkpt>
      <trkpt lat="45.10629" lon="2.66636">
        <ele>1445.3</ele>
        <time>2021-08-11T11:03:18Z</time>
      </trkpt>
      <trkpt lat="45.10629" lon="2.66637">
        <ele>1445.4</ele>
        <time>2021-08-11T11:03:19Z</time>
      </trkpt>
      <trkpt lat="45.10629" lon="2.66638">
        <ele>1445.5</ele>
        <time>2021-08-11T11:03:20Z</time>
      </trkpt>
      <trkpt lat="45.10629" lon="2.66639">
        <ele>1445.9</ele>
        <time>2021-08-11T11:03:21Z</time>
      </trkpt>
      <trkpt lat="45.10628" lon="2.6664">
        <ele>1446.2</ele>
        <time>2021-08-11T11:03:22Z</time>
      </trkpt>
      <trkpt lat="45.10628" lon="2.6664">
        <ele>1446.5</ele>
        <time>2021-08-11T11:03:23Z</time>
      </trkpt>
      <trkpt lat="45.10628" lon="2.66641">
        <ele>1446.7</ele>
        <time>2021-08-11T11:03:24Z</time>
      </trkpt>
      <trkpt lat="45.10628" lon="2.66642">
        <ele>1446.9</ele>
        <time>2021-08-11T11:03:25Z</time>
      </trkpt>
      <trkpt lat="45.10628" lon="2.66643">
        <ele>1447.1</ele>
        <time>2021-08-11T11:03:26Z</time>
      </trkpt>
      <trkpt lat="45.10628" lon="2.66644">
        <ele>1447.3</ele>
        <time>2021-08-11T11:03:27Z</time>
      </trkpt>
      <trkpt lat="45.10628" lon="2.66645">
        <ele>1447.4</ele>
        <time>2021-08-11T11:03:28Z</time>
      </trkpt>
      <trkpt lat="45.10628" lon="2.66646">
        <ele>1447.5</ele>
        <time>2021-08-11T11:03:29Z</time>
      </trkpt>
      <trkpt lat="45.10627" lon="2.66647">
        <ele>1447.8</ele>
        <time>2021-08-11T11:03:30Z</time>
      </trkpt>
      <trkpt lat="45.10628" lon="2.66648">
        <ele>1447.9</ele>
        <time>2021-08-11T11:03:31Z</time>
      </trkpt>
      <trkpt lat="45.10627" lon="2.66649">
        <ele>1448.1</ele>
        <time>2021-08-11T11:03:32Z</time>
      </trkpt>
      <trkpt lat="45.10627" lon="2.6665">
        <ele>1448.3</ele>
        <time>2021-08-11T11:03:33Z</time>
      </trkpt>
      <trkpt lat="45.10627" lon="2.66651">
        <ele>1448.5</ele>
        <time>2021-08-11T11:03:34Z</time>
      </trkpt>
      <trkpt lat="45.10627" lon="2.66652">
        <ele>1448.7</ele>
        <time>2021-08-11T11:03:35Z</time>
      </trkpt>
      <trkpt lat="45.10627" lon="2.66653">
        <ele>1448.8</ele>
        <time>2021-08-11T11:03:36Z</time>
      </trkpt>
      <trkpt lat="45.10627" lon="2.66654">
        <ele>1448.8</ele>
        <time>2021-08-11T11:03:37Z</time>
      </trkpt>
      <trkpt lat="45.10627" lon="2.66655">
        <ele>1449</ele>
        <time>2021-08-11T11:03:38Z</time>
      </trkpt>
      <trkpt lat="45.10627" lon="2.66656">
        <ele>1449</ele>
        <time>2021-08-11T11:03:39Z</time>
      </trkpt>
      <trkpt lat="45.10627" lon="2.66656">
        <ele>1449.1</ele>
        <time>2021-08-11T11:03:40Z</time>
      </trkpt>
      <trkpt lat="45.10627" lon="2.66657">
        <ele>1449.3</ele>
        <time>2021-08-11T11:03:41Z</time>
      </trkpt>
      <trkpt lat="45.10628" lon="2.66659">
        <ele>1449.2</ele>
        <time>2021-08-11T11:03:42Z</time>
      </trkpt>
      <trkpt lat="45.10628" lon="2.6666">
        <ele>1449.2</ele>
        <time>2021-08-11T11:03:43Z</time>
      </trkpt>
      <trkpt lat="45.10628" lon="2.66661">
        <ele>1449.1</ele>
        <time>2021-08-11T11:03:44Z</time>
      </trkpt>
      <trkpt lat="45.10628" lon="2.66661">
        <ele>1449.2</ele>
        <time>2021-08-11T11:03:45Z</time>
      </trkpt>
      <trkpt lat="45.10628" lon="2.66662">
        <ele>1449.4</ele>
        <time>2021-08-11T11:03:46Z</time>
      </trkpt>
      <trkpt lat="45.10628" lon="2.66663">
        <ele>1449.5</ele>
        <time>2021-08-11T11:03:47Z</time>
      </trkpt>
      <trkpt lat="45.10628" lon="2.66663">
        <ele>1449.4</ele>
        <time>2021-08-11T11:03:48Z</time>
      </trkpt>
      <trkpt lat="45.10629" lon="2.66664">
        <ele>1449.3</ele>
        <time>2021-08-11T11:03:49Z</time>
      </trkpt>
      <trkpt lat="45.10629" lon="2.66665">
        <ele>1449.2</ele>
        <time>2021-08-11T11:03:50Z</time>
      </trkpt>
      <trkpt lat="45.10629" lon="2.66666">
        <ele>1449.5</ele>
        <time>2021-08-11T11:03:51Z</time>
      </trkpt>
      <trkpt lat="45.10629" lon="2.66667">
        <ele>1449.6</ele>
        <time>2021-08-11T11:03:52Z</time>
      </trkpt>
      <trkpt lat="45.10629" lon="2.66668">
        <ele>1449.9</ele>
        <time>2021-08-11T11:03:53Z</time>
      </trkpt>
      <trkpt lat="45.10629" lon="2.6667">
        <ele>1450.1</ele>
        <time>2021-08-11T11:03:54Z</time>
      </trkpt>
      <trkpt lat="45.10629" lon="2.66671">
        <ele>1450.1</ele>
        <time>2021-08-11T11:03:55Z</time>
      </trkpt>
      <trkpt lat="45.1063" lon="2.66672">
        <ele>1450.3</ele>
        <time>2021-08-11T11:03:56Z</time>
      </trkpt>
      <trkpt lat="45.1063" lon="2.66673">
        <ele>1450.5</ele>
        <time>2021-08-11T11:03:57Z</time>
      </trkpt>
      <trkpt lat="45.1063" lon="2.66674">
        <ele>1450.6</ele>
        <time>2021-08-11T11:03:58Z</time>
      </trkpt>
      <trkpt lat="45.1063" lon="2.66675">
        <ele>1450.9</ele>
        <time>2021-08-11T11:03:59Z</time>
      </trkpt>
      <trkpt lat="45.1063" lon="2.66677">
        <ele>1451.3</ele>
        <time>2021-08-11T11:04:00Z</time>
      </trkpt>
      <trkpt lat="45.1063" lon="2.66678">
        <ele>1451.5</ele>
        <time>2021-08-11T11:04:01Z</time>
      </trkpt>
      <trkpt lat="45.1063" lon="2.66678">
        <ele>1451.6</ele>
        <time>2021-08-11T11:04:02Z</time>
      </trkpt>
      <trkpt lat="45.1063" lon="2.66679">
        <ele>1451.8</ele>
        <time>2021-08-11T11:04:03Z</time>
      </trkpt>
      <trkpt lat="45.1063" lon="2.6668">
        <ele>1452</ele>
        <time>2021-08-11T11:04:04Z</time>
      </trkpt>
      <trkpt lat="45.1063" lon="2.66681">
        <ele>1452.1</ele>
        <time>2021-08-11T11:04:05Z</time>
      </trkpt>
      <trkpt lat="45.1063" lon="2.66682">
        <ele>1452.2</ele>
        <time>2021-08-11T11:04:06Z</time>
      </trkpt>
      <trkpt lat="45.1063" lon="2.66683">
        <ele>1452.3</ele>
        <time>2021-08-11T11:04:07Z</time>
      </trkpt>
      <trkpt lat="45.1063" lon="2.66683">
        <ele>1452.6</ele>
        <time>2021-08-11T11:04:08Z</time>
      </trkpt>
      <trkpt lat="45.1063" lon="2.66684">
        <ele>1452.7</ele>
        <time>2021-08-11T11:04:09Z</time>
      </trkpt>
      <trkpt lat="45.1063" lon="2.66685">
        <ele>1453</ele>
        <time>2021-08-11T11:04:10Z</time>
      </trkpt>
      <trkpt lat="45.1063" lon="2.66686">
        <ele>1453.3</ele>
        <time>2021-08-11T11:04:11Z</time>
      </trkpt>
      <trkpt lat="45.1063" lon="2.66687">
        <ele>1453.7</ele>
        <time>2021-08-11T11:04:12Z</time>
      </trkpt>
      <trkpt lat="45.10629" lon="2.66688">
        <ele>1454.1</ele>
        <time>2021-08-11T11:04:13Z</time>
      </trkpt>
      <trkpt lat="45.10629" lon="2.66689">
        <ele>1454.4</ele>
        <time>2021-08-11T11:04:14Z</time>
      </trkpt>
      <trkpt lat="45.10629" lon="2.66689">
        <ele>1454.7</ele>
        <time>2021-08-11T11:04:15Z</time>
      </trkpt>
      <trkpt lat="45.10628" lon="2.6669">
        <ele>1455</ele>
        <time>2021-08-11T11:04:16Z</time>
      </trkpt>
      <trkpt lat="45.10628" lon="2.6669">
        <ele>1455.2</ele>
        <time>2021-08-11T11:04:17Z</time>
      </trkpt>
      <trkpt lat="45.10628" lon="2.66691">
        <ele>1455.3</ele>
        <time>2021-08-11T11:04:18Z</time>
      </trkpt>
      <trkpt lat="45.10628" lon="2.66692">
        <ele>1455.4</ele>
        <time>2021-08-11T11:04:19Z</time>
      </trkpt>
      <trkpt lat="45.10628" lon="2.66692">
        <ele>1455.7</ele>
        <time>2021-08-11T11:04:20Z</time>
      </trkpt>
      <trkpt lat="45.10628" lon="2.66693">
        <ele>1455.8</ele>
        <time>2021-08-11T11:04:21Z</time>
      </trkpt>
      <trkpt lat="45.10629" lon="2.66694">
        <ele>1455.7</ele>
        <time>2021-08-11T11:04:22Z</time>
      </trkpt>
      <trkpt lat="45.10629" lon="2.66694">
        <ele>1455.5</ele>
        <time>2021-08-11T11:04:23Z</time>
      </trkpt>
      <trkpt lat="45.1063" lon="2.66695">
        <ele>1455.4</ele>
        <time>2021-08-11T11:04:24Z</time>
      </trkpt>
      <trkpt lat="45.1063" lon="2.66697">
        <ele>1455.5</ele>
        <time>2021-08-11T11:04:25Z</time>
      </trkpt>
      <trkpt lat="45.1063" lon="2.66698">
        <ele>1455.8</ele>
        <time>2021-08-11T11:04:26Z</time>
      </trkpt>
      <trkpt lat="45.1063" lon="2.66699">
        <ele>1456</ele>
        <time>2021-08-11T11:04:27Z</time>
      </trkpt>
      <trkpt lat="45.1063" lon="2.66699">
        <ele>1456.3</ele>
        <time>2021-08-11T11:04:28Z</time>
      </trkpt>
      <trkpt lat="45.10629" lon="2.667">
        <ele>1456.7</ele>
        <time>2021-08-11T11:04:29Z</time>
      </trkpt>
      <trkpt lat="45.10629" lon="2.66701">
        <ele>1456.9</ele>
        <time>2021-08-11T11:04:30Z</time>
      </trkpt>
      <trkpt lat="45.10629" lon="2.66702">
        <ele>1457.2</ele>
        <time>2021-08-11T11:04:31Z</time>
      </trkpt>
      <trkpt lat="45.10629" lon="2.66703">
        <ele>1457.3</ele>
        <time>2021-08-11T11:04:32Z</time>
      </trkpt>
      <trkpt lat="45.10629" lon="2.66704">
        <ele>1457.4</ele>
        <time>2021-08-11T11:04:33Z</time>
      </trkpt>
      <trkpt lat="45.1063" lon="2.66705">
        <ele>1457.6</ele>
        <time>2021-08-11T11:04:34Z</time>
      </trkpt>
      <trkpt lat="45.1063" lon="2.66705">
        <ele>1457.7</ele>
        <time>2021-08-11T11:04:35Z</time>
      </trkpt>
      <trkpt lat="45.1063" lon="2.66706">
        <ele>1457.8</ele>
        <time>2021-08-11T11:04:36Z</time>
      </trkpt>
      <trkpt lat="45.1063" lon="2.66706">
        <ele>1457.8</ele>
        <time>2021-08-11T11:04:37Z</time>
      </trkpt>
      <trkpt lat="45.1063" lon="2.66706">
        <ele>1457.9</ele>
        <time>2021-08-11T11:04:38Z</time>
      </trkpt>
      <trkpt lat="45.1063" lon="2.66707">
        <ele>1457.9</ele>
        <time>2021-08-11T11:04:39Z</time>
      </trkpt>
      <trkpt lat="45.1063" lon="2.66707">
        <ele>1457.7</ele>
        <time>2021-08-11T11:04:40Z</time>
      </trkpt>
      <trkpt lat="45.10631" lon="2.66708">
        <ele>1457.6</ele>
        <time>2021-08-11T11:04:41Z</time>
      </trkpt>
      <trkpt lat="45.10631" lon="2.66708">
        <ele>1457.4</ele>
        <time>2021-08-11T11:04:42Z</time>
      </trkpt>
      <trkpt lat="45.10632" lon="2.66709">
        <ele>1457.4</ele>
        <time>2021-08-11T11:04:43Z</time>
      </trkpt>
      <trkpt lat="45.10632" lon="2.6671">
        <ele>1457.4</ele>
        <time>2021-08-11T11:04:44Z</time>
      </trkpt>
      <trkpt lat="45.10632" lon="2.66711">
        <ele>1457.6</ele>
        <time>2021-08-11T11:04:45Z</time>
      </trkpt>
      <trkpt lat="45.10632" lon="2.66712">
        <ele>1457.8</ele>
        <time>2021-08-11T11:04:46Z</time>
      </trkpt>
      <trkpt lat="45.10632" lon="2.66713">
        <ele>1458</ele>
        <time>2021-08-11T11:04:47Z</time>
      </trkpt>
      <trkpt lat="45.10632" lon="2.66713">
        <ele>1458.2</ele>
        <time>2021-08-11T11:04:48Z</time>
      </trkpt>
      <trkpt lat="45.10632" lon="2.66714">
        <ele>1458.4</ele>
        <time>2021-08-11T11:04:49Z</time>
      </trkpt>
      <trkpt lat="45.10632" lon="2.66714">
        <ele>1458.4</ele>
        <time>2021-08-11T11:04:50Z</time>
      </trkpt>
      <trkpt lat="45.10632" lon="2.66715">
        <ele>1458.4</ele>
        <time>2021-08-11T11:04:51Z</time>
      </trkpt>
      <trkpt lat="45.10632" lon="2.66715">
        <ele>1458.5</ele>
        <time>2021-08-11T11:04:52Z</time>
      </trkpt>
      <trkpt lat="45.10632" lon="2.66716">
        <ele>1458.6</ele>
        <time>2021-08-11T11:04:53Z</time>
      </trkpt>
      <trkpt lat="45.10632" lon="2.66716">
        <ele>1458.8</ele>
        <time>2021-08-11T11:04:54Z</time>
      </trkpt>
      <trkpt lat="45.10632" lon="2.66717">
        <ele>1458.8</ele>
        <time>2021-08-11T11:04:55Z</time>
      </trkpt>
      <trkpt lat="45.10632" lon="2.66718">
        <ele>1458.9</ele>
        <time>2021-08-11T11:04:56Z</time>
      </trkpt>
      <trkpt lat="45.10632" lon="2.66718">
        <ele>1459</ele>
        <time>2021-08-11T11:04:57Z</time>
      </trkpt>
      <trkpt lat="45.10632" lon="2.66719">
        <ele>1459.1</ele>
        <time>2021-08-11T11:04:58Z</time>
      </trkpt>
      <trkpt lat="45.10633" lon="2.66719">
        <ele>1458.9</ele>
        <time>2021-08-11T11:04:59Z</time>
      </trkpt>
      <trkpt lat="45.10633" lon="2.66719">
        <ele>1458.8</ele>
        <time>2021-08-11T11:05:00Z</time>
      </trkpt>
      <trkpt lat="45.10634" lon="2.6672">
        <ele>1458.7</ele>
        <time>2021-08-11T11:05:01Z</time>
      </trkpt>
      <trkpt lat="45.10634" lon="2.6672">
        <ele>1458.5</ele>
        <time>2021-08-11T11:05:02Z</time>
      </trkpt>
      <trkpt lat="45.10635" lon="2.66721">
        <ele>1458.4</ele>
        <time>2021-08-11T11:05:03Z</time>
      </trkpt>
      <trkpt lat="45.10635" lon="2.66722">
        <ele>1458.3</ele>
        <time>2021-08-11T11:05:04Z</time>
      </trkpt>
      <trkpt lat="45.10636" lon="2.66723">
        <ele>1458.4</ele>
        <time>2021-08-11T11:05:05Z</time>
      </trkpt>
      <trkpt lat="45.10636" lon="2.66725">
        <ele>1458.4</ele>
        <time>2021-08-11T11:05:06Z</time>
      </trkpt>
      <trkpt lat="45.10636" lon="2.66726">
        <ele>1458.6</ele>
        <time>2021-08-11T11:05:07Z</time>
      </trkpt>
      <trkpt lat="45.10637" lon="2.66727">
        <ele>1458.7</ele>
        <time>2021-08-11T11:05:08Z</time>
      </trkpt>
      <trkpt lat="45.10637" lon="2.66728">
        <ele>1458.9</ele>
        <time>2021-08-11T11:05:09Z</time>
      </trkpt>
      <trkpt lat="45.10637" lon="2.6673">
        <ele>1459</ele>
        <time>2021-08-11T11:05:10Z</time>
      </trkpt>
      <trkpt lat="45.10637" lon="2.6673">
        <ele>1459.1</ele>
        <time>2021-08-11T11:05:11Z</time>
      </trkpt>
      <trkpt lat="45.10637" lon="2.66731">
        <ele>1459.2</ele>
        <time>2021-08-11T11:05:12Z</time>
      </trkpt>
      <trkpt lat="45.10638" lon="2.66732">
        <ele>1459.3</ele>
        <time>2021-08-11T11:05:13Z</time>
      </trkpt>
      <trkpt lat="45.10638" lon="2.66733">
        <ele>1459.2</ele>
        <time>2021-08-11T11:05:14Z</time>
      </trkpt>
      <trkpt lat="45.10638" lon="2.66734">
        <ele>1459.2</ele>
        <time>2021-08-11T11:05:15Z</time>
      </trkpt>
      <trkpt lat="45.10639" lon="2.66735">
        <ele>1459.1</ele>
        <time>2021-08-11T11:05:16Z</time>
      </trkpt>
      <trkpt lat="45.10639" lon="2.66736">
        <ele>1459.2</ele>
        <time>2021-08-11T11:05:17Z</time>
      </trkpt>
      <trkpt lat="45.1064" lon="2.66737">
        <ele>1459.1</ele>
        <time>2021-08-11T11:05:18Z</time>
      </trkpt>
      <trkpt lat="45.1064" lon="2.66738">
        <ele>1459.2</ele>
        <time>2021-08-11T11:05:19Z</time>
      </trkpt>
      <trkpt lat="45.1064" lon="2.66739">
        <ele>1459.3</ele>
        <time>2021-08-11T11:05:20Z</time>
      </trkpt>
      <trkpt lat="45.10641" lon="2.6674">
        <ele>1459.5</ele>
        <time>2021-08-11T11:05:21Z</time>
      </trkpt>
      <trkpt lat="45.10641" lon="2.66741">
        <ele>1459.5</ele>
        <time>2021-08-11T11:05:22Z</time>
      </trkpt>
      <trkpt lat="45.10641" lon="2.66742">
        <ele>1459.6</ele>
        <time>2021-08-11T11:05:23Z</time>
      </trkpt>
      <trkpt lat="45.10642" lon="2.66743">
        <ele>1459.6</ele>
        <time>2021-08-11T11:05:24Z</time>
      </trkpt>
      <trkpt lat="45.10642" lon="2.66744">
        <ele>1459.8</ele>
        <time>2021-08-11T11:05:25Z</time>
      </trkpt>
      <trkpt lat="45.10642" lon="2.66745">
        <ele>1459.8</ele>
        <time>2021-08-11T11:05:26Z</time>
      </trkpt>
      <trkpt lat="45.10642" lon="2.66745">
        <ele>1459.8</ele>
        <time>2021-08-11T11:05:27Z</time>
      </trkpt>
      <trkpt lat="45.10642" lon="2.66746">
        <ele>1460</ele>
        <time>2021-08-11T11:05:28Z</time>
      </trkpt>
      <trkpt lat="45.10643" lon="2.66748">
        <ele>1460</ele>
        <time>2021-08-11T11:05:29Z</time>
      </trkpt>
      <trkpt lat="45.10643" lon="2.66748">
        <ele>1460</ele>
        <time>2021-08-11T11:05:30Z</time>
      </trkpt>
      <trkpt lat="45.10643" lon="2.6675">
        <ele>1460.2</ele>
        <time>2021-08-11T11:05:31Z</time>
      </trkpt>
      <trkpt lat="45.10644" lon="2.66751">
        <ele>1460.4</ele>
        <time>2021-08-11T11:05:32Z</time>
      </trkpt>
      <trkpt lat="45.10644" lon="2.66751">
        <ele>1460.3</ele>
        <time>2021-08-11T11:05:33Z</time>
      </trkpt>
      <trkpt lat="45.10644" lon="2.66752">
        <ele>1460.4</ele>
        <time>2021-08-11T11:05:34Z</time>
      </trkpt>
      <trkpt lat="45.10644" lon="2.66753">
        <ele>1460.5</ele>
        <time>2021-08-11T11:05:35Z</time>
      </trkpt>
      <trkpt lat="45.10644" lon="2.66753">
        <ele>1460.8</ele>
        <time>2021-08-11T11:05:36Z</time>
      </trkpt>
      <trkpt lat="45.10644" lon="2.66754">
        <ele>1461</ele>
        <time>2021-08-11T11:05:37Z</time>
      </trkpt>
      <trkpt lat="45.10644" lon="2.66755">
        <ele>1461.1</ele>
        <time>2021-08-11T11:05:38Z</time>
      </trkpt>
      <trkpt lat="45.10644" lon="2.66755">
        <ele>1461.1</ele>
        <time>2021-08-11T11:05:39Z</time>
      </trkpt>
      <trkpt lat="45.10644" lon="2.66756">
        <ele>1461.3</ele>
        <time>2021-08-11T11:05:40Z</time>
      </trkpt>
      <trkpt lat="45.10645" lon="2.66757">
        <ele>1461.4</ele>
        <time>2021-08-11T11:05:41Z</time>
      </trkpt>
      <trkpt lat="45.10645" lon="2.66757">
        <ele>1461.4</ele>
        <time>2021-08-11T11:05:42Z</time>
      </trkpt>
      <trkpt lat="45.10645" lon="2.66758">
        <ele>1461.3</ele>
        <time>2021-08-11T11:05:43Z</time>
      </trkpt>
      <trkpt lat="45.10646" lon="2.66759">
        <ele>1461.3</ele>
        <time>2021-08-11T11:05:44Z</time>
      </trkpt>
      <trkpt lat="45.10646" lon="2.66759">
        <ele>1461.3</ele>
        <time>2021-08-11T11:05:45Z</time>
      </trkpt>
      <trkpt lat="45.10647" lon="2.6676">
        <ele>1461.2</ele>
        <time>2021-08-11T11:05:46Z</time>
      </trkpt>
      <trkpt lat="45.10647" lon="2.66761">
        <ele>1461.4</ele>
        <time>2021-08-11T11:05:47Z</time>
      </trkpt>
      <trkpt lat="45.10647" lon="2.66762">
        <ele>1461.4</ele>
        <time>2021-08-11T11:05:48Z</time>
      </trkpt>
      <trkpt lat="45.10647" lon="2.66763">
        <ele>1461.5</ele>
        <time>2021-08-11T11:05:49Z</time>
      </trkpt>
      <trkpt lat="45.10648" lon="2.66764">
        <ele>1461.6</ele>
        <time>2021-08-11T11:05:50Z</time>
      </trkpt>
      <trkpt lat="45.10648" lon="2.66764">
        <ele>1461.7</ele>
        <time>2021-08-11T11:05:51Z</time>
      </trkpt>
      <trkpt lat="45.10648" lon="2.66765">
        <ele>1461.7</ele>
        <time>2021-08-11T11:05:52Z</time>
      </trkpt>
      <trkpt lat="45.10648" lon="2.66766">
        <ele>1461.8</ele>
        <time>2021-08-11T11:05:53Z</time>
      </trkpt>
      <trkpt lat="45.10649" lon="2.66767">
        <ele>1461.7</ele>
        <time>2021-08-11T11:05:54Z</time>
      </trkpt>
      <trkpt lat="45.1065" lon="2.66767">
        <ele>1461.4</ele>
        <time>2021-08-11T11:05:55Z</time>
      </trkpt>
      <trkpt lat="45.1065" lon="2.66767">
        <ele>1461.2</ele>
        <time>2021-08-11T11:05:56Z</time>
      </trkpt>
      <trkpt lat="45.10651" lon="2.66768">
        <ele>1460.9</ele>
        <time>2021-08-11T11:05:57Z</time>
      </trkpt>
      <trkpt lat="45.10652" lon="2.66768">
        <ele>1460.7</ele>
        <time>2021-08-11T11:05:58Z</time>
      </trkpt>
      <trkpt lat="45.10652" lon="2.66769">
        <ele>1460.6</ele>
        <time>2021-08-11T11:05:59Z</time>
      </trkpt>
      <trkpt lat="45.10652" lon="2.66769">
        <ele>1460.6</ele>
        <time>2021-08-11T11:06:00Z</time>
      </trkpt>
      <trkpt lat="45.10653" lon="2.6677">
        <ele>1460.4</ele>
        <time>2021-08-11T11:06:01Z</time>
      </trkpt>
      <trkpt lat="45.10653" lon="2.6677">
        <ele>1460.2</ele>
        <time>2021-08-11T11:06:02Z</time>
      </trkpt>
      <trkpt lat="45.10654" lon="2.66771">
        <ele>1460.2</ele>
        <time>2021-08-11T11:06:03Z</time>
      </trkpt>
      <trkpt lat="45.10654" lon="2.66771">
        <ele>1460.1</ele>
        <time>2021-08-11T11:06:04Z</time>
      </trkpt>
      <trkpt lat="45.10655" lon="2.66771">
        <ele>1459.9</ele>
        <time>2021-08-11T11:06:05Z</time>
      </trkpt>
      <trkpt lat="45.10655" lon="2.66772">
        <ele>1459.6</ele>
        <time>2021-08-11T11:06:06Z</time>
      </trkpt>
      <trkpt lat="45.10656" lon="2.66772">
        <ele>1459.2</ele>
        <time>2021-08-11T11:06:07Z</time>
      </trkpt>
      <trkpt lat="45.10657" lon="2.66773">
        <ele>1459.1</ele>
        <time>2021-08-11T11:06:08Z</time>
      </trkpt>
      <trkpt lat="45.10657" lon="2.66774">
        <ele>1459.1</ele>
        <time>2021-08-11T11:06:09Z</time>
      </trkpt>
      <trkpt lat="45.10658" lon="2.66774">
        <ele>1459</ele>
        <time>2021-08-11T11:06:10Z</time>
      </trkpt>
      <trkpt lat="45.10658" lon="2.66775">
        <ele>1459</ele>
        <time>2021-08-11T11:06:11Z</time>
      </trkpt>
      <trkpt lat="45.10659" lon="2.66776">
        <ele>1458.9</ele>
        <time>2021-08-11T11:06:12Z</time>
      </trkpt>
      <trkpt lat="45.10659" lon="2.66777">
        <ele>1458.9</ele>
        <time>2021-08-11T11:06:13Z</time>
      </trkpt>
      <trkpt lat="45.1066" lon="2.66778">
        <ele>1459</ele>
        <time>2021-08-11T11:06:14Z</time>
      </trkpt>
      <trkpt lat="45.1066" lon="2.66779">
        <ele>1459.1</ele>
        <time>2021-08-11T11:06:15Z</time>
      </trkpt>
      <trkpt lat="45.1066" lon="2.6678">
        <ele>1459.1</ele>
        <time>2021-08-11T11:06:16Z</time>
      </trkpt>
      <trkpt lat="45.10661" lon="2.6678">
        <ele>1459</ele>
        <time>2021-08-11T11:06:17Z</time>
      </trkpt>
      <trkpt lat="45.10661" lon="2.6678">
        <ele>1458.9</ele>
        <time>2021-08-11T11:06:18Z</time>
      </trkpt>
      <trkpt lat="45.10661" lon="2.66781">
        <ele>1458.9</ele>
        <time>2021-08-11T11:06:19Z</time>
      </trkpt>
      <trkpt lat="45.10662" lon="2.66782">
        <ele>1458.9</ele>
        <time>2021-08-11T11:06:20Z</time>
      </trkpt>
      <trkpt lat="45.10662" lon="2.66783">
        <ele>1459</ele>
        <time>2021-08-11T11:06:21Z</time>
      </trkpt>
      <trkpt lat="45.10662" lon="2.66784">
        <ele>1459.1</ele>
        <time>2021-08-11T11:06:22Z</time>
      </trkpt>
      <trkpt lat="45.10663" lon="2.66785">
        <ele>1459.2</ele>
        <time>2021-08-11T11:06:23Z</time>
      </trkpt>
      <trkpt lat="45.10663" lon="2.66786">
        <ele>1459.3</ele>
        <time>2021-08-11T11:06:24Z</time>
      </trkpt>
      <trkpt lat="45.10663" lon="2.66786">
        <ele>1459.4</ele>
        <time>2021-08-11T11:06:25Z</time>
      </trkpt>
      <trkpt lat="45.10663" lon="2.66787">
        <ele>1459.5</ele>
        <time>2021-08-11T11:06:26Z</time>
      </trkpt>
      <trkpt lat="45.10664" lon="2.66788">
        <ele>1459.6</ele>
        <time>2021-08-11T11:06:27Z</time>
      </trkpt>
      <trkpt lat="45.10664" lon="2.66789">
        <ele>1459.6</ele>
        <time>2021-08-11T11:06:28Z</time>
      </trkpt>
      <trkpt lat="45.10665" lon="2.66789">
        <ele>1459.5</ele>
        <time>2021-08-11T11:06:29Z</time>
      </trkpt>
      <trkpt lat="45.10665" lon="2.6679">
        <ele>1459.6</ele>
        <time>2021-08-11T11:06:30Z</time>
      </trkpt>
      <trkpt lat="45.10665" lon="2.66791">
        <ele>1459.8</ele>
        <time>2021-08-11T11:06:31Z</time>
      </trkpt>
      <trkpt lat="45.10665" lon="2.66792">
        <ele>1459.8</ele>
        <time>2021-08-11T11:06:32Z</time>
      </trkpt>
      <trkpt lat="45.10665" lon="2.66792">
        <ele>1459.8</ele>
        <time>2021-08-11T11:06:33Z</time>
      </trkpt>
      <trkpt lat="45.10666" lon="2.66793">
        <ele>1459.8</ele>
        <time>2021-08-11T11:06:34Z</time>
      </trkpt>
      <trkpt lat="45.10666" lon="2.66794">
        <ele>1459.9</ele>
        <time>2021-08-11T11:06:35Z</time>
      </trkpt>
      <trkpt lat="45.10667" lon="2.66795">
        <ele>1459.8</ele>
        <time>2021-08-11T11:06:36Z</time>
      </trkpt>
      <trkpt lat="45.10667" lon="2.66796">
        <ele>1459.9</ele>
        <time>2021-08-11T11:06:37Z</time>
      </trkpt>
      <trkpt lat="45.10668" lon="2.66797">
        <ele>1460</ele>
        <time>2021-08-11T11:06:38Z</time>
      </trkpt>
      <trkpt lat="45.10668" lon="2.66798">
        <ele>1460</ele>
        <time>2021-08-11T11:06:39Z</time>
      </trkpt>
      <trkpt lat="45.10669" lon="2.66798">
        <ele>1459.9</ele>
        <time>2021-08-11T11:06:40Z</time>
      </trkpt>
      <trkpt lat="45.10669" lon="2.66799">
        <ele>1459.9</ele>
        <time>2021-08-11T11:06:41Z</time>
      </trkpt>
      <trkpt lat="45.1067" lon="2.668">
        <ele>1460.1</ele>
        <time>2021-08-11T11:06:42Z</time>
      </trkpt>
      <trkpt lat="45.1067" lon="2.668">
        <ele>1460.3</ele>
        <time>2021-08-11T11:06:43Z</time>
      </trkpt>
      <trkpt lat="45.1067" lon="2.66801">
        <ele>1460.2</ele>
        <time>2021-08-11T11:06:44Z</time>
      </trkpt>
      <trkpt lat="45.10671" lon="2.66802">
        <ele>1460.2</ele>
        <time>2021-08-11T11:06:45Z</time>
      </trkpt>
      <trkpt lat="45.10671" lon="2.66802">
        <ele>1460.2</ele>
        <time>2021-08-11T11:06:46Z</time>
      </trkpt>
      <trkpt lat="45.10672" lon="2.66803">
        <ele>1460.3</ele>
        <time>2021-08-11T11:06:47Z</time>
      </trkpt>
      <trkpt lat="45.10672" lon="2.66803">
        <ele>1460.3</ele>
        <time>2021-08-11T11:06:48Z</time>
      </trkpt>
      <trkpt lat="45.10672" lon="2.66804">
        <ele>1460.4</ele>
        <time>2021-08-11T11:06:49Z</time>
      </trkpt>
      <trkpt lat="45.10673" lon="2.66805">
        <ele>1460.5</ele>
        <time>2021-08-11T11:06:50Z</time>
      </trkpt>
      <trkpt lat="45.10673" lon="2.66806">
        <ele>1460.5</ele>
        <time>2021-08-11T11:06:51Z</time>
      </trkpt>
      <trkpt lat="45.10674" lon="2.66806">
        <ele>1460.5</ele>
        <time>2021-08-11T11:06:52Z</time>
      </trkpt>
      <trkpt lat="45.10674" lon="2.66807">
        <ele>1460.6</ele>
        <time>2021-08-11T11:06:53Z</time>
      </trkpt>
      <trkpt lat="45.10675" lon="2.66807">
        <ele>1460.5</ele>
        <time>2021-08-11T11:06:54Z</time>
      </trkpt>
      <trkpt lat="45.10675" lon="2.66807">
        <ele>1460.4</ele>
        <time>2021-08-11T11:06:55Z</time>
      </trkpt>
      <trkpt lat="45.10676" lon="2.66808">
        <ele>1460.3</ele>
        <time>2021-08-11T11:06:56Z</time>
      </trkpt>
      <trkpt lat="45.10676" lon="2.66808">
        <ele>1460.3</ele>
        <time>2021-08-11T11:06:57Z</time>
      </trkpt>
      <trkpt lat="45.10677" lon="2.66809">
        <ele>1460.2</ele>
        <time>2021-08-11T11:06:58Z</time>
      </trkpt>
      <trkpt lat="45.10677" lon="2.66809">
        <ele>1460.1</ele>
        <time>2021-08-11T11:06:59Z</time>
      </trkpt>
      <trkpt lat="45.10678" lon="2.6681">
        <ele>1460.1</ele>
        <time>2021-08-11T11:07:00Z</time>
      </trkpt>
      <trkpt lat="45.10678" lon="2.6681">
        <ele>1460</ele>
        <time>2021-08-11T11:07:01Z</time>
      </trkpt>
      <trkpt lat="45.10679" lon="2.6681">
        <ele>1460</ele>
        <time>2021-08-11T11:07:02Z</time>
      </trkpt>
      <trkpt lat="45.10679" lon="2.66811">
        <ele>1460</ele>
        <time>2021-08-11T11:07:03Z</time>
      </trkpt>
      <trkpt lat="45.1068" lon="2.66812">
        <ele>1460</ele>
        <time>2021-08-11T11:07:04Z</time>
      </trkpt>
      <trkpt lat="45.10681" lon="2.66812">
        <ele>1459.8</ele>
        <time>2021-08-11T11:07:05Z</time>
      </trkpt>
      <trkpt lat="45.10681" lon="2.66813">
        <ele>1459.9</ele>
        <time>2021-08-11T11:07:06Z</time>
      </trkpt>
      <trkpt lat="45.10682" lon="2.66814">
        <ele>1459.9</ele>
        <time>2021-08-11T11:07:07Z</time>
      </trkpt>
      <trkpt lat="45.10682" lon="2.66814">
        <ele>1459.9</ele>
        <time>2021-08-11T11:07:08Z</time>
      </trkpt>
      <trkpt lat="45.10683" lon="2.66815">
        <ele>1459.9</ele>
        <time>2021-08-11T11:07:09Z</time>
      </trkpt>
      <trkpt lat="45.10683" lon="2.66816">
        <ele>1459.9</ele>
        <time>2021-08-11T11:07:10Z</time>
      </trkpt>
      <trkpt lat="45.10684" lon="2.66817">
        <ele>1459.9</ele>
        <time>2021-08-11T11:07:11Z</time>
      </trkpt>
      <trkpt lat="45.10684" lon="2.66817">
        <ele>1460</ele>
        <time>2021-08-11T11:07:12Z</time>
      </trkpt>
      <trkpt lat="45.10685" lon="2.66818">
        <ele>1460</ele>
        <time>2021-08-11T11:07:13Z</time>
      </trkpt>
      <trkpt lat="45.10685" lon="2.66819">
        <ele>1460</ele>
        <time>2021-08-11T11:07:14Z</time>
      </trkpt>
      <trkpt lat="45.10686" lon="2.6682">
        <ele>1460</ele>
        <time>2021-08-11T11:07:15Z</time>
      </trkpt>
      <trkpt lat="45.10687" lon="2.6682">
        <ele>1460</ele>
        <time>2021-08-11T11:07:16Z</time>
      </trkpt>
      <trkpt lat="45.10687" lon="2.66821">
        <ele>1460.1</ele>
        <time>2021-08-11T11:07:17Z</time>
      </trkpt>
      <trkpt lat="45.10688" lon="2.66822">
        <ele>1460</ele>
        <time>2021-08-11T11:07:18Z</time>
      </trkpt>
      <trkpt lat="45.10688" lon="2.66823">
        <ele>1460</ele>
        <time>2021-08-11T11:07:19Z</time>
      </trkpt>
      <trkpt lat="45.10689" lon="2.66823">
        <ele>1460</ele>
        <time>2021-08-11T11:07:20Z</time>
      </trkpt>
      <trkpt lat="45.10689" lon="2.66824">
        <ele>1460</ele>
        <time>2021-08-11T11:07:21Z</time>
      </trkpt>
      <trkpt lat="45.10689" lon="2.66825">
        <ele>1460.1</ele>
        <time>2021-08-11T11:07:22Z</time>
      </trkpt>
      <trkpt lat="45.1069" lon="2.66825">
        <ele>1460.2</ele>
        <time>2021-08-11T11:07:23Z</time>
      </trkpt>
      <trkpt lat="45.1069" lon="2.66826">
        <ele>1460.3</ele>
        <time>2021-08-11T11:07:24Z</time>
      </trkpt>
      <trkpt lat="45.1069" lon="2.66827">
        <ele>1460.4</ele>
        <time>2021-08-11T11:07:25Z</time>
      </trkpt>
      <trkpt lat="45.1069" lon="2.66827">
        <ele>1460.5</ele>
        <time>2021-08-11T11:07:26Z</time>
      </trkpt>
      <trkpt lat="45.1069" lon="2.66828">
        <ele>1460.6</ele>
        <time>2021-08-11T11:07:27Z</time>
      </trkpt>
      <trkpt lat="45.10691" lon="2.66828">
        <ele>1460.7</ele>
        <time>2021-08-11T11:07:28Z</time>
      </trkpt>
      <trkpt lat="45.10691" lon="2.66829">
        <ele>1460.9</ele>
        <time>2021-08-11T11:07:29Z</time>
      </trkpt>
      <trkpt lat="45.10691" lon="2.6683">
        <ele>1461</ele>
        <time>2021-08-11T11:07:30Z</time>
      </trkpt>
      <trkpt lat="45.10691" lon="2.6683">
        <ele>1461.1</ele>
        <time>2021-08-11T11:07:31Z</time>
      </trkpt>
      <trkpt lat="45.10691" lon="2.66831">
        <ele>1461.2</ele>
        <time>2021-08-11T11:07:32Z</time>
      </trkpt>
      <trkpt lat="45.10691" lon="2.66831">
        <ele>1461.3</ele>
        <time>2021-08-11T11:07:33Z</time>
      </trkpt>
      <trkpt lat="45.10691" lon="2.66832">
        <ele>1461.4</ele>
        <time>2021-08-11T11:07:34Z</time>
      </trkpt>
      <trkpt lat="45.10692" lon="2.66833">
        <ele>1461.5</ele>
        <time>2021-08-11T11:07:35Z</time>
      </trkpt>
      <trkpt lat="45.10692" lon="2.66834">
        <ele>1461.7</ele>
        <time>2021-08-11T11:07:36Z</time>
      </trkpt>
      <trkpt lat="45.10692" lon="2.66834">
        <ele>1461.9</ele>
        <time>2021-08-11T11:07:37Z</time>
      </trkpt>
      <trkpt lat="45.10693" lon="2.66835">
        <ele>1461.9</ele>
        <time>2021-08-11T11:07:38Z</time>
      </trkpt>
      <trkpt lat="45.10693" lon="2.66835">
        <ele>1461.9</ele>
        <time>2021-08-11T11:07:39Z</time>
      </trkpt>
      <trkpt lat="45.10693" lon="2.66836">
        <ele>1462.1</ele>
        <time>2021-08-11T11:07:40Z</time>
      </trkpt>
      <trkpt lat="45.10693" lon="2.66836">
        <ele>1462.2</ele>
        <time>2021-08-11T11:07:41Z</time>
      </trkpt>
      <trkpt lat="45.10694" lon="2.66837">
        <ele>1462.4</ele>
        <time>2021-08-11T11:07:42Z</time>
      </trkpt>
      <trkpt lat="45.10694" lon="2.66838">
        <ele>1462.6</ele>
        <time>2021-08-11T11:07:43Z</time>
      </trkpt>
      <trkpt lat="45.10694" lon="2.66839">
        <ele>1462.7</ele>
        <time>2021-08-11T11:07:44Z</time>
      </trkpt>
      <trkpt lat="45.10694" lon="2.6684">
        <ele>1462.9</ele>
        <time>2021-08-11T11:07:45Z</time>
      </trkpt>
      <trkpt lat="45.10695" lon="2.6684">
        <ele>1463.1</ele>
        <time>2021-08-11T11:07:46Z</time>
      </trkpt>
      <trkpt lat="45.10695" lon="2.66841">
        <ele>1463.3</ele>
        <time>2021-08-11T11:07:47Z</time>
      </trkpt>
      <trkpt lat="45.10695" lon="2.66842">
        <ele>1463.5</ele>
        <time>2021-08-11T11:07:48Z</time>
      </trkpt>
      <trkpt lat="45.10695" lon="2.66843">
        <ele>1463.7</ele>
        <time>2021-08-11T11:07:49Z</time>
      </trkpt>
      <trkpt lat="45.10696" lon="2.66843">
        <ele>1463.7</ele>
        <time>2021-08-11T11:07:50Z</time>
      </trkpt>
      <trkpt lat="45.10696" lon="2.66844">
        <ele>1463.9</ele>
        <time>2021-08-11T11:07:51Z</time>
      </trkpt>
      <trkpt lat="45.10696" lon="2.66845">
        <ele>1464.2</ele>
        <time>2021-08-11T11:07:52Z</time>
      </trkpt>
      <trkpt lat="45.10697" lon="2.66845">
        <ele>1464.2</ele>
        <time>2021-08-11T11:07:53Z</time>
      </trkpt>
      <trkpt lat="45.10697" lon="2.66846">
        <ele>1464.3</ele>
        <time>2021-08-11T11:07:54Z</time>
      </trkpt>
      <trkpt lat="45.10697" lon="2.66847">
        <ele>1464.4</ele>
        <time>2021-08-11T11:07:55Z</time>
      </trkpt>
      <trkpt lat="45.10698" lon="2.66848">
        <ele>1464.6</ele>
        <time>2021-08-11T11:07:56Z</time>
      </trkpt>
      <trkpt lat="45.10698" lon="2.66849">
        <ele>1464.9</ele>
        <time>2021-08-11T11:07:57Z</time>
      </trkpt>
      <trkpt lat="45.10698" lon="2.66849">
        <ele>1465</ele>
        <time>2021-08-11T11:07:58Z</time>
      </trkpt>
      <trkpt lat="45.10698" lon="2.6685">
        <ele>1465.3</ele>
        <time>2021-08-11T11:07:59Z</time>
      </trkpt>
      <trkpt lat="45.10698" lon="2.66851">
        <ele>1465.5</ele>
        <time>2021-08-11T11:08:00Z</time>
      </trkpt>
      <trkpt lat="45.10699" lon="2.66851">
        <ele>1465.6</ele>
        <time>2021-08-11T11:08:01Z</time>
      </trkpt>
      <trkpt lat="45.10699" lon="2.66852">
        <ele>1465.8</ele>
        <time>2021-08-11T11:08:02Z</time>
      </trkpt>
      <trkpt lat="45.10699" lon="2.66853">
        <ele>1466</ele>
        <time>2021-08-11T11:08:03Z</time>
      </trkpt>
      <trkpt lat="45.10699" lon="2.66853">
        <ele>1466.3</ele>
        <time>2021-08-11T11:08:04Z</time>
      </trkpt>
      <trkpt lat="45.10699" lon="2.66854">
        <ele>1466.4</ele>
        <time>2021-08-11T11:08:05Z</time>
      </trkpt>
      <trkpt lat="45.107" lon="2.66855">
        <ele>1466.5</ele>
        <time>2021-08-11T11:08:06Z</time>
      </trkpt>
      <trkpt lat="45.107" lon="2.66855">
        <ele>1466.7</ele>
        <time>2021-08-11T11:08:07Z</time>
      </trkpt>
      <trkpt lat="45.107" lon="2.66856">
        <ele>1466.9</ele>
        <time>2021-08-11T11:08:08Z</time>
      </trkpt>
      <trkpt lat="45.107" lon="2.66857">
        <ele>1467</ele>
        <time>2021-08-11T11:08:09Z</time>
      </trkpt>
      <trkpt lat="45.10701" lon="2.66858">
        <ele>1467.1</ele>
        <time>2021-08-11T11:08:10Z</time>
      </trkpt>
      <trkpt lat="45.10701" lon="2.66858">
        <ele>1467.4</ele>
        <time>2021-08-11T11:08:11Z</time>
      </trkpt>
      <trkpt lat="45.10701" lon="2.66859">
        <ele>1467.5</ele>
        <time>2021-08-11T11:08:12Z</time>
      </trkpt>
      <trkpt lat="45.10701" lon="2.6686">
        <ele>1467.7</ele>
        <time>2021-08-11T11:08:13Z</time>
      </trkpt>
      <trkpt lat="45.10702" lon="2.6686">
        <ele>1467.6</ele>
        <time>2021-08-11T11:08:14Z</time>
      </trkpt>
      <trkpt lat="45.10702" lon="2.66861">
        <ele>1467.6</ele>
        <time>2021-08-11T11:08:15Z</time>
      </trkpt>
      <trkpt lat="45.10703" lon="2.66862">
        <ele>1467.6</ele>
        <time>2021-08-11T11:08:16Z</time>
      </trkpt>
      <trkpt lat="45.10704" lon="2.66862">
        <ele>1467.6</ele>
        <time>2021-08-11T11:08:17Z</time>
      </trkpt>
      <trkpt lat="45.10704" lon="2.66863">
        <ele>1467.5</ele>
        <time>2021-08-11T11:08:18Z</time>
      </trkpt>
      <trkpt lat="45.10705" lon="2.66863">
        <ele>1467.4</ele>
        <time>2021-08-11T11:08:19Z</time>
      </trkpt>
      <trkpt lat="45.10706" lon="2.66864">
        <ele>1467.3</ele>
        <time>2021-08-11T11:08:20Z</time>
      </trkpt>
      <trkpt lat="45.10707" lon="2.66865">
        <ele>1467.3</ele>
        <time>2021-08-11T11:08:21Z</time>
      </trkpt>
      <trkpt lat="45.10707" lon="2.66865">
        <ele>1467.4</ele>
        <time>2021-08-11T11:08:22Z</time>
      </trkpt>
      <trkpt lat="45.10708" lon="2.66866">
        <ele>1467.6</ele>
        <time>2021-08-11T11:08:23Z</time>
      </trkpt>
      <trkpt lat="45.10708" lon="2.66867">
        <ele>1467.7</ele>
        <time>2021-08-11T11:08:24Z</time>
      </trkpt>
      <trkpt lat="45.10709" lon="2.66868">
        <ele>1467.7</ele>
        <time>2021-08-11T11:08:25Z</time>
      </trkpt>
      <trkpt lat="45.1071" lon="2.66869">
        <ele>1467.7</ele>
        <time>2021-08-11T11:08:26Z</time>
      </trkpt>
      <trkpt lat="45.1071" lon="2.6687">
        <ele>1467.9</ele>
        <time>2021-08-11T11:08:27Z</time>
      </trkpt>
      <trkpt lat="45.1071" lon="2.66871">
        <ele>1467.9</ele>
        <time>2021-08-11T11:08:28Z</time>
      </trkpt>
      <trkpt lat="45.10711" lon="2.66871">
        <ele>1468</ele>
        <time>2021-08-11T11:08:29Z</time>
      </trkpt>
      <trkpt lat="45.10711" lon="2.66872">
        <ele>1468.2</ele>
        <time>2021-08-11T11:08:30Z</time>
      </trkpt>
      <trkpt lat="45.10712" lon="2.66873">
        <ele>1468.3</ele>
        <time>2021-08-11T11:08:31Z</time>
      </trkpt>
      <trkpt lat="45.10712" lon="2.66874">
        <ele>1468.4</ele>
        <time>2021-08-11T11:08:32Z</time>
      </trkpt>
      <trkpt lat="45.10712" lon="2.66874">
        <ele>1468.4</ele>
        <time>2021-08-11T11:08:33Z</time>
      </trkpt>
      <trkpt lat="45.10712" lon="2.66874">
        <ele>1468.4</ele>
        <time>2021-08-11T11:08:34Z</time>
      </trkpt>
      <trkpt lat="45.10712" lon="2.66874">
        <ele>1468.4</ele>
        <time>2021-08-11T11:08:35Z</time>
      </trkpt>
      <trkpt lat="45.10713" lon="2.66874">
        <ele>1468.3</ele>
        <time>2021-08-11T11:08:36Z</time>
      </trkpt>
      <trkpt lat="45.10713" lon="2.66874">
        <ele>1468.3</ele>
        <time>2021-08-11T11:08:37Z</time>
      </trkpt>
      <trkpt lat="45.10713" lon="2.66874">
        <ele>1468.3</ele>
        <time>2021-08-11T11:08:38Z</time>
      </trkpt>
      <trkpt lat="45.10713" lon="2.66874">
        <ele>1468.3</ele>
        <time>2021-08-11T11:08:39Z</time>
      </trkpt>
      <trkpt lat="45.10713" lon="2.66874">
        <ele>1468.3</ele>
        <time>2021-08-11T11:08:40Z</time>
      </trkpt>
      <trkpt lat="45.10713" lon="2.66875">
        <ele>1468.4</ele>
        <time>2021-08-11T11:08:41Z</time>
      </trkpt>
      <trkpt lat="45.10714" lon="2.66876">
        <ele>1468.5</ele>
        <time>2021-08-11T11:08:42Z</time>
      </trkpt>
      <trkpt lat="45.10715" lon="2.66877">
        <ele>1468.5</ele>
        <time>2021-08-11T11:08:43Z</time>
      </trkpt>
      <trkpt lat="45.10715" lon="2.66878">
        <ele>1468.7</ele>
        <time>2021-08-11T11:08:44Z</time>
      </trkpt>
      <trkpt lat="45.10715" lon="2.66879">
        <ele>1468.7</ele>
        <time>2021-08-11T11:08:45Z</time>
      </trkpt>
      <trkpt lat="45.10715" lon="2.6688">
        <ele>1469.1</ele>
        <time>2021-08-11T11:08:46Z</time>
      </trkpt>
      <trkpt lat="45.10716" lon="2.66881">
        <ele>1469.4</ele>
        <time>2021-08-11T11:08:47Z</time>
      </trkpt>
      <trkpt lat="45.10715" lon="2.66882">
        <ele>1469.9</ele>
        <time>2021-08-11T11:08:48Z</time>
      </trkpt>
      <trkpt lat="45.10715" lon="2.66883">
        <ele>1470.2</ele>
        <time>2021-08-11T11:08:49Z</time>
      </trkpt>
      <trkpt lat="45.10715" lon="2.66884">
        <ele>1470.5</ele>
        <time>2021-08-11T11:08:50Z</time>
      </trkpt>
      <trkpt lat="45.10715" lon="2.66884">
        <ele>1470.6</ele>
        <time>2021-08-11T11:08:51Z</time>
      </trkpt>
      <trkpt lat="45.10715" lon="2.66885">
        <ele>1470.8</ele>
        <time>2021-08-11T11:08:52Z</time>
      </trkpt>
      <trkpt lat="45.10715" lon="2.66886">
        <ele>1471.1</ele>
        <time>2021-08-11T11:08:53Z</time>
      </trkpt>
      <trkpt lat="45.10716" lon="2.66886">
        <ele>1471.2</ele>
        <time>2021-08-11T11:08:54Z</time>
      </trkpt>
      <trkpt lat="45.10716" lon="2.66887">
        <ele>1471.4</ele>
        <time>2021-08-11T11:08:55Z</time>
      </trkpt>
      <trkpt lat="45.10716" lon="2.66888">
        <ele>1471.6</ele>
        <time>2021-08-11T11:08:56Z</time>
      </trkpt>
      <trkpt lat="45.10716" lon="2.66889">
        <ele>1471.7</ele>
        <time>2021-08-11T11:08:57Z</time>
      </trkpt>
      <trkpt lat="45.10717" lon="2.6689">
        <ele>1471.8</ele>
        <time>2021-08-11T11:08:58Z</time>
      </trkpt>
      <trkpt lat="45.10717" lon="2.6689">
        <ele>1471.8</ele>
        <time>2021-08-11T11:08:59Z</time>
      </trkpt>
      <trkpt lat="45.10717" lon="2.66891">
        <ele>1472.1</ele>
        <time>2021-08-11T11:09:00Z</time>
      </trkpt>
      <trkpt lat="45.10718" lon="2.66892">
        <ele>1472.2</ele>
        <time>2021-08-11T11:09:01Z</time>
      </trkpt>
      <trkpt lat="45.10718" lon="2.66893">
        <ele>1472.4</ele>
        <time>2021-08-11T11:09:02Z</time>
      </trkpt>
      <trkpt lat="45.10718" lon="2.66894">
        <ele>1472.4</ele>
        <time>2021-08-11T11:09:03Z</time>
      </trkpt>
      <trkpt lat="45.10719" lon="2.66894">
        <ele>1472.6</ele>
        <time>2021-08-11T11:09:04Z</time>
      </trkpt>
      <trkpt lat="45.10719" lon="2.66895">
        <ele>1472.7</ele>
        <time>2021-08-11T11:09:05Z</time>
      </trkpt>
      <trkpt lat="45.10719" lon="2.66896">
        <ele>1472.7</ele>
        <time>2021-08-11T11:09:06Z</time>
      </trkpt>
      <trkpt lat="45.1072" lon="2.66897">
        <ele>1472.8</ele>
        <time>2021-08-11T11:09:07Z</time>
      </trkpt>
      <trkpt lat="45.10721" lon="2.66898">
        <ele>1473</ele>
        <time>2021-08-11T11:09:08Z</time>
      </trkpt>
      <trkpt lat="45.10721" lon="2.66899">
        <ele>1473</ele>
        <time>2021-08-11T11:09:09Z</time>
      </trkpt>
      <trkpt lat="45.10721" lon="2.669">
        <ele>1473.3</ele>
        <time>2021-08-11T11:09:10Z</time>
      </trkpt>
      <trkpt lat="45.10721" lon="2.669">
        <ele>1473.4</ele>
        <time>2021-08-11T11:09:11Z</time>
      </trkpt>
      <trkpt lat="45.10721" lon="2.66901">
        <ele>1473.5</ele>
        <time>2021-08-11T11:09:12Z</time>
      </trkpt>
      <trkpt lat="45.10721" lon="2.66901">
        <ele>1473.7</ele>
        <time>2021-08-11T11:09:13Z</time>
      </trkpt>
      <trkpt lat="45.10722" lon="2.66902">
        <ele>1473.9</ele>
        <time>2021-08-11T11:09:14Z</time>
      </trkpt>
      <trkpt lat="45.10722" lon="2.66903">
        <ele>1474</ele>
        <time>2021-08-11T11:09:15Z</time>
      </trkpt>
      <trkpt lat="45.10722" lon="2.66904">
        <ele>1474.2</ele>
        <time>2021-08-11T11:09:16Z</time>
      </trkpt>
      <trkpt lat="45.10722" lon="2.66904">
        <ele>1474.4</ele>
        <time>2021-08-11T11:09:17Z</time>
      </trkpt>
      <trkpt lat="45.10722" lon="2.66905">
        <ele>1474.6</ele>
        <time>2021-08-11T11:09:18Z</time>
      </trkpt>
      <trkpt lat="45.10722" lon="2.66905">
        <ele>1474.7</ele>
        <time>2021-08-11T11:09:19Z</time>
      </trkpt>
      <trkpt lat="45.10722" lon="2.66906">
        <ele>1474.9</ele>
        <time>2021-08-11T11:09:20Z</time>
      </trkpt>
      <trkpt lat="45.10722" lon="2.66907">
        <ele>1475</ele>
        <time>2021-08-11T11:09:21Z</time>
      </trkpt>
      <trkpt lat="45.10723" lon="2.66907">
        <ele>1475.2</ele>
        <time>2021-08-11T11:09:22Z</time>
      </trkpt>
      <trkpt lat="45.10723" lon="2.66908">
        <ele>1475.2</ele>
        <time>2021-08-11T11:09:23Z</time>
      </trkpt>
      <trkpt lat="45.10723" lon="2.66908">
        <ele>1475.3</ele>
        <time>2021-08-11T11:09:24Z</time>
      </trkpt>
      <trkpt lat="45.10723" lon="2.66909">
        <ele>1475.5</ele>
        <time>2021-08-11T11:09:25Z</time>
      </trkpt>
      <trkpt lat="45.10723" lon="2.6691">
        <ele>1475.8</ele>
        <time>2021-08-11T11:09:26Z</time>
      </trkpt>
      <trkpt lat="45.10723" lon="2.66911">
        <ele>1476</ele>
        <time>2021-08-11T11:09:27Z</time>
      </trkpt>
      <trkpt lat="45.10723" lon="2.66911">
        <ele>1476.1</ele>
        <time>2021-08-11T11:09:28Z</time>
      </trkpt>
      <trkpt lat="45.10723" lon="2.66912">
        <ele>1476.3</ele>
        <time>2021-08-11T11:09:29Z</time>
      </trkpt>
      <trkpt lat="45.10723" lon="2.66912">
        <ele>1476.5</ele>
        <time>2021-08-11T11:09:30Z</time>
      </trkpt>
      <trkpt lat="45.10723" lon="2.66913">
        <ele>1476.5</ele>
        <time>2021-08-11T11:09:31Z</time>
      </trkpt>
      <trkpt lat="45.10724" lon="2.66913">
        <ele>1476.5</ele>
        <time>2021-08-11T11:09:32Z</time>
      </trkpt>
      <trkpt lat="45.10724" lon="2.66913">
        <ele>1476.6</ele>
        <time>2021-08-11T11:09:33Z</time>
      </trkpt>
      <trkpt lat="45.10724" lon="2.66914">
        <ele>1476.6</ele>
        <time>2021-08-11T11:09:34Z</time>
      </trkpt>
      <trkpt lat="45.10725" lon="2.66915">
        <ele>1476.7</ele>
        <time>2021-08-11T11:09:35Z</time>
      </trkpt>
      <trkpt lat="45.10725" lon="2.66916">
        <ele>1476.8</ele>
        <time>2021-08-11T11:09:36Z</time>
      </trkpt>
      <trkpt lat="45.10725" lon="2.66916">
        <ele>1477</ele>
        <time>2021-08-11T11:09:37Z</time>
      </trkpt>
      <trkpt lat="45.10725" lon="2.66917">
        <ele>1477.1</ele>
        <time>2021-08-11T11:09:38Z</time>
      </trkpt>
      <trkpt lat="45.10726" lon="2.66918">
        <ele>1477.3</ele>
        <time>2021-08-11T11:09:39Z</time>
      </trkpt>
      <trkpt lat="45.10726" lon="2.66919">
        <ele>1477.3</ele>
        <time>2021-08-11T11:09:40Z</time>
      </trkpt>
      <trkpt lat="45.10726" lon="2.6692">
        <ele>1477.6</ele>
        <time>2021-08-11T11:09:41Z</time>
      </trkpt>
      <trkpt lat="45.10726" lon="2.6692">
        <ele>1477.9</ele>
        <time>2021-08-11T11:09:42Z</time>
      </trkpt>
      <trkpt lat="45.10726" lon="2.66921">
        <ele>1478.1</ele>
        <time>2021-08-11T11:09:43Z</time>
      </trkpt>
      <trkpt lat="45.10726" lon="2.66921">
        <ele>1478.3</ele>
        <time>2021-08-11T11:09:44Z</time>
      </trkpt>
      <trkpt lat="45.10726" lon="2.66922">
        <ele>1478.5</ele>
        <time>2021-08-11T11:09:45Z</time>
      </trkpt>
      <trkpt lat="45.10726" lon="2.66923">
        <ele>1478.6</ele>
        <time>2021-08-11T11:09:46Z</time>
      </trkpt>
      <trkpt lat="45.10726" lon="2.66923">
        <ele>1479</ele>
        <time>2021-08-11T11:09:47Z</time>
      </trkpt>
      <trkpt lat="45.10726" lon="2.66924">
        <ele>1479.3</ele>
        <time>2021-08-11T11:09:48Z</time>
      </trkpt>
      <trkpt lat="45.10726" lon="2.66925">
        <ele>1479.5</ele>
        <time>2021-08-11T11:09:49Z</time>
      </trkpt>
      <trkpt lat="45.10726" lon="2.66925">
        <ele>1479.6</ele>
        <time>2021-08-11T11:09:50Z</time>
      </trkpt>
      <trkpt lat="45.10726" lon="2.66925">
        <ele>1479.7</ele>
        <time>2021-08-11T11:09:51Z</time>
      </trkpt>
      <trkpt lat="45.10726" lon="2.66926">
        <ele>1480</ele>
        <time>2021-08-11T11:09:52Z</time>
      </trkpt>
      <trkpt lat="45.10727" lon="2.66927">
        <ele>1480.3</ele>
        <time>2021-08-11T11:09:53Z</time>
      </trkpt>
      <trkpt lat="45.10727" lon="2.66928">
        <ele>1480.3</ele>
        <time>2021-08-11T11:09:54Z</time>
      </trkpt>
      <trkpt lat="45.10727" lon="2.66928">
        <ele>1480.4</ele>
        <time>2021-08-11T11:09:55Z</time>
      </trkpt>
      <trkpt lat="45.10727" lon="2.66929">
        <ele>1480.6</ele>
        <time>2021-08-11T11:09:56Z</time>
      </trkpt>
      <trkpt lat="45.10728" lon="2.6693">
        <ele>1480.8</ele>
        <time>2021-08-11T11:09:57Z</time>
      </trkpt>
      <trkpt lat="45.10728" lon="2.66931">
        <ele>1480.9</ele>
        <time>2021-08-11T11:09:58Z</time>
      </trkpt>
      <trkpt lat="45.10728" lon="2.66931">
        <ele>1481</ele>
        <time>2021-08-11T11:09:59Z</time>
      </trkpt>
      <trkpt lat="45.10729" lon="2.66932">
        <ele>1481.1</ele>
        <time>2021-08-11T11:10:00Z</time>
      </trkpt>
      <trkpt lat="45.10729" lon="2.66933">
        <ele>1481.1</ele>
        <time>2021-08-11T11:10:01Z</time>
      </trkpt>
      <trkpt lat="45.1073" lon="2.66934">
        <ele>1481.1</ele>
        <time>2021-08-11T11:10:02Z</time>
      </trkpt>
      <trkpt lat="45.1073" lon="2.66934">
        <ele>1481</ele>
        <time>2021-08-11T11:10:03Z</time>
      </trkpt>
      <trkpt lat="45.10731" lon="2.66935">
        <ele>1481.2</ele>
        <time>2021-08-11T11:10:04Z</time>
      </trkpt>
      <trkpt lat="45.10731" lon="2.66936">
        <ele>1481.4</ele>
        <time>2021-08-11T11:10:05Z</time>
      </trkpt>
      <trkpt lat="45.10731" lon="2.66937">
        <ele>1481.6</ele>
        <time>2021-08-11T11:10:06Z</time>
      </trkpt>
      <trkpt lat="45.10731" lon="2.66937">
        <ele>1481.8</ele>
        <time>2021-08-11T11:10:07Z</time>
      </trkpt>
      <trkpt lat="45.10732" lon="2.66938">
        <ele>1482</ele>
        <time>2021-08-11T11:10:08Z</time>
      </trkpt>
      <trkpt lat="45.10732" lon="2.66939">
        <ele>1482.1</ele>
        <time>2021-08-11T11:10:09Z</time>
      </trkpt>
      <trkpt lat="45.10732" lon="2.6694">
        <ele>1482.2</ele>
        <time>2021-08-11T11:10:10Z</time>
      </trkpt>
      <trkpt lat="45.10733" lon="2.6694">
        <ele>1482.1</ele>
        <time>2021-08-11T11:10:11Z</time>
      </trkpt>
      <trkpt lat="45.10733" lon="2.6694">
        <ele>1482</ele>
        <time>2021-08-11T11:10:12Z</time>
      </trkpt>
      <trkpt lat="45.10734" lon="2.66941">
        <ele>1482</ele>
        <time>2021-08-11T11:10:13Z</time>
      </trkpt>
      <trkpt lat="45.10734" lon="2.66942">
        <ele>1482.2</ele>
        <time>2021-08-11T11:10:14Z</time>
      </trkpt>
      <trkpt lat="45.10735" lon="2.66943">
        <ele>1482.3</ele>
        <time>2021-08-11T11:10:15Z</time>
      </trkpt>
      <trkpt lat="45.10735" lon="2.66944">
        <ele>1482.5</ele>
        <time>2021-08-11T11:10:16Z</time>
      </trkpt>
      <trkpt lat="45.10735" lon="2.66945">
        <ele>1482.7</ele>
        <time>2021-08-11T11:10:17Z</time>
      </trkpt>
      <trkpt lat="45.10736" lon="2.66946">
        <ele>1483</ele>
        <time>2021-08-11T11:10:18Z</time>
      </trkpt>
      <trkpt lat="45.10736" lon="2.66947">
        <ele>1483.2</ele>
        <time>2021-08-11T11:10:19Z</time>
      </trkpt>
      <trkpt lat="45.10737" lon="2.66948">
        <ele>1483</ele>
        <time>2021-08-11T11:10:20Z</time>
      </trkpt>
      <trkpt lat="45.10737" lon="2.66948">
        <ele>1483</ele>
        <time>2021-08-11T11:10:21Z</time>
      </trkpt>
      <trkpt lat="45.10737" lon="2.66949">
        <ele>1483.1</ele>
        <time>2021-08-11T11:10:22Z</time>
      </trkpt>
      <trkpt lat="45.10738" lon="2.6695">
        <ele>1483.4</ele>
        <time>2021-08-11T11:10:23Z</time>
      </trkpt>
      <trkpt lat="45.10738" lon="2.66951">
        <ele>1483.5</ele>
        <time>2021-08-11T11:10:24Z</time>
      </trkpt>
      <trkpt lat="45.10738" lon="2.66952">
        <ele>1483.7</ele>
        <time>2021-08-11T11:10:25Z</time>
      </trkpt>
      <trkpt lat="45.10739" lon="2.66953">
        <ele>1483.9</ele>
        <time>2021-08-11T11:10:26Z</time>
      </trkpt>
      <trkpt lat="45.10739" lon="2.66953">
        <ele>1483.9</ele>
        <time>2021-08-11T11:10:27Z</time>
      </trkpt>
      <trkpt lat="45.10739" lon="2.66954">
        <ele>1484</ele>
        <time>2021-08-11T11:10:28Z</time>
      </trkpt>
      <trkpt lat="45.1074" lon="2.66955">
        <ele>1484.2</ele>
        <time>2021-08-11T11:10:29Z</time>
      </trkpt>
      <trkpt lat="45.1074" lon="2.66956">
        <ele>1484.4</ele>
        <time>2021-08-11T11:10:30Z</time>
      </trkpt>
      <trkpt lat="45.1074" lon="2.66957">
        <ele>1484.6</ele>
        <time>2021-08-11T11:10:31Z</time>
      </trkpt>
      <trkpt lat="45.1074" lon="2.66957">
        <ele>1484.6</ele>
        <time>2021-08-11T11:10:32Z</time>
      </trkpt>
      <trkpt lat="45.10741" lon="2.66957">
        <ele>1484.5</ele>
        <time>2021-08-11T11:10:33Z</time>
      </trkpt>
      <trkpt lat="45.10741" lon="2.66958">
        <ele>1484.5</ele>
        <time>2021-08-11T11:10:34Z</time>
      </trkpt>
      <trkpt lat="45.10742" lon="2.66959">
        <ele>1484.6</ele>
        <time>2021-08-11T11:10:35Z</time>
      </trkpt>
      <trkpt lat="45.10742" lon="2.66959">
        <ele>1484.5</ele>
        <time>2021-08-11T11:10:36Z</time>
      </trkpt>
      <trkpt lat="45.10742" lon="2.66959">
        <ele>1484.5</ele>
        <time>2021-08-11T11:10:37Z</time>
      </trkpt>
      <trkpt lat="45.10742" lon="2.6696">
        <ele>1484.7</ele>
        <time>2021-08-11T11:10:38Z</time>
      </trkpt>
      <trkpt lat="45.10743" lon="2.66961">
        <ele>1484.8</ele>
        <time>2021-08-11T11:10:39Z</time>
      </trkpt>
      <trkpt lat="45.10743" lon="2.66961">
        <ele>1485.1</ele>
        <time>2021-08-11T11:10:40Z</time>
      </trkpt>
      <trkpt lat="45.10743" lon="2.66962">
        <ele>1485.3</ele>
        <time>2021-08-11T11:10:41Z</time>
      </trkpt>
      <trkpt lat="45.10744" lon="2.66963">
        <ele>1485.3</ele>
        <time>2021-08-11T11:10:42Z</time>
      </trkpt>
      <trkpt lat="45.10744" lon="2.66964">
        <ele>1485.3</ele>
        <time>2021-08-11T11:10:43Z</time>
      </trkpt>
      <trkpt lat="45.10745" lon="2.66965">
        <ele>1485.3</ele>
        <time>2021-08-11T11:10:44Z</time>
      </trkpt>
      <trkpt lat="45.10745" lon="2.66965">
        <ele>1485.2</ele>
        <time>2021-08-11T11:10:45Z</time>
      </trkpt>
      <trkpt lat="45.10746" lon="2.66966">
        <ele>1485.1</ele>
        <time>2021-08-11T11:10:46Z</time>
      </trkpt>
      <trkpt lat="45.10747" lon="2.66967">
        <ele>1485.1</ele>
        <time>2021-08-11T11:10:47Z</time>
      </trkpt>
      <trkpt lat="45.10747" lon="2.66968">
        <ele>1485.1</ele>
        <time>2021-08-11T11:10:48Z</time>
      </trkpt>
      <trkpt lat="45.10748" lon="2.66968">
        <ele>1485</ele>
        <time>2021-08-11T11:10:49Z</time>
      </trkpt>
      <trkpt lat="45.10748" lon="2.66969">
        <ele>1485</ele>
        <time>2021-08-11T11:10:50Z</time>
      </trkpt>
      <trkpt lat="45.10749" lon="2.6697">
        <ele>1485</ele>
        <time>2021-08-11T11:10:51Z</time>
      </trkpt>
      <trkpt lat="45.10749" lon="2.66971">
        <ele>1485.1</ele>
        <time>2021-08-11T11:10:52Z</time>
      </trkpt>
      <trkpt lat="45.1075" lon="2.66972">
        <ele>1485.2</ele>
        <time>2021-08-11T11:10:53Z</time>
      </trkpt>
      <trkpt lat="45.1075" lon="2.66972">
        <ele>1485.3</ele>
        <time>2021-08-11T11:10:54Z</time>
      </trkpt>
      <trkpt lat="45.10751" lon="2.66973">
        <ele>1485.5</ele>
        <time>2021-08-11T11:10:55Z</time>
      </trkpt>
      <trkpt lat="45.10751" lon="2.66974">
        <ele>1485.7</ele>
        <time>2021-08-11T11:10:56Z</time>
      </trkpt>
      <trkpt lat="45.10752" lon="2.66975">
        <ele>1485.8</ele>
        <time>2021-08-11T11:10:57Z</time>
      </trkpt>
      <trkpt lat="45.10752" lon="2.66975">
        <ele>1486</ele>
        <time>2021-08-11T11:10:58Z</time>
      </trkpt>
      <trkpt lat="45.10753" lon="2.66976">
        <ele>1486.1</ele>
        <time>2021-08-11T11:10:59Z</time>
      </trkpt>
      <trkpt lat="45.10753" lon="2.66977">
        <ele>1486.5</ele>
        <time>2021-08-11T11:11:00Z</time>
      </trkpt>
      <trkpt lat="45.10753" lon="2.66978">
        <ele>1486.7</ele>
        <time>2021-08-11T11:11:01Z</time>
      </trkpt>
      <trkpt lat="45.10753" lon="2.66979">
        <ele>1486.9</ele>
        <time>2021-08-11T11:11:02Z</time>
      </trkpt>
      <trkpt lat="45.10754" lon="2.6698">
        <ele>1487.2</ele>
        <time>2021-08-11T11:11:03Z</time>
      </trkpt>
      <trkpt lat="45.10754" lon="2.6698">
        <ele>1487.5</ele>
        <time>2021-08-11T11:11:04Z</time>
      </trkpt>
      <trkpt lat="45.10754" lon="2.66981">
        <ele>1487.8</ele>
        <time>2021-08-11T11:11:05Z</time>
      </trkpt>
      <trkpt lat="45.10754" lon="2.66982">
        <ele>1488.1</ele>
        <time>2021-08-11T11:11:06Z</time>
      </trkpt>
      <trkpt lat="45.10754" lon="2.66983">
        <ele>1488.3</ele>
        <time>2021-08-11T11:11:07Z</time>
      </trkpt>
      <trkpt lat="45.10754" lon="2.66983">
        <ele>1488.5</ele>
        <time>2021-08-11T11:11:08Z</time>
      </trkpt>
      <trkpt lat="45.10754" lon="2.66984">
        <ele>1488.6</ele>
        <time>2021-08-11T11:11:09Z</time>
      </trkpt>
      <trkpt lat="45.10754" lon="2.66984">
        <ele>1488.7</ele>
        <time>2021-08-11T11:11:10Z</time>
      </trkpt>
      <trkpt lat="45.10755" lon="2.66985">
        <ele>1488.8</ele>
        <time>2021-08-11T11:11:11Z</time>
      </trkpt>
      <trkpt lat="45.10755" lon="2.66985">
        <ele>1488.8</ele>
        <time>2021-08-11T11:11:12Z</time>
      </trkpt>
      <trkpt lat="45.10756" lon="2.66986">
        <ele>1488.9</ele>
        <time>2021-08-11T11:11:13Z</time>
      </trkpt>
      <trkpt lat="45.10757" lon="2.66986">
        <ele>1488.9</ele>
        <time>2021-08-11T11:11:14Z</time>
      </trkpt>
      <trkpt lat="45.10757" lon="2.66986">
        <ele>1489</ele>
        <time>2021-08-11T11:11:15Z</time>
      </trkpt>
      <trkpt lat="45.10758" lon="2.66987">
        <ele>1489</ele>
        <time>2021-08-11T11:11:16Z</time>
      </trkpt>
      <trkpt lat="45.10758" lon="2.66987">
        <ele>1489</ele>
        <time>2021-08-11T11:11:17Z</time>
      </trkpt>
      <trkpt lat="45.10759" lon="2.66988">
        <ele>1489.1</ele>
        <time>2021-08-11T11:11:18Z</time>
      </trkpt>
      <trkpt lat="45.10759" lon="2.66988">
        <ele>1489.2</ele>
        <time>2021-08-11T11:11:19Z</time>
      </trkpt>
      <trkpt lat="45.1076" lon="2.66989">
        <ele>1489.2</ele>
        <time>2021-08-11T11:11:20Z</time>
      </trkpt>
      <trkpt lat="45.1076" lon="2.66989">
        <ele>1489.3</ele>
        <time>2021-08-11T11:11:21Z</time>
      </trkpt>
      <trkpt lat="45.10761" lon="2.6699">
        <ele>1489.5</ele>
        <time>2021-08-11T11:11:22Z</time>
      </trkpt>
      <trkpt lat="45.10761" lon="2.66991">
        <ele>1489.7</ele>
        <time>2021-08-11T11:11:23Z</time>
      </trkpt>
      <trkpt lat="45.10762" lon="2.66992">
        <ele>1489.9</ele>
        <time>2021-08-11T11:11:24Z</time>
      </trkpt>
      <trkpt lat="45.10762" lon="2.66992">
        <ele>1490.1</ele>
        <time>2021-08-11T11:11:25Z</time>
      </trkpt>
      <trkpt lat="45.10763" lon="2.66993">
        <ele>1490.1</ele>
        <time>2021-08-11T11:11:26Z</time>
      </trkpt>
      <trkpt lat="45.10763" lon="2.66992">
        <ele>1489.9</ele>
        <time>2021-08-11T11:11:27Z</time>
      </trkpt>
      <trkpt lat="45.10764" lon="2.66993">
        <ele>1489.9</ele>
        <time>2021-08-11T11:11:28Z</time>
      </trkpt>
      <trkpt lat="45.10765" lon="2.66994">
        <ele>1490</ele>
        <time>2021-08-11T11:11:29Z</time>
      </trkpt>
      <trkpt lat="45.10766" lon="2.66994">
        <ele>1490.1</ele>
        <time>2021-08-11T11:11:30Z</time>
      </trkpt>
      <trkpt lat="45.10766" lon="2.66995">
        <ele>1490.3</ele>
        <time>2021-08-11T11:11:31Z</time>
      </trkpt>
      <trkpt lat="45.10767" lon="2.66996">
        <ele>1490.5</ele>
        <time>2021-08-11T11:11:32Z</time>
      </trkpt>
      <trkpt lat="45.10767" lon="2.66996">
        <ele>1490.6</ele>
        <time>2021-08-11T11:11:33Z</time>
      </trkpt>
      <trkpt lat="45.10768" lon="2.66997">
        <ele>1490.7</ele>
        <time>2021-08-11T11:11:34Z</time>
      </trkpt>
      <trkpt lat="45.10768" lon="2.66997">
        <ele>1490.8</ele>
        <time>2021-08-11T11:11:35Z</time>
      </trkpt>
      <trkpt lat="45.10769" lon="2.66998">
        <ele>1490.9</ele>
        <time>2021-08-11T11:11:36Z</time>
      </trkpt>
      <trkpt lat="45.10769" lon="2.66999">
        <ele>1491.1</ele>
        <time>2021-08-11T11:11:37Z</time>
      </trkpt>
      <trkpt lat="45.1077" lon="2.67">
        <ele>1491.3</ele>
        <time>2021-08-11T11:11:38Z</time>
      </trkpt>
      <trkpt lat="45.1077" lon="2.67">
        <ele>1491.3</ele>
        <time>2021-08-11T11:11:39Z</time>
      </trkpt>
      <trkpt lat="45.10771" lon="2.67">
        <ele>1491.3</ele>
        <time>2021-08-11T11:11:40Z</time>
      </trkpt>
      <trkpt lat="45.10772" lon="2.67">
        <ele>1491.3</ele>
        <time>2021-08-11T11:11:41Z</time>
      </trkpt>
      <trkpt lat="45.10772" lon="2.67001">
        <ele>1491.5</ele>
        <time>2021-08-11T11:11:42Z</time>
      </trkpt>
      <trkpt lat="45.10773" lon="2.67002">
        <ele>1491.7</ele>
        <time>2021-08-11T11:11:43Z</time>
      </trkpt>
      <trkpt lat="45.10774" lon="2.67002">
        <ele>1491.8</ele>
        <time>2021-08-11T11:11:44Z</time>
      </trkpt>
      <trkpt lat="45.10774" lon="2.67002">
        <ele>1491.8</ele>
        <time>2021-08-11T11:11:45Z</time>
      </trkpt>
      <trkpt lat="45.10774" lon="2.67002">
        <ele>1491.9</ele>
        <time>2021-08-11T11:11:46Z</time>
      </trkpt>
      <trkpt lat="45.10774" lon="2.67002">
        <ele>1491.9</ele>
        <time>2021-08-11T11:11:47Z</time>
      </trkpt>
      <trkpt lat="45.10775" lon="2.67002">
        <ele>1491.8</ele>
        <time>2021-08-11T11:11:48Z</time>
      </trkpt>
      <trkpt lat="45.10775" lon="2.67002">
        <ele>1491.7</ele>
        <time>2021-08-11T11:11:49Z</time>
      </trkpt>
      <trkpt lat="45.10776" lon="2.67003">
        <ele>1491.7</ele>
        <time>2021-08-11T11:11:50Z</time>
      </trkpt>
      <trkpt lat="45.10776" lon="2.67003">
        <ele>1491.8</ele>
        <time>2021-08-11T11:11:51Z</time>
      </trkpt>
      <trkpt lat="45.10777" lon="2.67003">
        <ele>1491.6</ele>
        <time>2021-08-11T11:11:52Z</time>
      </trkpt>
      <trkpt lat="45.10778" lon="2.67002">
        <ele>1491.3</ele>
        <time>2021-08-11T11:11:53Z</time>
      </trkpt>
      <trkpt lat="45.10778" lon="2.67002">
        <ele>1491.1</ele>
        <time>2021-08-11T11:11:54Z</time>
      </trkpt>
      <trkpt lat="45.10779" lon="2.67002">
        <ele>1490.8</ele>
        <time>2021-08-11T11:11:55Z</time>
      </trkpt>
      <trkpt lat="45.1078" lon="2.67002">
        <ele>1490.6</ele>
        <time>2021-08-11T11:11:56Z</time>
      </trkpt>
      <trkpt lat="45.1078" lon="2.67002">
        <ele>1490.4</ele>
        <time>2021-08-11T11:11:57Z</time>
      </trkpt>
      <trkpt lat="45.10781" lon="2.67002">
        <ele>1490.4</ele>
        <time>2021-08-11T11:11:58Z</time>
      </trkpt>
      <trkpt lat="45.10781" lon="2.67002">
        <ele>1490.3</ele>
        <time>2021-08-11T11:11:59Z</time>
      </trkpt>
      <trkpt lat="45.10782" lon="2.67002">
        <ele>1490.2</ele>
        <time>2021-08-11T11:12:00Z</time>
      </trkpt>
      <trkpt lat="45.10783" lon="2.67001">
        <ele>1489.8</ele>
        <time>2021-08-11T11:12:01Z</time>
      </trkpt>
      <trkpt lat="45.10783" lon="2.67001">
        <ele>1489.5</ele>
        <time>2021-08-11T11:12:02Z</time>
      </trkpt>
      <trkpt lat="45.10784" lon="2.67001">
        <ele>1489.2</ele>
        <time>2021-08-11T11:12:03Z</time>
      </trkpt>
      <trkpt lat="45.10784" lon="2.67">
        <ele>1489</ele>
        <time>2021-08-11T11:12:04Z</time>
      </trkpt>
      <trkpt lat="45.10785" lon="2.67">
        <ele>1488.9</ele>
        <time>2021-08-11T11:12:05Z</time>
      </trkpt>
      <trkpt lat="45.10785" lon="2.67">
        <ele>1488.8</ele>
        <time>2021-08-11T11:12:06Z</time>
      </trkpt>
      <trkpt lat="45.10786" lon="2.67001">
        <ele>1488.9</ele>
        <time>2021-08-11T11:12:07Z</time>
      </trkpt>
      <trkpt lat="45.10787" lon="2.67001">
        <ele>1488.9</ele>
        <time>2021-08-11T11:12:08Z</time>
      </trkpt>
      <trkpt lat="45.10788" lon="2.67001">
        <ele>1488.8</ele>
        <time>2021-08-11T11:12:09Z</time>
      </trkpt>
      <trkpt lat="45.10788" lon="2.67001">
        <ele>1488.9</ele>
        <time>2021-08-11T11:12:10Z</time>
      </trkpt>
      <trkpt lat="45.10789" lon="2.67002">
        <ele>1488.9</ele>
        <time>2021-08-11T11:12:11Z</time>
      </trkpt>
      <trkpt lat="45.10789" lon="2.67002">
        <ele>1488.7</ele>
        <time>2021-08-11T11:12:12Z</time>
      </trkpt>
      <trkpt lat="45.1079" lon="2.67001">
        <ele>1488.5</ele>
        <time>2021-08-11T11:12:13Z</time>
      </trkpt>
      <trkpt lat="45.10791" lon="2.67001">
        <ele>1488.4</ele>
        <time>2021-08-11T11:12:14Z</time>
      </trkpt>
      <trkpt lat="45.10792" lon="2.67002">
        <ele>1488.4</ele>
        <time>2021-08-11T11:12:15Z</time>
      </trkpt>
      <trkpt lat="45.10793" lon="2.67002">
        <ele>1488.2</ele>
        <time>2021-08-11T11:12:16Z</time>
      </trkpt>
      <trkpt lat="45.10794" lon="2.67002">
        <ele>1488.2</ele>
        <time>2021-08-11T11:12:17Z</time>
      </trkpt>
      <trkpt lat="45.10795" lon="2.67003">
        <ele>1488.4</ele>
        <time>2021-08-11T11:12:18Z</time>
      </trkpt>
      <trkpt lat="45.10796" lon="2.67004">
        <ele>1488.8</ele>
        <time>2021-08-11T11:12:19Z</time>
      </trkpt>
      <trkpt lat="45.10797" lon="2.67005">
        <ele>1489.2</ele>
        <time>2021-08-11T11:12:20Z</time>
      </trkpt>
      <trkpt lat="45.10798" lon="2.67006">
        <ele>1489.4</ele>
        <time>2021-08-11T11:12:21Z</time>
      </trkpt>
      <trkpt lat="45.10799" lon="2.67006">
        <ele>1489.6</ele>
        <time>2021-08-11T11:12:22Z</time>
      </trkpt>
      <trkpt lat="45.108" lon="2.67007">
        <ele>1489.7</ele>
        <time>2021-08-11T11:12:23Z</time>
      </trkpt>
      <trkpt lat="45.108" lon="2.67007">
        <ele>1489.7</ele>
        <time>2021-08-11T11:12:24Z</time>
      </trkpt>
      <trkpt lat="45.10801" lon="2.67007">
        <ele>1489.7</ele>
        <time>2021-08-11T11:12:25Z</time>
      </trkpt>
      <trkpt lat="45.10803" lon="2.67007">
        <ele>1489.5</ele>
        <time>2021-08-11T11:12:26Z</time>
      </trkpt>
      <trkpt lat="45.10804" lon="2.67008">
        <ele>1489.5</ele>
        <time>2021-08-11T11:12:27Z</time>
      </trkpt>
      <trkpt lat="45.10804" lon="2.67008">
        <ele>1489.5</ele>
        <time>2021-08-11T11:12:28Z</time>
      </trkpt>
      <trkpt lat="45.10805" lon="2.67009">
        <ele>1489.7</ele>
        <time>2021-08-11T11:12:29Z</time>
      </trkpt>
      <trkpt lat="45.10806" lon="2.67009">
        <ele>1489.8</ele>
        <time>2021-08-11T11:12:30Z</time>
      </trkpt>
      <trkpt lat="45.10807" lon="2.6701">
        <ele>1490.2</ele>
        <time>2021-08-11T11:12:31Z</time>
      </trkpt>
      <trkpt lat="45.10808" lon="2.67011">
        <ele>1490.5</ele>
        <time>2021-08-11T11:12:32Z</time>
      </trkpt>
      <trkpt lat="45.10808" lon="2.67011">
        <ele>1490.6</ele>
        <time>2021-08-11T11:12:33Z</time>
      </trkpt>
      <trkpt lat="45.10809" lon="2.67012">
        <ele>1491</ele>
        <time>2021-08-11T11:12:34Z</time>
      </trkpt>
      <trkpt lat="45.1081" lon="2.67013">
        <ele>1491.3</ele>
        <time>2021-08-11T11:12:35Z</time>
      </trkpt>
      <trkpt lat="45.1081" lon="2.67014">
        <ele>1491.6</ele>
        <time>2021-08-11T11:12:36Z</time>
      </trkpt>
      <trkpt lat="45.10811" lon="2.67014">
        <ele>1491.6</ele>
        <time>2021-08-11T11:12:37Z</time>
      </trkpt>
      <trkpt lat="45.10812" lon="2.67015">
        <ele>1491.8</ele>
        <time>2021-08-11T11:12:38Z</time>
      </trkpt>
      <trkpt lat="45.10812" lon="2.67015">
        <ele>1491.8</ele>
        <time>2021-08-11T11:12:39Z</time>
      </trkpt>
      <trkpt lat="45.10813" lon="2.67016">
        <ele>1492</ele>
        <time>2021-08-11T11:12:40Z</time>
      </trkpt>
      <trkpt lat="45.10814" lon="2.67017">
        <ele>1492.3</ele>
        <time>2021-08-11T11:12:41Z</time>
      </trkpt>
      <trkpt lat="45.10815" lon="2.67017">
        <ele>1492.5</ele>
        <time>2021-08-11T11:12:42Z</time>
      </trkpt>
      <trkpt lat="45.10816" lon="2.67018">
        <ele>1492.5</ele>
        <time>2021-08-11T11:12:43Z</time>
      </trkpt>
      <trkpt lat="45.10817" lon="2.67018">
        <ele>1492.7</ele>
        <time>2021-08-11T11:12:44Z</time>
      </trkpt>
      <trkpt lat="45.10817" lon="2.67019">
        <ele>1492.7</ele>
        <time>2021-08-11T11:12:45Z</time>
      </trkpt>
      <trkpt lat="45.10818" lon="2.67019">
        <ele>1492.8</ele>
        <time>2021-08-11T11:12:46Z</time>
      </trkpt>
      <trkpt lat="45.10819" lon="2.6702">
        <ele>1493</ele>
        <time>2021-08-11T11:12:47Z</time>
      </trkpt>
      <trkpt lat="45.1082" lon="2.6702">
        <ele>1492.9</ele>
        <time>2021-08-11T11:12:48Z</time>
      </trkpt>
      <trkpt lat="45.1082" lon="2.67019">
        <ele>1492.6</ele>
        <time>2021-08-11T11:12:49Z</time>
      </trkpt>
      <trkpt lat="45.10821" lon="2.67019">
        <ele>1492.2</ele>
        <time>2021-08-11T11:12:50Z</time>
      </trkpt>
      <trkpt lat="45.10822" lon="2.67019">
        <ele>1492</ele>
        <time>2021-08-11T11:12:51Z</time>
      </trkpt>
      <trkpt lat="45.10823" lon="2.67018">
        <ele>1491.7</ele>
        <time>2021-08-11T11:12:52Z</time>
      </trkpt>
      <trkpt lat="45.10823" lon="2.67018">
        <ele>1491.5</ele>
        <time>2021-08-11T11:12:53Z</time>
      </trkpt>
      <trkpt lat="45.10824" lon="2.67018">
        <ele>1491.3</ele>
        <time>2021-08-11T11:12:54Z</time>
      </trkpt>
      <trkpt lat="45.10825" lon="2.67019">
        <ele>1491.3</ele>
        <time>2021-08-11T11:12:55Z</time>
      </trkpt>
      <trkpt lat="45.10826" lon="2.67019">
        <ele>1491.3</ele>
        <time>2021-08-11T11:12:56Z</time>
      </trkpt>
      <trkpt lat="45.10827" lon="2.67019">
        <ele>1491.4</ele>
        <time>2021-08-11T11:12:57Z</time>
      </trkpt>
      <trkpt lat="45.10827" lon="2.6702">
        <ele>1491.6</ele>
        <time>2021-08-11T11:12:58Z</time>
      </trkpt>
      <trkpt lat="45.10828" lon="2.67021">
        <ele>1492</ele>
        <time>2021-08-11T11:12:59Z</time>
      </trkpt>
      <trkpt lat="45.10828" lon="2.67021">
        <ele>1492.1</ele>
        <time>2021-08-11T11:13:00Z</time>
      </trkpt>
      <trkpt lat="45.10829" lon="2.67021">
        <ele>1492</ele>
        <time>2021-08-11T11:13:01Z</time>
      </trkpt>
      <trkpt lat="45.1083" lon="2.67021">
        <ele>1491.9</ele>
        <time>2021-08-11T11:13:02Z</time>
      </trkpt>
      <trkpt lat="45.1083" lon="2.67021">
        <ele>1491.6</ele>
        <time>2021-08-11T11:13:03Z</time>
      </trkpt>
      <trkpt lat="45.10831" lon="2.67021">
        <ele>1491.5</ele>
        <time>2021-08-11T11:13:04Z</time>
      </trkpt>
      <trkpt lat="45.10832" lon="2.67021">
        <ele>1491.5</ele>
        <time>2021-08-11T11:13:05Z</time>
      </trkpt>
      <trkpt lat="45.10833" lon="2.67022">
        <ele>1491.6</ele>
        <time>2021-08-11T11:13:06Z</time>
      </trkpt>
      <trkpt lat="45.10834" lon="2.67023">
        <ele>1491.8</ele>
        <time>2021-08-11T11:13:07Z</time>
      </trkpt>
      <trkpt lat="45.10834" lon="2.67023">
        <ele>1492</ele>
        <time>2021-08-11T11:13:08Z</time>
      </trkpt>
      <trkpt lat="45.10835" lon="2.67024">
        <ele>1492.3</ele>
        <time>2021-08-11T11:13:09Z</time>
      </trkpt>
      <trkpt lat="45.10836" lon="2.67024">
        <ele>1492.3</ele>
        <time>2021-08-11T11:13:10Z</time>
      </trkpt>
      <trkpt lat="45.10836" lon="2.67024">
        <ele>1492.4</ele>
        <time>2021-08-11T11:13:11Z</time>
      </trkpt>
      <trkpt lat="45.10837" lon="2.67024">
        <ele>1492.3</ele>
        <time>2021-08-11T11:13:12Z</time>
      </trkpt>
      <trkpt lat="45.10838" lon="2.67024">
        <ele>1492.2</ele>
        <time>2021-08-11T11:13:13Z</time>
      </trkpt>
      <trkpt lat="45.10839" lon="2.67024">
        <ele>1492.1</ele>
        <time>2021-08-11T11:13:14Z</time>
      </trkpt>
      <trkpt lat="45.1084" lon="2.67024">
        <ele>1492.1</ele>
        <time>2021-08-11T11:13:15Z</time>
      </trkpt>
      <trkpt lat="45.10841" lon="2.67025">
        <ele>1492.2</ele>
        <time>2021-08-11T11:13:16Z</time>
      </trkpt>
      <trkpt lat="45.10842" lon="2.67025">
        <ele>1492.4</ele>
        <time>2021-08-11T11:13:17Z</time>
      </trkpt>
      <trkpt lat="45.10842" lon="2.67026">
        <ele>1492.7</ele>
        <time>2021-08-11T11:13:18Z</time>
      </trkpt>
      <trkpt lat="45.10843" lon="2.67027">
        <ele>1493</ele>
        <time>2021-08-11T11:13:19Z</time>
      </trkpt>
      <trkpt lat="45.10844" lon="2.67027">
        <ele>1493.2</ele>
        <time>2021-08-11T11:13:20Z</time>
      </trkpt>
      <trkpt lat="45.10845" lon="2.67028">
        <ele>1493.6</ele>
        <time>2021-08-11T11:13:21Z</time>
      </trkpt>
      <trkpt lat="45.10846" lon="2.67029">
        <ele>1494</ele>
        <time>2021-08-11T11:13:22Z</time>
      </trkpt>
      <trkpt lat="45.10846" lon="2.6703">
        <ele>1494.3</ele>
        <time>2021-08-11T11:13:23Z</time>
      </trkpt>
      <trkpt lat="45.10847" lon="2.67031">
        <ele>1494.7</ele>
        <time>2021-08-11T11:13:24Z</time>
      </trkpt>
      <trkpt lat="45.10847" lon="2.67032">
        <ele>1495</ele>
        <time>2021-08-11T11:13:25Z</time>
      </trkpt>
      <trkpt lat="45.10848" lon="2.67032">
        <ele>1495.4</ele>
        <time>2021-08-11T11:13:26Z</time>
      </trkpt>
      <trkpt lat="45.10849" lon="2.67033">
        <ele>1495.6</ele>
        <time>2021-08-11T11:13:27Z</time>
      </trkpt>
      <trkpt lat="45.10849" lon="2.67033">
        <ele>1495.7</ele>
        <time>2021-08-11T11:13:28Z</time>
      </trkpt>
      <trkpt lat="45.1085" lon="2.67033">
        <ele>1495.6</ele>
        <time>2021-08-11T11:13:29Z</time>
      </trkpt>
      <trkpt lat="45.10851" lon="2.67034">
        <ele>1495.7</ele>
        <time>2021-08-11T11:13:30Z</time>
      </trkpt>
      <trkpt lat="45.10852" lon="2.67034">
        <ele>1495.8</ele>
        <time>2021-08-11T11:13:31Z</time>
      </trkpt>
      <trkpt lat="45.10852" lon="2.67034">
        <ele>1495.9</ele>
        <time>2021-08-11T11:13:32Z</time>
      </trkpt>
      <trkpt lat="45.10853" lon="2.67035">
        <ele>1496.1</ele>
        <time>2021-08-11T11:13:33Z</time>
      </trkpt>
      <trkpt lat="45.10854" lon="2.67036">
        <ele>1496.3</ele>
        <time>2021-08-11T11:13:34Z</time>
      </trkpt>
      <trkpt lat="45.10854" lon="2.67036">
        <ele>1496.3</ele>
        <time>2021-08-11T11:13:35Z</time>
      </trkpt>
      <trkpt lat="45.10854" lon="2.67036">
        <ele>1496.3</ele>
        <time>2021-08-11T11:13:36Z</time>
      </trkpt>
      <trkpt lat="45.10855" lon="2.67036">
        <ele>1496.3</ele>
        <time>2021-08-11T11:13:37Z</time>
      </trkpt>
      <trkpt lat="45.10855" lon="2.67036">
        <ele>1496.3</ele>
        <time>2021-08-11T11:13:38Z</time>
      </trkpt>
      <trkpt lat="45.10856" lon="2.67036">
        <ele>1496.3</ele>
        <time>2021-08-11T11:13:39Z</time>
      </trkpt>
      <trkpt lat="45.10856" lon="2.67036">
        <ele>1496.3</ele>
        <time>2021-08-11T11:13:40Z</time>
      </trkpt>
      <trkpt lat="45.10857" lon="2.67036">
        <ele>1496.4</ele>
        <time>2021-08-11T11:13:41Z</time>
      </trkpt>
      <trkpt lat="45.10857" lon="2.67037">
        <ele>1496.5</ele>
        <time>2021-08-11T11:13:42Z</time>
      </trkpt>
      <trkpt lat="45.10858" lon="2.67038">
        <ele>1496.9</ele>
        <time>2021-08-11T11:13:43Z</time>
      </trkpt>
      <trkpt lat="45.10859" lon="2.67038">
        <ele>1497.2</ele>
        <time>2021-08-11T11:13:44Z</time>
      </trkpt>
      <trkpt lat="45.10859" lon="2.67039">
        <ele>1497.6</ele>
        <time>2021-08-11T11:13:45Z</time>
      </trkpt>
      <trkpt lat="45.10859" lon="2.6704">
        <ele>1498</ele>
        <time>2021-08-11T11:13:46Z</time>
      </trkpt>
      <trkpt lat="45.10859" lon="2.6704">
        <ele>1498.2</ele>
        <time>2021-08-11T11:13:47Z</time>
      </trkpt>
      <trkpt lat="45.10859" lon="2.67041">
        <ele>1498.5</ele>
        <time>2021-08-11T11:13:48Z</time>
      </trkpt>
      <trkpt lat="45.1086" lon="2.67041">
        <ele>1498.6</ele>
        <time>2021-08-11T11:13:49Z</time>
      </trkpt>
      <trkpt lat="45.10861" lon="2.67042">
        <ele>1498.8</ele>
        <time>2021-08-11T11:13:50Z</time>
      </trkpt>
      <trkpt lat="45.10861" lon="2.67043">
        <ele>1499.1</ele>
        <time>2021-08-11T11:13:51Z</time>
      </trkpt>
      <trkpt lat="45.10862" lon="2.67043">
        <ele>1499.2</ele>
        <time>2021-08-11T11:13:52Z</time>
      </trkpt>
      <trkpt lat="45.10863" lon="2.67043">
        <ele>1499.3</ele>
        <time>2021-08-11T11:13:53Z</time>
      </trkpt>
      <trkpt lat="45.10863" lon="2.67044">
        <ele>1499.5</ele>
        <time>2021-08-11T11:13:54Z</time>
      </trkpt>
      <trkpt lat="45.10864" lon="2.67044">
        <ele>1499.4</ele>
        <time>2021-08-11T11:13:55Z</time>
      </trkpt>
      <trkpt lat="45.10864" lon="2.67044">
        <ele>1499.4</ele>
        <time>2021-08-11T11:13:56Z</time>
      </trkpt>
      <trkpt lat="45.10865" lon="2.67044">
        <ele>1499.2</ele>
        <time>2021-08-11T11:13:57Z</time>
      </trkpt>
      <trkpt lat="45.10866" lon="2.67044">
        <ele>1499.1</ele>
        <time>2021-08-11T11:13:58Z</time>
      </trkpt>
      <trkpt lat="45.10867" lon="2.67043">
        <ele>1498.9</ele>
        <time>2021-08-11T11:13:59Z</time>
      </trkpt>
      <trkpt lat="45.10867" lon="2.67043">
        <ele>1498.7</ele>
        <time>2021-08-11T11:14:00Z</time>
      </trkpt>
      <trkpt lat="45.10867" lon="2.67043">
        <ele>1498.4</ele>
        <time>2021-08-11T11:14:01Z</time>
      </trkpt>
      <trkpt lat="45.10868" lon="2.67042">
        <ele>1498.2</ele>
        <time>2021-08-11T11:14:02Z</time>
      </trkpt>
      <trkpt lat="45.10868" lon="2.67042">
        <ele>1498</ele>
        <time>2021-08-11T11:14:03Z</time>
      </trkpt>
      <trkpt lat="45.10868" lon="2.67042">
        <ele>1498</ele>
        <time>2021-08-11T11:14:04Z</time>
      </trkpt>
      <trkpt lat="45.10869" lon="2.67042">
        <ele>1497.7</ele>
        <time>2021-08-11T11:14:05Z</time>
      </trkpt>
      <trkpt lat="45.10869" lon="2.67041">
        <ele>1497.2</ele>
        <time>2021-08-11T11:14:06Z</time>
      </trkpt>
      <trkpt lat="45.1087" lon="2.6704">
        <ele>1496.9</ele>
        <time>2021-08-11T11:14:07Z</time>
      </trkpt>
      <trkpt lat="45.1087" lon="2.6704">
        <ele>1496.7</ele>
        <time>2021-08-11T11:14:08Z</time>
      </trkpt>
      <trkpt lat="45.10871" lon="2.6704">
        <ele>1496.6</ele>
        <time>2021-08-11T11:14:09Z</time>
      </trkpt>
      <trkpt lat="45.10872" lon="2.6704">
        <ele>1496.6</ele>
        <time>2021-08-11T11:14:10Z</time>
      </trkpt>
      <trkpt lat="45.10873" lon="2.67041">
        <ele>1496.9</ele>
        <time>2021-08-11T11:14:11Z</time>
      </trkpt>
      <trkpt lat="45.10873" lon="2.67041">
        <ele>1496.9</ele>
        <time>2021-08-11T11:14:12Z</time>
      </trkpt>
      <trkpt lat="45.10873" lon="2.67041">
        <ele>1497</ele>
        <time>2021-08-11T11:14:13Z</time>
      </trkpt>
      <trkpt lat="45.10874" lon="2.67042">
        <ele>1497.2</ele>
        <time>2021-08-11T11:14:14Z</time>
      </trkpt>
      <trkpt lat="45.10874" lon="2.67042">
        <ele>1497.3</ele>
        <time>2021-08-11T11:14:15Z</time>
      </trkpt>
      <trkpt lat="45.10875" lon="2.67042">
        <ele>1497.1</ele>
        <time>2021-08-11T11:14:16Z</time>
      </trkpt>
      <trkpt lat="45.10876" lon="2.67042">
        <ele>1496.9</ele>
        <time>2021-08-11T11:14:17Z</time>
      </trkpt>
      <trkpt lat="45.10876" lon="2.67041">
        <ele>1496.7</ele>
        <time>2021-08-11T11:14:18Z</time>
      </trkpt>
      <trkpt lat="45.10877" lon="2.67041">
        <ele>1496.6</ele>
        <time>2021-08-11T11:14:19Z</time>
      </trkpt>
      <trkpt lat="45.10877" lon="2.67041">
        <ele>1496.5</ele>
        <time>2021-08-11T11:14:20Z</time>
      </trkpt>
      <trkpt lat="45.10878" lon="2.67042">
        <ele>1496.7</ele>
        <time>2021-08-11T11:14:21Z</time>
      </trkpt>
      <trkpt lat="45.10879" lon="2.67043">
        <ele>1497</ele>
        <time>2021-08-11T11:14:22Z</time>
      </trkpt>
      <trkpt lat="45.10879" lon="2.67043">
        <ele>1497.3</ele>
        <time>2021-08-11T11:14:23Z</time>
      </trkpt>
      <trkpt lat="45.1088" lon="2.67043">
        <ele>1497.3</ele>
        <time>2021-08-11T11:14:24Z</time>
      </trkpt>
      <trkpt lat="45.10881" lon="2.67043">
        <ele>1497.1</ele>
        <time>2021-08-11T11:14:25Z</time>
      </trkpt>
      <trkpt lat="45.10881" lon="2.67043">
        <ele>1496.9</ele>
        <time>2021-08-11T11:14:26Z</time>
      </trkpt>
      <trkpt lat="45.10882" lon="2.67043">
        <ele>1496.5</ele>
        <time>2021-08-11T11:14:27Z</time>
      </trkpt>
      <trkpt lat="45.10883" lon="2.67042">
        <ele>1496.3</ele>
        <time>2021-08-11T11:14:28Z</time>
      </trkpt>
      <trkpt lat="45.10884" lon="2.67043">
        <ele>1496.3</ele>
        <time>2021-08-11T11:14:29Z</time>
      </trkpt>
      <trkpt lat="45.10885" lon="2.67043">
        <ele>1496.2</ele>
        <time>2021-08-11T11:14:30Z</time>
      </trkpt>
      <trkpt lat="45.10886" lon="2.67043">
        <ele>1496.1</ele>
        <time>2021-08-11T11:14:31Z</time>
      </trkpt>
      <trkpt lat="45.10886" lon="2.67042">
        <ele>1495.9</ele>
        <time>2021-08-11T11:14:32Z</time>
      </trkpt>
      <trkpt lat="45.10887" lon="2.67042">
        <ele>1495.7</ele>
        <time>2021-08-11T11:14:33Z</time>
      </trkpt>
      <trkpt lat="45.10888" lon="2.67042">
        <ele>1495.6</ele>
        <time>2021-08-11T11:14:34Z</time>
      </trkpt>
      <trkpt lat="45.10889" lon="2.67042">
        <ele>1495.6</ele>
        <time>2021-08-11T11:14:35Z</time>
      </trkpt>
      <trkpt lat="45.1089" lon="2.67043">
        <ele>1495.8</ele>
        <time>2021-08-11T11:14:36Z</time>
      </trkpt>
      <trkpt lat="45.1089" lon="2.67043">
        <ele>1495.9</ele>
        <time>2021-08-11T11:14:37Z</time>
      </trkpt>
      <trkpt lat="45.10891" lon="2.67043">
        <ele>1496</ele>
        <time>2021-08-11T11:14:38Z</time>
      </trkpt>
      <trkpt lat="45.10892" lon="2.67044">
        <ele>1496</ele>
        <time>2021-08-11T11:14:39Z</time>
      </trkpt>
      <trkpt lat="45.10892" lon="2.67044">
        <ele>1496</ele>
        <time>2021-08-11T11:14:40Z</time>
      </trkpt>
      <trkpt lat="45.10893" lon="2.67044">
        <ele>1495.9</ele>
        <time>2021-08-11T11:14:41Z</time>
      </trkpt>
      <trkpt lat="45.10893" lon="2.67044">
        <ele>1495.8</ele>
        <time>2021-08-11T11:14:42Z</time>
      </trkpt>
      <trkpt lat="45.10894" lon="2.67044">
        <ele>1495.7</ele>
        <time>2021-08-11T11:14:43Z</time>
      </trkpt>
      <trkpt lat="45.10895" lon="2.67044">
        <ele>1495.8</ele>
        <time>2021-08-11T11:14:44Z</time>
      </trkpt>
      <trkpt lat="45.10896" lon="2.67045">
        <ele>1495.9</ele>
        <time>2021-08-11T11:14:45Z</time>
      </trkpt>
      <trkpt lat="45.10897" lon="2.67045">
        <ele>1496.2</ele>
        <time>2021-08-11T11:14:46Z</time>
      </trkpt>
      <trkpt lat="45.10898" lon="2.67046">
        <ele>1496.5</ele>
        <time>2021-08-11T11:14:47Z</time>
      </trkpt>
      <trkpt lat="45.10898" lon="2.67046">
        <ele>1496.5</ele>
        <time>2021-08-11T11:14:48Z</time>
      </trkpt>
      <trkpt lat="45.10899" lon="2.67046">
        <ele>1496.6</ele>
        <time>2021-08-11T11:14:49Z</time>
      </trkpt>
      <trkpt lat="45.10899" lon="2.67047">
        <ele>1496.6</ele>
        <time>2021-08-11T11:14:50Z</time>
      </trkpt>
      <trkpt lat="45.109" lon="2.67047">
        <ele>1496.5</ele>
        <time>2021-08-11T11:14:51Z</time>
      </trkpt>
      <trkpt lat="45.10901" lon="2.67047">
        <ele>1496.6</ele>
        <time>2021-08-11T11:14:52Z</time>
      </trkpt>
      <trkpt lat="45.10901" lon="2.67047">
        <ele>1496.7</ele>
        <time>2021-08-11T11:14:53Z</time>
      </trkpt>
      <trkpt lat="45.10902" lon="2.67048">
        <ele>1496.8</ele>
        <time>2021-08-11T11:14:54Z</time>
      </trkpt>
      <trkpt lat="45.10902" lon="2.67048">
        <ele>1496.9</ele>
        <time>2021-08-11T11:14:55Z</time>
      </trkpt>
      <trkpt lat="45.10903" lon="2.67048">
        <ele>1497</ele>
        <time>2021-08-11T11:14:56Z</time>
      </trkpt>
      <trkpt lat="45.10903" lon="2.67049">
        <ele>1497.2</ele>
        <time>2021-08-11T11:14:57Z</time>
      </trkpt>
      <trkpt lat="45.10904" lon="2.67049">
        <ele>1497.3</ele>
        <time>2021-08-11T11:14:58Z</time>
      </trkpt>
      <trkpt lat="45.10904" lon="2.6705">
        <ele>1497.6</ele>
        <time>2021-08-11T11:14:59Z</time>
      </trkpt>
      <trkpt lat="45.10904" lon="2.6705">
        <ele>1497.6</ele>
        <time>2021-08-11T11:15:00Z</time>
      </trkpt>
      <trkpt lat="45.10905" lon="2.6705">
        <ele>1497.7</ele>
        <time>2021-08-11T11:15:01Z</time>
      </trkpt>
      <trkpt lat="45.10905" lon="2.67051">
        <ele>1497.9</ele>
        <time>2021-08-11T11:15:02Z</time>
      </trkpt>
      <trkpt lat="45.10906" lon="2.67051">
        <ele>1497.8</ele>
        <time>2021-08-11T11:15:03Z</time>
      </trkpt>
      <trkpt lat="45.10906" lon="2.67051">
        <ele>1497.8</ele>
        <time>2021-08-11T11:15:04Z</time>
      </trkpt>
      <trkpt lat="45.10907" lon="2.67051">
        <ele>1497.8</ele>
        <time>2021-08-11T11:15:05Z</time>
      </trkpt>
      <trkpt lat="45.10908" lon="2.67051">
        <ele>1497.6</ele>
        <time>2021-08-11T11:15:06Z</time>
      </trkpt>
      <trkpt lat="45.10908" lon="2.67051">
        <ele>1497.5</ele>
        <time>2021-08-11T11:15:07Z</time>
      </trkpt>
      <trkpt lat="45.10909" lon="2.67051">
        <ele>1497.4</ele>
        <time>2021-08-11T11:15:08Z</time>
      </trkpt>
      <trkpt lat="45.1091" lon="2.67051">
        <ele>1497.3</ele>
        <time>2021-08-11T11:15:09Z</time>
      </trkpt>
      <trkpt lat="45.1091" lon="2.67051">
        <ele>1497.4</ele>
        <time>2021-08-11T11:15:10Z</time>
      </trkpt>
      <trkpt lat="45.10911" lon="2.67051">
        <ele>1497.4</ele>
        <time>2021-08-11T11:15:11Z</time>
      </trkpt>
      <trkpt lat="45.10911" lon="2.67051">
        <ele>1497.5</ele>
        <time>2021-08-11T11:15:12Z</time>
      </trkpt>
      <trkpt lat="45.10912" lon="2.67052">
        <ele>1497.8</ele>
        <time>2021-08-11T11:15:13Z</time>
      </trkpt>
      <trkpt lat="45.10912" lon="2.67053">
        <ele>1498</ele>
        <time>2021-08-11T11:15:14Z</time>
      </trkpt>
      <trkpt lat="45.10913" lon="2.67053">
        <ele>1497.9</ele>
        <time>2021-08-11T11:15:15Z</time>
      </trkpt>
      <trkpt lat="45.10913" lon="2.67053">
        <ele>1498.1</ele>
        <time>2021-08-11T11:15:16Z</time>
      </trkpt>
      <trkpt lat="45.10914" lon="2.67053">
        <ele>1498.2</ele>
        <time>2021-08-11T11:15:17Z</time>
      </trkpt>
      <trkpt lat="45.10914" lon="2.67054">
        <ele>1498.4</ele>
        <time>2021-08-11T11:15:18Z</time>
      </trkpt>
      <trkpt lat="45.10914" lon="2.67054">
        <ele>1498.4</ele>
        <time>2021-08-11T11:15:19Z</time>
      </trkpt>
      <trkpt lat="45.10915" lon="2.67054">
        <ele>1498.5</ele>
        <time>2021-08-11T11:15:20Z</time>
      </trkpt>
      <trkpt lat="45.10915" lon="2.67054">
        <ele>1498.4</ele>
        <time>2021-08-11T11:15:21Z</time>
      </trkpt>
      <trkpt lat="45.10915" lon="2.67054">
        <ele>1498.3</ele>
        <time>2021-08-11T11:15:22Z</time>
      </trkpt>
      <trkpt lat="45.10916" lon="2.67054">
        <ele>1498.2</ele>
        <time>2021-08-11T11:15:23Z</time>
      </trkpt>
      <trkpt lat="45.10916" lon="2.67053">
        <ele>1497.8</ele>
        <time>2021-08-11T11:15:24Z</time>
      </trkpt>
      <trkpt lat="45.10917" lon="2.67053">
        <ele>1497.5</ele>
        <time>2021-08-11T11:15:25Z</time>
      </trkpt>
      <trkpt lat="45.10918" lon="2.67052">
        <ele>1497.3</ele>
        <time>2021-08-11T11:15:26Z</time>
      </trkpt>
      <trkpt lat="45.10918" lon="2.67052">
        <ele>1497.2</ele>
        <time>2021-08-11T11:15:27Z</time>
      </trkpt>
      <trkpt lat="45.10919" lon="2.67052">
        <ele>1497.1</ele>
        <time>2021-08-11T11:15:28Z</time>
      </trkpt>
      <trkpt lat="45.1092" lon="2.67052">
        <ele>1497</ele>
        <time>2021-08-11T11:15:29Z</time>
      </trkpt>
      <trkpt lat="45.10921" lon="2.67052">
        <ele>1497.3</ele>
        <time>2021-08-11T11:15:30Z</time>
      </trkpt>
      <trkpt lat="45.10922" lon="2.67053">
        <ele>1497.5</ele>
        <time>2021-08-11T11:15:31Z</time>
      </trkpt>
      <trkpt lat="45.10923" lon="2.67053">
        <ele>1497.6</ele>
        <time>2021-08-11T11:15:32Z</time>
      </trkpt>
      <trkpt lat="45.10923" lon="2.67054">
        <ele>1498</ele>
        <time>2021-08-11T11:15:33Z</time>
      </trkpt>
      <trkpt lat="45.10924" lon="2.67055">
        <ele>1498.4</ele>
        <time>2021-08-11T11:15:34Z</time>
      </trkpt>
      <trkpt lat="45.10924" lon="2.67055">
        <ele>1498.7</ele>
        <time>2021-08-11T11:15:35Z</time>
      </trkpt>
      <trkpt lat="45.10924" lon="2.67056">
        <ele>1499</ele>
        <time>2021-08-11T11:15:36Z</time>
      </trkpt>
      <trkpt lat="45.10924" lon="2.67057">
        <ele>1499.4</ele>
        <time>2021-08-11T11:15:37Z</time>
      </trkpt>
      <trkpt lat="45.10924" lon="2.67057">
        <ele>1499.6</ele>
        <time>2021-08-11T11:15:38Z</time>
      </trkpt>
      <trkpt lat="45.10924" lon="2.67058">
        <ele>1499.8</ele>
        <time>2021-08-11T11:15:39Z</time>
      </trkpt>
      <trkpt lat="45.10925" lon="2.67058">
        <ele>1500</ele>
        <time>2021-08-11T11:15:40Z</time>
      </trkpt>
      <trkpt lat="45.10925" lon="2.67059">
        <ele>1500.4</ele>
        <time>2021-08-11T11:15:41Z</time>
      </trkpt>
      <trkpt lat="45.10925" lon="2.6706">
        <ele>1500.7</ele>
        <time>2021-08-11T11:15:42Z</time>
      </trkpt>
      <trkpt lat="45.10926" lon="2.6706">
        <ele>1500.9</ele>
        <time>2021-08-11T11:15:43Z</time>
      </trkpt>
      <trkpt lat="45.10926" lon="2.67061">
        <ele>1501.2</ele>
        <time>2021-08-11T11:15:44Z</time>
      </trkpt>
      <trkpt lat="45.10927" lon="2.67061">
        <ele>1501.4</ele>
        <time>2021-08-11T11:15:45Z</time>
      </trkpt>
      <trkpt lat="45.10927" lon="2.67061">
        <ele>1501.5</ele>
        <time>2021-08-11T11:15:46Z</time>
      </trkpt>
      <trkpt lat="45.10928" lon="2.67061">
        <ele>1501.6</ele>
        <time>2021-08-11T11:15:47Z</time>
      </trkpt>
      <trkpt lat="45.10928" lon="2.67062">
        <ele>1501.7</ele>
        <time>2021-08-11T11:15:48Z</time>
      </trkpt>
      <trkpt lat="45.10928" lon="2.67062">
        <ele>1501.6</ele>
        <time>2021-08-11T11:15:49Z</time>
      </trkpt>
      <trkpt lat="45.10929" lon="2.67062">
        <ele>1501.6</ele>
        <time>2021-08-11T11:15:50Z</time>
      </trkpt>
      <trkpt lat="45.10929" lon="2.67062">
        <ele>1501.6</ele>
        <time>2021-08-11T11:15:51Z</time>
      </trkpt>
      <trkpt lat="45.10929" lon="2.67062">
        <ele>1501.6</ele>
        <time>2021-08-11T11:15:52Z</time>
      </trkpt>
      <trkpt lat="45.10929" lon="2.67062">
        <ele>1501.6</ele>
        <time>2021-08-11T11:15:53Z</time>
      </trkpt>
      <trkpt lat="45.10929" lon="2.67062">
        <ele>1501.6</ele>
        <time>2021-08-11T11:15:54Z</time>
      </trkpt>
      <trkpt lat="45.10929" lon="2.67062">
        <ele>1501.6</ele>
        <time>2021-08-11T11:15:55Z</time>
      </trkpt>
      <trkpt lat="45.10929" lon="2.67062">
        <ele>1501.6</ele>
        <time>2021-08-11T11:15:56Z</time>
      </trkpt>
      <trkpt lat="45.10929" lon="2.67061">
        <ele>1501.5</ele>
        <time>2021-08-11T11:15:57Z</time>
      </trkpt>
      <trkpt lat="45.10929" lon="2.67061">
        <ele>1501.5</ele>
        <time>2021-08-11T11:15:58Z</time>
      </trkpt>
      <trkpt lat="45.10929" lon="2.67061">
        <ele>1501.5</ele>
        <time>2021-08-11T11:15:59Z</time>
      </trkpt>
      <trkpt lat="45.10929" lon="2.67061">
        <ele>1501.5</ele>
        <time>2021-08-11T11:16:00Z</time>
      </trkpt>
      <trkpt lat="45.10929" lon="2.67061">
        <ele>1501.5</ele>
        <time>2021-08-11T11:16:01Z</time>
      </trkpt>
      <trkpt lat="45.10929" lon="2.67061">
        <ele>1501.5</ele>
        <time>2021-08-11T11:16:02Z</time>
      </trkpt>
      <trkpt lat="45.10929" lon="2.67061">
        <ele>1501.5</ele>
        <time>2021-08-11T11:16:03Z</time>
      </trkpt>
      <trkpt lat="45.10929" lon="2.67061">
        <ele>1501.5</ele>
        <time>2021-08-11T11:16:04Z</time>
      </trkpt>
      <trkpt lat="45.10929" lon="2.67061">
        <ele>1501.5</ele>
        <time>2021-08-11T11:16:05Z</time>
      </trkpt>
      <trkpt lat="45.10929" lon="2.67061">
        <ele>1501.5</ele>
        <time>2021-08-11T11:16:06Z</time>
      </trkpt>
      <trkpt lat="45.10929" lon="2.67061">
        <ele>1501.5</ele>
        <time>2021-08-11T11:16:07Z</time>
      </trkpt>
      <trkpt lat="45.10929" lon="2.67061">
        <ele>1501.4</ele>
        <time>2021-08-11T11:16:08Z</time>
      </trkpt>
      <trkpt lat="45.10929" lon="2.67061">
        <ele>1501.4</ele>
        <time>2021-08-11T11:16:09Z</time>
      </trkpt>
      <trkpt lat="45.10929" lon="2.67061">
        <ele>1501.3</ele>
        <time>2021-08-11T11:16:10Z</time>
      </trkpt>
      <trkpt lat="45.10929" lon="2.67061">
        <ele>1501.3</ele>
        <time>2021-08-11T11:16:11Z</time>
      </trkpt>
      <trkpt lat="45.10929" lon="2.67061">
        <ele>1501.4</ele>
        <time>2021-08-11T11:16:12Z</time>
      </trkpt>
      <trkpt lat="45.10929" lon="2.67061">
        <ele>1501.3</ele>
        <time>2021-08-11T11:16:13Z</time>
      </trkpt>
      <trkpt lat="45.10929" lon="2.67061">
        <ele>1501.4</ele>
        <time>2021-08-11T11:16:14Z</time>
      </trkpt>
      <trkpt lat="45.10929" lon="2.67061">
        <ele>1501.4</ele>
        <time>2021-08-11T11:16:15Z</time>
      </trkpt>
      <trkpt lat="45.10929" lon="2.67061">
        <ele>1501.3</ele>
        <time>2021-08-11T11:16:16Z</time>
      </trkpt>
      <trkpt lat="45.10929" lon="2.67061">
        <ele>1501.5</ele>
        <time>2021-08-11T11:16:17Z</time>
      </trkpt>
      <trkpt lat="45.10929" lon="2.67061">
        <ele>1501.5</ele>
        <time>2021-08-11T11:16:18Z</time>
      </trkpt>
      <trkpt lat="45.10929" lon="2.67061">
        <ele>1501.5</ele>
        <time>2021-08-11T11:16:19Z</time>
      </trkpt>
      <trkpt lat="45.10929" lon="2.67061">
        <ele>1501.5</ele>
        <time>2021-08-11T11:16:20Z</time>
      </trkpt>
      <trkpt lat="45.10929" lon="2.67061">
        <ele>1501.5</ele>
        <time>2021-08-11T11:16:21Z</time>
      </trkpt>
      <trkpt lat="45.10929" lon="2.67061">
        <ele>1501.4</ele>
        <time>2021-08-11T11:16:22Z</time>
      </trkpt>
      <trkpt lat="45.10929" lon="2.67061">
        <ele>1501.4</ele>
        <time>2021-08-11T11:16:23Z</time>
      </trkpt>
      <trkpt lat="45.10929" lon="2.67061">
        <ele>1501.4</ele>
        <time>2021-08-11T11:16:24Z</time>
      </trkpt>
      <trkpt lat="45.10929" lon="2.67061">
        <ele>1501.5</ele>
        <time>2021-08-11T11:16:25Z</time>
      </trkpt>
      <trkpt lat="45.10929" lon="2.67061">
        <ele>1501.4</ele>
        <time>2021-08-11T11:16:26Z</time>
      </trkpt>
      <trkpt lat="45.10929" lon="2.67061">
        <ele>1501.4</ele>
        <time>2021-08-11T11:16:27Z</time>
      </trkpt>
      <trkpt lat="45.10929" lon="2.67061">
        <ele>1501.4</ele>
        <time>2021-08-11T11:16:28Z</time>
      </trkpt>
      <trkpt lat="45.10929" lon="2.67061">
        <ele>1501.4</ele>
        <time>2021-08-11T11:16:29Z</time>
      </trkpt>
      <trkpt lat="45.10929" lon="2.67061">
        <ele>1501.3</ele>
        <time>2021-08-11T11:16:30Z</time>
      </trkpt>
      <trkpt lat="45.10929" lon="2.67061">
        <ele>1501.3</ele>
        <time>2021-08-11T11:16:31Z</time>
      </trkpt>
      <trkpt lat="45.10929" lon="2.67061">
        <ele>1501.3</ele>
        <time>2021-08-11T11:16:32Z</time>
      </trkpt>
      <trkpt lat="45.10929" lon="2.67061">
        <ele>1501.3</ele>
        <time>2021-08-11T11:16:33Z</time>
      </trkpt>
      <trkpt lat="45.10929" lon="2.67061">
        <ele>1501.3</ele>
        <time>2021-08-11T11:16:34Z</time>
      </trkpt>
      <trkpt lat="45.10929" lon="2.67061">
        <ele>1501.3</ele>
        <time>2021-08-11T11:16:35Z</time>
      </trkpt>
      <trkpt lat="45.10929" lon="2.67061">
        <ele>1501.3</ele>
        <time>2021-08-11T11:16:36Z</time>
      </trkpt>
      <trkpt lat="45.1093" lon="2.67061">
        <ele>1501.4</ele>
        <time>2021-08-11T11:16:37Z</time>
      </trkpt>
      <trkpt lat="45.1093" lon="2.67061">
        <ele>1501.1</ele>
        <time>2021-08-11T11:16:38Z</time>
      </trkpt>
      <trkpt lat="45.1093" lon="2.6706">
        <ele>1501</ele>
        <time>2021-08-11T11:16:39Z</time>
      </trkpt>
      <trkpt lat="45.1093" lon="2.6706">
        <ele>1500.8</ele>
        <time>2021-08-11T11:16:40Z</time>
      </trkpt>
      <trkpt lat="45.10931" lon="2.67059">
        <ele>1500.5</ele>
        <time>2021-08-11T11:16:41Z</time>
      </trkpt>
      <trkpt lat="45.10931" lon="2.67059">
        <ele>1500.5</ele>
        <time>2021-08-11T11:16:42Z</time>
      </trkpt>
      <trkpt lat="45.10932" lon="2.67059">
        <ele>1500.3</ele>
        <time>2021-08-11T11:16:43Z</time>
      </trkpt>
      <trkpt lat="45.10932" lon="2.67059">
        <ele>1500.2</ele>
        <time>2021-08-11T11:16:44Z</time>
      </trkpt>
      <trkpt lat="45.10933" lon="2.67059">
        <ele>1500.1</ele>
        <time>2021-08-11T11:16:45Z</time>
      </trkpt>
      <trkpt lat="45.10933" lon="2.67059">
        <ele>1500</ele>
        <time>2021-08-11T11:16:46Z</time>
      </trkpt>
      <trkpt lat="45.10934" lon="2.67058">
        <ele>1499.9</ele>
        <time>2021-08-11T11:16:47Z</time>
      </trkpt>
      <trkpt lat="45.10934" lon="2.67058">
        <ele>1499.9</ele>
        <time>2021-08-11T11:16:48Z</time>
      </trkpt>
      <trkpt lat="45.10934" lon="2.67059">
        <ele>1500</ele>
        <time>2021-08-11T11:16:49Z</time>
      </trkpt>
      <trkpt lat="45.10934" lon="2.67059">
        <ele>1500</ele>
        <time>2021-08-11T11:16:50Z</time>
      </trkpt>
      <trkpt lat="45.10934" lon="2.67059">
        <ele>1500</ele>
        <time>2021-08-11T11:16:51Z</time>
      </trkpt>
      <trkpt lat="45.10934" lon="2.67059">
        <ele>1500</ele>
        <time>2021-08-11T11:16:52Z</time>
      </trkpt>
      <trkpt lat="45.10934" lon="2.67058">
        <ele>1499.9</ele>
        <time>2021-08-11T11:16:53Z</time>
      </trkpt>
      <trkpt lat="45.10934" lon="2.67058">
        <ele>1499.9</ele>
        <time>2021-08-11T11:16:54Z</time>
      </trkpt>
      <trkpt lat="45.10934" lon="2.67058">
        <ele>1499.9</ele>
        <time>2021-08-11T11:16:55Z</time>
      </trkpt>
      <trkpt lat="45.10934" lon="2.67058">
        <ele>1499.8</ele>
        <time>2021-08-11T11:16:56Z</time>
      </trkpt>
      <trkpt lat="45.10934" lon="2.67058">
        <ele>1499.8</ele>
        <time>2021-08-11T11:16:57Z</time>
      </trkpt>
      <trkpt lat="45.10934" lon="2.67058">
        <ele>1499.8</ele>
        <time>2021-08-11T11:16:58Z</time>
      </trkpt>
      <trkpt lat="45.10934" lon="2.67058">
        <ele>1499.8</ele>
        <time>2021-08-11T11:16:59Z</time>
      </trkpt>
      <trkpt lat="45.10934" lon="2.67058">
        <ele>1499.8</ele>
        <time>2021-08-11T11:17:00Z</time>
      </trkpt>
      <trkpt lat="45.10934" lon="2.67058">
        <ele>1499.7</ele>
        <time>2021-08-11T11:17:01Z</time>
      </trkpt>
      <trkpt lat="45.10934" lon="2.67058">
        <ele>1499.8</ele>
        <time>2021-08-11T11:17:02Z</time>
      </trkpt>
      <trkpt lat="45.10934" lon="2.67058">
        <ele>1499.8</ele>
        <time>2021-08-11T11:17:03Z</time>
      </trkpt>
      <trkpt lat="45.10934" lon="2.67058">
        <ele>1499.8</ele>
        <time>2021-08-11T11:17:04Z</time>
      </trkpt>
      <trkpt lat="45.10934" lon="2.67058">
        <ele>1499.8</ele>
        <time>2021-08-11T11:17:05Z</time>
      </trkpt>
      <trkpt lat="45.10934" lon="2.67058">
        <ele>1499.7</ele>
        <time>2021-08-11T11:17:06Z</time>
      </trkpt>
      <trkpt lat="45.10934" lon="2.67058">
        <ele>1499.7</ele>
        <time>2021-08-11T11:17:07Z</time>
      </trkpt>
      <trkpt lat="45.10934" lon="2.67058">
        <ele>1499.7</ele>
        <time>2021-08-11T11:17:08Z</time>
      </trkpt>
      <trkpt lat="45.10934" lon="2.67058">
        <ele>1499.7</ele>
        <time>2021-08-11T11:17:09Z</time>
      </trkpt>
      <trkpt lat="45.10934" lon="2.67058">
        <ele>1499.8</ele>
        <time>2021-08-11T11:17:10Z</time>
      </trkpt>
      <trkpt lat="45.10935" lon="2.67058">
        <ele>1499.8</ele>
        <time>2021-08-11T11:17:11Z</time>
      </trkpt>
      <trkpt lat="45.10936" lon="2.67058">
        <ele>1499.6</ele>
        <time>2021-08-11T11:17:12Z</time>
      </trkpt>
      <trkpt lat="45.10937" lon="2.67058">
        <ele>1499.5</ele>
        <time>2021-08-11T11:17:13Z</time>
      </trkpt>
      <trkpt lat="45.10938" lon="2.67058">
        <ele>1499.6</ele>
        <time>2021-08-11T11:17:14Z</time>
      </trkpt>
      <trkpt lat="45.10938" lon="2.67058">
        <ele>1499.7</ele>
        <time>2021-08-11T11:17:15Z</time>
      </trkpt>
      <trkpt lat="45.10939" lon="2.67058">
        <ele>1499.7</ele>
        <time>2021-08-11T11:17:16Z</time>
      </trkpt>
      <trkpt lat="45.10939" lon="2.67058">
        <ele>1499.6</ele>
        <time>2021-08-11T11:17:17Z</time>
      </trkpt>
      <trkpt lat="45.10939" lon="2.67058">
        <ele>1499.4</ele>
        <time>2021-08-11T11:17:18Z</time>
      </trkpt>
      <trkpt lat="45.1094" lon="2.67057">
        <ele>1499.2</ele>
        <time>2021-08-11T11:17:19Z</time>
      </trkpt>
      <trkpt lat="45.1094" lon="2.67057">
        <ele>1499.1</ele>
        <time>2021-08-11T11:17:20Z</time>
      </trkpt>
      <trkpt lat="45.10941" lon="2.67057">
        <ele>1499</ele>
        <time>2021-08-11T11:17:21Z</time>
      </trkpt>
      <trkpt lat="45.10941" lon="2.67057">
        <ele>1498.9</ele>
        <time>2021-08-11T11:17:22Z</time>
      </trkpt>
      <trkpt lat="45.10942" lon="2.67057">
        <ele>1498.8</ele>
        <time>2021-08-11T11:17:23Z</time>
      </trkpt>
      <trkpt lat="45.10943" lon="2.67057">
        <ele>1499</ele>
        <time>2021-08-11T11:17:24Z</time>
      </trkpt>
      <trkpt lat="45.10943" lon="2.67057">
        <ele>1498.8</ele>
        <time>2021-08-11T11:17:25Z</time>
      </trkpt>
      <trkpt lat="45.10943" lon="2.67057">
        <ele>1498.8</ele>
        <time>2021-08-11T11:17:26Z</time>
      </trkpt>
      <trkpt lat="45.10943" lon="2.67057">
        <ele>1498.7</ele>
        <time>2021-08-11T11:17:27Z</time>
      </trkpt>
      <trkpt lat="45.10943" lon="2.67056">
        <ele>1498.6</ele>
        <time>2021-08-11T11:17:28Z</time>
      </trkpt>
      <trkpt lat="45.10943" lon="2.67056">
        <ele>1498.6</ele>
        <time>2021-08-11T11:17:29Z</time>
      </trkpt>
      <trkpt lat="45.10944" lon="2.67056">
        <ele>1498.6</ele>
        <time>2021-08-11T11:17:30Z</time>
      </trkpt>
      <trkpt lat="45.10944" lon="2.67056">
        <ele>1498.6</ele>
        <time>2021-08-11T11:17:31Z</time>
      </trkpt>
      <trkpt lat="45.10944" lon="2.67056">
        <ele>1498.5</ele>
        <time>2021-08-11T11:17:32Z</time>
      </trkpt>
      <trkpt lat="45.10944" lon="2.67056">
        <ele>1498.5</ele>
        <time>2021-08-11T11:17:33Z</time>
      </trkpt>
      <trkpt lat="45.10944" lon="2.67056">
        <ele>1498.5</ele>
        <time>2021-08-11T11:17:34Z</time>
      </trkpt>
      <trkpt lat="45.10943" lon="2.67056">
        <ele>1498.4</ele>
        <time>2021-08-11T11:17:35Z</time>
      </trkpt>
      <trkpt lat="45.10943" lon="2.67056">
        <ele>1498.4</ele>
        <time>2021-08-11T11:17:36Z</time>
      </trkpt>
      <trkpt lat="45.10943" lon="2.67056">
        <ele>1498.4</ele>
        <time>2021-08-11T11:17:37Z</time>
      </trkpt>
      <trkpt lat="45.10943" lon="2.67056">
        <ele>1498.4</ele>
        <time>2021-08-11T11:17:38Z</time>
      </trkpt>
      <trkpt lat="45.10944" lon="2.67056">
        <ele>1498.5</ele>
        <time>2021-08-11T11:17:39Z</time>
      </trkpt>
      <trkpt lat="45.10944" lon="2.67056">
        <ele>1498.5</ele>
        <time>2021-08-11T11:17:40Z</time>
      </trkpt>
      <trkpt lat="45.10943" lon="2.67056">
        <ele>1498.4</ele>
        <time>2021-08-11T11:17:41Z</time>
      </trkpt>
      <trkpt lat="45.10943" lon="2.67056">
        <ele>1498.4</ele>
        <time>2021-08-11T11:17:42Z</time>
      </trkpt>
      <trkpt lat="45.10944" lon="2.67056">
        <ele>1498.5</ele>
        <time>2021-08-11T11:17:43Z</time>
      </trkpt>
      <trkpt lat="45.10944" lon="2.67056">
        <ele>1498.5</ele>
        <time>2021-08-11T11:17:44Z</time>
      </trkpt>
      <trkpt lat="45.10944" lon="2.67056">
        <ele>1498.5</ele>
        <time>2021-08-11T11:17:45Z</time>
      </trkpt>
      <trkpt lat="45.10944" lon="2.67056">
        <ele>1498.5</ele>
        <time>2021-08-11T11:17:46Z</time>
      </trkpt>
      <trkpt lat="45.10944" lon="2.67056">
        <ele>1498.5</ele>
        <time>2021-08-11T11:17:47Z</time>
      </trkpt>
      <trkpt lat="45.10944" lon="2.67056">
        <ele>1498.5</ele>
        <time>2021-08-11T11:17:48Z</time>
      </trkpt>
      <trkpt lat="45.10943" lon="2.67056">
        <ele>1498.5</ele>
        <time>2021-08-11T11:17:49Z</time>
      </trkpt>
      <trkpt lat="45.10944" lon="2.67056">
        <ele>1498.5</ele>
        <time>2021-08-11T11:17:50Z</time>
      </trkpt>
      <trkpt lat="45.10944" lon="2.67056">
        <ele>1498.2</ele>
        <time>2021-08-11T11:17:51Z</time>
      </trkpt>
      <trkpt lat="45.10944" lon="2.67055">
        <ele>1498.1</ele>
        <time>2021-08-11T11:17:52Z</time>
      </trkpt>
      <trkpt lat="45.10944" lon="2.67055">
        <ele>1498</ele>
        <time>2021-08-11T11:17:53Z</time>
      </trkpt>
      <trkpt lat="45.10944" lon="2.67055">
        <ele>1497.9</ele>
        <time>2021-08-11T11:17:54Z</time>
      </trkpt>
      <trkpt lat="45.10945" lon="2.67054">
        <ele>1497.4</ele>
        <time>2021-08-11T11:17:55Z</time>
      </trkpt>
      <trkpt lat="45.10946" lon="2.67053">
        <ele>1497.1</ele>
        <time>2021-08-11T11:17:56Z</time>
      </trkpt>
      <trkpt lat="45.10946" lon="2.67053">
        <ele>1496.9</ele>
        <time>2021-08-11T11:17:57Z</time>
      </trkpt>
      <trkpt lat="45.10946" lon="2.67053">
        <ele>1496.8</ele>
        <time>2021-08-11T11:17:58Z</time>
      </trkpt>
      <trkpt lat="45.10947" lon="2.67053">
        <ele>1496.7</ele>
        <time>2021-08-11T11:17:59Z</time>
      </trkpt>
      <trkpt lat="45.10948" lon="2.67053">
        <ele>1496.7</ele>
        <time>2021-08-11T11:18:00Z</time>
      </trkpt>
      <trkpt lat="45.10948" lon="2.67053">
        <ele>1496.7</ele>
        <time>2021-08-11T11:18:01Z</time>
      </trkpt>
      <trkpt lat="45.10948" lon="2.67053">
        <ele>1496.6</ele>
        <time>2021-08-11T11:18:02Z</time>
      </trkpt>
      <trkpt lat="45.10948" lon="2.67053">
        <ele>1496.6</ele>
        <time>2021-08-11T11:18:03Z</time>
      </trkpt>
      <trkpt lat="45.10948" lon="2.67052">
        <ele>1496.4</ele>
        <time>2021-08-11T11:18:04Z</time>
      </trkpt>
      <trkpt lat="45.10949" lon="2.67052">
        <ele>1496.3</ele>
        <time>2021-08-11T11:18:05Z</time>
      </trkpt>
      <trkpt lat="45.10949" lon="2.67051">
        <ele>1495.9</ele>
        <time>2021-08-11T11:18:06Z</time>
      </trkpt>
      <trkpt lat="45.10949" lon="2.67051">
        <ele>1495.6</ele>
        <time>2021-08-11T11:18:07Z</time>
      </trkpt>
      <trkpt lat="45.10949" lon="2.6705">
        <ele>1495.3</ele>
        <time>2021-08-11T11:18:08Z</time>
      </trkpt>
      <trkpt lat="45.1095" lon="2.6705">
        <ele>1495.1</ele>
        <time>2021-08-11T11:18:09Z</time>
      </trkpt>
      <trkpt lat="45.1095" lon="2.67049">
        <ele>1494.8</ele>
        <time>2021-08-11T11:18:10Z</time>
      </trkpt>
      <trkpt lat="45.1095" lon="2.67049">
        <ele>1494.6</ele>
        <time>2021-08-11T11:18:11Z</time>
      </trkpt>
      <trkpt lat="45.10951" lon="2.67048">
        <ele>1494.2</ele>
        <time>2021-08-11T11:18:12Z</time>
      </trkpt>
      <trkpt lat="45.10951" lon="2.67047">
        <ele>1493.8</ele>
        <time>2021-08-11T11:18:13Z</time>
      </trkpt>
      <trkpt lat="45.10952" lon="2.67047">
        <ele>1493.6</ele>
        <time>2021-08-11T11:18:14Z</time>
      </trkpt>
      <trkpt lat="45.10952" lon="2.67046">
        <ele>1493.5</ele>
        <time>2021-08-11T11:18:15Z</time>
      </trkpt>
      <trkpt lat="45.10953" lon="2.67046">
        <ele>1493.2</ele>
        <time>2021-08-11T11:18:16Z</time>
      </trkpt>
      <trkpt lat="45.10953" lon="2.67046">
        <ele>1493</ele>
        <time>2021-08-11T11:18:17Z</time>
      </trkpt>
      <trkpt lat="45.10953" lon="2.67045">
        <ele>1492.9</ele>
        <time>2021-08-11T11:18:18Z</time>
      </trkpt>
      <trkpt lat="45.10954" lon="2.67045">
        <ele>1492.9</ele>
        <time>2021-08-11T11:18:19Z</time>
      </trkpt>
      <trkpt lat="45.10954" lon="2.67045">
        <ele>1492.8</ele>
        <time>2021-08-11T11:18:20Z</time>
      </trkpt>
      <trkpt lat="45.10954" lon="2.67045">
        <ele>1492.7</ele>
        <time>2021-08-11T11:18:21Z</time>
      </trkpt>
      <trkpt lat="45.10954" lon="2.67045">
        <ele>1492.5</ele>
        <time>2021-08-11T11:18:22Z</time>
      </trkpt>
      <trkpt lat="45.10954" lon="2.67044">
        <ele>1492.2</ele>
        <time>2021-08-11T11:18:23Z</time>
      </trkpt>
      <trkpt lat="45.10954" lon="2.67044">
        <ele>1492.1</ele>
        <time>2021-08-11T11:18:24Z</time>
      </trkpt>
      <trkpt lat="45.10954" lon="2.67043">
        <ele>1491.9</ele>
        <time>2021-08-11T11:18:25Z</time>
      </trkpt>
      <trkpt lat="45.10954" lon="2.67043">
        <ele>1491.6</ele>
        <time>2021-08-11T11:18:26Z</time>
      </trkpt>
      <trkpt lat="45.10954" lon="2.67042">
        <ele>1491.4</ele>
        <time>2021-08-11T11:18:27Z</time>
      </trkpt>
      <trkpt lat="45.10954" lon="2.67042">
        <ele>1491.1</ele>
        <time>2021-08-11T11:18:28Z</time>
      </trkpt>
      <trkpt lat="45.10954" lon="2.67041">
        <ele>1490.8</ele>
        <time>2021-08-11T11:18:29Z</time>
      </trkpt>
      <trkpt lat="45.10955" lon="2.67041">
        <ele>1490.6</ele>
        <time>2021-08-11T11:18:30Z</time>
      </trkpt>
      <trkpt lat="45.10955" lon="2.67041">
        <ele>1490.5</ele>
        <time>2021-08-11T11:18:31Z</time>
      </trkpt>
      <trkpt lat="45.10955" lon="2.6704">
        <ele>1490.3</ele>
        <time>2021-08-11T11:18:32Z</time>
      </trkpt>
      <trkpt lat="45.10955" lon="2.6704">
        <ele>1490.1</ele>
        <time>2021-08-11T11:18:33Z</time>
      </trkpt>
      <trkpt lat="45.10956" lon="2.67039">
        <ele>1489.8</ele>
        <time>2021-08-11T11:18:34Z</time>
      </trkpt>
      <trkpt lat="45.10956" lon="2.67039">
        <ele>1489.6</ele>
        <time>2021-08-11T11:18:35Z</time>
      </trkpt>
      <trkpt lat="45.10956" lon="2.67038">
        <ele>1489.3</ele>
        <time>2021-08-11T11:18:36Z</time>
      </trkpt>
      <trkpt lat="45.10957" lon="2.67038">
        <ele>1489.2</ele>
        <time>2021-08-11T11:18:37Z</time>
      </trkpt>
      <trkpt lat="45.10957" lon="2.67038">
        <ele>1489</ele>
        <time>2021-08-11T11:18:38Z</time>
      </trkpt>
      <trkpt lat="45.10957" lon="2.67037">
        <ele>1488.7</ele>
        <time>2021-08-11T11:18:39Z</time>
      </trkpt>
      <trkpt lat="45.10958" lon="2.67037">
        <ele>1488.6</ele>
        <time>2021-08-11T11:18:40Z</time>
      </trkpt>
      <trkpt lat="45.10958" lon="2.67036">
        <ele>1488.4</ele>
        <time>2021-08-11T11:18:41Z</time>
      </trkpt>
      <trkpt lat="45.10959" lon="2.67036">
        <ele>1488.3</ele>
        <time>2021-08-11T11:18:42Z</time>
      </trkpt>
      <trkpt lat="45.1096" lon="2.67036">
        <ele>1488.3</ele>
        <time>2021-08-11T11:18:43Z</time>
      </trkpt>
      <trkpt lat="45.10961" lon="2.67037">
        <ele>1488.5</ele>
        <time>2021-08-11T11:18:44Z</time>
      </trkpt>
      <trkpt lat="45.10961" lon="2.67037">
        <ele>1488.6</ele>
        <time>2021-08-11T11:18:45Z</time>
      </trkpt>
      <trkpt lat="45.10962" lon="2.67037">
        <ele>1488.6</ele>
        <time>2021-08-11T11:18:46Z</time>
      </trkpt>
      <trkpt lat="45.10962" lon="2.67037">
        <ele>1488.6</ele>
        <time>2021-08-11T11:18:47Z</time>
      </trkpt>
      <trkpt lat="45.10963" lon="2.67037">
        <ele>1488.6</ele>
        <time>2021-08-11T11:18:48Z</time>
      </trkpt>
      <trkpt lat="45.10963" lon="2.67037">
        <ele>1488.6</ele>
        <time>2021-08-11T11:18:49Z</time>
      </trkpt>
      <trkpt lat="45.10963" lon="2.67037">
        <ele>1488.7</ele>
        <time>2021-08-11T11:18:50Z</time>
      </trkpt>
      <trkpt lat="45.10963" lon="2.67037">
        <ele>1488.7</ele>
        <time>2021-08-11T11:18:51Z</time>
      </trkpt>
      <trkpt lat="45.10964" lon="2.67037">
        <ele>1488.5</ele>
        <time>2021-08-11T11:18:52Z</time>
      </trkpt>
      <trkpt lat="45.10964" lon="2.67037">
        <ele>1488.3</ele>
        <time>2021-08-11T11:18:53Z</time>
      </trkpt>
      <trkpt lat="45.10964" lon="2.67036">
        <ele>1488.1</ele>
        <time>2021-08-11T11:18:54Z</time>
      </trkpt>
      <trkpt lat="45.10964" lon="2.67036">
        <ele>1487.9</ele>
        <time>2021-08-11T11:18:55Z</time>
      </trkpt>
      <trkpt lat="45.10965" lon="2.67036">
        <ele>1487.8</ele>
        <time>2021-08-11T11:18:56Z</time>
      </trkpt>
      <trkpt lat="45.10965" lon="2.67035">
        <ele>1487.7</ele>
        <time>2021-08-11T11:18:57Z</time>
      </trkpt>
      <trkpt lat="45.10966" lon="2.67036">
        <ele>1487.9</ele>
        <time>2021-08-11T11:18:58Z</time>
      </trkpt>
      <trkpt lat="45.10966" lon="2.67035">
        <ele>1487.7</ele>
        <time>2021-08-11T11:18:59Z</time>
      </trkpt>
      <trkpt lat="45.10966" lon="2.67035">
        <ele>1487.6</ele>
        <time>2021-08-11T11:19:00Z</time>
      </trkpt>
      <trkpt lat="45.10966" lon="2.67035">
        <ele>1487.6</ele>
        <time>2021-08-11T11:19:01Z</time>
      </trkpt>
      <trkpt lat="45.10967" lon="2.67035">
        <ele>1487.5</ele>
        <time>2021-08-11T11:19:02Z</time>
      </trkpt>
      <trkpt lat="45.10967" lon="2.67035">
        <ele>1487.5</ele>
        <time>2021-08-11T11:19:03Z</time>
      </trkpt>
      <trkpt lat="45.10967" lon="2.67035">
        <ele>1487.5</ele>
        <time>2021-08-11T11:19:04Z</time>
      </trkpt>
      <trkpt lat="45.10967" lon="2.67035">
        <ele>1487.5</ele>
        <time>2021-08-11T11:19:05Z</time>
      </trkpt>
      <trkpt lat="45.10967" lon="2.67035">
        <ele>1487.4</ele>
        <time>2021-08-11T11:19:06Z</time>
      </trkpt>
      <trkpt lat="45.10967" lon="2.67034">
        <ele>1487.1</ele>
        <time>2021-08-11T11:19:07Z</time>
      </trkpt>
      <trkpt lat="45.10967" lon="2.67034">
        <ele>1486.8</ele>
        <time>2021-08-11T11:19:08Z</time>
      </trkpt>
      <trkpt lat="45.10968" lon="2.67033">
        <ele>1486.5</ele>
        <time>2021-08-11T11:19:09Z</time>
      </trkpt>
      <trkpt lat="45.10969" lon="2.67032">
        <ele>1486.2</ele>
        <time>2021-08-11T11:19:10Z</time>
      </trkpt>
      <trkpt lat="45.10969" lon="2.67031">
        <ele>1485.7</ele>
        <time>2021-08-11T11:19:11Z</time>
      </trkpt>
      <trkpt lat="45.1097" lon="2.67031">
        <ele>1485.3</ele>
        <time>2021-08-11T11:19:12Z</time>
      </trkpt>
      <trkpt lat="45.10972" lon="2.6703">
        <ele>1485.1</ele>
        <time>2021-08-11T11:19:13Z</time>
      </trkpt>
      <trkpt lat="45.10973" lon="2.6703">
        <ele>1485</ele>
        <time>2021-08-11T11:19:14Z</time>
      </trkpt>
      <trkpt lat="45.10974" lon="2.6703">
        <ele>1485.1</ele>
        <time>2021-08-11T11:19:15Z</time>
      </trkpt>
      <trkpt lat="45.10974" lon="2.6703">
        <ele>1485</ele>
        <time>2021-08-11T11:19:16Z</time>
      </trkpt>
      <trkpt lat="45.10975" lon="2.6703">
        <ele>1484.8</ele>
        <time>2021-08-11T11:19:17Z</time>
      </trkpt>
      <trkpt lat="45.10976" lon="2.67029">
        <ele>1484.5</ele>
        <time>2021-08-11T11:19:18Z</time>
      </trkpt>
      <trkpt lat="45.10976" lon="2.67029">
        <ele>1484.2</ele>
        <time>2021-08-11T11:19:19Z</time>
      </trkpt>
      <trkpt lat="45.10977" lon="2.67028">
        <ele>1484</ele>
        <time>2021-08-11T11:19:20Z</time>
      </trkpt>
      <trkpt lat="45.10977" lon="2.67028">
        <ele>1483.7</ele>
        <time>2021-08-11T11:19:21Z</time>
      </trkpt>
      <trkpt lat="45.10978" lon="2.67027">
        <ele>1483.5</ele>
        <time>2021-08-11T11:19:22Z</time>
      </trkpt>
      <trkpt lat="45.10979" lon="2.67027">
        <ele>1483.2</ele>
        <time>2021-08-11T11:19:23Z</time>
      </trkpt>
      <trkpt lat="45.10979" lon="2.67026">
        <ele>1483</ele>
        <time>2021-08-11T11:19:24Z</time>
      </trkpt>
      <trkpt lat="45.1098" lon="2.67026">
        <ele>1482.9</ele>
        <time>2021-08-11T11:19:25Z</time>
      </trkpt>
      <trkpt lat="45.10981" lon="2.67026">
        <ele>1482.6</ele>
        <time>2021-08-11T11:19:26Z</time>
      </trkpt>
      <trkpt lat="45.10982" lon="2.67025">
        <ele>1482.4</ele>
        <time>2021-08-11T11:19:27Z</time>
      </trkpt>
      <trkpt lat="45.10983" lon="2.67025">
        <ele>1482.3</ele>
        <time>2021-08-11T11:19:28Z</time>
      </trkpt>
      <trkpt lat="45.10984" lon="2.67025">
        <ele>1482.5</ele>
        <time>2021-08-11T11:19:29Z</time>
      </trkpt>
      <trkpt lat="45.10984" lon="2.67026">
        <ele>1482.7</ele>
        <time>2021-08-11T11:19:30Z</time>
      </trkpt>
      <trkpt lat="45.10985" lon="2.67027">
        <ele>1483.1</ele>
        <time>2021-08-11T11:19:31Z</time>
      </trkpt>
      <trkpt lat="45.10986" lon="2.67027">
        <ele>1483.3</ele>
        <time>2021-08-11T11:19:32Z</time>
      </trkpt>
      <trkpt lat="45.10986" lon="2.67028">
        <ele>1483.5</ele>
        <time>2021-08-11T11:19:33Z</time>
      </trkpt>
      <trkpt lat="45.10987" lon="2.67028">
        <ele>1483.5</ele>
        <time>2021-08-11T11:19:34Z</time>
      </trkpt>
      <trkpt lat="45.10988" lon="2.67028">
        <ele>1483.4</ele>
        <time>2021-08-11T11:19:35Z</time>
      </trkpt>
      <trkpt lat="45.10989" lon="2.67028">
        <ele>1483.5</ele>
        <time>2021-08-11T11:19:36Z</time>
      </trkpt>
      <trkpt lat="45.1099" lon="2.67028">
        <ele>1483.5</ele>
        <time>2021-08-11T11:19:37Z</time>
      </trkpt>
      <trkpt lat="45.10991" lon="2.67028">
        <ele>1483.5</ele>
        <time>2021-08-11T11:19:38Z</time>
      </trkpt>
      <trkpt lat="45.10991" lon="2.67028">
        <ele>1483.5</ele>
        <time>2021-08-11T11:19:39Z</time>
      </trkpt>
      <trkpt lat="45.10992" lon="2.67028">
        <ele>1483.5</ele>
        <time>2021-08-11T11:19:40Z</time>
      </trkpt>
      <trkpt lat="45.10992" lon="2.67028">
        <ele>1483.5</ele>
        <time>2021-08-11T11:19:41Z</time>
      </trkpt>
      <trkpt lat="45.10993" lon="2.67027">
        <ele>1483.3</ele>
        <time>2021-08-11T11:19:42Z</time>
      </trkpt>
      <trkpt lat="45.10993" lon="2.67027">
        <ele>1483.2</ele>
        <time>2021-08-11T11:19:43Z</time>
      </trkpt>
      <trkpt lat="45.10994" lon="2.67027">
        <ele>1483.2</ele>
        <time>2021-08-11T11:19:44Z</time>
      </trkpt>
      <trkpt lat="45.10994" lon="2.67027">
        <ele>1483.1</ele>
        <time>2021-08-11T11:19:45Z</time>
      </trkpt>
      <trkpt lat="45.10995" lon="2.67027">
        <ele>1482.9</ele>
        <time>2021-08-11T11:19:46Z</time>
      </trkpt>
      <trkpt lat="45.10996" lon="2.67027">
        <ele>1482.9</ele>
        <time>2021-08-11T11:19:47Z</time>
      </trkpt>
      <trkpt lat="45.10997" lon="2.67027">
        <ele>1482.8</ele>
        <time>2021-08-11T11:19:48Z</time>
      </trkpt>
      <trkpt lat="45.10997" lon="2.67026">
        <ele>1482.6</ele>
        <time>2021-08-11T11:19:49Z</time>
      </trkpt>
      <trkpt lat="45.10998" lon="2.67026">
        <ele>1482.4</ele>
        <time>2021-08-11T11:19:50Z</time>
      </trkpt>
      <trkpt lat="45.10999" lon="2.67026">
        <ele>1482.3</ele>
        <time>2021-08-11T11:19:51Z</time>
      </trkpt>
      <trkpt lat="45.10999" lon="2.67025">
        <ele>1482</ele>
        <time>2021-08-11T11:19:52Z</time>
      </trkpt>
      <trkpt lat="45.11" lon="2.67025">
        <ele>1482</ele>
        <time>2021-08-11T11:19:53Z</time>
      </trkpt>
      <trkpt lat="45.11001" lon="2.67025">
        <ele>1482.1</ele>
        <time>2021-08-11T11:19:54Z</time>
      </trkpt>
      <trkpt lat="45.11002" lon="2.67025">
        <ele>1482.1</ele>
        <time>2021-08-11T11:19:55Z</time>
      </trkpt>
      <trkpt lat="45.11002" lon="2.67024">
        <ele>1482</ele>
        <time>2021-08-11T11:19:56Z</time>
      </trkpt>
      <trkpt lat="45.11003" lon="2.67024">
        <ele>1481.9</ele>
        <time>2021-08-11T11:19:57Z</time>
      </trkpt>
      <trkpt lat="45.11003" lon="2.67023">
        <ele>1481.6</ele>
        <time>2021-08-11T11:19:58Z</time>
      </trkpt>
      <trkpt lat="45.11004" lon="2.67023">
        <ele>1481.5</ele>
        <time>2021-08-11T11:19:59Z</time>
      </trkpt>
      <trkpt lat="45.11005" lon="2.67022">
        <ele>1481.4</ele>
        <time>2021-08-11T11:20:00Z</time>
      </trkpt>
      <trkpt lat="45.11005" lon="2.67021">
        <ele>1481.2</ele>
        <time>2021-08-11T11:20:01Z</time>
      </trkpt>
      <trkpt lat="45.11006" lon="2.67021">
        <ele>1481.1</ele>
        <time>2021-08-11T11:20:02Z</time>
      </trkpt>
      <trkpt lat="45.11007" lon="2.67021">
        <ele>1481.1</ele>
        <time>2021-08-11T11:20:03Z</time>
      </trkpt>
      <trkpt lat="45.11008" lon="2.6702">
        <ele>1481.2</ele>
        <time>2021-08-11T11:20:04Z</time>
      </trkpt>
      <trkpt lat="45.11009" lon="2.6702">
        <ele>1481.3</ele>
        <time>2021-08-11T11:20:05Z</time>
      </trkpt>
      <trkpt lat="45.11009" lon="2.6702">
        <ele>1481.5</ele>
        <time>2021-08-11T11:20:06Z</time>
      </trkpt>
      <trkpt lat="45.1101" lon="2.67021">
        <ele>1481.7</ele>
        <time>2021-08-11T11:20:07Z</time>
      </trkpt>
      <trkpt lat="45.1101" lon="2.67021">
        <ele>1481.8</ele>
        <time>2021-08-11T11:20:08Z</time>
      </trkpt>
      <trkpt lat="45.11011" lon="2.67021">
        <ele>1482.1</ele>
        <time>2021-08-11T11:20:09Z</time>
      </trkpt>
      <trkpt lat="45.11012" lon="2.67021">
        <ele>1482.2</ele>
        <time>2021-08-11T11:20:10Z</time>
      </trkpt>
      <trkpt lat="45.11013" lon="2.6702">
        <ele>1482.1</ele>
        <time>2021-08-11T11:20:11Z</time>
      </trkpt>
      <trkpt lat="45.11013" lon="2.6702">
        <ele>1482</ele>
        <time>2021-08-11T11:20:12Z</time>
      </trkpt>
      <trkpt lat="45.11014" lon="2.6702">
        <ele>1482.1</ele>
        <time>2021-08-11T11:20:13Z</time>
      </trkpt>
      <trkpt lat="45.11014" lon="2.6702">
        <ele>1482.2</ele>
        <time>2021-08-11T11:20:14Z</time>
      </trkpt>
      <trkpt lat="45.11015" lon="2.6702">
        <ele>1482.3</ele>
        <time>2021-08-11T11:20:15Z</time>
      </trkpt>
      <trkpt lat="45.11016" lon="2.6702">
        <ele>1482.3</ele>
        <time>2021-08-11T11:20:16Z</time>
      </trkpt>
      <trkpt lat="45.11017" lon="2.6702">
        <ele>1482.6</ele>
        <time>2021-08-11T11:20:17Z</time>
      </trkpt>
      <trkpt lat="45.11018" lon="2.6702">
        <ele>1482.8</ele>
        <time>2021-08-11T11:20:18Z</time>
      </trkpt>
      <trkpt lat="45.11018" lon="2.67021">
        <ele>1483.3</ele>
        <time>2021-08-11T11:20:19Z</time>
      </trkpt>
      <trkpt lat="45.11019" lon="2.67021">
        <ele>1483.5</ele>
        <time>2021-08-11T11:20:20Z</time>
      </trkpt>
      <trkpt lat="45.11019" lon="2.67021">
        <ele>1483.8</ele>
        <time>2021-08-11T11:20:21Z</time>
      </trkpt>
      <trkpt lat="45.1102" lon="2.67021">
        <ele>1483.9</ele>
        <time>2021-08-11T11:20:22Z</time>
      </trkpt>
      <trkpt lat="45.1102" lon="2.67022">
        <ele>1484.1</ele>
        <time>2021-08-11T11:20:23Z</time>
      </trkpt>
      <trkpt lat="45.11021" lon="2.67022">
        <ele>1484.5</ele>
        <time>2021-08-11T11:20:24Z</time>
      </trkpt>
      <trkpt lat="45.11022" lon="2.67022">
        <ele>1484.7</ele>
        <time>2021-08-11T11:20:25Z</time>
      </trkpt>
      <trkpt lat="45.11023" lon="2.67023">
        <ele>1485.1</ele>
        <time>2021-08-11T11:20:26Z</time>
      </trkpt>
      <trkpt lat="45.11023" lon="2.67023">
        <ele>1485.3</ele>
        <time>2021-08-11T11:20:27Z</time>
      </trkpt>
      <trkpt lat="45.11024" lon="2.67023">
        <ele>1485.6</ele>
        <time>2021-08-11T11:20:28Z</time>
      </trkpt>
      <trkpt lat="45.11024" lon="2.67023">
        <ele>1485.6</ele>
        <time>2021-08-11T11:20:29Z</time>
      </trkpt>
      <trkpt lat="45.11025" lon="2.67023">
        <ele>1485.7</ele>
        <time>2021-08-11T11:20:30Z</time>
      </trkpt>
      <trkpt lat="45.11026" lon="2.67023">
        <ele>1485.8</ele>
        <time>2021-08-11T11:20:31Z</time>
      </trkpt>
      <trkpt lat="45.11026" lon="2.67023">
        <ele>1485.7</ele>
        <time>2021-08-11T11:20:32Z</time>
      </trkpt>
      <trkpt lat="45.11027" lon="2.67022">
        <ele>1485.6</ele>
        <time>2021-08-11T11:20:33Z</time>
      </trkpt>
      <trkpt lat="45.11028" lon="2.67022">
        <ele>1485.7</ele>
        <time>2021-08-11T11:20:34Z</time>
      </trkpt>
      <trkpt lat="45.11029" lon="2.67022">
        <ele>1486</ele>
        <time>2021-08-11T11:20:35Z</time>
      </trkpt>
      <trkpt lat="45.11029" lon="2.67023">
        <ele>1486.4</ele>
        <time>2021-08-11T11:20:36Z</time>
      </trkpt>
      <trkpt lat="45.1103" lon="2.67024">
        <ele>1486.7</ele>
        <time>2021-08-11T11:20:37Z</time>
      </trkpt>
      <trkpt lat="45.1103" lon="2.67024">
        <ele>1486.9</ele>
        <time>2021-08-11T11:20:38Z</time>
      </trkpt>
      <trkpt lat="45.1103" lon="2.67024">
        <ele>1487.2</ele>
        <time>2021-08-11T11:20:39Z</time>
      </trkpt>
      <trkpt lat="45.11031" lon="2.67025">
        <ele>1487.4</ele>
        <time>2021-08-11T11:20:40Z</time>
      </trkpt>
      <trkpt lat="45.11031" lon="2.67025">
        <ele>1487.5</ele>
        <time>2021-08-11T11:20:41Z</time>
      </trkpt>
      <trkpt lat="45.11031" lon="2.67025">
        <ele>1487.6</ele>
        <time>2021-08-11T11:20:42Z</time>
      </trkpt>
      <trkpt lat="45.11032" lon="2.67025">
        <ele>1487.6</ele>
        <time>2021-08-11T11:20:43Z</time>
      </trkpt>
      <trkpt lat="45.11033" lon="2.67024">
        <ele>1487.7</ele>
        <time>2021-08-11T11:20:44Z</time>
      </trkpt>
      <trkpt lat="45.11034" lon="2.67024">
        <ele>1487.7</ele>
        <time>2021-08-11T11:20:45Z</time>
      </trkpt>
      <trkpt lat="45.11034" lon="2.67024">
        <ele>1487.7</ele>
        <time>2021-08-11T11:20:46Z</time>
      </trkpt>
      <trkpt lat="45.11035" lon="2.67024">
        <ele>1487.8</ele>
        <time>2021-08-11T11:20:47Z</time>
      </trkpt>
      <trkpt lat="45.11036" lon="2.67023">
        <ele>1487.8</ele>
        <time>2021-08-11T11:20:48Z</time>
      </trkpt>
      <trkpt lat="45.11037" lon="2.67023">
        <ele>1487.9</ele>
        <time>2021-08-11T11:20:49Z</time>
      </trkpt>
      <trkpt lat="45.11038" lon="2.67023">
        <ele>1488.1</ele>
        <time>2021-08-11T11:20:50Z</time>
      </trkpt>
      <trkpt lat="45.11038" lon="2.67023">
        <ele>1488.3</ele>
        <time>2021-08-11T11:20:51Z</time>
      </trkpt>
      <trkpt lat="45.11039" lon="2.67023">
        <ele>1488.4</ele>
        <time>2021-08-11T11:20:52Z</time>
      </trkpt>
      <trkpt lat="45.1104" lon="2.67023">
        <ele>1488.4</ele>
        <time>2021-08-11T11:20:53Z</time>
      </trkpt>
      <trkpt lat="45.1104" lon="2.67023">
        <ele>1488.3</ele>
        <time>2021-08-11T11:20:54Z</time>
      </trkpt>
      <trkpt lat="45.11041" lon="2.67022">
        <ele>1488.1</ele>
        <time>2021-08-11T11:20:55Z</time>
      </trkpt>
      <trkpt lat="45.11042" lon="2.67022">
        <ele>1488.1</ele>
        <time>2021-08-11T11:20:56Z</time>
      </trkpt>
      <trkpt lat="45.11043" lon="2.67021">
        <ele>1488.1</ele>
        <time>2021-08-11T11:20:57Z</time>
      </trkpt>
      <trkpt lat="45.11043" lon="2.67021">
        <ele>1488.1</ele>
        <time>2021-08-11T11:20:58Z</time>
      </trkpt>
      <trkpt lat="45.11044" lon="2.67021">
        <ele>1488.2</ele>
        <time>2021-08-11T11:20:59Z</time>
      </trkpt>
      <trkpt lat="45.11045" lon="2.67021">
        <ele>1488.2</ele>
        <time>2021-08-11T11:21:00Z</time>
      </trkpt>
      <trkpt lat="45.11046" lon="2.67021">
        <ele>1488.4</ele>
        <time>2021-08-11T11:21:01Z</time>
      </trkpt>
      <trkpt lat="45.11047" lon="2.67021">
        <ele>1488.7</ele>
        <time>2021-08-11T11:21:02Z</time>
      </trkpt>
      <trkpt lat="45.11047" lon="2.67021">
        <ele>1488.8</ele>
        <time>2021-08-11T11:21:03Z</time>
      </trkpt>
      <trkpt lat="45.11048" lon="2.67021">
        <ele>1488.8</ele>
        <time>2021-08-11T11:21:04Z</time>
      </trkpt>
      <trkpt lat="45.11048" lon="2.6702">
        <ele>1488.7</ele>
        <time>2021-08-11T11:21:05Z</time>
      </trkpt>
      <trkpt lat="45.11049" lon="2.6702">
        <ele>1488.8</ele>
        <time>2021-08-11T11:21:06Z</time>
      </trkpt>
      <trkpt lat="45.1105" lon="2.6702">
        <ele>1489</ele>
        <time>2021-08-11T11:21:07Z</time>
      </trkpt>
      <trkpt lat="45.11051" lon="2.67021">
        <ele>1489.3</ele>
        <time>2021-08-11T11:21:08Z</time>
      </trkpt>
      <trkpt lat="45.11052" lon="2.67021">
        <ele>1489.7</ele>
        <time>2021-08-11T11:21:09Z</time>
      </trkpt>
      <trkpt lat="45.11052" lon="2.67021">
        <ele>1489.9</ele>
        <time>2021-08-11T11:21:10Z</time>
      </trkpt>
      <trkpt lat="45.11053" lon="2.67021">
        <ele>1489.9</ele>
        <time>2021-08-11T11:21:11Z</time>
      </trkpt>
      <trkpt lat="45.11054" lon="2.67021">
        <ele>1489.9</ele>
        <time>2021-08-11T11:21:12Z</time>
      </trkpt>
      <trkpt lat="45.11054" lon="2.67021">
        <ele>1490</ele>
        <time>2021-08-11T11:21:13Z</time>
      </trkpt>
      <trkpt lat="45.11055" lon="2.6702">
        <ele>1489.9</ele>
        <time>2021-08-11T11:21:14Z</time>
      </trkpt>
      <trkpt lat="45.11055" lon="2.6702">
        <ele>1489.9</ele>
        <time>2021-08-11T11:21:15Z</time>
      </trkpt>
      <trkpt lat="45.11056" lon="2.6702">
        <ele>1490</ele>
        <time>2021-08-11T11:21:16Z</time>
      </trkpt>
      <trkpt lat="45.11057" lon="2.6702">
        <ele>1490</ele>
        <time>2021-08-11T11:21:17Z</time>
      </trkpt>
      <trkpt lat="45.11057" lon="2.67019">
        <ele>1489.8</ele>
        <time>2021-08-11T11:21:18Z</time>
      </trkpt>
      <trkpt lat="45.11057" lon="2.67018">
        <ele>1489.4</ele>
        <time>2021-08-11T11:21:19Z</time>
      </trkpt>
      <trkpt lat="45.11057" lon="2.67018">
        <ele>1489.2</ele>
        <time>2021-08-11T11:21:20Z</time>
      </trkpt>
      <trkpt lat="45.11058" lon="2.67017">
        <ele>1488.8</ele>
        <time>2021-08-11T11:21:21Z</time>
      </trkpt>
      <trkpt lat="45.11059" lon="2.67016">
        <ele>1488.7</ele>
        <time>2021-08-11T11:21:22Z</time>
      </trkpt>
      <trkpt lat="45.11059" lon="2.67016">
        <ele>1488.6</ele>
        <time>2021-08-11T11:21:23Z</time>
      </trkpt>
      <trkpt lat="45.1106" lon="2.67016">
        <ele>1488.7</ele>
        <time>2021-08-11T11:21:24Z</time>
      </trkpt>
      <trkpt lat="45.11061" lon="2.67015">
        <ele>1488.8</ele>
        <time>2021-08-11T11:21:25Z</time>
      </trkpt>
      <trkpt lat="45.11062" lon="2.67015">
        <ele>1488.7</ele>
        <time>2021-08-11T11:21:26Z</time>
      </trkpt>
      <trkpt lat="45.11062" lon="2.67014">
        <ele>1488.5</ele>
        <time>2021-08-11T11:21:27Z</time>
      </trkpt>
      <trkpt lat="45.11063" lon="2.67014">
        <ele>1488.5</ele>
        <time>2021-08-11T11:21:28Z</time>
      </trkpt>
      <trkpt lat="45.11064" lon="2.67014">
        <ele>1488.6</ele>
        <time>2021-08-11T11:21:29Z</time>
      </trkpt>
      <trkpt lat="45.11065" lon="2.67013">
        <ele>1488.6</ele>
        <time>2021-08-11T11:21:30Z</time>
      </trkpt>
      <trkpt lat="45.11065" lon="2.67013">
        <ele>1488.6</ele>
        <time>2021-08-11T11:21:31Z</time>
      </trkpt>
      <trkpt lat="45.11066" lon="2.67013">
        <ele>1488.6</ele>
        <time>2021-08-11T11:21:32Z</time>
      </trkpt>
      <trkpt lat="45.11067" lon="2.67013">
        <ele>1488.6</ele>
        <time>2021-08-11T11:21:33Z</time>
      </trkpt>
      <trkpt lat="45.11068" lon="2.67012">
        <ele>1488.7</ele>
        <time>2021-08-11T11:21:34Z</time>
      </trkpt>
      <trkpt lat="45.11068" lon="2.67012">
        <ele>1488.7</ele>
        <time>2021-08-11T11:21:35Z</time>
      </trkpt>
      <trkpt lat="45.11069" lon="2.67013">
        <ele>1489.1</ele>
        <time>2021-08-11T11:21:36Z</time>
      </trkpt>
      <trkpt lat="45.1107" lon="2.67013">
        <ele>1489.4</ele>
        <time>2021-08-11T11:21:37Z</time>
      </trkpt>
      <trkpt lat="45.11071" lon="2.67013">
        <ele>1489.4</ele>
        <time>2021-08-11T11:21:38Z</time>
      </trkpt>
      <trkpt lat="45.11072" lon="2.67013">
        <ele>1489.5</ele>
        <time>2021-08-11T11:21:39Z</time>
      </trkpt>
      <trkpt lat="45.11072" lon="2.67013">
        <ele>1489.6</ele>
        <time>2021-08-11T11:21:40Z</time>
      </trkpt>
      <trkpt lat="45.11073" lon="2.67013">
        <ele>1489.7</ele>
        <time>2021-08-11T11:21:41Z</time>
      </trkpt>
      <trkpt lat="45.11074" lon="2.67012">
        <ele>1489.7</ele>
        <time>2021-08-11T11:21:42Z</time>
      </trkpt>
      <trkpt lat="45.11075" lon="2.67012">
        <ele>1489.8</ele>
        <time>2021-08-11T11:21:43Z</time>
      </trkpt>
      <trkpt lat="45.11075" lon="2.67012">
        <ele>1490</ele>
        <time>2021-08-11T11:21:44Z</time>
      </trkpt>
      <trkpt lat="45.11076" lon="2.67012">
        <ele>1490</ele>
        <time>2021-08-11T11:21:45Z</time>
      </trkpt>
      <trkpt lat="45.11076" lon="2.67012">
        <ele>1490.1</ele>
        <time>2021-08-11T11:21:46Z</time>
      </trkpt>
      <trkpt lat="45.11077" lon="2.67012">
        <ele>1490.1</ele>
        <time>2021-08-11T11:21:47Z</time>
      </trkpt>
      <trkpt lat="45.11078" lon="2.67011">
        <ele>1490</ele>
        <time>2021-08-11T11:21:48Z</time>
      </trkpt>
      <trkpt lat="45.11079" lon="2.67011">
        <ele>1490.1</ele>
        <time>2021-08-11T11:21:49Z</time>
      </trkpt>
      <trkpt lat="45.11079" lon="2.67011">
        <ele>1490.1</ele>
        <time>2021-08-11T11:21:50Z</time>
      </trkpt>
      <trkpt lat="45.1108" lon="2.67011">
        <ele>1490.2</ele>
        <time>2021-08-11T11:21:51Z</time>
      </trkpt>
      <trkpt lat="45.11081" lon="2.67011">
        <ele>1490.4</ele>
        <time>2021-08-11T11:21:52Z</time>
      </trkpt>
      <trkpt lat="45.11081" lon="2.67011">
        <ele>1490.7</ele>
        <time>2021-08-11T11:21:53Z</time>
      </trkpt>
      <trkpt lat="45.11082" lon="2.67011">
        <ele>1490.9</ele>
        <time>2021-08-11T11:21:54Z</time>
      </trkpt>
      <trkpt lat="45.11082" lon="2.67012">
        <ele>1491.1</ele>
        <time>2021-08-11T11:21:55Z</time>
      </trkpt>
      <trkpt lat="45.11083" lon="2.67012">
        <ele>1491.3</ele>
        <time>2021-08-11T11:21:56Z</time>
      </trkpt>
      <trkpt lat="45.11083" lon="2.67012">
        <ele>1491.5</ele>
        <time>2021-08-11T11:21:57Z</time>
      </trkpt>
      <trkpt lat="45.11084" lon="2.67012">
        <ele>1491.8</ele>
        <time>2021-08-11T11:21:58Z</time>
      </trkpt>
      <trkpt lat="45.11085" lon="2.67013">
        <ele>1492.2</ele>
        <time>2021-08-11T11:21:59Z</time>
      </trkpt>
      <trkpt lat="45.11086" lon="2.67013">
        <ele>1492.4</ele>
        <time>2021-08-11T11:22:00Z</time>
      </trkpt>
      <trkpt lat="45.11086" lon="2.67014">
        <ele>1492.7</ele>
        <time>2021-08-11T11:22:01Z</time>
      </trkpt>
      <trkpt lat="45.11087" lon="2.67014">
        <ele>1493</ele>
        <time>2021-08-11T11:22:02Z</time>
      </trkpt>
      <trkpt lat="45.11088" lon="2.67014">
        <ele>1493.2</ele>
        <time>2021-08-11T11:22:03Z</time>
      </trkpt>
      <trkpt lat="45.11088" lon="2.67014">
        <ele>1493.3</ele>
        <time>2021-08-11T11:22:04Z</time>
      </trkpt>
      <trkpt lat="45.11089" lon="2.67014">
        <ele>1493.3</ele>
        <time>2021-08-11T11:22:05Z</time>
      </trkpt>
      <trkpt lat="45.11089" lon="2.67014">
        <ele>1493.3</ele>
        <time>2021-08-11T11:22:06Z</time>
      </trkpt>
      <trkpt lat="45.1109" lon="2.67014">
        <ele>1493.4</ele>
        <time>2021-08-11T11:22:07Z</time>
      </trkpt>
      <trkpt lat="45.11091" lon="2.67014">
        <ele>1493.7</ele>
        <time>2021-08-11T11:22:08Z</time>
      </trkpt>
      <trkpt lat="45.11091" lon="2.67014">
        <ele>1493.8</ele>
        <time>2021-08-11T11:22:09Z</time>
      </trkpt>
      <trkpt lat="45.11091" lon="2.67015">
        <ele>1494</ele>
        <time>2021-08-11T11:22:10Z</time>
      </trkpt>
      <trkpt lat="45.11092" lon="2.67015">
        <ele>1494.2</ele>
        <time>2021-08-11T11:22:11Z</time>
      </trkpt>
      <trkpt lat="45.11092" lon="2.67015">
        <ele>1494.4</ele>
        <time>2021-08-11T11:22:12Z</time>
      </trkpt>
      <trkpt lat="45.11093" lon="2.67015">
        <ele>1494.4</ele>
        <time>2021-08-11T11:22:13Z</time>
      </trkpt>
      <trkpt lat="45.11093" lon="2.67014">
        <ele>1494.3</ele>
        <time>2021-08-11T11:22:14Z</time>
      </trkpt>
      <trkpt lat="45.11094" lon="2.67014">
        <ele>1494.2</ele>
        <time>2021-08-11T11:22:15Z</time>
      </trkpt>
      <trkpt lat="45.11094" lon="2.67013">
        <ele>1494</ele>
        <time>2021-08-11T11:22:16Z</time>
      </trkpt>
      <trkpt lat="45.11095" lon="2.67013">
        <ele>1493.8</ele>
        <time>2021-08-11T11:22:17Z</time>
      </trkpt>
      <trkpt lat="45.11095" lon="2.67012">
        <ele>1493.8</ele>
        <time>2021-08-11T11:22:18Z</time>
      </trkpt>
      <trkpt lat="45.11096" lon="2.67012">
        <ele>1493.6</ele>
        <time>2021-08-11T11:22:19Z</time>
      </trkpt>
      <trkpt lat="45.11097" lon="2.67012">
        <ele>1493.8</ele>
        <time>2021-08-11T11:22:20Z</time>
      </trkpt>
      <trkpt lat="45.11097" lon="2.67012">
        <ele>1494</ele>
        <time>2021-08-11T11:22:21Z</time>
      </trkpt>
      <trkpt lat="45.11098" lon="2.67012">
        <ele>1494.2</ele>
        <time>2021-08-11T11:22:22Z</time>
      </trkpt>
      <trkpt lat="45.11098" lon="2.67012">
        <ele>1494.2</ele>
        <time>2021-08-11T11:22:23Z</time>
      </trkpt>
      <trkpt lat="45.11098" lon="2.67012">
        <ele>1494.3</ele>
        <time>2021-08-11T11:22:24Z</time>
      </trkpt>
      <trkpt lat="45.11098" lon="2.67012">
        <ele>1494.2</ele>
        <time>2021-08-11T11:22:25Z</time>
      </trkpt>
      <trkpt lat="45.11098" lon="2.67012">
        <ele>1494.3</ele>
        <time>2021-08-11T11:22:26Z</time>
      </trkpt>
      <trkpt lat="45.11098" lon="2.67012">
        <ele>1494.3</ele>
        <time>2021-08-11T11:22:27Z</time>
      </trkpt>
      <trkpt lat="45.11098" lon="2.67012">
        <ele>1494.2</ele>
        <time>2021-08-11T11:22:28Z</time>
      </trkpt>
      <trkpt lat="45.11098" lon="2.67012">
        <ele>1494.2</ele>
        <time>2021-08-11T11:22:29Z</time>
      </trkpt>
      <trkpt lat="45.11098" lon="2.67012">
        <ele>1494.2</ele>
        <time>2021-08-11T11:22:30Z</time>
      </trkpt>
      <trkpt lat="45.11098" lon="2.67012">
        <ele>1494.2</ele>
        <time>2021-08-11T11:22:31Z</time>
      </trkpt>
      <trkpt lat="45.11098" lon="2.67012">
        <ele>1494.2</ele>
        <time>2021-08-11T11:22:32Z</time>
      </trkpt>
      <trkpt lat="45.11098" lon="2.67012">
        <ele>1494.2</ele>
        <time>2021-08-11T11:22:33Z</time>
      </trkpt>
      <trkpt lat="45.11098" lon="2.67012">
        <ele>1494.3</ele>
        <time>2021-08-11T11:22:34Z</time>
      </trkpt>
      <trkpt lat="45.11099" lon="2.67013">
        <ele>1494.4</ele>
        <time>2021-08-11T11:22:35Z</time>
      </trkpt>
      <trkpt lat="45.11099" lon="2.67013">
        <ele>1494.5</ele>
        <time>2021-08-11T11:22:36Z</time>
      </trkpt>
      <trkpt lat="45.11098" lon="2.67012">
        <ele>1494.3</ele>
        <time>2021-08-11T11:22:37Z</time>
      </trkpt>
      <trkpt lat="45.11098" lon="2.67012">
        <ele>1494.3</ele>
        <time>2021-08-11T11:22:38Z</time>
      </trkpt>
      <trkpt lat="45.11098" lon="2.67012">
        <ele>1494.2</ele>
        <time>2021-08-11T11:22:39Z</time>
      </trkpt>
      <trkpt lat="45.11099" lon="2.67012">
        <ele>1494.3</ele>
        <time>2021-08-11T11:22:40Z</time>
      </trkpt>
      <trkpt lat="45.11099" lon="2.67012">
        <ele>1494.2</ele>
        <time>2021-08-11T11:22:41Z</time>
      </trkpt>
      <trkpt lat="45.11099" lon="2.67012">
        <ele>1494.2</ele>
        <time>2021-08-11T11:22:42Z</time>
      </trkpt>
      <trkpt lat="45.11099" lon="2.67012">
        <ele>1494.2</ele>
        <time>2021-08-11T11:22:43Z</time>
      </trkpt>
      <trkpt lat="45.11099" lon="2.67012">
        <ele>1494.2</ele>
        <time>2021-08-11T11:22:44Z</time>
      </trkpt>
      <trkpt lat="45.11099" lon="2.67012">
        <ele>1494.2</ele>
        <time>2021-08-11T11:22:45Z</time>
      </trkpt>
      <trkpt lat="45.11099" lon="2.67012">
        <ele>1494.4</ele>
        <time>2021-08-11T11:22:46Z</time>
      </trkpt>
      <trkpt lat="45.11099" lon="2.67012">
        <ele>1494.4</ele>
        <time>2021-08-11T11:22:47Z</time>
      </trkpt>
      <trkpt lat="45.11099" lon="2.67012">
        <ele>1494.4</ele>
        <time>2021-08-11T11:22:48Z</time>
      </trkpt>
      <trkpt lat="45.11099" lon="2.67012">
        <ele>1494.4</ele>
        <time>2021-08-11T11:22:49Z</time>
      </trkpt>
      <trkpt lat="45.11099" lon="2.67012">
        <ele>1494.4</ele>
        <time>2021-08-11T11:22:50Z</time>
      </trkpt>
      <trkpt lat="45.11099" lon="2.67012">
        <ele>1494.4</ele>
        <time>2021-08-11T11:22:51Z</time>
      </trkpt>
      <trkpt lat="45.111" lon="2.67011">
        <ele>1494.1</ele>
        <time>2021-08-11T11:22:52Z</time>
      </trkpt>
      <trkpt lat="45.111" lon="2.67011">
        <ele>1493.8</ele>
        <time>2021-08-11T11:22:53Z</time>
      </trkpt>
      <trkpt lat="45.11101" lon="2.6701">
        <ele>1493.6</ele>
        <time>2021-08-11T11:22:54Z</time>
      </trkpt>
      <trkpt lat="45.11101" lon="2.67009">
        <ele>1493.5</ele>
        <time>2021-08-11T11:22:55Z</time>
      </trkpt>
      <trkpt lat="45.11102" lon="2.67009">
        <ele>1493.3</ele>
        <time>2021-08-11T11:22:56Z</time>
      </trkpt>
      <trkpt lat="45.11103" lon="2.67008">
        <ele>1493.1</ele>
        <time>2021-08-11T11:22:57Z</time>
      </trkpt>
      <trkpt lat="45.11104" lon="2.67007">
        <ele>1493.1</ele>
        <time>2021-08-11T11:22:58Z</time>
      </trkpt>
      <trkpt lat="45.11105" lon="2.67007">
        <ele>1493.1</ele>
        <time>2021-08-11T11:22:59Z</time>
      </trkpt>
      <trkpt lat="45.11106" lon="2.67007">
        <ele>1493.1</ele>
        <time>2021-08-11T11:23:00Z</time>
      </trkpt>
      <trkpt lat="45.11107" lon="2.67006">
        <ele>1493.1</ele>
        <time>2021-08-11T11:23:01Z</time>
      </trkpt>
      <trkpt lat="45.11108" lon="2.67006">
        <ele>1493.1</ele>
        <time>2021-08-11T11:23:02Z</time>
      </trkpt>
      <trkpt lat="45.11108" lon="2.67005">
        <ele>1492.9</ele>
        <time>2021-08-11T11:23:03Z</time>
      </trkpt>
      <trkpt lat="45.11109" lon="2.67004">
        <ele>1492.8</ele>
        <time>2021-08-11T11:23:04Z</time>
      </trkpt>
      <trkpt lat="45.1111" lon="2.67003">
        <ele>1492.5</ele>
        <time>2021-08-11T11:23:05Z</time>
      </trkpt>
      <trkpt lat="45.11111" lon="2.67003">
        <ele>1492.4</ele>
        <time>2021-08-11T11:23:06Z</time>
      </trkpt>
      <trkpt lat="45.11111" lon="2.67002">
        <ele>1492.2</ele>
        <time>2021-08-11T11:23:07Z</time>
      </trkpt>
      <trkpt lat="45.11112" lon="2.67001">
        <ele>1492.1</ele>
        <time>2021-08-11T11:23:08Z</time>
      </trkpt>
      <trkpt lat="45.11113" lon="2.67001">
        <ele>1492.1</ele>
        <time>2021-08-11T11:23:09Z</time>
      </trkpt>
      <trkpt lat="45.11114" lon="2.67001">
        <ele>1492.2</ele>
        <time>2021-08-11T11:23:10Z</time>
      </trkpt>
      <trkpt lat="45.11115" lon="2.67001">
        <ele>1492.3</ele>
        <time>2021-08-11T11:23:11Z</time>
      </trkpt>
      <trkpt lat="45.11116" lon="2.67">
        <ele>1492.2</ele>
        <time>2021-08-11T11:23:12Z</time>
      </trkpt>
      <trkpt lat="45.11116" lon="2.67">
        <ele>1492.4</ele>
        <time>2021-08-11T11:23:13Z</time>
      </trkpt>
      <trkpt lat="45.11117" lon="2.67">
        <ele>1492.5</ele>
        <time>2021-08-11T11:23:14Z</time>
      </trkpt>
      <trkpt lat="45.11118" lon="2.67">
        <ele>1492.4</ele>
        <time>2021-08-11T11:23:15Z</time>
      </trkpt>
      <trkpt lat="45.11118" lon="2.66999">
        <ele>1492.4</ele>
        <time>2021-08-11T11:23:16Z</time>
      </trkpt>
      <trkpt lat="45.11119" lon="2.66999">
        <ele>1492.4</ele>
        <time>2021-08-11T11:23:17Z</time>
      </trkpt>
      <trkpt lat="45.1112" lon="2.66999">
        <ele>1492.5</ele>
        <time>2021-08-11T11:23:18Z</time>
      </trkpt>
      <trkpt lat="45.11121" lon="2.66999">
        <ele>1492.8</ele>
        <time>2021-08-11T11:23:19Z</time>
      </trkpt>
      <trkpt lat="45.11122" lon="2.66999">
        <ele>1493.1</ele>
        <time>2021-08-11T11:23:20Z</time>
      </trkpt>
      <trkpt lat="45.11122" lon="2.66999">
        <ele>1493.1</ele>
        <time>2021-08-11T11:23:21Z</time>
      </trkpt>
      <trkpt lat="45.11123" lon="2.66999">
        <ele>1493</ele>
        <time>2021-08-11T11:23:22Z</time>
      </trkpt>
      <trkpt lat="45.11124" lon="2.66998">
        <ele>1492.8</ele>
        <time>2021-08-11T11:23:23Z</time>
      </trkpt>
      <trkpt lat="45.11124" lon="2.66997">
        <ele>1492.7</ele>
        <time>2021-08-11T11:23:24Z</time>
      </trkpt>
      <trkpt lat="45.11125" lon="2.66997">
        <ele>1492.7</ele>
        <time>2021-08-11T11:23:25Z</time>
      </trkpt>
      <trkpt lat="45.11126" lon="2.66997">
        <ele>1492.7</ele>
        <time>2021-08-11T11:23:26Z</time>
      </trkpt>
      <trkpt lat="45.11127" lon="2.66996">
        <ele>1492.8</ele>
        <time>2021-08-11T11:23:27Z</time>
      </trkpt>
      <trkpt lat="45.11128" lon="2.66996">
        <ele>1493</ele>
        <time>2021-08-11T11:23:28Z</time>
      </trkpt>
      <trkpt lat="45.11129" lon="2.66997">
        <ele>1493.3</ele>
        <time>2021-08-11T11:23:29Z</time>
      </trkpt>
      <trkpt lat="45.1113" lon="2.66997">
        <ele>1493.5</ele>
        <time>2021-08-11T11:23:30Z</time>
      </trkpt>
      <trkpt lat="45.11131" lon="2.66997">
        <ele>1493.7</ele>
        <time>2021-08-11T11:23:31Z</time>
      </trkpt>
      <trkpt lat="45.11132" lon="2.66997">
        <ele>1493.9</ele>
        <time>2021-08-11T11:23:32Z</time>
      </trkpt>
      <trkpt lat="45.11132" lon="2.66997">
        <ele>1493.9</ele>
        <time>2021-08-11T11:23:33Z</time>
      </trkpt>
      <trkpt lat="45.11133" lon="2.66997">
        <ele>1494.1</ele>
        <time>2021-08-11T11:23:34Z</time>
      </trkpt>
      <trkpt lat="45.11133" lon="2.66997">
        <ele>1494.1</ele>
        <time>2021-08-11T11:23:35Z</time>
      </trkpt>
      <trkpt lat="45.11135" lon="2.66997">
        <ele>1494.3</ele>
        <time>2021-08-11T11:23:36Z</time>
      </trkpt>
      <trkpt lat="45.11135" lon="2.66997">
        <ele>1494.4</ele>
        <time>2021-08-11T11:23:37Z</time>
      </trkpt>
      <trkpt lat="45.11135" lon="2.66996">
        <ele>1494.4</ele>
        <time>2021-08-11T11:23:38Z</time>
      </trkpt>
      <trkpt lat="45.11135" lon="2.66996">
        <ele>1494.3</ele>
        <time>2021-08-11T11:23:39Z</time>
      </trkpt>
      <trkpt lat="45.11135" lon="2.66996">
        <ele>1494.3</ele>
        <time>2021-08-11T11:23:40Z</time>
      </trkpt>
      <trkpt lat="45.11135" lon="2.66996">
        <ele>1494.3</ele>
        <time>2021-08-11T11:23:41Z</time>
      </trkpt>
      <trkpt lat="45.11136" lon="2.66996">
        <ele>1494.4</ele>
        <time>2021-08-11T11:23:42Z</time>
      </trkpt>
      <trkpt lat="45.11136" lon="2.66996">
        <ele>1494.5</ele>
        <time>2021-08-11T11:23:43Z</time>
      </trkpt>
      <trkpt lat="45.11137" lon="2.66996">
        <ele>1494.4</ele>
        <time>2021-08-11T11:23:44Z</time>
      </trkpt>
      <trkpt lat="45.11137" lon="2.66996">
        <ele>1494.4</ele>
        <time>2021-08-11T11:23:45Z</time>
      </trkpt>
      <trkpt lat="45.11138" lon="2.66996">
        <ele>1494.5</ele>
        <time>2021-08-11T11:23:46Z</time>
      </trkpt>
      <trkpt lat="45.11139" lon="2.66996">
        <ele>1494.6</ele>
        <time>2021-08-11T11:23:47Z</time>
      </trkpt>
      <trkpt lat="45.11139" lon="2.66996">
        <ele>1494.8</ele>
        <time>2021-08-11T11:23:48Z</time>
      </trkpt>
      <trkpt lat="45.1114" lon="2.66996">
        <ele>1494.9</ele>
        <time>2021-08-11T11:23:49Z</time>
      </trkpt>
      <trkpt lat="45.11141" lon="2.66996">
        <ele>1495</ele>
        <time>2021-08-11T11:23:50Z</time>
      </trkpt>
      <trkpt lat="45.11142" lon="2.66996">
        <ele>1495.3</ele>
        <time>2021-08-11T11:23:51Z</time>
      </trkpt>
      <trkpt lat="45.11142" lon="2.66996">
        <ele>1495.4</ele>
        <time>2021-08-11T11:23:52Z</time>
      </trkpt>
      <trkpt lat="45.11143" lon="2.66996">
        <ele>1495.6</ele>
        <time>2021-08-11T11:23:53Z</time>
      </trkpt>
      <trkpt lat="45.11144" lon="2.66995">
        <ele>1495.5</ele>
        <time>2021-08-11T11:23:54Z</time>
      </trkpt>
      <trkpt lat="45.11145" lon="2.66995">
        <ele>1495.7</ele>
        <time>2021-08-11T11:23:55Z</time>
      </trkpt>
      <trkpt lat="45.11146" lon="2.66995">
        <ele>1495.9</ele>
        <time>2021-08-11T11:23:56Z</time>
      </trkpt>
      <trkpt lat="45.11147" lon="2.66995">
        <ele>1496</ele>
        <time>2021-08-11T11:23:57Z</time>
      </trkpt>
      <trkpt lat="45.11148" lon="2.66995">
        <ele>1495.9</ele>
        <time>2021-08-11T11:23:58Z</time>
      </trkpt>
      <trkpt lat="45.11149" lon="2.66994">
        <ele>1495.7</ele>
        <time>2021-08-11T11:23:59Z</time>
      </trkpt>
      <trkpt lat="45.11149" lon="2.66993">
        <ele>1495.7</ele>
        <time>2021-08-11T11:24:00Z</time>
      </trkpt>
      <trkpt lat="45.11151" lon="2.66993">
        <ele>1495.8</ele>
        <time>2021-08-11T11:24:01Z</time>
      </trkpt>
      <trkpt lat="45.11152" lon="2.66993">
        <ele>1495.9</ele>
        <time>2021-08-11T11:24:02Z</time>
      </trkpt>
      <trkpt lat="45.11153" lon="2.66993">
        <ele>1496.2</ele>
        <time>2021-08-11T11:24:03Z</time>
      </trkpt>
      <trkpt lat="45.11153" lon="2.66993">
        <ele>1496.4</ele>
        <time>2021-08-11T11:24:04Z</time>
      </trkpt>
      <trkpt lat="45.11154" lon="2.66994">
        <ele>1496.9</ele>
        <time>2021-08-11T11:24:05Z</time>
      </trkpt>
      <trkpt lat="45.11155" lon="2.66994">
        <ele>1497.1</ele>
        <time>2021-08-11T11:24:06Z</time>
      </trkpt>
      <trkpt lat="45.11156" lon="2.66995">
        <ele>1497.4</ele>
        <time>2021-08-11T11:24:07Z</time>
      </trkpt>
      <trkpt lat="45.11157" lon="2.66995">
        <ele>1497.7</ele>
        <time>2021-08-11T11:24:08Z</time>
      </trkpt>
      <trkpt lat="45.11157" lon="2.66995">
        <ele>1497.9</ele>
        <time>2021-08-11T11:24:09Z</time>
      </trkpt>
      <trkpt lat="45.11158" lon="2.66995">
        <ele>1498.1</ele>
        <time>2021-08-11T11:24:10Z</time>
      </trkpt>
      <trkpt lat="45.11159" lon="2.66995">
        <ele>1498.2</ele>
        <time>2021-08-11T11:24:11Z</time>
      </trkpt>
      <trkpt lat="45.1116" lon="2.66995">
        <ele>1498.2</ele>
        <time>2021-08-11T11:24:12Z</time>
      </trkpt>
      <trkpt lat="45.11161" lon="2.66994">
        <ele>1498.2</ele>
        <time>2021-08-11T11:24:13Z</time>
      </trkpt>
      <trkpt lat="45.11162" lon="2.66994">
        <ele>1498.3</ele>
        <time>2021-08-11T11:24:14Z</time>
      </trkpt>
      <trkpt lat="45.11162" lon="2.66994">
        <ele>1498.3</ele>
        <time>2021-08-11T11:24:15Z</time>
      </trkpt>
      <trkpt lat="45.11164" lon="2.66994">
        <ele>1498.5</ele>
        <time>2021-08-11T11:24:16Z</time>
      </trkpt>
      <trkpt lat="45.11165" lon="2.66994">
        <ele>1498.8</ele>
        <time>2021-08-11T11:24:17Z</time>
      </trkpt>
      <trkpt lat="45.11166" lon="2.66994">
        <ele>1499.2</ele>
        <time>2021-08-11T11:24:18Z</time>
      </trkpt>
      <trkpt lat="45.11167" lon="2.66995">
        <ele>1499.6</ele>
        <time>2021-08-11T11:24:19Z</time>
      </trkpt>
      <trkpt lat="45.11167" lon="2.66995">
        <ele>1499.8</ele>
        <time>2021-08-11T11:24:20Z</time>
      </trkpt>
      <trkpt lat="45.11168" lon="2.66995">
        <ele>1499.9</ele>
        <time>2021-08-11T11:24:21Z</time>
      </trkpt>
      <trkpt lat="45.11169" lon="2.66995">
        <ele>1499.9</ele>
        <time>2021-08-11T11:24:22Z</time>
      </trkpt>
      <trkpt lat="45.11169" lon="2.66995">
        <ele>1499.8</ele>
        <time>2021-08-11T11:24:23Z</time>
      </trkpt>
      <trkpt lat="45.1117" lon="2.66995">
        <ele>1499.7</ele>
        <time>2021-08-11T11:24:24Z</time>
      </trkpt>
      <trkpt lat="45.11171" lon="2.66994">
        <ele>1499.5</ele>
        <time>2021-08-11T11:24:25Z</time>
      </trkpt>
      <trkpt lat="45.11172" lon="2.66994">
        <ele>1499.4</ele>
        <time>2021-08-11T11:24:26Z</time>
      </trkpt>
      <trkpt lat="45.11173" lon="2.66993">
        <ele>1499.2</ele>
        <time>2021-08-11T11:24:27Z</time>
      </trkpt>
      <trkpt lat="45.11174" lon="2.66993">
        <ele>1499.1</ele>
        <time>2021-08-11T11:24:28Z</time>
      </trkpt>
      <trkpt lat="45.11175" lon="2.66993">
        <ele>1499.1</ele>
        <time>2021-08-11T11:24:29Z</time>
      </trkpt>
      <trkpt lat="45.11176" lon="2.66993">
        <ele>1499.1</ele>
        <time>2021-08-11T11:24:30Z</time>
      </trkpt>
      <trkpt lat="45.11177" lon="2.66993">
        <ele>1499.1</ele>
        <time>2021-08-11T11:24:31Z</time>
      </trkpt>
      <trkpt lat="45.11178" lon="2.66993">
        <ele>1499.1</ele>
        <time>2021-08-11T11:24:32Z</time>
      </trkpt>
      <trkpt lat="45.11179" lon="2.66993">
        <ele>1499.2</ele>
        <time>2021-08-11T11:24:33Z</time>
      </trkpt>
      <trkpt lat="45.1118" lon="2.66993">
        <ele>1499.2</ele>
        <time>2021-08-11T11:24:34Z</time>
      </trkpt>
      <trkpt lat="45.1118" lon="2.66993">
        <ele>1499.2</ele>
        <time>2021-08-11T11:24:35Z</time>
      </trkpt>
      <trkpt lat="45.11181" lon="2.66993">
        <ele>1499.1</ele>
        <time>2021-08-11T11:24:36Z</time>
      </trkpt>
      <trkpt lat="45.11182" lon="2.66992">
        <ele>1499</ele>
        <time>2021-08-11T11:24:37Z</time>
      </trkpt>
      <trkpt lat="45.11182" lon="2.66992">
        <ele>1498.8</ele>
        <time>2021-08-11T11:24:38Z</time>
      </trkpt>
      <trkpt lat="45.11184" lon="2.66992">
        <ele>1498.7</ele>
        <time>2021-08-11T11:24:39Z</time>
      </trkpt>
      <trkpt lat="45.11185" lon="2.66992">
        <ele>1498.8</ele>
        <time>2021-08-11T11:24:40Z</time>
      </trkpt>
      <trkpt lat="45.11186" lon="2.66992">
        <ele>1499.1</ele>
        <time>2021-08-11T11:24:41Z</time>
      </trkpt>
      <trkpt lat="45.11187" lon="2.66993">
        <ele>1499.3</ele>
        <time>2021-08-11T11:24:42Z</time>
      </trkpt>
      <trkpt lat="45.11188" lon="2.66993">
        <ele>1499.4</ele>
        <time>2021-08-11T11:24:43Z</time>
      </trkpt>
      <trkpt lat="45.11188" lon="2.66993">
        <ele>1499.5</ele>
        <time>2021-08-11T11:24:44Z</time>
      </trkpt>
      <trkpt lat="45.11189" lon="2.66993">
        <ele>1499.7</ele>
        <time>2021-08-11T11:24:45Z</time>
      </trkpt>
      <trkpt lat="45.1119" lon="2.66993">
        <ele>1499.7</ele>
        <time>2021-08-11T11:24:46Z</time>
      </trkpt>
      <trkpt lat="45.11191" lon="2.66993">
        <ele>1499.5</ele>
        <time>2021-08-11T11:24:47Z</time>
      </trkpt>
      <trkpt lat="45.11192" lon="2.66992">
        <ele>1499.3</ele>
        <time>2021-08-11T11:24:48Z</time>
      </trkpt>
      <trkpt lat="45.11193" lon="2.66992">
        <ele>1499.2</ele>
        <time>2021-08-11T11:24:49Z</time>
      </trkpt>
      <trkpt lat="45.11193" lon="2.66992">
        <ele>1499.2</ele>
        <time>2021-08-11T11:24:50Z</time>
      </trkpt>
      <trkpt lat="45.11194" lon="2.66992">
        <ele>1499.1</ele>
        <time>2021-08-11T11:24:51Z</time>
      </trkpt>
      <trkpt lat="45.11195" lon="2.66991">
        <ele>1499</ele>
        <time>2021-08-11T11:24:52Z</time>
      </trkpt>
      <trkpt lat="45.11196" lon="2.66991">
        <ele>1498.8</ele>
        <time>2021-08-11T11:24:53Z</time>
      </trkpt>
      <trkpt lat="45.11197" lon="2.6699">
        <ele>1498.7</ele>
        <time>2021-08-11T11:24:54Z</time>
      </trkpt>
      <trkpt lat="45.11198" lon="2.6699">
        <ele>1498.6</ele>
        <time>2021-08-11T11:24:55Z</time>
      </trkpt>
      <trkpt lat="45.11199" lon="2.6699">
        <ele>1498.6</ele>
        <time>2021-08-11T11:24:56Z</time>
      </trkpt>
      <trkpt lat="45.112" lon="2.6699">
        <ele>1498.5</ele>
        <time>2021-08-11T11:24:57Z</time>
      </trkpt>
      <trkpt lat="45.11201" lon="2.6699">
        <ele>1498.6</ele>
        <time>2021-08-11T11:24:58Z</time>
      </trkpt>
      <trkpt lat="45.11201" lon="2.66989">
        <ele>1498.5</ele>
        <time>2021-08-11T11:24:59Z</time>
      </trkpt>
      <trkpt lat="45.11202" lon="2.66989">
        <ele>1498.5</ele>
        <time>2021-08-11T11:25:00Z</time>
      </trkpt>
      <trkpt lat="45.11203" lon="2.66989">
        <ele>1498.3</ele>
        <time>2021-08-11T11:25:01Z</time>
      </trkpt>
      <trkpt lat="45.11203" lon="2.66988">
        <ele>1498.1</ele>
        <time>2021-08-11T11:25:02Z</time>
      </trkpt>
      <trkpt lat="45.11204" lon="2.66988">
        <ele>1497.9</ele>
        <time>2021-08-11T11:25:03Z</time>
      </trkpt>
      <trkpt lat="45.11204" lon="2.66987">
        <ele>1497.7</ele>
        <time>2021-08-11T11:25:04Z</time>
      </trkpt>
      <trkpt lat="45.11205" lon="2.66987">
        <ele>1497.5</ele>
        <time>2021-08-11T11:25:05Z</time>
      </trkpt>
      <trkpt lat="45.11206" lon="2.66987">
        <ele>1497.6</ele>
        <time>2021-08-11T11:25:06Z</time>
      </trkpt>
      <trkpt lat="45.11207" lon="2.66987">
        <ele>1497.8</ele>
        <time>2021-08-11T11:25:07Z</time>
      </trkpt>
      <trkpt lat="45.11207" lon="2.66987">
        <ele>1497.7</ele>
        <time>2021-08-11T11:25:08Z</time>
      </trkpt>
      <trkpt lat="45.11208" lon="2.66987">
        <ele>1497.6</ele>
        <time>2021-08-11T11:25:09Z</time>
      </trkpt>
      <trkpt lat="45.11209" lon="2.66987">
        <ele>1497.8</ele>
        <time>2021-08-11T11:25:10Z</time>
      </trkpt>
      <trkpt lat="45.1121" lon="2.66987">
        <ele>1497.9</ele>
        <time>2021-08-11T11:25:11Z</time>
      </trkpt>
      <trkpt lat="45.11211" lon="2.66988">
        <ele>1498.2</ele>
        <time>2021-08-11T11:25:12Z</time>
      </trkpt>
      <trkpt lat="45.11212" lon="2.66988">
        <ele>1498.5</ele>
        <time>2021-08-11T11:25:13Z</time>
      </trkpt>
      <trkpt lat="45.11212" lon="2.66989">
        <ele>1498.8</ele>
        <time>2021-08-11T11:25:14Z</time>
      </trkpt>
      <trkpt lat="45.11213" lon="2.66989">
        <ele>1498.9</ele>
        <time>2021-08-11T11:25:15Z</time>
      </trkpt>
      <trkpt lat="45.11213" lon="2.6699">
        <ele>1499</ele>
        <time>2021-08-11T11:25:16Z</time>
      </trkpt>
      <trkpt lat="45.11214" lon="2.6699">
        <ele>1499.1</ele>
        <time>2021-08-11T11:25:17Z</time>
      </trkpt>
      <trkpt lat="45.11215" lon="2.6699">
        <ele>1499.4</ele>
        <time>2021-08-11T11:25:18Z</time>
      </trkpt>
      <trkpt lat="45.11216" lon="2.66991">
        <ele>1499.6</ele>
        <time>2021-08-11T11:25:19Z</time>
      </trkpt>
      <trkpt lat="45.11216" lon="2.66992">
        <ele>1500</ele>
        <time>2021-08-11T11:25:20Z</time>
      </trkpt>
      <trkpt lat="45.11217" lon="2.66992">
        <ele>1500.2</ele>
        <time>2021-08-11T11:25:21Z</time>
      </trkpt>
      <trkpt lat="45.11217" lon="2.66993">
        <ele>1500.4</ele>
        <time>2021-08-11T11:25:22Z</time>
      </trkpt>
      <trkpt lat="45.11218" lon="2.66993">
        <ele>1500.7</ele>
        <time>2021-08-11T11:25:23Z</time>
      </trkpt>
      <trkpt lat="45.11219" lon="2.66994">
        <ele>1500.8</ele>
        <time>2021-08-11T11:25:24Z</time>
      </trkpt>
      <trkpt lat="45.11219" lon="2.66994">
        <ele>1500.9</ele>
        <time>2021-08-11T11:25:25Z</time>
      </trkpt>
      <trkpt lat="45.1122" lon="2.66994">
        <ele>1501.1</ele>
        <time>2021-08-11T11:25:26Z</time>
      </trkpt>
      <trkpt lat="45.11221" lon="2.66995">
        <ele>1501.3</ele>
        <time>2021-08-11T11:25:27Z</time>
      </trkpt>
      <trkpt lat="45.11221" lon="2.66995">
        <ele>1501.6</ele>
        <time>2021-08-11T11:25:28Z</time>
      </trkpt>
      <trkpt lat="45.11222" lon="2.66996">
        <ele>1501.9</ele>
        <time>2021-08-11T11:25:29Z</time>
      </trkpt>
      <trkpt lat="45.11223" lon="2.66997">
        <ele>1502.1</ele>
        <time>2021-08-11T11:25:30Z</time>
      </trkpt>
      <trkpt lat="45.11223" lon="2.66998">
        <ele>1502.4</ele>
        <time>2021-08-11T11:25:31Z</time>
      </trkpt>
      <trkpt lat="45.11224" lon="2.66998">
        <ele>1502.6</ele>
        <time>2021-08-11T11:25:32Z</time>
      </trkpt>
      <trkpt lat="45.11224" lon="2.66999">
        <ele>1502.8</ele>
        <time>2021-08-11T11:25:33Z</time>
      </trkpt>
      <trkpt lat="45.11225" lon="2.66999">
        <ele>1503</ele>
        <time>2021-08-11T11:25:34Z</time>
      </trkpt>
      <trkpt lat="45.11226" lon="2.66999">
        <ele>1503.2</ele>
        <time>2021-08-11T11:25:35Z</time>
      </trkpt>
      <trkpt lat="45.11227" lon="2.67">
        <ele>1503.3</ele>
        <time>2021-08-11T11:25:36Z</time>
      </trkpt>
      <trkpt lat="45.11228" lon="2.67">
        <ele>1503.5</ele>
        <time>2021-08-11T11:25:37Z</time>
      </trkpt>
      <trkpt lat="45.11228" lon="2.67">
        <ele>1503.6</ele>
        <time>2021-08-11T11:25:38Z</time>
      </trkpt>
      <trkpt lat="45.11229" lon="2.67001">
        <ele>1503.7</ele>
        <time>2021-08-11T11:25:39Z</time>
      </trkpt>
      <trkpt lat="45.1123" lon="2.67001">
        <ele>1503.8</ele>
        <time>2021-08-11T11:25:40Z</time>
      </trkpt>
      <trkpt lat="45.11231" lon="2.67001">
        <ele>1504</ele>
        <time>2021-08-11T11:25:41Z</time>
      </trkpt>
      <trkpt lat="45.11232" lon="2.67002">
        <ele>1504.1</ele>
        <time>2021-08-11T11:25:42Z</time>
      </trkpt>
      <trkpt lat="45.11233" lon="2.67002">
        <ele>1504.4</ele>
        <time>2021-08-11T11:25:43Z</time>
      </trkpt>
      <trkpt lat="45.11234" lon="2.67003">
        <ele>1504.6</ele>
        <time>2021-08-11T11:25:44Z</time>
      </trkpt>
      <trkpt lat="45.11235" lon="2.67003">
        <ele>1504.8</ele>
        <time>2021-08-11T11:25:45Z</time>
      </trkpt>
      <trkpt lat="45.11236" lon="2.67004">
        <ele>1505</ele>
        <time>2021-08-11T11:25:46Z</time>
      </trkpt>
      <trkpt lat="45.11236" lon="2.67005">
        <ele>1505.4</ele>
        <time>2021-08-11T11:25:47Z</time>
      </trkpt>
      <trkpt lat="45.11237" lon="2.67005">
        <ele>1505.5</ele>
        <time>2021-08-11T11:25:48Z</time>
      </trkpt>
      <trkpt lat="45.11237" lon="2.67005">
        <ele>1505.6</ele>
        <time>2021-08-11T11:25:49Z</time>
      </trkpt>
      <trkpt lat="45.11238" lon="2.67005">
        <ele>1505.6</ele>
        <time>2021-08-11T11:25:50Z</time>
      </trkpt>
      <trkpt lat="45.11239" lon="2.67006">
        <ele>1505.7</ele>
        <time>2021-08-11T11:25:51Z</time>
      </trkpt>
      <trkpt lat="45.1124" lon="2.67006">
        <ele>1505.9</ele>
        <time>2021-08-11T11:25:52Z</time>
      </trkpt>
      <trkpt lat="45.11241" lon="2.67006">
        <ele>1506</ele>
        <time>2021-08-11T11:25:53Z</time>
      </trkpt>
      <trkpt lat="45.11241" lon="2.67006">
        <ele>1506.1</ele>
        <time>2021-08-11T11:25:54Z</time>
      </trkpt>
      <trkpt lat="45.11242" lon="2.67006">
        <ele>1506</ele>
        <time>2021-08-11T11:25:55Z</time>
      </trkpt>
      <trkpt lat="45.11242" lon="2.67006">
        <ele>1506</ele>
        <time>2021-08-11T11:25:56Z</time>
      </trkpt>
      <trkpt lat="45.11243" lon="2.67006">
        <ele>1506.1</ele>
        <time>2021-08-11T11:25:57Z</time>
      </trkpt>
      <trkpt lat="45.11244" lon="2.67007">
        <ele>1506.3</ele>
        <time>2021-08-11T11:25:58Z</time>
      </trkpt>
      <trkpt lat="45.11244" lon="2.67007">
        <ele>1506.5</ele>
        <time>2021-08-11T11:25:59Z</time>
      </trkpt>
      <trkpt lat="45.11245" lon="2.67008">
        <ele>1506.8</ele>
        <time>2021-08-11T11:26:00Z</time>
      </trkpt>
      <trkpt lat="45.11246" lon="2.67008">
        <ele>1506.7</ele>
        <time>2021-08-11T11:26:01Z</time>
      </trkpt>
      <trkpt lat="45.11247" lon="2.67007">
        <ele>1506.5</ele>
        <time>2021-08-11T11:26:02Z</time>
      </trkpt>
      <trkpt lat="45.11248" lon="2.67007">
        <ele>1506.5</ele>
        <time>2021-08-11T11:26:03Z</time>
      </trkpt>
      <trkpt lat="45.11248" lon="2.67007">
        <ele>1506.5</ele>
        <time>2021-08-11T11:26:04Z</time>
      </trkpt>
      <trkpt lat="45.11249" lon="2.67008">
        <ele>1506.7</ele>
        <time>2021-08-11T11:26:05Z</time>
      </trkpt>
      <trkpt lat="45.1125" lon="2.67008">
        <ele>1506.8</ele>
        <time>2021-08-11T11:26:06Z</time>
      </trkpt>
      <trkpt lat="45.1125" lon="2.67008">
        <ele>1506.9</ele>
        <time>2021-08-11T11:26:07Z</time>
      </trkpt>
      <trkpt lat="45.1125" lon="2.67008">
        <ele>1506.9</ele>
        <time>2021-08-11T11:26:08Z</time>
      </trkpt>
      <trkpt lat="45.11251" lon="2.67008">
        <ele>1507.1</ele>
        <time>2021-08-11T11:26:09Z</time>
      </trkpt>
      <trkpt lat="45.11251" lon="2.67009">
        <ele>1507.2</ele>
        <time>2021-08-11T11:26:10Z</time>
      </trkpt>
      <trkpt lat="45.11251" lon="2.67009">
        <ele>1507.2</ele>
        <time>2021-08-11T11:26:11Z</time>
      </trkpt>
      <trkpt lat="45.11252" lon="2.67009">
        <ele>1507.4</ele>
        <time>2021-08-11T11:26:12Z</time>
      </trkpt>
      <trkpt lat="45.11253" lon="2.67009">
        <ele>1507.4</ele>
        <time>2021-08-11T11:26:13Z</time>
      </trkpt>
      <trkpt lat="45.11253" lon="2.67009">
        <ele>1507.5</ele>
        <time>2021-08-11T11:26:14Z</time>
      </trkpt>
      <trkpt lat="45.11254" lon="2.6701">
        <ele>1507.8</ele>
        <time>2021-08-11T11:26:15Z</time>
      </trkpt>
      <trkpt lat="45.11254" lon="2.6701">
        <ele>1508</ele>
        <time>2021-08-11T11:26:16Z</time>
      </trkpt>
      <trkpt lat="45.11254" lon="2.6701">
        <ele>1508.1</ele>
        <time>2021-08-11T11:26:17Z</time>
      </trkpt>
      <trkpt lat="45.11255" lon="2.6701">
        <ele>1508.1</ele>
        <time>2021-08-11T11:26:18Z</time>
      </trkpt>
      <trkpt lat="45.11255" lon="2.67011">
        <ele>1508.3</ele>
        <time>2021-08-11T11:26:19Z</time>
      </trkpt>
      <trkpt lat="45.11256" lon="2.67011">
        <ele>1508.3</ele>
        <time>2021-08-11T11:26:20Z</time>
      </trkpt>
      <trkpt lat="45.11256" lon="2.67011">
        <ele>1508.5</ele>
        <time>2021-08-11T11:26:21Z</time>
      </trkpt>
      <trkpt lat="45.11257" lon="2.67012">
        <ele>1508.8</ele>
        <time>2021-08-11T11:26:22Z</time>
      </trkpt>
      <trkpt lat="45.11257" lon="2.67012">
        <ele>1509</ele>
        <time>2021-08-11T11:26:23Z</time>
      </trkpt>
      <trkpt lat="45.11258" lon="2.67012">
        <ele>1509</ele>
        <time>2021-08-11T11:26:24Z</time>
      </trkpt>
      <trkpt lat="45.11259" lon="2.67012">
        <ele>1508.9</ele>
        <time>2021-08-11T11:26:25Z</time>
      </trkpt>
      <trkpt lat="45.1126" lon="2.67011">
        <ele>1509</ele>
        <time>2021-08-11T11:26:26Z</time>
      </trkpt>
      <trkpt lat="45.1126" lon="2.67011">
        <ele>1509</ele>
        <time>2021-08-11T11:26:27Z</time>
      </trkpt>
      <trkpt lat="45.11261" lon="2.67011">
        <ele>1509</ele>
        <time>2021-08-11T11:26:28Z</time>
      </trkpt>
      <trkpt lat="45.11261" lon="2.67011">
        <ele>1509</ele>
        <time>2021-08-11T11:26:29Z</time>
      </trkpt>
      <trkpt lat="45.11262" lon="2.67011">
        <ele>1509</ele>
        <time>2021-08-11T11:26:30Z</time>
      </trkpt>
      <trkpt lat="45.11263" lon="2.67011">
        <ele>1509</ele>
        <time>2021-08-11T11:26:31Z</time>
      </trkpt>
      <trkpt lat="45.11263" lon="2.6701">
        <ele>1508.9</ele>
        <time>2021-08-11T11:26:32Z</time>
      </trkpt>
      <trkpt lat="45.11264" lon="2.6701">
        <ele>1508.7</ele>
        <time>2021-08-11T11:26:33Z</time>
      </trkpt>
      <trkpt lat="45.11265" lon="2.67009">
        <ele>1508.6</ele>
        <time>2021-08-11T11:26:34Z</time>
      </trkpt>
      <trkpt lat="45.11266" lon="2.67008">
        <ele>1508.4</ele>
        <time>2021-08-11T11:26:35Z</time>
      </trkpt>
      <trkpt lat="45.11266" lon="2.67008">
        <ele>1508.2</ele>
        <time>2021-08-11T11:26:36Z</time>
      </trkpt>
      <trkpt lat="45.11267" lon="2.67007">
        <ele>1508</ele>
        <time>2021-08-11T11:26:37Z</time>
      </trkpt>
      <trkpt lat="45.11267" lon="2.67006">
        <ele>1507.8</ele>
        <time>2021-08-11T11:26:38Z</time>
      </trkpt>
      <trkpt lat="45.11268" lon="2.67006">
        <ele>1507.7</ele>
        <time>2021-08-11T11:26:39Z</time>
      </trkpt>
      <trkpt lat="45.11268" lon="2.67005">
        <ele>1507.6</ele>
        <time>2021-08-11T11:26:40Z</time>
      </trkpt>
      <trkpt lat="45.11268" lon="2.67005">
        <ele>1507.6</ele>
        <time>2021-08-11T11:26:41Z</time>
      </trkpt>
      <trkpt lat="45.11268" lon="2.67005">
        <ele>1507.7</ele>
        <time>2021-08-11T11:26:42Z</time>
      </trkpt>
      <trkpt lat="45.11269" lon="2.67005">
        <ele>1507.7</ele>
        <time>2021-08-11T11:26:43Z</time>
      </trkpt>
      <trkpt lat="45.1127" lon="2.67005">
        <ele>1507.7</ele>
        <time>2021-08-11T11:26:44Z</time>
      </trkpt>
      <trkpt lat="45.1127" lon="2.67005">
        <ele>1507.8</ele>
        <time>2021-08-11T11:26:45Z</time>
      </trkpt>
      <trkpt lat="45.11271" lon="2.67005">
        <ele>1507.8</ele>
        <time>2021-08-11T11:26:46Z</time>
      </trkpt>
      <trkpt lat="45.11271" lon="2.67005">
        <ele>1507.7</ele>
        <time>2021-08-11T11:26:47Z</time>
      </trkpt>
      <trkpt lat="45.11272" lon="2.67004">
        <ele>1507.6</ele>
        <time>2021-08-11T11:26:48Z</time>
      </trkpt>
      <trkpt lat="45.11273" lon="2.67004">
        <ele>1507.5</ele>
        <time>2021-08-11T11:26:49Z</time>
      </trkpt>
      <trkpt lat="45.11273" lon="2.67003">
        <ele>1507.3</ele>
        <time>2021-08-11T11:26:50Z</time>
      </trkpt>
      <trkpt lat="45.11274" lon="2.67002">
        <ele>1507</ele>
        <time>2021-08-11T11:26:51Z</time>
      </trkpt>
      <trkpt lat="45.11274" lon="2.67001">
        <ele>1506.6</ele>
        <time>2021-08-11T11:26:52Z</time>
      </trkpt>
      <trkpt lat="45.11275" lon="2.67">
        <ele>1506.4</ele>
        <time>2021-08-11T11:26:53Z</time>
      </trkpt>
      <trkpt lat="45.11276" lon="2.66999">
        <ele>1506.3</ele>
        <time>2021-08-11T11:26:54Z</time>
      </trkpt>
      <trkpt lat="45.11277" lon="2.66999">
        <ele>1506</ele>
        <time>2021-08-11T11:26:55Z</time>
      </trkpt>
      <trkpt lat="45.11278" lon="2.66998">
        <ele>1505.9</ele>
        <time>2021-08-11T11:26:56Z</time>
      </trkpt>
      <trkpt lat="45.11278" lon="2.66997">
        <ele>1505.8</ele>
        <time>2021-08-11T11:26:57Z</time>
      </trkpt>
      <trkpt lat="45.11279" lon="2.66997">
        <ele>1505.8</ele>
        <time>2021-08-11T11:26:58Z</time>
      </trkpt>
      <trkpt lat="45.1128" lon="2.66997">
        <ele>1505.8</ele>
        <time>2021-08-11T11:26:59Z</time>
      </trkpt>
      <trkpt lat="45.11281" lon="2.66997">
        <ele>1505.8</ele>
        <time>2021-08-11T11:27:00Z</time>
      </trkpt>
      <trkpt lat="45.11282" lon="2.66996">
        <ele>1505.8</ele>
        <time>2021-08-11T11:27:01Z</time>
      </trkpt>
      <trkpt lat="45.11283" lon="2.66996">
        <ele>1505.8</ele>
        <time>2021-08-11T11:27:02Z</time>
      </trkpt>
      <trkpt lat="45.11283" lon="2.66996">
        <ele>1505.9</ele>
        <time>2021-08-11T11:27:03Z</time>
      </trkpt>
      <trkpt lat="45.11284" lon="2.66996">
        <ele>1505.8</ele>
        <time>2021-08-11T11:27:04Z</time>
      </trkpt>
      <trkpt lat="45.11285" lon="2.66995">
        <ele>1505.7</ele>
        <time>2021-08-11T11:27:05Z</time>
      </trkpt>
      <trkpt lat="45.11286" lon="2.66995">
        <ele>1505.6</ele>
        <time>2021-08-11T11:27:06Z</time>
      </trkpt>
      <trkpt lat="45.11287" lon="2.66995">
        <ele>1505.7</ele>
        <time>2021-08-11T11:27:07Z</time>
      </trkpt>
      <trkpt lat="45.11287" lon="2.66995">
        <ele>1505.7</ele>
        <time>2021-08-11T11:27:08Z</time>
      </trkpt>
      <trkpt lat="45.11288" lon="2.66994">
        <ele>1505.7</ele>
        <time>2021-08-11T11:27:09Z</time>
      </trkpt>
      <trkpt lat="45.11289" lon="2.66994">
        <ele>1505.6</ele>
        <time>2021-08-11T11:27:10Z</time>
      </trkpt>
      <trkpt lat="45.11289" lon="2.66993">
        <ele>1505.4</ele>
        <time>2021-08-11T11:27:11Z</time>
      </trkpt>
      <trkpt lat="45.1129" lon="2.66992">
        <ele>1505.3</ele>
        <time>2021-08-11T11:27:12Z</time>
      </trkpt>
      <trkpt lat="45.11291" lon="2.66992">
        <ele>1505.2</ele>
        <time>2021-08-11T11:27:13Z</time>
      </trkpt>
      <trkpt lat="45.11291" lon="2.66991">
        <ele>1504.9</ele>
        <time>2021-08-11T11:27:14Z</time>
      </trkpt>
      <trkpt lat="45.11292" lon="2.6699">
        <ele>1504.7</ele>
        <time>2021-08-11T11:27:15Z</time>
      </trkpt>
      <trkpt lat="45.11293" lon="2.66989">
        <ele>1504.6</ele>
        <time>2021-08-11T11:27:16Z</time>
      </trkpt>
      <trkpt lat="45.11294" lon="2.66988">
        <ele>1504.4</ele>
        <time>2021-08-11T11:27:17Z</time>
      </trkpt>
      <trkpt lat="45.11295" lon="2.66987">
        <ele>1504.2</ele>
        <time>2021-08-11T11:27:18Z</time>
      </trkpt>
      <trkpt lat="45.11296" lon="2.66987">
        <ele>1504</ele>
        <time>2021-08-11T11:27:19Z</time>
      </trkpt>
      <trkpt lat="45.11297" lon="2.66986">
        <ele>1503.9</ele>
        <time>2021-08-11T11:27:20Z</time>
      </trkpt>
      <trkpt lat="45.11297" lon="2.66985">
        <ele>1503.7</ele>
        <time>2021-08-11T11:27:21Z</time>
      </trkpt>
      <trkpt lat="45.11298" lon="2.66984">
        <ele>1503.4</ele>
        <time>2021-08-11T11:27:22Z</time>
      </trkpt>
      <trkpt lat="45.11299" lon="2.66983">
        <ele>1503.2</ele>
        <time>2021-08-11T11:27:23Z</time>
      </trkpt>
      <trkpt lat="45.113" lon="2.66983">
        <ele>1503.2</ele>
        <time>2021-08-11T11:27:24Z</time>
      </trkpt>
      <trkpt lat="45.11301" lon="2.66982">
        <ele>1503.1</ele>
        <time>2021-08-11T11:27:25Z</time>
      </trkpt>
      <trkpt lat="45.11302" lon="2.66982">
        <ele>1503</ele>
        <time>2021-08-11T11:27:26Z</time>
      </trkpt>
      <trkpt lat="45.11303" lon="2.66981">
        <ele>1502.9</ele>
        <time>2021-08-11T11:27:27Z</time>
      </trkpt>
      <trkpt lat="45.11304" lon="2.66981">
        <ele>1502.8</ele>
        <time>2021-08-11T11:27:28Z</time>
      </trkpt>
      <trkpt lat="45.11305" lon="2.6698">
        <ele>1502.8</ele>
        <time>2021-08-11T11:27:29Z</time>
      </trkpt>
      <trkpt lat="45.11306" lon="2.6698">
        <ele>1502.7</ele>
        <time>2021-08-11T11:27:30Z</time>
      </trkpt>
      <trkpt lat="45.11307" lon="2.6698">
        <ele>1502.8</ele>
        <time>2021-08-11T11:27:31Z</time>
      </trkpt>
      <trkpt lat="45.11308" lon="2.6698">
        <ele>1502.9</ele>
        <time>2021-08-11T11:27:32Z</time>
      </trkpt>
      <trkpt lat="45.11309" lon="2.66979">
        <ele>1502.8</ele>
        <time>2021-08-11T11:27:33Z</time>
      </trkpt>
      <trkpt lat="45.1131" lon="2.66979">
        <ele>1502.8</ele>
        <time>2021-08-11T11:27:34Z</time>
      </trkpt>
      <trkpt lat="45.11311" lon="2.66978">
        <ele>1502.6</ele>
        <time>2021-08-11T11:27:35Z</time>
      </trkpt>
      <trkpt lat="45.11312" lon="2.66978">
        <ele>1502.6</ele>
        <time>2021-08-11T11:27:36Z</time>
      </trkpt>
      <trkpt lat="45.11313" lon="2.66977">
        <ele>1502.6</ele>
        <time>2021-08-11T11:27:37Z</time>
      </trkpt>
      <trkpt lat="45.11314" lon="2.66977">
        <ele>1502.6</ele>
        <time>2021-08-11T11:27:38Z</time>
      </trkpt>
      <trkpt lat="45.11315" lon="2.66977">
        <ele>1502.6</ele>
        <time>2021-08-11T11:27:39Z</time>
      </trkpt>
      <trkpt lat="45.11316" lon="2.66976">
        <ele>1502.6</ele>
        <time>2021-08-11T11:27:40Z</time>
      </trkpt>
      <trkpt lat="45.11317" lon="2.66976">
        <ele>1502.5</ele>
        <time>2021-08-11T11:27:41Z</time>
      </trkpt>
      <trkpt lat="45.11318" lon="2.66975">
        <ele>1502.5</ele>
        <time>2021-08-11T11:27:42Z</time>
      </trkpt>
      <trkpt lat="45.11319" lon="2.66976">
        <ele>1502.7</ele>
        <time>2021-08-11T11:27:43Z</time>
      </trkpt>
      <trkpt lat="45.1132" lon="2.66976">
        <ele>1503</ele>
        <time>2021-08-11T11:27:44Z</time>
      </trkpt>
      <trkpt lat="45.1132" lon="2.66977">
        <ele>1503.2</ele>
        <time>2021-08-11T11:27:45Z</time>
      </trkpt>
      <trkpt lat="45.11321" lon="2.66977">
        <ele>1503.4</ele>
        <time>2021-08-11T11:27:46Z</time>
      </trkpt>
      <trkpt lat="45.11322" lon="2.66978">
        <ele>1503.6</ele>
        <time>2021-08-11T11:27:47Z</time>
      </trkpt>
      <trkpt lat="45.11323" lon="2.66978">
        <ele>1503.7</ele>
        <time>2021-08-11T11:27:48Z</time>
      </trkpt>
      <trkpt lat="45.11324" lon="2.66978">
        <ele>1504</ele>
        <time>2021-08-11T11:27:49Z</time>
      </trkpt>
      <trkpt lat="45.11325" lon="2.66979">
        <ele>1504.3</ele>
        <time>2021-08-11T11:27:50Z</time>
      </trkpt>
      <trkpt lat="45.11325" lon="2.6698">
        <ele>1504.7</ele>
        <time>2021-08-11T11:27:51Z</time>
      </trkpt>
      <trkpt lat="45.11326" lon="2.66981">
        <ele>1505</ele>
        <time>2021-08-11T11:27:52Z</time>
      </trkpt>
      <trkpt lat="45.11327" lon="2.66981">
        <ele>1505.2</ele>
        <time>2021-08-11T11:27:53Z</time>
      </trkpt>
      <trkpt lat="45.11328" lon="2.66982">
        <ele>1505.6</ele>
        <time>2021-08-11T11:27:54Z</time>
      </trkpt>
      <trkpt lat="45.11329" lon="2.66982">
        <ele>1505.8</ele>
        <time>2021-08-11T11:27:55Z</time>
      </trkpt>
      <trkpt lat="45.11329" lon="2.66982">
        <ele>1505.9</ele>
        <time>2021-08-11T11:27:56Z</time>
      </trkpt>
      <trkpt lat="45.1133" lon="2.66982">
        <ele>1505.9</ele>
        <time>2021-08-11T11:27:57Z</time>
      </trkpt>
      <trkpt lat="45.11331" lon="2.66982">
        <ele>1506</ele>
        <time>2021-08-11T11:27:58Z</time>
      </trkpt>
      <trkpt lat="45.11331" lon="2.66983">
        <ele>1506.1</ele>
        <time>2021-08-11T11:27:59Z</time>
      </trkpt>
      <trkpt lat="45.11332" lon="2.66983">
        <ele>1506.3</ele>
        <time>2021-08-11T11:28:00Z</time>
      </trkpt>
      <trkpt lat="45.11333" lon="2.66984">
        <ele>1506.6</ele>
        <time>2021-08-11T11:28:01Z</time>
      </trkpt>
      <trkpt lat="45.11333" lon="2.66984">
        <ele>1506.7</ele>
        <time>2021-08-11T11:28:02Z</time>
      </trkpt>
      <trkpt lat="45.11334" lon="2.66984">
        <ele>1506.9</ele>
        <time>2021-08-11T11:28:03Z</time>
      </trkpt>
      <trkpt lat="45.11334" lon="2.66985">
        <ele>1507.1</ele>
        <time>2021-08-11T11:28:04Z</time>
      </trkpt>
      <trkpt lat="45.11335" lon="2.66985">
        <ele>1507.2</ele>
        <time>2021-08-11T11:28:05Z</time>
      </trkpt>
      <trkpt lat="45.11335" lon="2.66985">
        <ele>1507.4</ele>
        <time>2021-08-11T11:28:06Z</time>
      </trkpt>
      <trkpt lat="45.11336" lon="2.66985">
        <ele>1507.5</ele>
        <time>2021-08-11T11:28:07Z</time>
      </trkpt>
      <trkpt lat="45.11337" lon="2.66985">
        <ele>1507.6</ele>
        <time>2021-08-11T11:28:08Z</time>
      </trkpt>
      <trkpt lat="45.11337" lon="2.66985">
        <ele>1507.7</ele>
        <time>2021-08-11T11:28:09Z</time>
      </trkpt>
      <trkpt lat="45.11338" lon="2.66985">
        <ele>1507.8</ele>
        <time>2021-08-11T11:28:10Z</time>
      </trkpt>
      <trkpt lat="45.11339" lon="2.66985">
        <ele>1507.7</ele>
        <time>2021-08-11T11:28:11Z</time>
      </trkpt>
      <trkpt lat="45.11339" lon="2.66984">
        <ele>1507.5</ele>
        <time>2021-08-11T11:28:12Z</time>
      </trkpt>
      <trkpt lat="45.11339" lon="2.66983">
        <ele>1507.4</ele>
        <time>2021-08-11T11:28:13Z</time>
      </trkpt>
      <trkpt lat="45.1134" lon="2.66982">
        <ele>1507.1</ele>
        <time>2021-08-11T11:28:14Z</time>
      </trkpt>
      <trkpt lat="45.1134" lon="2.66982">
        <ele>1506.9</ele>
        <time>2021-08-11T11:28:15Z</time>
      </trkpt>
      <trkpt lat="45.11341" lon="2.66981">
        <ele>1506.9</ele>
        <time>2021-08-11T11:28:16Z</time>
      </trkpt>
      <trkpt lat="45.11342" lon="2.66981">
        <ele>1507.1</ele>
        <time>2021-08-11T11:28:17Z</time>
      </trkpt>
      <trkpt lat="45.11343" lon="2.66982">
        <ele>1507.3</ele>
        <time>2021-08-11T11:28:18Z</time>
      </trkpt>
      <trkpt lat="45.11343" lon="2.66982">
        <ele>1507.5</ele>
        <time>2021-08-11T11:28:19Z</time>
      </trkpt>
      <trkpt lat="45.11344" lon="2.66982">
        <ele>1507.6</ele>
        <time>2021-08-11T11:28:20Z</time>
      </trkpt>
      <trkpt lat="45.11345" lon="2.66982">
        <ele>1507.8</ele>
        <time>2021-08-11T11:28:21Z</time>
      </trkpt>
      <trkpt lat="45.11345" lon="2.66982">
        <ele>1507.8</ele>
        <time>2021-08-11T11:28:22Z</time>
      </trkpt>
      <trkpt lat="45.11346" lon="2.66982">
        <ele>1507.8</ele>
        <time>2021-08-11T11:28:23Z</time>
      </trkpt>
      <trkpt lat="45.11347" lon="2.66981">
        <ele>1507.7</ele>
        <time>2021-08-11T11:28:24Z</time>
      </trkpt>
      <trkpt lat="45.11348" lon="2.66982">
        <ele>1508</ele>
        <time>2021-08-11T11:28:25Z</time>
      </trkpt>
      <trkpt lat="45.11349" lon="2.66982">
        <ele>1508.2</ele>
        <time>2021-08-11T11:28:26Z</time>
      </trkpt>
      <trkpt lat="45.1135" lon="2.66983">
        <ele>1508.5</ele>
        <time>2021-08-11T11:28:27Z</time>
      </trkpt>
      <trkpt lat="45.1135" lon="2.66983">
        <ele>1508.7</ele>
        <time>2021-08-11T11:28:28Z</time>
      </trkpt>
      <trkpt lat="45.11351" lon="2.66983">
        <ele>1508.9</ele>
        <time>2021-08-11T11:28:29Z</time>
      </trkpt>
      <trkpt lat="45.11352" lon="2.66983">
        <ele>1509.1</ele>
        <time>2021-08-11T11:28:30Z</time>
      </trkpt>
      <trkpt lat="45.11353" lon="2.66984">
        <ele>1509.3</ele>
        <time>2021-08-11T11:28:31Z</time>
      </trkpt>
      <trkpt lat="45.11354" lon="2.66984">
        <ele>1509.6</ele>
        <time>2021-08-11T11:28:32Z</time>
      </trkpt>
      <trkpt lat="45.11355" lon="2.66985">
        <ele>1509.8</ele>
        <time>2021-08-11T11:28:33Z</time>
      </trkpt>
      <trkpt lat="45.11355" lon="2.66985">
        <ele>1509.9</ele>
        <time>2021-08-11T11:28:34Z</time>
      </trkpt>
      <trkpt lat="45.11356" lon="2.66985">
        <ele>1510</ele>
        <time>2021-08-11T11:28:35Z</time>
      </trkpt>
      <trkpt lat="45.11357" lon="2.66985">
        <ele>1510.3</ele>
        <time>2021-08-11T11:28:36Z</time>
      </trkpt>
      <trkpt lat="45.11358" lon="2.66986">
        <ele>1510.5</ele>
        <time>2021-08-11T11:28:37Z</time>
      </trkpt>
      <trkpt lat="45.11359" lon="2.66986">
        <ele>1510.9</ele>
        <time>2021-08-11T11:28:38Z</time>
      </trkpt>
      <trkpt lat="45.11359" lon="2.66987">
        <ele>1511.1</ele>
        <time>2021-08-11T11:28:39Z</time>
      </trkpt>
      <trkpt lat="45.1136" lon="2.66987">
        <ele>1511.3</ele>
        <time>2021-08-11T11:28:40Z</time>
      </trkpt>
      <trkpt lat="45.11361" lon="2.66988">
        <ele>1511.5</ele>
        <time>2021-08-11T11:28:41Z</time>
      </trkpt>
      <trkpt lat="45.11361" lon="2.66988">
        <ele>1511.7</ele>
        <time>2021-08-11T11:28:42Z</time>
      </trkpt>
      <trkpt lat="45.11361" lon="2.66988">
        <ele>1511.8</ele>
        <time>2021-08-11T11:28:43Z</time>
      </trkpt>
      <trkpt lat="45.11362" lon="2.66988">
        <ele>1511.9</ele>
        <time>2021-08-11T11:28:44Z</time>
      </trkpt>
      <trkpt lat="45.11363" lon="2.66988">
        <ele>1512.1</ele>
        <time>2021-08-11T11:28:45Z</time>
      </trkpt>
      <trkpt lat="45.11363" lon="2.66989">
        <ele>1512.3</ele>
        <time>2021-08-11T11:28:46Z</time>
      </trkpt>
      <trkpt lat="45.11364" lon="2.66989">
        <ele>1512.4</ele>
        <time>2021-08-11T11:28:47Z</time>
      </trkpt>
      <trkpt lat="45.11365" lon="2.66989">
        <ele>1512.5</ele>
        <time>2021-08-11T11:28:48Z</time>
      </trkpt>
      <trkpt lat="45.11365" lon="2.66989">
        <ele>1512.6</ele>
        <time>2021-08-11T11:28:49Z</time>
      </trkpt>
      <trkpt lat="45.11366" lon="2.66989">
        <ele>1512.8</ele>
        <time>2021-08-11T11:28:50Z</time>
      </trkpt>
      <trkpt lat="45.11367" lon="2.6699">
        <ele>1513</ele>
        <time>2021-08-11T11:28:51Z</time>
      </trkpt>
      <trkpt lat="45.11368" lon="2.6699">
        <ele>1513.2</ele>
        <time>2021-08-11T11:28:52Z</time>
      </trkpt>
      <trkpt lat="45.11368" lon="2.6699">
        <ele>1513.3</ele>
        <time>2021-08-11T11:28:53Z</time>
      </trkpt>
      <trkpt lat="45.11369" lon="2.6699">
        <ele>1513.3</ele>
        <time>2021-08-11T11:28:54Z</time>
      </trkpt>
      <trkpt lat="45.1137" lon="2.6699">
        <ele>1513.6</ele>
        <time>2021-08-11T11:28:55Z</time>
      </trkpt>
      <trkpt lat="45.11371" lon="2.6699">
        <ele>1513.6</ele>
        <time>2021-08-11T11:28:56Z</time>
      </trkpt>
      <trkpt lat="45.11371" lon="2.6699">
        <ele>1513.6</ele>
        <time>2021-08-11T11:28:57Z</time>
      </trkpt>
      <trkpt lat="45.11372" lon="2.6699">
        <ele>1513.8</ele>
        <time>2021-08-11T11:28:58Z</time>
      </trkpt>
      <trkpt lat="45.11373" lon="2.6699">
        <ele>1513.9</ele>
        <time>2021-08-11T11:28:59Z</time>
      </trkpt>
      <trkpt lat="45.11373" lon="2.6699">
        <ele>1514.1</ele>
        <time>2021-08-11T11:29:00Z</time>
      </trkpt>
      <trkpt lat="45.11374" lon="2.6699">
        <ele>1514.2</ele>
        <time>2021-08-11T11:29:01Z</time>
      </trkpt>
      <trkpt lat="45.11374" lon="2.6699">
        <ele>1514.3</ele>
        <time>2021-08-11T11:29:02Z</time>
      </trkpt>
      <trkpt lat="45.11375" lon="2.6699">
        <ele>1514.3</ele>
        <time>2021-08-11T11:29:03Z</time>
      </trkpt>
      <trkpt lat="45.11376" lon="2.6699">
        <ele>1514.4</ele>
        <time>2021-08-11T11:29:04Z</time>
      </trkpt>
      <trkpt lat="45.11376" lon="2.6699">
        <ele>1514.3</ele>
        <time>2021-08-11T11:29:05Z</time>
      </trkpt>
      <trkpt lat="45.11377" lon="2.66989">
        <ele>1514.2</ele>
        <time>2021-08-11T11:29:06Z</time>
      </trkpt>
      <trkpt lat="45.11377" lon="2.66989">
        <ele>1514.1</ele>
        <time>2021-08-11T11:29:07Z</time>
      </trkpt>
      <trkpt lat="45.11378" lon="2.66988">
        <ele>1514.1</ele>
        <time>2021-08-11T11:29:08Z</time>
      </trkpt>
      <trkpt lat="45.11379" lon="2.66988">
        <ele>1514.2</ele>
        <time>2021-08-11T11:29:09Z</time>
      </trkpt>
      <trkpt lat="45.1138" lon="2.66988">
        <ele>1514.2</ele>
        <time>2021-08-11T11:29:10Z</time>
      </trkpt>
      <trkpt lat="45.11381" lon="2.66988">
        <ele>1514.3</ele>
        <time>2021-08-11T11:29:11Z</time>
      </trkpt>
      <trkpt lat="45.11381" lon="2.66988">
        <ele>1514.4</ele>
        <time>2021-08-11T11:29:12Z</time>
      </trkpt>
      <trkpt lat="45.11382" lon="2.66988">
        <ele>1514.3</ele>
        <time>2021-08-11T11:29:13Z</time>
      </trkpt>
      <trkpt lat="45.11382" lon="2.66987">
        <ele>1514.3</ele>
        <time>2021-08-11T11:29:14Z</time>
      </trkpt>
      <trkpt lat="45.11383" lon="2.66987">
        <ele>1514.2</ele>
        <time>2021-08-11T11:29:15Z</time>
      </trkpt>
      <trkpt lat="45.11384" lon="2.66986">
        <ele>1514.1</ele>
        <time>2021-08-11T11:29:16Z</time>
      </trkpt>
      <trkpt lat="45.11385" lon="2.66986">
        <ele>1514.2</ele>
        <time>2021-08-11T11:29:17Z</time>
      </trkpt>
      <trkpt lat="45.11385" lon="2.66986">
        <ele>1514.2</ele>
        <time>2021-08-11T11:29:18Z</time>
      </trkpt>
      <trkpt lat="45.11386" lon="2.66986">
        <ele>1514.3</ele>
        <time>2021-08-11T11:29:19Z</time>
      </trkpt>
      <trkpt lat="45.11386" lon="2.66986">
        <ele>1514.4</ele>
        <time>2021-08-11T11:29:20Z</time>
      </trkpt>
      <trkpt lat="45.11387" lon="2.66986">
        <ele>1514.4</ele>
        <time>2021-08-11T11:29:21Z</time>
      </trkpt>
      <trkpt lat="45.11388" lon="2.66985">
        <ele>1514.4</ele>
        <time>2021-08-11T11:29:22Z</time>
      </trkpt>
      <trkpt lat="45.11389" lon="2.66985">
        <ele>1514.4</ele>
        <time>2021-08-11T11:29:23Z</time>
      </trkpt>
      <trkpt lat="45.11389" lon="2.66985">
        <ele>1514.4</ele>
        <time>2021-08-11T11:29:24Z</time>
      </trkpt>
      <trkpt lat="45.1139" lon="2.66984">
        <ele>1514.3</ele>
        <time>2021-08-11T11:29:25Z</time>
      </trkpt>
      <trkpt lat="45.11391" lon="2.66984">
        <ele>1514.4</ele>
        <time>2021-08-11T11:29:26Z</time>
      </trkpt>
      <trkpt lat="45.11392" lon="2.66984">
        <ele>1514.3</ele>
        <time>2021-08-11T11:29:27Z</time>
      </trkpt>
      <trkpt lat="45.11392" lon="2.66984">
        <ele>1514.4</ele>
        <time>2021-08-11T11:29:28Z</time>
      </trkpt>
      <trkpt lat="45.11393" lon="2.66983">
        <ele>1514.5</ele>
        <time>2021-08-11T11:29:29Z</time>
      </trkpt>
      <trkpt lat="45.11394" lon="2.66983">
        <ele>1514.6</ele>
        <time>2021-08-11T11:29:30Z</time>
      </trkpt>
      <trkpt lat="45.11394" lon="2.66983">
        <ele>1514.5</ele>
        <time>2021-08-11T11:29:31Z</time>
      </trkpt>
      <trkpt lat="45.11395" lon="2.66983">
        <ele>1514.5</ele>
        <time>2021-08-11T11:29:32Z</time>
      </trkpt>
      <trkpt lat="45.11396" lon="2.66983">
        <ele>1514.6</ele>
        <time>2021-08-11T11:29:33Z</time>
      </trkpt>
      <trkpt lat="45.11397" lon="2.66982">
        <ele>1514.6</ele>
        <time>2021-08-11T11:29:34Z</time>
      </trkpt>
      <trkpt lat="45.11397" lon="2.66982">
        <ele>1514.6</ele>
        <time>2021-08-11T11:29:35Z</time>
      </trkpt>
      <trkpt lat="45.11398" lon="2.66982">
        <ele>1514.6</ele>
        <time>2021-08-11T11:29:36Z</time>
      </trkpt>
      <trkpt lat="45.11399" lon="2.66982">
        <ele>1514.6</ele>
        <time>2021-08-11T11:29:37Z</time>
      </trkpt>
      <trkpt lat="45.11399" lon="2.66981">
        <ele>1514.6</ele>
        <time>2021-08-11T11:29:38Z</time>
      </trkpt>
      <trkpt lat="45.114" lon="2.66981">
        <ele>1514.6</ele>
        <time>2021-08-11T11:29:39Z</time>
      </trkpt>
      <trkpt lat="45.11401" lon="2.66981">
        <ele>1514.6</ele>
        <time>2021-08-11T11:29:40Z</time>
      </trkpt>
      <trkpt lat="45.11401" lon="2.6698">
        <ele>1514.5</ele>
        <time>2021-08-11T11:29:41Z</time>
      </trkpt>
      <trkpt lat="45.11402" lon="2.6698">
        <ele>1514.6</ele>
        <time>2021-08-11T11:29:42Z</time>
      </trkpt>
      <trkpt lat="45.11403" lon="2.6698">
        <ele>1514.6</ele>
        <time>2021-08-11T11:29:43Z</time>
      </trkpt>
      <trkpt lat="45.11404" lon="2.66979">
        <ele>1514.6</ele>
        <time>2021-08-11T11:29:44Z</time>
      </trkpt>
      <trkpt lat="45.11404" lon="2.66979">
        <ele>1514.7</ele>
        <time>2021-08-11T11:29:45Z</time>
      </trkpt>
      <trkpt lat="45.11405" lon="2.6698">
        <ele>1514.8</ele>
        <time>2021-08-11T11:29:46Z</time>
      </trkpt>
      <trkpt lat="45.11406" lon="2.6698">
        <ele>1514.9</ele>
        <time>2021-08-11T11:29:47Z</time>
      </trkpt>
      <trkpt lat="45.11406" lon="2.6698">
        <ele>1515</ele>
        <time>2021-08-11T11:29:48Z</time>
      </trkpt>
      <trkpt lat="45.11407" lon="2.6698">
        <ele>1515.2</ele>
        <time>2021-08-11T11:29:49Z</time>
      </trkpt>
      <trkpt lat="45.11408" lon="2.6698">
        <ele>1515.3</ele>
        <time>2021-08-11T11:29:50Z</time>
      </trkpt>
      <trkpt lat="45.11408" lon="2.6698">
        <ele>1515.4</ele>
        <time>2021-08-11T11:29:51Z</time>
      </trkpt>
      <trkpt lat="45.11409" lon="2.6698">
        <ele>1515.4</ele>
        <time>2021-08-11T11:29:52Z</time>
      </trkpt>
      <trkpt lat="45.1141" lon="2.66979">
        <ele>1515.3</ele>
        <time>2021-08-11T11:29:53Z</time>
      </trkpt>
      <trkpt lat="45.1141" lon="2.66979">
        <ele>1515.2</ele>
        <time>2021-08-11T11:29:54Z</time>
      </trkpt>
      <trkpt lat="45.11411" lon="2.66978">
        <ele>1515.2</ele>
        <time>2021-08-11T11:29:55Z</time>
      </trkpt>
      <trkpt lat="45.11412" lon="2.66978">
        <ele>1515.2</ele>
        <time>2021-08-11T11:29:56Z</time>
      </trkpt>
      <trkpt lat="45.11412" lon="2.66978">
        <ele>1515.2</ele>
        <time>2021-08-11T11:29:57Z</time>
      </trkpt>
      <trkpt lat="45.11413" lon="2.66978">
        <ele>1515.3</ele>
        <time>2021-08-11T11:29:58Z</time>
      </trkpt>
      <trkpt lat="45.11414" lon="2.66978">
        <ele>1515.3</ele>
        <time>2021-08-11T11:29:59Z</time>
      </trkpt>
      <trkpt lat="45.11414" lon="2.66977">
        <ele>1515.3</ele>
        <time>2021-08-11T11:30:00Z</time>
      </trkpt>
      <trkpt lat="45.11415" lon="2.66977">
        <ele>1515.3</ele>
        <time>2021-08-11T11:30:01Z</time>
      </trkpt>
      <trkpt lat="45.11416" lon="2.66977">
        <ele>1515.4</ele>
        <time>2021-08-11T11:30:02Z</time>
      </trkpt>
      <trkpt lat="45.11416" lon="2.66977">
        <ele>1515.5</ele>
        <time>2021-08-11T11:30:03Z</time>
      </trkpt>
      <trkpt lat="45.11417" lon="2.66977">
        <ele>1515.6</ele>
        <time>2021-08-11T11:30:04Z</time>
      </trkpt>
      <trkpt lat="45.11418" lon="2.66977">
        <ele>1515.8</ele>
        <time>2021-08-11T11:30:05Z</time>
      </trkpt>
      <trkpt lat="45.11419" lon="2.66977">
        <ele>1515.9</ele>
        <time>2021-08-11T11:30:06Z</time>
      </trkpt>
      <trkpt lat="45.11419" lon="2.66976">
        <ele>1516</ele>
        <time>2021-08-11T11:30:07Z</time>
      </trkpt>
      <trkpt lat="45.1142" lon="2.66976">
        <ele>1516.2</ele>
        <time>2021-08-11T11:30:08Z</time>
      </trkpt>
      <trkpt lat="45.11421" lon="2.66976">
        <ele>1516.2</ele>
        <time>2021-08-11T11:30:09Z</time>
      </trkpt>
      <trkpt lat="45.11422" lon="2.66975">
        <ele>1516.4</ele>
        <time>2021-08-11T11:30:10Z</time>
      </trkpt>
      <trkpt lat="45.11423" lon="2.66975">
        <ele>1516.6</ele>
        <time>2021-08-11T11:30:11Z</time>
      </trkpt>
      <trkpt lat="45.11423" lon="2.66975">
        <ele>1516.7</ele>
        <time>2021-08-11T11:30:12Z</time>
      </trkpt>
      <trkpt lat="45.11424" lon="2.66975">
        <ele>1516.9</ele>
        <time>2021-08-11T11:30:13Z</time>
      </trkpt>
      <trkpt lat="45.11425" lon="2.66975">
        <ele>1517.1</ele>
        <time>2021-08-11T11:30:14Z</time>
      </trkpt>
      <trkpt lat="45.11425" lon="2.66975">
        <ele>1517.1</ele>
        <time>2021-08-11T11:30:15Z</time>
      </trkpt>
      <trkpt lat="45.11426" lon="2.66975">
        <ele>1517.2</ele>
        <time>2021-08-11T11:30:16Z</time>
      </trkpt>
      <trkpt lat="45.11426" lon="2.66974">
        <ele>1517.3</ele>
        <time>2021-08-11T11:30:17Z</time>
      </trkpt>
      <trkpt lat="45.11427" lon="2.66974">
        <ele>1517.5</ele>
        <time>2021-08-11T11:30:18Z</time>
      </trkpt>
      <trkpt lat="45.11427" lon="2.66974">
        <ele>1517.6</ele>
        <time>2021-08-11T11:30:19Z</time>
      </trkpt>
      <trkpt lat="45.11428" lon="2.66974">
        <ele>1517.7</ele>
        <time>2021-08-11T11:30:20Z</time>
      </trkpt>
      <trkpt lat="45.11429" lon="2.66973">
        <ele>1517.6</ele>
        <time>2021-08-11T11:30:21Z</time>
      </trkpt>
      <trkpt lat="45.11429" lon="2.66973">
        <ele>1517.7</ele>
        <time>2021-08-11T11:30:22Z</time>
      </trkpt>
      <trkpt lat="45.1143" lon="2.66972">
        <ele>1517.7</ele>
        <time>2021-08-11T11:30:23Z</time>
      </trkpt>
      <trkpt lat="45.11431" lon="2.66972">
        <ele>1517.7</ele>
        <time>2021-08-11T11:30:24Z</time>
      </trkpt>
      <trkpt lat="45.11431" lon="2.66971">
        <ele>1517.8</ele>
        <time>2021-08-11T11:30:25Z</time>
      </trkpt>
      <trkpt lat="45.11432" lon="2.66971">
        <ele>1518</ele>
        <time>2021-08-11T11:30:26Z</time>
      </trkpt>
      <trkpt lat="45.11433" lon="2.66971">
        <ele>1518.1</ele>
        <time>2021-08-11T11:30:27Z</time>
      </trkpt>
      <trkpt lat="45.11434" lon="2.66971">
        <ele>1518.3</ele>
        <time>2021-08-11T11:30:28Z</time>
      </trkpt>
      <trkpt lat="45.11435" lon="2.6697">
        <ele>1518.4</ele>
        <time>2021-08-11T11:30:29Z</time>
      </trkpt>
      <trkpt lat="45.11435" lon="2.6697">
        <ele>1518.4</ele>
        <time>2021-08-11T11:30:30Z</time>
      </trkpt>
      <trkpt lat="45.11436" lon="2.66969">
        <ele>1518.3</ele>
        <time>2021-08-11T11:30:31Z</time>
      </trkpt>
      <trkpt lat="45.11437" lon="2.66968">
        <ele>1518.3</ele>
        <time>2021-08-11T11:30:32Z</time>
      </trkpt>
      <trkpt lat="45.11437" lon="2.66968">
        <ele>1518.3</ele>
        <time>2021-08-11T11:30:33Z</time>
      </trkpt>
      <trkpt lat="45.11437" lon="2.66968">
        <ele>1518.3</ele>
        <time>2021-08-11T11:30:34Z</time>
      </trkpt>
      <trkpt lat="45.11437" lon="2.66968">
        <ele>1518.3</ele>
        <time>2021-08-11T11:30:35Z</time>
      </trkpt>
      <trkpt lat="45.11437" lon="2.66968">
        <ele>1518.3</ele>
        <time>2021-08-11T11:30:36Z</time>
      </trkpt>
      <trkpt lat="45.11437" lon="2.66968">
        <ele>1518.3</ele>
        <time>2021-08-11T11:30:37Z</time>
      </trkpt>
      <trkpt lat="45.11437" lon="2.66968">
        <ele>1518.2</ele>
        <time>2021-08-11T11:30:38Z</time>
      </trkpt>
      <trkpt lat="45.11437" lon="2.66968">
        <ele>1518.2</ele>
        <time>2021-08-11T11:30:39Z</time>
      </trkpt>
      <trkpt lat="45.11437" lon="2.66968">
        <ele>1518.2</ele>
        <time>2021-08-11T11:30:40Z</time>
      </trkpt>
      <trkpt lat="45.11437" lon="2.66968">
        <ele>1518.2</ele>
        <time>2021-08-11T11:30:41Z</time>
      </trkpt>
      <trkpt lat="45.11437" lon="2.66968">
        <ele>1518.2</ele>
        <time>2021-08-11T11:30:42Z</time>
      </trkpt>
      <trkpt lat="45.11437" lon="2.66967">
        <ele>1518.2</ele>
        <time>2021-08-11T11:30:43Z</time>
      </trkpt>
      <trkpt lat="45.11438" lon="2.66967">
        <ele>1518.1</ele>
        <time>2021-08-11T11:30:44Z</time>
      </trkpt>
      <trkpt lat="45.11438" lon="2.66966">
        <ele>1518.2</ele>
        <time>2021-08-11T11:30:45Z</time>
      </trkpt>
      <trkpt lat="45.11439" lon="2.66966">
        <ele>1518.3</ele>
        <time>2021-08-11T11:30:46Z</time>
      </trkpt>
      <trkpt lat="45.1144" lon="2.66966">
        <ele>1518.5</ele>
        <time>2021-08-11T11:30:47Z</time>
      </trkpt>
      <trkpt lat="45.11441" lon="2.66965">
        <ele>1518.5</ele>
        <time>2021-08-11T11:30:48Z</time>
      </trkpt>
      <trkpt lat="45.11441" lon="2.66965">
        <ele>1518.4</ele>
        <time>2021-08-11T11:30:49Z</time>
      </trkpt>
      <trkpt lat="45.11442" lon="2.66964">
        <ele>1518.3</ele>
        <time>2021-08-11T11:30:50Z</time>
      </trkpt>
      <trkpt lat="45.11443" lon="2.66963">
        <ele>1518.3</ele>
        <time>2021-08-11T11:30:51Z</time>
      </trkpt>
      <trkpt lat="45.11443" lon="2.66962">
        <ele>1518.3</ele>
        <time>2021-08-11T11:30:52Z</time>
      </trkpt>
      <trkpt lat="45.11444" lon="2.66962">
        <ele>1518.3</ele>
        <time>2021-08-11T11:30:53Z</time>
      </trkpt>
      <trkpt lat="45.11445" lon="2.66961">
        <ele>1518.4</ele>
        <time>2021-08-11T11:30:54Z</time>
      </trkpt>
      <trkpt lat="45.11446" lon="2.66961">
        <ele>1518.6</ele>
        <time>2021-08-11T11:30:55Z</time>
      </trkpt>
      <trkpt lat="45.11447" lon="2.6696">
        <ele>1518.7</ele>
        <time>2021-08-11T11:30:56Z</time>
      </trkpt>
      <trkpt lat="45.11447" lon="2.6696">
        <ele>1518.9</ele>
        <time>2021-08-11T11:30:57Z</time>
      </trkpt>
      <trkpt lat="45.11448" lon="2.6696">
        <ele>1519</ele>
        <time>2021-08-11T11:30:58Z</time>
      </trkpt>
      <trkpt lat="45.11449" lon="2.6696">
        <ele>1519.2</ele>
        <time>2021-08-11T11:30:59Z</time>
      </trkpt>
      <trkpt lat="45.1145" lon="2.6696">
        <ele>1519.5</ele>
        <time>2021-08-11T11:31:00Z</time>
      </trkpt>
      <trkpt lat="45.11451" lon="2.6696">
        <ele>1519.7</ele>
        <time>2021-08-11T11:31:01Z</time>
      </trkpt>
      <trkpt lat="45.11451" lon="2.6696">
        <ele>1519.8</ele>
        <time>2021-08-11T11:31:02Z</time>
      </trkpt>
      <trkpt lat="45.11452" lon="2.66959">
        <ele>1519.9</ele>
        <time>2021-08-11T11:31:03Z</time>
      </trkpt>
      <trkpt lat="45.11453" lon="2.66959">
        <ele>1520</ele>
        <time>2021-08-11T11:31:04Z</time>
      </trkpt>
      <trkpt lat="45.11453" lon="2.66959">
        <ele>1520</ele>
        <time>2021-08-11T11:31:05Z</time>
      </trkpt>
      <trkpt lat="45.11454" lon="2.66958">
        <ele>1520.2</ele>
        <time>2021-08-11T11:31:06Z</time>
      </trkpt>
      <trkpt lat="45.11455" lon="2.66958">
        <ele>1520.3</ele>
        <time>2021-08-11T11:31:07Z</time>
      </trkpt>
      <trkpt lat="45.11455" lon="2.66958">
        <ele>1520.6</ele>
        <time>2021-08-11T11:31:08Z</time>
      </trkpt>
      <trkpt lat="45.11456" lon="2.66958">
        <ele>1520.7</ele>
        <time>2021-08-11T11:31:09Z</time>
      </trkpt>
      <trkpt lat="45.11456" lon="2.66958">
        <ele>1520.9</ele>
        <time>2021-08-11T11:31:10Z</time>
      </trkpt>
      <trkpt lat="45.11457" lon="2.66958">
        <ele>1521.1</ele>
        <time>2021-08-11T11:31:11Z</time>
      </trkpt>
      <trkpt lat="45.11458" lon="2.66958">
        <ele>1521.3</ele>
        <time>2021-08-11T11:31:12Z</time>
      </trkpt>
      <trkpt lat="45.11459" lon="2.66958">
        <ele>1521.3</ele>
        <time>2021-08-11T11:31:13Z</time>
      </trkpt>
      <trkpt lat="45.11459" lon="2.66957">
        <ele>1521.3</ele>
        <time>2021-08-11T11:31:14Z</time>
      </trkpt>
      <trkpt lat="45.1146" lon="2.66956">
        <ele>1521.2</ele>
        <time>2021-08-11T11:31:15Z</time>
      </trkpt>
      <trkpt lat="45.11461" lon="2.66955">
        <ele>1521.2</ele>
        <time>2021-08-11T11:31:16Z</time>
      </trkpt>
      <trkpt lat="45.11461" lon="2.66955">
        <ele>1521.2</ele>
        <time>2021-08-11T11:31:17Z</time>
      </trkpt>
      <trkpt lat="45.11462" lon="2.66954">
        <ele>1521.3</ele>
        <time>2021-08-11T11:31:18Z</time>
      </trkpt>
      <trkpt lat="45.11463" lon="2.66954">
        <ele>1521.5</ele>
        <time>2021-08-11T11:31:19Z</time>
      </trkpt>
      <trkpt lat="45.11464" lon="2.66954">
        <ele>1521.7</ele>
        <time>2021-08-11T11:31:20Z</time>
      </trkpt>
      <trkpt lat="45.11465" lon="2.66954">
        <ele>1521.9</ele>
        <time>2021-08-11T11:31:21Z</time>
      </trkpt>
      <trkpt lat="45.11466" lon="2.66954">
        <ele>1522.1</ele>
        <time>2021-08-11T11:31:22Z</time>
      </trkpt>
      <trkpt lat="45.11466" lon="2.66954">
        <ele>1522.4</ele>
        <time>2021-08-11T11:31:23Z</time>
      </trkpt>
      <trkpt lat="45.11467" lon="2.66954">
        <ele>1522.7</ele>
        <time>2021-08-11T11:31:24Z</time>
      </trkpt>
      <trkpt lat="45.11468" lon="2.66954">
        <ele>1522.9</ele>
        <time>2021-08-11T11:31:25Z</time>
      </trkpt>
      <trkpt lat="45.11469" lon="2.66953">
        <ele>1523</ele>
        <time>2021-08-11T11:31:26Z</time>
      </trkpt>
      <trkpt lat="45.11469" lon="2.66953">
        <ele>1523.2</ele>
        <time>2021-08-11T11:31:27Z</time>
      </trkpt>
      <trkpt lat="45.1147" lon="2.66953">
        <ele>1523.2</ele>
        <time>2021-08-11T11:31:28Z</time>
      </trkpt>
      <trkpt lat="45.1147" lon="2.66953">
        <ele>1523.2</ele>
        <time>2021-08-11T11:31:29Z</time>
      </trkpt>
      <trkpt lat="45.11471" lon="2.66952">
        <ele>1523.2</ele>
        <time>2021-08-11T11:31:30Z</time>
      </trkpt>
      <trkpt lat="45.11471" lon="2.66951">
        <ele>1523.1</ele>
        <time>2021-08-11T11:31:31Z</time>
      </trkpt>
      <trkpt lat="45.11472" lon="2.6695">
        <ele>1523.1</ele>
        <time>2021-08-11T11:31:32Z</time>
      </trkpt>
      <trkpt lat="45.11473" lon="2.6695">
        <ele>1523.1</ele>
        <time>2021-08-11T11:31:33Z</time>
      </trkpt>
      <trkpt lat="45.11474" lon="2.6695">
        <ele>1523.3</ele>
        <time>2021-08-11T11:31:34Z</time>
      </trkpt>
      <trkpt lat="45.11474" lon="2.6695">
        <ele>1523.5</ele>
        <time>2021-08-11T11:31:35Z</time>
      </trkpt>
      <trkpt lat="45.11475" lon="2.6695">
        <ele>1523.7</ele>
        <time>2021-08-11T11:31:36Z</time>
      </trkpt>
      <trkpt lat="45.11475" lon="2.6695">
        <ele>1523.8</ele>
        <time>2021-08-11T11:31:37Z</time>
      </trkpt>
      <trkpt lat="45.11476" lon="2.66949">
        <ele>1523.9</ele>
        <time>2021-08-11T11:31:38Z</time>
      </trkpt>
      <trkpt lat="45.11477" lon="2.66949">
        <ele>1524</ele>
        <time>2021-08-11T11:31:39Z</time>
      </trkpt>
      <trkpt lat="45.11477" lon="2.66948">
        <ele>1524</ele>
        <time>2021-08-11T11:31:40Z</time>
      </trkpt>
      <trkpt lat="45.11478" lon="2.66948">
        <ele>1524</ele>
        <time>2021-08-11T11:31:41Z</time>
      </trkpt>
      <trkpt lat="45.11478" lon="2.66948">
        <ele>1524</ele>
        <time>2021-08-11T11:31:42Z</time>
      </trkpt>
      <trkpt lat="45.11479" lon="2.66947">
        <ele>1524.1</ele>
        <time>2021-08-11T11:31:43Z</time>
      </trkpt>
      <trkpt lat="45.1148" lon="2.66946">
        <ele>1524</ele>
        <time>2021-08-11T11:31:44Z</time>
      </trkpt>
      <trkpt lat="45.1148" lon="2.66946">
        <ele>1524</ele>
        <time>2021-08-11T11:31:45Z</time>
      </trkpt>
      <trkpt lat="45.11481" lon="2.66945">
        <ele>1524.1</ele>
        <time>2021-08-11T11:31:46Z</time>
      </trkpt>
      <trkpt lat="45.11481" lon="2.66945">
        <ele>1524.2</ele>
        <time>2021-08-11T11:31:47Z</time>
      </trkpt>
      <trkpt lat="45.11482" lon="2.66944">
        <ele>1524.2</ele>
        <time>2021-08-11T11:31:48Z</time>
      </trkpt>
      <trkpt lat="45.11482" lon="2.66944">
        <ele>1524.3</ele>
        <time>2021-08-11T11:31:49Z</time>
      </trkpt>
      <trkpt lat="45.11483" lon="2.66944">
        <ele>1524.5</ele>
        <time>2021-08-11T11:31:50Z</time>
      </trkpt>
      <trkpt lat="45.11484" lon="2.66944">
        <ele>1524.7</ele>
        <time>2021-08-11T11:31:51Z</time>
      </trkpt>
      <trkpt lat="45.11485" lon="2.66944">
        <ele>1525</ele>
        <time>2021-08-11T11:31:52Z</time>
      </trkpt>
      <trkpt lat="45.11485" lon="2.66944">
        <ele>1525.1</ele>
        <time>2021-08-11T11:31:53Z</time>
      </trkpt>
      <trkpt lat="45.11486" lon="2.66944">
        <ele>1525.3</ele>
        <time>2021-08-11T11:31:54Z</time>
      </trkpt>
      <trkpt lat="45.11487" lon="2.66943">
        <ele>1525.4</ele>
        <time>2021-08-11T11:31:55Z</time>
      </trkpt>
      <trkpt lat="45.11487" lon="2.66943">
        <ele>1525.5</ele>
        <time>2021-08-11T11:31:56Z</time>
      </trkpt>
      <trkpt lat="45.11488" lon="2.66943">
        <ele>1525.8</ele>
        <time>2021-08-11T11:31:57Z</time>
      </trkpt>
      <trkpt lat="45.11488" lon="2.66943">
        <ele>1525.8</ele>
        <time>2021-08-11T11:31:58Z</time>
      </trkpt>
      <trkpt lat="45.11489" lon="2.66943">
        <ele>1525.9</ele>
        <time>2021-08-11T11:31:59Z</time>
      </trkpt>
      <trkpt lat="45.11489" lon="2.66943">
        <ele>1526</ele>
        <time>2021-08-11T11:32:00Z</time>
      </trkpt>
      <trkpt lat="45.1149" lon="2.66942">
        <ele>1526.1</ele>
        <time>2021-08-11T11:32:01Z</time>
      </trkpt>
      <trkpt lat="45.11491" lon="2.66942">
        <ele>1526.3</ele>
        <time>2021-08-11T11:32:02Z</time>
      </trkpt>
      <trkpt lat="45.11492" lon="2.66942">
        <ele>1526.4</ele>
        <time>2021-08-11T11:32:03Z</time>
      </trkpt>
      <trkpt lat="45.11492" lon="2.66942">
        <ele>1526.6</ele>
        <time>2021-08-11T11:32:04Z</time>
      </trkpt>
      <trkpt lat="45.11493" lon="2.66942">
        <ele>1526.8</ele>
        <time>2021-08-11T11:32:05Z</time>
      </trkpt>
      <trkpt lat="45.11493" lon="2.66942">
        <ele>1526.8</ele>
        <time>2021-08-11T11:32:06Z</time>
      </trkpt>
      <trkpt lat="45.11494" lon="2.66941">
        <ele>1527</ele>
        <time>2021-08-11T11:32:07Z</time>
      </trkpt>
      <trkpt lat="45.11494" lon="2.66941">
        <ele>1527.1</ele>
        <time>2021-08-11T11:32:08Z</time>
      </trkpt>
      <trkpt lat="45.11495" lon="2.66942">
        <ele>1527.3</ele>
        <time>2021-08-11T11:32:09Z</time>
      </trkpt>
      <trkpt lat="45.11496" lon="2.66942">
        <ele>1527.7</ele>
        <time>2021-08-11T11:32:10Z</time>
      </trkpt>
      <trkpt lat="45.11496" lon="2.66942">
        <ele>1527.9</ele>
        <time>2021-08-11T11:32:11Z</time>
      </trkpt>
      <trkpt lat="45.11497" lon="2.66942">
        <ele>1528</ele>
        <time>2021-08-11T11:32:12Z</time>
      </trkpt>
      <trkpt lat="45.11498" lon="2.66942">
        <ele>1528.2</ele>
        <time>2021-08-11T11:32:13Z</time>
      </trkpt>
      <trkpt lat="45.11498" lon="2.66942">
        <ele>1528.4</ele>
        <time>2021-08-11T11:32:14Z</time>
      </trkpt>
      <trkpt lat="45.11499" lon="2.66942">
        <ele>1528.6</ele>
        <time>2021-08-11T11:32:15Z</time>
      </trkpt>
      <trkpt lat="45.115" lon="2.66941">
        <ele>1528.7</ele>
        <time>2021-08-11T11:32:16Z</time>
      </trkpt>
      <trkpt lat="45.11501" lon="2.66941">
        <ele>1529</ele>
        <time>2021-08-11T11:32:17Z</time>
      </trkpt>
      <trkpt lat="45.11501" lon="2.66942">
        <ele>1529.3</ele>
        <time>2021-08-11T11:32:18Z</time>
      </trkpt>
      <trkpt lat="45.11502" lon="2.66942">
        <ele>1529.6</ele>
        <time>2021-08-11T11:32:19Z</time>
      </trkpt>
      <trkpt lat="45.11503" lon="2.66942">
        <ele>1529.9</ele>
        <time>2021-08-11T11:32:20Z</time>
      </trkpt>
      <trkpt lat="45.11503" lon="2.66942">
        <ele>1530.2</ele>
        <time>2021-08-11T11:32:21Z</time>
      </trkpt>
      <trkpt lat="45.11503" lon="2.66943">
        <ele>1530.2</ele>
        <time>2021-08-11T11:32:22Z</time>
      </trkpt>
      <trkpt lat="45.11503" lon="2.66943">
        <ele>1530.3</ele>
        <time>2021-08-11T11:32:23Z</time>
      </trkpt>
      <trkpt lat="45.11504" lon="2.66942">
        <ele>1530.5</ele>
        <time>2021-08-11T11:32:24Z</time>
      </trkpt>
      <trkpt lat="45.11505" lon="2.66942">
        <ele>1530.7</ele>
        <time>2021-08-11T11:32:25Z</time>
      </trkpt>
      <trkpt lat="45.11505" lon="2.66942">
        <ele>1530.9</ele>
        <time>2021-08-11T11:32:26Z</time>
      </trkpt>
      <trkpt lat="45.11506" lon="2.66942">
        <ele>1531.1</ele>
        <time>2021-08-11T11:32:27Z</time>
      </trkpt>
      <trkpt lat="45.11507" lon="2.66942">
        <ele>1531.3</ele>
        <time>2021-08-11T11:32:28Z</time>
      </trkpt>
      <trkpt lat="45.11507" lon="2.66942">
        <ele>1531.4</ele>
        <time>2021-08-11T11:32:29Z</time>
      </trkpt>
      <trkpt lat="45.11508" lon="2.66941">
        <ele>1531.5</ele>
        <time>2021-08-11T11:32:30Z</time>
      </trkpt>
      <trkpt lat="45.11508" lon="2.66941">
        <ele>1531.6</ele>
        <time>2021-08-11T11:32:31Z</time>
      </trkpt>
      <trkpt lat="45.11508" lon="2.6694">
        <ele>1531.5</ele>
        <time>2021-08-11T11:32:32Z</time>
      </trkpt>
      <trkpt lat="45.11509" lon="2.6694">
        <ele>1531.4</ele>
        <time>2021-08-11T11:32:33Z</time>
      </trkpt>
      <trkpt lat="45.11509" lon="2.66939">
        <ele>1531.2</ele>
        <time>2021-08-11T11:32:34Z</time>
      </trkpt>
      <trkpt lat="45.11509" lon="2.66937">
        <ele>1530.9</ele>
        <time>2021-08-11T11:32:35Z</time>
      </trkpt>
      <trkpt lat="45.11509" lon="2.66936">
        <ele>1530.7</ele>
        <time>2021-08-11T11:32:36Z</time>
      </trkpt>
      <trkpt lat="45.1151" lon="2.66936">
        <ele>1530.9</ele>
        <time>2021-08-11T11:32:37Z</time>
      </trkpt>
      <trkpt lat="45.11511" lon="2.66935">
        <ele>1531</ele>
        <time>2021-08-11T11:32:38Z</time>
      </trkpt>
      <trkpt lat="45.11512" lon="2.66935">
        <ele>1531.2</ele>
        <time>2021-08-11T11:32:39Z</time>
      </trkpt>
      <trkpt lat="45.11512" lon="2.66935">
        <ele>1531.3</ele>
        <time>2021-08-11T11:32:40Z</time>
      </trkpt>
      <trkpt lat="45.11513" lon="2.66935">
        <ele>1531.6</ele>
        <time>2021-08-11T11:32:41Z</time>
      </trkpt>
      <trkpt lat="45.11513" lon="2.66935">
        <ele>1531.8</ele>
        <time>2021-08-11T11:32:42Z</time>
      </trkpt>
      <trkpt lat="45.11514" lon="2.66935">
        <ele>1532</ele>
        <time>2021-08-11T11:32:43Z</time>
      </trkpt>
      <trkpt lat="45.11514" lon="2.66934">
        <ele>1532</ele>
        <time>2021-08-11T11:32:44Z</time>
      </trkpt>
      <trkpt lat="45.11514" lon="2.66934">
        <ele>1531.9</ele>
        <time>2021-08-11T11:32:45Z</time>
      </trkpt>
      <trkpt lat="45.11514" lon="2.66934">
        <ele>1531.9</ele>
        <time>2021-08-11T11:32:46Z</time>
      </trkpt>
      <trkpt lat="45.11515" lon="2.66934">
        <ele>1532</ele>
        <time>2021-08-11T11:32:47Z</time>
      </trkpt>
      <trkpt lat="45.11515" lon="2.66934">
        <ele>1532.2</ele>
        <time>2021-08-11T11:32:48Z</time>
      </trkpt>
      <trkpt lat="45.11516" lon="2.66933">
        <ele>1532.3</ele>
        <time>2021-08-11T11:32:49Z</time>
      </trkpt>
      <trkpt lat="45.11517" lon="2.66933">
        <ele>1532.4</ele>
        <time>2021-08-11T11:32:50Z</time>
      </trkpt>
      <trkpt lat="45.11517" lon="2.66933">
        <ele>1532.6</ele>
        <time>2021-08-11T11:32:51Z</time>
      </trkpt>
      <trkpt lat="45.11518" lon="2.66933">
        <ele>1532.7</ele>
        <time>2021-08-11T11:32:52Z</time>
      </trkpt>
      <trkpt lat="45.11518" lon="2.66933">
        <ele>1532.8</ele>
        <time>2021-08-11T11:32:53Z</time>
      </trkpt>
      <trkpt lat="45.11518" lon="2.66932">
        <ele>1532.9</ele>
        <time>2021-08-11T11:32:54Z</time>
      </trkpt>
      <trkpt lat="45.11519" lon="2.66932">
        <ele>1533</ele>
        <time>2021-08-11T11:32:55Z</time>
      </trkpt>
      <trkpt lat="45.1152" lon="2.66932">
        <ele>1533.2</ele>
        <time>2021-08-11T11:32:56Z</time>
      </trkpt>
      <trkpt lat="45.1152" lon="2.66932">
        <ele>1533.2</ele>
        <time>2021-08-11T11:32:57Z</time>
      </trkpt>
      <trkpt lat="45.1152" lon="2.66932">
        <ele>1533.4</ele>
        <time>2021-08-11T11:32:58Z</time>
      </trkpt>
      <trkpt lat="45.11521" lon="2.66931">
        <ele>1533.5</ele>
        <time>2021-08-11T11:32:59Z</time>
      </trkpt>
      <trkpt lat="45.11521" lon="2.66931">
        <ele>1533.4</ele>
        <time>2021-08-11T11:33:00Z</time>
      </trkpt>
      <trkpt lat="45.11522" lon="2.6693">
        <ele>1533.4</ele>
        <time>2021-08-11T11:33:01Z</time>
      </trkpt>
      <trkpt lat="45.11522" lon="2.66929">
        <ele>1533.4</ele>
        <time>2021-08-11T11:33:02Z</time>
      </trkpt>
      <trkpt lat="45.11523" lon="2.66929">
        <ele>1533.5</ele>
        <time>2021-08-11T11:33:03Z</time>
      </trkpt>
      <trkpt lat="45.11524" lon="2.66928">
        <ele>1533.7</ele>
        <time>2021-08-11T11:33:04Z</time>
      </trkpt>
      <trkpt lat="45.11524" lon="2.66928">
        <ele>1533.8</ele>
        <time>2021-08-11T11:33:05Z</time>
      </trkpt>
      <trkpt lat="45.11525" lon="2.66928">
        <ele>1534</ele>
        <time>2021-08-11T11:33:06Z</time>
      </trkpt>
      <trkpt lat="45.11526" lon="2.66928">
        <ele>1534.3</ele>
        <time>2021-08-11T11:33:07Z</time>
      </trkpt>
      <trkpt lat="45.11526" lon="2.66927">
        <ele>1534.2</ele>
        <time>2021-08-11T11:33:08Z</time>
      </trkpt>
      <trkpt lat="45.11527" lon="2.66926">
        <ele>1534.2</ele>
        <time>2021-08-11T11:33:09Z</time>
      </trkpt>
      <trkpt lat="45.11528" lon="2.66926">
        <ele>1534.5</ele>
        <time>2021-08-11T11:33:10Z</time>
      </trkpt>
      <trkpt lat="45.11528" lon="2.66926">
        <ele>1534.6</ele>
        <time>2021-08-11T11:33:11Z</time>
      </trkpt>
      <trkpt lat="45.11529" lon="2.66925">
        <ele>1534.8</ele>
        <time>2021-08-11T11:33:12Z</time>
      </trkpt>
      <trkpt lat="45.1153" lon="2.66925">
        <ele>1535</ele>
        <time>2021-08-11T11:33:13Z</time>
      </trkpt>
      <trkpt lat="45.1153" lon="2.66925">
        <ele>1535.2</ele>
        <time>2021-08-11T11:33:14Z</time>
      </trkpt>
      <trkpt lat="45.11531" lon="2.66925">
        <ele>1535.5</ele>
        <time>2021-08-11T11:33:15Z</time>
      </trkpt>
      <trkpt lat="45.11532" lon="2.66925">
        <ele>1535.7</ele>
        <time>2021-08-11T11:33:16Z</time>
      </trkpt>
      <trkpt lat="45.11532" lon="2.66926">
        <ele>1536</ele>
        <time>2021-08-11T11:33:17Z</time>
      </trkpt>
      <trkpt lat="45.11533" lon="2.66926">
        <ele>1536.2</ele>
        <time>2021-08-11T11:33:18Z</time>
      </trkpt>
      <trkpt lat="45.11533" lon="2.66926">
        <ele>1536.5</ele>
        <time>2021-08-11T11:33:19Z</time>
      </trkpt>
      <trkpt lat="45.11534" lon="2.66926">
        <ele>1536.7</ele>
        <time>2021-08-11T11:33:20Z</time>
      </trkpt>
      <trkpt lat="45.11534" lon="2.66926">
        <ele>1536.8</ele>
        <time>2021-08-11T11:33:21Z</time>
      </trkpt>
      <trkpt lat="45.11535" lon="2.66926">
        <ele>1537.2</ele>
        <time>2021-08-11T11:33:22Z</time>
      </trkpt>
      <trkpt lat="45.11536" lon="2.66926">
        <ele>1537.5</ele>
        <time>2021-08-11T11:33:23Z</time>
      </trkpt>
      <trkpt lat="45.11536" lon="2.66926">
        <ele>1537.7</ele>
        <time>2021-08-11T11:33:24Z</time>
      </trkpt>
      <trkpt lat="45.11537" lon="2.66926">
        <ele>1538</ele>
        <time>2021-08-11T11:33:25Z</time>
      </trkpt>
      <trkpt lat="45.11538" lon="2.66926">
        <ele>1538.3</ele>
        <time>2021-08-11T11:33:26Z</time>
      </trkpt>
      <trkpt lat="45.11539" lon="2.66926">
        <ele>1538.5</ele>
        <time>2021-08-11T11:33:27Z</time>
      </trkpt>
      <trkpt lat="45.11539" lon="2.66926">
        <ele>1538.7</ele>
        <time>2021-08-11T11:33:28Z</time>
      </trkpt>
      <trkpt lat="45.1154" lon="2.66926">
        <ele>1539.1</ele>
        <time>2021-08-11T11:33:29Z</time>
      </trkpt>
      <trkpt lat="45.11541" lon="2.66926">
        <ele>1539.2</ele>
        <time>2021-08-11T11:33:30Z</time>
      </trkpt>
      <trkpt lat="45.11541" lon="2.66927">
        <ele>1539.5</ele>
        <time>2021-08-11T11:33:31Z</time>
      </trkpt>
      <trkpt lat="45.11542" lon="2.66927">
        <ele>1539.7</ele>
        <time>2021-08-11T11:33:32Z</time>
      </trkpt>
      <trkpt lat="45.11542" lon="2.66926">
        <ele>1539.7</ele>
        <time>2021-08-11T11:33:33Z</time>
      </trkpt>
      <trkpt lat="45.11542" lon="2.66925">
        <ele>1539.6</ele>
        <time>2021-08-11T11:33:34Z</time>
      </trkpt>
      <trkpt lat="45.11543" lon="2.66925">
        <ele>1539.8</ele>
        <time>2021-08-11T11:33:35Z</time>
      </trkpt>
      <trkpt lat="45.11544" lon="2.66925">
        <ele>1540</ele>
        <time>2021-08-11T11:33:36Z</time>
      </trkpt>
      <trkpt lat="45.11545" lon="2.66924">
        <ele>1540.1</ele>
        <time>2021-08-11T11:33:37Z</time>
      </trkpt>
      <trkpt lat="45.11545" lon="2.66924">
        <ele>1540.3</ele>
        <time>2021-08-11T11:33:38Z</time>
      </trkpt>
      <trkpt lat="45.11546" lon="2.66924">
        <ele>1540.4</ele>
        <time>2021-08-11T11:33:39Z</time>
      </trkpt>
      <trkpt lat="45.11546" lon="2.66924">
        <ele>1540.6</ele>
        <time>2021-08-11T11:33:40Z</time>
      </trkpt>
      <trkpt lat="45.11547" lon="2.66923">
        <ele>1540.6</ele>
        <time>2021-08-11T11:33:41Z</time>
      </trkpt>
      <trkpt lat="45.11548" lon="2.66922">
        <ele>1540.7</ele>
        <time>2021-08-11T11:33:42Z</time>
      </trkpt>
      <trkpt lat="45.11548" lon="2.66922">
        <ele>1540.8</ele>
        <time>2021-08-11T11:33:43Z</time>
      </trkpt>
      <trkpt lat="45.11549" lon="2.66922">
        <ele>1540.9</ele>
        <time>2021-08-11T11:33:44Z</time>
      </trkpt>
      <trkpt lat="45.11549" lon="2.66921">
        <ele>1540.9</ele>
        <time>2021-08-11T11:33:45Z</time>
      </trkpt>
      <trkpt lat="45.1155" lon="2.66921">
        <ele>1540.9</ele>
        <time>2021-08-11T11:33:46Z</time>
      </trkpt>
      <trkpt lat="45.1155" lon="2.6692">
        <ele>1540.9</ele>
        <time>2021-08-11T11:33:47Z</time>
      </trkpt>
      <trkpt lat="45.1155" lon="2.66919">
        <ele>1540.7</ele>
        <time>2021-08-11T11:33:48Z</time>
      </trkpt>
      <trkpt lat="45.11551" lon="2.66919">
        <ele>1540.9</ele>
        <time>2021-08-11T11:33:49Z</time>
      </trkpt>
      <trkpt lat="45.11552" lon="2.66918">
        <ele>1541</ele>
        <time>2021-08-11T11:33:50Z</time>
      </trkpt>
      <trkpt lat="45.11552" lon="2.66918">
        <ele>1541.1</ele>
        <time>2021-08-11T11:33:51Z</time>
      </trkpt>
      <trkpt lat="45.11553" lon="2.66918">
        <ele>1541.4</ele>
        <time>2021-08-11T11:33:52Z</time>
      </trkpt>
      <trkpt lat="45.11554" lon="2.66917">
        <ele>1541.5</ele>
        <time>2021-08-11T11:33:53Z</time>
      </trkpt>
      <trkpt lat="45.11554" lon="2.66917">
        <ele>1541.4</ele>
        <time>2021-08-11T11:33:54Z</time>
      </trkpt>
      <trkpt lat="45.11555" lon="2.66916">
        <ele>1541.5</ele>
        <time>2021-08-11T11:33:55Z</time>
      </trkpt>
      <trkpt lat="45.11555" lon="2.66916">
        <ele>1541.6</ele>
        <time>2021-08-11T11:33:56Z</time>
      </trkpt>
      <trkpt lat="45.11556" lon="2.66916">
        <ele>1541.7</ele>
        <time>2021-08-11T11:33:57Z</time>
      </trkpt>
      <trkpt lat="45.11556" lon="2.66916">
        <ele>1541.9</ele>
        <time>2021-08-11T11:33:58Z</time>
      </trkpt>
      <trkpt lat="45.11557" lon="2.66916">
        <ele>1542.1</ele>
        <time>2021-08-11T11:33:59Z</time>
      </trkpt>
      <trkpt lat="45.11557" lon="2.66916">
        <ele>1542.2</ele>
        <time>2021-08-11T11:34:00Z</time>
      </trkpt>
      <trkpt lat="45.11557" lon="2.66916">
        <ele>1542.3</ele>
        <time>2021-08-11T11:34:01Z</time>
      </trkpt>
      <trkpt lat="45.11558" lon="2.66916">
        <ele>1542.5</ele>
        <time>2021-08-11T11:34:02Z</time>
      </trkpt>
      <trkpt lat="45.11558" lon="2.66916">
        <ele>1542.6</ele>
        <time>2021-08-11T11:34:03Z</time>
      </trkpt>
      <trkpt lat="45.11558" lon="2.66915">
        <ele>1542.5</ele>
        <time>2021-08-11T11:34:04Z</time>
      </trkpt>
      <trkpt lat="45.11559" lon="2.66915">
        <ele>1542.6</ele>
        <time>2021-08-11T11:34:05Z</time>
      </trkpt>
      <trkpt lat="45.11559" lon="2.66914">
        <ele>1542.6</ele>
        <time>2021-08-11T11:34:06Z</time>
      </trkpt>
      <trkpt lat="45.1156" lon="2.66913">
        <ele>1542.6</ele>
        <time>2021-08-11T11:34:07Z</time>
      </trkpt>
      <trkpt lat="45.1156" lon="2.66913">
        <ele>1542.6</ele>
        <time>2021-08-11T11:34:08Z</time>
      </trkpt>
      <trkpt lat="45.11561" lon="2.66912">
        <ele>1542.6</ele>
        <time>2021-08-11T11:34:09Z</time>
      </trkpt>
      <trkpt lat="45.11561" lon="2.66912">
        <ele>1542.7</ele>
        <time>2021-08-11T11:34:10Z</time>
      </trkpt>
      <trkpt lat="45.11562" lon="2.66911">
        <ele>1542.8</ele>
        <time>2021-08-11T11:34:11Z</time>
      </trkpt>
      <trkpt lat="45.11562" lon="2.66911">
        <ele>1543</ele>
        <time>2021-08-11T11:34:12Z</time>
      </trkpt>
      <trkpt lat="45.11563" lon="2.66911">
        <ele>1543.1</ele>
        <time>2021-08-11T11:34:13Z</time>
      </trkpt>
      <trkpt lat="45.11563" lon="2.66911">
        <ele>1543.3</ele>
        <time>2021-08-11T11:34:14Z</time>
      </trkpt>
      <trkpt lat="45.11564" lon="2.66911">
        <ele>1543.3</ele>
        <time>2021-08-11T11:34:15Z</time>
      </trkpt>
      <trkpt lat="45.11564" lon="2.66911">
        <ele>1543.4</ele>
        <time>2021-08-11T11:34:16Z</time>
      </trkpt>
      <trkpt lat="45.11564" lon="2.6691">
        <ele>1543.5</ele>
        <time>2021-08-11T11:34:17Z</time>
      </trkpt>
      <trkpt lat="45.11565" lon="2.6691">
        <ele>1543.6</ele>
        <time>2021-08-11T11:34:18Z</time>
      </trkpt>
      <trkpt lat="45.11565" lon="2.66909">
        <ele>1543.4</ele>
        <time>2021-08-11T11:34:19Z</time>
      </trkpt>
      <trkpt lat="45.11565" lon="2.66908">
        <ele>1543.3</ele>
        <time>2021-08-11T11:34:20Z</time>
      </trkpt>
      <trkpt lat="45.11566" lon="2.66908">
        <ele>1543.4</ele>
        <time>2021-08-11T11:34:21Z</time>
      </trkpt>
      <trkpt lat="45.11566" lon="2.66907">
        <ele>1543.3</ele>
        <time>2021-08-11T11:34:22Z</time>
      </trkpt>
      <trkpt lat="45.11567" lon="2.66906">
        <ele>1543.3</ele>
        <time>2021-08-11T11:34:23Z</time>
      </trkpt>
      <trkpt lat="45.11568" lon="2.66906">
        <ele>1543.6</ele>
        <time>2021-08-11T11:34:24Z</time>
      </trkpt>
      <trkpt lat="45.11568" lon="2.66905">
        <ele>1543.6</ele>
        <time>2021-08-11T11:34:25Z</time>
      </trkpt>
      <trkpt lat="45.11568" lon="2.66905">
        <ele>1543.6</ele>
        <time>2021-08-11T11:34:26Z</time>
      </trkpt>
      <trkpt lat="45.11569" lon="2.66904">
        <ele>1543.6</ele>
        <time>2021-08-11T11:34:27Z</time>
      </trkpt>
      <trkpt lat="45.1157" lon="2.66904">
        <ele>1543.7</ele>
        <time>2021-08-11T11:34:28Z</time>
      </trkpt>
      <trkpt lat="45.1157" lon="2.66903">
        <ele>1543.7</ele>
        <time>2021-08-11T11:34:29Z</time>
      </trkpt>
      <trkpt lat="45.1157" lon="2.66903">
        <ele>1543.8</ele>
        <time>2021-08-11T11:34:30Z</time>
      </trkpt>
      <trkpt lat="45.11571" lon="2.66903">
        <ele>1544</ele>
        <time>2021-08-11T11:34:31Z</time>
      </trkpt>
      <trkpt lat="45.11572" lon="2.66902">
        <ele>1544.1</ele>
        <time>2021-08-11T11:34:32Z</time>
      </trkpt>
      <trkpt lat="45.11572" lon="2.66902">
        <ele>1544.2</ele>
        <time>2021-08-11T11:34:33Z</time>
      </trkpt>
      <trkpt lat="45.11572" lon="2.66902">
        <ele>1544.2</ele>
        <time>2021-08-11T11:34:34Z</time>
      </trkpt>
      <trkpt lat="45.11573" lon="2.66901">
        <ele>1544.2</ele>
        <time>2021-08-11T11:34:35Z</time>
      </trkpt>
      <trkpt lat="45.11573" lon="2.669">
        <ele>1544.2</ele>
        <time>2021-08-11T11:34:36Z</time>
      </trkpt>
      <trkpt lat="45.11574" lon="2.66899">
        <ele>1544.2</ele>
        <time>2021-08-11T11:34:37Z</time>
      </trkpt>
      <trkpt lat="45.11575" lon="2.66899">
        <ele>1544.4</ele>
        <time>2021-08-11T11:34:38Z</time>
      </trkpt>
      <trkpt lat="45.11575" lon="2.66898">
        <ele>1544.4</ele>
        <time>2021-08-11T11:34:39Z</time>
      </trkpt>
      <trkpt lat="45.11576" lon="2.66898">
        <ele>1544.5</ele>
        <time>2021-08-11T11:34:40Z</time>
      </trkpt>
      <trkpt lat="45.11577" lon="2.66897">
        <ele>1544.7</ele>
        <time>2021-08-11T11:34:41Z</time>
      </trkpt>
      <trkpt lat="45.11577" lon="2.66897">
        <ele>1544.8</ele>
        <time>2021-08-11T11:34:42Z</time>
      </trkpt>
      <trkpt lat="45.11578" lon="2.66897">
        <ele>1545</ele>
        <time>2021-08-11T11:34:43Z</time>
      </trkpt>
      <trkpt lat="45.11579" lon="2.66896">
        <ele>1545.1</ele>
        <time>2021-08-11T11:34:44Z</time>
      </trkpt>
      <trkpt lat="45.11579" lon="2.66896">
        <ele>1545.2</ele>
        <time>2021-08-11T11:34:45Z</time>
      </trkpt>
      <trkpt lat="45.1158" lon="2.66895">
        <ele>1545.4</ele>
        <time>2021-08-11T11:34:46Z</time>
      </trkpt>
      <trkpt lat="45.1158" lon="2.66895">
        <ele>1545.3</ele>
        <time>2021-08-11T11:34:47Z</time>
      </trkpt>
      <trkpt lat="45.11581" lon="2.66894">
        <ele>1545.4</ele>
        <time>2021-08-11T11:34:48Z</time>
      </trkpt>
      <trkpt lat="45.11582" lon="2.66894">
        <ele>1545.7</ele>
        <time>2021-08-11T11:34:49Z</time>
      </trkpt>
      <trkpt lat="45.11583" lon="2.66893">
        <ele>1545.8</ele>
        <time>2021-08-11T11:34:50Z</time>
      </trkpt>
      <trkpt lat="45.11583" lon="2.66893">
        <ele>1545.9</ele>
        <time>2021-08-11T11:34:51Z</time>
      </trkpt>
      <trkpt lat="45.11584" lon="2.66893">
        <ele>1546</ele>
        <time>2021-08-11T11:34:52Z</time>
      </trkpt>
      <trkpt lat="45.11584" lon="2.66892">
        <ele>1546.3</ele>
        <time>2021-08-11T11:34:53Z</time>
      </trkpt>
      <trkpt lat="45.11585" lon="2.66892">
        <ele>1546.5</ele>
        <time>2021-08-11T11:34:54Z</time>
      </trkpt>
      <trkpt lat="45.11585" lon="2.66892">
        <ele>1546.6</ele>
        <time>2021-08-11T11:34:55Z</time>
      </trkpt>
      <trkpt lat="45.11586" lon="2.66891">
        <ele>1546.7</ele>
        <time>2021-08-11T11:34:56Z</time>
      </trkpt>
      <trkpt lat="45.11586" lon="2.66891">
        <ele>1546.6</ele>
        <time>2021-08-11T11:34:57Z</time>
      </trkpt>
      <trkpt lat="45.11587" lon="2.66891">
        <ele>1546.9</ele>
        <time>2021-08-11T11:34:58Z</time>
      </trkpt>
      <trkpt lat="45.11587" lon="2.6689">
        <ele>1547</ele>
        <time>2021-08-11T11:34:59Z</time>
      </trkpt>
      <trkpt lat="45.11588" lon="2.6689">
        <ele>1547.2</ele>
        <time>2021-08-11T11:35:00Z</time>
      </trkpt>
      <trkpt lat="45.11588" lon="2.6689">
        <ele>1547.4</ele>
        <time>2021-08-11T11:35:01Z</time>
      </trkpt>
      <trkpt lat="45.11588" lon="2.6689">
        <ele>1547.4</ele>
        <time>2021-08-11T11:35:02Z</time>
      </trkpt>
      <trkpt lat="45.11588" lon="2.6689">
        <ele>1547.5</ele>
        <time>2021-08-11T11:35:03Z</time>
      </trkpt>
      <trkpt lat="45.11589" lon="2.66889">
        <ele>1547.6</ele>
        <time>2021-08-11T11:35:04Z</time>
      </trkpt>
      <trkpt lat="45.11589" lon="2.66889">
        <ele>1547.8</ele>
        <time>2021-08-11T11:35:05Z</time>
      </trkpt>
      <trkpt lat="45.1159" lon="2.66889">
        <ele>1547.9</ele>
        <time>2021-08-11T11:35:06Z</time>
      </trkpt>
      <trkpt lat="45.1159" lon="2.66889">
        <ele>1548.1</ele>
        <time>2021-08-11T11:35:07Z</time>
      </trkpt>
      <trkpt lat="45.11591" lon="2.66889">
        <ele>1548.2</ele>
        <time>2021-08-11T11:35:08Z</time>
      </trkpt>
      <trkpt lat="45.11591" lon="2.66889">
        <ele>1548.3</ele>
        <time>2021-08-11T11:35:09Z</time>
      </trkpt>
      <trkpt lat="45.11591" lon="2.66888">
        <ele>1548.5</ele>
        <time>2021-08-11T11:35:10Z</time>
      </trkpt>
      <trkpt lat="45.11592" lon="2.66888">
        <ele>1548.8</ele>
        <time>2021-08-11T11:35:11Z</time>
      </trkpt>
      <trkpt lat="45.11592" lon="2.66888">
        <ele>1548.9</ele>
        <time>2021-08-11T11:35:12Z</time>
      </trkpt>
      <trkpt lat="45.11593" lon="2.66888">
        <ele>1549.2</ele>
        <time>2021-08-11T11:35:13Z</time>
      </trkpt>
      <trkpt lat="45.11593" lon="2.66888">
        <ele>1549.2</ele>
        <time>2021-08-11T11:35:14Z</time>
      </trkpt>
      <trkpt lat="45.11593" lon="2.66888">
        <ele>1549.3</ele>
        <time>2021-08-11T11:35:15Z</time>
      </trkpt>
      <trkpt lat="45.11594" lon="2.66887">
        <ele>1549.2</ele>
        <time>2021-08-11T11:35:16Z</time>
      </trkpt>
      <trkpt lat="45.11594" lon="2.66887">
        <ele>1549.4</ele>
        <time>2021-08-11T11:35:17Z</time>
      </trkpt>
      <trkpt lat="45.11595" lon="2.66886">
        <ele>1549.5</ele>
        <time>2021-08-11T11:35:18Z</time>
      </trkpt>
      <trkpt lat="45.11595" lon="2.66886">
        <ele>1549.6</ele>
        <time>2021-08-11T11:35:19Z</time>
      </trkpt>
      <trkpt lat="45.11596" lon="2.66885">
        <ele>1549.7</ele>
        <time>2021-08-11T11:35:20Z</time>
      </trkpt>
      <trkpt lat="45.11596" lon="2.66885">
        <ele>1549.9</ele>
        <time>2021-08-11T11:35:21Z</time>
      </trkpt>
      <trkpt lat="45.11597" lon="2.66885">
        <ele>1550</ele>
        <time>2021-08-11T11:35:22Z</time>
      </trkpt>
      <trkpt lat="45.11597" lon="2.66884">
        <ele>1550.1</ele>
        <time>2021-08-11T11:35:23Z</time>
      </trkpt>
      <trkpt lat="45.11598" lon="2.66884">
        <ele>1550.2</ele>
        <time>2021-08-11T11:35:24Z</time>
      </trkpt>
      <trkpt lat="45.11598" lon="2.66883">
        <ele>1550.2</ele>
        <time>2021-08-11T11:35:25Z</time>
      </trkpt>
      <trkpt lat="45.11599" lon="2.66882">
        <ele>1550.4</ele>
        <time>2021-08-11T11:35:26Z</time>
      </trkpt>
      <trkpt lat="45.11599" lon="2.66882">
        <ele>1550.5</ele>
        <time>2021-08-11T11:35:27Z</time>
      </trkpt>
      <trkpt lat="45.116" lon="2.66881">
        <ele>1550.7</ele>
        <time>2021-08-11T11:35:28Z</time>
      </trkpt>
      <trkpt lat="45.11601" lon="2.66881">
        <ele>1551</ele>
        <time>2021-08-11T11:35:29Z</time>
      </trkpt>
      <trkpt lat="45.11601" lon="2.66881">
        <ele>1551.2</ele>
        <time>2021-08-11T11:35:30Z</time>
      </trkpt>
      <trkpt lat="45.11601" lon="2.66881">
        <ele>1551.2</ele>
        <time>2021-08-11T11:35:31Z</time>
      </trkpt>
      <trkpt lat="45.11601" lon="2.66881">
        <ele>1551.2</ele>
        <time>2021-08-11T11:35:32Z</time>
      </trkpt>
      <trkpt lat="45.11602" lon="2.66881">
        <ele>1551.4</ele>
        <time>2021-08-11T11:35:33Z</time>
      </trkpt>
      <trkpt lat="45.11602" lon="2.66881">
        <ele>1551.5</ele>
        <time>2021-08-11T11:35:34Z</time>
      </trkpt>
      <trkpt lat="45.11602" lon="2.66881">
        <ele>1551.6</ele>
        <time>2021-08-11T11:35:35Z</time>
      </trkpt>
      <trkpt lat="45.11602" lon="2.66881">
        <ele>1551.5</ele>
        <time>2021-08-11T11:35:36Z</time>
      </trkpt>
      <trkpt lat="45.11602" lon="2.66881">
        <ele>1551.5</ele>
        <time>2021-08-11T11:35:37Z</time>
      </trkpt>
      <trkpt lat="45.11602" lon="2.66881">
        <ele>1551.5</ele>
        <time>2021-08-11T11:35:38Z</time>
      </trkpt>
      <trkpt lat="45.11602" lon="2.6688">
        <ele>1551.5</ele>
        <time>2021-08-11T11:35:39Z</time>
      </trkpt>
      <trkpt lat="45.11602" lon="2.6688">
        <ele>1551.5</ele>
        <time>2021-08-11T11:35:40Z</time>
      </trkpt>
      <trkpt lat="45.11602" lon="2.6688">
        <ele>1551.5</ele>
        <time>2021-08-11T11:35:41Z</time>
      </trkpt>
      <trkpt lat="45.11602" lon="2.6688">
        <ele>1551.5</ele>
        <time>2021-08-11T11:35:42Z</time>
      </trkpt>
      <trkpt lat="45.11602" lon="2.6688">
        <ele>1551.4</ele>
        <time>2021-08-11T11:35:43Z</time>
      </trkpt>
      <trkpt lat="45.11602" lon="2.6688">
        <ele>1551.4</ele>
        <time>2021-08-11T11:35:44Z</time>
      </trkpt>
      <trkpt lat="45.11602" lon="2.6688">
        <ele>1551.4</ele>
        <time>2021-08-11T11:35:45Z</time>
      </trkpt>
      <trkpt lat="45.11602" lon="2.6688">
        <ele>1551.4</ele>
        <time>2021-08-11T11:35:46Z</time>
      </trkpt>
      <trkpt lat="45.11602" lon="2.6688">
        <ele>1551.5</ele>
        <time>2021-08-11T11:35:47Z</time>
      </trkpt>
      <trkpt lat="45.11602" lon="2.66881">
        <ele>1551.6</ele>
        <time>2021-08-11T11:35:48Z</time>
      </trkpt>
      <trkpt lat="45.11602" lon="2.66881">
        <ele>1551.6</ele>
        <time>2021-08-11T11:35:49Z</time>
      </trkpt>
      <trkpt lat="45.11602" lon="2.66881">
        <ele>1551.7</ele>
        <time>2021-08-11T11:35:50Z</time>
      </trkpt>
      <trkpt lat="45.11602" lon="2.66882">
        <ele>1551.7</ele>
        <time>2021-08-11T11:35:51Z</time>
      </trkpt>
      <trkpt lat="45.11602" lon="2.66882">
        <ele>1551.8</ele>
        <time>2021-08-11T11:35:52Z</time>
      </trkpt>
      <trkpt lat="45.11601" lon="2.66883">
        <ele>1551.8</ele>
        <time>2021-08-11T11:35:53Z</time>
      </trkpt>
      <trkpt lat="45.11601" lon="2.66884">
        <ele>1551.8</ele>
        <time>2021-08-11T11:35:54Z</time>
      </trkpt>
      <trkpt lat="45.11601" lon="2.66884">
        <ele>1551.8</ele>
        <time>2021-08-11T11:35:55Z</time>
      </trkpt>
      <trkpt lat="45.116" lon="2.66885">
        <ele>1551.6</ele>
        <time>2021-08-11T11:35:56Z</time>
      </trkpt>
      <trkpt lat="45.116" lon="2.66885">
        <ele>1551.5</ele>
        <time>2021-08-11T11:35:57Z</time>
      </trkpt>
      <trkpt lat="45.11599" lon="2.66886">
        <ele>1551.4</ele>
        <time>2021-08-11T11:35:58Z</time>
      </trkpt>
      <trkpt lat="45.11599" lon="2.66886">
        <ele>1551.3</ele>
        <time>2021-08-11T11:35:59Z</time>
      </trkpt>
      <trkpt lat="45.11598" lon="2.66887">
        <ele>1551.2</ele>
        <time>2021-08-11T11:36:00Z</time>
      </trkpt>
      <trkpt lat="45.11598" lon="2.66888">
        <ele>1551.3</ele>
        <time>2021-08-11T11:36:01Z</time>
      </trkpt>
      <trkpt lat="45.11597" lon="2.66889">
        <ele>1551.4</ele>
        <time>2021-08-11T11:36:02Z</time>
      </trkpt>
      <trkpt lat="45.11597" lon="2.6689">
        <ele>1551.6</ele>
        <time>2021-08-11T11:36:03Z</time>
      </trkpt>
      <trkpt lat="45.11597" lon="2.66891">
        <ele>1551.6</ele>
        <time>2021-08-11T11:36:04Z</time>
      </trkpt>
      <trkpt lat="45.11596" lon="2.66892">
        <ele>1551.6</ele>
        <time>2021-08-11T11:36:05Z</time>
      </trkpt>
      <trkpt lat="45.11596" lon="2.66893">
        <ele>1551.7</ele>
        <time>2021-08-11T11:36:06Z</time>
      </trkpt>
      <trkpt lat="45.11595" lon="2.66894">
        <ele>1551.7</ele>
        <time>2021-08-11T11:36:07Z</time>
      </trkpt>
      <trkpt lat="45.11595" lon="2.66896">
        <ele>1551.9</ele>
        <time>2021-08-11T11:36:08Z</time>
      </trkpt>
      <trkpt lat="45.11594" lon="2.66897">
        <ele>1551.9</ele>
        <time>2021-08-11T11:36:09Z</time>
      </trkpt>
      <trkpt lat="45.11594" lon="2.66898">
        <ele>1552</ele>
        <time>2021-08-11T11:36:10Z</time>
      </trkpt>
      <trkpt lat="45.11594" lon="2.66899">
        <ele>1552.1</ele>
        <time>2021-08-11T11:36:11Z</time>
      </trkpt>
      <trkpt lat="45.11593" lon="2.669">
        <ele>1552.1</ele>
        <time>2021-08-11T11:36:12Z</time>
      </trkpt>
      <trkpt lat="45.11593" lon="2.66901">
        <ele>1552.2</ele>
        <time>2021-08-11T11:36:13Z</time>
      </trkpt>
      <trkpt lat="45.11593" lon="2.66901">
        <ele>1552.3</ele>
        <time>2021-08-11T11:36:14Z</time>
      </trkpt>
      <trkpt lat="45.11592" lon="2.66902">
        <ele>1552.4</ele>
        <time>2021-08-11T11:36:15Z</time>
      </trkpt>
      <trkpt lat="45.11592" lon="2.66903">
        <ele>1552.5</ele>
        <time>2021-08-11T11:36:16Z</time>
      </trkpt>
      <trkpt lat="45.11591" lon="2.66904">
        <ele>1552.5</ele>
        <time>2021-08-11T11:36:17Z</time>
      </trkpt>
      <trkpt lat="45.11591" lon="2.66905">
        <ele>1552.7</ele>
        <time>2021-08-11T11:36:18Z</time>
      </trkpt>
      <trkpt lat="45.11591" lon="2.66906">
        <ele>1552.7</ele>
        <time>2021-08-11T11:36:19Z</time>
      </trkpt>
      <trkpt lat="45.1159" lon="2.66907">
        <ele>1552.8</ele>
        <time>2021-08-11T11:36:20Z</time>
      </trkpt>
      <trkpt lat="45.1159" lon="2.66909">
        <ele>1552.9</ele>
        <time>2021-08-11T11:36:21Z</time>
      </trkpt>
      <trkpt lat="45.1159" lon="2.6691">
        <ele>1553</ele>
        <time>2021-08-11T11:36:22Z</time>
      </trkpt>
      <trkpt lat="45.11589" lon="2.66911">
        <ele>1553.1</ele>
        <time>2021-08-11T11:36:23Z</time>
      </trkpt>
      <trkpt lat="45.11589" lon="2.66912">
        <ele>1553.3</ele>
        <time>2021-08-11T11:36:24Z</time>
      </trkpt>
      <trkpt lat="45.11589" lon="2.66913">
        <ele>1553.5</ele>
        <time>2021-08-11T11:36:25Z</time>
      </trkpt>
      <trkpt lat="45.11588" lon="2.66914">
        <ele>1553.6</ele>
        <time>2021-08-11T11:36:26Z</time>
      </trkpt>
      <trkpt lat="45.11588" lon="2.66915">
        <ele>1553.7</ele>
        <time>2021-08-11T11:36:27Z</time>
      </trkpt>
      <trkpt lat="45.11588" lon="2.66916">
        <ele>1553.8</ele>
        <time>2021-08-11T11:36:28Z</time>
      </trkpt>
      <trkpt lat="45.11587" lon="2.66917">
        <ele>1553.9</ele>
        <time>2021-08-11T11:36:29Z</time>
      </trkpt>
      <trkpt lat="45.11587" lon="2.66918">
        <ele>1554.1</ele>
        <time>2021-08-11T11:36:30Z</time>
      </trkpt>
      <trkpt lat="45.11587" lon="2.66919">
        <ele>1554.2</ele>
        <time>2021-08-11T11:36:31Z</time>
      </trkpt>
      <trkpt lat="45.11586" lon="2.66921">
        <ele>1554.3</ele>
        <time>2021-08-11T11:36:32Z</time>
      </trkpt>
      <trkpt lat="45.11586" lon="2.66922">
        <ele>1554.5</ele>
        <time>2021-08-11T11:36:33Z</time>
      </trkpt>
      <trkpt lat="45.11586" lon="2.66923">
        <ele>1554.6</ele>
        <time>2021-08-11T11:36:34Z</time>
      </trkpt>
      <trkpt lat="45.11585" lon="2.66924">
        <ele>1554.7</ele>
        <time>2021-08-11T11:36:35Z</time>
      </trkpt>
      <trkpt lat="45.11585" lon="2.66925">
        <ele>1554.8</ele>
        <time>2021-08-11T11:36:36Z</time>
      </trkpt>
      <trkpt lat="45.11584" lon="2.66926">
        <ele>1555</ele>
        <time>2021-08-11T11:36:37Z</time>
      </trkpt>
      <trkpt lat="45.11584" lon="2.66927">
        <ele>1555.1</ele>
        <time>2021-08-11T11:36:38Z</time>
      </trkpt>
      <trkpt lat="45.11584" lon="2.66929">
        <ele>1555.3</ele>
        <time>2021-08-11T11:36:39Z</time>
      </trkpt>
      <trkpt lat="45.11583" lon="2.6693">
        <ele>1555.5</ele>
        <time>2021-08-11T11:36:40Z</time>
      </trkpt>
      <trkpt lat="45.11583" lon="2.66931">
        <ele>1555.6</ele>
        <time>2021-08-11T11:36:41Z</time>
      </trkpt>
      <trkpt lat="45.11583" lon="2.66932">
        <ele>1555.9</ele>
        <time>2021-08-11T11:36:42Z</time>
      </trkpt>
      <trkpt lat="45.11582" lon="2.66933">
        <ele>1556</ele>
        <time>2021-08-11T11:36:43Z</time>
      </trkpt>
      <trkpt lat="45.11582" lon="2.66934">
        <ele>1556.2</ele>
        <time>2021-08-11T11:36:44Z</time>
      </trkpt>
      <trkpt lat="45.11581" lon="2.66936">
        <ele>1556.5</ele>
        <time>2021-08-11T11:36:45Z</time>
      </trkpt>
      <trkpt lat="45.11581" lon="2.66937">
        <ele>1556.6</ele>
        <time>2021-08-11T11:36:46Z</time>
      </trkpt>
      <trkpt lat="45.11581" lon="2.66938">
        <ele>1556.8</ele>
        <time>2021-08-11T11:36:47Z</time>
      </trkpt>
      <trkpt lat="45.1158" lon="2.66939">
        <ele>1557</ele>
        <time>2021-08-11T11:36:48Z</time>
      </trkpt>
      <trkpt lat="45.1158" lon="2.6694">
        <ele>1557.1</ele>
        <time>2021-08-11T11:36:49Z</time>
      </trkpt>
      <trkpt lat="45.1158" lon="2.66941">
        <ele>1557.3</ele>
        <time>2021-08-11T11:36:50Z</time>
      </trkpt>
      <trkpt lat="45.11579" lon="2.66942">
        <ele>1557.4</ele>
        <time>2021-08-11T11:36:51Z</time>
      </trkpt>
      <trkpt lat="45.11579" lon="2.66943">
        <ele>1557.6</ele>
        <time>2021-08-11T11:36:52Z</time>
      </trkpt>
      <trkpt lat="45.11578" lon="2.66944">
        <ele>1557.8</ele>
        <time>2021-08-11T11:36:53Z</time>
      </trkpt>
      <trkpt lat="45.11578" lon="2.66945">
        <ele>1557.9</ele>
        <time>2021-08-11T11:36:54Z</time>
      </trkpt>
      <trkpt lat="45.11578" lon="2.66946">
        <ele>1558.1</ele>
        <time>2021-08-11T11:36:55Z</time>
      </trkpt>
      <trkpt lat="45.11577" lon="2.66948">
        <ele>1558.3</ele>
        <time>2021-08-11T11:36:56Z</time>
      </trkpt>
      <trkpt lat="45.11577" lon="2.66949">
        <ele>1558.5</ele>
        <time>2021-08-11T11:36:57Z</time>
      </trkpt>
      <trkpt lat="45.11576" lon="2.6695">
        <ele>1558.7</ele>
        <time>2021-08-11T11:36:58Z</time>
      </trkpt>
      <trkpt lat="45.11576" lon="2.66951">
        <ele>1558.8</ele>
        <time>2021-08-11T11:36:59Z</time>
      </trkpt>
      <trkpt lat="45.11575" lon="2.66953">
        <ele>1559</ele>
        <time>2021-08-11T11:37:00Z</time>
      </trkpt>
      <trkpt lat="45.11575" lon="2.66954">
        <ele>1559</ele>
        <time>2021-08-11T11:37:01Z</time>
      </trkpt>
      <trkpt lat="45.11574" lon="2.66955">
        <ele>1559.2</ele>
        <time>2021-08-11T11:37:02Z</time>
      </trkpt>
      <trkpt lat="45.11574" lon="2.66956">
        <ele>1559.3</ele>
        <time>2021-08-11T11:37:03Z</time>
      </trkpt>
      <trkpt lat="45.11573" lon="2.66957">
        <ele>1559.4</ele>
        <time>2021-08-11T11:37:04Z</time>
      </trkpt>
      <trkpt lat="45.11573" lon="2.66958">
        <ele>1559.5</ele>
        <time>2021-08-11T11:37:05Z</time>
      </trkpt>
      <trkpt lat="45.11572" lon="2.66959">
        <ele>1559.5</ele>
        <time>2021-08-11T11:37:06Z</time>
      </trkpt>
      <trkpt lat="45.11572" lon="2.6696">
        <ele>1559.7</ele>
        <time>2021-08-11T11:37:07Z</time>
      </trkpt>
      <trkpt lat="45.11572" lon="2.66961">
        <ele>1559.9</ele>
        <time>2021-08-11T11:37:08Z</time>
      </trkpt>
      <trkpt lat="45.11571" lon="2.66962">
        <ele>1560.1</ele>
        <time>2021-08-11T11:37:09Z</time>
      </trkpt>
      <trkpt lat="45.11571" lon="2.66963">
        <ele>1560.3</ele>
        <time>2021-08-11T11:37:10Z</time>
      </trkpt>
      <trkpt lat="45.1157" lon="2.66964">
        <ele>1560.4</ele>
        <time>2021-08-11T11:37:11Z</time>
      </trkpt>
      <trkpt lat="45.1157" lon="2.66966">
        <ele>1560.5</ele>
        <time>2021-08-11T11:37:12Z</time>
      </trkpt>
      <trkpt lat="45.11569" lon="2.66967">
        <ele>1560.7</ele>
        <time>2021-08-11T11:37:13Z</time>
      </trkpt>
      <trkpt lat="45.11568" lon="2.66968">
        <ele>1560.7</ele>
        <time>2021-08-11T11:37:14Z</time>
      </trkpt>
      <trkpt lat="45.11568" lon="2.66969">
        <ele>1560.8</ele>
        <time>2021-08-11T11:37:15Z</time>
      </trkpt>
      <trkpt lat="45.11567" lon="2.6697">
        <ele>1560.9</ele>
        <time>2021-08-11T11:37:16Z</time>
      </trkpt>
      <trkpt lat="45.11567" lon="2.66971">
        <ele>1561</ele>
        <time>2021-08-11T11:37:17Z</time>
      </trkpt>
      <trkpt lat="45.11566" lon="2.66972">
        <ele>1561.2</ele>
        <time>2021-08-11T11:37:18Z</time>
      </trkpt>
      <trkpt lat="45.11566" lon="2.66973">
        <ele>1561.2</ele>
        <time>2021-08-11T11:37:19Z</time>
      </trkpt>
      <trkpt lat="45.11565" lon="2.66974">
        <ele>1561.3</ele>
        <time>2021-08-11T11:37:20Z</time>
      </trkpt>
      <trkpt lat="45.11565" lon="2.66975">
        <ele>1561.4</ele>
        <time>2021-08-11T11:37:21Z</time>
      </trkpt>
      <trkpt lat="45.11564" lon="2.66976">
        <ele>1561.4</ele>
        <time>2021-08-11T11:37:22Z</time>
      </trkpt>
      <trkpt lat="45.11564" lon="2.66977">
        <ele>1561.6</ele>
        <time>2021-08-11T11:37:23Z</time>
      </trkpt>
      <trkpt lat="45.11563" lon="2.66979">
        <ele>1561.7</ele>
        <time>2021-08-11T11:37:24Z</time>
      </trkpt>
      <trkpt lat="45.11563" lon="2.66979">
        <ele>1561.8</ele>
        <time>2021-08-11T11:37:25Z</time>
      </trkpt>
      <trkpt lat="45.11562" lon="2.6698">
        <ele>1561.9</ele>
        <time>2021-08-11T11:37:26Z</time>
      </trkpt>
      <trkpt lat="45.11561" lon="2.66981">
        <ele>1561.9</ele>
        <time>2021-08-11T11:37:27Z</time>
      </trkpt>
      <trkpt lat="45.11561" lon="2.66983">
        <ele>1562.1</ele>
        <time>2021-08-11T11:37:28Z</time>
      </trkpt>
      <trkpt lat="45.1156" lon="2.66984">
        <ele>1562.2</ele>
        <time>2021-08-11T11:37:29Z</time>
      </trkpt>
      <trkpt lat="45.1156" lon="2.66985">
        <ele>1562.3</ele>
        <time>2021-08-11T11:37:30Z</time>
      </trkpt>
      <trkpt lat="45.11559" lon="2.66985">
        <ele>1562.3</ele>
        <time>2021-08-11T11:37:31Z</time>
      </trkpt>
      <trkpt lat="45.11559" lon="2.66986">
        <ele>1562.4</ele>
        <time>2021-08-11T11:37:32Z</time>
      </trkpt>
      <trkpt lat="45.11558" lon="2.66987">
        <ele>1562.5</ele>
        <time>2021-08-11T11:37:33Z</time>
      </trkpt>
      <trkpt lat="45.11558" lon="2.66988">
        <ele>1562.6</ele>
        <time>2021-08-11T11:37:34Z</time>
      </trkpt>
      <trkpt lat="45.11557" lon="2.66989">
        <ele>1562.6</ele>
        <time>2021-08-11T11:37:35Z</time>
      </trkpt>
      <trkpt lat="45.11557" lon="2.6699">
        <ele>1562.5</ele>
        <time>2021-08-11T11:37:36Z</time>
      </trkpt>
      <trkpt lat="45.11556" lon="2.66991">
        <ele>1562.5</ele>
        <time>2021-08-11T11:37:37Z</time>
      </trkpt>
      <trkpt lat="45.11556" lon="2.66992">
        <ele>1562.6</ele>
        <time>2021-08-11T11:37:38Z</time>
      </trkpt>
      <trkpt lat="45.11555" lon="2.66993">
        <ele>1562.7</ele>
        <time>2021-08-11T11:37:39Z</time>
      </trkpt>
      <trkpt lat="45.11555" lon="2.66994">
        <ele>1562.9</ele>
        <time>2021-08-11T11:37:40Z</time>
      </trkpt>
      <trkpt lat="45.11554" lon="2.66995">
        <ele>1563</ele>
        <time>2021-08-11T11:37:41Z</time>
      </trkpt>
      <trkpt lat="45.11554" lon="2.66995">
        <ele>1563</ele>
        <time>2021-08-11T11:37:42Z</time>
      </trkpt>
      <trkpt lat="45.11553" lon="2.66996">
        <ele>1563.1</ele>
        <time>2021-08-11T11:37:43Z</time>
      </trkpt>
      <trkpt lat="45.11553" lon="2.66997">
        <ele>1563.2</ele>
        <time>2021-08-11T11:37:44Z</time>
      </trkpt>
      <trkpt lat="45.11552" lon="2.66998">
        <ele>1563.3</ele>
        <time>2021-08-11T11:37:45Z</time>
      </trkpt>
      <trkpt lat="45.11552" lon="2.66999">
        <ele>1563.3</ele>
        <time>2021-08-11T11:37:46Z</time>
      </trkpt>
      <trkpt lat="45.11551" lon="2.67">
        <ele>1563.3</ele>
        <time>2021-08-11T11:37:47Z</time>
      </trkpt>
      <trkpt lat="45.1155" lon="2.67001">
        <ele>1563.3</ele>
        <time>2021-08-11T11:37:48Z</time>
      </trkpt>
      <trkpt lat="45.1155" lon="2.67002">
        <ele>1563.4</ele>
        <time>2021-08-11T11:37:49Z</time>
      </trkpt>
      <trkpt lat="45.1155" lon="2.67003">
        <ele>1563.5</ele>
        <time>2021-08-11T11:37:50Z</time>
      </trkpt>
      <trkpt lat="45.11549" lon="2.67004">
        <ele>1563.7</ele>
        <time>2021-08-11T11:37:51Z</time>
      </trkpt>
      <trkpt lat="45.11549" lon="2.67004">
        <ele>1563.7</ele>
        <time>2021-08-11T11:37:52Z</time>
      </trkpt>
      <trkpt lat="45.11548" lon="2.67005">
        <ele>1563.8</ele>
        <time>2021-08-11T11:37:53Z</time>
      </trkpt>
      <trkpt lat="45.11548" lon="2.67006">
        <ele>1563.8</ele>
        <time>2021-08-11T11:37:54Z</time>
      </trkpt>
      <trkpt lat="45.11547" lon="2.67007">
        <ele>1563.9</ele>
        <time>2021-08-11T11:37:55Z</time>
      </trkpt>
      <trkpt lat="45.11547" lon="2.67008">
        <ele>1563.9</ele>
        <time>2021-08-11T11:37:56Z</time>
      </trkpt>
      <trkpt lat="45.11546" lon="2.67009">
        <ele>1564</ele>
        <time>2021-08-11T11:37:57Z</time>
      </trkpt>
      <trkpt lat="45.11546" lon="2.6701">
        <ele>1564</ele>
        <time>2021-08-11T11:37:58Z</time>
      </trkpt>
      <trkpt lat="45.11545" lon="2.67011">
        <ele>1564.1</ele>
        <time>2021-08-11T11:37:59Z</time>
      </trkpt>
      <trkpt lat="45.11545" lon="2.67011">
        <ele>1564.2</ele>
        <time>2021-08-11T11:38:00Z</time>
      </trkpt>
      <trkpt lat="45.11544" lon="2.67012">
        <ele>1564.2</ele>
        <time>2021-08-11T11:38:01Z</time>
      </trkpt>
      <trkpt lat="45.11544" lon="2.67013">
        <ele>1564.2</ele>
        <time>2021-08-11T11:38:02Z</time>
      </trkpt>
      <trkpt lat="45.11543" lon="2.67014">
        <ele>1564.2</ele>
        <time>2021-08-11T11:38:03Z</time>
      </trkpt>
      <trkpt lat="45.11543" lon="2.67014">
        <ele>1564.2</ele>
        <time>2021-08-11T11:38:04Z</time>
      </trkpt>
      <trkpt lat="45.11543" lon="2.67015">
        <ele>1564.3</ele>
        <time>2021-08-11T11:38:05Z</time>
      </trkpt>
      <trkpt lat="45.11542" lon="2.67015">
        <ele>1564.4</ele>
        <time>2021-08-11T11:38:06Z</time>
      </trkpt>
      <trkpt lat="45.11542" lon="2.67016">
        <ele>1564.5</ele>
        <time>2021-08-11T11:38:07Z</time>
      </trkpt>
      <trkpt lat="45.11542" lon="2.67017">
        <ele>1564.5</ele>
        <time>2021-08-11T11:38:08Z</time>
      </trkpt>
      <trkpt lat="45.11542" lon="2.67017">
        <ele>1564.6</ele>
        <time>2021-08-11T11:38:09Z</time>
      </trkpt>
      <trkpt lat="45.11541" lon="2.67018">
        <ele>1564.6</ele>
        <time>2021-08-11T11:38:10Z</time>
      </trkpt>
      <trkpt lat="45.11541" lon="2.67019">
        <ele>1564.7</ele>
        <time>2021-08-11T11:38:11Z</time>
      </trkpt>
      <trkpt lat="45.1154" lon="2.6702">
        <ele>1564.8</ele>
        <time>2021-08-11T11:38:12Z</time>
      </trkpt>
      <trkpt lat="45.1154" lon="2.6702">
        <ele>1564.9</ele>
        <time>2021-08-11T11:38:13Z</time>
      </trkpt>
      <trkpt lat="45.1154" lon="2.67021">
        <ele>1565</ele>
        <time>2021-08-11T11:38:14Z</time>
      </trkpt>
      <trkpt lat="45.11539" lon="2.67022">
        <ele>1565</ele>
        <time>2021-08-11T11:38:15Z</time>
      </trkpt>
      <trkpt lat="45.11539" lon="2.67022">
        <ele>1565.1</ele>
        <time>2021-08-11T11:38:16Z</time>
      </trkpt>
      <trkpt lat="45.11539" lon="2.67023">
        <ele>1565.2</ele>
        <time>2021-08-11T11:38:17Z</time>
      </trkpt>
      <trkpt lat="45.11538" lon="2.67024">
        <ele>1565.2</ele>
        <time>2021-08-11T11:38:18Z</time>
      </trkpt>
      <trkpt lat="45.11537" lon="2.67025">
        <ele>1565.2</ele>
        <time>2021-08-11T11:38:19Z</time>
      </trkpt>
      <trkpt lat="45.11537" lon="2.67026">
        <ele>1565.4</ele>
        <time>2021-08-11T11:38:20Z</time>
      </trkpt>
      <trkpt lat="45.11536" lon="2.67027">
        <ele>1565.4</ele>
        <time>2021-08-11T11:38:21Z</time>
      </trkpt>
      <trkpt lat="45.11536" lon="2.67027">
        <ele>1565.5</ele>
        <time>2021-08-11T11:38:22Z</time>
      </trkpt>
      <trkpt lat="45.11535" lon="2.67028">
        <ele>1565.5</ele>
        <time>2021-08-11T11:38:23Z</time>
      </trkpt>
      <trkpt lat="45.11534" lon="2.67029">
        <ele>1565.5</ele>
        <time>2021-08-11T11:38:24Z</time>
      </trkpt>
      <trkpt lat="45.11534" lon="2.6703">
        <ele>1565.5</ele>
        <time>2021-08-11T11:38:25Z</time>
      </trkpt>
      <trkpt lat="45.11533" lon="2.67031">
        <ele>1565.6</ele>
        <time>2021-08-11T11:38:26Z</time>
      </trkpt>
      <trkpt lat="45.11533" lon="2.67032">
        <ele>1565.7</ele>
        <time>2021-08-11T11:38:27Z</time>
      </trkpt>
      <trkpt lat="45.11532" lon="2.67033">
        <ele>1565.9</ele>
        <time>2021-08-11T11:38:28Z</time>
      </trkpt>
      <trkpt lat="45.11532" lon="2.67034">
        <ele>1565.9</ele>
        <time>2021-08-11T11:38:29Z</time>
      </trkpt>
      <trkpt lat="45.11531" lon="2.67034">
        <ele>1566</ele>
        <time>2021-08-11T11:38:30Z</time>
      </trkpt>
      <trkpt lat="45.11531" lon="2.67035">
        <ele>1566.1</ele>
        <time>2021-08-11T11:38:31Z</time>
      </trkpt>
      <trkpt lat="45.11531" lon="2.67036">
        <ele>1566.2</ele>
        <time>2021-08-11T11:38:32Z</time>
      </trkpt>
      <trkpt lat="45.1153" lon="2.67037">
        <ele>1566.3</ele>
        <time>2021-08-11T11:38:33Z</time>
      </trkpt>
      <trkpt lat="45.1153" lon="2.67037">
        <ele>1566.2</ele>
        <time>2021-08-11T11:38:34Z</time>
      </trkpt>
      <trkpt lat="45.11529" lon="2.67038">
        <ele>1566.3</ele>
        <time>2021-08-11T11:38:35Z</time>
      </trkpt>
      <trkpt lat="45.11529" lon="2.67039">
        <ele>1566.4</ele>
        <time>2021-08-11T11:38:36Z</time>
      </trkpt>
      <trkpt lat="45.11528" lon="2.6704">
        <ele>1566.5</ele>
        <time>2021-08-11T11:38:37Z</time>
      </trkpt>
      <trkpt lat="45.11528" lon="2.6704">
        <ele>1566.6</ele>
        <time>2021-08-11T11:38:38Z</time>
      </trkpt>
      <trkpt lat="45.11527" lon="2.67041">
        <ele>1566.7</ele>
        <time>2021-08-11T11:38:39Z</time>
      </trkpt>
      <trkpt lat="45.11527" lon="2.67042">
        <ele>1566.8</ele>
        <time>2021-08-11T11:38:40Z</time>
      </trkpt>
      <trkpt lat="45.11526" lon="2.67043">
        <ele>1566.9</ele>
        <time>2021-08-11T11:38:41Z</time>
      </trkpt>
      <trkpt lat="45.11526" lon="2.67044">
        <ele>1566.9</ele>
        <time>2021-08-11T11:38:42Z</time>
      </trkpt>
      <trkpt lat="45.11525" lon="2.67044">
        <ele>1567</ele>
        <time>2021-08-11T11:38:43Z</time>
      </trkpt>
      <trkpt lat="45.11525" lon="2.67045">
        <ele>1567</ele>
        <time>2021-08-11T11:38:44Z</time>
      </trkpt>
      <trkpt lat="45.11525" lon="2.67045">
        <ele>1567.1</ele>
        <time>2021-08-11T11:38:45Z</time>
      </trkpt>
      <trkpt lat="45.11524" lon="2.67046">
        <ele>1567.1</ele>
        <time>2021-08-11T11:38:46Z</time>
      </trkpt>
      <trkpt lat="45.11524" lon="2.67046">
        <ele>1567.2</ele>
        <time>2021-08-11T11:38:47Z</time>
      </trkpt>
      <trkpt lat="45.11524" lon="2.67047">
        <ele>1567.3</ele>
        <time>2021-08-11T11:38:48Z</time>
      </trkpt>
      <trkpt lat="45.11523" lon="2.67048">
        <ele>1567.4</ele>
        <time>2021-08-11T11:38:49Z</time>
      </trkpt>
      <trkpt lat="45.11523" lon="2.67048">
        <ele>1567.4</ele>
        <time>2021-08-11T11:38:50Z</time>
      </trkpt>
      <trkpt lat="45.11523" lon="2.67049">
        <ele>1567.6</ele>
        <time>2021-08-11T11:38:51Z</time>
      </trkpt>
      <trkpt lat="45.11522" lon="2.6705">
        <ele>1567.7</ele>
        <time>2021-08-11T11:38:52Z</time>
      </trkpt>
      <trkpt lat="45.11522" lon="2.67051">
        <ele>1567.8</ele>
        <time>2021-08-11T11:38:53Z</time>
      </trkpt>
      <trkpt lat="45.11521" lon="2.67052">
        <ele>1567.8</ele>
        <time>2021-08-11T11:38:54Z</time>
      </trkpt>
      <trkpt lat="45.1152" lon="2.67053">
        <ele>1567.9</ele>
        <time>2021-08-11T11:38:55Z</time>
      </trkpt>
      <trkpt lat="45.1152" lon="2.67054">
        <ele>1568.1</ele>
        <time>2021-08-11T11:38:56Z</time>
      </trkpt>
      <trkpt lat="45.11519" lon="2.67055">
        <ele>1568.2</ele>
        <time>2021-08-11T11:38:57Z</time>
      </trkpt>
      <trkpt lat="45.11518" lon="2.67055">
        <ele>1568.2</ele>
        <time>2021-08-11T11:38:58Z</time>
      </trkpt>
      <trkpt lat="45.11518" lon="2.67056">
        <ele>1568.4</ele>
        <time>2021-08-11T11:38:59Z</time>
      </trkpt>
      <trkpt lat="45.11517" lon="2.67057">
        <ele>1568.4</ele>
        <time>2021-08-11T11:39:00Z</time>
      </trkpt>
      <trkpt lat="45.11517" lon="2.67058">
        <ele>1568.5</ele>
        <time>2021-08-11T11:39:01Z</time>
      </trkpt>
      <trkpt lat="45.11516" lon="2.67059">
        <ele>1568.6</ele>
        <time>2021-08-11T11:39:02Z</time>
      </trkpt>
      <trkpt lat="45.11515" lon="2.6706">
        <ele>1568.7</ele>
        <time>2021-08-11T11:39:03Z</time>
      </trkpt>
      <trkpt lat="45.11515" lon="2.67061">
        <ele>1568.7</ele>
        <time>2021-08-11T11:39:04Z</time>
      </trkpt>
      <trkpt lat="45.11514" lon="2.67062">
        <ele>1568.9</ele>
        <time>2021-08-11T11:39:05Z</time>
      </trkpt>
      <trkpt lat="45.11513" lon="2.67063">
        <ele>1568.9</ele>
        <time>2021-08-11T11:39:06Z</time>
      </trkpt>
      <trkpt lat="45.11513" lon="2.67064">
        <ele>1569</ele>
        <time>2021-08-11T11:39:07Z</time>
      </trkpt>
      <trkpt lat="45.11512" lon="2.67064">
        <ele>1569.1</ele>
        <time>2021-08-11T11:39:08Z</time>
      </trkpt>
      <trkpt lat="45.11511" lon="2.67065">
        <ele>1569.2</ele>
        <time>2021-08-11T11:39:09Z</time>
      </trkpt>
      <trkpt lat="45.11511" lon="2.67066">
        <ele>1569.3</ele>
        <time>2021-08-11T11:39:10Z</time>
      </trkpt>
      <trkpt lat="45.1151" lon="2.67067">
        <ele>1569.4</ele>
        <time>2021-08-11T11:39:11Z</time>
      </trkpt>
      <trkpt lat="45.1151" lon="2.67068">
        <ele>1569.5</ele>
        <time>2021-08-11T11:39:12Z</time>
      </trkpt>
      <trkpt lat="45.11509" lon="2.67069">
        <ele>1569.6</ele>
        <time>2021-08-11T11:39:13Z</time>
      </trkpt>
      <trkpt lat="45.11508" lon="2.67069">
        <ele>1569.7</ele>
        <time>2021-08-11T11:39:14Z</time>
      </trkpt>
      <trkpt lat="45.11508" lon="2.6707">
        <ele>1569.8</ele>
        <time>2021-08-11T11:39:15Z</time>
      </trkpt>
      <trkpt lat="45.11507" lon="2.67071">
        <ele>1569.9</ele>
        <time>2021-08-11T11:39:16Z</time>
      </trkpt>
      <trkpt lat="45.11507" lon="2.67072">
        <ele>1570</ele>
        <time>2021-08-11T11:39:17Z</time>
      </trkpt>
      <trkpt lat="45.11506" lon="2.67073">
        <ele>1570.1</ele>
        <time>2021-08-11T11:39:18Z</time>
      </trkpt>
      <trkpt lat="45.11505" lon="2.67074">
        <ele>1570.2</ele>
        <time>2021-08-11T11:39:19Z</time>
      </trkpt>
      <trkpt lat="45.11505" lon="2.67075">
        <ele>1570.4</ele>
        <time>2021-08-11T11:39:20Z</time>
      </trkpt>
      <trkpt lat="45.11504" lon="2.67076">
        <ele>1570.4</ele>
        <time>2021-08-11T11:39:21Z</time>
      </trkpt>
      <trkpt lat="45.11503" lon="2.67077">
        <ele>1570.6</ele>
        <time>2021-08-11T11:39:22Z</time>
      </trkpt>
      <trkpt lat="45.11503" lon="2.67078">
        <ele>1570.8</ele>
        <time>2021-08-11T11:39:23Z</time>
      </trkpt>
      <trkpt lat="45.11502" lon="2.67078">
        <ele>1570.9</ele>
        <time>2021-08-11T11:39:24Z</time>
      </trkpt>
      <trkpt lat="45.11501" lon="2.67079">
        <ele>1571</ele>
        <time>2021-08-11T11:39:25Z</time>
      </trkpt>
      <trkpt lat="45.11501" lon="2.6708">
        <ele>1571.2</ele>
        <time>2021-08-11T11:39:26Z</time>
      </trkpt>
      <trkpt lat="45.115" lon="2.67081">
        <ele>1571.3</ele>
        <time>2021-08-11T11:39:27Z</time>
      </trkpt>
      <trkpt lat="45.115" lon="2.67082">
        <ele>1571.4</ele>
        <time>2021-08-11T11:39:28Z</time>
      </trkpt>
      <trkpt lat="45.11499" lon="2.67083">
        <ele>1571.6</ele>
        <time>2021-08-11T11:39:29Z</time>
      </trkpt>
      <trkpt lat="45.11499" lon="2.67084">
        <ele>1571.7</ele>
        <time>2021-08-11T11:39:30Z</time>
      </trkpt>
      <trkpt lat="45.11498" lon="2.67085">
        <ele>1571.5</ele>
        <time>2021-08-11T11:39:31Z</time>
      </trkpt>
      <trkpt lat="45.11497" lon="2.67085">
        <ele>1571.4</ele>
        <time>2021-08-11T11:39:32Z</time>
      </trkpt>
      <trkpt lat="45.11497" lon="2.67086">
        <ele>1571.3</ele>
        <time>2021-08-11T11:39:33Z</time>
      </trkpt>
      <trkpt lat="45.11496" lon="2.67087">
        <ele>1571.1</ele>
        <time>2021-08-11T11:39:34Z</time>
      </trkpt>
      <trkpt lat="45.11496" lon="2.67088">
        <ele>1571</ele>
        <time>2021-08-11T11:39:35Z</time>
      </trkpt>
      <trkpt lat="45.11495" lon="2.67089">
        <ele>1570.9</ele>
        <time>2021-08-11T11:39:36Z</time>
      </trkpt>
      <trkpt lat="45.11495" lon="2.67089">
        <ele>1570.8</ele>
        <time>2021-08-11T11:39:37Z</time>
      </trkpt>
      <trkpt lat="45.11494" lon="2.6709">
        <ele>1570.7</ele>
        <time>2021-08-11T11:39:38Z</time>
      </trkpt>
      <trkpt lat="45.11493" lon="2.67091">
        <ele>1570.6</ele>
        <time>2021-08-11T11:39:39Z</time>
      </trkpt>
      <trkpt lat="45.11493" lon="2.67092">
        <ele>1570.5</ele>
        <time>2021-08-11T11:39:40Z</time>
      </trkpt>
      <trkpt lat="45.11492" lon="2.67093">
        <ele>1570.4</ele>
        <time>2021-08-11T11:39:41Z</time>
      </trkpt>
      <trkpt lat="45.11492" lon="2.67093">
        <ele>1570.3</ele>
        <time>2021-08-11T11:39:42Z</time>
      </trkpt>
      <trkpt lat="45.11491" lon="2.67094">
        <ele>1570.2</ele>
        <time>2021-08-11T11:39:43Z</time>
      </trkpt>
      <trkpt lat="45.11491" lon="2.67095">
        <ele>1570.2</ele>
        <time>2021-08-11T11:39:44Z</time>
      </trkpt>
      <trkpt lat="45.1149" lon="2.67096">
        <ele>1570</ele>
        <time>2021-08-11T11:39:45Z</time>
      </trkpt>
      <trkpt lat="45.1149" lon="2.67096">
        <ele>1570</ele>
        <time>2021-08-11T11:39:46Z</time>
      </trkpt>
      <trkpt lat="45.11489" lon="2.67097">
        <ele>1569.9</ele>
        <time>2021-08-11T11:39:47Z</time>
      </trkpt>
      <trkpt lat="45.11488" lon="2.67098">
        <ele>1569.8</ele>
        <time>2021-08-11T11:39:48Z</time>
      </trkpt>
      <trkpt lat="45.11488" lon="2.67098">
        <ele>1569.7</ele>
        <time>2021-08-11T11:39:49Z</time>
      </trkpt>
      <trkpt lat="45.11487" lon="2.67099">
        <ele>1569.7</ele>
        <time>2021-08-11T11:39:50Z</time>
      </trkpt>
      <trkpt lat="45.11487" lon="2.671">
        <ele>1569.6</ele>
        <time>2021-08-11T11:39:51Z</time>
      </trkpt>
      <trkpt lat="45.11486" lon="2.67101">
        <ele>1569.5</ele>
        <time>2021-08-11T11:39:52Z</time>
      </trkpt>
      <trkpt lat="45.11485" lon="2.67101">
        <ele>1569.5</ele>
        <time>2021-08-11T11:39:53Z</time>
      </trkpt>
      <trkpt lat="45.11485" lon="2.67102">
        <ele>1569.4</ele>
        <time>2021-08-11T11:39:54Z</time>
      </trkpt>
      <trkpt lat="45.11484" lon="2.67103">
        <ele>1569.3</ele>
        <time>2021-08-11T11:39:55Z</time>
      </trkpt>
      <trkpt lat="45.11484" lon="2.67103">
        <ele>1569.3</ele>
        <time>2021-08-11T11:39:56Z</time>
      </trkpt>
      <trkpt lat="45.11483" lon="2.67104">
        <ele>1569.2</ele>
        <time>2021-08-11T11:39:57Z</time>
      </trkpt>
      <trkpt lat="45.11483" lon="2.67104">
        <ele>1569.2</ele>
        <time>2021-08-11T11:39:58Z</time>
      </trkpt>
      <trkpt lat="45.11482" lon="2.67105">
        <ele>1569.2</ele>
        <time>2021-08-11T11:39:59Z</time>
      </trkpt>
      <trkpt lat="45.11481" lon="2.67106">
        <ele>1569.1</ele>
        <time>2021-08-11T11:40:00Z</time>
      </trkpt>
      <trkpt lat="45.11481" lon="2.67107">
        <ele>1569</ele>
        <time>2021-08-11T11:40:01Z</time>
      </trkpt>
      <trkpt lat="45.1148" lon="2.67107">
        <ele>1569</ele>
        <time>2021-08-11T11:40:02Z</time>
      </trkpt>
      <trkpt lat="45.11479" lon="2.67108">
        <ele>1568.9</ele>
        <time>2021-08-11T11:40:03Z</time>
      </trkpt>
      <trkpt lat="45.11478" lon="2.67108">
        <ele>1568.8</ele>
        <time>2021-08-11T11:40:04Z</time>
      </trkpt>
      <trkpt lat="45.11478" lon="2.67109">
        <ele>1568.8</ele>
        <time>2021-08-11T11:40:05Z</time>
      </trkpt>
      <trkpt lat="45.11477" lon="2.6711">
        <ele>1568.8</ele>
        <time>2021-08-11T11:40:06Z</time>
      </trkpt>
      <trkpt lat="45.11477" lon="2.6711">
        <ele>1568.8</ele>
        <time>2021-08-11T11:40:07Z</time>
      </trkpt>
      <trkpt lat="45.11476" lon="2.67111">
        <ele>1568.8</ele>
        <time>2021-08-11T11:40:08Z</time>
      </trkpt>
      <trkpt lat="45.11475" lon="2.67112">
        <ele>1568.7</ele>
        <time>2021-08-11T11:40:09Z</time>
      </trkpt>
      <trkpt lat="45.11474" lon="2.67113">
        <ele>1568.7</ele>
        <time>2021-08-11T11:40:10Z</time>
      </trkpt>
      <trkpt lat="45.11474" lon="2.67113">
        <ele>1568.7</ele>
        <time>2021-08-11T11:40:11Z</time>
      </trkpt>
      <trkpt lat="45.11473" lon="2.67114">
        <ele>1568.7</ele>
        <time>2021-08-11T11:40:12Z</time>
      </trkpt>
      <trkpt lat="45.11472" lon="2.67115">
        <ele>1568.7</ele>
        <time>2021-08-11T11:40:13Z</time>
      </trkpt>
      <trkpt lat="45.11472" lon="2.67115">
        <ele>1568.7</ele>
        <time>2021-08-11T11:40:14Z</time>
      </trkpt>
      <trkpt lat="45.11471" lon="2.67116">
        <ele>1568.7</ele>
        <time>2021-08-11T11:40:15Z</time>
      </trkpt>
      <trkpt lat="45.11471" lon="2.67117">
        <ele>1568.7</ele>
        <time>2021-08-11T11:40:16Z</time>
      </trkpt>
      <trkpt lat="45.1147" lon="2.67117">
        <ele>1568.7</ele>
        <time>2021-08-11T11:40:17Z</time>
      </trkpt>
      <trkpt lat="45.11469" lon="2.67118">
        <ele>1568.7</ele>
        <time>2021-08-11T11:40:18Z</time>
      </trkpt>
      <trkpt lat="45.11469" lon="2.67119">
        <ele>1568.7</ele>
        <time>2021-08-11T11:40:19Z</time>
      </trkpt>
      <trkpt lat="45.11468" lon="2.67119">
        <ele>1568.7</ele>
        <time>2021-08-11T11:40:20Z</time>
      </trkpt>
      <trkpt lat="45.11467" lon="2.6712">
        <ele>1568.7</ele>
        <time>2021-08-11T11:40:21Z</time>
      </trkpt>
      <trkpt lat="45.11466" lon="2.6712">
        <ele>1568.7</ele>
        <time>2021-08-11T11:40:22Z</time>
      </trkpt>
      <trkpt lat="45.11466" lon="2.67121">
        <ele>1568.7</ele>
        <time>2021-08-11T11:40:23Z</time>
      </trkpt>
      <trkpt lat="45.11465" lon="2.67122">
        <ele>1568.8</ele>
        <time>2021-08-11T11:40:24Z</time>
      </trkpt>
      <trkpt lat="45.11464" lon="2.67123">
        <ele>1568.9</ele>
        <time>2021-08-11T11:40:25Z</time>
      </trkpt>
      <trkpt lat="45.11464" lon="2.67123">
        <ele>1568.9</ele>
        <time>2021-08-11T11:40:26Z</time>
      </trkpt>
      <trkpt lat="45.11463" lon="2.67124">
        <ele>1568.9</ele>
        <time>2021-08-11T11:40:27Z</time>
      </trkpt>
      <trkpt lat="45.11463" lon="2.67124">
        <ele>1568.9</ele>
        <time>2021-08-11T11:40:28Z</time>
      </trkpt>
      <trkpt lat="45.11463" lon="2.67124">
        <ele>1568.9</ele>
        <time>2021-08-11T11:40:29Z</time>
      </trkpt>
      <trkpt lat="45.11463" lon="2.67124">
        <ele>1568.9</ele>
        <time>2021-08-11T11:40:30Z</time>
      </trkpt>
      <trkpt lat="45.11463" lon="2.67124">
        <ele>1568.9</ele>
        <time>2021-08-11T11:40:31Z</time>
      </trkpt>
      <trkpt lat="45.11462" lon="2.67124">
        <ele>1568.9</ele>
        <time>2021-08-11T11:40:32Z</time>
      </trkpt>
      <trkpt lat="45.11462" lon="2.67125">
        <ele>1568.9</ele>
        <time>2021-08-11T11:40:33Z</time>
      </trkpt>
      <trkpt lat="45.11462" lon="2.67125">
        <ele>1568.9</ele>
        <time>2021-08-11T11:40:34Z</time>
      </trkpt>
      <trkpt lat="45.11461" lon="2.67125">
        <ele>1568.9</ele>
        <time>2021-08-11T11:40:35Z</time>
      </trkpt>
      <trkpt lat="45.11461" lon="2.67125">
        <ele>1569</ele>
        <time>2021-08-11T11:40:36Z</time>
      </trkpt>
      <trkpt lat="45.1146" lon="2.67126">
        <ele>1569</ele>
        <time>2021-08-11T11:40:37Z</time>
      </trkpt>
      <trkpt lat="45.11459" lon="2.67126">
        <ele>1569</ele>
        <time>2021-08-11T11:40:38Z</time>
      </trkpt>
      <trkpt lat="45.11459" lon="2.67127">
        <ele>1569</ele>
        <time>2021-08-11T11:40:39Z</time>
      </trkpt>
      <trkpt lat="45.11458" lon="2.67128">
        <ele>1569.1</ele>
        <time>2021-08-11T11:40:40Z</time>
      </trkpt>
      <trkpt lat="45.11458" lon="2.67128">
        <ele>1569.2</ele>
        <time>2021-08-11T11:40:41Z</time>
      </trkpt>
      <trkpt lat="45.11457" lon="2.67129">
        <ele>1569.2</ele>
        <time>2021-08-11T11:40:42Z</time>
      </trkpt>
      <trkpt lat="45.11456" lon="2.6713">
        <ele>1569.3</ele>
        <time>2021-08-11T11:40:43Z</time>
      </trkpt>
      <trkpt lat="45.11455" lon="2.6713">
        <ele>1569.4</ele>
        <time>2021-08-11T11:40:44Z</time>
      </trkpt>
      <trkpt lat="45.11455" lon="2.67131">
        <ele>1569.4</ele>
        <time>2021-08-11T11:40:45Z</time>
      </trkpt>
      <trkpt lat="45.11454" lon="2.67131">
        <ele>1569.5</ele>
        <time>2021-08-11T11:40:46Z</time>
      </trkpt>
      <trkpt lat="45.11453" lon="2.67132">
        <ele>1569.5</ele>
        <time>2021-08-11T11:40:47Z</time>
      </trkpt>
      <trkpt lat="45.11453" lon="2.67132">
        <ele>1569.6</ele>
        <time>2021-08-11T11:40:48Z</time>
      </trkpt>
      <trkpt lat="45.11452" lon="2.67133">
        <ele>1569.7</ele>
        <time>2021-08-11T11:40:49Z</time>
      </trkpt>
      <trkpt lat="45.11451" lon="2.67133">
        <ele>1569.8</ele>
        <time>2021-08-11T11:40:50Z</time>
      </trkpt>
      <trkpt lat="45.1145" lon="2.67134">
        <ele>1569.9</ele>
        <time>2021-08-11T11:40:51Z</time>
      </trkpt>
      <trkpt lat="45.1145" lon="2.67135">
        <ele>1570</ele>
        <time>2021-08-11T11:40:52Z</time>
      </trkpt>
      <trkpt lat="45.11449" lon="2.67136">
        <ele>1570.1</ele>
        <time>2021-08-11T11:40:53Z</time>
      </trkpt>
      <trkpt lat="45.11448" lon="2.67136">
        <ele>1570.2</ele>
        <time>2021-08-11T11:40:54Z</time>
      </trkpt>
      <trkpt lat="45.11447" lon="2.67137">
        <ele>1570.3</ele>
        <time>2021-08-11T11:40:55Z</time>
      </trkpt>
      <trkpt lat="45.11446" lon="2.67138">
        <ele>1570.4</ele>
        <time>2021-08-11T11:40:56Z</time>
      </trkpt>
      <trkpt lat="45.11446" lon="2.67138">
        <ele>1570.5</ele>
        <time>2021-08-11T11:40:57Z</time>
      </trkpt>
      <trkpt lat="45.11445" lon="2.67139">
        <ele>1570.7</ele>
        <time>2021-08-11T11:40:58Z</time>
      </trkpt>
      <trkpt lat="45.11444" lon="2.6714">
        <ele>1570.8</ele>
        <time>2021-08-11T11:40:59Z</time>
      </trkpt>
      <trkpt lat="45.11443" lon="2.6714">
        <ele>1571</ele>
        <time>2021-08-11T11:41:00Z</time>
      </trkpt>
      <trkpt lat="45.11442" lon="2.67141">
        <ele>1571.1</ele>
        <time>2021-08-11T11:41:01Z</time>
      </trkpt>
      <trkpt lat="45.11442" lon="2.67142">
        <ele>1571.3</ele>
        <time>2021-08-11T11:41:02Z</time>
      </trkpt>
      <trkpt lat="45.11441" lon="2.67143">
        <ele>1571.4</ele>
        <time>2021-08-11T11:41:03Z</time>
      </trkpt>
      <trkpt lat="45.11441" lon="2.67143">
        <ele>1571.5</ele>
        <time>2021-08-11T11:41:04Z</time>
      </trkpt>
      <trkpt lat="45.1144" lon="2.67144">
        <ele>1571.6</ele>
        <time>2021-08-11T11:41:05Z</time>
      </trkpt>
      <trkpt lat="45.1144" lon="2.67144">
        <ele>1571.8</ele>
        <time>2021-08-11T11:41:06Z</time>
      </trkpt>
      <trkpt lat="45.11439" lon="2.67145">
        <ele>1571.9</ele>
        <time>2021-08-11T11:41:07Z</time>
      </trkpt>
      <trkpt lat="45.11439" lon="2.67145">
        <ele>1572.1</ele>
        <time>2021-08-11T11:41:08Z</time>
      </trkpt>
      <trkpt lat="45.11438" lon="2.67146">
        <ele>1572.2</ele>
        <time>2021-08-11T11:41:09Z</time>
      </trkpt>
      <trkpt lat="45.11437" lon="2.67147">
        <ele>1572.4</ele>
        <time>2021-08-11T11:41:10Z</time>
      </trkpt>
      <trkpt lat="45.11436" lon="2.67147">
        <ele>1572.5</ele>
        <time>2021-08-11T11:41:11Z</time>
      </trkpt>
      <trkpt lat="45.11436" lon="2.67148">
        <ele>1572.7</ele>
        <time>2021-08-11T11:41:12Z</time>
      </trkpt>
      <trkpt lat="45.11435" lon="2.67149">
        <ele>1573</ele>
        <time>2021-08-11T11:41:13Z</time>
      </trkpt>
      <trkpt lat="45.11434" lon="2.6715">
        <ele>1573.1</ele>
        <time>2021-08-11T11:41:14Z</time>
      </trkpt>
      <trkpt lat="45.11433" lon="2.6715">
        <ele>1573.3</ele>
        <time>2021-08-11T11:41:15Z</time>
      </trkpt>
      <trkpt lat="45.11432" lon="2.67151">
        <ele>1573.5</ele>
        <time>2021-08-11T11:41:16Z</time>
      </trkpt>
      <trkpt lat="45.11432" lon="2.67152">
        <ele>1573.8</ele>
        <time>2021-08-11T11:41:17Z</time>
      </trkpt>
      <trkpt lat="45.11431" lon="2.67153">
        <ele>1574</ele>
        <time>2021-08-11T11:41:18Z</time>
      </trkpt>
      <trkpt lat="45.1143" lon="2.67153">
        <ele>1574.2</ele>
        <time>2021-08-11T11:41:19Z</time>
      </trkpt>
      <trkpt lat="45.11429" lon="2.67154">
        <ele>1574.4</ele>
        <time>2021-08-11T11:41:20Z</time>
      </trkpt>
      <trkpt lat="45.11428" lon="2.67155">
        <ele>1574.7</ele>
        <time>2021-08-11T11:41:21Z</time>
      </trkpt>
      <trkpt lat="45.11428" lon="2.67155">
        <ele>1574.9</ele>
        <time>2021-08-11T11:41:22Z</time>
      </trkpt>
      <trkpt lat="45.11427" lon="2.67156">
        <ele>1575.1</ele>
        <time>2021-08-11T11:41:23Z</time>
      </trkpt>
      <trkpt lat="45.11426" lon="2.67157">
        <ele>1575.4</ele>
        <time>2021-08-11T11:41:24Z</time>
      </trkpt>
      <trkpt lat="45.11425" lon="2.67157">
        <ele>1575.6</ele>
        <time>2021-08-11T11:41:25Z</time>
      </trkpt>
      <trkpt lat="45.11424" lon="2.67158">
        <ele>1575.8</ele>
        <time>2021-08-11T11:41:26Z</time>
      </trkpt>
      <trkpt lat="45.11423" lon="2.67159">
        <ele>1576.1</ele>
        <time>2021-08-11T11:41:27Z</time>
      </trkpt>
      <trkpt lat="45.11422" lon="2.6716">
        <ele>1576.4</ele>
        <time>2021-08-11T11:41:28Z</time>
      </trkpt>
      <trkpt lat="45.11422" lon="2.6716">
        <ele>1576.7</ele>
        <time>2021-08-11T11:41:29Z</time>
      </trkpt>
      <trkpt lat="45.11421" lon="2.67161">
        <ele>1577</ele>
        <time>2021-08-11T11:41:30Z</time>
      </trkpt>
      <trkpt lat="45.11421" lon="2.67162">
        <ele>1577.1</ele>
        <time>2021-08-11T11:41:31Z</time>
      </trkpt>
      <trkpt lat="45.11421" lon="2.67162">
        <ele>1577.1</ele>
        <time>2021-08-11T11:41:32Z</time>
      </trkpt>
      <trkpt lat="45.11421" lon="2.67162">
        <ele>1577.1</ele>
        <time>2021-08-11T11:41:33Z</time>
      </trkpt>
      <trkpt lat="45.11421" lon="2.67162">
        <ele>1577.1</ele>
        <time>2021-08-11T11:41:34Z</time>
      </trkpt>
      <trkpt lat="45.11421" lon="2.67162">
        <ele>1577.1</ele>
        <time>2021-08-11T11:41:35Z</time>
      </trkpt>
      <trkpt lat="45.11421" lon="2.67161">
        <ele>1577</ele>
        <time>2021-08-11T11:41:36Z</time>
      </trkpt>
      <trkpt lat="45.11421" lon="2.67161">
        <ele>1577</ele>
        <time>2021-08-11T11:41:37Z</time>
      </trkpt>
      <trkpt lat="45.11421" lon="2.67161">
        <ele>1577</ele>
        <time>2021-08-11T11:41:38Z</time>
      </trkpt>
      <trkpt lat="45.1142" lon="2.67161">
        <ele>1577.1</ele>
        <time>2021-08-11T11:41:39Z</time>
      </trkpt>
      <trkpt lat="45.1142" lon="2.67162">
        <ele>1577.3</ele>
        <time>2021-08-11T11:41:40Z</time>
      </trkpt>
      <trkpt lat="45.11419" lon="2.67163">
        <ele>1577.5</ele>
        <time>2021-08-11T11:41:41Z</time>
      </trkpt>
      <trkpt lat="45.11418" lon="2.67163">
        <ele>1577.7</ele>
        <time>2021-08-11T11:41:42Z</time>
      </trkpt>
      <trkpt lat="45.11417" lon="2.67164">
        <ele>1578</ele>
        <time>2021-08-11T11:41:43Z</time>
      </trkpt>
      <trkpt lat="45.11417" lon="2.67164">
        <ele>1578.3</ele>
        <time>2021-08-11T11:41:44Z</time>
      </trkpt>
      <trkpt lat="45.11416" lon="2.67165">
        <ele>1578.6</ele>
        <time>2021-08-11T11:41:45Z</time>
      </trkpt>
      <trkpt lat="45.11416" lon="2.67166">
        <ele>1578.8</ele>
        <time>2021-08-11T11:41:46Z</time>
      </trkpt>
      <trkpt lat="45.11415" lon="2.67168">
        <ele>1578.8</ele>
        <time>2021-08-11T11:41:47Z</time>
      </trkpt>
      <trkpt lat="45.11414" lon="2.67169">
        <ele>1578.6</ele>
        <time>2021-08-11T11:41:48Z</time>
      </trkpt>
      <trkpt lat="45.11413" lon="2.6717">
        <ele>1578.5</ele>
        <time>2021-08-11T11:41:49Z</time>
      </trkpt>
      <trkpt lat="45.11413" lon="2.67171">
        <ele>1578.3</ele>
        <time>2021-08-11T11:41:50Z</time>
      </trkpt>
      <trkpt lat="45.11412" lon="2.67172">
        <ele>1578.2</ele>
        <time>2021-08-11T11:41:51Z</time>
      </trkpt>
      <trkpt lat="45.11411" lon="2.67173">
        <ele>1578.1</ele>
        <time>2021-08-11T11:41:52Z</time>
      </trkpt>
      <trkpt lat="45.1141" lon="2.67173">
        <ele>1578</ele>
        <time>2021-08-11T11:41:53Z</time>
      </trkpt>
      <trkpt lat="45.11409" lon="2.67174">
        <ele>1577.9</ele>
        <time>2021-08-11T11:41:54Z</time>
      </trkpt>
      <trkpt lat="45.11409" lon="2.67175">
        <ele>1577.8</ele>
        <time>2021-08-11T11:41:55Z</time>
      </trkpt>
      <trkpt lat="45.11408" lon="2.67176">
        <ele>1577.6</ele>
        <time>2021-08-11T11:41:56Z</time>
      </trkpt>
      <trkpt lat="45.11408" lon="2.67178">
        <ele>1577.5</ele>
        <time>2021-08-11T11:41:57Z</time>
      </trkpt>
      <trkpt lat="45.11407" lon="2.67179">
        <ele>1577.4</ele>
        <time>2021-08-11T11:41:58Z</time>
      </trkpt>
      <trkpt lat="45.11407" lon="2.6718">
        <ele>1577.3</ele>
        <time>2021-08-11T11:41:59Z</time>
      </trkpt>
      <trkpt lat="45.11406" lon="2.67181">
        <ele>1577.1</ele>
        <time>2021-08-11T11:42:00Z</time>
      </trkpt>
      <trkpt lat="45.11406" lon="2.67183">
        <ele>1577</ele>
        <time>2021-08-11T11:42:01Z</time>
      </trkpt>
      <trkpt lat="45.11405" lon="2.67184">
        <ele>1576.9</ele>
        <time>2021-08-11T11:42:02Z</time>
      </trkpt>
      <trkpt lat="45.11405" lon="2.67185">
        <ele>1576.8</ele>
        <time>2021-08-11T11:42:03Z</time>
      </trkpt>
      <trkpt lat="45.11405" lon="2.67187">
        <ele>1576.7</ele>
        <time>2021-08-11T11:42:04Z</time>
      </trkpt>
      <trkpt lat="45.11405" lon="2.67188">
        <ele>1576.6</ele>
        <time>2021-08-11T11:42:05Z</time>
      </trkpt>
      <trkpt lat="45.11404" lon="2.67189">
        <ele>1576.5</ele>
        <time>2021-08-11T11:42:06Z</time>
      </trkpt>
      <trkpt lat="45.11404" lon="2.67191">
        <ele>1576.4</ele>
        <time>2021-08-11T11:42:07Z</time>
      </trkpt>
      <trkpt lat="45.11403" lon="2.67192">
        <ele>1576.3</ele>
        <time>2021-08-11T11:42:08Z</time>
      </trkpt>
      <trkpt lat="45.11403" lon="2.67193">
        <ele>1576.3</ele>
        <time>2021-08-11T11:42:09Z</time>
      </trkpt>
      <trkpt lat="45.11402" lon="2.67194">
        <ele>1576.2</ele>
        <time>2021-08-11T11:42:10Z</time>
      </trkpt>
      <trkpt lat="45.11402" lon="2.67195">
        <ele>1576.2</ele>
        <time>2021-08-11T11:42:11Z</time>
      </trkpt>
      <trkpt lat="45.11401" lon="2.67196">
        <ele>1576.2</ele>
        <time>2021-08-11T11:42:12Z</time>
      </trkpt>
      <trkpt lat="45.11401" lon="2.67196">
        <ele>1576.1</ele>
        <time>2021-08-11T11:42:13Z</time>
      </trkpt>
      <trkpt lat="45.114" lon="2.67197">
        <ele>1576.1</ele>
        <time>2021-08-11T11:42:14Z</time>
      </trkpt>
      <trkpt lat="45.114" lon="2.67197">
        <ele>1576.1</ele>
        <time>2021-08-11T11:42:15Z</time>
      </trkpt>
      <trkpt lat="45.11399" lon="2.67198">
        <ele>1576.1</ele>
        <time>2021-08-11T11:42:16Z</time>
      </trkpt>
      <trkpt lat="45.11399" lon="2.67199">
        <ele>1576.1</ele>
        <time>2021-08-11T11:42:17Z</time>
      </trkpt>
      <trkpt lat="45.11398" lon="2.67199">
        <ele>1576.1</ele>
        <time>2021-08-11T11:42:18Z</time>
      </trkpt>
      <trkpt lat="45.11398" lon="2.672">
        <ele>1576</ele>
        <time>2021-08-11T11:42:19Z</time>
      </trkpt>
      <trkpt lat="45.11398" lon="2.67201">
        <ele>1576</ele>
        <time>2021-08-11T11:42:20Z</time>
      </trkpt>
      <trkpt lat="45.11398" lon="2.67201">
        <ele>1576</ele>
        <time>2021-08-11T11:42:21Z</time>
      </trkpt>
      <trkpt lat="45.11397" lon="2.67201">
        <ele>1576</ele>
        <time>2021-08-11T11:42:22Z</time>
      </trkpt>
      <trkpt lat="45.11397" lon="2.67201">
        <ele>1576</ele>
        <time>2021-08-11T11:42:23Z</time>
      </trkpt>
      <trkpt lat="45.11397" lon="2.67202">
        <ele>1576</ele>
        <time>2021-08-11T11:42:24Z</time>
      </trkpt>
      <trkpt lat="45.11397" lon="2.67201">
        <ele>1576</ele>
        <time>2021-08-11T11:42:25Z</time>
      </trkpt>
      <trkpt lat="45.11397" lon="2.67201">
        <ele>1576</ele>
        <time>2021-08-11T11:42:26Z</time>
      </trkpt>
      <trkpt lat="45.11397" lon="2.67201">
        <ele>1576</ele>
        <time>2021-08-11T11:42:27Z</time>
      </trkpt>
      <trkpt lat="45.11397" lon="2.67201">
        <ele>1576</ele>
        <time>2021-08-11T11:42:28Z</time>
      </trkpt>
      <trkpt lat="45.11397" lon="2.67201">
        <ele>1576</ele>
        <time>2021-08-11T11:42:29Z</time>
      </trkpt>
      <trkpt lat="45.11397" lon="2.67201">
        <ele>1576</ele>
        <time>2021-08-11T11:42:30Z</time>
      </trkpt>
      <trkpt lat="45.11397" lon="2.67201">
        <ele>1576</ele>
        <time>2021-08-11T11:42:31Z</time>
      </trkpt>
      <trkpt lat="45.11397" lon="2.67201">
        <ele>1576</ele>
        <time>2021-08-11T11:42:32Z</time>
      </trkpt>
      <trkpt lat="45.11397" lon="2.67201">
        <ele>1576</ele>
        <time>2021-08-11T11:42:33Z</time>
      </trkpt>
      <trkpt lat="45.11397" lon="2.67201">
        <ele>1576</ele>
        <time>2021-08-11T11:42:34Z</time>
      </trkpt>
      <trkpt lat="45.11397" lon="2.67201">
        <ele>1576</ele>
        <time>2021-08-11T11:42:35Z</time>
      </trkpt>
      <trkpt lat="45.11397" lon="2.67201">
        <ele>1576</ele>
        <time>2021-08-11T11:42:36Z</time>
      </trkpt>
      <trkpt lat="45.11397" lon="2.67201">
        <ele>1576</ele>
        <time>2021-08-11T11:42:37Z</time>
      </trkpt>
      <trkpt lat="45.11397" lon="2.67201">
        <ele>1576.1</ele>
        <time>2021-08-11T11:42:38Z</time>
      </trkpt>
      <trkpt lat="45.11397" lon="2.67201">
        <ele>1576.1</ele>
        <time>2021-08-11T11:42:39Z</time>
      </trkpt>
      <trkpt lat="45.11397" lon="2.672">
        <ele>1576.1</ele>
        <time>2021-08-11T11:42:40Z</time>
      </trkpt>
      <trkpt lat="45.11397" lon="2.672">
        <ele>1576</ele>
        <time>2021-08-11T11:42:41Z</time>
      </trkpt>
      <trkpt lat="45.11397" lon="2.672">
        <ele>1576</ele>
        <time>2021-08-11T11:42:42Z</time>
      </trkpt>
      <trkpt lat="45.11397" lon="2.672">
        <ele>1576.1</ele>
        <time>2021-08-11T11:42:43Z</time>
      </trkpt>
      <trkpt lat="45.11397" lon="2.672">
        <ele>1576.1</ele>
        <time>2021-08-11T11:42:44Z</time>
      </trkpt>
      <trkpt lat="45.11397" lon="2.672">
        <ele>1576.1</ele>
        <time>2021-08-11T11:42:45Z</time>
      </trkpt>
      <trkpt lat="45.11397" lon="2.672">
        <ele>1576.1</ele>
        <time>2021-08-11T11:42:46Z</time>
      </trkpt>
      <trkpt lat="45.11397" lon="2.672">
        <ele>1576.1</ele>
        <time>2021-08-11T11:42:47Z</time>
      </trkpt>
      <trkpt lat="45.11397" lon="2.672">
        <ele>1576.1</ele>
        <time>2021-08-11T11:42:48Z</time>
      </trkpt>
      <trkpt lat="45.11397" lon="2.672">
        <ele>1576.1</ele>
        <time>2021-08-11T11:42:49Z</time>
      </trkpt>
      <trkpt lat="45.11397" lon="2.672">
        <ele>1576.1</ele>
        <time>2021-08-11T11:42:50Z</time>
      </trkpt>
      <trkpt lat="45.11397" lon="2.672">
        <ele>1576</ele>
        <time>2021-08-11T11:42:51Z</time>
      </trkpt>
      <trkpt lat="45.11397" lon="2.67201">
        <ele>1576.1</ele>
        <time>2021-08-11T11:42:52Z</time>
      </trkpt>
      <trkpt lat="45.11397" lon="2.67201">
        <ele>1576.1</ele>
        <time>2021-08-11T11:42:53Z</time>
      </trkpt>
      <trkpt lat="45.11396" lon="2.67201">
        <ele>1576.1</ele>
        <time>2021-08-11T11:42:54Z</time>
      </trkpt>
      <trkpt lat="45.11396" lon="2.67201">
        <ele>1576.1</ele>
        <time>2021-08-11T11:42:55Z</time>
      </trkpt>
      <trkpt lat="45.11396" lon="2.67201">
        <ele>1576.1</ele>
        <time>2021-08-11T11:42:56Z</time>
      </trkpt>
      <trkpt lat="45.11396" lon="2.67201">
        <ele>1576.1</ele>
        <time>2021-08-11T11:42:57Z</time>
      </trkpt>
      <trkpt lat="45.11396" lon="2.67201">
        <ele>1576.1</ele>
        <time>2021-08-11T11:42:58Z</time>
      </trkpt>
      <trkpt lat="45.11396" lon="2.67201">
        <ele>1576.1</ele>
        <time>2021-08-11T11:42:59Z</time>
      </trkpt>
      <trkpt lat="45.11396" lon="2.67201">
        <ele>1576.1</ele>
        <time>2021-08-11T11:43:00Z</time>
      </trkpt>
      <trkpt lat="45.11396" lon="2.67202">
        <ele>1576.1</ele>
        <time>2021-08-11T11:43:01Z</time>
      </trkpt>
      <trkpt lat="45.11396" lon="2.67202">
        <ele>1576.1</ele>
        <time>2021-08-11T11:43:02Z</time>
      </trkpt>
      <trkpt lat="45.11396" lon="2.67201">
        <ele>1576.1</ele>
        <time>2021-08-11T11:43:03Z</time>
      </trkpt>
      <trkpt lat="45.11396" lon="2.67201">
        <ele>1576.1</ele>
        <time>2021-08-11T11:43:04Z</time>
      </trkpt>
      <trkpt lat="45.11396" lon="2.67201">
        <ele>1576.1</ele>
        <time>2021-08-11T11:43:05Z</time>
      </trkpt>
      <trkpt lat="45.11396" lon="2.67201">
        <ele>1576.1</ele>
        <time>2021-08-11T11:43:06Z</time>
      </trkpt>
      <trkpt lat="45.11396" lon="2.67201">
        <ele>1576.1</ele>
        <time>2021-08-11T11:43:07Z</time>
      </trkpt>
      <trkpt lat="45.11396" lon="2.67201">
        <ele>1576.1</ele>
        <time>2021-08-11T11:43:08Z</time>
      </trkpt>
      <trkpt lat="45.11396" lon="2.67201">
        <ele>1576.1</ele>
        <time>2021-08-11T11:43:09Z</time>
      </trkpt>
      <trkpt lat="45.11396" lon="2.67201">
        <ele>1576.1</ele>
        <time>2021-08-11T11:43:10Z</time>
      </trkpt>
      <trkpt lat="45.11396" lon="2.67201">
        <ele>1576.1</ele>
        <time>2021-08-11T11:43:11Z</time>
      </trkpt>
      <trkpt lat="45.11396" lon="2.67201">
        <ele>1576.1</ele>
        <time>2021-08-11T11:43:12Z</time>
      </trkpt>
      <trkpt lat="45.11396" lon="2.67201">
        <ele>1576.1</ele>
        <time>2021-08-11T11:43:13Z</time>
      </trkpt>
      <trkpt lat="45.11396" lon="2.67201">
        <ele>1576.1</ele>
        <time>2021-08-11T11:43:14Z</time>
      </trkpt>
      <trkpt lat="45.11396" lon="2.67201">
        <ele>1576.1</ele>
        <time>2021-08-11T11:43:15Z</time>
      </trkpt>
      <trkpt lat="45.11396" lon="2.67201">
        <ele>1576.1</ele>
        <time>2021-08-11T11:43:16Z</time>
      </trkpt>
      <trkpt lat="45.11396" lon="2.67201">
        <ele>1576.1</ele>
        <time>2021-08-11T11:43:17Z</time>
      </trkpt>
      <trkpt lat="45.11396" lon="2.67201">
        <ele>1576.1</ele>
        <time>2021-08-11T11:43:18Z</time>
      </trkpt>
      <trkpt lat="45.11397" lon="2.67201">
        <ele>1576.1</ele>
        <time>2021-08-11T11:43:19Z</time>
      </trkpt>
      <trkpt lat="45.11397" lon="2.67201">
        <ele>1576.1</ele>
        <time>2021-08-11T11:43:20Z</time>
      </trkpt>
      <trkpt lat="45.11397" lon="2.67201">
        <ele>1576.1</ele>
        <time>2021-08-11T11:43:21Z</time>
      </trkpt>
      <trkpt lat="45.11397" lon="2.67201">
        <ele>1576.1</ele>
        <time>2021-08-11T11:43:22Z</time>
      </trkpt>
      <trkpt lat="45.11396" lon="2.672">
        <ele>1576.1</ele>
        <time>2021-08-11T11:43:23Z</time>
      </trkpt>
      <trkpt lat="45.11396" lon="2.672">
        <ele>1576.1</ele>
        <time>2021-08-11T11:43:24Z</time>
      </trkpt>
      <trkpt lat="45.11396" lon="2.672">
        <ele>1576.1</ele>
        <time>2021-08-11T11:43:25Z</time>
      </trkpt>
      <trkpt lat="45.11396" lon="2.672">
        <ele>1576.1</ele>
        <time>2021-08-11T11:43:26Z</time>
      </trkpt>
      <trkpt lat="45.11396" lon="2.672">
        <ele>1576.1</ele>
        <time>2021-08-11T11:43:27Z</time>
      </trkpt>
      <trkpt lat="45.11396" lon="2.672">
        <ele>1576.1</ele>
        <time>2021-08-11T11:43:28Z</time>
      </trkpt>
      <trkpt lat="45.11396" lon="2.672">
        <ele>1576.1</ele>
        <time>2021-08-11T11:43:29Z</time>
      </trkpt>
      <trkpt lat="45.11397" lon="2.672">
        <ele>1576.1</ele>
        <time>2021-08-11T11:43:30Z</time>
      </trkpt>
      <trkpt lat="45.11397" lon="2.67199">
        <ele>1576.1</ele>
        <time>2021-08-11T11:43:31Z</time>
      </trkpt>
      <trkpt lat="45.11397" lon="2.67199">
        <ele>1576.1</ele>
        <time>2021-08-11T11:43:32Z</time>
      </trkpt>
      <trkpt lat="45.11397" lon="2.67199">
        <ele>1576.1</ele>
        <time>2021-08-11T11:43:33Z</time>
      </trkpt>
      <trkpt lat="45.11397" lon="2.67199">
        <ele>1576.1</ele>
        <time>2021-08-11T11:43:34Z</time>
      </trkpt>
      <trkpt lat="45.11397" lon="2.67199">
        <ele>1576.1</ele>
        <time>2021-08-11T11:43:35Z</time>
      </trkpt>
      <trkpt lat="45.11397" lon="2.672">
        <ele>1576.1</ele>
        <time>2021-08-11T11:43:36Z</time>
      </trkpt>
      <trkpt lat="45.11397" lon="2.672">
        <ele>1576.1</ele>
        <time>2021-08-11T11:43:37Z</time>
      </trkpt>
      <trkpt lat="45.11397" lon="2.672">
        <ele>1576.1</ele>
        <time>2021-08-11T11:43:38Z</time>
      </trkpt>
      <trkpt lat="45.11396" lon="2.672">
        <ele>1576.1</ele>
        <time>2021-08-11T11:43:39Z</time>
      </trkpt>
      <trkpt lat="45.11396" lon="2.67201">
        <ele>1576.1</ele>
        <time>2021-08-11T11:43:40Z</time>
      </trkpt>
      <trkpt lat="45.11396" lon="2.67201">
        <ele>1576.1</ele>
        <time>2021-08-11T11:43:41Z</time>
      </trkpt>
      <trkpt lat="45.11396" lon="2.67202">
        <ele>1576.1</ele>
        <time>2021-08-11T11:43:42Z</time>
      </trkpt>
      <trkpt lat="45.11395" lon="2.67202">
        <ele>1576.1</ele>
        <time>2021-08-11T11:43:43Z</time>
      </trkpt>
      <trkpt lat="45.11395" lon="2.67202">
        <ele>1576.1</ele>
        <time>2021-08-11T11:43:44Z</time>
      </trkpt>
      <trkpt lat="45.11394" lon="2.67202">
        <ele>1576.2</ele>
        <time>2021-08-11T11:43:45Z</time>
      </trkpt>
      <trkpt lat="45.11394" lon="2.67202">
        <ele>1576.2</ele>
        <time>2021-08-11T11:43:46Z</time>
      </trkpt>
      <trkpt lat="45.11394" lon="2.67202">
        <ele>1576.2</ele>
        <time>2021-08-11T11:43:47Z</time>
      </trkpt>
      <trkpt lat="45.11394" lon="2.67202">
        <ele>1576.2</ele>
        <time>2021-08-11T11:43:48Z</time>
      </trkpt>
      <trkpt lat="45.11394" lon="2.67202">
        <ele>1576.2</ele>
        <time>2021-08-11T11:43:49Z</time>
      </trkpt>
      <trkpt lat="45.11394" lon="2.67202">
        <ele>1576.2</ele>
        <time>2021-08-11T11:43:50Z</time>
      </trkpt>
      <trkpt lat="45.11394" lon="2.67202">
        <ele>1576.2</ele>
        <time>2021-08-11T11:43:51Z</time>
      </trkpt>
      <trkpt lat="45.11394" lon="2.67202">
        <ele>1576.2</ele>
        <time>2021-08-11T11:43:52Z</time>
      </trkpt>
      <trkpt lat="45.11394" lon="2.67202">
        <ele>1576.2</ele>
        <time>2021-08-11T11:43:53Z</time>
      </trkpt>
      <trkpt lat="45.11394" lon="2.67202">
        <ele>1576.2</ele>
        <time>2021-08-11T11:43:54Z</time>
      </trkpt>
      <trkpt lat="45.11394" lon="2.67202">
        <ele>1576.2</ele>
        <time>2021-08-11T11:43:55Z</time>
      </trkpt>
      <trkpt lat="45.11394" lon="2.67202">
        <ele>1576.2</ele>
        <time>2021-08-11T11:43:56Z</time>
      </trkpt>
      <trkpt lat="45.11394" lon="2.67202">
        <ele>1576.2</ele>
        <time>2021-08-11T11:43:57Z</time>
      </trkpt>
      <trkpt lat="45.11394" lon="2.67202">
        <ele>1576.2</ele>
        <time>2021-08-11T11:43:58Z</time>
      </trkpt>
      <trkpt lat="45.11394" lon="2.67202">
        <ele>1576.2</ele>
        <time>2021-08-11T11:43:59Z</time>
      </trkpt>
      <trkpt lat="45.11394" lon="2.67202">
        <ele>1576.2</ele>
        <time>2021-08-11T11:44:00Z</time>
      </trkpt>
      <trkpt lat="45.11394" lon="2.67202">
        <ele>1576.2</ele>
        <time>2021-08-11T11:44:01Z</time>
      </trkpt>
      <trkpt lat="45.11394" lon="2.67202">
        <ele>1576.2</ele>
        <time>2021-08-11T11:44:02Z</time>
      </trkpt>
      <trkpt lat="45.11394" lon="2.67202">
        <ele>1576.2</ele>
        <time>2021-08-11T11:44:03Z</time>
      </trkpt>
      <trkpt lat="45.11394" lon="2.67202">
        <ele>1576.2</ele>
        <time>2021-08-11T11:44:04Z</time>
      </trkpt>
      <trkpt lat="45.11394" lon="2.67202">
        <ele>1576.2</ele>
        <time>2021-08-11T11:44:05Z</time>
      </trkpt>
      <trkpt lat="45.11394" lon="2.67202">
        <ele>1576.2</ele>
        <time>2021-08-11T11:44:06Z</time>
      </trkpt>
      <trkpt lat="45.11394" lon="2.67202">
        <ele>1576.2</ele>
        <time>2021-08-11T11:44:07Z</time>
      </trkpt>
      <trkpt lat="45.11394" lon="2.67202">
        <ele>1576.2</ele>
        <time>2021-08-11T11:44:08Z</time>
      </trkpt>
      <trkpt lat="45.11394" lon="2.67202">
        <ele>1576.2</ele>
        <time>2021-08-11T11:44:09Z</time>
      </trkpt>
      <trkpt lat="45.11394" lon="2.67202">
        <ele>1576.2</ele>
        <time>2021-08-11T11:44:10Z</time>
      </trkpt>
      <trkpt lat="45.11394" lon="2.67202">
        <ele>1576.2</ele>
        <time>2021-08-11T11:44:11Z</time>
      </trkpt>
      <trkpt lat="45.11394" lon="2.67202">
        <ele>1576.2</ele>
        <time>2021-08-11T11:44:12Z</time>
      </trkpt>
      <trkpt lat="45.11394" lon="2.67202">
        <ele>1576.2</ele>
        <time>2021-08-11T11:44:13Z</time>
      </trkpt>
      <trkpt lat="45.11394" lon="2.67202">
        <ele>1576.2</ele>
        <time>2021-08-11T11:44:14Z</time>
      </trkpt>
      <trkpt lat="45.11394" lon="2.67202">
        <ele>1576.2</ele>
        <time>2021-08-11T11:44:15Z</time>
      </trkpt>
      <trkpt lat="45.11394" lon="2.67202">
        <ele>1576.2</ele>
        <time>2021-08-11T11:44:16Z</time>
      </trkpt>
      <trkpt lat="45.11394" lon="2.67202">
        <ele>1576.2</ele>
        <time>2021-08-11T11:44:17Z</time>
      </trkpt>
      <trkpt lat="45.11394" lon="2.67202">
        <ele>1576.2</ele>
        <time>2021-08-11T11:44:18Z</time>
      </trkpt>
      <trkpt lat="45.11394" lon="2.67202">
        <ele>1576.2</ele>
        <time>2021-08-11T11:44:19Z</time>
      </trkpt>
      <trkpt lat="45.11394" lon="2.67202">
        <ele>1576.2</ele>
        <time>2021-08-11T11:44:20Z</time>
      </trkpt>
      <trkpt lat="45.11394" lon="2.67202">
        <ele>1576.2</ele>
        <time>2021-08-11T11:44:21Z</time>
      </trkpt>
      <trkpt lat="45.11394" lon="2.67202">
        <ele>1576.2</ele>
        <time>2021-08-11T11:44:22Z</time>
      </trkpt>
      <trkpt lat="45.11394" lon="2.67202">
        <ele>1576.2</ele>
        <time>2021-08-11T11:44:23Z</time>
      </trkpt>
      <trkpt lat="45.11394" lon="2.67202">
        <ele>1576.2</ele>
        <time>2021-08-11T11:44:24Z</time>
      </trkpt>
      <trkpt lat="45.11394" lon="2.67202">
        <ele>1576.2</ele>
        <time>2021-08-11T11:44:25Z</time>
      </trkpt>
      <trkpt lat="45.11394" lon="2.67202">
        <ele>1576.2</ele>
        <time>2021-08-11T11:44:26Z</time>
      </trkpt>
      <trkpt lat="45.11394" lon="2.67202">
        <ele>1576.2</ele>
        <time>2021-08-11T11:44:27Z</time>
      </trkpt>
      <trkpt lat="45.11394" lon="2.67202">
        <ele>1576.2</ele>
        <time>2021-08-11T11:44:28Z</time>
      </trkpt>
      <trkpt lat="45.11394" lon="2.67202">
        <ele>1576.2</ele>
        <time>2021-08-11T11:44:29Z</time>
      </trkpt>
      <trkpt lat="45.11394" lon="2.67202">
        <ele>1576.2</ele>
        <time>2021-08-11T11:44:30Z</time>
      </trkpt>
      <trkpt lat="45.11394" lon="2.67202">
        <ele>1576.2</ele>
        <time>2021-08-11T11:44:31Z</time>
      </trkpt>
      <trkpt lat="45.11394" lon="2.67202">
        <ele>1576.2</ele>
        <time>2021-08-11T11:44:32Z</time>
      </trkpt>
      <trkpt lat="45.11394" lon="2.67202">
        <ele>1576.2</ele>
        <time>2021-08-11T11:44:33Z</time>
      </trkpt>
      <trkpt lat="45.11394" lon="2.67202">
        <ele>1576.2</ele>
        <time>2021-08-11T11:44:34Z</time>
      </trkpt>
      <trkpt lat="45.11394" lon="2.67202">
        <ele>1576.2</ele>
        <time>2021-08-11T11:44:35Z</time>
      </trkpt>
      <trkpt lat="45.11394" lon="2.67202">
        <ele>1576.2</ele>
        <time>2021-08-11T11:44:36Z</time>
      </trkpt>
      <trkpt lat="45.11394" lon="2.67202">
        <ele>1576.2</ele>
        <time>2021-08-11T11:44:37Z</time>
      </trkpt>
      <trkpt lat="45.11394" lon="2.67202">
        <ele>1576.2</ele>
        <time>2021-08-11T11:44:38Z</time>
      </trkpt>
      <trkpt lat="45.11394" lon="2.67202">
        <ele>1576.2</ele>
        <time>2021-08-11T11:44:39Z</time>
      </trkpt>
      <trkpt lat="45.11394" lon="2.67202">
        <ele>1576.2</ele>
        <time>2021-08-11T11:44:40Z</time>
      </trkpt>
      <trkpt lat="45.11394" lon="2.67202">
        <ele>1576.2</ele>
        <time>2021-08-11T11:44:41Z</time>
      </trkpt>
      <trkpt lat="45.11394" lon="2.67202">
        <ele>1576.2</ele>
        <time>2021-08-11T11:44:42Z</time>
      </trkpt>
      <trkpt lat="45.11394" lon="2.67202">
        <ele>1576.2</ele>
        <time>2021-08-11T11:44:43Z</time>
      </trkpt>
      <trkpt lat="45.11394" lon="2.67202">
        <ele>1576.2</ele>
        <time>2021-08-11T11:44:44Z</time>
      </trkpt>
    </trkseg>
  </trk>
</gpx>